<?xml version="1.0"?>
<gpx
 version="1.1"
 creator="Satmap Active 20"
 xmlns:xsi="http://www.w3.org/2001/XMLSchema-instance"
 xmlns="http://www.topografix.com/GPX/1/1"
 xmlns:satmap="http://www.satmap.com/updates/xmlschemas/GpxExtensions/v2/GpxExtensions_v2.xsd"
 xsi:schemaLocation="http://www.topografix.com/GPX/1/1 http://www.topografix.com/GPX/1/1/gpx.xsd">
<metadata>
<time>2019-08-30T09:28:05Z</time>
<extensions>
<satmap:platform>43</satmap:platform>
<satmap:software version="3.12.831">SM15.exe</satmap:software>
<satmap:username>Jim Grant</satmap:username>
<satmap:network_ids>
<satmap:network_id type="wifi">00-23-A7-EC-D5-78</satmap:network_id>
<satmap:network_id type="bluetooth">80-BB-EB-D7-5B-7C</satmap:network_id>
</satmap:network_ids>
<satmap:snap_type>simple</satmap:snap_type>
</extensions>
</metadata>
<trk>
<name>2019-08-30_0928</name>
<desc>Track 1</desc>
<number>1</number>
<trkseg>
<trkpt lat="53.248737" lon="-1.846859"><ele>239</ele><time>2019-08-30T09:28:05Z</time><name>PT1</name></trkpt>
<trkpt lat="53.248731" lon="-1.846854"><ele>239</ele><time>2019-08-30T09:28:17Z</time><name>PT2</name></trkpt>
<trkpt lat="53.248727" lon="-1.846861"><ele>238</ele><time>2019-08-30T09:28:17Z</time><name>PT3</name></trkpt>
<trkpt lat="53.248726" lon="-1.846861"><ele>238</ele><time>2019-08-30T09:28:18Z</time><name>PT4</name></trkpt>
<trkpt lat="53.248725" lon="-1.846858"><ele>238</ele><time>2019-08-30T09:28:20Z</time><name>PT5</name></trkpt>
<trkpt lat="53.248724" lon="-1.846857"><ele>238</ele><time>2019-08-30T09:28:32Z</time><name>PT6</name></trkpt>
<trkpt lat="53.248717" lon="-1.846862"><ele>239</ele><time>2019-08-30T09:28:32Z</time><name>PT7</name></trkpt>
<trkpt lat="53.248704" lon="-1.846864"><ele>239</ele><time>2019-08-30T09:28:50Z</time><name>PT8</name></trkpt>
<trkpt lat="53.248703" lon="-1.846868"><ele>239</ele><time>2019-08-30T09:28:50Z</time><name>PT9</name></trkpt>
<trkpt lat="53.248700" lon="-1.846870"><ele>239</ele><time>2019-08-30T09:28:51Z</time><name>PT10</name></trkpt>
<trkpt lat="53.248696" lon="-1.846875"><ele>239</ele><time>2019-08-30T09:28:53Z</time><name>PT11</name></trkpt>
<trkpt lat="53.248693" lon="-1.846874"><ele>239</ele><time>2019-08-30T09:29:05Z</time><name>PT12</name></trkpt>
<trkpt lat="53.248689" lon="-1.846877"><ele>239</ele><time>2019-08-30T09:29:06Z</time><name>PT13</name></trkpt>
<trkpt lat="53.248685" lon="-1.846881"><ele>240</ele><time>2019-08-30T09:29:08Z</time><name>PT14</name></trkpt>
<trkpt lat="53.248682" lon="-1.846882"><ele>239</ele><time>2019-08-30T09:29:08Z</time><name>PT15</name></trkpt>
<trkpt lat="53.248686" lon="-1.846894"><ele>240</ele><time>2019-08-30T09:29:09Z</time><name>PT16</name></trkpt>
<trkpt lat="53.248687" lon="-1.846909"><ele>241</ele><time>2019-08-30T09:29:26Z</time><name>PT17</name></trkpt>
<trkpt lat="53.248691" lon="-1.846908"><ele>242</ele><time>2019-08-30T09:29:27Z</time><name>PT18</name></trkpt>
<trkpt lat="53.248702" lon="-1.846893"><ele>242</ele><time>2019-08-30T09:29:29Z</time><name>PT19</name></trkpt>
<trkpt lat="53.248700" lon="-1.846892"><ele>242</ele><time>2019-08-30T09:29:30Z</time><name>PT20</name></trkpt>
<trkpt lat="53.248698" lon="-1.846893"><ele>242</ele><time>2019-08-30T09:29:32Z</time><name>PT21</name></trkpt>
<trkpt lat="53.248697" lon="-1.846897"><ele>242</ele><time>2019-08-30T09:29:32Z</time><name>PT22</name></trkpt>
<trkpt lat="53.248694" lon="-1.846901"><ele>242</ele><time>2019-08-30T09:29:33Z</time><name>PT23</name></trkpt>
<trkpt lat="53.248696" lon="-1.846905"><ele>241</ele><time>2019-08-30T09:29:35Z</time><name>PT24</name></trkpt>
<trkpt lat="53.248691" lon="-1.846901"><ele>241</ele><time>2019-08-30T09:29:35Z</time><name>PT25</name></trkpt>
<trkpt lat="53.248688" lon="-1.846895"><ele>241</ele><time>2019-08-30T09:30:30Z</time><name>PT26</name></trkpt>
<trkpt lat="53.248689" lon="-1.846895"><ele>241</ele><time>2019-08-30T09:30:32Z</time><name>PT27</name></trkpt>
<trkpt lat="53.248689" lon="-1.846897"><ele>240</ele><time>2019-08-30T09:30:32Z</time><name>PT28</name></trkpt>
<trkpt lat="53.248695" lon="-1.846895"><ele>239</ele><time>2019-08-30T09:32:14Z</time><name>PT29</name></trkpt>
<trkpt lat="53.248697" lon="-1.846896"><ele>239</ele><time>2019-08-30T09:32:14Z</time><name>PT30</name></trkpt>
<trkpt lat="53.248688" lon="-1.846905"><ele>239</ele><time>2019-08-30T09:32:29Z</time><name>PT31</name></trkpt>
<trkpt lat="53.248682" lon="-1.846920"><ele>240</ele><time>2019-08-30T09:32:30Z</time><name>PT32</name></trkpt>
<trkpt lat="53.248673" lon="-1.846936"><ele>240</ele><time>2019-08-30T09:32:32Z</time><name>PT33</name></trkpt>
<trkpt lat="53.248663" lon="-1.846952"><ele>240</ele><time>2019-08-30T09:32:32Z</time><name>PT34</name></trkpt>
<trkpt lat="53.248658" lon="-1.846965"><ele>239</ele><time>2019-08-30T09:32:33Z</time><name>PT35</name></trkpt>
<trkpt lat="53.248652" lon="-1.846983"><ele>239</ele><time>2019-08-30T09:32:35Z</time><name>PT36</name></trkpt>
<trkpt lat="53.248645" lon="-1.846997"><ele>239</ele><time>2019-08-30T09:32:35Z</time><name>PT37</name></trkpt>
<trkpt lat="53.248638" lon="-1.847010"><ele>239</ele><time>2019-08-30T09:32:36Z</time><name>PT38</name></trkpt>
<trkpt lat="53.248631" lon="-1.847019"><ele>239</ele><time>2019-08-30T09:32:38Z</time><name>PT39</name></trkpt>
<trkpt lat="53.248624" lon="-1.847032"><ele>240</ele><time>2019-08-30T09:32:38Z</time><name>PT40</name></trkpt>
<trkpt lat="53.248617" lon="-1.847038"><ele>240</ele><time>2019-08-30T09:32:39Z</time><name>PT41</name></trkpt>
<trkpt lat="53.248607" lon="-1.847048"><ele>240</ele><time>2019-08-30T09:32:41Z</time><name>PT42</name></trkpt>
<trkpt lat="53.248599" lon="-1.847057"><ele>240</ele><time>2019-08-30T09:32:41Z</time><name>PT43</name></trkpt>
<trkpt lat="53.248590" lon="-1.847067"><ele>241</ele><time>2019-08-30T09:32:42Z</time><name>PT44</name></trkpt>
<trkpt lat="53.248582" lon="-1.847074"><ele>240</ele><time>2019-08-30T09:32:44Z</time><name>PT45</name></trkpt>
<trkpt lat="53.248576" lon="-1.847079"><ele>240</ele><time>2019-08-30T09:32:44Z</time><name>PT46</name></trkpt>
<trkpt lat="53.248572" lon="-1.847076"><ele>240</ele><time>2019-08-30T09:32:45Z</time><name>PT47</name></trkpt>
<trkpt lat="53.248562" lon="-1.847076"><ele>239</ele><time>2019-08-30T09:32:47Z</time><name>PT48</name></trkpt>
<trkpt lat="53.248556" lon="-1.847070"><ele>238</ele><time>2019-08-30T09:32:47Z</time><name>PT49</name></trkpt>
<trkpt lat="53.248548" lon="-1.847069"><ele>237</ele><time>2019-08-30T09:32:48Z</time><name>PT50</name></trkpt>
<trkpt lat="53.248544" lon="-1.847070"><ele>237</ele><time>2019-08-30T09:32:50Z</time><name>PT51</name></trkpt>
<trkpt lat="53.248539" lon="-1.847073"><ele>237</ele><time>2019-08-30T09:32:50Z</time><name>PT52</name></trkpt>
<trkpt lat="53.248539" lon="-1.847069"><ele>237</ele><time>2019-08-30T09:32:51Z</time><name>PT53</name></trkpt>
<trkpt lat="53.248536" lon="-1.847070"><ele>236</ele><time>2019-08-30T09:32:53Z</time><name>PT54</name></trkpt>
<trkpt lat="53.248538" lon="-1.847061"><ele>236</ele><time>2019-08-30T09:32:53Z</time><name>PT55</name></trkpt>
<trkpt lat="53.248538" lon="-1.847054"><ele>237</ele><time>2019-08-30T09:32:54Z</time><name>PT56</name></trkpt>
<trkpt lat="53.248535" lon="-1.847052"><ele>237</ele><time>2019-08-30T09:32:56Z</time><name>PT57</name></trkpt>
<trkpt lat="53.248532" lon="-1.847047"><ele>238</ele><time>2019-08-30T09:32:56Z</time><name>PT58</name></trkpt>
<trkpt lat="53.248531" lon="-1.847044"><ele>238</ele><time>2019-08-30T09:32:57Z</time><name>PT59</name></trkpt>
<trkpt lat="53.248531" lon="-1.847040"><ele>238</ele><time>2019-08-30T09:32:59Z</time><name>PT60</name></trkpt>
<trkpt lat="53.248527" lon="-1.847037"><ele>238</ele><time>2019-08-30T09:32:59Z</time><name>PT61</name></trkpt>
<trkpt lat="53.248521" lon="-1.847036"><ele>238</ele><time>2019-08-30T09:33:00Z</time><name>PT62</name></trkpt>
<trkpt lat="53.248516" lon="-1.847036"><ele>237</ele><time>2019-08-30T09:33:02Z</time><name>PT63</name></trkpt>
<trkpt lat="53.248506" lon="-1.847032"><ele>237</ele><time>2019-08-30T09:33:02Z</time><name>PT64</name></trkpt>
<trkpt lat="53.248498" lon="-1.847030"><ele>236</ele><time>2019-08-30T09:33:03Z</time><name>PT65</name></trkpt>
<trkpt lat="53.248491" lon="-1.847036"><ele>235</ele><time>2019-08-30T09:33:05Z</time><name>PT66</name></trkpt>
<trkpt lat="53.248485" lon="-1.847036"><ele>235</ele><time>2019-08-30T09:33:05Z</time><name>PT67</name></trkpt>
<trkpt lat="53.248480" lon="-1.847032"><ele>234</ele><time>2019-08-30T09:33:06Z</time><name>PT68</name></trkpt>
<trkpt lat="53.248479" lon="-1.847031"><ele>235</ele><time>2019-08-30T09:33:08Z</time><name>PT69</name></trkpt>
<trkpt lat="53.248477" lon="-1.847022"><ele>236</ele><time>2019-08-30T09:33:08Z</time><name>PT70</name></trkpt>
<trkpt lat="53.248475" lon="-1.847017"><ele>237</ele><time>2019-08-30T09:33:09Z</time><name>PT71</name></trkpt>
<trkpt lat="53.248473" lon="-1.847013"><ele>238</ele><time>2019-08-30T09:33:11Z</time><name>PT72</name></trkpt>
<trkpt lat="53.248464" lon="-1.847009"><ele>238</ele><time>2019-08-30T09:33:11Z</time><name>PT73</name></trkpt>
<trkpt lat="53.248458" lon="-1.847000"><ele>238</ele><time>2019-08-30T09:33:12Z</time><name>PT74</name></trkpt>
<trkpt lat="53.248449" lon="-1.846987"><ele>238</ele><time>2019-08-30T09:33:14Z</time><name>PT75</name></trkpt>
<trkpt lat="53.248440" lon="-1.846973"><ele>237</ele><time>2019-08-30T09:33:14Z</time><name>PT76</name></trkpt>
<trkpt lat="53.248433" lon="-1.846961"><ele>237</ele><time>2019-08-30T09:33:15Z</time><name>PT77</name></trkpt>
<trkpt lat="53.248424" lon="-1.846951"><ele>237</ele><time>2019-08-30T09:33:17Z</time><name>PT78</name></trkpt>
<trkpt lat="53.248416" lon="-1.846940"><ele>237</ele><time>2019-08-30T09:33:17Z</time><name>PT79</name></trkpt>
<trkpt lat="53.248408" lon="-1.846930"><ele>237</ele><time>2019-08-30T09:33:18Z</time><name>PT80</name></trkpt>
<trkpt lat="53.248402" lon="-1.846915"><ele>236</ele><time>2019-08-30T09:33:20Z</time><name>PT81</name></trkpt>
<trkpt lat="53.248390" lon="-1.846907"><ele>236</ele><time>2019-08-30T09:33:20Z</time><name>PT82</name></trkpt>
<trkpt lat="53.248383" lon="-1.846892"><ele>236</ele><time>2019-08-30T09:33:21Z</time><name>PT83</name></trkpt>
<trkpt lat="53.248375" lon="-1.846886"><ele>236</ele><time>2019-08-30T09:33:23Z</time><name>PT84</name></trkpt>
<trkpt lat="53.248367" lon="-1.846876"><ele>236</ele><time>2019-08-30T09:33:23Z</time><name>PT85</name></trkpt>
<trkpt lat="53.248360" lon="-1.846868"><ele>235</ele><time>2019-08-30T09:33:24Z</time><name>PT86</name></trkpt>
<trkpt lat="53.248350" lon="-1.846853"><ele>235</ele><time>2019-08-30T09:33:26Z</time><name>PT87</name></trkpt>
<trkpt lat="53.248340" lon="-1.846844"><ele>236</ele><time>2019-08-30T09:33:26Z</time><name>PT88</name></trkpt>
<trkpt lat="53.248331" lon="-1.846833"><ele>235</ele><time>2019-08-30T09:33:27Z</time><name>PT89</name></trkpt>
<trkpt lat="53.248321" lon="-1.846824"><ele>236</ele><time>2019-08-30T09:33:29Z</time><name>PT90</name></trkpt>
<trkpt lat="53.248312" lon="-1.846814"><ele>236</ele><time>2019-08-30T09:33:29Z</time><name>PT91</name></trkpt>
<trkpt lat="53.248302" lon="-1.846801"><ele>236</ele><time>2019-08-30T09:33:30Z</time><name>PT92</name></trkpt>
<trkpt lat="53.248294" lon="-1.846785"><ele>237</ele><time>2019-08-30T09:33:32Z</time><name>PT93</name></trkpt>
<trkpt lat="53.248285" lon="-1.846777"><ele>237</ele><time>2019-08-30T09:33:32Z</time><name>PT94</name></trkpt>
<trkpt lat="53.248278" lon="-1.846769"><ele>237</ele><time>2019-08-30T09:33:33Z</time><name>PT95</name></trkpt>
<trkpt lat="53.248266" lon="-1.846757"><ele>238</ele><time>2019-08-30T09:33:35Z</time><name>PT96</name></trkpt>
<trkpt lat="53.248256" lon="-1.846741"><ele>239</ele><time>2019-08-30T09:33:35Z</time><name>PT97</name></trkpt>
<trkpt lat="53.248244" lon="-1.846729"><ele>240</ele><time>2019-08-30T09:33:36Z</time><name>PT98</name></trkpt>
<trkpt lat="53.248235" lon="-1.846719"><ele>240</ele><time>2019-08-30T09:33:38Z</time><name>PT99</name></trkpt>
<trkpt lat="53.248225" lon="-1.846705"><ele>241</ele><time>2019-08-30T09:33:38Z</time><name>PT100</name></trkpt>
<trkpt lat="53.248217" lon="-1.846692"><ele>242</ele><time>2019-08-30T09:33:39Z</time><name>PT101</name></trkpt>
<trkpt lat="53.248212" lon="-1.846684"><ele>241</ele><time>2019-08-30T09:33:41Z</time><name>PT102</name></trkpt>
<trkpt lat="53.248204" lon="-1.846673"><ele>241</ele><time>2019-08-30T09:33:41Z</time><name>PT103</name></trkpt>
<trkpt lat="53.248198" lon="-1.846662"><ele>240</ele><time>2019-08-30T09:33:42Z</time><name>PT104</name></trkpt>
<trkpt lat="53.248190" lon="-1.846653"><ele>240</ele><time>2019-08-30T09:33:44Z</time><name>PT105</name></trkpt>
<trkpt lat="53.248181" lon="-1.846644"><ele>241</ele><time>2019-08-30T09:33:44Z</time><name>PT106</name></trkpt>
<trkpt lat="53.248174" lon="-1.846636"><ele>241</ele><time>2019-08-30T09:33:45Z</time><name>PT107</name></trkpt>
<trkpt lat="53.248167" lon="-1.846629"><ele>240</ele><time>2019-08-30T09:33:47Z</time><name>PT108</name></trkpt>
<trkpt lat="53.248159" lon="-1.846619"><ele>240</ele><time>2019-08-30T09:33:47Z</time><name>PT109</name></trkpt>
<trkpt lat="53.248151" lon="-1.846613"><ele>240</ele><time>2019-08-30T09:33:48Z</time><name>PT110</name></trkpt>
<trkpt lat="53.248143" lon="-1.846605"><ele>241</ele><time>2019-08-30T09:33:50Z</time><name>PT111</name></trkpt>
<trkpt lat="53.248134" lon="-1.846598"><ele>241</ele><time>2019-08-30T09:33:50Z</time><name>PT112</name></trkpt>
<trkpt lat="53.248121" lon="-1.846585"><ele>241</ele><time>2019-08-30T09:33:51Z</time><name>PT113</name></trkpt>
<trkpt lat="53.248115" lon="-1.846579"><ele>241</ele><time>2019-08-30T09:33:53Z</time><name>PT114</name></trkpt>
<trkpt lat="53.248108" lon="-1.846571"><ele>241</ele><time>2019-08-30T09:33:53Z</time><name>PT115</name></trkpt>
<trkpt lat="53.248102" lon="-1.846566"><ele>241</ele><time>2019-08-30T09:33:54Z</time><name>PT116</name></trkpt>
<trkpt lat="53.248091" lon="-1.846558"><ele>242</ele><time>2019-08-30T09:33:56Z</time><name>PT117</name></trkpt>
<trkpt lat="53.248084" lon="-1.846554"><ele>241</ele><time>2019-08-30T09:33:56Z</time><name>PT118</name></trkpt>
<trkpt lat="53.248080" lon="-1.846550"><ele>240</ele><time>2019-08-30T09:33:57Z</time><name>PT119</name></trkpt>
<trkpt lat="53.248072" lon="-1.846542"><ele>241</ele><time>2019-08-30T09:33:59Z</time><name>PT120</name></trkpt>
<trkpt lat="53.248069" lon="-1.846540"><ele>242</ele><time>2019-08-30T09:33:59Z</time><name>PT121</name></trkpt>
<trkpt lat="53.248054" lon="-1.846526"><ele>245</ele><time>2019-08-30T09:34:00Z</time><name>PT122</name></trkpt>
<trkpt lat="53.248046" lon="-1.846520"><ele>245</ele><time>2019-08-30T09:34:02Z</time><name>PT123</name></trkpt>
<trkpt lat="53.248038" lon="-1.846510"><ele>245</ele><time>2019-08-30T09:34:02Z</time><name>PT124</name></trkpt>
<trkpt lat="53.248035" lon="-1.846499"><ele>244</ele><time>2019-08-30T09:34:03Z</time><name>PT125</name></trkpt>
<trkpt lat="53.248023" lon="-1.846490"><ele>245</ele><time>2019-08-30T09:34:05Z</time><name>PT126</name></trkpt>
<trkpt lat="53.248016" lon="-1.846485"><ele>244</ele><time>2019-08-30T09:34:05Z</time><name>PT127</name></trkpt>
<trkpt lat="53.248008" lon="-1.846470"><ele>245</ele><time>2019-08-30T09:34:06Z</time><name>PT128</name></trkpt>
<trkpt lat="53.247999" lon="-1.846453"><ele>245</ele><time>2019-08-30T09:34:08Z</time><name>PT129</name></trkpt>
<trkpt lat="53.247989" lon="-1.846431"><ele>246</ele><time>2019-08-30T09:34:08Z</time><name>PT130</name></trkpt>
<trkpt lat="53.247982" lon="-1.846411"><ele>247</ele><time>2019-08-30T09:34:09Z</time><name>PT131</name></trkpt>
<trkpt lat="53.247972" lon="-1.846402"><ele>247</ele><time>2019-08-30T09:34:11Z</time><name>PT132</name></trkpt>
<trkpt lat="53.247963" lon="-1.846397"><ele>247</ele><time>2019-08-30T09:34:11Z</time><name>PT133</name></trkpt>
<trkpt lat="53.247954" lon="-1.846390"><ele>247</ele><time>2019-08-30T09:34:12Z</time><name>PT134</name></trkpt>
<trkpt lat="53.247947" lon="-1.846385"><ele>247</ele><time>2019-08-30T09:34:14Z</time><name>PT135</name></trkpt>
<trkpt lat="53.247939" lon="-1.846378"><ele>247</ele><time>2019-08-30T09:34:14Z</time><name>PT136</name></trkpt>
<trkpt lat="53.247933" lon="-1.846372"><ele>246</ele><time>2019-08-30T09:34:15Z</time><name>PT137</name></trkpt>
<trkpt lat="53.247929" lon="-1.846365"><ele>245</ele><time>2019-08-30T09:34:17Z</time><name>PT138</name></trkpt>
<trkpt lat="53.247925" lon="-1.846358"><ele>244</ele><time>2019-08-30T09:34:17Z</time><name>PT139</name></trkpt>
<trkpt lat="53.247919" lon="-1.846346"><ele>244</ele><time>2019-08-30T09:34:18Z</time><name>PT140</name></trkpt>
<trkpt lat="53.247919" lon="-1.846339"><ele>243</ele><time>2019-08-30T09:34:20Z</time><name>PT141</name></trkpt>
<trkpt lat="53.247914" lon="-1.846324"><ele>243</ele><time>2019-08-30T09:34:20Z</time><name>PT142</name></trkpt>
<trkpt lat="53.247909" lon="-1.846311"><ele>242</ele><time>2019-08-30T09:34:22Z</time><name>PT143</name></trkpt>
<trkpt lat="53.247901" lon="-1.846307"><ele>242</ele><time>2019-08-30T09:34:23Z</time><name>PT144</name></trkpt>
<trkpt lat="53.247894" lon="-1.846296"><ele>242</ele><time>2019-08-30T09:34:23Z</time><name>PT145</name></trkpt>
<trkpt lat="53.247888" lon="-1.846288"><ele>241</ele><time>2019-08-30T09:34:24Z</time><name>PT146</name></trkpt>
<trkpt lat="53.247884" lon="-1.846276"><ele>241</ele><time>2019-08-30T09:34:26Z</time><name>PT147</name></trkpt>
<trkpt lat="53.247877" lon="-1.846262"><ele>241</ele><time>2019-08-30T09:34:26Z</time><name>PT148</name></trkpt>
<trkpt lat="53.247873" lon="-1.846252"><ele>241</ele><time>2019-08-30T09:34:27Z</time><name>PT149</name></trkpt>
<trkpt lat="53.247868" lon="-1.846243"><ele>240</ele><time>2019-08-30T09:34:29Z</time><name>PT150</name></trkpt>
<trkpt lat="53.247860" lon="-1.846231"><ele>240</ele><time>2019-08-30T09:34:29Z</time><name>PT151</name></trkpt>
<trkpt lat="53.247855" lon="-1.846219"><ele>240</ele><time>2019-08-30T09:34:30Z</time><name>PT152</name></trkpt>
<trkpt lat="53.247852" lon="-1.846202"><ele>239</ele><time>2019-08-30T09:34:32Z</time><name>PT153</name></trkpt>
<trkpt lat="53.247846" lon="-1.846188"><ele>239</ele><time>2019-08-30T09:34:32Z</time><name>PT154</name></trkpt>
<trkpt lat="53.247839" lon="-1.846174"><ele>239</ele><time>2019-08-30T09:34:33Z</time><name>PT155</name></trkpt>
<trkpt lat="53.247828" lon="-1.846158"><ele>240</ele><time>2019-08-30T09:34:35Z</time><name>PT156</name></trkpt>
<trkpt lat="53.247822" lon="-1.846147"><ele>240</ele><time>2019-08-30T09:34:35Z</time><name>PT157</name></trkpt>
<trkpt lat="53.247814" lon="-1.846135"><ele>240</ele><time>2019-08-30T09:34:36Z</time><name>PT158</name></trkpt>
<trkpt lat="53.247810" lon="-1.846122"><ele>240</ele><time>2019-08-30T09:34:38Z</time><name>PT159</name></trkpt>
<trkpt lat="53.247805" lon="-1.846104"><ele>240</ele><time>2019-08-30T09:34:38Z</time><name>PT160</name></trkpt>
<trkpt lat="53.247799" lon="-1.846093"><ele>240</ele><time>2019-08-30T09:34:39Z</time><name>PT161</name></trkpt>
<trkpt lat="53.247796" lon="-1.846081"><ele>240</ele><time>2019-08-30T09:34:41Z</time><name>PT162</name></trkpt>
<trkpt lat="53.247792" lon="-1.846073"><ele>238</ele><time>2019-08-30T09:34:41Z</time><name>PT163</name></trkpt>
<trkpt lat="53.247786" lon="-1.846063"><ele>238</ele><time>2019-08-30T09:34:42Z</time><name>PT164</name></trkpt>
<trkpt lat="53.247783" lon="-1.846046"><ele>238</ele><time>2019-08-30T09:34:44Z</time><name>PT165</name></trkpt>
<trkpt lat="53.247774" lon="-1.846036"><ele>239</ele><time>2019-08-30T09:34:44Z</time><name>PT166</name></trkpt>
<trkpt lat="53.247768" lon="-1.846023"><ele>239</ele><time>2019-08-30T09:34:45Z</time><name>PT167</name></trkpt>
<trkpt lat="53.247763" lon="-1.846006"><ele>239</ele><time>2019-08-30T09:34:47Z</time><name>PT168</name></trkpt>
<trkpt lat="53.247761" lon="-1.845995"><ele>238</ele><time>2019-08-30T09:34:47Z</time><name>PT169</name></trkpt>
<trkpt lat="53.247757" lon="-1.845985"><ele>238</ele><time>2019-08-30T09:34:48Z</time><name>PT170</name></trkpt>
<trkpt lat="53.247751" lon="-1.845974"><ele>238</ele><time>2019-08-30T09:34:50Z</time><name>PT171</name></trkpt>
<trkpt lat="53.247747" lon="-1.845962"><ele>237</ele><time>2019-08-30T09:34:50Z</time><name>PT172</name></trkpt>
<trkpt lat="53.247744" lon="-1.845950"><ele>236</ele><time>2019-08-30T09:34:51Z</time><name>PT173</name></trkpt>
<trkpt lat="53.247741" lon="-1.845936"><ele>235</ele><time>2019-08-30T09:34:53Z</time><name>PT174</name></trkpt>
<trkpt lat="53.247738" lon="-1.845920"><ele>235</ele><time>2019-08-30T09:34:53Z</time><name>PT175</name></trkpt>
<trkpt lat="53.247735" lon="-1.845908"><ele>234</ele><time>2019-08-30T09:34:54Z</time><name>PT176</name></trkpt>
<trkpt lat="53.247726" lon="-1.845893"><ele>235</ele><time>2019-08-30T09:34:56Z</time><name>PT177</name></trkpt>
<trkpt lat="53.247720" lon="-1.845881"><ele>235</ele><time>2019-08-30T09:34:56Z</time><name>PT178</name></trkpt>
<trkpt lat="53.247710" lon="-1.845857"><ele>236</ele><time>2019-08-30T09:34:57Z</time><name>PT179</name></trkpt>
<trkpt lat="53.247703" lon="-1.845840"><ele>236</ele><time>2019-08-30T09:34:59Z</time><name>PT180</name></trkpt>
<trkpt lat="53.247699" lon="-1.845823"><ele>236</ele><time>2019-08-30T09:34:59Z</time><name>PT181</name></trkpt>
<trkpt lat="53.247700" lon="-1.845801"><ele>235</ele><time>2019-08-30T09:35:00Z</time><name>PT182</name></trkpt>
<trkpt lat="53.247691" lon="-1.845785"><ele>236</ele><time>2019-08-30T09:35:02Z</time><name>PT183</name></trkpt>
<trkpt lat="53.247686" lon="-1.845774"><ele>235</ele><time>2019-08-30T09:35:02Z</time><name>PT184</name></trkpt>
<trkpt lat="53.247680" lon="-1.845762"><ele>234</ele><time>2019-08-30T09:35:03Z</time><name>PT185</name></trkpt>
<trkpt lat="53.247678" lon="-1.845750"><ele>234</ele><time>2019-08-30T09:35:05Z</time><name>PT186</name></trkpt>
<trkpt lat="53.247667" lon="-1.845734"><ele>234</ele><time>2019-08-30T09:35:05Z</time><name>PT187</name></trkpt>
<trkpt lat="53.247656" lon="-1.845719"><ele>234</ele><time>2019-08-30T09:35:06Z</time><name>PT188</name></trkpt>
<trkpt lat="53.247651" lon="-1.845702"><ele>234</ele><time>2019-08-30T09:35:08Z</time><name>PT189</name></trkpt>
<trkpt lat="53.247647" lon="-1.845688"><ele>233</ele><time>2019-08-30T09:35:08Z</time><name>PT190</name></trkpt>
<trkpt lat="53.247646" lon="-1.845675"><ele>233</ele><time>2019-08-30T09:35:09Z</time><name>PT191</name></trkpt>
<trkpt lat="53.247649" lon="-1.845669"><ele>230</ele><time>2019-08-30T09:35:11Z</time><name>PT192</name></trkpt>
<trkpt lat="53.247642" lon="-1.845648"><ele>231</ele><time>2019-08-30T09:35:11Z</time><name>PT193</name></trkpt>
<trkpt lat="53.247635" lon="-1.845631"><ele>230</ele><time>2019-08-30T09:35:12Z</time><name>PT194</name></trkpt>
<trkpt lat="53.247633" lon="-1.845618"><ele>229</ele><time>2019-08-30T09:35:14Z</time><name>PT195</name></trkpt>
<trkpt lat="53.247622" lon="-1.845594"><ele>230</ele><time>2019-08-30T09:35:14Z</time><name>PT196</name></trkpt>
<trkpt lat="53.247618" lon="-1.845574"><ele>230</ele><time>2019-08-30T09:35:15Z</time><name>PT197</name></trkpt>
<trkpt lat="53.247616" lon="-1.845562"><ele>229</ele><time>2019-08-30T09:35:17Z</time><name>PT198</name></trkpt>
<trkpt lat="53.247610" lon="-1.845547"><ele>229</ele><time>2019-08-30T09:35:17Z</time><name>PT199</name></trkpt>
<trkpt lat="53.247605" lon="-1.845532"><ele>229</ele><time>2019-08-30T09:35:18Z</time><name>PT200</name></trkpt>
<trkpt lat="53.247598" lon="-1.845515"><ele>229</ele><time>2019-08-30T09:35:20Z</time><name>PT201</name></trkpt>
<trkpt lat="53.247587" lon="-1.845505"><ele>230</ele><time>2019-08-30T09:35:20Z</time><name>PT202</name></trkpt>
<trkpt lat="53.247580" lon="-1.845493"><ele>229</ele><time>2019-08-30T09:35:21Z</time><name>PT203</name></trkpt>
<trkpt lat="53.247577" lon="-1.845484"><ele>229</ele><time>2019-08-30T09:35:23Z</time><name>PT204</name></trkpt>
<trkpt lat="53.247570" lon="-1.845470"><ele>230</ele><time>2019-08-30T09:35:23Z</time><name>PT205</name></trkpt>
<trkpt lat="53.247573" lon="-1.845455"><ele>229</ele><time>2019-08-30T09:35:24Z</time><name>PT206</name></trkpt>
<trkpt lat="53.247567" lon="-1.845447"><ele>228</ele><time>2019-08-30T09:35:26Z</time><name>PT207</name></trkpt>
<trkpt lat="53.247565" lon="-1.845438"><ele>227</ele><time>2019-08-30T09:35:26Z</time><name>PT208</name></trkpt>
<trkpt lat="53.247560" lon="-1.845426"><ele>227</ele><time>2019-08-30T09:35:27Z</time><name>PT209</name></trkpt>
<trkpt lat="53.247557" lon="-1.845413"><ele>227</ele><time>2019-08-30T09:35:29Z</time><name>PT210</name></trkpt>
<trkpt lat="53.247547" lon="-1.845386"><ele>227</ele><time>2019-08-30T09:35:29Z</time><name>PT211</name></trkpt>
<trkpt lat="53.247539" lon="-1.845372"><ele>228</ele><time>2019-08-30T09:35:30Z</time><name>PT212</name></trkpt>
<trkpt lat="53.247530" lon="-1.845353"><ele>229</ele><time>2019-08-30T09:35:32Z</time><name>PT213</name></trkpt>
<trkpt lat="53.247523" lon="-1.845336"><ele>228</ele><time>2019-08-30T09:35:32Z</time><name>PT214</name></trkpt>
<trkpt lat="53.247522" lon="-1.845316"><ele>228</ele><time>2019-08-30T09:35:33Z</time><name>PT215</name></trkpt>
<trkpt lat="53.247511" lon="-1.845302"><ele>229</ele><time>2019-08-30T09:35:35Z</time><name>PT216</name></trkpt>
<trkpt lat="53.247503" lon="-1.845286"><ele>229</ele><time>2019-08-30T09:35:35Z</time><name>PT217</name></trkpt>
<trkpt lat="53.247500" lon="-1.845273"><ele>229</ele><time>2019-08-30T09:35:36Z</time><name>PT218</name></trkpt>
<trkpt lat="53.247493" lon="-1.845258"><ele>228</ele><time>2019-08-30T09:35:38Z</time><name>PT219</name></trkpt>
<trkpt lat="53.247487" lon="-1.845244"><ele>227</ele><time>2019-08-30T09:35:38Z</time><name>PT220</name></trkpt>
<trkpt lat="53.247477" lon="-1.845226"><ele>228</ele><time>2019-08-30T09:35:39Z</time><name>PT221</name></trkpt>
<trkpt lat="53.247476" lon="-1.845212"><ele>227</ele><time>2019-08-30T09:35:41Z</time><name>PT222</name></trkpt>
<trkpt lat="53.247457" lon="-1.845186"><ele>232</ele><time>2019-08-30T09:35:41Z</time><name>PT223</name></trkpt>
<trkpt lat="53.247450" lon="-1.845176"><ele>233</ele><time>2019-08-30T09:35:42Z</time><name>PT224</name></trkpt>
<trkpt lat="53.247449" lon="-1.845170"><ele>232</ele><time>2019-08-30T09:35:44Z</time><name>PT225</name></trkpt>
<trkpt lat="53.247442" lon="-1.845158"><ele>234</ele><time>2019-08-30T09:35:44Z</time><name>PT226</name></trkpt>
<trkpt lat="53.247439" lon="-1.845152"><ele>233</ele><time>2019-08-30T09:35:45Z</time><name>PT227</name></trkpt>
<trkpt lat="53.247424" lon="-1.845133"><ele>236</ele><time>2019-08-30T09:35:47Z</time><name>PT228</name></trkpt>
<trkpt lat="53.247419" lon="-1.845126"><ele>235</ele><time>2019-08-30T09:35:47Z</time><name>PT229</name></trkpt>
<trkpt lat="53.247415" lon="-1.845118"><ele>235</ele><time>2019-08-30T09:35:48Z</time><name>PT230</name></trkpt>
<trkpt lat="53.247413" lon="-1.845112"><ele>236</ele><time>2019-08-30T09:35:50Z</time><name>PT231</name></trkpt>
<trkpt lat="53.247411" lon="-1.845108"><ele>235</ele><time>2019-08-30T09:35:50Z</time><name>PT232</name></trkpt>
<trkpt lat="53.247407" lon="-1.845098"><ele>234</ele><time>2019-08-30T09:35:51Z</time><name>PT233</name></trkpt>
<trkpt lat="53.247407" lon="-1.845091"><ele>232</ele><time>2019-08-30T09:35:53Z</time><name>PT234</name></trkpt>
<trkpt lat="53.247400" lon="-1.845085"><ele>232</ele><time>2019-08-30T09:35:53Z</time><name>PT235</name></trkpt>
<trkpt lat="53.247387" lon="-1.845071"><ele>231</ele><time>2019-08-30T09:35:54Z</time><name>PT236</name></trkpt>
<trkpt lat="53.247382" lon="-1.845055"><ele>228</ele><time>2019-08-30T09:35:56Z</time><name>PT237</name></trkpt>
<trkpt lat="53.247377" lon="-1.845047"><ele>226</ele><time>2019-08-30T09:35:56Z</time><name>PT238</name></trkpt>
<trkpt lat="53.247372" lon="-1.845036"><ele>225</ele><time>2019-08-30T09:35:57Z</time><name>PT239</name></trkpt>
<trkpt lat="53.247359" lon="-1.845017"><ele>227</ele><time>2019-08-30T09:35:59Z</time><name>PT240</name></trkpt>
<trkpt lat="53.247353" lon="-1.845005"><ele>224</ele><time>2019-08-30T09:35:59Z</time><name>PT241</name></trkpt>
<trkpt lat="53.247347" lon="-1.844998"><ele>224</ele><time>2019-08-30T09:36:00Z</time><name>PT242</name></trkpt>
<trkpt lat="53.247339" lon="-1.844987"><ele>223</ele><time>2019-08-30T09:36:02Z</time><name>PT243</name></trkpt>
<trkpt lat="53.247337" lon="-1.844977"><ele>222</ele><time>2019-08-30T09:36:02Z</time><name>PT244</name></trkpt>
<trkpt lat="53.247331" lon="-1.844969"><ele>222</ele><time>2019-08-30T09:36:03Z</time><name>PT245</name></trkpt>
<trkpt lat="53.247326" lon="-1.844961"><ele>221</ele><time>2019-08-30T09:36:05Z</time><name>PT246</name></trkpt>
<trkpt lat="53.247315" lon="-1.844946"><ele>221</ele><time>2019-08-30T09:36:05Z</time><name>PT247</name></trkpt>
<trkpt lat="53.247300" lon="-1.844923"><ele>222</ele><time>2019-08-30T09:36:06Z</time><name>PT248</name></trkpt>
<trkpt lat="53.247287" lon="-1.844901"><ele>222</ele><time>2019-08-30T09:36:08Z</time><name>PT249</name></trkpt>
<trkpt lat="53.247272" lon="-1.844882"><ele>223</ele><time>2019-08-30T09:36:08Z</time><name>PT250</name></trkpt>
<trkpt lat="53.247260" lon="-1.844868"><ele>223</ele><time>2019-08-30T09:36:09Z</time><name>PT251</name></trkpt>
<trkpt lat="53.247249" lon="-1.844849"><ele>223</ele><time>2019-08-30T09:36:11Z</time><name>PT252</name></trkpt>
<trkpt lat="53.247237" lon="-1.844838"><ele>224</ele><time>2019-08-30T09:36:11Z</time><name>PT253</name></trkpt>
<trkpt lat="53.247227" lon="-1.844825"><ele>223</ele><time>2019-08-30T09:36:12Z</time><name>PT254</name></trkpt>
<trkpt lat="53.247215" lon="-1.844812"><ele>224</ele><time>2019-08-30T09:36:14Z</time><name>PT255</name></trkpt>
<trkpt lat="53.247212" lon="-1.844800"><ele>223</ele><time>2019-08-30T09:36:14Z</time><name>PT256</name></trkpt>
<trkpt lat="53.247201" lon="-1.844789"><ele>223</ele><time>2019-08-30T09:36:15Z</time><name>PT257</name></trkpt>
<trkpt lat="53.247193" lon="-1.844782"><ele>222</ele><time>2019-08-30T09:36:17Z</time><name>PT258</name></trkpt>
<trkpt lat="53.247184" lon="-1.844767"><ele>223</ele><time>2019-08-30T09:36:17Z</time><name>PT259</name></trkpt>
<trkpt lat="53.247172" lon="-1.844753"><ele>223</ele><time>2019-08-30T09:36:18Z</time><name>PT260</name></trkpt>
<trkpt lat="53.247148" lon="-1.844729"><ele>225</ele><time>2019-08-30T09:36:20Z</time><name>PT261</name></trkpt>
<trkpt lat="53.247135" lon="-1.844704"><ele>225</ele><time>2019-08-30T09:36:20Z</time><name>PT262</name></trkpt>
<trkpt lat="53.247120" lon="-1.844687"><ele>226</ele><time>2019-08-30T09:36:21Z</time><name>PT263</name></trkpt>
<trkpt lat="53.247113" lon="-1.844681"><ele>225</ele><time>2019-08-30T09:36:23Z</time><name>PT264</name></trkpt>
<trkpt lat="53.247104" lon="-1.844657"><ele>226</ele><time>2019-08-30T09:36:23Z</time><name>PT265</name></trkpt>
<trkpt lat="53.247088" lon="-1.844635"><ele>227</ele><time>2019-08-30T09:36:24Z</time><name>PT266</name></trkpt>
<trkpt lat="53.247083" lon="-1.844621"><ele>226</ele><time>2019-08-30T09:36:26Z</time><name>PT267</name></trkpt>
<trkpt lat="53.247067" lon="-1.844614"><ele>227</ele><time>2019-08-30T09:36:26Z</time><name>PT268</name></trkpt>
<trkpt lat="53.247053" lon="-1.844611"><ele>228</ele><time>2019-08-30T09:36:27Z</time><name>PT269</name></trkpt>
<trkpt lat="53.247039" lon="-1.844600"><ele>230</ele><time>2019-08-30T09:36:29Z</time><name>PT270</name></trkpt>
<trkpt lat="53.247019" lon="-1.844580"><ele>232</ele><time>2019-08-30T09:36:29Z</time><name>PT271</name></trkpt>
<trkpt lat="53.247004" lon="-1.844563"><ele>233</ele><time>2019-08-30T09:36:30Z</time><name>PT272</name></trkpt>
<trkpt lat="53.246996" lon="-1.844551"><ele>233</ele><time>2019-08-30T09:36:32Z</time><name>PT273</name></trkpt>
<trkpt lat="53.246980" lon="-1.844540"><ele>234</ele><time>2019-08-30T09:36:32Z</time><name>PT274</name></trkpt>
<trkpt lat="53.246972" lon="-1.844533"><ele>234</ele><time>2019-08-30T09:36:33Z</time><name>PT275</name></trkpt>
<trkpt lat="53.246960" lon="-1.844524"><ele>234</ele><time>2019-08-30T09:36:35Z</time><name>PT276</name></trkpt>
<trkpt lat="53.246949" lon="-1.844515"><ele>234</ele><time>2019-08-30T09:36:35Z</time><name>PT277</name></trkpt>
<trkpt lat="53.246931" lon="-1.844505"><ele>236</ele><time>2019-08-30T09:36:36Z</time><name>PT278</name></trkpt>
<trkpt lat="53.246918" lon="-1.844503"><ele>239</ele><time>2019-08-30T09:36:38Z</time><name>PT279</name></trkpt>
<trkpt lat="53.246904" lon="-1.844504"><ele>239</ele><time>2019-08-30T09:36:38Z</time><name>PT280</name></trkpt>
<trkpt lat="53.246886" lon="-1.844499"><ele>239</ele><time>2019-08-30T09:36:39Z</time><name>PT281</name></trkpt>
<trkpt lat="53.246875" lon="-1.844491"><ele>239</ele><time>2019-08-30T09:36:41Z</time><name>PT282</name></trkpt>
<trkpt lat="53.246849" lon="-1.844481"><ele>243</ele><time>2019-08-30T09:36:41Z</time><name>PT283</name></trkpt>
<trkpt lat="53.246825" lon="-1.844480"><ele>247</ele><time>2019-08-30T09:36:42Z</time><name>PT284</name></trkpt>
<trkpt lat="53.246807" lon="-1.844470"><ele>249</ele><time>2019-08-30T09:36:44Z</time><name>PT285</name></trkpt>
<trkpt lat="53.246796" lon="-1.844459"><ele>248</ele><time>2019-08-30T09:36:44Z</time><name>PT286</name></trkpt>
<trkpt lat="53.246780" lon="-1.844462"><ele>249</ele><time>2019-08-30T09:36:45Z</time><name>PT287</name></trkpt>
<trkpt lat="53.246771" lon="-1.844465"><ele>249</ele><time>2019-08-30T09:36:47Z</time><name>PT288</name></trkpt>
<trkpt lat="53.246758" lon="-1.844465"><ele>249</ele><time>2019-08-30T09:36:47Z</time><name>PT289</name></trkpt>
<trkpt lat="53.246748" lon="-1.844468"><ele>248</ele><time>2019-08-30T09:36:48Z</time><name>PT290</name></trkpt>
<trkpt lat="53.246739" lon="-1.844467"><ele>248</ele><time>2019-08-30T09:36:50Z</time><name>PT291</name></trkpt>
<trkpt lat="53.246729" lon="-1.844460"><ele>248</ele><time>2019-08-30T09:36:50Z</time><name>PT292</name></trkpt>
<trkpt lat="53.246721" lon="-1.844454"><ele>247</ele><time>2019-08-30T09:36:51Z</time><name>PT293</name></trkpt>
<trkpt lat="53.246705" lon="-1.844460"><ele>248</ele><time>2019-08-30T09:36:53Z</time><name>PT294</name></trkpt>
<trkpt lat="53.246698" lon="-1.844463"><ele>247</ele><time>2019-08-30T09:36:53Z</time><name>PT295</name></trkpt>
<trkpt lat="53.246690" lon="-1.844466"><ele>247</ele><time>2019-08-30T09:36:54Z</time><name>PT296</name></trkpt>
<trkpt lat="53.246675" lon="-1.844476"><ele>248</ele><time>2019-08-30T09:36:56Z</time><name>PT297</name></trkpt>
<trkpt lat="53.246664" lon="-1.844478"><ele>247</ele><time>2019-08-30T09:36:56Z</time><name>PT298</name></trkpt>
<trkpt lat="53.246654" lon="-1.844471"><ele>246</ele><time>2019-08-30T09:36:57Z</time><name>PT299</name></trkpt>
<trkpt lat="53.246645" lon="-1.844462"><ele>247</ele><time>2019-08-30T09:36:59Z</time><name>PT300</name></trkpt>
<trkpt lat="53.246637" lon="-1.844453"><ele>245</ele><time>2019-08-30T09:36:59Z</time><name>PT301</name></trkpt>
<trkpt lat="53.246625" lon="-1.844451"><ele>246</ele><time>2019-08-30T09:37:00Z</time><name>PT302</name></trkpt>
<trkpt lat="53.246619" lon="-1.844442"><ele>246</ele><time>2019-08-30T09:37:02Z</time><name>PT303</name></trkpt>
<trkpt lat="53.246610" lon="-1.844443"><ele>247</ele><time>2019-08-30T09:37:02Z</time><name>PT304</name></trkpt>
<trkpt lat="53.246592" lon="-1.844444"><ele>247</ele><time>2019-08-30T09:37:03Z</time><name>PT305</name></trkpt>
<trkpt lat="53.246583" lon="-1.844442"><ele>247</ele><time>2019-08-30T09:37:05Z</time><name>PT306</name></trkpt>
<trkpt lat="53.246574" lon="-1.844449"><ele>248</ele><time>2019-08-30T09:37:05Z</time><name>PT307</name></trkpt>
<trkpt lat="53.246571" lon="-1.844447"><ele>247</ele><time>2019-08-30T09:37:06Z</time><name>PT308</name></trkpt>
<trkpt lat="53.246562" lon="-1.844447"><ele>247</ele><time>2019-08-30T09:37:08Z</time><name>PT309</name></trkpt>
<trkpt lat="53.246555" lon="-1.844448"><ele>247</ele><time>2019-08-30T09:37:08Z</time><name>PT310</name></trkpt>
<trkpt lat="53.246549" lon="-1.844443"><ele>246</ele><time>2019-08-30T09:37:09Z</time><name>PT311</name></trkpt>
<trkpt lat="53.246542" lon="-1.844443"><ele>246</ele><time>2019-08-30T09:37:11Z</time><name>PT312</name></trkpt>
<trkpt lat="53.246535" lon="-1.844450"><ele>247</ele><time>2019-08-30T09:37:11Z</time><name>PT313</name></trkpt>
<trkpt lat="53.246527" lon="-1.844457"><ele>248</ele><time>2019-08-30T09:37:12Z</time><name>PT314</name></trkpt>
<trkpt lat="53.246514" lon="-1.844458"><ele>247</ele><time>2019-08-30T09:37:14Z</time><name>PT315</name></trkpt>
<trkpt lat="53.246507" lon="-1.844458"><ele>248</ele><time>2019-08-30T09:37:14Z</time><name>PT316</name></trkpt>
<trkpt lat="53.246502" lon="-1.844449"><ele>247</ele><time>2019-08-30T09:37:15Z</time><name>PT317</name></trkpt>
<trkpt lat="53.246495" lon="-1.844452"><ele>247</ele><time>2019-08-30T09:37:17Z</time><name>PT318</name></trkpt>
<trkpt lat="53.246481" lon="-1.844458"><ele>247</ele><time>2019-08-30T09:37:17Z</time><name>PT319</name></trkpt>
<trkpt lat="53.246469" lon="-1.844462"><ele>247</ele><time>2019-08-30T09:37:18Z</time><name>PT320</name></trkpt>
<trkpt lat="53.246458" lon="-1.844464"><ele>247</ele><time>2019-08-30T09:37:20Z</time><name>PT321</name></trkpt>
<trkpt lat="53.246447" lon="-1.844462"><ele>246</ele><time>2019-08-30T09:37:20Z</time><name>PT322</name></trkpt>
<trkpt lat="53.246439" lon="-1.844457"><ele>246</ele><time>2019-08-30T09:37:21Z</time><name>PT323</name></trkpt>
<trkpt lat="53.246435" lon="-1.844464"><ele>245</ele><time>2019-08-30T09:37:23Z</time><name>PT324</name></trkpt>
<trkpt lat="53.246430" lon="-1.844460"><ele>244</ele><time>2019-08-30T09:37:23Z</time><name>PT325</name></trkpt>
<trkpt lat="53.246419" lon="-1.844456"><ele>244</ele><time>2019-08-30T09:37:24Z</time><name>PT326</name></trkpt>
<trkpt lat="53.246408" lon="-1.844453"><ele>244</ele><time>2019-08-30T09:37:26Z</time><name>PT327</name></trkpt>
<trkpt lat="53.246396" lon="-1.844458"><ele>245</ele><time>2019-08-30T09:37:26Z</time><name>PT328</name></trkpt>
<trkpt lat="53.246372" lon="-1.844467"><ele>246</ele><time>2019-08-30T09:37:27Z</time><name>PT329</name></trkpt>
<trkpt lat="53.246353" lon="-1.844476"><ele>246</ele><time>2019-08-30T09:37:29Z</time><name>PT330</name></trkpt>
<trkpt lat="53.246345" lon="-1.844477"><ele>246</ele><time>2019-08-30T09:37:29Z</time><name>PT331</name></trkpt>
<trkpt lat="53.246338" lon="-1.844472"><ele>246</ele><time>2019-08-30T09:37:30Z</time><name>PT332</name></trkpt>
<trkpt lat="53.246325" lon="-1.844473"><ele>245</ele><time>2019-08-30T09:37:32Z</time><name>PT333</name></trkpt>
<trkpt lat="53.246311" lon="-1.844477"><ele>245</ele><time>2019-08-30T09:37:32Z</time><name>PT334</name></trkpt>
<trkpt lat="53.246301" lon="-1.844479"><ele>244</ele><time>2019-08-30T09:37:33Z</time><name>PT335</name></trkpt>
<trkpt lat="53.246289" lon="-1.844485"><ele>244</ele><time>2019-08-30T09:37:35Z</time><name>PT336</name></trkpt>
<trkpt lat="53.246276" lon="-1.844490"><ele>244</ele><time>2019-08-30T09:37:35Z</time><name>PT337</name></trkpt>
<trkpt lat="53.246265" lon="-1.844499"><ele>246</ele><time>2019-08-30T09:37:36Z</time><name>PT338</name></trkpt>
<trkpt lat="53.246256" lon="-1.844501"><ele>245</ele><time>2019-08-30T09:37:38Z</time><name>PT339</name></trkpt>
<trkpt lat="53.246240" lon="-1.844514"><ele>245</ele><time>2019-08-30T09:37:38Z</time><name>PT340</name></trkpt>
<trkpt lat="53.246232" lon="-1.844522"><ele>245</ele><time>2019-08-30T09:37:39Z</time><name>PT341</name></trkpt>
<trkpt lat="53.246225" lon="-1.844525"><ele>245</ele><time>2019-08-30T09:37:41Z</time><name>PT342</name></trkpt>
<trkpt lat="53.246220" lon="-1.844529"><ele>245</ele><time>2019-08-30T09:37:41Z</time><name>PT343</name></trkpt>
<trkpt lat="53.246210" lon="-1.844535"><ele>246</ele><time>2019-08-30T09:37:42Z</time><name>PT344</name></trkpt>
<trkpt lat="53.246201" lon="-1.844548"><ele>246</ele><time>2019-08-30T09:37:44Z</time><name>PT345</name></trkpt>
<trkpt lat="53.246195" lon="-1.844547"><ele>243</ele><time>2019-08-30T09:37:44Z</time><name>PT346</name></trkpt>
<trkpt lat="53.246180" lon="-1.844559"><ele>243</ele><time>2019-08-30T09:37:45Z</time><name>PT347</name></trkpt>
<trkpt lat="53.246167" lon="-1.844566"><ele>243</ele><time>2019-08-30T09:37:47Z</time><name>PT348</name></trkpt>
<trkpt lat="53.246162" lon="-1.844568"><ele>242</ele><time>2019-08-30T09:37:47Z</time><name>PT349</name></trkpt>
<trkpt lat="53.246152" lon="-1.844567"><ele>243</ele><time>2019-08-30T09:37:48Z</time><name>PT350</name></trkpt>
<trkpt lat="53.246143" lon="-1.844565"><ele>242</ele><time>2019-08-30T09:37:50Z</time><name>PT351</name></trkpt>
<trkpt lat="53.246131" lon="-1.844562"><ele>242</ele><time>2019-08-30T09:37:50Z</time><name>PT352</name></trkpt>
<trkpt lat="53.246121" lon="-1.844563"><ele>242</ele><time>2019-08-30T09:37:51Z</time><name>PT353</name></trkpt>
<trkpt lat="53.246114" lon="-1.844563"><ele>241</ele><time>2019-08-30T09:37:53Z</time><name>PT354</name></trkpt>
<trkpt lat="53.246103" lon="-1.844563"><ele>240</ele><time>2019-08-30T09:37:53Z</time><name>PT355</name></trkpt>
<trkpt lat="53.246092" lon="-1.844559"><ele>239</ele><time>2019-08-30T09:37:54Z</time><name>PT356</name></trkpt>
<trkpt lat="53.246078" lon="-1.844563"><ele>239</ele><time>2019-08-30T09:37:56Z</time><name>PT357</name></trkpt>
<trkpt lat="53.246065" lon="-1.844561"><ele>239</ele><time>2019-08-30T09:37:56Z</time><name>PT358</name></trkpt>
<trkpt lat="53.246055" lon="-1.844557"><ele>239</ele><time>2019-08-30T09:37:57Z</time><name>PT359</name></trkpt>
<trkpt lat="53.246044" lon="-1.844564"><ele>240</ele><time>2019-08-30T09:37:59Z</time><name>PT360</name></trkpt>
<trkpt lat="53.246035" lon="-1.844563"><ele>240</ele><time>2019-08-30T09:37:59Z</time><name>PT361</name></trkpt>
<trkpt lat="53.246015" lon="-1.844567"><ele>242</ele><time>2019-08-30T09:38:00Z</time><name>PT362</name></trkpt>
<trkpt lat="53.246000" lon="-1.844573"><ele>242</ele><time>2019-08-30T09:38:02Z</time><name>PT363</name></trkpt>
<trkpt lat="53.245985" lon="-1.844577"><ele>241</ele><time>2019-08-30T09:38:02Z</time><name>PT364</name></trkpt>
<trkpt lat="53.245975" lon="-1.844582"><ele>241</ele><time>2019-08-30T09:38:03Z</time><name>PT365</name></trkpt>
<trkpt lat="53.245958" lon="-1.844576"><ele>241</ele><time>2019-08-30T09:38:05Z</time><name>PT366</name></trkpt>
<trkpt lat="53.245940" lon="-1.844588"><ele>242</ele><time>2019-08-30T09:38:05Z</time><name>PT367</name></trkpt>
<trkpt lat="53.245924" lon="-1.844599"><ele>243</ele><time>2019-08-30T09:38:06Z</time><name>PT368</name></trkpt>
<trkpt lat="53.245913" lon="-1.844603"><ele>243</ele><time>2019-08-30T09:38:08Z</time><name>PT369</name></trkpt>
<trkpt lat="53.245902" lon="-1.844605"><ele>242</ele><time>2019-08-30T09:38:08Z</time><name>PT370</name></trkpt>
<trkpt lat="53.245895" lon="-1.844601"><ele>242</ele><time>2019-08-30T09:38:09Z</time><name>PT371</name></trkpt>
<trkpt lat="53.245882" lon="-1.844610"><ele>242</ele><time>2019-08-30T09:38:11Z</time><name>PT372</name></trkpt>
<trkpt lat="53.245870" lon="-1.844616"><ele>243</ele><time>2019-08-30T09:38:11Z</time><name>PT373</name></trkpt>
<trkpt lat="53.245858" lon="-1.844629"><ele>244</ele><time>2019-08-30T09:38:12Z</time><name>PT374</name></trkpt>
<trkpt lat="53.245853" lon="-1.844636"><ele>245</ele><time>2019-08-30T09:38:14Z</time><name>PT375</name></trkpt>
<trkpt lat="53.245843" lon="-1.844643"><ele>245</ele><time>2019-08-30T09:38:14Z</time><name>PT376</name></trkpt>
<trkpt lat="53.245835" lon="-1.844647"><ele>245</ele><time>2019-08-30T09:38:15Z</time><name>PT377</name></trkpt>
<trkpt lat="53.245828" lon="-1.844651"><ele>246</ele><time>2019-08-30T09:38:17Z</time><name>PT378</name></trkpt>
<trkpt lat="53.245826" lon="-1.844646"><ele>246</ele><time>2019-08-30T09:38:17Z</time><name>PT379</name></trkpt>
<trkpt lat="53.245823" lon="-1.844647"><ele>247</ele><time>2019-08-30T09:38:18Z</time><name>PT380</name></trkpt>
<trkpt lat="53.245819" lon="-1.844649"><ele>246</ele><time>2019-08-30T09:38:20Z</time><name>PT381</name></trkpt>
<trkpt lat="53.245815" lon="-1.844647"><ele>247</ele><time>2019-08-30T09:38:20Z</time><name>PT382</name></trkpt>
<trkpt lat="53.245812" lon="-1.844643"><ele>246</ele><time>2019-08-30T09:38:21Z</time><name>PT383</name></trkpt>
<trkpt lat="53.245805" lon="-1.844655"><ele>246</ele><time>2019-08-30T09:38:23Z</time><name>PT384</name></trkpt>
<trkpt lat="53.245798" lon="-1.844667"><ele>246</ele><time>2019-08-30T09:38:23Z</time><name>PT385</name></trkpt>
<trkpt lat="53.245790" lon="-1.844672"><ele>246</ele><time>2019-08-30T09:38:24Z</time><name>PT386</name></trkpt>
<trkpt lat="53.245780" lon="-1.844682"><ele>247</ele><time>2019-08-30T09:38:26Z</time><name>PT387</name></trkpt>
<trkpt lat="53.245774" lon="-1.844681"><ele>247</ele><time>2019-08-30T09:38:26Z</time><name>PT388</name></trkpt>
<trkpt lat="53.245766" lon="-1.844691"><ele>247</ele><time>2019-08-30T09:38:27Z</time><name>PT389</name></trkpt>
<trkpt lat="53.245757" lon="-1.844698"><ele>246</ele><time>2019-08-30T09:38:29Z</time><name>PT390</name></trkpt>
<trkpt lat="53.245749" lon="-1.844705"><ele>246</ele><time>2019-08-30T09:38:29Z</time><name>PT391</name></trkpt>
<trkpt lat="53.245741" lon="-1.844701"><ele>246</ele><time>2019-08-30T09:38:30Z</time><name>PT392</name></trkpt>
<trkpt lat="53.245734" lon="-1.844704"><ele>246</ele><time>2019-08-30T09:38:32Z</time><name>PT393</name></trkpt>
<trkpt lat="53.245730" lon="-1.844703"><ele>246</ele><time>2019-08-30T09:38:32Z</time><name>PT394</name></trkpt>
<trkpt lat="53.245723" lon="-1.844707"><ele>247</ele><time>2019-08-30T09:38:33Z</time><name>PT395</name></trkpt>
<trkpt lat="53.245713" lon="-1.844712"><ele>247</ele><time>2019-08-30T09:38:35Z</time><name>PT396</name></trkpt>
<trkpt lat="53.245703" lon="-1.844719"><ele>247</ele><time>2019-08-30T09:38:35Z</time><name>PT397</name></trkpt>
<trkpt lat="53.245695" lon="-1.844723"><ele>248</ele><time>2019-08-30T09:38:36Z</time><name>PT398</name></trkpt>
<trkpt lat="53.245692" lon="-1.844731"><ele>250</ele><time>2019-08-30T09:38:38Z</time><name>PT399</name></trkpt>
<trkpt lat="53.245686" lon="-1.844733"><ele>250</ele><time>2019-08-30T09:38:38Z</time><name>PT400</name></trkpt>
<trkpt lat="53.245681" lon="-1.844733"><ele>250</ele><time>2019-08-30T09:38:39Z</time><name>PT401</name></trkpt>
<trkpt lat="53.245679" lon="-1.844727"><ele>250</ele><time>2019-08-30T09:38:41Z</time><name>PT402</name></trkpt>
<trkpt lat="53.245673" lon="-1.844731"><ele>250</ele><time>2019-08-30T09:38:41Z</time><name>PT403</name></trkpt>
<trkpt lat="53.245666" lon="-1.844735"><ele>250</ele><time>2019-08-30T09:38:42Z</time><name>PT404</name></trkpt>
<trkpt lat="53.245661" lon="-1.844736"><ele>250</ele><time>2019-08-30T09:38:44Z</time><name>PT405</name></trkpt>
<trkpt lat="53.245656" lon="-1.844734"><ele>250</ele><time>2019-08-30T09:38:44Z</time><name>PT406</name></trkpt>
<trkpt lat="53.245650" lon="-1.844734"><ele>250</ele><time>2019-08-30T09:38:45Z</time><name>PT407</name></trkpt>
<trkpt lat="53.245645" lon="-1.844725"><ele>250</ele><time>2019-08-30T09:38:47Z</time><name>PT408</name></trkpt>
<trkpt lat="53.245644" lon="-1.844711"><ele>249</ele><time>2019-08-30T09:38:47Z</time><name>PT409</name></trkpt>
<trkpt lat="53.245627" lon="-1.844703"><ele>247</ele><time>2019-08-30T09:38:48Z</time><name>PT410</name></trkpt>
<trkpt lat="53.245619" lon="-1.844702"><ele>247</ele><time>2019-08-30T09:38:50Z</time><name>PT411</name></trkpt>
<trkpt lat="53.245610" lon="-1.844701"><ele>246</ele><time>2019-08-30T09:38:50Z</time><name>PT412</name></trkpt>
<trkpt lat="53.245605" lon="-1.844700"><ele>246</ele><time>2019-08-30T09:38:51Z</time><name>PT413</name></trkpt>
<trkpt lat="53.245605" lon="-1.844704"><ele>245</ele><time>2019-08-30T09:38:53Z</time><name>PT414</name></trkpt>
<trkpt lat="53.245599" lon="-1.844711"><ele>245</ele><time>2019-08-30T09:38:53Z</time><name>PT415</name></trkpt>
<trkpt lat="53.245594" lon="-1.844709"><ele>244</ele><time>2019-08-30T09:38:54Z</time><name>PT416</name></trkpt>
<trkpt lat="53.245586" lon="-1.844703"><ele>243</ele><time>2019-08-30T09:38:56Z</time><name>PT417</name></trkpt>
<trkpt lat="53.245581" lon="-1.844701"><ele>243</ele><time>2019-08-30T09:38:56Z</time><name>PT418</name></trkpt>
<trkpt lat="53.245575" lon="-1.844699"><ele>244</ele><time>2019-08-30T09:38:57Z</time><name>PT419</name></trkpt>
<trkpt lat="53.245571" lon="-1.844699"><ele>245</ele><time>2019-08-30T09:38:59Z</time><name>PT420</name></trkpt>
<trkpt lat="53.245563" lon="-1.844703"><ele>246</ele><time>2019-08-30T09:38:59Z</time><name>PT421</name></trkpt>
<trkpt lat="53.245553" lon="-1.844708"><ele>246</ele><time>2019-08-30T09:39:00Z</time><name>PT422</name></trkpt>
<trkpt lat="53.245544" lon="-1.844721"><ele>244</ele><time>2019-08-30T09:39:02Z</time><name>PT423</name></trkpt>
<trkpt lat="53.245532" lon="-1.844735"><ele>245</ele><time>2019-08-30T09:39:02Z</time><name>PT424</name></trkpt>
<trkpt lat="53.245529" lon="-1.844736"><ele>245</ele><time>2019-08-30T09:39:03Z</time><name>PT425</name></trkpt>
<trkpt lat="53.245525" lon="-1.844742"><ele>244</ele><time>2019-08-30T09:39:05Z</time><name>PT426</name></trkpt>
<trkpt lat="53.245503" lon="-1.844738"><ele>245</ele><time>2019-08-30T09:39:17Z</time><name>PT427</name></trkpt>
<trkpt lat="53.245490" lon="-1.844749"><ele>246</ele><time>2019-08-30T09:39:17Z</time><name>PT428</name></trkpt>
<trkpt lat="53.245480" lon="-1.844738"><ele>244</ele><time>2019-08-30T09:39:18Z</time><name>PT429</name></trkpt>
<trkpt lat="53.245470" lon="-1.844754"><ele>244</ele><time>2019-08-30T09:39:20Z</time><name>PT430</name></trkpt>
<trkpt lat="53.245468" lon="-1.844756"><ele>245</ele><time>2019-08-30T09:39:20Z</time><name>PT431</name></trkpt>
<trkpt lat="53.245465" lon="-1.844768"><ele>244</ele><time>2019-08-30T09:39:21Z</time><name>PT432</name></trkpt>
<trkpt lat="53.245464" lon="-1.844772"><ele>244</ele><time>2019-08-30T09:39:23Z</time><name>PT433</name></trkpt>
<trkpt lat="53.245464" lon="-1.844772"><ele>244</ele><time>2019-08-30T09:39:23Z</time><name>PT434</name></trkpt>
<trkpt lat="53.245463" lon="-1.844776"><ele>244</ele><time>2019-08-30T09:39:24Z</time><name>PT435</name></trkpt>
<trkpt lat="53.245464" lon="-1.844778"><ele>244</ele><time>2019-08-30T09:39:26Z</time><name>PT436</name></trkpt>
<trkpt lat="53.245463" lon="-1.844782"><ele>244</ele><time>2019-08-30T09:39:26Z</time><name>PT437</name></trkpt>
<trkpt lat="53.245463" lon="-1.844787"><ele>244</ele><time>2019-08-30T09:39:27Z</time><name>PT438</name></trkpt>
<trkpt lat="53.245462" lon="-1.844789"><ele>245</ele><time>2019-08-30T09:39:29Z</time><name>PT439</name></trkpt>
<trkpt lat="53.245459" lon="-1.844797"><ele>245</ele><time>2019-08-30T09:39:29Z</time><name>PT440</name></trkpt>
<trkpt lat="53.245458" lon="-1.844801"><ele>245</ele><time>2019-08-30T09:39:30Z</time><name>PT441</name></trkpt>
<trkpt lat="53.245456" lon="-1.844806"><ele>245</ele><time>2019-08-30T09:39:32Z</time><name>PT442</name></trkpt>
<trkpt lat="53.245453" lon="-1.844812"><ele>245</ele><time>2019-08-30T09:39:32Z</time><name>PT443</name></trkpt>
<trkpt lat="53.245450" lon="-1.844819"><ele>245</ele><time>2019-08-30T09:39:33Z</time><name>PT444</name></trkpt>
<trkpt lat="53.245448" lon="-1.844821"><ele>245</ele><time>2019-08-30T09:39:35Z</time><name>PT445</name></trkpt>
<trkpt lat="53.245449" lon="-1.844822"><ele>245</ele><time>2019-08-30T09:39:35Z</time><name>PT446</name></trkpt>
<trkpt lat="53.245446" lon="-1.844830"><ele>245</ele><time>2019-08-30T09:39:36Z</time><name>PT447</name></trkpt>
<trkpt lat="53.245451" lon="-1.844826"><ele>245</ele><time>2019-08-30T09:39:38Z</time><name>PT448</name></trkpt>
<trkpt lat="53.245452" lon="-1.844837"><ele>245</ele><time>2019-08-30T09:39:38Z</time><name>PT449</name></trkpt>
<trkpt lat="53.245452" lon="-1.844847"><ele>245</ele><time>2019-08-30T09:39:39Z</time><name>PT450</name></trkpt>
<trkpt lat="53.245452" lon="-1.844859"><ele>245</ele><time>2019-08-30T09:39:41Z</time><name>PT451</name></trkpt>
<trkpt lat="53.245451" lon="-1.844868"><ele>246</ele><time>2019-08-30T09:39:41Z</time><name>PT452</name></trkpt>
<trkpt lat="53.245450" lon="-1.844873"><ele>245</ele><time>2019-08-30T09:39:42Z</time><name>PT453</name></trkpt>
<trkpt lat="53.245446" lon="-1.844881"><ele>245</ele><time>2019-08-30T09:39:44Z</time><name>PT454</name></trkpt>
<trkpt lat="53.245442" lon="-1.844889"><ele>245</ele><time>2019-08-30T09:39:44Z</time><name>PT455</name></trkpt>
<trkpt lat="53.245436" lon="-1.844899"><ele>246</ele><time>2019-08-30T09:39:45Z</time><name>PT456</name></trkpt>
<trkpt lat="53.245425" lon="-1.844911"><ele>246</ele><time>2019-08-30T09:39:47Z</time><name>PT457</name></trkpt>
<trkpt lat="53.245421" lon="-1.844918"><ele>246</ele><time>2019-08-30T09:39:47Z</time><name>PT458</name></trkpt>
<trkpt lat="53.245424" lon="-1.844927"><ele>247</ele><time>2019-08-30T09:39:48Z</time><name>PT459</name></trkpt>
<trkpt lat="53.245426" lon="-1.844940"><ele>247</ele><time>2019-08-30T09:39:50Z</time><name>PT460</name></trkpt>
<trkpt lat="53.245425" lon="-1.844942"><ele>246</ele><time>2019-08-30T09:39:50Z</time><name>PT461</name></trkpt>
<trkpt lat="53.245424" lon="-1.844942"><ele>246</ele><time>2019-08-30T09:39:51Z</time><name>PT462</name></trkpt>
<trkpt lat="53.245424" lon="-1.844938"><ele>247</ele><time>2019-08-30T09:39:56Z</time><name>PT463</name></trkpt>
<trkpt lat="53.245410" lon="-1.844941"><ele>247</ele><time>2019-08-30T09:39:56Z</time><name>PT464</name></trkpt>
<trkpt lat="53.245401" lon="-1.844944"><ele>247</ele><time>2019-08-30T09:39:57Z</time><name>PT465</name></trkpt>
<trkpt lat="53.245391" lon="-1.844950"><ele>248</ele><time>2019-08-30T09:39:59Z</time><name>PT466</name></trkpt>
<trkpt lat="53.245381" lon="-1.844950"><ele>248</ele><time>2019-08-30T09:39:59Z</time><name>PT467</name></trkpt>
<trkpt lat="53.245368" lon="-1.844947"><ele>248</ele><time>2019-08-30T09:40:00Z</time><name>PT468</name></trkpt>
<trkpt lat="53.245359" lon="-1.844943"><ele>249</ele><time>2019-08-30T09:40:02Z</time><name>PT469</name></trkpt>
<trkpt lat="53.245350" lon="-1.844940"><ele>249</ele><time>2019-08-30T09:40:02Z</time><name>PT470</name></trkpt>
<trkpt lat="53.245337" lon="-1.844947"><ele>250</ele><time>2019-08-30T09:40:03Z</time><name>PT471</name></trkpt>
<trkpt lat="53.245328" lon="-1.844947"><ele>250</ele><time>2019-08-30T09:40:05Z</time><name>PT472</name></trkpt>
<trkpt lat="53.245317" lon="-1.844955"><ele>250</ele><time>2019-08-30T09:40:05Z</time><name>PT473</name></trkpt>
<trkpt lat="53.245309" lon="-1.844959"><ele>251</ele><time>2019-08-30T09:40:06Z</time><name>PT474</name></trkpt>
<trkpt lat="53.245302" lon="-1.844960"><ele>251</ele><time>2019-08-30T09:40:08Z</time><name>PT475</name></trkpt>
<trkpt lat="53.245292" lon="-1.844963"><ele>251</ele><time>2019-08-30T09:40:08Z</time><name>PT476</name></trkpt>
<trkpt lat="53.245286" lon="-1.844958"><ele>251</ele><time>2019-08-30T09:40:09Z</time><name>PT477</name></trkpt>
<trkpt lat="53.245280" lon="-1.844959"><ele>252</ele><time>2019-08-30T09:40:11Z</time><name>PT478</name></trkpt>
<trkpt lat="53.245271" lon="-1.844963"><ele>253</ele><time>2019-08-30T09:40:11Z</time><name>PT479</name></trkpt>
<trkpt lat="53.245264" lon="-1.844961"><ele>253</ele><time>2019-08-30T09:40:12Z</time><name>PT480</name></trkpt>
<trkpt lat="53.245257" lon="-1.844962"><ele>253</ele><time>2019-08-30T09:40:14Z</time><name>PT481</name></trkpt>
<trkpt lat="53.245251" lon="-1.844961"><ele>254</ele><time>2019-08-30T09:40:14Z</time><name>PT482</name></trkpt>
<trkpt lat="53.245245" lon="-1.844963"><ele>254</ele><time>2019-08-30T09:40:15Z</time><name>PT483</name></trkpt>
<trkpt lat="53.245236" lon="-1.844964"><ele>255</ele><time>2019-08-30T09:40:17Z</time><name>PT484</name></trkpt>
<trkpt lat="53.245231" lon="-1.844966"><ele>255</ele><time>2019-08-30T09:40:17Z</time><name>PT485</name></trkpt>
<trkpt lat="53.245225" lon="-1.844968"><ele>255</ele><time>2019-08-30T09:40:18Z</time><name>PT486</name></trkpt>
<trkpt lat="53.245218" lon="-1.844970"><ele>255</ele><time>2019-08-30T09:40:19Z</time><name>PT487</name></trkpt>
<trkpt lat="53.245212" lon="-1.844973"><ele>256</ele><time>2019-08-30T09:40:20Z</time><name>PT488</name></trkpt>
<trkpt lat="53.245204" lon="-1.844976"><ele>256</ele><time>2019-08-30T09:40:21Z</time><name>PT489</name></trkpt>
<trkpt lat="53.245200" lon="-1.844977"><ele>256</ele><time>2019-08-30T09:40:23Z</time><name>PT490</name></trkpt>
<trkpt lat="53.245196" lon="-1.844973"><ele>256</ele><time>2019-08-30T09:40:23Z</time><name>PT491</name></trkpt>
<trkpt lat="53.245190" lon="-1.844976"><ele>256</ele><time>2019-08-30T09:40:24Z</time><name>PT492</name></trkpt>
<trkpt lat="53.245183" lon="-1.844981"><ele>256</ele><time>2019-08-30T09:40:26Z</time><name>PT493</name></trkpt>
<trkpt lat="53.245176" lon="-1.844985"><ele>256</ele><time>2019-08-30T09:40:26Z</time><name>PT494</name></trkpt>
<trkpt lat="53.245169" lon="-1.844985"><ele>257</ele><time>2019-08-30T09:40:27Z</time><name>PT495</name></trkpt>
<trkpt lat="53.245163" lon="-1.844989"><ele>257</ele><time>2019-08-30T09:40:29Z</time><name>PT496</name></trkpt>
<trkpt lat="53.245158" lon="-1.844992"><ele>257</ele><time>2019-08-30T09:40:29Z</time><name>PT497</name></trkpt>
<trkpt lat="53.245154" lon="-1.844993"><ele>257</ele><time>2019-08-30T09:40:30Z</time><name>PT498</name></trkpt>
<trkpt lat="53.245151" lon="-1.844993"><ele>257</ele><time>2019-08-30T09:40:32Z</time><name>PT499</name></trkpt>
<trkpt lat="53.245149" lon="-1.844996"><ele>258</ele><time>2019-08-30T09:40:32Z</time><name>PT500</name></trkpt>
<trkpt lat="53.245145" lon="-1.845000"><ele>258</ele><time>2019-08-30T09:40:33Z</time><name>PT501</name></trkpt>
<trkpt lat="53.245145" lon="-1.844999"><ele>258</ele><time>2019-08-30T09:40:35Z</time><name>PT502</name></trkpt>
<trkpt lat="53.245143" lon="-1.845000"><ele>258</ele><time>2019-08-30T09:40:35Z</time><name>PT503</name></trkpt>
<trkpt lat="53.245141" lon="-1.845004"><ele>258</ele><time>2019-08-30T09:40:36Z</time><name>PT504</name></trkpt>
<trkpt lat="53.245142" lon="-1.845007"><ele>258</ele><time>2019-08-30T09:40:38Z</time><name>PT505</name></trkpt>
<trkpt lat="53.245142" lon="-1.845010"><ele>258</ele><time>2019-08-30T09:40:39Z</time><name>PT506</name></trkpt>
<trkpt lat="53.245140" lon="-1.845022"><ele>258</ele><time>2019-08-30T09:40:41Z</time><name>PT507</name></trkpt>
<trkpt lat="53.245137" lon="-1.845028"><ele>258</ele><time>2019-08-30T09:40:41Z</time><name>PT508</name></trkpt>
<trkpt lat="53.245132" lon="-1.845037"><ele>258</ele><time>2019-08-30T09:40:42Z</time><name>PT509</name></trkpt>
<trkpt lat="53.245122" lon="-1.845048"><ele>259</ele><time>2019-08-30T09:40:44Z</time><name>PT510</name></trkpt>
<trkpt lat="53.245121" lon="-1.845057"><ele>260</ele><time>2019-08-30T09:40:44Z</time><name>PT511</name></trkpt>
<trkpt lat="53.245121" lon="-1.845065"><ele>260</ele><time>2019-08-30T09:40:45Z</time><name>PT512</name></trkpt>
<trkpt lat="53.245122" lon="-1.845072"><ele>260</ele><time>2019-08-30T09:40:47Z</time><name>PT513</name></trkpt>
<trkpt lat="53.245123" lon="-1.845084"><ele>261</ele><time>2019-08-30T09:40:47Z</time><name>PT514</name></trkpt>
<trkpt lat="53.245124" lon="-1.845093"><ele>261</ele><time>2019-08-30T09:40:48Z</time><name>PT515</name></trkpt>
<trkpt lat="53.245130" lon="-1.845095"><ele>260</ele><time>2019-08-30T09:40:50Z</time><name>PT516</name></trkpt>
<trkpt lat="53.245132" lon="-1.845100"><ele>261</ele><time>2019-08-30T09:40:50Z</time><name>PT517</name></trkpt>
<trkpt lat="53.245135" lon="-1.845105"><ele>261</ele><time>2019-08-30T09:40:51Z</time><name>PT518</name></trkpt>
<trkpt lat="53.245131" lon="-1.845100"><ele>259</ele><time>2019-08-30T09:40:53Z</time><name>PT519</name></trkpt>
<trkpt lat="53.245132" lon="-1.845105"><ele>259</ele><time>2019-08-30T09:40:53Z</time><name>PT520</name></trkpt>
<trkpt lat="53.245134" lon="-1.845118"><ele>259</ele><time>2019-08-30T09:40:54Z</time><name>PT521</name></trkpt>
<trkpt lat="53.245137" lon="-1.845127"><ele>259</ele><time>2019-08-30T09:40:56Z</time><name>PT522</name></trkpt>
<trkpt lat="53.245138" lon="-1.845135"><ele>259</ele><time>2019-08-30T09:40:56Z</time><name>PT523</name></trkpt>
<trkpt lat="53.245140" lon="-1.845143"><ele>259</ele><time>2019-08-30T09:40:57Z</time><name>PT524</name></trkpt>
<trkpt lat="53.245143" lon="-1.845148"><ele>259</ele><time>2019-08-30T09:40:59Z</time><name>PT525</name></trkpt>
<trkpt lat="53.245150" lon="-1.845159"><ele>260</ele><time>2019-08-30T09:40:59Z</time><name>PT526</name></trkpt>
<trkpt lat="53.245152" lon="-1.845169"><ele>260</ele><time>2019-08-30T09:41:00Z</time><name>PT527</name></trkpt>
<trkpt lat="53.245154" lon="-1.845176"><ele>259</ele><time>2019-08-30T09:41:02Z</time><name>PT528</name></trkpt>
<trkpt lat="53.245160" lon="-1.845183"><ele>259</ele><time>2019-08-30T09:41:02Z</time><name>PT529</name></trkpt>
<trkpt lat="53.245165" lon="-1.845193"><ele>259</ele><time>2019-08-30T09:41:03Z</time><name>PT530</name></trkpt>
<trkpt lat="53.245170" lon="-1.845203"><ele>259</ele><time>2019-08-30T09:41:05Z</time><name>PT531</name></trkpt>
<trkpt lat="53.245174" lon="-1.845207"><ele>259</ele><time>2019-08-30T09:41:05Z</time><name>PT532</name></trkpt>
<trkpt lat="53.245178" lon="-1.845214"><ele>259</ele><time>2019-08-30T09:41:06Z</time><name>PT533</name></trkpt>
<trkpt lat="53.245180" lon="-1.845216"><ele>260</ele><time>2019-08-30T09:41:08Z</time><name>PT534</name></trkpt>
<trkpt lat="53.245174" lon="-1.845219"><ele>259</ele><time>2019-08-30T09:41:08Z</time><name>PT535</name></trkpt>
<trkpt lat="53.245167" lon="-1.845225"><ele>259</ele><time>2019-08-30T09:41:09Z</time><name>PT536</name></trkpt>
<trkpt lat="53.245164" lon="-1.845229"><ele>260</ele><time>2019-08-30T09:41:11Z</time><name>PT537</name></trkpt>
<trkpt lat="53.245160" lon="-1.845231"><ele>260</ele><time>2019-08-30T09:41:11Z</time><name>PT538</name></trkpt>
<trkpt lat="53.245157" lon="-1.845233"><ele>261</ele><time>2019-08-30T09:41:12Z</time><name>PT539</name></trkpt>
<trkpt lat="53.245149" lon="-1.845232"><ele>260</ele><time>2019-08-30T09:41:14Z</time><name>PT540</name></trkpt>
<trkpt lat="53.245147" lon="-1.845228"><ele>261</ele><time>2019-08-30T09:41:14Z</time><name>PT541</name></trkpt>
<trkpt lat="53.245143" lon="-1.845227"><ele>261</ele><time>2019-08-30T09:41:15Z</time><name>PT542</name></trkpt>
<trkpt lat="53.245139" lon="-1.845233"><ele>261</ele><time>2019-08-30T09:41:17Z</time><name>PT543</name></trkpt>
<trkpt lat="53.245137" lon="-1.845237"><ele>262</ele><time>2019-08-30T09:41:17Z</time><name>PT544</name></trkpt>
<trkpt lat="53.245130" lon="-1.845242"><ele>262</ele><time>2019-08-30T09:41:18Z</time><name>PT545</name></trkpt>
<trkpt lat="53.245120" lon="-1.845249"><ele>262</ele><time>2019-08-30T09:41:20Z</time><name>PT546</name></trkpt>
<trkpt lat="53.245116" lon="-1.845250"><ele>262</ele><time>2019-08-30T09:41:20Z</time><name>PT547</name></trkpt>
<trkpt lat="53.245111" lon="-1.845252"><ele>262</ele><time>2019-08-30T09:41:21Z</time><name>PT548</name></trkpt>
<trkpt lat="53.245109" lon="-1.845251"><ele>262</ele><time>2019-08-30T09:41:23Z</time><name>PT549</name></trkpt>
<trkpt lat="53.245097" lon="-1.845253"><ele>262</ele><time>2019-08-30T09:41:24Z</time><name>PT550</name></trkpt>
<trkpt lat="53.245091" lon="-1.845253"><ele>262</ele><time>2019-08-30T09:41:26Z</time><name>PT551</name></trkpt>
<trkpt lat="53.245085" lon="-1.845253"><ele>262</ele><time>2019-08-30T09:41:26Z</time><name>PT552</name></trkpt>
<trkpt lat="53.245080" lon="-1.845252"><ele>263</ele><time>2019-08-30T09:41:27Z</time><name>PT553</name></trkpt>
<trkpt lat="53.245075" lon="-1.845255"><ele>263</ele><time>2019-08-30T09:41:29Z</time><name>PT554</name></trkpt>
<trkpt lat="53.245073" lon="-1.845253"><ele>263</ele><time>2019-08-30T09:41:29Z</time><name>PT555</name></trkpt>
<trkpt lat="53.245069" lon="-1.845244"><ele>263</ele><time>2019-08-30T09:41:30Z</time><name>PT556</name></trkpt>
<trkpt lat="53.245065" lon="-1.845239"><ele>263</ele><time>2019-08-30T09:41:32Z</time><name>PT557</name></trkpt>
<trkpt lat="53.245061" lon="-1.845236"><ele>264</ele><time>2019-08-30T09:41:32Z</time><name>PT558</name></trkpt>
<trkpt lat="53.245060" lon="-1.845236"><ele>263</ele><time>2019-08-30T09:41:33Z</time><name>PT559</name></trkpt>
<trkpt lat="53.245056" lon="-1.845238"><ele>263</ele><time>2019-08-30T09:41:35Z</time><name>PT560</name></trkpt>
<trkpt lat="53.245052" lon="-1.845239"><ele>264</ele><time>2019-08-30T09:41:35Z</time><name>PT561</name></trkpt>
<trkpt lat="53.245048" lon="-1.845241"><ele>264</ele><time>2019-08-30T09:41:36Z</time><name>PT562</name></trkpt>
<trkpt lat="53.245048" lon="-1.845248"><ele>265</ele><time>2019-08-30T09:41:38Z</time><name>PT563</name></trkpt>
<trkpt lat="53.245044" lon="-1.845253"><ele>265</ele><time>2019-08-30T09:41:38Z</time><name>PT564</name></trkpt>
<trkpt lat="53.245044" lon="-1.845264"><ele>266</ele><time>2019-08-30T09:41:39Z</time><name>PT565</name></trkpt>
<trkpt lat="53.245044" lon="-1.845271"><ele>266</ele><time>2019-08-30T09:41:41Z</time><name>PT566</name></trkpt>
<trkpt lat="53.245046" lon="-1.845281"><ele>267</ele><time>2019-08-30T09:41:41Z</time><name>PT567</name></trkpt>
<trkpt lat="53.245047" lon="-1.845287"><ele>267</ele><time>2019-08-30T09:41:42Z</time><name>PT568</name></trkpt>
<trkpt lat="53.245048" lon="-1.845298"><ele>267</ele><time>2019-08-30T09:41:44Z</time><name>PT569</name></trkpt>
<trkpt lat="53.245048" lon="-1.845301"><ele>268</ele><time>2019-08-30T09:41:44Z</time><name>PT570</name></trkpt>
<trkpt lat="53.245048" lon="-1.845304"><ele>269</ele><time>2019-08-30T09:41:46Z</time><name>PT571</name></trkpt>
<trkpt lat="53.245047" lon="-1.845306"><ele>268</ele><time>2019-08-30T09:41:47Z</time><name>PT572</name></trkpt>
<trkpt lat="53.245047" lon="-1.845319"><ele>270</ele><time>2019-08-30T09:41:47Z</time><name>PT573</name></trkpt>
<trkpt lat="53.245044" lon="-1.845323"><ele>270</ele><time>2019-08-30T09:41:48Z</time><name>PT574</name></trkpt>
<trkpt lat="53.245042" lon="-1.845324"><ele>270</ele><time>2019-08-30T09:41:50Z</time><name>PT575</name></trkpt>
<trkpt lat="53.245042" lon="-1.845331"><ele>270</ele><time>2019-08-30T09:41:50Z</time><name>PT576</name></trkpt>
<trkpt lat="53.245039" lon="-1.845342"><ele>269</ele><time>2019-08-30T09:41:51Z</time><name>PT577</name></trkpt>
<trkpt lat="53.245037" lon="-1.845352"><ele>270</ele><time>2019-08-30T09:41:53Z</time><name>PT578</name></trkpt>
<trkpt lat="53.245034" lon="-1.845357"><ele>269</ele><time>2019-08-30T09:41:53Z</time><name>PT579</name></trkpt>
<trkpt lat="53.245031" lon="-1.845365"><ele>269</ele><time>2019-08-30T09:41:54Z</time><name>PT580</name></trkpt>
<trkpt lat="53.245027" lon="-1.845372"><ele>268</ele><time>2019-08-30T09:41:56Z</time><name>PT581</name></trkpt>
<trkpt lat="53.245023" lon="-1.845379"><ele>268</ele><time>2019-08-30T09:41:56Z</time><name>PT582</name></trkpt>
<trkpt lat="53.245018" lon="-1.845382"><ele>269</ele><time>2019-08-30T09:41:57Z</time><name>PT583</name></trkpt>
<trkpt lat="53.245012" lon="-1.845386"><ele>269</ele><time>2019-08-30T09:41:59Z</time><name>PT584</name></trkpt>
<trkpt lat="53.245007" lon="-1.845383"><ele>269</ele><time>2019-08-30T09:41:59Z</time><name>PT585</name></trkpt>
<trkpt lat="53.245002" lon="-1.845382"><ele>269</ele><time>2019-08-30T09:42:00Z</time><name>PT586</name></trkpt>
<trkpt lat="53.244997" lon="-1.845387"><ele>270</ele><time>2019-08-30T09:42:02Z</time><name>PT587</name></trkpt>
<trkpt lat="53.244995" lon="-1.845390"><ele>270</ele><time>2019-08-30T09:42:02Z</time><name>PT588</name></trkpt>
<trkpt lat="53.244991" lon="-1.845388"><ele>270</ele><time>2019-08-30T09:42:03Z</time><name>PT589</name></trkpt>
<trkpt lat="53.244986" lon="-1.845392"><ele>270</ele><time>2019-08-30T09:42:05Z</time><name>PT590</name></trkpt>
<trkpt lat="53.244984" lon="-1.845396"><ele>271</ele><time>2019-08-30T09:42:05Z</time><name>PT591</name></trkpt>
<trkpt lat="53.244980" lon="-1.845406"><ele>271</ele><time>2019-08-30T09:42:06Z</time><name>PT592</name></trkpt>
<trkpt lat="53.244976" lon="-1.845416"><ele>271</ele><time>2019-08-30T09:42:08Z</time><name>PT593</name></trkpt>
<trkpt lat="53.244970" lon="-1.845417"><ele>271</ele><time>2019-08-30T09:42:08Z</time><name>PT594</name></trkpt>
<trkpt lat="53.244966" lon="-1.845419"><ele>271</ele><time>2019-08-30T09:42:09Z</time><name>PT595</name></trkpt>
<trkpt lat="53.244962" lon="-1.845424"><ele>272</ele><time>2019-08-30T09:42:11Z</time><name>PT596</name></trkpt>
<trkpt lat="53.244956" lon="-1.845430"><ele>272</ele><time>2019-08-30T09:42:11Z</time><name>PT597</name></trkpt>
<trkpt lat="53.244952" lon="-1.845436"><ele>272</ele><time>2019-08-30T09:42:12Z</time><name>PT598</name></trkpt>
<trkpt lat="53.244952" lon="-1.845441"><ele>274</ele><time>2019-08-30T09:42:14Z</time><name>PT599</name></trkpt>
<trkpt lat="53.244948" lon="-1.845447"><ele>273</ele><time>2019-08-30T09:42:14Z</time><name>PT600</name></trkpt>
<trkpt lat="53.244944" lon="-1.845454"><ele>273</ele><time>2019-08-30T09:42:15Z</time><name>PT601</name></trkpt>
<trkpt lat="53.244943" lon="-1.845461"><ele>274</ele><time>2019-08-30T09:42:17Z</time><name>PT602</name></trkpt>
<trkpt lat="53.244940" lon="-1.845469"><ele>273</ele><time>2019-08-30T09:42:17Z</time><name>PT603</name></trkpt>
<trkpt lat="53.244939" lon="-1.845476"><ele>274</ele><time>2019-08-30T09:42:18Z</time><name>PT604</name></trkpt>
<trkpt lat="53.244933" lon="-1.845489"><ele>274</ele><time>2019-08-30T09:42:20Z</time><name>PT605</name></trkpt>
<trkpt lat="53.244931" lon="-1.845501"><ele>274</ele><time>2019-08-30T09:42:20Z</time><name>PT606</name></trkpt>
<trkpt lat="53.244927" lon="-1.845510"><ele>274</ele><time>2019-08-30T09:42:21Z</time><name>PT607</name></trkpt>
<trkpt lat="53.244922" lon="-1.845517"><ele>274</ele><time>2019-08-30T09:42:23Z</time><name>PT608</name></trkpt>
<trkpt lat="53.244916" lon="-1.845525"><ele>274</ele><time>2019-08-30T09:42:23Z</time><name>PT609</name></trkpt>
<trkpt lat="53.244912" lon="-1.845534"><ele>275</ele><time>2019-08-30T09:42:24Z</time><name>PT610</name></trkpt>
<trkpt lat="53.244909" lon="-1.845548"><ele>275</ele><time>2019-08-30T09:42:26Z</time><name>PT611</name></trkpt>
<trkpt lat="53.244906" lon="-1.845558"><ele>275</ele><time>2019-08-30T09:42:26Z</time><name>PT612</name></trkpt>
<trkpt lat="53.244903" lon="-1.845568"><ele>275</ele><time>2019-08-30T09:42:27Z</time><name>PT613</name></trkpt>
<trkpt lat="53.244896" lon="-1.845578"><ele>275</ele><time>2019-08-30T09:42:29Z</time><name>PT614</name></trkpt>
<trkpt lat="53.244893" lon="-1.845586"><ele>275</ele><time>2019-08-30T09:42:29Z</time><name>PT615</name></trkpt>
<trkpt lat="53.244894" lon="-1.845595"><ele>277</ele><time>2019-08-30T09:42:30Z</time><name>PT616</name></trkpt>
<trkpt lat="53.244889" lon="-1.845605"><ele>276</ele><time>2019-08-30T09:42:32Z</time><name>PT617</name></trkpt>
<trkpt lat="53.244884" lon="-1.845613"><ele>276</ele><time>2019-08-30T09:42:32Z</time><name>PT618</name></trkpt>
<trkpt lat="53.244882" lon="-1.845623"><ele>278</ele><time>2019-08-30T09:42:33Z</time><name>PT619</name></trkpt>
<trkpt lat="53.244875" lon="-1.845628"><ele>278</ele><time>2019-08-30T09:42:35Z</time><name>PT620</name></trkpt>
<trkpt lat="53.244870" lon="-1.845633"><ele>278</ele><time>2019-08-30T09:42:35Z</time><name>PT621</name></trkpt>
<trkpt lat="53.244865" lon="-1.845638"><ele>278</ele><time>2019-08-30T09:42:36Z</time><name>PT622</name></trkpt>
<trkpt lat="53.244861" lon="-1.845643"><ele>278</ele><time>2019-08-30T09:42:38Z</time><name>PT623</name></trkpt>
<trkpt lat="53.244857" lon="-1.845651"><ele>278</ele><time>2019-08-30T09:42:38Z</time><name>PT624</name></trkpt>
<trkpt lat="53.244851" lon="-1.845657"><ele>278</ele><time>2019-08-30T09:42:39Z</time><name>PT625</name></trkpt>
<trkpt lat="53.244847" lon="-1.845658"><ele>278</ele><time>2019-08-30T09:42:41Z</time><name>PT626</name></trkpt>
<trkpt lat="53.244842" lon="-1.845666"><ele>278</ele><time>2019-08-30T09:42:41Z</time><name>PT627</name></trkpt>
<trkpt lat="53.244840" lon="-1.845672"><ele>278</ele><time>2019-08-30T09:42:42Z</time><name>PT628</name></trkpt>
<trkpt lat="53.244835" lon="-1.845679"><ele>279</ele><time>2019-08-30T09:42:44Z</time><name>PT629</name></trkpt>
<trkpt lat="53.244833" lon="-1.845685"><ele>279</ele><time>2019-08-30T09:42:44Z</time><name>PT630</name></trkpt>
<trkpt lat="53.244831" lon="-1.845689"><ele>280</ele><time>2019-08-30T09:42:45Z</time><name>PT631</name></trkpt>
<trkpt lat="53.244829" lon="-1.845693"><ele>280</ele><time>2019-08-30T09:42:47Z</time><name>PT632</name></trkpt>
<trkpt lat="53.244824" lon="-1.845697"><ele>281</ele><time>2019-08-30T09:42:47Z</time><name>PT633</name></trkpt>
<trkpt lat="53.244822" lon="-1.845692"><ele>281</ele><time>2019-08-30T09:42:48Z</time><name>PT634</name></trkpt>
<trkpt lat="53.244821" lon="-1.845688"><ele>281</ele><time>2019-08-30T09:42:50Z</time><name>PT635</name></trkpt>
<trkpt lat="53.244823" lon="-1.845682"><ele>281</ele><time>2019-08-30T09:42:50Z</time><name>PT636</name></trkpt>
<trkpt lat="53.244826" lon="-1.845668"><ele>280</ele><time>2019-08-30T09:42:51Z</time><name>PT637</name></trkpt>
<trkpt lat="53.244827" lon="-1.845654"><ele>280</ele><time>2019-08-30T09:42:53Z</time><name>PT638</name></trkpt>
<trkpt lat="53.244832" lon="-1.845637"><ele>280</ele><time>2019-08-30T09:42:53Z</time><name>PT639</name></trkpt>
<trkpt lat="53.244830" lon="-1.845625"><ele>280</ele><time>2019-08-30T09:42:54Z</time><name>PT640</name></trkpt>
<trkpt lat="53.244832" lon="-1.845612"><ele>280</ele><time>2019-08-30T09:42:56Z</time><name>PT641</name></trkpt>
<trkpt lat="53.244834" lon="-1.845597"><ele>280</ele><time>2019-08-30T09:42:56Z</time><name>PT642</name></trkpt>
<trkpt lat="53.244836" lon="-1.845582"><ele>280</ele><time>2019-08-30T09:42:57Z</time><name>PT643</name></trkpt>
<trkpt lat="53.244836" lon="-1.845572"><ele>279</ele><time>2019-08-30T09:42:59Z</time><name>PT644</name></trkpt>
<trkpt lat="53.244837" lon="-1.845562"><ele>280</ele><time>2019-08-30T09:42:59Z</time><name>PT645</name></trkpt>
<trkpt lat="53.244834" lon="-1.845557"><ele>280</ele><time>2019-08-30T09:43:00Z</time><name>PT646</name></trkpt>
<trkpt lat="53.244831" lon="-1.845544"><ele>281</ele><time>2019-08-30T09:43:02Z</time><name>PT647</name></trkpt>
<trkpt lat="53.244833" lon="-1.845544"><ele>280</ele><time>2019-08-30T09:43:02Z</time><name>PT648</name></trkpt>
<trkpt lat="53.244825" lon="-1.845543"><ele>279</ele><time>2019-08-30T09:43:03Z</time><name>PT649</name></trkpt>
<trkpt lat="53.244824" lon="-1.845538"><ele>280</ele><time>2019-08-30T09:43:05Z</time><name>PT650</name></trkpt>
<trkpt lat="53.244825" lon="-1.845550"><ele>281</ele><time>2019-08-30T09:43:11Z</time><name>PT651</name></trkpt>
<trkpt lat="53.244821" lon="-1.845555"><ele>281</ele><time>2019-08-30T09:43:11Z</time><name>PT652</name></trkpt>
<trkpt lat="53.244816" lon="-1.845568"><ele>282</ele><time>2019-08-30T09:43:12Z</time><name>PT653</name></trkpt>
<trkpt lat="53.244805" lon="-1.845587"><ele>282</ele><time>2019-08-30T09:43:14Z</time><name>PT654</name></trkpt>
<trkpt lat="53.244797" lon="-1.845600"><ele>282</ele><time>2019-08-30T09:43:14Z</time><name>PT655</name></trkpt>
<trkpt lat="53.244790" lon="-1.845610"><ele>282</ele><time>2019-08-30T09:43:15Z</time><name>PT656</name></trkpt>
<trkpt lat="53.244787" lon="-1.845615"><ele>283</ele><time>2019-08-30T09:43:17Z</time><name>PT657</name></trkpt>
<trkpt lat="53.244783" lon="-1.845622"><ele>284</ele><time>2019-08-30T09:43:17Z</time><name>PT658</name></trkpt>
<trkpt lat="53.244778" lon="-1.845628"><ele>284</ele><time>2019-08-30T09:43:18Z</time><name>PT659</name></trkpt>
<trkpt lat="53.244773" lon="-1.845638"><ele>284</ele><time>2019-08-30T09:43:20Z</time><name>PT660</name></trkpt>
<trkpt lat="53.244770" lon="-1.845652"><ele>284</ele><time>2019-08-30T09:43:20Z</time><name>PT661</name></trkpt>
<trkpt lat="53.244768" lon="-1.845662"><ele>284</ele><time>2019-08-30T09:43:21Z</time><name>PT662</name></trkpt>
<trkpt lat="53.244766" lon="-1.845674"><ele>284</ele><time>2019-08-30T09:43:23Z</time><name>PT663</name></trkpt>
<trkpt lat="53.244762" lon="-1.845682"><ele>284</ele><time>2019-08-30T09:43:23Z</time><name>PT664</name></trkpt>
<trkpt lat="53.244758" lon="-1.845687"><ele>284</ele><time>2019-08-30T09:43:24Z</time><name>PT665</name></trkpt>
<trkpt lat="53.244757" lon="-1.845692"><ele>285</ele><time>2019-08-30T09:43:26Z</time><name>PT666</name></trkpt>
<trkpt lat="53.244764" lon="-1.845717"><ele>287</ele><time>2019-08-30T09:43:35Z</time><name>PT667</name></trkpt>
<trkpt lat="53.244755" lon="-1.845717"><ele>287</ele><time>2019-08-30T09:43:35Z</time><name>PT668</name></trkpt>
<trkpt lat="53.244753" lon="-1.845726"><ele>287</ele><time>2019-08-30T09:43:36Z</time><name>PT669</name></trkpt>
<trkpt lat="53.244752" lon="-1.845727"><ele>287</ele><time>2019-08-30T09:43:45Z</time><name>PT670</name></trkpt>
<trkpt lat="53.244747" lon="-1.845733"><ele>287</ele><time>2019-08-30T09:43:47Z</time><name>PT671</name></trkpt>
<trkpt lat="53.244742" lon="-1.845744"><ele>287</ele><time>2019-08-30T09:43:47Z</time><name>PT672</name></trkpt>
<trkpt lat="53.244741" lon="-1.845757"><ele>287</ele><time>2019-08-30T09:43:48Z</time><name>PT673</name></trkpt>
<trkpt lat="53.244731" lon="-1.845763"><ele>288</ele><time>2019-08-30T09:43:50Z</time><name>PT674</name></trkpt>
<trkpt lat="53.244725" lon="-1.845775"><ele>288</ele><time>2019-08-30T09:43:50Z</time><name>PT675</name></trkpt>
<trkpt lat="53.244718" lon="-1.845785"><ele>288</ele><time>2019-08-30T09:43:51Z</time><name>PT676</name></trkpt>
<trkpt lat="53.244716" lon="-1.845801"><ele>288</ele><time>2019-08-30T09:43:52Z</time><name>PT677</name></trkpt>
<trkpt lat="53.244708" lon="-1.845813"><ele>289</ele><time>2019-08-30T09:43:53Z</time><name>PT678</name></trkpt>
<trkpt lat="53.244708" lon="-1.845825"><ele>290</ele><time>2019-08-30T09:43:54Z</time><name>PT679</name></trkpt>
<trkpt lat="53.244704" lon="-1.845836"><ele>290</ele><time>2019-08-30T09:43:56Z</time><name>PT680</name></trkpt>
<trkpt lat="53.244697" lon="-1.845844"><ele>290</ele><time>2019-08-30T09:43:56Z</time><name>PT681</name></trkpt>
<trkpt lat="53.244694" lon="-1.845855"><ele>291</ele><time>2019-08-30T09:43:57Z</time><name>PT682</name></trkpt>
<trkpt lat="53.244692" lon="-1.845863"><ele>292</ele><time>2019-08-30T09:43:58Z</time><name>PT683</name></trkpt>
<trkpt lat="53.244690" lon="-1.845868"><ele>293</ele><time>2019-08-30T09:43:59Z</time><name>PT684</name></trkpt>
<trkpt lat="53.244683" lon="-1.845874"><ele>293</ele><time>2019-08-30T09:44:00Z</time><name>PT685</name></trkpt>
<trkpt lat="53.244680" lon="-1.845885"><ele>293</ele><time>2019-08-30T09:44:02Z</time><name>PT686</name></trkpt>
<trkpt lat="53.244674" lon="-1.845895"><ele>293</ele><time>2019-08-30T09:44:02Z</time><name>PT687</name></trkpt>
<trkpt lat="53.244670" lon="-1.845914"><ele>294</ele><time>2019-08-30T09:44:03Z</time><name>PT688</name></trkpt>
<trkpt lat="53.244673" lon="-1.845925"><ele>294</ele><time>2019-08-30T09:44:05Z</time><name>PT689</name></trkpt>
<trkpt lat="53.244669" lon="-1.845934"><ele>294</ele><time>2019-08-30T09:44:05Z</time><name>PT690</name></trkpt>
<trkpt lat="53.244666" lon="-1.845944"><ele>295</ele><time>2019-08-30T09:44:06Z</time><name>PT691</name></trkpt>
<trkpt lat="53.244660" lon="-1.845954"><ele>295</ele><time>2019-08-30T09:44:08Z</time><name>PT692</name></trkpt>
<trkpt lat="53.244653" lon="-1.845964"><ele>295</ele><time>2019-08-30T09:44:08Z</time><name>PT693</name></trkpt>
<trkpt lat="53.244648" lon="-1.845974"><ele>295</ele><time>2019-08-30T09:44:09Z</time><name>PT694</name></trkpt>
<trkpt lat="53.244644" lon="-1.845987"><ele>296</ele><time>2019-08-30T09:44:11Z</time><name>PT695</name></trkpt>
<trkpt lat="53.244635" lon="-1.845995"><ele>294</ele><time>2019-08-30T09:44:11Z</time><name>PT696</name></trkpt>
<trkpt lat="53.244631" lon="-1.846003"><ele>294</ele><time>2019-08-30T09:44:12Z</time><name>PT697</name></trkpt>
<trkpt lat="53.244625" lon="-1.846014"><ele>294</ele><time>2019-08-30T09:44:14Z</time><name>PT698</name></trkpt>
<trkpt lat="53.244620" lon="-1.846017"><ele>293</ele><time>2019-08-30T09:44:14Z</time><name>PT699</name></trkpt>
<trkpt lat="53.244618" lon="-1.846028"><ele>294</ele><time>2019-08-30T09:44:15Z</time><name>PT700</name></trkpt>
<trkpt lat="53.244616" lon="-1.846035"><ele>295</ele><time>2019-08-30T09:44:17Z</time><name>PT701</name></trkpt>
<trkpt lat="53.244612" lon="-1.846043"><ele>295</ele><time>2019-08-30T09:44:17Z</time><name>PT702</name></trkpt>
<trkpt lat="53.244607" lon="-1.846047"><ele>295</ele><time>2019-08-30T09:44:18Z</time><name>PT703</name></trkpt>
<trkpt lat="53.244602" lon="-1.846052"><ele>295</ele><time>2019-08-30T09:44:20Z</time><name>PT704</name></trkpt>
<trkpt lat="53.244586" lon="-1.846055"><ele>295</ele><time>2019-08-30T09:44:20Z</time><name>PT705</name></trkpt>
<trkpt lat="53.244578" lon="-1.846061"><ele>294</ele><time>2019-08-30T09:44:21Z</time><name>PT706</name></trkpt>
<trkpt lat="53.244573" lon="-1.846071"><ele>295</ele><time>2019-08-30T09:44:23Z</time><name>PT707</name></trkpt>
<trkpt lat="53.244570" lon="-1.846081"><ele>296</ele><time>2019-08-30T09:44:23Z</time><name>PT708</name></trkpt>
<trkpt lat="53.244565" lon="-1.846090"><ele>296</ele><time>2019-08-30T09:44:24Z</time><name>PT709</name></trkpt>
<trkpt lat="53.244558" lon="-1.846101"><ele>296</ele><time>2019-08-30T09:44:26Z</time><name>PT710</name></trkpt>
<trkpt lat="53.244555" lon="-1.846114"><ele>297</ele><time>2019-08-30T09:44:26Z</time><name>PT711</name></trkpt>
<trkpt lat="53.244547" lon="-1.846122"><ele>298</ele><time>2019-08-30T09:44:27Z</time><name>PT712</name></trkpt>
<trkpt lat="53.244540" lon="-1.846123"><ele>297</ele><time>2019-08-30T09:44:29Z</time><name>PT713</name></trkpt>
<trkpt lat="53.244533" lon="-1.846128"><ele>298</ele><time>2019-08-30T09:44:29Z</time><name>PT714</name></trkpt>
<trkpt lat="53.244528" lon="-1.846130"><ele>298</ele><time>2019-08-30T09:44:30Z</time><name>PT715</name></trkpt>
<trkpt lat="53.244522" lon="-1.846130"><ele>298</ele><time>2019-08-30T09:44:32Z</time><name>PT716</name></trkpt>
<trkpt lat="53.244515" lon="-1.846133"><ele>298</ele><time>2019-08-30T09:44:32Z</time><name>PT717</name></trkpt>
<trkpt lat="53.244509" lon="-1.846142"><ele>298</ele><time>2019-08-30T09:44:33Z</time><name>PT718</name></trkpt>
<trkpt lat="53.244502" lon="-1.846151"><ele>299</ele><time>2019-08-30T09:44:35Z</time><name>PT719</name></trkpt>
<trkpt lat="53.244492" lon="-1.846156"><ele>299</ele><time>2019-08-30T09:44:35Z</time><name>PT720</name></trkpt>
<trkpt lat="53.244489" lon="-1.846168"><ele>300</ele><time>2019-08-30T09:44:36Z</time><name>PT721</name></trkpt>
<trkpt lat="53.244484" lon="-1.846181"><ele>301</ele><time>2019-08-30T09:44:38Z</time><name>PT722</name></trkpt>
<trkpt lat="53.244479" lon="-1.846189"><ele>302</ele><time>2019-08-30T09:44:38Z</time><name>PT723</name></trkpt>
<trkpt lat="53.244473" lon="-1.846198"><ele>302</ele><time>2019-08-30T09:44:39Z</time><name>PT724</name></trkpt>
<trkpt lat="53.244469" lon="-1.846208"><ele>302</ele><time>2019-08-30T09:44:41Z</time><name>PT725</name></trkpt>
<trkpt lat="53.244464" lon="-1.846224"><ele>302</ele><time>2019-08-30T09:44:41Z</time><name>PT726</name></trkpt>
<trkpt lat="53.244459" lon="-1.846236"><ele>303</ele><time>2019-08-30T09:44:42Z</time><name>PT727</name></trkpt>
<trkpt lat="53.244445" lon="-1.846262"><ele>301</ele><time>2019-08-30T09:44:44Z</time><name>PT728</name></trkpt>
<trkpt lat="53.244443" lon="-1.846277"><ele>301</ele><time>2019-08-30T09:44:44Z</time><name>PT729</name></trkpt>
<trkpt lat="53.244443" lon="-1.846286"><ele>302</ele><time>2019-08-30T09:44:45Z</time><name>PT730</name></trkpt>
<trkpt lat="53.244438" lon="-1.846291"><ele>302</ele><time>2019-08-30T09:44:47Z</time><name>PT731</name></trkpt>
<trkpt lat="53.244434" lon="-1.846300"><ele>301</ele><time>2019-08-30T09:44:47Z</time><name>PT732</name></trkpt>
<trkpt lat="53.244433" lon="-1.846309"><ele>302</ele><time>2019-08-30T09:44:48Z</time><name>PT733</name></trkpt>
<trkpt lat="53.244427" lon="-1.846318"><ele>302</ele><time>2019-08-30T09:44:50Z</time><name>PT734</name></trkpt>
<trkpt lat="53.244424" lon="-1.846323"><ele>302</ele><time>2019-08-30T09:44:50Z</time><name>PT735</name></trkpt>
<trkpt lat="53.244421" lon="-1.846332"><ele>302</ele><time>2019-08-30T09:44:51Z</time><name>PT736</name></trkpt>
<trkpt lat="53.244417" lon="-1.846341"><ele>302</ele><time>2019-08-30T09:44:53Z</time><name>PT737</name></trkpt>
<trkpt lat="53.244417" lon="-1.846341"><ele>302</ele><time>2019-08-30T09:44:53Z</time><name>PT738</name></trkpt>
<trkpt lat="53.244418" lon="-1.846342"><ele>303</ele><time>2019-08-30T09:44:54Z</time><name>PT739</name></trkpt>
<trkpt lat="53.244417" lon="-1.846349"><ele>303</ele><time>2019-08-30T09:44:56Z</time><name>PT740</name></trkpt>
<trkpt lat="53.244415" lon="-1.846355"><ele>302</ele><time>2019-08-30T09:44:56Z</time><name>PT741</name></trkpt>
<trkpt lat="53.244413" lon="-1.846358"><ele>302</ele><time>2019-08-30T09:44:57Z</time><name>PT742</name></trkpt>
<trkpt lat="53.244413" lon="-1.846365"><ele>303</ele><time>2019-08-30T09:44:59Z</time><name>PT743</name></trkpt>
<trkpt lat="53.244415" lon="-1.846367"><ele>303</ele><time>2019-08-30T09:45:17Z</time><name>PT744</name></trkpt>
<trkpt lat="53.244409" lon="-1.846371"><ele>303</ele><time>2019-08-30T09:45:18Z</time><name>PT745</name></trkpt>
<trkpt lat="53.244405" lon="-1.846370"><ele>303</ele><time>2019-08-30T09:45:20Z</time><name>PT746</name></trkpt>
<trkpt lat="53.244401" lon="-1.846370"><ele>303</ele><time>2019-08-30T09:45:20Z</time><name>PT747</name></trkpt>
<trkpt lat="53.244399" lon="-1.846368"><ele>303</ele><time>2019-08-30T09:45:21Z</time><name>PT748</name></trkpt>
<trkpt lat="53.244397" lon="-1.846359"><ele>303</ele><time>2019-08-30T09:45:23Z</time><name>PT749</name></trkpt>
<trkpt lat="53.244394" lon="-1.846354"><ele>303</ele><time>2019-08-30T09:45:23Z</time><name>PT750</name></trkpt>
<trkpt lat="53.244392" lon="-1.846353"><ele>303</ele><time>2019-08-30T09:45:24Z</time><name>PT751</name></trkpt>
<trkpt lat="53.244387" lon="-1.846342"><ele>303</ele><time>2019-08-30T09:45:26Z</time><name>PT752</name></trkpt>
<trkpt lat="53.244384" lon="-1.846330"><ele>304</ele><time>2019-08-30T09:45:26Z</time><name>PT753</name></trkpt>
<trkpt lat="53.244382" lon="-1.846325"><ele>305</ele><time>2019-08-30T09:45:27Z</time><name>PT754</name></trkpt>
<trkpt lat="53.244378" lon="-1.846319"><ele>305</ele><time>2019-08-30T09:45:29Z</time><name>PT755</name></trkpt>
<trkpt lat="53.244375" lon="-1.846314"><ele>305</ele><time>2019-08-30T09:45:29Z</time><name>PT756</name></trkpt>
<trkpt lat="53.244375" lon="-1.846313"><ele>306</ele><time>2019-08-30T09:45:30Z</time><name>PT757</name></trkpt>
<trkpt lat="53.244373" lon="-1.846312"><ele>305</ele><time>2019-08-30T09:45:32Z</time><name>PT758</name></trkpt>
<trkpt lat="53.244367" lon="-1.846307"><ele>306</ele><time>2019-08-30T09:45:50Z</time><name>PT759</name></trkpt>
<trkpt lat="53.244354" lon="-1.846302"><ele>306</ele><time>2019-08-30T09:45:50Z</time><name>PT760</name></trkpt>
<trkpt lat="53.244344" lon="-1.846285"><ele>305</ele><time>2019-08-30T09:45:51Z</time><name>PT761</name></trkpt>
<trkpt lat="53.244343" lon="-1.846282"><ele>305</ele><time>2019-08-30T09:45:53Z</time><name>PT762</name></trkpt>
<trkpt lat="53.244337" lon="-1.846279"><ele>306</ele><time>2019-08-30T09:45:53Z</time><name>PT763</name></trkpt>
<trkpt lat="53.244336" lon="-1.846277"><ele>306</ele><time>2019-08-30T09:45:54Z</time><name>PT764</name></trkpt>
<trkpt lat="53.244339" lon="-1.846275"><ele>306</ele><time>2019-08-30T09:45:56Z</time><name>PT765</name></trkpt>
<trkpt lat="53.244338" lon="-1.846271"><ele>306</ele><time>2019-08-30T09:45:56Z</time><name>PT766</name></trkpt>
<trkpt lat="53.244334" lon="-1.846267"><ele>308</ele><time>2019-08-30T09:45:57Z</time><name>PT767</name></trkpt>
<trkpt lat="53.244332" lon="-1.846273"><ele>308</ele><time>2019-08-30T09:45:59Z</time><name>PT768</name></trkpt>
<trkpt lat="53.244333" lon="-1.846272"><ele>308</ele><time>2019-08-30T09:45:59Z</time><name>PT769</name></trkpt>
<trkpt lat="53.244333" lon="-1.846275"><ele>308</ele><time>2019-08-30T09:46:03Z</time><name>PT770</name></trkpt>
<trkpt lat="53.244328" lon="-1.846278"><ele>308</ele><time>2019-08-30T09:46:05Z</time><name>PT771</name></trkpt>
<trkpt lat="53.244324" lon="-1.846277"><ele>308</ele><time>2019-08-30T09:46:05Z</time><name>PT772</name></trkpt>
<trkpt lat="53.244322" lon="-1.846279"><ele>307</ele><time>2019-08-30T09:46:06Z</time><name>PT773</name></trkpt>
<trkpt lat="53.244324" lon="-1.846288"><ele>307</ele><time>2019-08-30T09:46:20Z</time><name>PT774</name></trkpt>
<trkpt lat="53.244324" lon="-1.846289"><ele>307</ele><time>2019-08-30T09:46:20Z</time><name>PT775</name></trkpt>
<trkpt lat="53.244322" lon="-1.846291"><ele>307</ele><time>2019-08-30T09:46:21Z</time><name>PT776</name></trkpt>
<trkpt lat="53.244324" lon="-1.846292"><ele>307</ele><time>2019-08-30T09:46:23Z</time><name>PT777</name></trkpt>
<trkpt lat="53.244324" lon="-1.846292"><ele>307</ele><time>2019-08-30T09:46:23Z</time><name>PT778</name></trkpt>
<trkpt lat="53.244322" lon="-1.846291"><ele>307</ele><time>2019-08-30T09:46:24Z</time><name>PT779</name></trkpt>
<trkpt lat="53.244322" lon="-1.846290"><ele>307</ele><time>2019-08-30T09:46:26Z</time><name>PT780</name></trkpt>
<trkpt lat="53.244322" lon="-1.846288"><ele>307</ele><time>2019-08-30T09:46:26Z</time><name>PT781</name></trkpt>
<trkpt lat="53.244314" lon="-1.846282"><ele>307</ele><time>2019-08-30T09:46:41Z</time><name>PT782</name></trkpt>
<trkpt lat="53.244318" lon="-1.846284"><ele>307</ele><time>2019-08-30T09:46:42Z</time><name>PT783</name></trkpt>
<trkpt lat="53.244320" lon="-1.846282"><ele>307</ele><time>2019-08-30T09:46:44Z</time><name>PT784</name></trkpt>
<trkpt lat="53.244319" lon="-1.846279"><ele>308</ele><time>2019-08-30T09:46:44Z</time><name>PT785</name></trkpt>
<trkpt lat="53.244319" lon="-1.846279"><ele>308</ele><time>2019-08-30T09:46:45Z</time><name>PT786</name></trkpt>
<trkpt lat="53.244311" lon="-1.846283"><ele>308</ele><time>2019-08-30T09:46:53Z</time><name>PT787</name></trkpt>
<trkpt lat="53.244304" lon="-1.846293"><ele>308</ele><time>2019-08-30T09:46:54Z</time><name>PT788</name></trkpt>
<trkpt lat="53.244292" lon="-1.846291"><ele>308</ele><time>2019-08-30T09:46:56Z</time><name>PT789</name></trkpt>
<trkpt lat="53.244277" lon="-1.846288"><ele>309</ele><time>2019-08-30T09:46:56Z</time><name>PT790</name></trkpt>
<trkpt lat="53.244265" lon="-1.846301"><ele>309</ele><time>2019-08-30T09:46:57Z</time><name>PT791</name></trkpt>
<trkpt lat="53.244253" lon="-1.846305"><ele>309</ele><time>2019-08-30T09:46:59Z</time><name>PT792</name></trkpt>
<trkpt lat="53.244239" lon="-1.846312"><ele>309</ele><time>2019-08-30T09:46:59Z</time><name>PT793</name></trkpt>
<trkpt lat="53.244228" lon="-1.846316"><ele>309</ele><time>2019-08-30T09:47:00Z</time><name>PT794</name></trkpt>
<trkpt lat="53.244217" lon="-1.846321"><ele>309</ele><time>2019-08-30T09:47:02Z</time><name>PT795</name></trkpt>
<trkpt lat="53.244208" lon="-1.846327"><ele>309</ele><time>2019-08-30T09:47:02Z</time><name>PT796</name></trkpt>
<trkpt lat="53.244201" lon="-1.846334"><ele>309</ele><time>2019-08-30T09:47:03Z</time><name>PT797</name></trkpt>
<trkpt lat="53.244193" lon="-1.846335"><ele>310</ele><time>2019-08-30T09:47:05Z</time><name>PT798</name></trkpt>
<trkpt lat="53.244183" lon="-1.846339"><ele>310</ele><time>2019-08-30T09:47:05Z</time><name>PT799</name></trkpt>
<trkpt lat="53.244171" lon="-1.846344"><ele>310</ele><time>2019-08-30T09:47:06Z</time><name>PT800</name></trkpt>
<trkpt lat="53.244162" lon="-1.846347"><ele>310</ele><time>2019-08-30T09:47:08Z</time><name>PT801</name></trkpt>
<trkpt lat="53.244151" lon="-1.846351"><ele>311</ele><time>2019-08-30T09:47:08Z</time><name>PT802</name></trkpt>
<trkpt lat="53.244141" lon="-1.846355"><ele>311</ele><time>2019-08-30T09:47:09Z</time><name>PT803</name></trkpt>
<trkpt lat="53.244131" lon="-1.846360"><ele>311</ele><time>2019-08-30T09:47:11Z</time><name>PT804</name></trkpt>
<trkpt lat="53.244119" lon="-1.846365"><ele>311</ele><time>2019-08-30T09:47:11Z</time><name>PT805</name></trkpt>
<trkpt lat="53.244110" lon="-1.846371"><ele>311</ele><time>2019-08-30T09:47:12Z</time><name>PT806</name></trkpt>
<trkpt lat="53.244099" lon="-1.846378"><ele>311</ele><time>2019-08-30T09:47:14Z</time><name>PT807</name></trkpt>
<trkpt lat="53.244089" lon="-1.846382"><ele>311</ele><time>2019-08-30T09:47:14Z</time><name>PT808</name></trkpt>
<trkpt lat="53.244079" lon="-1.846385"><ele>311</ele><time>2019-08-30T09:47:15Z</time><name>PT809</name></trkpt>
<trkpt lat="53.244068" lon="-1.846392"><ele>312</ele><time>2019-08-30T09:47:17Z</time><name>PT810</name></trkpt>
<trkpt lat="53.244055" lon="-1.846399"><ele>312</ele><time>2019-08-30T09:47:17Z</time><name>PT811</name></trkpt>
<trkpt lat="53.244044" lon="-1.846406"><ele>313</ele><time>2019-08-30T09:47:18Z</time><name>PT812</name></trkpt>
<trkpt lat="53.244033" lon="-1.846410"><ele>313</ele><time>2019-08-30T09:47:20Z</time><name>PT813</name></trkpt>
<trkpt lat="53.244022" lon="-1.846417"><ele>313</ele><time>2019-08-30T09:47:20Z</time><name>PT814</name></trkpt>
<trkpt lat="53.244011" lon="-1.846429"><ele>312</ele><time>2019-08-30T09:47:21Z</time><name>PT815</name></trkpt>
<trkpt lat="53.244001" lon="-1.846438"><ele>313</ele><time>2019-08-30T09:47:23Z</time><name>PT816</name></trkpt>
<trkpt lat="53.243991" lon="-1.846446"><ele>313</ele><time>2019-08-30T09:47:23Z</time><name>PT817</name></trkpt>
<trkpt lat="53.243982" lon="-1.846452"><ele>313</ele><time>2019-08-30T09:47:24Z</time><name>PT818</name></trkpt>
<trkpt lat="53.243973" lon="-1.846458"><ele>313</ele><time>2019-08-30T09:47:26Z</time><name>PT819</name></trkpt>
<trkpt lat="53.243963" lon="-1.846466"><ele>313</ele><time>2019-08-30T09:47:26Z</time><name>PT820</name></trkpt>
<trkpt lat="53.243953" lon="-1.846476"><ele>313</ele><time>2019-08-30T09:47:27Z</time><name>PT821</name></trkpt>
<trkpt lat="53.243944" lon="-1.846486"><ele>313</ele><time>2019-08-30T09:47:29Z</time><name>PT822</name></trkpt>
<trkpt lat="53.243935" lon="-1.846495"><ele>314</ele><time>2019-08-30T09:47:29Z</time><name>PT823</name></trkpt>
<trkpt lat="53.243925" lon="-1.846502"><ele>314</ele><time>2019-08-30T09:47:30Z</time><name>PT824</name></trkpt>
<trkpt lat="53.243913" lon="-1.846509"><ele>314</ele><time>2019-08-30T09:47:32Z</time><name>PT825</name></trkpt>
<trkpt lat="53.243903" lon="-1.846518"><ele>314</ele><time>2019-08-30T09:47:32Z</time><name>PT826</name></trkpt>
<trkpt lat="53.243894" lon="-1.846526"><ele>314</ele><time>2019-08-30T09:47:33Z</time><name>PT827</name></trkpt>
<trkpt lat="53.243884" lon="-1.846534"><ele>314</ele><time>2019-08-30T09:47:35Z</time><name>PT828</name></trkpt>
<trkpt lat="53.243874" lon="-1.846539"><ele>314</ele><time>2019-08-30T09:47:35Z</time><name>PT829</name></trkpt>
<trkpt lat="53.243864" lon="-1.846545"><ele>314</ele><time>2019-08-30T09:47:36Z</time><name>PT830</name></trkpt>
<trkpt lat="53.243854" lon="-1.846551"><ele>314</ele><time>2019-08-30T09:47:38Z</time><name>PT831</name></trkpt>
<trkpt lat="53.243845" lon="-1.846557"><ele>314</ele><time>2019-08-30T09:47:38Z</time><name>PT832</name></trkpt>
<trkpt lat="53.243834" lon="-1.846561"><ele>314</ele><time>2019-08-30T09:47:39Z</time><name>PT833</name></trkpt>
<trkpt lat="53.243823" lon="-1.846566"><ele>314</ele><time>2019-08-30T09:47:41Z</time><name>PT834</name></trkpt>
<trkpt lat="53.243811" lon="-1.846571"><ele>314</ele><time>2019-08-30T09:47:41Z</time><name>PT835</name></trkpt>
<trkpt lat="53.243800" lon="-1.846579"><ele>314</ele><time>2019-08-30T09:47:42Z</time><name>PT836</name></trkpt>
<trkpt lat="53.243786" lon="-1.846587"><ele>314</ele><time>2019-08-30T09:47:44Z</time><name>PT837</name></trkpt>
<trkpt lat="53.243774" lon="-1.846592"><ele>313</ele><time>2019-08-30T09:47:44Z</time><name>PT838</name></trkpt>
<trkpt lat="53.243762" lon="-1.846597"><ele>313</ele><time>2019-08-30T09:47:45Z</time><name>PT839</name></trkpt>
<trkpt lat="53.243750" lon="-1.846602"><ele>313</ele><time>2019-08-30T09:47:47Z</time><name>PT840</name></trkpt>
<trkpt lat="53.243739" lon="-1.846608"><ele>313</ele><time>2019-08-30T09:47:47Z</time><name>PT841</name></trkpt>
<trkpt lat="53.243729" lon="-1.846614"><ele>314</ele><time>2019-08-30T09:47:48Z</time><name>PT842</name></trkpt>
<trkpt lat="53.243718" lon="-1.846622"><ele>314</ele><time>2019-08-30T09:47:50Z</time><name>PT843</name></trkpt>
<trkpt lat="53.243705" lon="-1.846632"><ele>314</ele><time>2019-08-30T09:47:50Z</time><name>PT844</name></trkpt>
<trkpt lat="53.243696" lon="-1.846639"><ele>314</ele><time>2019-08-30T09:47:51Z</time><name>PT845</name></trkpt>
<trkpt lat="53.243689" lon="-1.846649"><ele>314</ele><time>2019-08-30T09:47:53Z</time><name>PT846</name></trkpt>
<trkpt lat="53.243682" lon="-1.846656"><ele>314</ele><time>2019-08-30T09:47:53Z</time><name>PT847</name></trkpt>
<trkpt lat="53.243671" lon="-1.846662"><ele>314</ele><time>2019-08-30T09:47:54Z</time><name>PT848</name></trkpt>
<trkpt lat="53.243662" lon="-1.846666"><ele>315</ele><time>2019-08-30T09:47:56Z</time><name>PT849</name></trkpt>
<trkpt lat="53.243651" lon="-1.846674"><ele>315</ele><time>2019-08-30T09:47:56Z</time><name>PT850</name></trkpt>
<trkpt lat="53.243641" lon="-1.846681"><ele>315</ele><time>2019-08-30T09:47:57Z</time><name>PT851</name></trkpt>
<trkpt lat="53.243632" lon="-1.846688"><ele>316</ele><time>2019-08-30T09:47:59Z</time><name>PT852</name></trkpt>
<trkpt lat="53.243620" lon="-1.846694"><ele>316</ele><time>2019-08-30T09:47:59Z</time><name>PT853</name></trkpt>
<trkpt lat="53.243610" lon="-1.846702"><ele>316</ele><time>2019-08-30T09:48:00Z</time><name>PT854</name></trkpt>
<trkpt lat="53.243600" lon="-1.846709"><ele>316</ele><time>2019-08-30T09:48:02Z</time><name>PT855</name></trkpt>
<trkpt lat="53.243590" lon="-1.846719"><ele>317</ele><time>2019-08-30T09:48:02Z</time><name>PT856</name></trkpt>
<trkpt lat="53.243579" lon="-1.846728"><ele>317</ele><time>2019-08-30T09:48:03Z</time><name>PT857</name></trkpt>
<trkpt lat="53.243569" lon="-1.846737"><ele>317</ele><time>2019-08-30T09:48:05Z</time><name>PT858</name></trkpt>
<trkpt lat="53.243559" lon="-1.846746"><ele>317</ele><time>2019-08-30T09:48:05Z</time><name>PT859</name></trkpt>
<trkpt lat="53.243550" lon="-1.846754"><ele>317</ele><time>2019-08-30T09:48:06Z</time><name>PT860</name></trkpt>
<trkpt lat="53.243538" lon="-1.846765"><ele>317</ele><time>2019-08-30T09:48:08Z</time><name>PT861</name></trkpt>
<trkpt lat="53.243526" lon="-1.846776"><ele>318</ele><time>2019-08-30T09:48:08Z</time><name>PT862</name></trkpt>
<trkpt lat="53.243516" lon="-1.846784"><ele>318</ele><time>2019-08-30T09:48:09Z</time><name>PT863</name></trkpt>
<trkpt lat="53.243504" lon="-1.846792"><ele>318</ele><time>2019-08-30T09:48:11Z</time><name>PT864</name></trkpt>
<trkpt lat="53.243493" lon="-1.846800"><ele>318</ele><time>2019-08-30T09:48:11Z</time><name>PT865</name></trkpt>
<trkpt lat="53.243483" lon="-1.846807"><ele>318</ele><time>2019-08-30T09:48:12Z</time><name>PT866</name></trkpt>
<trkpt lat="53.243474" lon="-1.846817"><ele>318</ele><time>2019-08-30T09:48:14Z</time><name>PT867</name></trkpt>
<trkpt lat="53.243465" lon="-1.846824"><ele>318</ele><time>2019-08-30T09:48:14Z</time><name>PT868</name></trkpt>
<trkpt lat="53.243455" lon="-1.846831"><ele>318</ele><time>2019-08-30T09:48:15Z</time><name>PT869</name></trkpt>
<trkpt lat="53.243442" lon="-1.846837"><ele>318</ele><time>2019-08-30T09:48:17Z</time><name>PT870</name></trkpt>
<trkpt lat="53.243431" lon="-1.846845"><ele>318</ele><time>2019-08-30T09:48:17Z</time><name>PT871</name></trkpt>
<trkpt lat="53.243421" lon="-1.846851"><ele>317</ele><time>2019-08-30T09:48:18Z</time><name>PT872</name></trkpt>
<trkpt lat="53.243411" lon="-1.846858"><ele>317</ele><time>2019-08-30T09:48:20Z</time><name>PT873</name></trkpt>
<trkpt lat="53.243400" lon="-1.846867"><ele>317</ele><time>2019-08-30T09:48:20Z</time><name>PT874</name></trkpt>
<trkpt lat="53.243390" lon="-1.846875"><ele>317</ele><time>2019-08-30T09:48:21Z</time><name>PT875</name></trkpt>
<trkpt lat="53.243380" lon="-1.846883"><ele>317</ele><time>2019-08-30T09:48:23Z</time><name>PT876</name></trkpt>
<trkpt lat="53.243370" lon="-1.846891"><ele>317</ele><time>2019-08-30T09:48:23Z</time><name>PT877</name></trkpt>
<trkpt lat="53.243361" lon="-1.846898"><ele>318</ele><time>2019-08-30T09:48:24Z</time><name>PT878</name></trkpt>
<trkpt lat="53.243349" lon="-1.846905"><ele>318</ele><time>2019-08-30T09:48:26Z</time><name>PT879</name></trkpt>
<trkpt lat="53.243340" lon="-1.846910"><ele>318</ele><time>2019-08-30T09:48:26Z</time><name>PT880</name></trkpt>
<trkpt lat="53.243331" lon="-1.846919"><ele>318</ele><time>2019-08-30T09:48:27Z</time><name>PT881</name></trkpt>
<trkpt lat="53.243321" lon="-1.846928"><ele>318</ele><time>2019-08-30T09:48:29Z</time><name>PT882</name></trkpt>
<trkpt lat="53.243311" lon="-1.846935"><ele>318</ele><time>2019-08-30T09:48:29Z</time><name>PT883</name></trkpt>
<trkpt lat="53.243301" lon="-1.846940"><ele>318</ele><time>2019-08-30T09:48:30Z</time><name>PT884</name></trkpt>
<trkpt lat="53.243290" lon="-1.846948"><ele>318</ele><time>2019-08-30T09:48:32Z</time><name>PT885</name></trkpt>
<trkpt lat="53.243280" lon="-1.846956"><ele>319</ele><time>2019-08-30T09:48:32Z</time><name>PT886</name></trkpt>
<trkpt lat="53.243269" lon="-1.846963"><ele>319</ele><time>2019-08-30T09:48:33Z</time><name>PT887</name></trkpt>
<trkpt lat="53.243257" lon="-1.846969"><ele>319</ele><time>2019-08-30T09:48:35Z</time><name>PT888</name></trkpt>
<trkpt lat="53.243243" lon="-1.846981"><ele>319</ele><time>2019-08-30T09:48:35Z</time><name>PT889</name></trkpt>
<trkpt lat="53.243233" lon="-1.846990"><ele>319</ele><time>2019-08-30T09:48:36Z</time><name>PT890</name></trkpt>
<trkpt lat="53.243225" lon="-1.846999"><ele>319</ele><time>2019-08-30T09:48:38Z</time><name>PT891</name></trkpt>
<trkpt lat="53.243216" lon="-1.847007"><ele>319</ele><time>2019-08-30T09:48:38Z</time><name>PT892</name></trkpt>
<trkpt lat="53.243207" lon="-1.847013"><ele>319</ele><time>2019-08-30T09:48:39Z</time><name>PT893</name></trkpt>
<trkpt lat="53.243195" lon="-1.847021"><ele>320</ele><time>2019-08-30T09:48:41Z</time><name>PT894</name></trkpt>
<trkpt lat="53.243186" lon="-1.847030"><ele>320</ele><time>2019-08-30T09:48:41Z</time><name>PT895</name></trkpt>
<trkpt lat="53.243178" lon="-1.847036"><ele>320</ele><time>2019-08-30T09:48:42Z</time><name>PT896</name></trkpt>
<trkpt lat="53.243169" lon="-1.847042"><ele>320</ele><time>2019-08-30T09:48:44Z</time><name>PT897</name></trkpt>
<trkpt lat="53.243161" lon="-1.847049"><ele>320</ele><time>2019-08-30T09:48:44Z</time><name>PT898</name></trkpt>
<trkpt lat="53.243152" lon="-1.847058"><ele>320</ele><time>2019-08-30T09:48:45Z</time><name>PT899</name></trkpt>
<trkpt lat="53.243141" lon="-1.847067"><ele>320</ele><time>2019-08-30T09:48:47Z</time><name>PT900</name></trkpt>
<trkpt lat="53.243131" lon="-1.847076"><ele>320</ele><time>2019-08-30T09:48:47Z</time><name>PT901</name></trkpt>
<trkpt lat="53.243121" lon="-1.847083"><ele>321</ele><time>2019-08-30T09:48:48Z</time><name>PT902</name></trkpt>
<trkpt lat="53.243111" lon="-1.847089"><ele>321</ele><time>2019-08-30T09:48:50Z</time><name>PT903</name></trkpt>
<trkpt lat="53.243103" lon="-1.847094"><ele>321</ele><time>2019-08-30T09:48:50Z</time><name>PT904</name></trkpt>
<trkpt lat="53.243093" lon="-1.847105"><ele>321</ele><time>2019-08-30T09:48:51Z</time><name>PT905</name></trkpt>
<trkpt lat="53.243081" lon="-1.847114"><ele>321</ele><time>2019-08-30T09:48:53Z</time><name>PT906</name></trkpt>
<trkpt lat="53.243070" lon="-1.847121"><ele>321</ele><time>2019-08-30T09:48:53Z</time><name>PT907</name></trkpt>
<trkpt lat="53.243059" lon="-1.847129"><ele>322</ele><time>2019-08-30T09:48:54Z</time><name>PT908</name></trkpt>
<trkpt lat="53.243048" lon="-1.847136"><ele>322</ele><time>2019-08-30T09:48:56Z</time><name>PT909</name></trkpt>
<trkpt lat="53.243038" lon="-1.847147"><ele>322</ele><time>2019-08-30T09:48:56Z</time><name>PT910</name></trkpt>
<trkpt lat="53.243026" lon="-1.847160"><ele>322</ele><time>2019-08-30T09:48:57Z</time><name>PT911</name></trkpt>
<trkpt lat="53.243015" lon="-1.847168"><ele>322</ele><time>2019-08-30T09:48:59Z</time><name>PT912</name></trkpt>
<trkpt lat="53.243003" lon="-1.847180"><ele>322</ele><time>2019-08-30T09:48:59Z</time><name>PT913</name></trkpt>
<trkpt lat="53.242992" lon="-1.847188"><ele>322</ele><time>2019-08-30T09:49:00Z</time><name>PT914</name></trkpt>
<trkpt lat="53.242980" lon="-1.847199"><ele>322</ele><time>2019-08-30T09:49:02Z</time><name>PT915</name></trkpt>
<trkpt lat="53.242970" lon="-1.847212"><ele>322</ele><time>2019-08-30T09:49:02Z</time><name>PT916</name></trkpt>
<trkpt lat="53.242960" lon="-1.847223"><ele>322</ele><time>2019-08-30T09:49:03Z</time><name>PT917</name></trkpt>
<trkpt lat="53.242950" lon="-1.847232"><ele>322</ele><time>2019-08-30T09:49:05Z</time><name>PT918</name></trkpt>
<trkpt lat="53.242939" lon="-1.847241"><ele>322</ele><time>2019-08-30T09:49:05Z</time><name>PT919</name></trkpt>
<trkpt lat="53.242930" lon="-1.847249"><ele>322</ele><time>2019-08-30T09:49:06Z</time><name>PT920</name></trkpt>
<trkpt lat="53.242921" lon="-1.847259"><ele>322</ele><time>2019-08-30T09:49:08Z</time><name>PT921</name></trkpt>
<trkpt lat="53.242915" lon="-1.847269"><ele>323</ele><time>2019-08-30T09:49:08Z</time><name>PT922</name></trkpt>
<trkpt lat="53.242906" lon="-1.847277"><ele>323</ele><time>2019-08-30T09:49:09Z</time><name>PT923</name></trkpt>
<trkpt lat="53.242896" lon="-1.847286"><ele>323</ele><time>2019-08-30T09:49:11Z</time><name>PT924</name></trkpt>
<trkpt lat="53.242889" lon="-1.847295"><ele>324</ele><time>2019-08-30T09:49:11Z</time><name>PT925</name></trkpt>
<trkpt lat="53.242881" lon="-1.847300"><ele>325</ele><time>2019-08-30T09:49:12Z</time><name>PT926</name></trkpt>
<trkpt lat="53.242873" lon="-1.847308"><ele>325</ele><time>2019-08-30T09:49:14Z</time><name>PT927</name></trkpt>
<trkpt lat="53.242865" lon="-1.847316"><ele>327</ele><time>2019-08-30T09:49:14Z</time><name>PT928</name></trkpt>
<trkpt lat="53.242855" lon="-1.847325"><ele>327</ele><time>2019-08-30T09:49:15Z</time><name>PT929</name></trkpt>
<trkpt lat="53.242846" lon="-1.847335"><ele>327</ele><time>2019-08-30T09:49:17Z</time><name>PT930</name></trkpt>
<trkpt lat="53.242838" lon="-1.847344"><ele>327</ele><time>2019-08-30T09:49:17Z</time><name>PT931</name></trkpt>
<trkpt lat="53.242829" lon="-1.847353"><ele>327</ele><time>2019-08-30T09:49:18Z</time><name>PT932</name></trkpt>
<trkpt lat="53.242818" lon="-1.847364"><ele>327</ele><time>2019-08-30T09:49:20Z</time><name>PT933</name></trkpt>
<trkpt lat="53.242808" lon="-1.847373"><ele>327</ele><time>2019-08-30T09:49:20Z</time><name>PT934</name></trkpt>
<trkpt lat="53.242798" lon="-1.847381"><ele>328</ele><time>2019-08-30T09:49:21Z</time><name>PT935</name></trkpt>
<trkpt lat="53.242788" lon="-1.847388"><ele>327</ele><time>2019-08-30T09:49:23Z</time><name>PT936</name></trkpt>
<trkpt lat="53.242780" lon="-1.847395"><ele>328</ele><time>2019-08-30T09:49:23Z</time><name>PT937</name></trkpt>
<trkpt lat="53.242772" lon="-1.847402"><ele>328</ele><time>2019-08-30T09:49:24Z</time><name>PT938</name></trkpt>
<trkpt lat="53.242764" lon="-1.847409"><ele>327</ele><time>2019-08-30T09:49:26Z</time><name>PT939</name></trkpt>
<trkpt lat="53.242754" lon="-1.847417"><ele>327</ele><time>2019-08-30T09:49:26Z</time><name>PT940</name></trkpt>
<trkpt lat="53.242743" lon="-1.847424"><ele>328</ele><time>2019-08-30T09:49:27Z</time><name>PT941</name></trkpt>
<trkpt lat="53.242736" lon="-1.847431"><ele>328</ele><time>2019-08-30T09:49:29Z</time><name>PT942</name></trkpt>
<trkpt lat="53.242727" lon="-1.847437"><ele>328</ele><time>2019-08-30T09:49:29Z</time><name>PT943</name></trkpt>
<trkpt lat="53.242719" lon="-1.847445"><ele>328</ele><time>2019-08-30T09:49:30Z</time><name>PT944</name></trkpt>
<trkpt lat="53.242710" lon="-1.847451"><ele>328</ele><time>2019-08-30T09:49:32Z</time><name>PT945</name></trkpt>
<trkpt lat="53.242701" lon="-1.847459"><ele>328</ele><time>2019-08-30T09:49:32Z</time><name>PT946</name></trkpt>
<trkpt lat="53.242694" lon="-1.847464"><ele>328</ele><time>2019-08-30T09:49:33Z</time><name>PT947</name></trkpt>
<trkpt lat="53.242685" lon="-1.847470"><ele>328</ele><time>2019-08-30T09:49:35Z</time><name>PT948</name></trkpt>
<trkpt lat="53.242673" lon="-1.847477"><ele>328</ele><time>2019-08-30T09:49:35Z</time><name>PT949</name></trkpt>
<trkpt lat="53.242663" lon="-1.847484"><ele>328</ele><time>2019-08-30T09:49:36Z</time><name>PT950</name></trkpt>
<trkpt lat="53.242654" lon="-1.847491"><ele>328</ele><time>2019-08-30T09:49:38Z</time><name>PT951</name></trkpt>
<trkpt lat="53.242644" lon="-1.847497"><ele>329</ele><time>2019-08-30T09:49:38Z</time><name>PT952</name></trkpt>
<trkpt lat="53.242634" lon="-1.847501"><ele>328</ele><time>2019-08-30T09:49:39Z</time><name>PT953</name></trkpt>
<trkpt lat="53.242623" lon="-1.847507"><ele>329</ele><time>2019-08-30T09:49:41Z</time><name>PT954</name></trkpt>
<trkpt lat="53.242613" lon="-1.847515"><ele>329</ele><time>2019-08-30T09:49:41Z</time><name>PT955</name></trkpt>
<trkpt lat="53.242608" lon="-1.847519"><ele>329</ele><time>2019-08-30T09:49:42Z</time><name>PT956</name></trkpt>
<trkpt lat="53.242599" lon="-1.847527"><ele>329</ele><time>2019-08-30T09:49:44Z</time><name>PT957</name></trkpt>
<trkpt lat="53.242590" lon="-1.847534"><ele>329</ele><time>2019-08-30T09:49:44Z</time><name>PT958</name></trkpt>
<trkpt lat="53.242580" lon="-1.847539"><ele>328</ele><time>2019-08-30T09:49:45Z</time><name>PT959</name></trkpt>
<trkpt lat="53.242572" lon="-1.847547"><ele>328</ele><time>2019-08-30T09:49:47Z</time><name>PT960</name></trkpt>
<trkpt lat="53.242564" lon="-1.847558"><ele>327</ele><time>2019-08-30T09:49:47Z</time><name>PT961</name></trkpt>
<trkpt lat="53.242557" lon="-1.847566"><ele>327</ele><time>2019-08-30T09:49:48Z</time><name>PT962</name></trkpt>
<trkpt lat="53.242549" lon="-1.847574"><ele>328</ele><time>2019-08-30T09:49:50Z</time><name>PT963</name></trkpt>
<trkpt lat="53.242541" lon="-1.847583"><ele>327</ele><time>2019-08-30T09:49:50Z</time><name>PT964</name></trkpt>
<trkpt lat="53.242532" lon="-1.847591"><ele>327</ele><time>2019-08-30T09:49:51Z</time><name>PT965</name></trkpt>
<trkpt lat="53.242524" lon="-1.847600"><ele>327</ele><time>2019-08-30T09:49:53Z</time><name>PT966</name></trkpt>
<trkpt lat="53.242514" lon="-1.847607"><ele>327</ele><time>2019-08-30T09:49:53Z</time><name>PT967</name></trkpt>
<trkpt lat="53.242505" lon="-1.847615"><ele>328</ele><time>2019-08-30T09:49:54Z</time><name>PT968</name></trkpt>
<trkpt lat="53.242498" lon="-1.847627"><ele>327</ele><time>2019-08-30T09:49:56Z</time><name>PT969</name></trkpt>
<trkpt lat="53.242492" lon="-1.847635"><ele>327</ele><time>2019-08-30T09:49:56Z</time><name>PT970</name></trkpt>
<trkpt lat="53.242488" lon="-1.847639"><ele>327</ele><time>2019-08-30T09:49:57Z</time><name>PT971</name></trkpt>
<trkpt lat="53.242486" lon="-1.847644"><ele>327</ele><time>2019-08-30T09:49:59Z</time><name>PT972</name></trkpt>
<trkpt lat="53.242484" lon="-1.847646"><ele>327</ele><time>2019-08-30T09:49:59Z</time><name>PT973</name></trkpt>
<trkpt lat="53.242482" lon="-1.847645"><ele>327</ele><time>2019-08-30T09:50:00Z</time><name>PT974</name></trkpt>
<trkpt lat="53.242481" lon="-1.847653"><ele>328</ele><time>2019-08-30T09:50:02Z</time><name>PT975</name></trkpt>
<trkpt lat="53.242480" lon="-1.847656"><ele>328</ele><time>2019-08-30T09:50:02Z</time><name>PT976</name></trkpt>
<trkpt lat="53.242481" lon="-1.847657"><ele>327</ele><time>2019-08-30T09:50:03Z</time><name>PT977</name></trkpt>
<trkpt lat="53.242483" lon="-1.847660"><ele>327</ele><time>2019-08-30T09:50:05Z</time><name>PT978</name></trkpt>
<trkpt lat="53.242483" lon="-1.847665"><ele>327</ele><time>2019-08-30T09:50:08Z</time><name>PT979</name></trkpt>
<trkpt lat="53.242480" lon="-1.847673"><ele>327</ele><time>2019-08-30T09:50:08Z</time><name>PT980</name></trkpt>
<trkpt lat="53.242477" lon="-1.847685"><ele>327</ele><time>2019-08-30T09:50:09Z</time><name>PT981</name></trkpt>
<trkpt lat="53.242477" lon="-1.847689"><ele>327</ele><time>2019-08-30T09:50:11Z</time><name>PT982</name></trkpt>
<trkpt lat="53.242479" lon="-1.847687"><ele>327</ele><time>2019-08-30T09:50:11Z</time><name>PT983</name></trkpt>
<trkpt lat="53.242478" lon="-1.847690"><ele>327</ele><time>2019-08-30T09:50:12Z</time><name>PT984</name></trkpt>
<trkpt lat="53.242477" lon="-1.847692"><ele>327</ele><time>2019-08-30T09:50:14Z</time><name>PT985</name></trkpt>
<trkpt lat="53.242473" lon="-1.847697"><ele>327</ele><time>2019-08-30T09:50:14Z</time><name>PT986</name></trkpt>
<trkpt lat="53.242475" lon="-1.847699"><ele>327</ele><time>2019-08-30T09:50:17Z</time><name>PT987</name></trkpt>
<trkpt lat="53.242474" lon="-1.847702"><ele>327</ele><time>2019-08-30T09:50:18Z</time><name>PT988</name></trkpt>
<trkpt lat="53.242475" lon="-1.847696"><ele>327</ele><time>2019-08-30T09:50:20Z</time><name>PT989</name></trkpt>
<trkpt lat="53.242476" lon="-1.847687"><ele>327</ele><time>2019-08-30T09:50:20Z</time><name>PT990</name></trkpt>
<trkpt lat="53.242477" lon="-1.847683"><ele>327</ele><time>2019-08-30T09:50:21Z</time><name>PT991</name></trkpt>
<trkpt lat="53.242468" lon="-1.847693"><ele>328</ele><time>2019-08-30T09:50:35Z</time><name>PT992</name></trkpt>
<trkpt lat="53.242458" lon="-1.847702"><ele>328</ele><time>2019-08-30T09:50:36Z</time><name>PT993</name></trkpt>
<trkpt lat="53.242451" lon="-1.847706"><ele>328</ele><time>2019-08-30T09:50:38Z</time><name>PT994</name></trkpt>
<trkpt lat="53.242444" lon="-1.847709"><ele>327</ele><time>2019-08-30T09:50:38Z</time><name>PT995</name></trkpt>
<trkpt lat="53.242436" lon="-1.847708"><ele>327</ele><time>2019-08-30T09:50:39Z</time><name>PT996</name></trkpt>
<trkpt lat="53.242427" lon="-1.847709"><ele>327</ele><time>2019-08-30T09:50:41Z</time><name>PT997</name></trkpt>
<trkpt lat="53.242419" lon="-1.847716"><ele>327</ele><time>2019-08-30T09:50:41Z</time><name>PT998</name></trkpt>
<trkpt lat="53.242411" lon="-1.847719"><ele>327</ele><time>2019-08-30T09:50:42Z</time><name>PT999</name></trkpt>
<trkpt lat="53.242403" lon="-1.847718"><ele>327</ele><time>2019-08-30T09:50:44Z</time><name>PT1000</name></trkpt>
<trkpt lat="53.242393" lon="-1.847715"><ele>327</ele><time>2019-08-30T09:50:44Z</time><name>PT1001</name></trkpt>
<trkpt lat="53.242384" lon="-1.847713"><ele>327</ele><time>2019-08-30T09:50:45Z</time><name>PT1002</name></trkpt>
<trkpt lat="53.242376" lon="-1.847715"><ele>327</ele><time>2019-08-30T09:50:47Z</time><name>PT1003</name></trkpt>
<trkpt lat="53.242366" lon="-1.847716"><ele>327</ele><time>2019-08-30T09:50:47Z</time><name>PT1004</name></trkpt>
<trkpt lat="53.242357" lon="-1.847711"><ele>328</ele><time>2019-08-30T09:50:48Z</time><name>PT1005</name></trkpt>
<trkpt lat="53.242347" lon="-1.847707"><ele>328</ele><time>2019-08-30T09:50:50Z</time><name>PT1006</name></trkpt>
<trkpt lat="53.242341" lon="-1.847703"><ele>327</ele><time>2019-08-30T09:50:50Z</time><name>PT1007</name></trkpt>
<trkpt lat="53.242333" lon="-1.847704"><ele>327</ele><time>2019-08-30T09:50:51Z</time><name>PT1008</name></trkpt>
<trkpt lat="53.242323" lon="-1.847706"><ele>328</ele><time>2019-08-30T09:50:53Z</time><name>PT1009</name></trkpt>
<trkpt lat="53.242314" lon="-1.847703"><ele>327</ele><time>2019-08-30T09:50:53Z</time><name>PT1010</name></trkpt>
<trkpt lat="53.242305" lon="-1.847704"><ele>327</ele><time>2019-08-30T09:50:54Z</time><name>PT1011</name></trkpt>
<trkpt lat="53.242295" lon="-1.847705"><ele>327</ele><time>2019-08-30T09:50:55Z</time><name>PT1012</name></trkpt>
<trkpt lat="53.242282" lon="-1.847704"><ele>327</ele><time>2019-08-30T09:50:56Z</time><name>PT1013</name></trkpt>
<trkpt lat="53.242271" lon="-1.847703"><ele>327</ele><time>2019-08-30T09:50:57Z</time><name>PT1014</name></trkpt>
<trkpt lat="53.242263" lon="-1.847702"><ele>327</ele><time>2019-08-30T09:50:58Z</time><name>PT1015</name></trkpt>
<trkpt lat="53.242254" lon="-1.847698"><ele>327</ele><time>2019-08-30T09:50:59Z</time><name>PT1016</name></trkpt>
<trkpt lat="53.242243" lon="-1.847697"><ele>327</ele><time>2019-08-30T09:51:00Z</time><name>PT1017</name></trkpt>
<trkpt lat="53.242231" lon="-1.847697"><ele>328</ele><time>2019-08-30T09:51:01Z</time><name>PT1018</name></trkpt>
<trkpt lat="53.242220" lon="-1.847697"><ele>328</ele><time>2019-08-30T09:51:02Z</time><name>PT1019</name></trkpt>
<trkpt lat="53.242208" lon="-1.847700"><ele>328</ele><time>2019-08-30T09:51:03Z</time><name>PT1020</name></trkpt>
<trkpt lat="53.242197" lon="-1.847701"><ele>327</ele><time>2019-08-30T09:51:05Z</time><name>PT1021</name></trkpt>
<trkpt lat="53.242183" lon="-1.847698"><ele>327</ele><time>2019-08-30T09:51:05Z</time><name>PT1022</name></trkpt>
<trkpt lat="53.242174" lon="-1.847696"><ele>327</ele><time>2019-08-30T09:51:06Z</time><name>PT1023</name></trkpt>
<trkpt lat="53.242165" lon="-1.847695"><ele>327</ele><time>2019-08-30T09:51:07Z</time><name>PT1024</name></trkpt>
<trkpt lat="53.242158" lon="-1.847694"><ele>327</ele><time>2019-08-30T09:51:08Z</time><name>PT1025</name></trkpt>
<trkpt lat="53.242148" lon="-1.847691"><ele>327</ele><time>2019-08-30T09:51:09Z</time><name>PT1026</name></trkpt>
<trkpt lat="53.242134" lon="-1.847693"><ele>327</ele><time>2019-08-30T09:51:10Z</time><name>PT1027</name></trkpt>
<trkpt lat="53.242125" lon="-1.847696"><ele>328</ele><time>2019-08-30T09:51:11Z</time><name>PT1028</name></trkpt>
<trkpt lat="53.242115" lon="-1.847702"><ele>328</ele><time>2019-08-30T09:51:12Z</time><name>PT1029</name></trkpt>
<trkpt lat="53.242103" lon="-1.847704"><ele>327</ele><time>2019-08-30T09:51:13Z</time><name>PT1030</name></trkpt>
<trkpt lat="53.242091" lon="-1.847705"><ele>327</ele><time>2019-08-30T09:51:14Z</time><name>PT1031</name></trkpt>
<trkpt lat="53.242077" lon="-1.847704"><ele>327</ele><time>2019-08-30T09:51:16Z</time><name>PT1032</name></trkpt>
<trkpt lat="53.242068" lon="-1.847707"><ele>327</ele><time>2019-08-30T09:51:16Z</time><name>PT1033</name></trkpt>
<trkpt lat="53.242059" lon="-1.847715"><ele>327</ele><time>2019-08-30T09:51:17Z</time><name>PT1034</name></trkpt>
<trkpt lat="53.242048" lon="-1.847717"><ele>328</ele><time>2019-08-30T09:51:19Z</time><name>PT1035</name></trkpt>
<trkpt lat="53.242039" lon="-1.847718"><ele>328</ele><time>2019-08-30T09:51:19Z</time><name>PT1036</name></trkpt>
<trkpt lat="53.242032" lon="-1.847721"><ele>328</ele><time>2019-08-30T09:51:20Z</time><name>PT1037</name></trkpt>
<trkpt lat="53.242025" lon="-1.847726"><ele>328</ele><time>2019-08-30T09:51:21Z</time><name>PT1038</name></trkpt>
<trkpt lat="53.242016" lon="-1.847725"><ele>328</ele><time>2019-08-30T09:51:22Z</time><name>PT1039</name></trkpt>
<trkpt lat="53.242005" lon="-1.847727"><ele>328</ele><time>2019-08-30T09:51:23Z</time><name>PT1040</name></trkpt>
<trkpt lat="53.241996" lon="-1.847730"><ele>328</ele><time>2019-08-30T09:51:24Z</time><name>PT1041</name></trkpt>
<trkpt lat="53.241987" lon="-1.847736"><ele>328</ele><time>2019-08-30T09:51:25Z</time><name>PT1042</name></trkpt>
<trkpt lat="53.241977" lon="-1.847743"><ele>327</ele><time>2019-08-30T09:51:26Z</time><name>PT1043</name></trkpt>
<trkpt lat="53.241969" lon="-1.847746"><ele>327</ele><time>2019-08-30T09:51:27Z</time><name>PT1044</name></trkpt>
<trkpt lat="53.241958" lon="-1.847747"><ele>328</ele><time>2019-08-30T09:51:28Z</time><name>PT1045</name></trkpt>
<trkpt lat="53.241947" lon="-1.847749"><ele>328</ele><time>2019-08-30T09:51:29Z</time><name>PT1046</name></trkpt>
<trkpt lat="53.241935" lon="-1.847756"><ele>328</ele><time>2019-08-30T09:51:30Z</time><name>PT1047</name></trkpt>
<trkpt lat="53.241926" lon="-1.847767"><ele>328</ele><time>2019-08-30T09:51:31Z</time><name>PT1048</name></trkpt>
<trkpt lat="53.241910" lon="-1.847776"><ele>327</ele><time>2019-08-30T09:51:32Z</time><name>PT1049</name></trkpt>
<trkpt lat="53.241896" lon="-1.847783"><ele>328</ele><time>2019-08-30T09:51:33Z</time><name>PT1050</name></trkpt>
<trkpt lat="53.241885" lon="-1.847788"><ele>328</ele><time>2019-08-30T09:51:34Z</time><name>PT1051</name></trkpt>
<trkpt lat="53.241877" lon="-1.847799"><ele>327</ele><time>2019-08-30T09:51:35Z</time><name>PT1052</name></trkpt>
<trkpt lat="53.241868" lon="-1.847806"><ele>327</ele><time>2019-08-30T09:51:36Z</time><name>PT1053</name></trkpt>
<trkpt lat="53.241855" lon="-1.847811"><ele>327</ele><time>2019-08-30T09:51:37Z</time><name>PT1054</name></trkpt>
<trkpt lat="53.241846" lon="-1.847817"><ele>327</ele><time>2019-08-30T09:51:38Z</time><name>PT1055</name></trkpt>
<trkpt lat="53.241838" lon="-1.847828"><ele>327</ele><time>2019-08-30T09:51:39Z</time><name>PT1056</name></trkpt>
<trkpt lat="53.241829" lon="-1.847839"><ele>327</ele><time>2019-08-30T09:51:40Z</time><name>PT1057</name></trkpt>
<trkpt lat="53.241817" lon="-1.847846"><ele>328</ele><time>2019-08-30T09:51:41Z</time><name>PT1058</name></trkpt>
<trkpt lat="53.241808" lon="-1.847849"><ele>327</ele><time>2019-08-30T09:51:42Z</time><name>PT1059</name></trkpt>
<trkpt lat="53.241801" lon="-1.847852"><ele>327</ele><time>2019-08-30T09:51:43Z</time><name>PT1060</name></trkpt>
<trkpt lat="53.241795" lon="-1.847854"><ele>327</ele><time>2019-08-30T09:51:44Z</time><name>PT1061</name></trkpt>
<trkpt lat="53.241786" lon="-1.847856"><ele>327</ele><time>2019-08-30T09:51:45Z</time><name>PT1062</name></trkpt>
<trkpt lat="53.241777" lon="-1.847859"><ele>327</ele><time>2019-08-30T09:51:46Z</time><name>PT1063</name></trkpt>
<trkpt lat="53.241768" lon="-1.847864"><ele>327</ele><time>2019-08-30T09:51:47Z</time><name>PT1064</name></trkpt>
<trkpt lat="53.241758" lon="-1.847874"><ele>327</ele><time>2019-08-30T09:51:48Z</time><name>PT1065</name></trkpt>
<trkpt lat="53.241749" lon="-1.847883"><ele>327</ele><time>2019-08-30T09:51:49Z</time><name>PT1066</name></trkpt>
<trkpt lat="53.241739" lon="-1.847887"><ele>327</ele><time>2019-08-30T09:51:50Z</time><name>PT1067</name></trkpt>
<trkpt lat="53.241731" lon="-1.847891"><ele>327</ele><time>2019-08-30T09:51:52Z</time><name>PT1068</name></trkpt>
<trkpt lat="53.241724" lon="-1.847896"><ele>328</ele><time>2019-08-30T09:51:52Z</time><name>PT1069</name></trkpt>
<trkpt lat="53.241720" lon="-1.847894"><ele>328</ele><time>2019-08-30T09:51:53Z</time><name>PT1070</name></trkpt>
<trkpt lat="53.241713" lon="-1.847893"><ele>327</ele><time>2019-08-30T09:51:55Z</time><name>PT1071</name></trkpt>
<trkpt lat="53.241704" lon="-1.847896"><ele>327</ele><time>2019-08-30T09:51:55Z</time><name>PT1072</name></trkpt>
<trkpt lat="53.241695" lon="-1.847899"><ele>327</ele><time>2019-08-30T09:51:56Z</time><name>PT1073</name></trkpt>
<trkpt lat="53.241679" lon="-1.847902"><ele>328</ele><time>2019-08-30T09:51:57Z</time><name>PT1074</name></trkpt>
<trkpt lat="53.241672" lon="-1.847912"><ele>328</ele><time>2019-08-30T09:51:58Z</time><name>PT1075</name></trkpt>
<trkpt lat="53.241666" lon="-1.847917"><ele>328</ele><time>2019-08-30T09:51:59Z</time><name>PT1076</name></trkpt>
<trkpt lat="53.241661" lon="-1.847923"><ele>327</ele><time>2019-08-30T09:52:01Z</time><name>PT1077</name></trkpt>
<trkpt lat="53.241650" lon="-1.847932"><ele>328</ele><time>2019-08-30T09:52:01Z</time><name>PT1078</name></trkpt>
<trkpt lat="53.241642" lon="-1.847938"><ele>328</ele><time>2019-08-30T09:52:02Z</time><name>PT1079</name></trkpt>
<trkpt lat="53.241631" lon="-1.847940"><ele>327</ele><time>2019-08-30T09:52:04Z</time><name>PT1080</name></trkpt>
<trkpt lat="53.241624" lon="-1.847948"><ele>327</ele><time>2019-08-30T09:52:04Z</time><name>PT1081</name></trkpt>
<trkpt lat="53.241618" lon="-1.847956"><ele>327</ele><time>2019-08-30T09:52:05Z</time><name>PT1082</name></trkpt>
<trkpt lat="53.241607" lon="-1.847970"><ele>327</ele><time>2019-08-30T09:52:07Z</time><name>PT1083</name></trkpt>
<trkpt lat="53.241598" lon="-1.847980"><ele>326</ele><time>2019-08-30T09:52:07Z</time><name>PT1084</name></trkpt>
<trkpt lat="53.241590" lon="-1.847992"><ele>326</ele><time>2019-08-30T09:52:08Z</time><name>PT1085</name></trkpt>
<trkpt lat="53.241580" lon="-1.848000"><ele>325</ele><time>2019-08-30T09:52:10Z</time><name>PT1086</name></trkpt>
<trkpt lat="53.241568" lon="-1.848009"><ele>326</ele><time>2019-08-30T09:52:10Z</time><name>PT1087</name></trkpt>
<trkpt lat="53.241557" lon="-1.848016"><ele>326</ele><time>2019-08-30T09:52:11Z</time><name>PT1088</name></trkpt>
<trkpt lat="53.241547" lon="-1.848022"><ele>326</ele><time>2019-08-30T09:52:12Z</time><name>PT1089</name></trkpt>
<trkpt lat="53.241536" lon="-1.848030"><ele>326</ele><time>2019-08-30T09:52:13Z</time><name>PT1090</name></trkpt>
<trkpt lat="53.241527" lon="-1.848034"><ele>327</ele><time>2019-08-30T09:52:14Z</time><name>PT1091</name></trkpt>
<trkpt lat="53.241516" lon="-1.848040"><ele>327</ele><time>2019-08-30T09:52:16Z</time><name>PT1092</name></trkpt>
<trkpt lat="53.241507" lon="-1.848041"><ele>327</ele><time>2019-08-30T09:52:16Z</time><name>PT1093</name></trkpt>
<trkpt lat="53.241499" lon="-1.848044"><ele>327</ele><time>2019-08-30T09:52:17Z</time><name>PT1094</name></trkpt>
<trkpt lat="53.241492" lon="-1.848045"><ele>327</ele><time>2019-08-30T09:52:19Z</time><name>PT1095</name></trkpt>
<trkpt lat="53.241480" lon="-1.848046"><ele>328</ele><time>2019-08-30T09:52:19Z</time><name>PT1096</name></trkpt>
<trkpt lat="53.241472" lon="-1.848050"><ele>328</ele><time>2019-08-30T09:52:20Z</time><name>PT1097</name></trkpt>
<trkpt lat="53.241463" lon="-1.848057"><ele>328</ele><time>2019-08-30T09:52:22Z</time><name>PT1098</name></trkpt>
<trkpt lat="53.241453" lon="-1.848058"><ele>328</ele><time>2019-08-30T09:52:22Z</time><name>PT1099</name></trkpt>
<trkpt lat="53.241441" lon="-1.848060"><ele>328</ele><time>2019-08-30T09:52:23Z</time><name>PT1100</name></trkpt>
<trkpt lat="53.241428" lon="-1.848066"><ele>328</ele><time>2019-08-30T09:52:25Z</time><name>PT1101</name></trkpt>
<trkpt lat="53.241419" lon="-1.848075"><ele>328</ele><time>2019-08-30T09:52:25Z</time><name>PT1102</name></trkpt>
<trkpt lat="53.241410" lon="-1.848084"><ele>328</ele><time>2019-08-30T09:52:26Z</time><name>PT1103</name></trkpt>
<trkpt lat="53.241400" lon="-1.848094"><ele>328</ele><time>2019-08-30T09:52:28Z</time><name>PT1104</name></trkpt>
<trkpt lat="53.241390" lon="-1.848100"><ele>328</ele><time>2019-08-30T09:52:28Z</time><name>PT1105</name></trkpt>
<trkpt lat="53.241375" lon="-1.848106"><ele>328</ele><time>2019-08-30T09:52:29Z</time><name>PT1106</name></trkpt>
<trkpt lat="53.241364" lon="-1.848108"><ele>327</ele><time>2019-08-30T09:52:31Z</time><name>PT1107</name></trkpt>
<trkpt lat="53.241350" lon="-1.848119"><ele>327</ele><time>2019-08-30T09:52:31Z</time><name>PT1108</name></trkpt>
<trkpt lat="53.241336" lon="-1.848132"><ele>327</ele><time>2019-08-30T09:52:32Z</time><name>PT1109</name></trkpt>
<trkpt lat="53.241322" lon="-1.848144"><ele>328</ele><time>2019-08-30T09:52:34Z</time><name>PT1110</name></trkpt>
<trkpt lat="53.241308" lon="-1.848149"><ele>328</ele><time>2019-08-30T09:52:34Z</time><name>PT1111</name></trkpt>
<trkpt lat="53.241293" lon="-1.848151"><ele>328</ele><time>2019-08-30T09:52:35Z</time><name>PT1112</name></trkpt>
<trkpt lat="53.241281" lon="-1.848158"><ele>328</ele><time>2019-08-30T09:52:37Z</time><name>PT1113</name></trkpt>
<trkpt lat="53.241267" lon="-1.848168"><ele>329</ele><time>2019-08-30T09:52:37Z</time><name>PT1114</name></trkpt>
<trkpt lat="53.241257" lon="-1.848177"><ele>329</ele><time>2019-08-30T09:52:38Z</time><name>PT1115</name></trkpt>
<trkpt lat="53.241248" lon="-1.848182"><ele>329</ele><time>2019-08-30T09:52:39Z</time><name>PT1116</name></trkpt>
<trkpt lat="53.241235" lon="-1.848189"><ele>329</ele><time>2019-08-30T09:52:40Z</time><name>PT1117</name></trkpt>
<trkpt lat="53.241224" lon="-1.848196"><ele>330</ele><time>2019-08-30T09:52:41Z</time><name>PT1118</name></trkpt>
<trkpt lat="53.241211" lon="-1.848204"><ele>330</ele><time>2019-08-30T09:52:42Z</time><name>PT1119</name></trkpt>
<trkpt lat="53.241198" lon="-1.848216"><ele>330</ele><time>2019-08-30T09:52:44Z</time><name>PT1120</name></trkpt>
<trkpt lat="53.241185" lon="-1.848222"><ele>331</ele><time>2019-08-30T09:52:44Z</time><name>PT1121</name></trkpt>
<trkpt lat="53.241173" lon="-1.848226"><ele>331</ele><time>2019-08-30T09:52:45Z</time><name>PT1122</name></trkpt>
<trkpt lat="53.241164" lon="-1.848232"><ele>332</ele><time>2019-08-30T09:52:47Z</time><name>PT1123</name></trkpt>
<trkpt lat="53.241154" lon="-1.848239"><ele>331</ele><time>2019-08-30T09:52:47Z</time><name>PT1124</name></trkpt>
<trkpt lat="53.241146" lon="-1.848243"><ele>331</ele><time>2019-08-30T09:52:48Z</time><name>PT1125</name></trkpt>
<trkpt lat="53.241136" lon="-1.848247"><ele>331</ele><time>2019-08-30T09:52:50Z</time><name>PT1126</name></trkpt>
<trkpt lat="53.241125" lon="-1.848253"><ele>331</ele><time>2019-08-30T09:52:50Z</time><name>PT1127</name></trkpt>
<trkpt lat="53.241115" lon="-1.848261"><ele>331</ele><time>2019-08-30T09:52:51Z</time><name>PT1128</name></trkpt>
<trkpt lat="53.241104" lon="-1.848269"><ele>332</ele><time>2019-08-30T09:52:53Z</time><name>PT1129</name></trkpt>
<trkpt lat="53.241094" lon="-1.848277"><ele>332</ele><time>2019-08-30T09:52:53Z</time><name>PT1130</name></trkpt>
<trkpt lat="53.241081" lon="-1.848282"><ele>333</ele><time>2019-08-30T09:52:54Z</time><name>PT1131</name></trkpt>
<trkpt lat="53.241069" lon="-1.848287"><ele>333</ele><time>2019-08-30T09:52:56Z</time><name>PT1132</name></trkpt>
<trkpt lat="53.241060" lon="-1.848291"><ele>333</ele><time>2019-08-30T09:52:56Z</time><name>PT1133</name></trkpt>
<trkpt lat="53.241049" lon="-1.848300"><ele>333</ele><time>2019-08-30T09:52:57Z</time><name>PT1134</name></trkpt>
<trkpt lat="53.241038" lon="-1.848305"><ele>333</ele><time>2019-08-30T09:52:59Z</time><name>PT1135</name></trkpt>
<trkpt lat="53.241026" lon="-1.848310"><ele>333</ele><time>2019-08-30T09:52:59Z</time><name>PT1136</name></trkpt>
<trkpt lat="53.241016" lon="-1.848316"><ele>333</ele><time>2019-08-30T09:53:00Z</time><name>PT1137</name></trkpt>
<trkpt lat="53.241004" lon="-1.848325"><ele>333</ele><time>2019-08-30T09:53:02Z</time><name>PT1138</name></trkpt>
<trkpt lat="53.240995" lon="-1.848332"><ele>333</ele><time>2019-08-30T09:53:02Z</time><name>PT1139</name></trkpt>
<trkpt lat="53.240986" lon="-1.848340"><ele>334</ele><time>2019-08-30T09:53:03Z</time><name>PT1140</name></trkpt>
<trkpt lat="53.240975" lon="-1.848346"><ele>334</ele><time>2019-08-30T09:53:05Z</time><name>PT1141</name></trkpt>
<trkpt lat="53.240962" lon="-1.848351"><ele>333</ele><time>2019-08-30T09:53:05Z</time><name>PT1142</name></trkpt>
<trkpt lat="53.240953" lon="-1.848353"><ele>333</ele><time>2019-08-30T09:53:06Z</time><name>PT1143</name></trkpt>
<trkpt lat="53.240941" lon="-1.848360"><ele>334</ele><time>2019-08-30T09:53:08Z</time><name>PT1144</name></trkpt>
<trkpt lat="53.240932" lon="-1.848368"><ele>334</ele><time>2019-08-30T09:53:08Z</time><name>PT1145</name></trkpt>
<trkpt lat="53.240921" lon="-1.848370"><ele>334</ele><time>2019-08-30T09:53:09Z</time><name>PT1146</name></trkpt>
<trkpt lat="53.240910" lon="-1.848371"><ele>334</ele><time>2019-08-30T09:53:11Z</time><name>PT1147</name></trkpt>
<trkpt lat="53.240901" lon="-1.848383"><ele>334</ele><time>2019-08-30T09:53:11Z</time><name>PT1148</name></trkpt>
<trkpt lat="53.240890" lon="-1.848388"><ele>334</ele><time>2019-08-30T09:53:12Z</time><name>PT1149</name></trkpt>
<trkpt lat="53.240879" lon="-1.848387"><ele>334</ele><time>2019-08-30T09:53:13Z</time><name>PT1150</name></trkpt>
<trkpt lat="53.240869" lon="-1.848388"><ele>334</ele><time>2019-08-30T09:53:14Z</time><name>PT1151</name></trkpt>
<trkpt lat="53.240858" lon="-1.848393"><ele>334</ele><time>2019-08-30T09:53:15Z</time><name>PT1152</name></trkpt>
<trkpt lat="53.240847" lon="-1.848395"><ele>334</ele><time>2019-08-30T09:53:16Z</time><name>PT1153</name></trkpt>
<trkpt lat="53.240834" lon="-1.848396"><ele>335</ele><time>2019-08-30T09:53:17Z</time><name>PT1154</name></trkpt>
<trkpt lat="53.240823" lon="-1.848400"><ele>335</ele><time>2019-08-30T09:53:18Z</time><name>PT1155</name></trkpt>
<trkpt lat="53.240809" lon="-1.848410"><ele>335</ele><time>2019-08-30T09:53:19Z</time><name>PT1156</name></trkpt>
<trkpt lat="53.240797" lon="-1.848414"><ele>335</ele><time>2019-08-30T09:53:20Z</time><name>PT1157</name></trkpt>
<trkpt lat="53.240787" lon="-1.848422"><ele>335</ele><time>2019-08-30T09:53:22Z</time><name>PT1158</name></trkpt>
<trkpt lat="53.240776" lon="-1.848424"><ele>335</ele><time>2019-08-30T09:53:22Z</time><name>PT1159</name></trkpt>
<trkpt lat="53.240767" lon="-1.848429"><ele>335</ele><time>2019-08-30T09:53:23Z</time><name>PT1160</name></trkpt>
<trkpt lat="53.240758" lon="-1.848429"><ele>336</ele><time>2019-08-30T09:53:25Z</time><name>PT1161</name></trkpt>
<trkpt lat="53.240748" lon="-1.848431"><ele>336</ele><time>2019-08-30T09:53:25Z</time><name>PT1162</name></trkpt>
<trkpt lat="53.240737" lon="-1.848430"><ele>336</ele><time>2019-08-30T09:53:26Z</time><name>PT1163</name></trkpt>
<trkpt lat="53.240722" lon="-1.848431"><ele>336</ele><time>2019-08-30T09:53:28Z</time><name>PT1164</name></trkpt>
<trkpt lat="53.240713" lon="-1.848431"><ele>336</ele><time>2019-08-30T09:53:28Z</time><name>PT1165</name></trkpt>
<trkpt lat="53.240705" lon="-1.848434"><ele>336</ele><time>2019-08-30T09:53:29Z</time><name>PT1166</name></trkpt>
<trkpt lat="53.240697" lon="-1.848438"><ele>336</ele><time>2019-08-30T09:53:31Z</time><name>PT1167</name></trkpt>
<trkpt lat="53.240689" lon="-1.848442"><ele>336</ele><time>2019-08-30T09:53:31Z</time><name>PT1168</name></trkpt>
<trkpt lat="53.240680" lon="-1.848443"><ele>336</ele><time>2019-08-30T09:53:32Z</time><name>PT1169</name></trkpt>
<trkpt lat="53.240671" lon="-1.848445"><ele>337</ele><time>2019-08-30T09:53:34Z</time><name>PT1170</name></trkpt>
<trkpt lat="53.240663" lon="-1.848445"><ele>336</ele><time>2019-08-30T09:53:34Z</time><name>PT1171</name></trkpt>
<trkpt lat="53.240656" lon="-1.848445"><ele>336</ele><time>2019-08-30T09:53:35Z</time><name>PT1172</name></trkpt>
<trkpt lat="53.240645" lon="-1.848446"><ele>336</ele><time>2019-08-30T09:53:37Z</time><name>PT1173</name></trkpt>
<trkpt lat="53.240635" lon="-1.848449"><ele>336</ele><time>2019-08-30T09:53:37Z</time><name>PT1174</name></trkpt>
<trkpt lat="53.240625" lon="-1.848451"><ele>336</ele><time>2019-08-30T09:53:38Z</time><name>PT1175</name></trkpt>
<trkpt lat="53.240615" lon="-1.848456"><ele>336</ele><time>2019-08-30T09:53:40Z</time><name>PT1176</name></trkpt>
<trkpt lat="53.240608" lon="-1.848460"><ele>336</ele><time>2019-08-30T09:53:40Z</time><name>PT1177</name></trkpt>
<trkpt lat="53.240599" lon="-1.848465"><ele>337</ele><time>2019-08-30T09:53:41Z</time><name>PT1178</name></trkpt>
<trkpt lat="53.240592" lon="-1.848469"><ele>337</ele><time>2019-08-30T09:53:43Z</time><name>PT1179</name></trkpt>
<trkpt lat="53.240584" lon="-1.848469"><ele>337</ele><time>2019-08-30T09:53:43Z</time><name>PT1180</name></trkpt>
<trkpt lat="53.240577" lon="-1.848472"><ele>337</ele><time>2019-08-30T09:53:44Z</time><name>PT1181</name></trkpt>
<trkpt lat="53.240568" lon="-1.848476"><ele>337</ele><time>2019-08-30T09:53:45Z</time><name>PT1182</name></trkpt>
<trkpt lat="53.240560" lon="-1.848480"><ele>337</ele><time>2019-08-30T09:53:46Z</time><name>PT1183</name></trkpt>
<trkpt lat="53.240553" lon="-1.848482"><ele>337</ele><time>2019-08-30T09:53:47Z</time><name>PT1184</name></trkpt>
<trkpt lat="53.240545" lon="-1.848485"><ele>336</ele><time>2019-08-30T09:53:48Z</time><name>PT1185</name></trkpt>
<trkpt lat="53.240538" lon="-1.848488"><ele>336</ele><time>2019-08-30T09:53:49Z</time><name>PT1186</name></trkpt>
<trkpt lat="53.240531" lon="-1.848489"><ele>336</ele><time>2019-08-30T09:53:50Z</time><name>PT1187</name></trkpt>
<trkpt lat="53.240523" lon="-1.848492"><ele>336</ele><time>2019-08-30T09:53:52Z</time><name>PT1188</name></trkpt>
<trkpt lat="53.240514" lon="-1.848498"><ele>336</ele><time>2019-08-30T09:53:52Z</time><name>PT1189</name></trkpt>
<trkpt lat="53.240506" lon="-1.848503"><ele>337</ele><time>2019-08-30T09:53:53Z</time><name>PT1190</name></trkpt>
<trkpt lat="53.240495" lon="-1.848507"><ele>337</ele><time>2019-08-30T09:53:55Z</time><name>PT1191</name></trkpt>
<trkpt lat="53.240486" lon="-1.848512"><ele>337</ele><time>2019-08-30T09:53:55Z</time><name>PT1192</name></trkpt>
<trkpt lat="53.240478" lon="-1.848517"><ele>337</ele><time>2019-08-30T09:53:56Z</time><name>PT1193</name></trkpt>
<trkpt lat="53.240468" lon="-1.848523"><ele>338</ele><time>2019-08-30T09:53:58Z</time><name>PT1194</name></trkpt>
<trkpt lat="53.240456" lon="-1.848529"><ele>338</ele><time>2019-08-30T09:53:58Z</time><name>PT1195</name></trkpt>
<trkpt lat="53.240448" lon="-1.848534"><ele>338</ele><time>2019-08-30T09:53:59Z</time><name>PT1196</name></trkpt>
<trkpt lat="53.240439" lon="-1.848542"><ele>339</ele><time>2019-08-30T09:54:01Z</time><name>PT1197</name></trkpt>
<trkpt lat="53.240430" lon="-1.848546"><ele>339</ele><time>2019-08-30T09:54:01Z</time><name>PT1198</name></trkpt>
<trkpt lat="53.240419" lon="-1.848550"><ele>339</ele><time>2019-08-30T09:54:02Z</time><name>PT1199</name></trkpt>
<trkpt lat="53.240409" lon="-1.848555"><ele>339</ele><time>2019-08-30T09:54:04Z</time><name>PT1200</name></trkpt>
<trkpt lat="53.240399" lon="-1.848562"><ele>339</ele><time>2019-08-30T09:54:04Z</time><name>PT1201</name></trkpt>
<trkpt lat="53.240390" lon="-1.848568"><ele>339</ele><time>2019-08-30T09:54:05Z</time><name>PT1202</name></trkpt>
<trkpt lat="53.240378" lon="-1.848574"><ele>339</ele><time>2019-08-30T09:54:07Z</time><name>PT1203</name></trkpt>
<trkpt lat="53.240369" lon="-1.848580"><ele>339</ele><time>2019-08-30T09:54:07Z</time><name>PT1204</name></trkpt>
<trkpt lat="53.240358" lon="-1.848587"><ele>340</ele><time>2019-08-30T09:54:08Z</time><name>PT1205</name></trkpt>
<trkpt lat="53.240348" lon="-1.848593"><ele>339</ele><time>2019-08-30T09:54:10Z</time><name>PT1206</name></trkpt>
<trkpt lat="53.240339" lon="-1.848598"><ele>339</ele><time>2019-08-30T09:54:10Z</time><name>PT1207</name></trkpt>
<trkpt lat="53.240328" lon="-1.848604"><ele>338</ele><time>2019-08-30T09:54:11Z</time><name>PT1208</name></trkpt>
<trkpt lat="53.240320" lon="-1.848611"><ele>337</ele><time>2019-08-30T09:54:13Z</time><name>PT1209</name></trkpt>
<trkpt lat="53.240311" lon="-1.848616"><ele>337</ele><time>2019-08-30T09:54:13Z</time><name>PT1210</name></trkpt>
<trkpt lat="53.240301" lon="-1.848620"><ele>336</ele><time>2019-08-30T09:54:14Z</time><name>PT1211</name></trkpt>
<trkpt lat="53.240289" lon="-1.848623"><ele>337</ele><time>2019-08-30T09:54:16Z</time><name>PT1212</name></trkpt>
<trkpt lat="53.240284" lon="-1.848627"><ele>336</ele><time>2019-08-30T09:54:16Z</time><name>PT1213</name></trkpt>
<trkpt lat="53.240278" lon="-1.848635"><ele>336</ele><time>2019-08-30T09:54:17Z</time><name>PT1214</name></trkpt>
<trkpt lat="53.240271" lon="-1.848640"><ele>336</ele><time>2019-08-30T09:54:19Z</time><name>PT1215</name></trkpt>
<trkpt lat="53.240260" lon="-1.848643"><ele>336</ele><time>2019-08-30T09:54:19Z</time><name>PT1216</name></trkpt>
<trkpt lat="53.240250" lon="-1.848648"><ele>336</ele><time>2019-08-30T09:54:20Z</time><name>PT1217</name></trkpt>
<trkpt lat="53.240240" lon="-1.848655"><ele>336</ele><time>2019-08-30T09:54:21Z</time><name>PT1218</name></trkpt>
<trkpt lat="53.240231" lon="-1.848661"><ele>336</ele><time>2019-08-30T09:54:22Z</time><name>PT1219</name></trkpt>
<trkpt lat="53.240221" lon="-1.848665"><ele>336</ele><time>2019-08-30T09:54:23Z</time><name>PT1220</name></trkpt>
<trkpt lat="53.240211" lon="-1.848668"><ele>336</ele><time>2019-08-30T09:54:25Z</time><name>PT1221</name></trkpt>
<trkpt lat="53.240203" lon="-1.848673"><ele>336</ele><time>2019-08-30T09:54:25Z</time><name>PT1222</name></trkpt>
<trkpt lat="53.240195" lon="-1.848678"><ele>336</ele><time>2019-08-30T09:54:26Z</time><name>PT1223</name></trkpt>
<trkpt lat="53.240183" lon="-1.848678"><ele>336</ele><time>2019-08-30T09:54:28Z</time><name>PT1224</name></trkpt>
<trkpt lat="53.240174" lon="-1.848681"><ele>336</ele><time>2019-08-30T09:54:28Z</time><name>PT1225</name></trkpt>
<trkpt lat="53.240164" lon="-1.848688"><ele>336</ele><time>2019-08-30T09:54:29Z</time><name>PT1226</name></trkpt>
<trkpt lat="53.240153" lon="-1.848696"><ele>336</ele><time>2019-08-30T09:54:31Z</time><name>PT1227</name></trkpt>
<trkpt lat="53.240142" lon="-1.848702"><ele>336</ele><time>2019-08-30T09:54:31Z</time><name>PT1228</name></trkpt>
<trkpt lat="53.240130" lon="-1.848708"><ele>336</ele><time>2019-08-30T09:54:32Z</time><name>PT1229</name></trkpt>
<trkpt lat="53.240119" lon="-1.848713"><ele>336</ele><time>2019-08-30T09:54:34Z</time><name>PT1230</name></trkpt>
<trkpt lat="53.240110" lon="-1.848720"><ele>336</ele><time>2019-08-30T09:54:34Z</time><name>PT1231</name></trkpt>
<trkpt lat="53.240098" lon="-1.848729"><ele>336</ele><time>2019-08-30T09:54:35Z</time><name>PT1232</name></trkpt>
<trkpt lat="53.240089" lon="-1.848735"><ele>336</ele><time>2019-08-30T09:54:37Z</time><name>PT1233</name></trkpt>
<trkpt lat="53.240078" lon="-1.848738"><ele>336</ele><time>2019-08-30T09:54:37Z</time><name>PT1234</name></trkpt>
<trkpt lat="53.240065" lon="-1.848742"><ele>336</ele><time>2019-08-30T09:54:38Z</time><name>PT1235</name></trkpt>
<trkpt lat="53.240055" lon="-1.848751"><ele>336</ele><time>2019-08-30T09:54:40Z</time><name>PT1236</name></trkpt>
<trkpt lat="53.240040" lon="-1.848763"><ele>336</ele><time>2019-08-30T09:54:40Z</time><name>PT1237</name></trkpt>
<trkpt lat="53.240030" lon="-1.848773"><ele>337</ele><time>2019-08-30T09:54:41Z</time><name>PT1238</name></trkpt>
<trkpt lat="53.240016" lon="-1.848782"><ele>337</ele><time>2019-08-30T09:54:43Z</time><name>PT1239</name></trkpt>
<trkpt lat="53.240007" lon="-1.848782"><ele>336</ele><time>2019-08-30T09:54:43Z</time><name>PT1240</name></trkpt>
<trkpt lat="53.239997" lon="-1.848787"><ele>336</ele><time>2019-08-30T09:54:44Z</time><name>PT1241</name></trkpt>
<trkpt lat="53.239987" lon="-1.848796"><ele>336</ele><time>2019-08-30T09:54:46Z</time><name>PT1242</name></trkpt>
<trkpt lat="53.239978" lon="-1.848801"><ele>336</ele><time>2019-08-30T09:54:46Z</time><name>PT1243</name></trkpt>
<trkpt lat="53.239967" lon="-1.848806"><ele>336</ele><time>2019-08-30T09:54:47Z</time><name>PT1244</name></trkpt>
<trkpt lat="53.239956" lon="-1.848812"><ele>336</ele><time>2019-08-30T09:54:49Z</time><name>PT1245</name></trkpt>
<trkpt lat="53.239946" lon="-1.848816"><ele>336</ele><time>2019-08-30T09:54:49Z</time><name>PT1246</name></trkpt>
<trkpt lat="53.239933" lon="-1.848823"><ele>336</ele><time>2019-08-30T09:54:50Z</time><name>PT1247</name></trkpt>
<trkpt lat="53.239921" lon="-1.848830"><ele>335</ele><time>2019-08-30T09:54:52Z</time><name>PT1248</name></trkpt>
<trkpt lat="53.239907" lon="-1.848834"><ele>336</ele><time>2019-08-30T09:54:52Z</time><name>PT1249</name></trkpt>
<trkpt lat="53.239895" lon="-1.848833"><ele>336</ele><time>2019-08-30T09:54:53Z</time><name>PT1250</name></trkpt>
<trkpt lat="53.239884" lon="-1.848833"><ele>336</ele><time>2019-08-30T09:54:55Z</time><name>PT1251</name></trkpt>
<trkpt lat="53.239872" lon="-1.848836"><ele>336</ele><time>2019-08-30T09:54:55Z</time><name>PT1252</name></trkpt>
<trkpt lat="53.239860" lon="-1.848835"><ele>337</ele><time>2019-08-30T09:54:56Z</time><name>PT1253</name></trkpt>
<trkpt lat="53.239848" lon="-1.848832"><ele>337</ele><time>2019-08-30T09:54:58Z</time><name>PT1254</name></trkpt>
<trkpt lat="53.239836" lon="-1.848830"><ele>338</ele><time>2019-08-30T09:54:58Z</time><name>PT1255</name></trkpt>
<trkpt lat="53.239822" lon="-1.848829"><ele>338</ele><time>2019-08-30T09:54:59Z</time><name>PT1256</name></trkpt>
<trkpt lat="53.239813" lon="-1.848824"><ele>339</ele><time>2019-08-30T09:55:01Z</time><name>PT1257</name></trkpt>
<trkpt lat="53.239801" lon="-1.848816"><ele>339</ele><time>2019-08-30T09:55:01Z</time><name>PT1258</name></trkpt>
<trkpt lat="53.239789" lon="-1.848811"><ele>339</ele><time>2019-08-30T09:55:02Z</time><name>PT1259</name></trkpt>
<trkpt lat="53.239778" lon="-1.848808"><ele>340</ele><time>2019-08-30T09:55:04Z</time><name>PT1260</name></trkpt>
<trkpt lat="53.239766" lon="-1.848805"><ele>340</ele><time>2019-08-30T09:55:04Z</time><name>PT1261</name></trkpt>
<trkpt lat="53.239756" lon="-1.848797"><ele>341</ele><time>2019-08-30T09:55:05Z</time><name>PT1262</name></trkpt>
<trkpt lat="53.239745" lon="-1.848788"><ele>340</ele><time>2019-08-30T09:55:07Z</time><name>PT1263</name></trkpt>
<trkpt lat="53.239733" lon="-1.848782"><ele>341</ele><time>2019-08-30T09:55:07Z</time><name>PT1264</name></trkpt>
<trkpt lat="53.239726" lon="-1.848782"><ele>340</ele><time>2019-08-30T09:55:08Z</time><name>PT1265</name></trkpt>
<trkpt lat="53.239716" lon="-1.848776"><ele>340</ele><time>2019-08-30T09:55:10Z</time><name>PT1266</name></trkpt>
<trkpt lat="53.239707" lon="-1.848768"><ele>341</ele><time>2019-08-30T09:55:10Z</time><name>PT1267</name></trkpt>
<trkpt lat="53.239695" lon="-1.848759"><ele>341</ele><time>2019-08-30T09:55:11Z</time><name>PT1268</name></trkpt>
<trkpt lat="53.239685" lon="-1.848753"><ele>341</ele><time>2019-08-30T09:55:13Z</time><name>PT1269</name></trkpt>
<trkpt lat="53.239674" lon="-1.848746"><ele>342</ele><time>2019-08-30T09:55:13Z</time><name>PT1270</name></trkpt>
<trkpt lat="53.239663" lon="-1.848743"><ele>341</ele><time>2019-08-30T09:55:14Z</time><name>PT1271</name></trkpt>
<trkpt lat="53.239652" lon="-1.848740"><ele>341</ele><time>2019-08-30T09:55:16Z</time><name>PT1272</name></trkpt>
<trkpt lat="53.239640" lon="-1.848734"><ele>341</ele><time>2019-08-30T09:55:16Z</time><name>PT1273</name></trkpt>
<trkpt lat="53.239628" lon="-1.848730"><ele>340</ele><time>2019-08-30T09:55:17Z</time><name>PT1274</name></trkpt>
<trkpt lat="53.239618" lon="-1.848729"><ele>340</ele><time>2019-08-30T09:55:19Z</time><name>PT1275</name></trkpt>
<trkpt lat="53.239605" lon="-1.848728"><ele>340</ele><time>2019-08-30T09:55:19Z</time><name>PT1276</name></trkpt>
<trkpt lat="53.239592" lon="-1.848726"><ele>340</ele><time>2019-08-30T09:55:20Z</time><name>PT1277</name></trkpt>
<trkpt lat="53.239579" lon="-1.848724"><ele>341</ele><time>2019-08-30T09:55:22Z</time><name>PT1278</name></trkpt>
<trkpt lat="53.239566" lon="-1.848721"><ele>341</ele><time>2019-08-30T09:55:22Z</time><name>PT1279</name></trkpt>
<trkpt lat="53.239550" lon="-1.848715"><ele>343</ele><time>2019-08-30T09:55:23Z</time><name>PT1280</name></trkpt>
<trkpt lat="53.239538" lon="-1.848714"><ele>342</ele><time>2019-08-30T09:55:25Z</time><name>PT1281</name></trkpt>
<trkpt lat="53.239525" lon="-1.848713"><ele>343</ele><time>2019-08-30T09:55:25Z</time><name>PT1282</name></trkpt>
<trkpt lat="53.239510" lon="-1.848713"><ele>342</ele><time>2019-08-30T09:55:26Z</time><name>PT1283</name></trkpt>
<trkpt lat="53.239498" lon="-1.848714"><ele>342</ele><time>2019-08-30T09:55:28Z</time><name>PT1284</name></trkpt>
<trkpt lat="53.239485" lon="-1.848712"><ele>342</ele><time>2019-08-30T09:55:28Z</time><name>PT1285</name></trkpt>
<trkpt lat="53.239469" lon="-1.848708"><ele>342</ele><time>2019-08-30T09:55:29Z</time><name>PT1286</name></trkpt>
<trkpt lat="53.239457" lon="-1.848707"><ele>341</ele><time>2019-08-30T09:55:31Z</time><name>PT1287</name></trkpt>
<trkpt lat="53.239447" lon="-1.848710"><ele>341</ele><time>2019-08-30T09:55:31Z</time><name>PT1288</name></trkpt>
<trkpt lat="53.239434" lon="-1.848711"><ele>342</ele><time>2019-08-30T09:55:32Z</time><name>PT1289</name></trkpt>
<trkpt lat="53.239421" lon="-1.848707"><ele>342</ele><time>2019-08-30T09:55:34Z</time><name>PT1290</name></trkpt>
<trkpt lat="53.239408" lon="-1.848705"><ele>342</ele><time>2019-08-30T09:55:34Z</time><name>PT1291</name></trkpt>
<trkpt lat="53.239396" lon="-1.848702"><ele>342</ele><time>2019-08-30T09:55:35Z</time><name>PT1292</name></trkpt>
<trkpt lat="53.239382" lon="-1.848697"><ele>342</ele><time>2019-08-30T09:55:37Z</time><name>PT1293</name></trkpt>
<trkpt lat="53.239369" lon="-1.848697"><ele>342</ele><time>2019-08-30T09:55:37Z</time><name>PT1294</name></trkpt>
<trkpt lat="53.239358" lon="-1.848698"><ele>342</ele><time>2019-08-30T09:55:38Z</time><name>PT1295</name></trkpt>
<trkpt lat="53.239344" lon="-1.848698"><ele>342</ele><time>2019-08-30T09:55:40Z</time><name>PT1296</name></trkpt>
<trkpt lat="53.239329" lon="-1.848698"><ele>342</ele><time>2019-08-30T09:55:40Z</time><name>PT1297</name></trkpt>
<trkpt lat="53.239319" lon="-1.848697"><ele>342</ele><time>2019-08-30T09:55:41Z</time><name>PT1298</name></trkpt>
<trkpt lat="53.239308" lon="-1.848694"><ele>342</ele><time>2019-08-30T09:55:43Z</time><name>PT1299</name></trkpt>
<trkpt lat="53.239296" lon="-1.848691"><ele>342</ele><time>2019-08-30T09:55:43Z</time><name>PT1300</name></trkpt>
<trkpt lat="53.239285" lon="-1.848689"><ele>342</ele><time>2019-08-30T09:55:44Z</time><name>PT1301</name></trkpt>
<trkpt lat="53.239276" lon="-1.848690"><ele>341</ele><time>2019-08-30T09:55:46Z</time><name>PT1302</name></trkpt>
<trkpt lat="53.239264" lon="-1.848695"><ele>341</ele><time>2019-08-30T09:55:46Z</time><name>PT1303</name></trkpt>
<trkpt lat="53.239253" lon="-1.848696"><ele>341</ele><time>2019-08-30T09:55:47Z</time><name>PT1304</name></trkpt>
<trkpt lat="53.239243" lon="-1.848696"><ele>341</ele><time>2019-08-30T09:55:49Z</time><name>PT1305</name></trkpt>
<trkpt lat="53.239234" lon="-1.848692"><ele>341</ele><time>2019-08-30T09:55:49Z</time><name>PT1306</name></trkpt>
<trkpt lat="53.239224" lon="-1.848687"><ele>341</ele><time>2019-08-30T09:55:50Z</time><name>PT1307</name></trkpt>
<trkpt lat="53.239213" lon="-1.848685"><ele>341</ele><time>2019-08-30T09:55:52Z</time><name>PT1308</name></trkpt>
<trkpt lat="53.239204" lon="-1.848687"><ele>340</ele><time>2019-08-30T09:55:52Z</time><name>PT1309</name></trkpt>
<trkpt lat="53.239191" lon="-1.848684"><ele>340</ele><time>2019-08-30T09:55:53Z</time><name>PT1310</name></trkpt>
<trkpt lat="53.239179" lon="-1.848678"><ele>339</ele><time>2019-08-30T09:55:55Z</time><name>PT1311</name></trkpt>
<trkpt lat="53.239169" lon="-1.848675"><ele>339</ele><time>2019-08-30T09:55:55Z</time><name>PT1312</name></trkpt>
<trkpt lat="53.239161" lon="-1.848667"><ele>338</ele><time>2019-08-30T09:55:56Z</time><name>PT1313</name></trkpt>
<trkpt lat="53.239149" lon="-1.848660"><ele>338</ele><time>2019-08-30T09:55:58Z</time><name>PT1314</name></trkpt>
<trkpt lat="53.239138" lon="-1.848659"><ele>338</ele><time>2019-08-30T09:55:58Z</time><name>PT1315</name></trkpt>
<trkpt lat="53.239125" lon="-1.848656"><ele>338</ele><time>2019-08-30T09:55:59Z</time><name>PT1316</name></trkpt>
<trkpt lat="53.239106" lon="-1.848654"><ele>339</ele><time>2019-08-30T09:56:01Z</time><name>PT1317</name></trkpt>
<trkpt lat="53.239092" lon="-1.848650"><ele>339</ele><time>2019-08-30T09:56:01Z</time><name>PT1318</name></trkpt>
<trkpt lat="53.239080" lon="-1.848645"><ele>339</ele><time>2019-08-30T09:56:02Z</time><name>PT1319</name></trkpt>
<trkpt lat="53.239063" lon="-1.848638"><ele>340</ele><time>2019-08-30T09:56:03Z</time><name>PT1320</name></trkpt>
<trkpt lat="53.239048" lon="-1.848634"><ele>339</ele><time>2019-08-30T09:56:04Z</time><name>PT1321</name></trkpt>
<trkpt lat="53.239034" lon="-1.848634"><ele>339</ele><time>2019-08-30T09:56:06Z</time><name>PT1322</name></trkpt>
<trkpt lat="53.239021" lon="-1.848633"><ele>339</ele><time>2019-08-30T09:56:07Z</time><name>PT1323</name></trkpt>
<trkpt lat="53.239006" lon="-1.848629"><ele>338</ele><time>2019-08-30T09:56:07Z</time><name>PT1324</name></trkpt>
<trkpt lat="53.238991" lon="-1.848626"><ele>338</ele><time>2019-08-30T09:56:08Z</time><name>PT1325</name></trkpt>
<trkpt lat="53.238976" lon="-1.848622"><ele>338</ele><time>2019-08-30T09:56:10Z</time><name>PT1326</name></trkpt>
<trkpt lat="53.238962" lon="-1.848616"><ele>338</ele><time>2019-08-30T09:56:10Z</time><name>PT1327</name></trkpt>
<trkpt lat="53.238946" lon="-1.848609"><ele>338</ele><time>2019-08-30T09:56:11Z</time><name>PT1328</name></trkpt>
<trkpt lat="53.238931" lon="-1.848606"><ele>339</ele><time>2019-08-30T09:56:13Z</time><name>PT1329</name></trkpt>
<trkpt lat="53.238919" lon="-1.848606"><ele>339</ele><time>2019-08-30T09:56:13Z</time><name>PT1330</name></trkpt>
<trkpt lat="53.238902" lon="-1.848603"><ele>340</ele><time>2019-08-30T09:56:14Z</time><name>PT1331</name></trkpt>
<trkpt lat="53.238884" lon="-1.848600"><ele>340</ele><time>2019-08-30T09:56:16Z</time><name>PT1332</name></trkpt>
<trkpt lat="53.238870" lon="-1.848596"><ele>340</ele><time>2019-08-30T09:56:16Z</time><name>PT1333</name></trkpt>
<trkpt lat="53.238856" lon="-1.848593"><ele>340</ele><time>2019-08-30T09:56:17Z</time><name>PT1334</name></trkpt>
<trkpt lat="53.238842" lon="-1.848591"><ele>341</ele><time>2019-08-30T09:56:19Z</time><name>PT1335</name></trkpt>
<trkpt lat="53.238825" lon="-1.848593"><ele>341</ele><time>2019-08-30T09:56:19Z</time><name>PT1336</name></trkpt>
<trkpt lat="53.238811" lon="-1.848593"><ele>339</ele><time>2019-08-30T09:56:21Z</time><name>PT1337</name></trkpt>
<trkpt lat="53.238798" lon="-1.848598"><ele>340</ele><time>2019-08-30T09:56:22Z</time><name>PT1338</name></trkpt>
<trkpt lat="53.238786" lon="-1.848604"><ele>340</ele><time>2019-08-30T09:56:22Z</time><name>PT1339</name></trkpt>
<trkpt lat="53.238772" lon="-1.848609"><ele>340</ele><time>2019-08-30T09:56:23Z</time><name>PT1340</name></trkpt>
<trkpt lat="53.238759" lon="-1.848618"><ele>340</ele><time>2019-08-30T09:56:25Z</time><name>PT1341</name></trkpt>
<trkpt lat="53.238748" lon="-1.848624"><ele>340</ele><time>2019-08-30T09:56:25Z</time><name>PT1342</name></trkpt>
<trkpt lat="53.238737" lon="-1.848630"><ele>340</ele><time>2019-08-30T09:56:26Z</time><name>PT1343</name></trkpt>
<trkpt lat="53.238725" lon="-1.848637"><ele>339</ele><time>2019-08-30T09:56:28Z</time><name>PT1344</name></trkpt>
<trkpt lat="53.238713" lon="-1.848648"><ele>339</ele><time>2019-08-30T09:56:28Z</time><name>PT1345</name></trkpt>
<trkpt lat="53.238701" lon="-1.848659"><ele>339</ele><time>2019-08-30T09:56:29Z</time><name>PT1346</name></trkpt>
<trkpt lat="53.238687" lon="-1.848670"><ele>339</ele><time>2019-08-30T09:56:31Z</time><name>PT1347</name></trkpt>
<trkpt lat="53.238673" lon="-1.848683"><ele>339</ele><time>2019-08-30T09:56:31Z</time><name>PT1348</name></trkpt>
<trkpt lat="53.238660" lon="-1.848695"><ele>339</ele><time>2019-08-30T09:56:32Z</time><name>PT1349</name></trkpt>
<trkpt lat="53.238649" lon="-1.848704"><ele>339</ele><time>2019-08-30T09:56:34Z</time><name>PT1350</name></trkpt>
<trkpt lat="53.238638" lon="-1.848714"><ele>340</ele><time>2019-08-30T09:56:34Z</time><name>PT1351</name></trkpt>
<trkpt lat="53.238624" lon="-1.848726"><ele>340</ele><time>2019-08-30T09:56:35Z</time><name>PT1352</name></trkpt>
<trkpt lat="53.238612" lon="-1.848735"><ele>340</ele><time>2019-08-30T09:56:37Z</time><name>PT1353</name></trkpt>
<trkpt lat="53.238601" lon="-1.848745"><ele>340</ele><time>2019-08-30T09:56:37Z</time><name>PT1354</name></trkpt>
<trkpt lat="53.238589" lon="-1.848759"><ele>340</ele><time>2019-08-30T09:56:38Z</time><name>PT1355</name></trkpt>
<trkpt lat="53.238578" lon="-1.848771"><ele>340</ele><time>2019-08-30T09:56:40Z</time><name>PT1356</name></trkpt>
<trkpt lat="53.238568" lon="-1.848781"><ele>340</ele><time>2019-08-30T09:56:40Z</time><name>PT1357</name></trkpt>
<trkpt lat="53.238554" lon="-1.848792"><ele>341</ele><time>2019-08-30T09:56:41Z</time><name>PT1358</name></trkpt>
<trkpt lat="53.238537" lon="-1.848797"><ele>341</ele><time>2019-08-30T09:56:43Z</time><name>PT1359</name></trkpt>
<trkpt lat="53.238526" lon="-1.848808"><ele>341</ele><time>2019-08-30T09:56:43Z</time><name>PT1360</name></trkpt>
<trkpt lat="53.238515" lon="-1.848817"><ele>341</ele><time>2019-08-30T09:56:44Z</time><name>PT1361</name></trkpt>
<trkpt lat="53.238504" lon="-1.848830"><ele>341</ele><time>2019-08-30T09:56:46Z</time><name>PT1362</name></trkpt>
<trkpt lat="53.238492" lon="-1.848841"><ele>341</ele><time>2019-08-30T09:56:46Z</time><name>PT1363</name></trkpt>
<trkpt lat="53.238481" lon="-1.848849"><ele>341</ele><time>2019-08-30T09:56:47Z</time><name>PT1364</name></trkpt>
<trkpt lat="53.238468" lon="-1.848857"><ele>342</ele><time>2019-08-30T09:56:49Z</time><name>PT1365</name></trkpt>
<trkpt lat="53.238455" lon="-1.848865"><ele>342</ele><time>2019-08-30T09:56:49Z</time><name>PT1366</name></trkpt>
<trkpt lat="53.238446" lon="-1.848873"><ele>342</ele><time>2019-08-30T09:56:50Z</time><name>PT1367</name></trkpt>
<trkpt lat="53.238436" lon="-1.848882"><ele>342</ele><time>2019-08-30T09:56:52Z</time><name>PT1368</name></trkpt>
<trkpt lat="53.238425" lon="-1.848894"><ele>342</ele><time>2019-08-30T09:56:52Z</time><name>PT1369</name></trkpt>
<trkpt lat="53.238414" lon="-1.848904"><ele>341</ele><time>2019-08-30T09:56:53Z</time><name>PT1370</name></trkpt>
<trkpt lat="53.238403" lon="-1.848912"><ele>341</ele><time>2019-08-30T09:56:55Z</time><name>PT1371</name></trkpt>
<trkpt lat="53.238390" lon="-1.848920"><ele>341</ele><time>2019-08-30T09:56:55Z</time><name>PT1372</name></trkpt>
<trkpt lat="53.238376" lon="-1.848928"><ele>341</ele><time>2019-08-30T09:56:56Z</time><name>PT1373</name></trkpt>
<trkpt lat="53.238367" lon="-1.848935"><ele>341</ele><time>2019-08-30T09:56:58Z</time><name>PT1374</name></trkpt>
<trkpt lat="53.238354" lon="-1.848941"><ele>342</ele><time>2019-08-30T09:56:58Z</time><name>PT1375</name></trkpt>
<trkpt lat="53.238343" lon="-1.848949"><ele>341</ele><time>2019-08-30T09:56:59Z</time><name>PT1376</name></trkpt>
<trkpt lat="53.238333" lon="-1.848954"><ele>341</ele><time>2019-08-30T09:57:01Z</time><name>PT1377</name></trkpt>
<trkpt lat="53.238320" lon="-1.848962"><ele>341</ele><time>2019-08-30T09:57:01Z</time><name>PT1378</name></trkpt>
<trkpt lat="53.238308" lon="-1.848967"><ele>341</ele><time>2019-08-30T09:57:02Z</time><name>PT1379</name></trkpt>
<trkpt lat="53.238293" lon="-1.848975"><ele>341</ele><time>2019-08-30T09:57:04Z</time><name>PT1380</name></trkpt>
<trkpt lat="53.238283" lon="-1.848980"><ele>341</ele><time>2019-08-30T09:57:04Z</time><name>PT1381</name></trkpt>
<trkpt lat="53.238268" lon="-1.848991"><ele>341</ele><time>2019-08-30T09:57:05Z</time><name>PT1382</name></trkpt>
<trkpt lat="53.238249" lon="-1.848998"><ele>342</ele><time>2019-08-30T09:57:07Z</time><name>PT1383</name></trkpt>
<trkpt lat="53.238221" lon="-1.849014"><ele>342</ele><time>2019-08-30T09:57:07Z</time><name>PT1384</name></trkpt>
<trkpt lat="53.238206" lon="-1.849012"><ele>341</ele><time>2019-08-30T09:57:08Z</time><name>PT1385</name></trkpt>
<trkpt lat="53.238191" lon="-1.849014"><ele>341</ele><time>2019-08-30T09:57:10Z</time><name>PT1386</name></trkpt>
<trkpt lat="53.238177" lon="-1.849015"><ele>341</ele><time>2019-08-30T09:57:10Z</time><name>PT1387</name></trkpt>
<trkpt lat="53.238166" lon="-1.849019"><ele>341</ele><time>2019-08-30T09:57:11Z</time><name>PT1388</name></trkpt>
<trkpt lat="53.238154" lon="-1.849019"><ele>341</ele><time>2019-08-30T09:57:13Z</time><name>PT1389</name></trkpt>
<trkpt lat="53.238142" lon="-1.849018"><ele>340</ele><time>2019-08-30T09:57:13Z</time><name>PT1390</name></trkpt>
<trkpt lat="53.238129" lon="-1.849020"><ele>340</ele><time>2019-08-30T09:57:14Z</time><name>PT1391</name></trkpt>
<trkpt lat="53.238117" lon="-1.849021"><ele>341</ele><time>2019-08-30T09:57:16Z</time><name>PT1392</name></trkpt>
<trkpt lat="53.238106" lon="-1.849020"><ele>341</ele><time>2019-08-30T09:57:16Z</time><name>PT1393</name></trkpt>
<trkpt lat="53.238096" lon="-1.849019"><ele>341</ele><time>2019-08-30T09:57:17Z</time><name>PT1394</name></trkpt>
<trkpt lat="53.238085" lon="-1.849019"><ele>341</ele><time>2019-08-30T09:57:19Z</time><name>PT1395</name></trkpt>
<trkpt lat="53.238074" lon="-1.849019"><ele>341</ele><time>2019-08-30T09:57:19Z</time><name>PT1396</name></trkpt>
<trkpt lat="53.238061" lon="-1.849016"><ele>341</ele><time>2019-08-30T09:57:20Z</time><name>PT1397</name></trkpt>
<trkpt lat="53.238048" lon="-1.849012"><ele>340</ele><time>2019-08-30T09:57:22Z</time><name>PT1398</name></trkpt>
<trkpt lat="53.238037" lon="-1.849009"><ele>340</ele><time>2019-08-30T09:57:22Z</time><name>PT1399</name></trkpt>
<trkpt lat="53.238024" lon="-1.849007"><ele>341</ele><time>2019-08-30T09:57:23Z</time><name>PT1400</name></trkpt>
<trkpt lat="53.238011" lon="-1.849005"><ele>341</ele><time>2019-08-30T09:57:25Z</time><name>PT1401</name></trkpt>
<trkpt lat="53.237998" lon="-1.849005"><ele>341</ele><time>2019-08-30T09:57:25Z</time><name>PT1402</name></trkpt>
<trkpt lat="53.237984" lon="-1.849004"><ele>341</ele><time>2019-08-30T09:57:26Z</time><name>PT1403</name></trkpt>
<trkpt lat="53.237971" lon="-1.849000"><ele>341</ele><time>2019-08-30T09:57:28Z</time><name>PT1404</name></trkpt>
<trkpt lat="53.237958" lon="-1.848997"><ele>341</ele><time>2019-08-30T09:57:28Z</time><name>PT1405</name></trkpt>
<trkpt lat="53.237946" lon="-1.848994"><ele>341</ele><time>2019-08-30T09:57:29Z</time><name>PT1406</name></trkpt>
<trkpt lat="53.237933" lon="-1.848992"><ele>341</ele><time>2019-08-30T09:57:31Z</time><name>PT1407</name></trkpt>
<trkpt lat="53.237920" lon="-1.848989"><ele>341</ele><time>2019-08-30T09:57:31Z</time><name>PT1408</name></trkpt>
<trkpt lat="53.237908" lon="-1.848988"><ele>341</ele><time>2019-08-30T09:57:32Z</time><name>PT1409</name></trkpt>
<trkpt lat="53.237895" lon="-1.848985"><ele>341</ele><time>2019-08-30T09:57:34Z</time><name>PT1410</name></trkpt>
<trkpt lat="53.237881" lon="-1.848981"><ele>341</ele><time>2019-08-30T09:57:34Z</time><name>PT1411</name></trkpt>
<trkpt lat="53.237869" lon="-1.848978"><ele>341</ele><time>2019-08-30T09:57:35Z</time><name>PT1412</name></trkpt>
<trkpt lat="53.237857" lon="-1.848975"><ele>341</ele><time>2019-08-30T09:57:37Z</time><name>PT1413</name></trkpt>
<trkpt lat="53.237843" lon="-1.848968"><ele>341</ele><time>2019-08-30T09:57:37Z</time><name>PT1414</name></trkpt>
<trkpt lat="53.237832" lon="-1.848966"><ele>341</ele><time>2019-08-30T09:57:38Z</time><name>PT1415</name></trkpt>
<trkpt lat="53.237820" lon="-1.848966"><ele>340</ele><time>2019-08-30T09:57:40Z</time><name>PT1416</name></trkpt>
<trkpt lat="53.237807" lon="-1.848964"><ele>341</ele><time>2019-08-30T09:57:40Z</time><name>PT1417</name></trkpt>
<trkpt lat="53.237796" lon="-1.848961"><ele>341</ele><time>2019-08-30T09:57:41Z</time><name>PT1418</name></trkpt>
<trkpt lat="53.237787" lon="-1.848963"><ele>342</ele><time>2019-08-30T09:57:43Z</time><name>PT1419</name></trkpt>
<trkpt lat="53.237773" lon="-1.848962"><ele>342</ele><time>2019-08-30T09:57:43Z</time><name>PT1420</name></trkpt>
<trkpt lat="53.237760" lon="-1.848961"><ele>342</ele><time>2019-08-30T09:57:44Z</time><name>PT1421</name></trkpt>
<trkpt lat="53.237746" lon="-1.848967"><ele>340</ele><time>2019-08-30T09:57:46Z</time><name>PT1422</name></trkpt>
<trkpt lat="53.237730" lon="-1.848970"><ele>339</ele><time>2019-08-30T09:57:46Z</time><name>PT1423</name></trkpt>
<trkpt lat="53.237717" lon="-1.848970"><ele>339</ele><time>2019-08-30T09:57:47Z</time><name>PT1424</name></trkpt>
<trkpt lat="53.237705" lon="-1.848969"><ele>340</ele><time>2019-08-30T09:57:49Z</time><name>PT1425</name></trkpt>
<trkpt lat="53.237695" lon="-1.848972"><ele>340</ele><time>2019-08-30T09:57:49Z</time><name>PT1426</name></trkpt>
<trkpt lat="53.237683" lon="-1.848971"><ele>340</ele><time>2019-08-30T09:57:50Z</time><name>PT1427</name></trkpt>
<trkpt lat="53.237673" lon="-1.848969"><ele>340</ele><time>2019-08-30T09:57:52Z</time><name>PT1428</name></trkpt>
<trkpt lat="53.237662" lon="-1.848966"><ele>339</ele><time>2019-08-30T09:57:52Z</time><name>PT1429</name></trkpt>
<trkpt lat="53.237649" lon="-1.848961"><ele>339</ele><time>2019-08-30T09:57:53Z</time><name>PT1430</name></trkpt>
<trkpt lat="53.237636" lon="-1.848957"><ele>340</ele><time>2019-08-30T09:57:55Z</time><name>PT1431</name></trkpt>
<trkpt lat="53.237623" lon="-1.848956"><ele>339</ele><time>2019-08-30T09:57:55Z</time><name>PT1432</name></trkpt>
<trkpt lat="53.237610" lon="-1.848959"><ele>339</ele><time>2019-08-30T09:57:56Z</time><name>PT1433</name></trkpt>
<trkpt lat="53.237597" lon="-1.848957"><ele>339</ele><time>2019-08-30T09:57:58Z</time><name>PT1434</name></trkpt>
<trkpt lat="53.237585" lon="-1.848951"><ele>339</ele><time>2019-08-30T09:57:58Z</time><name>PT1435</name></trkpt>
<trkpt lat="53.237571" lon="-1.848946"><ele>339</ele><time>2019-08-30T09:57:59Z</time><name>PT1436</name></trkpt>
<trkpt lat="53.237555" lon="-1.848941"><ele>339</ele><time>2019-08-30T09:58:01Z</time><name>PT1437</name></trkpt>
<trkpt lat="53.237540" lon="-1.848940"><ele>339</ele><time>2019-08-30T09:58:01Z</time><name>PT1438</name></trkpt>
<trkpt lat="53.237529" lon="-1.848935"><ele>339</ele><time>2019-08-30T09:58:02Z</time><name>PT1439</name></trkpt>
<trkpt lat="53.237515" lon="-1.848931"><ele>339</ele><time>2019-08-30T09:58:04Z</time><name>PT1440</name></trkpt>
<trkpt lat="53.237504" lon="-1.848927"><ele>339</ele><time>2019-08-30T09:58:04Z</time><name>PT1441</name></trkpt>
<trkpt lat="53.237495" lon="-1.848923"><ele>339</ele><time>2019-08-30T09:58:05Z</time><name>PT1442</name></trkpt>
<trkpt lat="53.237483" lon="-1.848920"><ele>339</ele><time>2019-08-30T09:58:07Z</time><name>PT1443</name></trkpt>
<trkpt lat="53.237470" lon="-1.848919"><ele>339</ele><time>2019-08-30T09:58:07Z</time><name>PT1444</name></trkpt>
<trkpt lat="53.237459" lon="-1.848919"><ele>339</ele><time>2019-08-30T09:58:08Z</time><name>PT1445</name></trkpt>
<trkpt lat="53.237445" lon="-1.848920"><ele>338</ele><time>2019-08-30T09:58:10Z</time><name>PT1446</name></trkpt>
<trkpt lat="53.237434" lon="-1.848918"><ele>338</ele><time>2019-08-30T09:58:10Z</time><name>PT1447</name></trkpt>
<trkpt lat="53.237424" lon="-1.848921"><ele>338</ele><time>2019-08-30T09:58:11Z</time><name>PT1448</name></trkpt>
<trkpt lat="53.237414" lon="-1.848926"><ele>338</ele><time>2019-08-30T09:58:13Z</time><name>PT1449</name></trkpt>
<trkpt lat="53.237404" lon="-1.848931"><ele>338</ele><time>2019-08-30T09:58:13Z</time><name>PT1450</name></trkpt>
<trkpt lat="53.237398" lon="-1.848940"><ele>337</ele><time>2019-08-30T09:58:14Z</time><name>PT1451</name></trkpt>
<trkpt lat="53.237386" lon="-1.848950"><ele>338</ele><time>2019-08-30T09:58:16Z</time><name>PT1452</name></trkpt>
<trkpt lat="53.237368" lon="-1.848962"><ele>340</ele><time>2019-08-30T09:58:16Z</time><name>PT1453</name></trkpt>
<trkpt lat="53.237358" lon="-1.848971"><ele>342</ele><time>2019-08-30T09:58:17Z</time><name>PT1454</name></trkpt>
<trkpt lat="53.237347" lon="-1.848988"><ele>342</ele><time>2019-08-30T09:58:19Z</time><name>PT1455</name></trkpt>
<trkpt lat="53.237339" lon="-1.849002"><ele>343</ele><time>2019-08-30T09:58:19Z</time><name>PT1456</name></trkpt>
<trkpt lat="53.237331" lon="-1.849017"><ele>343</ele><time>2019-08-30T09:58:20Z</time><name>PT1457</name></trkpt>
<trkpt lat="53.237322" lon="-1.849031"><ele>343</ele><time>2019-08-30T09:58:22Z</time><name>PT1458</name></trkpt>
<trkpt lat="53.237313" lon="-1.849048"><ele>343</ele><time>2019-08-30T09:58:22Z</time><name>PT1459</name></trkpt>
<trkpt lat="53.237305" lon="-1.849065"><ele>344</ele><time>2019-08-30T09:58:23Z</time><name>PT1460</name></trkpt>
<trkpt lat="53.237298" lon="-1.849083"><ele>344</ele><time>2019-08-30T09:58:25Z</time><name>PT1461</name></trkpt>
<trkpt lat="53.237291" lon="-1.849100"><ele>344</ele><time>2019-08-30T09:58:25Z</time><name>PT1462</name></trkpt>
<trkpt lat="53.237283" lon="-1.849118"><ele>344</ele><time>2019-08-30T09:58:26Z</time><name>PT1463</name></trkpt>
<trkpt lat="53.237275" lon="-1.849133"><ele>344</ele><time>2019-08-30T09:58:28Z</time><name>PT1464</name></trkpt>
<trkpt lat="53.237264" lon="-1.849158"><ele>344</ele><time>2019-08-30T09:58:28Z</time><name>PT1465</name></trkpt>
<trkpt lat="53.237253" lon="-1.849178"><ele>344</ele><time>2019-08-30T09:58:29Z</time><name>PT1466</name></trkpt>
<trkpt lat="53.237245" lon="-1.849199"><ele>344</ele><time>2019-08-30T09:58:31Z</time><name>PT1467</name></trkpt>
<trkpt lat="53.237237" lon="-1.849216"><ele>344</ele><time>2019-08-30T09:58:31Z</time><name>PT1468</name></trkpt>
<trkpt lat="53.237230" lon="-1.849229"><ele>345</ele><time>2019-08-30T09:58:32Z</time><name>PT1469</name></trkpt>
<trkpt lat="53.237222" lon="-1.849243"><ele>345</ele><time>2019-08-30T09:58:34Z</time><name>PT1470</name></trkpt>
<trkpt lat="53.237211" lon="-1.849260"><ele>345</ele><time>2019-08-30T09:58:34Z</time><name>PT1471</name></trkpt>
<trkpt lat="53.237203" lon="-1.849274"><ele>344</ele><time>2019-08-30T09:58:35Z</time><name>PT1472</name></trkpt>
<trkpt lat="53.237192" lon="-1.849288"><ele>344</ele><time>2019-08-30T09:58:37Z</time><name>PT1473</name></trkpt>
<trkpt lat="53.237184" lon="-1.849299"><ele>344</ele><time>2019-08-30T09:58:37Z</time><name>PT1474</name></trkpt>
<trkpt lat="53.237177" lon="-1.849314"><ele>344</ele><time>2019-08-30T09:58:38Z</time><name>PT1475</name></trkpt>
<trkpt lat="53.237169" lon="-1.849330"><ele>344</ele><time>2019-08-30T09:58:40Z</time><name>PT1476</name></trkpt>
<trkpt lat="53.237160" lon="-1.849344"><ele>344</ele><time>2019-08-30T09:58:40Z</time><name>PT1477</name></trkpt>
<trkpt lat="53.237153" lon="-1.849358"><ele>344</ele><time>2019-08-30T09:58:41Z</time><name>PT1478</name></trkpt>
<trkpt lat="53.237149" lon="-1.849372"><ele>344</ele><time>2019-08-30T09:58:43Z</time><name>PT1479</name></trkpt>
<trkpt lat="53.237142" lon="-1.849387"><ele>343</ele><time>2019-08-30T09:58:43Z</time><name>PT1480</name></trkpt>
<trkpt lat="53.237134" lon="-1.849403"><ele>344</ele><time>2019-08-30T09:58:44Z</time><name>PT1481</name></trkpt>
<trkpt lat="53.237128" lon="-1.849417"><ele>343</ele><time>2019-08-30T09:58:46Z</time><name>PT1482</name></trkpt>
<trkpt lat="53.237124" lon="-1.849429"><ele>344</ele><time>2019-08-30T09:58:46Z</time><name>PT1483</name></trkpt>
<trkpt lat="53.237120" lon="-1.849440"><ele>344</ele><time>2019-08-30T09:58:47Z</time><name>PT1484</name></trkpt>
<trkpt lat="53.237120" lon="-1.849453"><ele>344</ele><time>2019-08-30T09:58:49Z</time><name>PT1485</name></trkpt>
<trkpt lat="53.237122" lon="-1.849461"><ele>344</ele><time>2019-08-30T09:58:49Z</time><name>PT1486</name></trkpt>
<trkpt lat="53.237120" lon="-1.849469"><ele>344</ele><time>2019-08-30T09:58:50Z</time><name>PT1487</name></trkpt>
<trkpt lat="53.237121" lon="-1.849470"><ele>344</ele><time>2019-08-30T09:58:52Z</time><name>PT1488</name></trkpt>
<trkpt lat="53.237121" lon="-1.849472"><ele>344</ele><time>2019-08-30T09:58:52Z</time><name>PT1489</name></trkpt>
<trkpt lat="53.237123" lon="-1.849488"><ele>344</ele><time>2019-08-30T09:58:59Z</time><name>PT1490</name></trkpt>
<trkpt lat="53.237129" lon="-1.849487"><ele>344</ele><time>2019-08-30T09:59:01Z</time><name>PT1491</name></trkpt>
<trkpt lat="53.237132" lon="-1.849493"><ele>344</ele><time>2019-08-30T09:59:01Z</time><name>PT1492</name></trkpt>
<trkpt lat="53.237134" lon="-1.849496"><ele>343</ele><time>2019-08-30T09:59:02Z</time><name>PT1493</name></trkpt>
<trkpt lat="53.237133" lon="-1.849495"><ele>343</ele><time>2019-08-30T09:59:04Z</time><name>PT1494</name></trkpt>
<trkpt lat="53.237131" lon="-1.849496"><ele>343</ele><time>2019-08-30T09:59:04Z</time><name>PT1495</name></trkpt>
<trkpt lat="53.237131" lon="-1.849500"><ele>343</ele><time>2019-08-30T09:59:05Z</time><name>PT1496</name></trkpt>
<trkpt lat="53.237137" lon="-1.849506"><ele>344</ele><time>2019-08-30T09:59:07Z</time><name>PT1497</name></trkpt>
<trkpt lat="53.237147" lon="-1.849518"><ele>345</ele><time>2019-08-30T09:59:07Z</time><name>PT1498</name></trkpt>
<trkpt lat="53.237158" lon="-1.849533"><ele>345</ele><time>2019-08-30T09:59:08Z</time><name>PT1499</name></trkpt>
<trkpt lat="53.237163" lon="-1.849550"><ele>345</ele><time>2019-08-30T09:59:10Z</time><name>PT1500</name></trkpt>
<trkpt lat="53.237168" lon="-1.849563"><ele>345</ele><time>2019-08-30T09:59:10Z</time><name>PT1501</name></trkpt>
<trkpt lat="53.237173" lon="-1.849576"><ele>344</ele><time>2019-08-30T09:59:11Z</time><name>PT1502</name></trkpt>
<trkpt lat="53.237179" lon="-1.849588"><ele>344</ele><time>2019-08-30T09:59:13Z</time><name>PT1503</name></trkpt>
<trkpt lat="53.237187" lon="-1.849600"><ele>344</ele><time>2019-08-30T09:59:13Z</time><name>PT1504</name></trkpt>
<trkpt lat="53.237194" lon="-1.849608"><ele>344</ele><time>2019-08-30T09:59:14Z</time><name>PT1505</name></trkpt>
<trkpt lat="53.237197" lon="-1.849618"><ele>344</ele><time>2019-08-30T09:59:16Z</time><name>PT1506</name></trkpt>
<trkpt lat="53.237202" lon="-1.849630"><ele>344</ele><time>2019-08-30T09:59:16Z</time><name>PT1507</name></trkpt>
<trkpt lat="53.237210" lon="-1.849642"><ele>344</ele><time>2019-08-30T09:59:17Z</time><name>PT1508</name></trkpt>
<trkpt lat="53.237219" lon="-1.849657"><ele>344</ele><time>2019-08-30T09:59:19Z</time><name>PT1509</name></trkpt>
<trkpt lat="53.237229" lon="-1.849671"><ele>344</ele><time>2019-08-30T09:59:19Z</time><name>PT1510</name></trkpt>
<trkpt lat="53.237244" lon="-1.849684"><ele>345</ele><time>2019-08-30T09:59:20Z</time><name>PT1511</name></trkpt>
<trkpt lat="53.237252" lon="-1.849698"><ele>345</ele><time>2019-08-30T09:59:22Z</time><name>PT1512</name></trkpt>
<trkpt lat="53.237257" lon="-1.849710"><ele>344</ele><time>2019-08-30T09:59:22Z</time><name>PT1513</name></trkpt>
<trkpt lat="53.237266" lon="-1.849722"><ele>344</ele><time>2019-08-30T09:59:23Z</time><name>PT1514</name></trkpt>
<trkpt lat="53.237272" lon="-1.849731"><ele>343</ele><time>2019-08-30T09:59:25Z</time><name>PT1515</name></trkpt>
<trkpt lat="53.237280" lon="-1.849741"><ele>343</ele><time>2019-08-30T09:59:25Z</time><name>PT1516</name></trkpt>
<trkpt lat="53.237285" lon="-1.849751"><ele>342</ele><time>2019-08-30T09:59:26Z</time><name>PT1517</name></trkpt>
<trkpt lat="53.237294" lon="-1.849764"><ele>342</ele><time>2019-08-30T09:59:28Z</time><name>PT1518</name></trkpt>
<trkpt lat="53.237300" lon="-1.849775"><ele>341</ele><time>2019-08-30T09:59:28Z</time><name>PT1519</name></trkpt>
<trkpt lat="53.237305" lon="-1.849784"><ele>341</ele><time>2019-08-30T09:59:29Z</time><name>PT1520</name></trkpt>
<trkpt lat="53.237312" lon="-1.849798"><ele>341</ele><time>2019-08-30T09:59:31Z</time><name>PT1521</name></trkpt>
<trkpt lat="53.237319" lon="-1.849811"><ele>341</ele><time>2019-08-30T09:59:31Z</time><name>PT1522</name></trkpt>
<trkpt lat="53.237327" lon="-1.849825"><ele>341</ele><time>2019-08-30T09:59:32Z</time><name>PT1523</name></trkpt>
<trkpt lat="53.237333" lon="-1.849835"><ele>340</ele><time>2019-08-30T09:59:34Z</time><name>PT1524</name></trkpt>
<trkpt lat="53.237338" lon="-1.849844"><ele>340</ele><time>2019-08-30T09:59:34Z</time><name>PT1525</name></trkpt>
<trkpt lat="53.237344" lon="-1.849851"><ele>340</ele><time>2019-08-30T09:59:35Z</time><name>PT1526</name></trkpt>
<trkpt lat="53.237344" lon="-1.849853"><ele>340</ele><time>2019-08-30T09:59:37Z</time><name>PT1527</name></trkpt>
<trkpt lat="53.237344" lon="-1.849855"><ele>339</ele><time>2019-08-30T09:59:37Z</time><name>PT1528</name></trkpt>
<trkpt lat="53.237359" lon="-1.849871"><ele>339</ele><time>2019-08-30T09:59:44Z</time><name>PT1529</name></trkpt>
<trkpt lat="53.237358" lon="-1.849871"><ele>339</ele><time>2019-08-30T09:59:46Z</time><name>PT1530</name></trkpt>
<trkpt lat="53.237369" lon="-1.849869"><ele>339</ele><time>2019-08-30T09:59:46Z</time><name>PT1531</name></trkpt>
<trkpt lat="53.237380" lon="-1.849876"><ele>339</ele><time>2019-08-30T09:59:47Z</time><name>PT1532</name></trkpt>
<trkpt lat="53.237389" lon="-1.849886"><ele>339</ele><time>2019-08-30T09:59:49Z</time><name>PT1533</name></trkpt>
<trkpt lat="53.237398" lon="-1.849903"><ele>339</ele><time>2019-08-30T09:59:49Z</time><name>PT1534</name></trkpt>
<trkpt lat="53.237402" lon="-1.849916"><ele>339</ele><time>2019-08-30T09:59:50Z</time><name>PT1535</name></trkpt>
<trkpt lat="53.237409" lon="-1.849927"><ele>339</ele><time>2019-08-30T09:59:52Z</time><name>PT1536</name></trkpt>
<trkpt lat="53.237417" lon="-1.849948"><ele>339</ele><time>2019-08-30T09:59:52Z</time><name>PT1537</name></trkpt>
<trkpt lat="53.237432" lon="-1.849967"><ele>339</ele><time>2019-08-30T09:59:53Z</time><name>PT1538</name></trkpt>
<trkpt lat="53.237444" lon="-1.849988"><ele>340</ele><time>2019-08-30T09:59:55Z</time><name>PT1539</name></trkpt>
<trkpt lat="53.237449" lon="-1.850008"><ele>339</ele><time>2019-08-30T09:59:55Z</time><name>PT1540</name></trkpt>
<trkpt lat="53.237453" lon="-1.850025"><ele>339</ele><time>2019-08-30T09:59:56Z</time><name>PT1541</name></trkpt>
<trkpt lat="53.237460" lon="-1.850048"><ele>339</ele><time>2019-08-30T09:59:58Z</time><name>PT1542</name></trkpt>
<trkpt lat="53.237467" lon="-1.850067"><ele>339</ele><time>2019-08-30T09:59:58Z</time><name>PT1543</name></trkpt>
<trkpt lat="53.237474" lon="-1.850080"><ele>339</ele><time>2019-08-30T09:59:59Z</time><name>PT1544</name></trkpt>
<trkpt lat="53.237481" lon="-1.850098"><ele>339</ele><time>2019-08-30T10:00:01Z</time><name>PT1545</name></trkpt>
<trkpt lat="53.237490" lon="-1.850114"><ele>339</ele><time>2019-08-30T10:00:01Z</time><name>PT1546</name></trkpt>
<trkpt lat="53.237497" lon="-1.850130"><ele>339</ele><time>2019-08-30T10:00:02Z</time><name>PT1547</name></trkpt>
<trkpt lat="53.237503" lon="-1.850146"><ele>339</ele><time>2019-08-30T10:00:04Z</time><name>PT1548</name></trkpt>
<trkpt lat="53.237510" lon="-1.850160"><ele>339</ele><time>2019-08-30T10:00:04Z</time><name>PT1549</name></trkpt>
<trkpt lat="53.237520" lon="-1.850178"><ele>339</ele><time>2019-08-30T10:00:05Z</time><name>PT1550</name></trkpt>
<trkpt lat="53.237528" lon="-1.850192"><ele>339</ele><time>2019-08-30T10:00:07Z</time><name>PT1551</name></trkpt>
<trkpt lat="53.237534" lon="-1.850207"><ele>339</ele><time>2019-08-30T10:00:07Z</time><name>PT1552</name></trkpt>
<trkpt lat="53.237543" lon="-1.850217"><ele>339</ele><time>2019-08-30T10:00:08Z</time><name>PT1553</name></trkpt>
<trkpt lat="53.237554" lon="-1.850226"><ele>339</ele><time>2019-08-30T10:00:10Z</time><name>PT1554</name></trkpt>
<trkpt lat="53.237561" lon="-1.850244"><ele>339</ele><time>2019-08-30T10:00:10Z</time><name>PT1555</name></trkpt>
<trkpt lat="53.237566" lon="-1.850264"><ele>339</ele><time>2019-08-30T10:00:11Z</time><name>PT1556</name></trkpt>
<trkpt lat="53.237573" lon="-1.850283"><ele>339</ele><time>2019-08-30T10:00:13Z</time><name>PT1557</name></trkpt>
<trkpt lat="53.237578" lon="-1.850302"><ele>339</ele><time>2019-08-30T10:00:13Z</time><name>PT1558</name></trkpt>
<trkpt lat="53.237584" lon="-1.850325"><ele>339</ele><time>2019-08-30T10:00:14Z</time><name>PT1559</name></trkpt>
<trkpt lat="53.237587" lon="-1.850348"><ele>339</ele><time>2019-08-30T10:00:16Z</time><name>PT1560</name></trkpt>
<trkpt lat="53.237593" lon="-1.850370"><ele>339</ele><time>2019-08-30T10:00:16Z</time><name>PT1561</name></trkpt>
<trkpt lat="53.237598" lon="-1.850391"><ele>339</ele><time>2019-08-30T10:00:17Z</time><name>PT1562</name></trkpt>
<trkpt lat="53.237602" lon="-1.850407"><ele>339</ele><time>2019-08-30T10:00:19Z</time><name>PT1563</name></trkpt>
<trkpt lat="53.237607" lon="-1.850422"><ele>339</ele><time>2019-08-30T10:00:19Z</time><name>PT1564</name></trkpt>
<trkpt lat="53.237610" lon="-1.850440"><ele>339</ele><time>2019-08-30T10:00:20Z</time><name>PT1565</name></trkpt>
<trkpt lat="53.237615" lon="-1.850466"><ele>339</ele><time>2019-08-30T10:00:21Z</time><name>PT1566</name></trkpt>
<trkpt lat="53.237616" lon="-1.850487"><ele>338</ele><time>2019-08-30T10:00:22Z</time><name>PT1567</name></trkpt>
<trkpt lat="53.237619" lon="-1.850505"><ele>338</ele><time>2019-08-30T10:00:23Z</time><name>PT1568</name></trkpt>
<trkpt lat="53.237621" lon="-1.850524"><ele>339</ele><time>2019-08-30T10:00:25Z</time><name>PT1569</name></trkpt>
<trkpt lat="53.237624" lon="-1.850546"><ele>339</ele><time>2019-08-30T10:00:25Z</time><name>PT1570</name></trkpt>
<trkpt lat="53.237627" lon="-1.850565"><ele>339</ele><time>2019-08-30T10:00:26Z</time><name>PT1571</name></trkpt>
<trkpt lat="53.237633" lon="-1.850586"><ele>339</ele><time>2019-08-30T10:00:27Z</time><name>PT1572</name></trkpt>
<trkpt lat="53.237639" lon="-1.850608"><ele>339</ele><time>2019-08-30T10:00:28Z</time><name>PT1573</name></trkpt>
<trkpt lat="53.237644" lon="-1.850626"><ele>339</ele><time>2019-08-30T10:00:29Z</time><name>PT1574</name></trkpt>
<trkpt lat="53.237648" lon="-1.850644"><ele>339</ele><time>2019-08-30T10:00:31Z</time><name>PT1575</name></trkpt>
<trkpt lat="53.237653" lon="-1.850665"><ele>339</ele><time>2019-08-30T10:00:31Z</time><name>PT1576</name></trkpt>
<trkpt lat="53.237657" lon="-1.850688"><ele>339</ele><time>2019-08-30T10:00:32Z</time><name>PT1577</name></trkpt>
<trkpt lat="53.237662" lon="-1.850707"><ele>339</ele><time>2019-08-30T10:00:34Z</time><name>PT1578</name></trkpt>
<trkpt lat="53.237668" lon="-1.850727"><ele>339</ele><time>2019-08-30T10:00:34Z</time><name>PT1579</name></trkpt>
<trkpt lat="53.237672" lon="-1.850748"><ele>339</ele><time>2019-08-30T10:00:35Z</time><name>PT1580</name></trkpt>
<trkpt lat="53.237676" lon="-1.850766"><ele>339</ele><time>2019-08-30T10:00:37Z</time><name>PT1581</name></trkpt>
<trkpt lat="53.237679" lon="-1.850785"><ele>339</ele><time>2019-08-30T10:00:37Z</time><name>PT1582</name></trkpt>
<trkpt lat="53.237681" lon="-1.850808"><ele>339</ele><time>2019-08-30T10:00:38Z</time><name>PT1583</name></trkpt>
<trkpt lat="53.237684" lon="-1.850829"><ele>339</ele><time>2019-08-30T10:00:40Z</time><name>PT1584</name></trkpt>
<trkpt lat="53.237687" lon="-1.850848"><ele>339</ele><time>2019-08-30T10:00:40Z</time><name>PT1585</name></trkpt>
<trkpt lat="53.237689" lon="-1.850867"><ele>340</ele><time>2019-08-30T10:00:41Z</time><name>PT1586</name></trkpt>
<trkpt lat="53.237692" lon="-1.850889"><ele>339</ele><time>2019-08-30T10:00:43Z</time><name>PT1587</name></trkpt>
<trkpt lat="53.237694" lon="-1.850907"><ele>339</ele><time>2019-08-30T10:00:43Z</time><name>PT1588</name></trkpt>
<trkpt lat="53.237697" lon="-1.850929"><ele>340</ele><time>2019-08-30T10:00:44Z</time><name>PT1589</name></trkpt>
<trkpt lat="53.237700" lon="-1.850949"><ele>340</ele><time>2019-08-30T10:00:46Z</time><name>PT1590</name></trkpt>
<trkpt lat="53.237704" lon="-1.850966"><ele>340</ele><time>2019-08-30T10:00:46Z</time><name>PT1591</name></trkpt>
<trkpt lat="53.237710" lon="-1.850983"><ele>340</ele><time>2019-08-30T10:00:47Z</time><name>PT1592</name></trkpt>
<trkpt lat="53.237715" lon="-1.851000"><ele>339</ele><time>2019-08-30T10:00:49Z</time><name>PT1593</name></trkpt>
<trkpt lat="53.237720" lon="-1.851015"><ele>339</ele><time>2019-08-30T10:00:49Z</time><name>PT1594</name></trkpt>
<trkpt lat="53.237724" lon="-1.851033"><ele>339</ele><time>2019-08-30T10:00:50Z</time><name>PT1595</name></trkpt>
<trkpt lat="53.237729" lon="-1.851051"><ele>339</ele><time>2019-08-30T10:00:52Z</time><name>PT1596</name></trkpt>
<trkpt lat="53.237736" lon="-1.851065"><ele>339</ele><time>2019-08-30T10:00:52Z</time><name>PT1597</name></trkpt>
<trkpt lat="53.237743" lon="-1.851082"><ele>339</ele><time>2019-08-30T10:00:53Z</time><name>PT1598</name></trkpt>
<trkpt lat="53.237749" lon="-1.851097"><ele>339</ele><time>2019-08-30T10:00:54Z</time><name>PT1599</name></trkpt>
<trkpt lat="53.237753" lon="-1.851111"><ele>339</ele><time>2019-08-30T10:00:55Z</time><name>PT1600</name></trkpt>
<trkpt lat="53.237758" lon="-1.851128"><ele>338</ele><time>2019-08-30T10:00:56Z</time><name>PT1601</name></trkpt>
<trkpt lat="53.237761" lon="-1.851143"><ele>338</ele><time>2019-08-30T10:00:58Z</time><name>PT1602</name></trkpt>
<trkpt lat="53.237767" lon="-1.851158"><ele>338</ele><time>2019-08-30T10:00:58Z</time><name>PT1603</name></trkpt>
<trkpt lat="53.237773" lon="-1.851179"><ele>337</ele><time>2019-08-30T10:00:59Z</time><name>PT1604</name></trkpt>
<trkpt lat="53.237777" lon="-1.851195"><ele>337</ele><time>2019-08-30T10:01:01Z</time><name>PT1605</name></trkpt>
<trkpt lat="53.237781" lon="-1.851209"><ele>336</ele><time>2019-08-30T10:01:01Z</time><name>PT1606</name></trkpt>
<trkpt lat="53.237785" lon="-1.851225"><ele>337</ele><time>2019-08-30T10:01:02Z</time><name>PT1607</name></trkpt>
<trkpt lat="53.237788" lon="-1.851242"><ele>336</ele><time>2019-08-30T10:01:04Z</time><name>PT1608</name></trkpt>
<trkpt lat="53.237792" lon="-1.851254"><ele>336</ele><time>2019-08-30T10:01:04Z</time><name>PT1609</name></trkpt>
<trkpt lat="53.237797" lon="-1.851264"><ele>336</ele><time>2019-08-30T10:01:05Z</time><name>PT1610</name></trkpt>
<trkpt lat="53.237800" lon="-1.851269"><ele>336</ele><time>2019-08-30T10:01:07Z</time><name>PT1611</name></trkpt>
<trkpt lat="53.237801" lon="-1.851273"><ele>336</ele><time>2019-08-30T10:01:07Z</time><name>PT1612</name></trkpt>
<trkpt lat="53.237802" lon="-1.851273"><ele>336</ele><time>2019-08-30T10:01:08Z</time><name>PT1613</name></trkpt>
<trkpt lat="53.237803" lon="-1.851274"><ele>336</ele><time>2019-08-30T10:01:16Z</time><name>PT1614</name></trkpt>
<trkpt lat="53.237804" lon="-1.851273"><ele>336</ele><time>2019-08-30T10:01:17Z</time><name>PT1615</name></trkpt>
<trkpt lat="53.237809" lon="-1.851272"><ele>337</ele><time>2019-08-30T10:01:19Z</time><name>PT1616</name></trkpt>
<trkpt lat="53.237816" lon="-1.851272"><ele>336</ele><time>2019-08-30T10:01:19Z</time><name>PT1617</name></trkpt>
<trkpt lat="53.237833" lon="-1.851276"><ele>336</ele><time>2019-08-30T10:01:20Z</time><name>PT1618</name></trkpt>
<trkpt lat="53.237839" lon="-1.851282"><ele>336</ele><time>2019-08-30T10:01:22Z</time><name>PT1619</name></trkpt>
<trkpt lat="53.237842" lon="-1.851288"><ele>336</ele><time>2019-08-30T10:01:22Z</time><name>PT1620</name></trkpt>
<trkpt lat="53.237843" lon="-1.851289"><ele>335</ele><time>2019-08-30T10:01:23Z</time><name>PT1621</name></trkpt>
<trkpt lat="53.237845" lon="-1.851296"><ele>335</ele><time>2019-08-30T10:01:25Z</time><name>PT1622</name></trkpt>
<trkpt lat="53.237845" lon="-1.851301"><ele>335</ele><time>2019-08-30T10:01:25Z</time><name>PT1623</name></trkpt>
<trkpt lat="53.237854" lon="-1.851317"><ele>335</ele><time>2019-08-30T10:01:31Z</time><name>PT1624</name></trkpt>
<trkpt lat="53.237859" lon="-1.851335"><ele>335</ele><time>2019-08-30T10:01:31Z</time><name>PT1625</name></trkpt>
<trkpt lat="53.237863" lon="-1.851350"><ele>335</ele><time>2019-08-30T10:01:32Z</time><name>PT1626</name></trkpt>
<trkpt lat="53.237867" lon="-1.851365"><ele>335</ele><time>2019-08-30T10:01:34Z</time><name>PT1627</name></trkpt>
<trkpt lat="53.237872" lon="-1.851380"><ele>335</ele><time>2019-08-30T10:01:34Z</time><name>PT1628</name></trkpt>
<trkpt lat="53.237878" lon="-1.851397"><ele>335</ele><time>2019-08-30T10:01:35Z</time><name>PT1629</name></trkpt>
<trkpt lat="53.237885" lon="-1.851421"><ele>335</ele><time>2019-08-30T10:01:37Z</time><name>PT1630</name></trkpt>
<trkpt lat="53.237891" lon="-1.851438"><ele>334</ele><time>2019-08-30T10:01:37Z</time><name>PT1631</name></trkpt>
<trkpt lat="53.237896" lon="-1.851456"><ele>334</ele><time>2019-08-30T10:01:38Z</time><name>PT1632</name></trkpt>
<trkpt lat="53.237902" lon="-1.851474"><ele>334</ele><time>2019-08-30T10:01:40Z</time><name>PT1633</name></trkpt>
<trkpt lat="53.237908" lon="-1.851491"><ele>334</ele><time>2019-08-30T10:01:40Z</time><name>PT1634</name></trkpt>
<trkpt lat="53.237913" lon="-1.851511"><ele>334</ele><time>2019-08-30T10:01:41Z</time><name>PT1635</name></trkpt>
<trkpt lat="53.237919" lon="-1.851526"><ele>334</ele><time>2019-08-30T10:01:43Z</time><name>PT1636</name></trkpt>
<trkpt lat="53.237923" lon="-1.851542"><ele>334</ele><time>2019-08-30T10:01:43Z</time><name>PT1637</name></trkpt>
<trkpt lat="53.237928" lon="-1.851564"><ele>334</ele><time>2019-08-30T10:01:44Z</time><name>PT1638</name></trkpt>
<trkpt lat="53.237934" lon="-1.851581"><ele>333</ele><time>2019-08-30T10:01:46Z</time><name>PT1639</name></trkpt>
<trkpt lat="53.237939" lon="-1.851596"><ele>333</ele><time>2019-08-30T10:01:46Z</time><name>PT1640</name></trkpt>
<trkpt lat="53.237945" lon="-1.851617"><ele>333</ele><time>2019-08-30T10:01:47Z</time><name>PT1641</name></trkpt>
<trkpt lat="53.237951" lon="-1.851635"><ele>333</ele><time>2019-08-30T10:01:49Z</time><name>PT1642</name></trkpt>
<trkpt lat="53.237957" lon="-1.851652"><ele>333</ele><time>2019-08-30T10:01:49Z</time><name>PT1643</name></trkpt>
<trkpt lat="53.237963" lon="-1.851672"><ele>333</ele><time>2019-08-30T10:01:50Z</time><name>PT1644</name></trkpt>
<trkpt lat="53.237968" lon="-1.851689"><ele>333</ele><time>2019-08-30T10:01:52Z</time><name>PT1645</name></trkpt>
<trkpt lat="53.237974" lon="-1.851706"><ele>333</ele><time>2019-08-30T10:01:52Z</time><name>PT1646</name></trkpt>
<trkpt lat="53.237982" lon="-1.851725"><ele>333</ele><time>2019-08-30T10:01:53Z</time><name>PT1647</name></trkpt>
<trkpt lat="53.237989" lon="-1.851742"><ele>333</ele><time>2019-08-30T10:01:55Z</time><name>PT1648</name></trkpt>
<trkpt lat="53.237994" lon="-1.851759"><ele>333</ele><time>2019-08-30T10:01:55Z</time><name>PT1649</name></trkpt>
<trkpt lat="53.237999" lon="-1.851779"><ele>333</ele><time>2019-08-30T10:01:56Z</time><name>PT1650</name></trkpt>
<trkpt lat="53.238005" lon="-1.851799"><ele>332</ele><time>2019-08-30T10:01:58Z</time><name>PT1651</name></trkpt>
<trkpt lat="53.238011" lon="-1.851817"><ele>332</ele><time>2019-08-30T10:01:58Z</time><name>PT1652</name></trkpt>
<trkpt lat="53.238018" lon="-1.851833"><ele>332</ele><time>2019-08-30T10:01:59Z</time><name>PT1653</name></trkpt>
<trkpt lat="53.238025" lon="-1.851851"><ele>332</ele><time>2019-08-30T10:02:01Z</time><name>PT1654</name></trkpt>
<trkpt lat="53.238031" lon="-1.851867"><ele>332</ele><time>2019-08-30T10:02:01Z</time><name>PT1655</name></trkpt>
<trkpt lat="53.238038" lon="-1.851886"><ele>332</ele><time>2019-08-30T10:02:02Z</time><name>PT1656</name></trkpt>
<trkpt lat="53.238046" lon="-1.851905"><ele>331</ele><time>2019-08-30T10:02:04Z</time><name>PT1657</name></trkpt>
<trkpt lat="53.238051" lon="-1.851922"><ele>331</ele><time>2019-08-30T10:02:04Z</time><name>PT1658</name></trkpt>
<trkpt lat="53.238056" lon="-1.851940"><ele>331</ele><time>2019-08-30T10:02:05Z</time><name>PT1659</name></trkpt>
<trkpt lat="53.238065" lon="-1.851957"><ele>331</ele><time>2019-08-30T10:02:06Z</time><name>PT1660</name></trkpt>
<trkpt lat="53.238072" lon="-1.851974"><ele>331</ele><time>2019-08-30T10:02:07Z</time><name>PT1661</name></trkpt>
<trkpt lat="53.238078" lon="-1.851990"><ele>331</ele><time>2019-08-30T10:02:08Z</time><name>PT1662</name></trkpt>
<trkpt lat="53.238085" lon="-1.852011"><ele>331</ele><time>2019-08-30T10:02:10Z</time><name>PT1663</name></trkpt>
<trkpt lat="53.238092" lon="-1.852030"><ele>331</ele><time>2019-08-30T10:02:10Z</time><name>PT1664</name></trkpt>
<trkpt lat="53.238098" lon="-1.852046"><ele>330</ele><time>2019-08-30T10:02:11Z</time><name>PT1665</name></trkpt>
<trkpt lat="53.238106" lon="-1.852062"><ele>331</ele><time>2019-08-30T10:02:13Z</time><name>PT1666</name></trkpt>
<trkpt lat="53.238113" lon="-1.852081"><ele>330</ele><time>2019-08-30T10:02:13Z</time><name>PT1667</name></trkpt>
<trkpt lat="53.238120" lon="-1.852099"><ele>330</ele><time>2019-08-30T10:02:14Z</time><name>PT1668</name></trkpt>
<trkpt lat="53.238127" lon="-1.852116"><ele>330</ele><time>2019-08-30T10:02:15Z</time><name>PT1669</name></trkpt>
<trkpt lat="53.238133" lon="-1.852136"><ele>330</ele><time>2019-08-30T10:02:16Z</time><name>PT1670</name></trkpt>
<trkpt lat="53.238139" lon="-1.852156"><ele>330</ele><time>2019-08-30T10:02:17Z</time><name>PT1671</name></trkpt>
<trkpt lat="53.238146" lon="-1.852173"><ele>330</ele><time>2019-08-30T10:02:19Z</time><name>PT1672</name></trkpt>
<trkpt lat="53.238154" lon="-1.852190"><ele>330</ele><time>2019-08-30T10:02:19Z</time><name>PT1673</name></trkpt>
<trkpt lat="53.238162" lon="-1.852210"><ele>330</ele><time>2019-08-30T10:02:20Z</time><name>PT1674</name></trkpt>
<trkpt lat="53.238169" lon="-1.852228"><ele>329</ele><time>2019-08-30T10:02:22Z</time><name>PT1675</name></trkpt>
<trkpt lat="53.238175" lon="-1.852245"><ele>329</ele><time>2019-08-30T10:02:22Z</time><name>PT1676</name></trkpt>
<trkpt lat="53.238181" lon="-1.852264"><ele>329</ele><time>2019-08-30T10:02:23Z</time><name>PT1677</name></trkpt>
<trkpt lat="53.238186" lon="-1.852285"><ele>329</ele><time>2019-08-30T10:02:25Z</time><name>PT1678</name></trkpt>
<trkpt lat="53.238192" lon="-1.852306"><ele>329</ele><time>2019-08-30T10:02:25Z</time><name>PT1679</name></trkpt>
<trkpt lat="53.238199" lon="-1.852324"><ele>329</ele><time>2019-08-30T10:02:26Z</time><name>PT1680</name></trkpt>
<trkpt lat="53.238207" lon="-1.852340"><ele>329</ele><time>2019-08-30T10:02:28Z</time><name>PT1681</name></trkpt>
<trkpt lat="53.238214" lon="-1.852356"><ele>329</ele><time>2019-08-30T10:02:28Z</time><name>PT1682</name></trkpt>
<trkpt lat="53.238221" lon="-1.852372"><ele>329</ele><time>2019-08-30T10:02:29Z</time><name>PT1683</name></trkpt>
<trkpt lat="53.238227" lon="-1.852389"><ele>329</ele><time>2019-08-30T10:02:31Z</time><name>PT1684</name></trkpt>
<trkpt lat="53.238233" lon="-1.852412"><ele>328</ele><time>2019-08-30T10:02:31Z</time><name>PT1685</name></trkpt>
<trkpt lat="53.238240" lon="-1.852430"><ele>328</ele><time>2019-08-30T10:02:32Z</time><name>PT1686</name></trkpt>
<trkpt lat="53.238247" lon="-1.852448"><ele>328</ele><time>2019-08-30T10:02:34Z</time><name>PT1687</name></trkpt>
<trkpt lat="53.238253" lon="-1.852468"><ele>328</ele><time>2019-08-30T10:02:34Z</time><name>PT1688</name></trkpt>
<trkpt lat="53.238261" lon="-1.852491"><ele>328</ele><time>2019-08-30T10:02:35Z</time><name>PT1689</name></trkpt>
<trkpt lat="53.238267" lon="-1.852513"><ele>328</ele><time>2019-08-30T10:02:37Z</time><name>PT1690</name></trkpt>
<trkpt lat="53.238273" lon="-1.852530"><ele>328</ele><time>2019-08-30T10:02:37Z</time><name>PT1691</name></trkpt>
<trkpt lat="53.238279" lon="-1.852546"><ele>328</ele><time>2019-08-30T10:02:38Z</time><name>PT1692</name></trkpt>
<trkpt lat="53.238286" lon="-1.852563"><ele>328</ele><time>2019-08-30T10:02:40Z</time><name>PT1693</name></trkpt>
<trkpt lat="53.238293" lon="-1.852583"><ele>328</ele><time>2019-08-30T10:02:40Z</time><name>PT1694</name></trkpt>
<trkpt lat="53.238299" lon="-1.852601"><ele>328</ele><time>2019-08-30T10:02:41Z</time><name>PT1695</name></trkpt>
<trkpt lat="53.238304" lon="-1.852620"><ele>328</ele><time>2019-08-30T10:02:43Z</time><name>PT1696</name></trkpt>
<trkpt lat="53.238311" lon="-1.852642"><ele>328</ele><time>2019-08-30T10:02:43Z</time><name>PT1697</name></trkpt>
<trkpt lat="53.238318" lon="-1.852664"><ele>328</ele><time>2019-08-30T10:02:44Z</time><name>PT1698</name></trkpt>
<trkpt lat="53.238324" lon="-1.852682"><ele>328</ele><time>2019-08-30T10:02:46Z</time><name>PT1699</name></trkpt>
<trkpt lat="53.238332" lon="-1.852702"><ele>328</ele><time>2019-08-30T10:02:46Z</time><name>PT1700</name></trkpt>
<trkpt lat="53.238339" lon="-1.852720"><ele>328</ele><time>2019-08-30T10:02:47Z</time><name>PT1701</name></trkpt>
<trkpt lat="53.238345" lon="-1.852736"><ele>328</ele><time>2019-08-30T10:02:49Z</time><name>PT1702</name></trkpt>
<trkpt lat="53.238351" lon="-1.852749"><ele>328</ele><time>2019-08-30T10:02:49Z</time><name>PT1703</name></trkpt>
<trkpt lat="53.238357" lon="-1.852765"><ele>328</ele><time>2019-08-30T10:02:50Z</time><name>PT1704</name></trkpt>
<trkpt lat="53.238362" lon="-1.852785"><ele>328</ele><time>2019-08-30T10:02:52Z</time><name>PT1705</name></trkpt>
<trkpt lat="53.238368" lon="-1.852803"><ele>328</ele><time>2019-08-30T10:02:52Z</time><name>PT1706</name></trkpt>
<trkpt lat="53.238376" lon="-1.852822"><ele>328</ele><time>2019-08-30T10:02:53Z</time><name>PT1707</name></trkpt>
<trkpt lat="53.238384" lon="-1.852840"><ele>327</ele><time>2019-08-30T10:02:55Z</time><name>PT1708</name></trkpt>
<trkpt lat="53.238390" lon="-1.852859"><ele>328</ele><time>2019-08-30T10:02:55Z</time><name>PT1709</name></trkpt>
<trkpt lat="53.238396" lon="-1.852880"><ele>328</ele><time>2019-08-30T10:02:56Z</time><name>PT1710</name></trkpt>
<trkpt lat="53.238403" lon="-1.852902"><ele>328</ele><time>2019-08-30T10:02:58Z</time><name>PT1711</name></trkpt>
<trkpt lat="53.238409" lon="-1.852921"><ele>327</ele><time>2019-08-30T10:02:58Z</time><name>PT1712</name></trkpt>
<trkpt lat="53.238416" lon="-1.852937"><ele>327</ele><time>2019-08-30T10:02:59Z</time><name>PT1713</name></trkpt>
<trkpt lat="53.238423" lon="-1.852957"><ele>327</ele><time>2019-08-30T10:03:01Z</time><name>PT1714</name></trkpt>
<trkpt lat="53.238431" lon="-1.852977"><ele>327</ele><time>2019-08-30T10:03:01Z</time><name>PT1715</name></trkpt>
<trkpt lat="53.238437" lon="-1.852994"><ele>327</ele><time>2019-08-30T10:03:02Z</time><name>PT1716</name></trkpt>
<trkpt lat="53.238443" lon="-1.853015"><ele>327</ele><time>2019-08-30T10:03:04Z</time><name>PT1717</name></trkpt>
<trkpt lat="53.238450" lon="-1.853035"><ele>327</ele><time>2019-08-30T10:03:04Z</time><name>PT1718</name></trkpt>
<trkpt lat="53.238457" lon="-1.853053"><ele>327</ele><time>2019-08-30T10:03:05Z</time><name>PT1719</name></trkpt>
<trkpt lat="53.238465" lon="-1.853072"><ele>328</ele><time>2019-08-30T10:03:07Z</time><name>PT1720</name></trkpt>
<trkpt lat="53.238472" lon="-1.853091"><ele>327</ele><time>2019-08-30T10:03:07Z</time><name>PT1721</name></trkpt>
<trkpt lat="53.238477" lon="-1.853109"><ele>327</ele><time>2019-08-30T10:03:08Z</time><name>PT1722</name></trkpt>
<trkpt lat="53.238482" lon="-1.853129"><ele>327</ele><time>2019-08-30T10:03:10Z</time><name>PT1723</name></trkpt>
<trkpt lat="53.238488" lon="-1.853148"><ele>327</ele><time>2019-08-30T10:03:10Z</time><name>PT1724</name></trkpt>
<trkpt lat="53.238494" lon="-1.853166"><ele>327</ele><time>2019-08-30T10:03:11Z</time><name>PT1725</name></trkpt>
<trkpt lat="53.238501" lon="-1.853185"><ele>327</ele><time>2019-08-30T10:03:12Z</time><name>PT1726</name></trkpt>
<trkpt lat="53.238508" lon="-1.853207"><ele>327</ele><time>2019-08-30T10:03:13Z</time><name>PT1727</name></trkpt>
<trkpt lat="53.238514" lon="-1.853226"><ele>327</ele><time>2019-08-30T10:03:14Z</time><name>PT1728</name></trkpt>
<trkpt lat="53.238519" lon="-1.853246"><ele>327</ele><time>2019-08-30T10:03:16Z</time><name>PT1729</name></trkpt>
<trkpt lat="53.238524" lon="-1.853268"><ele>327</ele><time>2019-08-30T10:03:16Z</time><name>PT1730</name></trkpt>
<trkpt lat="53.238529" lon="-1.853284"><ele>327</ele><time>2019-08-30T10:03:17Z</time><name>PT1731</name></trkpt>
<trkpt lat="53.238535" lon="-1.853302"><ele>327</ele><time>2019-08-30T10:03:19Z</time><name>PT1732</name></trkpt>
<trkpt lat="53.238541" lon="-1.853320"><ele>327</ele><time>2019-08-30T10:03:19Z</time><name>PT1733</name></trkpt>
<trkpt lat="53.238547" lon="-1.853338"><ele>327</ele><time>2019-08-30T10:03:20Z</time><name>PT1734</name></trkpt>
<trkpt lat="53.238552" lon="-1.853356"><ele>327</ele><time>2019-08-30T10:03:21Z</time><name>PT1735</name></trkpt>
<trkpt lat="53.238557" lon="-1.853377"><ele>327</ele><time>2019-08-30T10:03:22Z</time><name>PT1736</name></trkpt>
<trkpt lat="53.238563" lon="-1.853397"><ele>326</ele><time>2019-08-30T10:03:23Z</time><name>PT1737</name></trkpt>
<trkpt lat="53.238568" lon="-1.853414"><ele>326</ele><time>2019-08-30T10:03:24Z</time><name>PT1738</name></trkpt>
<trkpt lat="53.238574" lon="-1.853428"><ele>326</ele><time>2019-08-30T10:03:25Z</time><name>PT1739</name></trkpt>
<trkpt lat="53.238579" lon="-1.853448"><ele>326</ele><time>2019-08-30T10:03:26Z</time><name>PT1740</name></trkpt>
<trkpt lat="53.238585" lon="-1.853465"><ele>325</ele><time>2019-08-30T10:03:28Z</time><name>PT1741</name></trkpt>
<trkpt lat="53.238591" lon="-1.853483"><ele>326</ele><time>2019-08-30T10:03:28Z</time><name>PT1742</name></trkpt>
<trkpt lat="53.238596" lon="-1.853504"><ele>326</ele><time>2019-08-30T10:03:29Z</time><name>PT1743</name></trkpt>
<trkpt lat="53.238601" lon="-1.853524"><ele>326</ele><time>2019-08-30T10:03:31Z</time><name>PT1744</name></trkpt>
<trkpt lat="53.238607" lon="-1.853539"><ele>326</ele><time>2019-08-30T10:03:31Z</time><name>PT1745</name></trkpt>
<trkpt lat="53.238612" lon="-1.853555"><ele>325</ele><time>2019-08-30T10:03:32Z</time><name>PT1746</name></trkpt>
<trkpt lat="53.238619" lon="-1.853572"><ele>325</ele><time>2019-08-30T10:03:34Z</time><name>PT1747</name></trkpt>
<trkpt lat="53.238625" lon="-1.853589"><ele>325</ele><time>2019-08-30T10:03:34Z</time><name>PT1748</name></trkpt>
<trkpt lat="53.238630" lon="-1.853611"><ele>325</ele><time>2019-08-30T10:03:35Z</time><name>PT1749</name></trkpt>
<trkpt lat="53.238637" lon="-1.853635"><ele>325</ele><time>2019-08-30T10:03:37Z</time><name>PT1750</name></trkpt>
<trkpt lat="53.238643" lon="-1.853654"><ele>324</ele><time>2019-08-30T10:03:37Z</time><name>PT1751</name></trkpt>
<trkpt lat="53.238650" lon="-1.853672"><ele>325</ele><time>2019-08-30T10:03:38Z</time><name>PT1752</name></trkpt>
<trkpt lat="53.238658" lon="-1.853694"><ele>324</ele><time>2019-08-30T10:03:40Z</time><name>PT1753</name></trkpt>
<trkpt lat="53.238663" lon="-1.853711"><ele>324</ele><time>2019-08-30T10:03:40Z</time><name>PT1754</name></trkpt>
<trkpt lat="53.238669" lon="-1.853727"><ele>324</ele><time>2019-08-30T10:03:41Z</time><name>PT1755</name></trkpt>
<trkpt lat="53.238675" lon="-1.853745"><ele>324</ele><time>2019-08-30T10:03:43Z</time><name>PT1756</name></trkpt>
<trkpt lat="53.238680" lon="-1.853766"><ele>324</ele><time>2019-08-30T10:03:43Z</time><name>PT1757</name></trkpt>
<trkpt lat="53.238686" lon="-1.853784"><ele>324</ele><time>2019-08-30T10:03:44Z</time><name>PT1758</name></trkpt>
<trkpt lat="53.238692" lon="-1.853802"><ele>324</ele><time>2019-08-30T10:03:46Z</time><name>PT1759</name></trkpt>
<trkpt lat="53.238697" lon="-1.853824"><ele>323</ele><time>2019-08-30T10:03:46Z</time><name>PT1760</name></trkpt>
<trkpt lat="53.238702" lon="-1.853844"><ele>323</ele><time>2019-08-30T10:03:47Z</time><name>PT1761</name></trkpt>
<trkpt lat="53.238707" lon="-1.853863"><ele>323</ele><time>2019-08-30T10:03:49Z</time><name>PT1762</name></trkpt>
<trkpt lat="53.238712" lon="-1.853886"><ele>323</ele><time>2019-08-30T10:03:49Z</time><name>PT1763</name></trkpt>
<trkpt lat="53.238718" lon="-1.853906"><ele>323</ele><time>2019-08-30T10:03:50Z</time><name>PT1764</name></trkpt>
<trkpt lat="53.238723" lon="-1.853921"><ele>323</ele><time>2019-08-30T10:03:52Z</time><name>PT1765</name></trkpt>
<trkpt lat="53.238730" lon="-1.853939"><ele>323</ele><time>2019-08-30T10:03:52Z</time><name>PT1766</name></trkpt>
<trkpt lat="53.238737" lon="-1.853959"><ele>323</ele><time>2019-08-30T10:03:53Z</time><name>PT1767</name></trkpt>
<trkpt lat="53.238742" lon="-1.853977"><ele>323</ele><time>2019-08-30T10:03:55Z</time><name>PT1768</name></trkpt>
<trkpt lat="53.238745" lon="-1.853996"><ele>323</ele><time>2019-08-30T10:03:55Z</time><name>PT1769</name></trkpt>
<trkpt lat="53.238750" lon="-1.854016"><ele>323</ele><time>2019-08-30T10:03:56Z</time><name>PT1770</name></trkpt>
<trkpt lat="53.238755" lon="-1.854031"><ele>322</ele><time>2019-08-30T10:03:57Z</time><name>PT1771</name></trkpt>
<trkpt lat="53.238761" lon="-1.854046"><ele>322</ele><time>2019-08-30T10:03:58Z</time><name>PT1772</name></trkpt>
<trkpt lat="53.238766" lon="-1.854056"><ele>322</ele><time>2019-08-30T10:03:59Z</time><name>PT1773</name></trkpt>
<trkpt lat="53.238769" lon="-1.854063"><ele>322</ele><time>2019-08-30T10:04:00Z</time><name>PT1774</name></trkpt>
<trkpt lat="53.238771" lon="-1.854067"><ele>322</ele><time>2019-08-30T10:04:01Z</time><name>PT1775</name></trkpt>
<trkpt lat="53.238772" lon="-1.854069"><ele>322</ele><time>2019-08-30T10:04:02Z</time><name>PT1776</name></trkpt>
<trkpt lat="53.238774" lon="-1.854068"><ele>322</ele><time>2019-08-30T10:04:04Z</time><name>PT1777</name></trkpt>
<trkpt lat="53.238772" lon="-1.854071"><ele>322</ele><time>2019-08-30T10:04:04Z</time><name>PT1778</name></trkpt>
<trkpt lat="53.238771" lon="-1.854071"><ele>322</ele><time>2019-08-30T10:04:05Z</time><name>PT1779</name></trkpt>
<trkpt lat="53.238772" lon="-1.854072"><ele>322</ele><time>2019-08-30T10:04:07Z</time><name>PT1780</name></trkpt>
<trkpt lat="53.238772" lon="-1.854074"><ele>322</ele><time>2019-08-30T10:04:07Z</time><name>PT1781</name></trkpt>
<trkpt lat="53.238773" lon="-1.854074"><ele>322</ele><time>2019-08-30T10:04:08Z</time><name>PT1782</name></trkpt>
<trkpt lat="53.238774" lon="-1.854074"><ele>322</ele><time>2019-08-30T10:04:10Z</time><name>PT1783</name></trkpt>
<trkpt lat="53.238773" lon="-1.854076"><ele>322</ele><time>2019-08-30T10:04:10Z</time><name>PT1784</name></trkpt>
<trkpt lat="53.238773" lon="-1.854077"><ele>322</ele><time>2019-08-30T10:04:11Z</time><name>PT1785</name></trkpt>
<trkpt lat="53.238779" lon="-1.854074"><ele>322</ele><time>2019-08-30T10:04:16Z</time><name>PT1786</name></trkpt>
<trkpt lat="53.238784" lon="-1.854073"><ele>322</ele><time>2019-08-30T10:04:17Z</time><name>PT1787</name></trkpt>
<trkpt lat="53.238794" lon="-1.854075"><ele>322</ele><time>2019-08-30T10:04:19Z</time><name>PT1788</name></trkpt>
<trkpt lat="53.238801" lon="-1.854087"><ele>322</ele><time>2019-08-30T10:04:19Z</time><name>PT1789</name></trkpt>
<trkpt lat="53.238808" lon="-1.854102"><ele>322</ele><time>2019-08-30T10:04:20Z</time><name>PT1790</name></trkpt>
<trkpt lat="53.238812" lon="-1.854122"><ele>322</ele><time>2019-08-30T10:04:22Z</time><name>PT1791</name></trkpt>
<trkpt lat="53.238815" lon="-1.854139"><ele>322</ele><time>2019-08-30T10:04:22Z</time><name>PT1792</name></trkpt>
<trkpt lat="53.238814" lon="-1.854159"><ele>322</ele><time>2019-08-30T10:04:23Z</time><name>PT1793</name></trkpt>
<trkpt lat="53.238815" lon="-1.854174"><ele>322</ele><time>2019-08-30T10:04:25Z</time><name>PT1794</name></trkpt>
<trkpt lat="53.238817" lon="-1.854190"><ele>322</ele><time>2019-08-30T10:04:25Z</time><name>PT1795</name></trkpt>
<trkpt lat="53.238818" lon="-1.854212"><ele>322</ele><time>2019-08-30T10:04:26Z</time><name>PT1796</name></trkpt>
<trkpt lat="53.238820" lon="-1.854232"><ele>322</ele><time>2019-08-30T10:04:28Z</time><name>PT1797</name></trkpt>
<trkpt lat="53.238824" lon="-1.854250"><ele>322</ele><time>2019-08-30T10:04:28Z</time><name>PT1798</name></trkpt>
<trkpt lat="53.238825" lon="-1.854273"><ele>322</ele><time>2019-08-30T10:04:29Z</time><name>PT1799</name></trkpt>
<trkpt lat="53.238828" lon="-1.854294"><ele>322</ele><time>2019-08-30T10:04:31Z</time><name>PT1800</name></trkpt>
<trkpt lat="53.238832" lon="-1.854311"><ele>322</ele><time>2019-08-30T10:04:31Z</time><name>PT1801</name></trkpt>
<trkpt lat="53.238836" lon="-1.854329"><ele>322</ele><time>2019-08-30T10:04:32Z</time><name>PT1802</name></trkpt>
<trkpt lat="53.238840" lon="-1.854350"><ele>321</ele><time>2019-08-30T10:04:34Z</time><name>PT1803</name></trkpt>
<trkpt lat="53.238842" lon="-1.854369"><ele>321</ele><time>2019-08-30T10:04:34Z</time><name>PT1804</name></trkpt>
<trkpt lat="53.238842" lon="-1.854387"><ele>321</ele><time>2019-08-30T10:04:35Z</time><name>PT1805</name></trkpt>
<trkpt lat="53.238843" lon="-1.854410"><ele>321</ele><time>2019-08-30T10:04:37Z</time><name>PT1806</name></trkpt>
<trkpt lat="53.238844" lon="-1.854436"><ele>321</ele><time>2019-08-30T10:04:37Z</time><name>PT1807</name></trkpt>
<trkpt lat="53.238844" lon="-1.854457"><ele>321</ele><time>2019-08-30T10:04:38Z</time><name>PT1808</name></trkpt>
<trkpt lat="53.238846" lon="-1.854479"><ele>321</ele><time>2019-08-30T10:04:40Z</time><name>PT1809</name></trkpt>
<trkpt lat="53.238848" lon="-1.854498"><ele>321</ele><time>2019-08-30T10:04:40Z</time><name>PT1810</name></trkpt>
<trkpt lat="53.238848" lon="-1.854517"><ele>321</ele><time>2019-08-30T10:04:41Z</time><name>PT1811</name></trkpt>
<trkpt lat="53.238850" lon="-1.854540"><ele>321</ele><time>2019-08-30T10:04:43Z</time><name>PT1812</name></trkpt>
<trkpt lat="53.238852" lon="-1.854561"><ele>321</ele><time>2019-08-30T10:04:43Z</time><name>PT1813</name></trkpt>
<trkpt lat="53.238855" lon="-1.854583"><ele>320</ele><time>2019-08-30T10:04:44Z</time><name>PT1814</name></trkpt>
<trkpt lat="53.238859" lon="-1.854602"><ele>320</ele><time>2019-08-30T10:04:46Z</time><name>PT1815</name></trkpt>
<trkpt lat="53.238863" lon="-1.854623"><ele>320</ele><time>2019-08-30T10:04:46Z</time><name>PT1816</name></trkpt>
<trkpt lat="53.238866" lon="-1.854641"><ele>320</ele><time>2019-08-30T10:04:47Z</time><name>PT1817</name></trkpt>
<trkpt lat="53.238868" lon="-1.854662"><ele>320</ele><time>2019-08-30T10:04:49Z</time><name>PT1818</name></trkpt>
<trkpt lat="53.238872" lon="-1.854685"><ele>319</ele><time>2019-08-30T10:04:49Z</time><name>PT1819</name></trkpt>
<trkpt lat="53.238875" lon="-1.854702"><ele>319</ele><time>2019-08-30T10:04:50Z</time><name>PT1820</name></trkpt>
<trkpt lat="53.238877" lon="-1.854721"><ele>319</ele><time>2019-08-30T10:04:52Z</time><name>PT1821</name></trkpt>
<trkpt lat="53.238880" lon="-1.854742"><ele>318</ele><time>2019-08-30T10:04:52Z</time><name>PT1822</name></trkpt>
<trkpt lat="53.238883" lon="-1.854762"><ele>318</ele><time>2019-08-30T10:04:53Z</time><name>PT1823</name></trkpt>
<trkpt lat="53.238883" lon="-1.854780"><ele>318</ele><time>2019-08-30T10:04:54Z</time><name>PT1824</name></trkpt>
<trkpt lat="53.238883" lon="-1.854798"><ele>318</ele><time>2019-08-30T10:04:55Z</time><name>PT1825</name></trkpt>
<trkpt lat="53.238886" lon="-1.854817"><ele>318</ele><time>2019-08-30T10:04:56Z</time><name>PT1826</name></trkpt>
<trkpt lat="53.238889" lon="-1.854831"><ele>318</ele><time>2019-08-30T10:04:58Z</time><name>PT1827</name></trkpt>
<trkpt lat="53.238892" lon="-1.854849"><ele>318</ele><time>2019-08-30T10:04:58Z</time><name>PT1828</name></trkpt>
<trkpt lat="53.238894" lon="-1.854866"><ele>318</ele><time>2019-08-30T10:04:59Z</time><name>PT1829</name></trkpt>
<trkpt lat="53.238894" lon="-1.854878"><ele>317</ele><time>2019-08-30T10:05:00Z</time><name>PT1830</name></trkpt>
<trkpt lat="53.238893" lon="-1.854888"><ele>317</ele><time>2019-08-30T10:05:01Z</time><name>PT1831</name></trkpt>
<trkpt lat="53.238892" lon="-1.854890"><ele>317</ele><time>2019-08-30T10:05:02Z</time><name>PT1832</name></trkpt>
<trkpt lat="53.238892" lon="-1.854893"><ele>317</ele><time>2019-08-30T10:05:04Z</time><name>PT1833</name></trkpt>
<trkpt lat="53.238890" lon="-1.854900"><ele>316</ele><time>2019-08-30T10:05:04Z</time><name>PT1834</name></trkpt>
<trkpt lat="53.238890" lon="-1.854906"><ele>316</ele><time>2019-08-30T10:05:05Z</time><name>PT1835</name></trkpt>
<trkpt lat="53.238890" lon="-1.854913"><ele>316</ele><time>2019-08-30T10:05:06Z</time><name>PT1836</name></trkpt>
<trkpt lat="53.238893" lon="-1.854918"><ele>316</ele><time>2019-08-30T10:05:07Z</time><name>PT1837</name></trkpt>
<trkpt lat="53.238899" lon="-1.854921"><ele>316</ele><time>2019-08-30T10:05:08Z</time><name>PT1838</name></trkpt>
<trkpt lat="53.238904" lon="-1.854928"><ele>315</ele><time>2019-08-30T10:05:10Z</time><name>PT1839</name></trkpt>
<trkpt lat="53.238911" lon="-1.854934"><ele>315</ele><time>2019-08-30T10:05:10Z</time><name>PT1840</name></trkpt>
<trkpt lat="53.238916" lon="-1.854945"><ele>315</ele><time>2019-08-30T10:05:11Z</time><name>PT1841</name></trkpt>
<trkpt lat="53.238918" lon="-1.854959"><ele>315</ele><time>2019-08-30T10:05:13Z</time><name>PT1842</name></trkpt>
<trkpt lat="53.238921" lon="-1.854974"><ele>314</ele><time>2019-08-30T10:05:13Z</time><name>PT1843</name></trkpt>
<trkpt lat="53.238925" lon="-1.854987"><ele>314</ele><time>2019-08-30T10:05:14Z</time><name>PT1844</name></trkpt>
<trkpt lat="53.238932" lon="-1.854999"><ele>314</ele><time>2019-08-30T10:05:16Z</time><name>PT1845</name></trkpt>
<trkpt lat="53.238938" lon="-1.855009"><ele>314</ele><time>2019-08-30T10:05:16Z</time><name>PT1846</name></trkpt>
<trkpt lat="53.238943" lon="-1.855019"><ele>313</ele><time>2019-08-30T10:05:17Z</time><name>PT1847</name></trkpt>
<trkpt lat="53.238949" lon="-1.855028"><ele>313</ele><time>2019-08-30T10:05:19Z</time><name>PT1848</name></trkpt>
<trkpt lat="53.238954" lon="-1.855037"><ele>313</ele><time>2019-08-30T10:05:19Z</time><name>PT1849</name></trkpt>
<trkpt lat="53.238958" lon="-1.855049"><ele>313</ele><time>2019-08-30T10:05:20Z</time><name>PT1850</name></trkpt>
<trkpt lat="53.238960" lon="-1.855060"><ele>313</ele><time>2019-08-30T10:05:22Z</time><name>PT1851</name></trkpt>
<trkpt lat="53.238961" lon="-1.855068"><ele>313</ele><time>2019-08-30T10:05:22Z</time><name>PT1852</name></trkpt>
<trkpt lat="53.238964" lon="-1.855075"><ele>313</ele><time>2019-08-30T10:05:23Z</time><name>PT1853</name></trkpt>
<trkpt lat="53.238968" lon="-1.855085"><ele>313</ele><time>2019-08-30T10:05:25Z</time><name>PT1854</name></trkpt>
<trkpt lat="53.238973" lon="-1.855096"><ele>313</ele><time>2019-08-30T10:05:25Z</time><name>PT1855</name></trkpt>
<trkpt lat="53.238978" lon="-1.855101"><ele>312</ele><time>2019-08-30T10:05:26Z</time><name>PT1856</name></trkpt>
<trkpt lat="53.238982" lon="-1.855110"><ele>312</ele><time>2019-08-30T10:05:28Z</time><name>PT1857</name></trkpt>
<trkpt lat="53.238985" lon="-1.855120"><ele>312</ele><time>2019-08-30T10:05:28Z</time><name>PT1858</name></trkpt>
<trkpt lat="53.238984" lon="-1.855123"><ele>312</ele><time>2019-08-30T10:05:29Z</time><name>PT1859</name></trkpt>
<trkpt lat="53.238983" lon="-1.855131"><ele>312</ele><time>2019-08-30T10:05:31Z</time><name>PT1860</name></trkpt>
<trkpt lat="53.238984" lon="-1.855138"><ele>312</ele><time>2019-08-30T10:05:31Z</time><name>PT1861</name></trkpt>
<trkpt lat="53.238983" lon="-1.855146"><ele>311</ele><time>2019-08-30T10:05:32Z</time><name>PT1862</name></trkpt>
<trkpt lat="53.238985" lon="-1.855152"><ele>311</ele><time>2019-08-30T10:05:33Z</time><name>PT1863</name></trkpt>
<trkpt lat="53.238988" lon="-1.855159"><ele>311</ele><time>2019-08-30T10:05:34Z</time><name>PT1864</name></trkpt>
<trkpt lat="53.238989" lon="-1.855167"><ele>311</ele><time>2019-08-30T10:05:35Z</time><name>PT1865</name></trkpt>
<trkpt lat="53.238991" lon="-1.855171"><ele>311</ele><time>2019-08-30T10:05:37Z</time><name>PT1866</name></trkpt>
<trkpt lat="53.238993" lon="-1.855174"><ele>310</ele><time>2019-08-30T10:05:37Z</time><name>PT1867</name></trkpt>
<trkpt lat="53.238992" lon="-1.855176"><ele>310</ele><time>2019-08-30T10:05:38Z</time><name>PT1868</name></trkpt>
<trkpt lat="53.238992" lon="-1.855178"><ele>310</ele><time>2019-08-30T10:05:40Z</time><name>PT1869</name></trkpt>
<trkpt lat="53.238995" lon="-1.855183"><ele>310</ele><time>2019-08-30T10:06:10Z</time><name>PT1870</name></trkpt>
<trkpt lat="53.238994" lon="-1.855192"><ele>310</ele><time>2019-08-30T10:06:11Z</time><name>PT1871</name></trkpt>
<trkpt lat="53.238991" lon="-1.855193"><ele>310</ele><time>2019-08-30T10:06:12Z</time><name>PT1872</name></trkpt>
<trkpt lat="53.238991" lon="-1.855195"><ele>310</ele><time>2019-08-30T10:06:13Z</time><name>PT1873</name></trkpt>
<trkpt lat="53.238990" lon="-1.855193"><ele>310</ele><time>2019-08-30T10:06:14Z</time><name>PT1874</name></trkpt>
<trkpt lat="53.238988" lon="-1.855194"><ele>310</ele><time>2019-08-30T10:06:22Z</time><name>PT1875</name></trkpt>
<trkpt lat="53.238986" lon="-1.855192"><ele>310</ele><time>2019-08-30T10:06:23Z</time><name>PT1876</name></trkpt>
<trkpt lat="53.238985" lon="-1.855192"><ele>309</ele><time>2019-08-30T10:06:25Z</time><name>PT1877</name></trkpt>
<trkpt lat="53.238980" lon="-1.855190"><ele>309</ele><time>2019-08-30T10:06:25Z</time><name>PT1878</name></trkpt>
<trkpt lat="53.238974" lon="-1.855196"><ele>309</ele><time>2019-08-30T10:06:30Z</time><name>PT1879</name></trkpt>
<trkpt lat="53.238969" lon="-1.855198"><ele>308</ele><time>2019-08-30T10:06:31Z</time><name>PT1880</name></trkpt>
<trkpt lat="53.238966" lon="-1.855202"><ele>308</ele><time>2019-08-30T10:06:32Z</time><name>PT1881</name></trkpt>
<trkpt lat="53.238964" lon="-1.855210"><ele>308</ele><time>2019-08-30T10:06:34Z</time><name>PT1882</name></trkpt>
<trkpt lat="53.238958" lon="-1.855223"><ele>307</ele><time>2019-08-30T10:06:34Z</time><name>PT1883</name></trkpt>
<trkpt lat="53.238957" lon="-1.855232"><ele>307</ele><time>2019-08-30T10:06:35Z</time><name>PT1884</name></trkpt>
<trkpt lat="53.238956" lon="-1.855239"><ele>307</ele><time>2019-08-30T10:06:37Z</time><name>PT1885</name></trkpt>
<trkpt lat="53.238954" lon="-1.855246"><ele>306</ele><time>2019-08-30T10:06:37Z</time><name>PT1886</name></trkpt>
<trkpt lat="53.238953" lon="-1.855256"><ele>306</ele><time>2019-08-30T10:06:38Z</time><name>PT1887</name></trkpt>
<trkpt lat="53.238952" lon="-1.855266"><ele>305</ele><time>2019-08-30T10:06:39Z</time><name>PT1888</name></trkpt>
<trkpt lat="53.238952" lon="-1.855275"><ele>305</ele><time>2019-08-30T10:06:40Z</time><name>PT1889</name></trkpt>
<trkpt lat="53.238952" lon="-1.855284"><ele>305</ele><time>2019-08-30T10:06:41Z</time><name>PT1890</name></trkpt>
<trkpt lat="53.238953" lon="-1.855290"><ele>305</ele><time>2019-08-30T10:06:43Z</time><name>PT1891</name></trkpt>
<trkpt lat="53.238955" lon="-1.855298"><ele>305</ele><time>2019-08-30T10:06:43Z</time><name>PT1892</name></trkpt>
<trkpt lat="53.238954" lon="-1.855309"><ele>304</ele><time>2019-08-30T10:06:44Z</time><name>PT1893</name></trkpt>
<trkpt lat="53.238949" lon="-1.855346"><ele>305</ele><time>2019-08-30T10:07:11Z</time><name>PT1894</name></trkpt>
<trkpt lat="53.238933" lon="-1.855374"><ele>305</ele><time>2019-08-30T10:07:13Z</time><name>PT1895</name></trkpt>
<trkpt lat="53.238925" lon="-1.855390"><ele>305</ele><time>2019-08-30T10:07:13Z</time><name>PT1896</name></trkpt>
<trkpt lat="53.238925" lon="-1.855409"><ele>304</ele><time>2019-08-30T10:07:14Z</time><name>PT1897</name></trkpt>
<trkpt lat="53.238919" lon="-1.855424"><ele>304</ele><time>2019-08-30T10:07:16Z</time><name>PT1898</name></trkpt>
<trkpt lat="53.238912" lon="-1.855440"><ele>304</ele><time>2019-08-30T10:07:16Z</time><name>PT1899</name></trkpt>
<trkpt lat="53.238904" lon="-1.855462"><ele>303</ele><time>2019-08-30T10:07:17Z</time><name>PT1900</name></trkpt>
<trkpt lat="53.238896" lon="-1.855476"><ele>302</ele><time>2019-08-30T10:07:18Z</time><name>PT1901</name></trkpt>
<trkpt lat="53.238890" lon="-1.855491"><ele>302</ele><time>2019-08-30T10:07:19Z</time><name>PT1902</name></trkpt>
<trkpt lat="53.238884" lon="-1.855507"><ele>301</ele><time>2019-08-30T10:07:20Z</time><name>PT1903</name></trkpt>
<trkpt lat="53.238879" lon="-1.855525"><ele>301</ele><time>2019-08-30T10:07:21Z</time><name>PT1904</name></trkpt>
<trkpt lat="53.238875" lon="-1.855543"><ele>301</ele><time>2019-08-30T10:07:22Z</time><name>PT1905</name></trkpt>
<trkpt lat="53.238869" lon="-1.855560"><ele>301</ele><time>2019-08-30T10:07:23Z</time><name>PT1906</name></trkpt>
<trkpt lat="53.238866" lon="-1.855569"><ele>300</ele><time>2019-08-30T10:07:24Z</time><name>PT1907</name></trkpt>
<trkpt lat="53.238860" lon="-1.855585"><ele>300</ele><time>2019-08-30T10:07:25Z</time><name>PT1908</name></trkpt>
<trkpt lat="53.238855" lon="-1.855593"><ele>299</ele><time>2019-08-30T10:07:26Z</time><name>PT1909</name></trkpt>
<trkpt lat="53.238850" lon="-1.855600"><ele>299</ele><time>2019-08-30T10:07:28Z</time><name>PT1910</name></trkpt>
<trkpt lat="53.238846" lon="-1.855618"><ele>298</ele><time>2019-08-30T10:07:28Z</time><name>PT1911</name></trkpt>
<trkpt lat="53.238843" lon="-1.855639"><ele>298</ele><time>2019-08-30T10:07:29Z</time><name>PT1912</name></trkpt>
<trkpt lat="53.238845" lon="-1.855652"><ele>298</ele><time>2019-08-30T10:07:31Z</time><name>PT1913</name></trkpt>
<trkpt lat="53.238848" lon="-1.855660"><ele>297</ele><time>2019-08-30T10:07:31Z</time><name>PT1914</name></trkpt>
<trkpt lat="53.238852" lon="-1.855660"><ele>297</ele><time>2019-08-30T10:07:32Z</time><name>PT1915</name></trkpt>
<trkpt lat="53.238856" lon="-1.855658"><ele>297</ele><time>2019-08-30T10:07:33Z</time><name>PT1916</name></trkpt>
<trkpt lat="53.238860" lon="-1.855652"><ele>296</ele><time>2019-08-30T10:07:34Z</time><name>PT1917</name></trkpt>
<trkpt lat="53.238863" lon="-1.855667"><ele>295</ele><time>2019-08-30T10:07:36Z</time><name>PT1918</name></trkpt>
<trkpt lat="53.238867" lon="-1.855669"><ele>294</ele><time>2019-08-30T10:07:36Z</time><name>PT1919</name></trkpt>
<trkpt lat="53.238870" lon="-1.855662"><ele>294</ele><time>2019-08-30T10:07:37Z</time><name>PT1920</name></trkpt>
<trkpt lat="53.238863" lon="-1.855656"><ele>291</ele><time>2019-08-30T10:07:38Z</time><name>PT1921</name></trkpt>
<trkpt lat="53.238871" lon="-1.855647"><ele>291</ele><time>2019-08-30T10:07:40Z</time><name>PT1922</name></trkpt>
<trkpt lat="53.238870" lon="-1.855636"><ele>289</ele><time>2019-08-30T10:07:40Z</time><name>PT1923</name></trkpt>
<trkpt lat="53.238877" lon="-1.855630"><ele>289</ele><time>2019-08-30T10:07:41Z</time><name>PT1924</name></trkpt>
<trkpt lat="53.238880" lon="-1.855623"><ele>289</ele><time>2019-08-30T10:07:43Z</time><name>PT1925</name></trkpt>
<trkpt lat="53.238889" lon="-1.855615"><ele>289</ele><time>2019-08-30T10:07:43Z</time><name>PT1926</name></trkpt>
<trkpt lat="53.238889" lon="-1.855611"><ele>288</ele><time>2019-08-30T10:07:44Z</time><name>PT1927</name></trkpt>
<trkpt lat="53.238893" lon="-1.855612"><ele>288</ele><time>2019-08-30T10:07:45Z</time><name>PT1928</name></trkpt>
<trkpt lat="53.238902" lon="-1.855618"><ele>289</ele><time>2019-08-30T10:07:46Z</time><name>PT1929</name></trkpt>
<trkpt lat="53.238908" lon="-1.855626"><ele>290</ele><time>2019-08-30T10:07:47Z</time><name>PT1930</name></trkpt>
<trkpt lat="53.238916" lon="-1.855633"><ele>290</ele><time>2019-08-30T10:07:49Z</time><name>PT1931</name></trkpt>
<trkpt lat="53.238918" lon="-1.855642"><ele>289</ele><time>2019-08-30T10:07:49Z</time><name>PT1932</name></trkpt>
<trkpt lat="53.238919" lon="-1.855655"><ele>288</ele><time>2019-08-30T10:07:50Z</time><name>PT1933</name></trkpt>
<trkpt lat="53.238918" lon="-1.855668"><ele>288</ele><time>2019-08-30T10:07:52Z</time><name>PT1934</name></trkpt>
<trkpt lat="53.238917" lon="-1.855681"><ele>288</ele><time>2019-08-30T10:07:52Z</time><name>PT1935</name></trkpt>
<trkpt lat="53.238917" lon="-1.855693"><ele>289</ele><time>2019-08-30T10:07:53Z</time><name>PT1936</name></trkpt>
<trkpt lat="53.238914" lon="-1.855704"><ele>289</ele><time>2019-08-30T10:07:55Z</time><name>PT1937</name></trkpt>
<trkpt lat="53.238910" lon="-1.855716"><ele>289</ele><time>2019-08-30T10:07:55Z</time><name>PT1938</name></trkpt>
<trkpt lat="53.238908" lon="-1.855724"><ele>289</ele><time>2019-08-30T10:07:56Z</time><name>PT1939</name></trkpt>
<trkpt lat="53.238905" lon="-1.855733"><ele>288</ele><time>2019-08-30T10:07:58Z</time><name>PT1940</name></trkpt>
<trkpt lat="53.238902" lon="-1.855742"><ele>288</ele><time>2019-08-30T10:07:58Z</time><name>PT1941</name></trkpt>
<trkpt lat="53.238898" lon="-1.855753"><ele>288</ele><time>2019-08-30T10:07:59Z</time><name>PT1942</name></trkpt>
<trkpt lat="53.238895" lon="-1.855763"><ele>288</ele><time>2019-08-30T10:08:00Z</time><name>PT1943</name></trkpt>
<trkpt lat="53.238891" lon="-1.855774"><ele>287</ele><time>2019-08-30T10:08:01Z</time><name>PT1944</name></trkpt>
<trkpt lat="53.238887" lon="-1.855785"><ele>287</ele><time>2019-08-30T10:08:02Z</time><name>PT1945</name></trkpt>
<trkpt lat="53.238885" lon="-1.855797"><ele>287</ele><time>2019-08-30T10:08:03Z</time><name>PT1946</name></trkpt>
<trkpt lat="53.238882" lon="-1.855810"><ele>287</ele><time>2019-08-30T10:08:04Z</time><name>PT1947</name></trkpt>
<trkpt lat="53.238880" lon="-1.855823"><ele>287</ele><time>2019-08-30T10:08:05Z</time><name>PT1948</name></trkpt>
<trkpt lat="53.238876" lon="-1.855837"><ele>286</ele><time>2019-08-30T10:08:07Z</time><name>PT1949</name></trkpt>
<trkpt lat="53.238875" lon="-1.855853"><ele>286</ele><time>2019-08-30T10:08:07Z</time><name>PT1950</name></trkpt>
<trkpt lat="53.238871" lon="-1.855868"><ele>286</ele><time>2019-08-30T10:08:08Z</time><name>PT1951</name></trkpt>
<trkpt lat="53.238865" lon="-1.855879"><ele>285</ele><time>2019-08-30T10:08:09Z</time><name>PT1952</name></trkpt>
<trkpt lat="53.238861" lon="-1.855890"><ele>284</ele><time>2019-08-30T10:08:10Z</time><name>PT1953</name></trkpt>
<trkpt lat="53.238860" lon="-1.855899"><ele>284</ele><time>2019-08-30T10:08:11Z</time><name>PT1954</name></trkpt>
<trkpt lat="53.238861" lon="-1.855912"><ele>284</ele><time>2019-08-30T10:08:12Z</time><name>PT1955</name></trkpt>
<trkpt lat="53.238859" lon="-1.855919"><ele>285</ele><time>2019-08-30T10:08:13Z</time><name>PT1956</name></trkpt>
<trkpt lat="53.238853" lon="-1.855929"><ele>284</ele><time>2019-08-30T10:08:14Z</time><name>PT1957</name></trkpt>
<trkpt lat="53.238847" lon="-1.855940"><ele>284</ele><time>2019-08-30T10:08:16Z</time><name>PT1958</name></trkpt>
<trkpt lat="53.238841" lon="-1.855956"><ele>284</ele><time>2019-08-30T10:08:16Z</time><name>PT1959</name></trkpt>
<trkpt lat="53.238836" lon="-1.855965"><ele>283</ele><time>2019-08-30T10:08:17Z</time><name>PT1960</name></trkpt>
<trkpt lat="53.238830" lon="-1.855975"><ele>283</ele><time>2019-08-30T10:08:18Z</time><name>PT1961</name></trkpt>
<trkpt lat="53.238825" lon="-1.855981"><ele>283</ele><time>2019-08-30T10:08:19Z</time><name>PT1962</name></trkpt>
<trkpt lat="53.238819" lon="-1.855989"><ele>283</ele><time>2019-08-30T10:08:20Z</time><name>PT1963</name></trkpt>
<trkpt lat="53.238815" lon="-1.855989"><ele>282</ele><time>2019-08-30T10:08:21Z</time><name>PT1964</name></trkpt>
<trkpt lat="53.238811" lon="-1.855995"><ele>282</ele><time>2019-08-30T10:08:22Z</time><name>PT1965</name></trkpt>
<trkpt lat="53.238808" lon="-1.855999"><ele>281</ele><time>2019-08-30T10:08:23Z</time><name>PT1966</name></trkpt>
<trkpt lat="53.238802" lon="-1.856011"><ele>282</ele><time>2019-08-30T10:08:24Z</time><name>PT1967</name></trkpt>
<trkpt lat="53.238799" lon="-1.856025"><ele>282</ele><time>2019-08-30T10:08:25Z</time><name>PT1968</name></trkpt>
<trkpt lat="53.238798" lon="-1.856037"><ele>282</ele><time>2019-08-30T10:08:26Z</time><name>PT1969</name></trkpt>
<trkpt lat="53.238796" lon="-1.856046"><ele>281</ele><time>2019-08-30T10:08:27Z</time><name>PT1970</name></trkpt>
<trkpt lat="53.238792" lon="-1.856054"><ele>281</ele><time>2019-08-30T10:08:28Z</time><name>PT1971</name></trkpt>
<trkpt lat="53.238792" lon="-1.856059"><ele>282</ele><time>2019-08-30T10:08:29Z</time><name>PT1972</name></trkpt>
<trkpt lat="53.238791" lon="-1.856063"><ele>282</ele><time>2019-08-30T10:08:31Z</time><name>PT1973</name></trkpt>
<trkpt lat="53.238789" lon="-1.856074"><ele>281</ele><time>2019-08-30T10:08:31Z</time><name>PT1974</name></trkpt>
<trkpt lat="53.238786" lon="-1.856079"><ele>281</ele><time>2019-08-30T10:08:32Z</time><name>PT1975</name></trkpt>
<trkpt lat="53.238785" lon="-1.856080"><ele>281</ele><time>2019-08-30T10:08:33Z</time><name>PT1976</name></trkpt>
<trkpt lat="53.238784" lon="-1.856087"><ele>281</ele><time>2019-08-30T10:08:34Z</time><name>PT1977</name></trkpt>
<trkpt lat="53.238783" lon="-1.856093"><ele>280</ele><time>2019-08-30T10:08:35Z</time><name>PT1978</name></trkpt>
<trkpt lat="53.238787" lon="-1.856100"><ele>281</ele><time>2019-08-30T10:08:36Z</time><name>PT1979</name></trkpt>
<trkpt lat="53.238788" lon="-1.856107"><ele>281</ele><time>2019-08-30T10:08:37Z</time><name>PT1980</name></trkpt>
<trkpt lat="53.238785" lon="-1.856112"><ele>281</ele><time>2019-08-30T10:08:38Z</time><name>PT1981</name></trkpt>
<trkpt lat="53.238783" lon="-1.856129"><ele>280</ele><time>2019-08-30T10:08:39Z</time><name>PT1982</name></trkpt>
<trkpt lat="53.238781" lon="-1.856136"><ele>280</ele><time>2019-08-30T10:08:40Z</time><name>PT1983</name></trkpt>
<trkpt lat="53.238780" lon="-1.856146"><ele>280</ele><time>2019-08-30T10:08:41Z</time><name>PT1984</name></trkpt>
<trkpt lat="53.238776" lon="-1.856148"><ele>281</ele><time>2019-08-30T10:08:42Z</time><name>PT1985</name></trkpt>
<trkpt lat="53.238773" lon="-1.856153"><ele>280</ele><time>2019-08-30T10:08:43Z</time><name>PT1986</name></trkpt>
<trkpt lat="53.238772" lon="-1.856158"><ele>281</ele><time>2019-08-30T10:08:44Z</time><name>PT1987</name></trkpt>
<trkpt lat="53.238769" lon="-1.856162"><ele>281</ele><time>2019-08-30T10:08:45Z</time><name>PT1988</name></trkpt>
<trkpt lat="53.238774" lon="-1.856157"><ele>280</ele><time>2019-08-30T10:08:55Z</time><name>PT1989</name></trkpt>
<trkpt lat="53.238782" lon="-1.856154"><ele>280</ele><time>2019-08-30T10:08:56Z</time><name>PT1990</name></trkpt>
<trkpt lat="53.238788" lon="-1.856152"><ele>279</ele><time>2019-08-30T10:08:58Z</time><name>PT1991</name></trkpt>
<trkpt lat="53.238795" lon="-1.856152"><ele>279</ele><time>2019-08-30T10:08:58Z</time><name>PT1992</name></trkpt>
<trkpt lat="53.238799" lon="-1.856150"><ele>279</ele><time>2019-08-30T10:08:59Z</time><name>PT1993</name></trkpt>
<trkpt lat="53.238806" lon="-1.856149"><ele>278</ele><time>2019-08-30T10:09:08Z</time><name>PT1994</name></trkpt>
<trkpt lat="53.238807" lon="-1.856157"><ele>279</ele><time>2019-08-30T10:09:10Z</time><name>PT1995</name></trkpt>
<trkpt lat="53.238806" lon="-1.856159"><ele>279</ele><time>2019-08-30T10:09:34Z</time><name>PT1996</name></trkpt>
<trkpt lat="53.238801" lon="-1.856154"><ele>279</ele><time>2019-08-30T10:09:34Z</time><name>PT1997</name></trkpt>
<trkpt lat="53.238792" lon="-1.856147"><ele>279</ele><time>2019-08-30T10:09:35Z</time><name>PT1998</name></trkpt>
<trkpt lat="53.238786" lon="-1.856154"><ele>278</ele><time>2019-08-30T10:09:36Z</time><name>PT1999</name></trkpt>
<trkpt lat="53.238784" lon="-1.856160"><ele>278</ele><time>2019-08-30T10:09:37Z</time><name>PT2000</name></trkpt>
<trkpt lat="53.238789" lon="-1.856156"><ele>278</ele><time>2019-08-30T10:09:38Z</time><name>PT2001</name></trkpt>
<trkpt lat="53.238791" lon="-1.856154"><ele>278</ele><time>2019-08-30T10:09:39Z</time><name>PT2002</name></trkpt>
<trkpt lat="53.238786" lon="-1.856150"><ele>278</ele><time>2019-08-30T10:09:40Z</time><name>PT2003</name></trkpt>
<trkpt lat="53.238792" lon="-1.856153"><ele>278</ele><time>2019-08-30T10:09:41Z</time><name>PT2004</name></trkpt>
<trkpt lat="53.238789" lon="-1.856148"><ele>277</ele><time>2019-08-30T10:09:53Z</time><name>PT2005</name></trkpt>
<trkpt lat="53.238787" lon="-1.856158"><ele>278</ele><time>2019-08-30T10:09:54Z</time><name>PT2006</name></trkpt>
<trkpt lat="53.238784" lon="-1.856166"><ele>278</ele><time>2019-08-30T10:09:55Z</time><name>PT2007</name></trkpt>
<trkpt lat="53.238782" lon="-1.856167"><ele>278</ele><time>2019-08-30T10:10:00Z</time><name>PT2008</name></trkpt>
<trkpt lat="53.238777" lon="-1.856173"><ele>278</ele><time>2019-08-30T10:10:01Z</time><name>PT2009</name></trkpt>
<trkpt lat="53.238782" lon="-1.856203"><ele>277</ele><time>2019-08-30T10:10:02Z</time><name>PT2010</name></trkpt>
<trkpt lat="53.238789" lon="-1.856188"><ele>277</ele><time>2019-08-30T10:10:03Z</time><name>PT2011</name></trkpt>
<trkpt lat="53.238791" lon="-1.856188"><ele>277</ele><time>2019-08-30T10:10:04Z</time><name>PT2012</name></trkpt>
<trkpt lat="53.238810" lon="-1.856188"><ele>276</ele><time>2019-08-30T10:10:05Z</time><name>PT2013</name></trkpt>
<trkpt lat="53.238814" lon="-1.856196"><ele>276</ele><time>2019-08-30T10:10:06Z</time><name>PT2014</name></trkpt>
<trkpt lat="53.238819" lon="-1.856196"><ele>276</ele><time>2019-08-30T10:10:07Z</time><name>PT2015</name></trkpt>
<trkpt lat="53.238809" lon="-1.856205"><ele>276</ele><time>2019-08-30T10:10:08Z</time><name>PT2016</name></trkpt>
<trkpt lat="53.238815" lon="-1.856199"><ele>276</ele><time>2019-08-30T10:10:09Z</time><name>PT2017</name></trkpt>
<trkpt lat="53.238824" lon="-1.856196"><ele>275</ele><time>2019-08-30T10:10:10Z</time><name>PT2018</name></trkpt>
<trkpt lat="53.238819" lon="-1.856205"><ele>275</ele><time>2019-08-30T10:10:11Z</time><name>PT2019</name></trkpt>
<trkpt lat="53.238819" lon="-1.856211"><ele>275</ele><time>2019-08-30T10:10:13Z</time><name>PT2020</name></trkpt>
<trkpt lat="53.238818" lon="-1.856217"><ele>275</ele><time>2019-08-30T10:10:13Z</time><name>PT2021</name></trkpt>
<trkpt lat="53.238798" lon="-1.856239"><ele>273</ele><time>2019-08-30T10:10:20Z</time><name>PT2022</name></trkpt>
<trkpt lat="53.238809" lon="-1.856263"><ele>272</ele><time>2019-08-30T10:10:21Z</time><name>PT2023</name></trkpt>
<trkpt lat="53.238812" lon="-1.856304"><ele>271</ele><time>2019-08-30T10:10:22Z</time><name>PT2024</name></trkpt>
<trkpt lat="53.238806" lon="-1.856341"><ele>271</ele><time>2019-08-30T10:10:28Z</time><name>PT2025</name></trkpt>
<trkpt lat="53.238805" lon="-1.856365"><ele>270</ele><time>2019-08-30T10:10:29Z</time><name>PT2026</name></trkpt>
<trkpt lat="53.238819" lon="-1.856335"><ele>270</ele><time>2019-08-30T10:10:40Z</time><name>PT2027</name></trkpt>
<trkpt lat="53.238827" lon="-1.856324"><ele>270</ele><time>2019-08-30T10:10:41Z</time><name>PT2028</name></trkpt>
<trkpt lat="53.238831" lon="-1.856341"><ele>269</ele><time>2019-08-30T10:10:54Z</time><name>PT2029</name></trkpt>
<trkpt lat="53.238832" lon="-1.856360"><ele>268</ele><time>2019-08-30T10:10:55Z</time><name>PT2030</name></trkpt>
<trkpt lat="53.238831" lon="-1.856368"><ele>268</ele><time>2019-08-30T10:10:56Z</time><name>PT2031</name></trkpt>
<trkpt lat="53.238829" lon="-1.856378"><ele>266</ele><time>2019-08-30T10:10:58Z</time><name>PT2032</name></trkpt>
<trkpt lat="53.238825" lon="-1.856382"><ele>266</ele><time>2019-08-30T10:10:58Z</time><name>PT2033</name></trkpt>
<trkpt lat="53.238819" lon="-1.856385"><ele>266</ele><time>2019-08-30T10:10:59Z</time><name>PT2034</name></trkpt>
<trkpt lat="53.238810" lon="-1.856385"><ele>266</ele><time>2019-08-30T10:11:00Z</time><name>PT2035</name></trkpt>
<trkpt lat="53.238800" lon="-1.856383"><ele>265</ele><time>2019-08-30T10:11:01Z</time><name>PT2036</name></trkpt>
<trkpt lat="53.238791" lon="-1.856383"><ele>265</ele><time>2019-08-30T10:11:02Z</time><name>PT2037</name></trkpt>
<trkpt lat="53.238777" lon="-1.856396"><ele>267</ele><time>2019-08-30T10:11:04Z</time><name>PT2038</name></trkpt>
<trkpt lat="53.238768" lon="-1.856397"><ele>266</ele><time>2019-08-30T10:11:04Z</time><name>PT2039</name></trkpt>
<trkpt lat="53.238758" lon="-1.856398"><ele>266</ele><time>2019-08-30T10:11:05Z</time><name>PT2040</name></trkpt>
<trkpt lat="53.238747" lon="-1.856393"><ele>266</ele><time>2019-08-30T10:11:06Z</time><name>PT2041</name></trkpt>
<trkpt lat="53.238738" lon="-1.856389"><ele>266</ele><time>2019-08-30T10:11:07Z</time><name>PT2042</name></trkpt>
<trkpt lat="53.238726" lon="-1.856390"><ele>266</ele><time>2019-08-30T10:11:08Z</time><name>PT2043</name></trkpt>
<trkpt lat="53.238717" lon="-1.856391"><ele>266</ele><time>2019-08-30T10:11:09Z</time><name>PT2044</name></trkpt>
<trkpt lat="53.238708" lon="-1.856389"><ele>266</ele><time>2019-08-30T10:11:10Z</time><name>PT2045</name></trkpt>
<trkpt lat="53.238698" lon="-1.856384"><ele>266</ele><time>2019-08-30T10:11:11Z</time><name>PT2046</name></trkpt>
<trkpt lat="53.238691" lon="-1.856377"><ele>266</ele><time>2019-08-30T10:11:12Z</time><name>PT2047</name></trkpt>
<trkpt lat="53.238678" lon="-1.856374"><ele>265</ele><time>2019-08-30T10:11:13Z</time><name>PT2048</name></trkpt>
<trkpt lat="53.238674" lon="-1.856359"><ele>265</ele><time>2019-08-30T10:11:14Z</time><name>PT2049</name></trkpt>
<trkpt lat="53.238662" lon="-1.856353"><ele>265</ele><time>2019-08-30T10:11:15Z</time><name>PT2050</name></trkpt>
<trkpt lat="53.238657" lon="-1.856340"><ele>265</ele><time>2019-08-30T10:11:16Z</time><name>PT2051</name></trkpt>
<trkpt lat="53.238649" lon="-1.856338"><ele>265</ele><time>2019-08-30T10:11:17Z</time><name>PT2052</name></trkpt>
<trkpt lat="53.238640" lon="-1.856333"><ele>265</ele><time>2019-08-30T10:11:18Z</time><name>PT2053</name></trkpt>
<trkpt lat="53.238631" lon="-1.856331"><ele>265</ele><time>2019-08-30T10:11:19Z</time><name>PT2054</name></trkpt>
<trkpt lat="53.238617" lon="-1.856327"><ele>265</ele><time>2019-08-30T10:11:20Z</time><name>PT2055</name></trkpt>
<trkpt lat="53.238606" lon="-1.856323"><ele>265</ele><time>2019-08-30T10:11:21Z</time><name>PT2056</name></trkpt>
<trkpt lat="53.238593" lon="-1.856319"><ele>266</ele><time>2019-08-30T10:11:22Z</time><name>PT2057</name></trkpt>
<trkpt lat="53.238581" lon="-1.856313"><ele>266</ele><time>2019-08-30T10:11:23Z</time><name>PT2058</name></trkpt>
<trkpt lat="53.238572" lon="-1.856308"><ele>266</ele><time>2019-08-30T10:11:24Z</time><name>PT2059</name></trkpt>
<trkpt lat="53.238564" lon="-1.856302"><ele>266</ele><time>2019-08-30T10:11:25Z</time><name>PT2060</name></trkpt>
<trkpt lat="53.238557" lon="-1.856300"><ele>266</ele><time>2019-08-30T10:11:26Z</time><name>PT2061</name></trkpt>
<trkpt lat="53.238554" lon="-1.856296"><ele>266</ele><time>2019-08-30T10:11:28Z</time><name>PT2062</name></trkpt>
<trkpt lat="53.238544" lon="-1.856287"><ele>267</ele><time>2019-08-30T10:11:28Z</time><name>PT2063</name></trkpt>
<trkpt lat="53.238537" lon="-1.856283"><ele>266</ele><time>2019-08-30T10:11:29Z</time><name>PT2064</name></trkpt>
<trkpt lat="53.238525" lon="-1.856281"><ele>268</ele><time>2019-08-30T10:11:30Z</time><name>PT2065</name></trkpt>
<trkpt lat="53.238517" lon="-1.856277"><ele>268</ele><time>2019-08-30T10:11:31Z</time><name>PT2066</name></trkpt>
<trkpt lat="53.238512" lon="-1.856273"><ele>268</ele><time>2019-08-30T10:11:32Z</time><name>PT2067</name></trkpt>
<trkpt lat="53.238508" lon="-1.856265"><ele>268</ele><time>2019-08-30T10:11:33Z</time><name>PT2068</name></trkpt>
<trkpt lat="53.238502" lon="-1.856258"><ele>268</ele><time>2019-08-30T10:11:34Z</time><name>PT2069</name></trkpt>
<trkpt lat="53.238495" lon="-1.856253"><ele>268</ele><time>2019-08-30T10:11:35Z</time><name>PT2070</name></trkpt>
<trkpt lat="53.238493" lon="-1.856250"><ele>268</ele><time>2019-08-30T10:11:36Z</time><name>PT2071</name></trkpt>
<trkpt lat="53.238493" lon="-1.856248"><ele>268</ele><time>2019-08-30T10:11:37Z</time><name>PT2072</name></trkpt>
<trkpt lat="53.238491" lon="-1.856245"><ele>268</ele><time>2019-08-30T10:11:38Z</time><name>PT2073</name></trkpt>
<trkpt lat="53.238483" lon="-1.856238"><ele>268</ele><time>2019-08-30T10:11:46Z</time><name>PT2074</name></trkpt>
<trkpt lat="53.238475" lon="-1.856223"><ele>268</ele><time>2019-08-30T10:11:47Z</time><name>PT2075</name></trkpt>
<trkpt lat="53.238468" lon="-1.856212"><ele>267</ele><time>2019-08-30T10:11:49Z</time><name>PT2076</name></trkpt>
<trkpt lat="53.238462" lon="-1.856203"><ele>267</ele><time>2019-08-30T10:11:49Z</time><name>PT2077</name></trkpt>
<trkpt lat="53.238449" lon="-1.856193"><ele>266</ele><time>2019-08-30T10:11:50Z</time><name>PT2078</name></trkpt>
<trkpt lat="53.238436" lon="-1.856182"><ele>265</ele><time>2019-08-30T10:11:54Z</time><name>PT2079</name></trkpt>
<trkpt lat="53.238428" lon="-1.856174"><ele>264</ele><time>2019-08-30T10:11:55Z</time><name>PT2080</name></trkpt>
<trkpt lat="53.238418" lon="-1.856159"><ele>264</ele><time>2019-08-30T10:11:56Z</time><name>PT2081</name></trkpt>
<trkpt lat="53.238411" lon="-1.856145"><ele>264</ele><time>2019-08-30T10:11:57Z</time><name>PT2082</name></trkpt>
<trkpt lat="53.238410" lon="-1.856125"><ele>264</ele><time>2019-08-30T10:11:58Z</time><name>PT2083</name></trkpt>
<trkpt lat="53.238406" lon="-1.856118"><ele>266</ele><time>2019-08-30T10:12:17Z</time><name>PT2084</name></trkpt>
<trkpt lat="53.238390" lon="-1.856098"><ele>267</ele><time>2019-08-30T10:12:18Z</time><name>PT2085</name></trkpt>
<trkpt lat="53.238377" lon="-1.856084"><ele>267</ele><time>2019-08-30T10:12:19Z</time><name>PT2086</name></trkpt>
<trkpt lat="53.238378" lon="-1.856087"><ele>267</ele><time>2019-08-30T10:12:20Z</time><name>PT2087</name></trkpt>
<trkpt lat="53.238368" lon="-1.856078"><ele>267</ele><time>2019-08-30T10:12:21Z</time><name>PT2088</name></trkpt>
<trkpt lat="53.238370" lon="-1.856069"><ele>267</ele><time>2019-08-30T10:12:22Z</time><name>PT2089</name></trkpt>
<trkpt lat="53.238375" lon="-1.856063"><ele>267</ele><time>2019-08-30T10:12:23Z</time><name>PT2090</name></trkpt>
<trkpt lat="53.238369" lon="-1.856016"><ele>268</ele><time>2019-08-30T10:12:24Z</time><name>PT2091</name></trkpt>
<trkpt lat="53.238364" lon="-1.856005"><ele>268</ele><time>2019-08-30T10:12:25Z</time><name>PT2092</name></trkpt>
<trkpt lat="53.238364" lon="-1.855999"><ele>270</ele><time>2019-08-30T10:12:26Z</time><name>PT2093</name></trkpt>
<trkpt lat="53.238368" lon="-1.855991"><ele>271</ele><time>2019-08-30T10:12:27Z</time><name>PT2094</name></trkpt>
<trkpt lat="53.238362" lon="-1.855970"><ele>272</ele><time>2019-08-30T10:12:28Z</time><name>PT2095</name></trkpt>
<trkpt lat="53.238359" lon="-1.855967"><ele>272</ele><time>2019-08-30T10:12:29Z</time><name>PT2096</name></trkpt>
<trkpt lat="53.238354" lon="-1.855962"><ele>273</ele><time>2019-08-30T10:12:30Z</time><name>PT2097</name></trkpt>
<trkpt lat="53.238346" lon="-1.855948"><ele>273</ele><time>2019-08-30T10:12:31Z</time><name>PT2098</name></trkpt>
<trkpt lat="53.238338" lon="-1.855954"><ele>273</ele><time>2019-08-30T10:12:32Z</time><name>PT2099</name></trkpt>
<trkpt lat="53.238338" lon="-1.855950"><ele>273</ele><time>2019-08-30T10:12:33Z</time><name>PT2100</name></trkpt>
<trkpt lat="53.238335" lon="-1.855944"><ele>273</ele><time>2019-08-30T10:12:34Z</time><name>PT2101</name></trkpt>
<trkpt lat="53.238327" lon="-1.855943"><ele>273</ele><time>2019-08-30T10:12:37Z</time><name>PT2102</name></trkpt>
<trkpt lat="53.238321" lon="-1.855951"><ele>273</ele><time>2019-08-30T10:12:38Z</time><name>PT2103</name></trkpt>
<trkpt lat="53.238318" lon="-1.855955"><ele>273</ele><time>2019-08-30T10:12:39Z</time><name>PT2104</name></trkpt>
<trkpt lat="53.238316" lon="-1.855959"><ele>272</ele><time>2019-08-30T10:12:40Z</time><name>PT2105</name></trkpt>
<trkpt lat="53.238318" lon="-1.855959"><ele>272</ele><time>2019-08-30T10:12:41Z</time><name>PT2106</name></trkpt>
<trkpt lat="53.238320" lon="-1.855960"><ele>272</ele><time>2019-08-30T10:12:42Z</time><name>PT2107</name></trkpt>
<trkpt lat="53.238320" lon="-1.855959"><ele>271</ele><time>2019-08-30T10:12:43Z</time><name>PT2108</name></trkpt>
<trkpt lat="53.238319" lon="-1.855960"><ele>271</ele><time>2019-08-30T10:12:44Z</time><name>PT2109</name></trkpt>
<trkpt lat="53.238295" lon="-1.855973"><ele>271</ele><time>2019-08-30T10:13:01Z</time><name>PT2110</name></trkpt>
<trkpt lat="53.238273" lon="-1.855981"><ele>270</ele><time>2019-08-30T10:13:02Z</time><name>PT2111</name></trkpt>
<trkpt lat="53.238261" lon="-1.855981"><ele>270</ele><time>2019-08-30T10:13:04Z</time><name>PT2112</name></trkpt>
<trkpt lat="53.238252" lon="-1.855996"><ele>269</ele><time>2019-08-30T10:13:04Z</time><name>PT2113</name></trkpt>
<trkpt lat="53.238246" lon="-1.856001"><ele>269</ele><time>2019-08-30T10:13:05Z</time><name>PT2114</name></trkpt>
<trkpt lat="53.238241" lon="-1.856011"><ele>269</ele><time>2019-08-30T10:13:07Z</time><name>PT2115</name></trkpt>
<trkpt lat="53.238233" lon="-1.856017"><ele>268</ele><time>2019-08-30T10:13:07Z</time><name>PT2116</name></trkpt>
<trkpt lat="53.238230" lon="-1.856023"><ele>268</ele><time>2019-08-30T10:13:08Z</time><name>PT2117</name></trkpt>
<trkpt lat="53.238227" lon="-1.856037"><ele>269</ele><time>2019-08-30T10:13:10Z</time><name>PT2118</name></trkpt>
<trkpt lat="53.238225" lon="-1.856039"><ele>268</ele><time>2019-08-30T10:13:10Z</time><name>PT2119</name></trkpt>
<trkpt lat="53.238219" lon="-1.856034"><ele>269</ele><time>2019-08-30T10:13:11Z</time><name>PT2120</name></trkpt>
<trkpt lat="53.238211" lon="-1.856039"><ele>268</ele><time>2019-08-30T10:13:12Z</time><name>PT2121</name></trkpt>
<trkpt lat="53.238206" lon="-1.856036"><ele>268</ele><time>2019-08-30T10:13:13Z</time><name>PT2122</name></trkpt>
<trkpt lat="53.238206" lon="-1.856051"><ele>268</ele><time>2019-08-30T10:13:14Z</time><name>PT2123</name></trkpt>
<trkpt lat="53.238201" lon="-1.856050"><ele>269</ele><time>2019-08-30T10:13:15Z</time><name>PT2124</name></trkpt>
<trkpt lat="53.238197" lon="-1.856053"><ele>269</ele><time>2019-08-30T10:13:16Z</time><name>PT2125</name></trkpt>
<trkpt lat="53.238191" lon="-1.856063"><ele>269</ele><time>2019-08-30T10:13:17Z</time><name>PT2126</name></trkpt>
<trkpt lat="53.238187" lon="-1.856063"><ele>268</ele><time>2019-08-30T10:13:18Z</time><name>PT2127</name></trkpt>
<trkpt lat="53.238178" lon="-1.856077"><ele>269</ele><time>2019-08-30T10:13:19Z</time><name>PT2128</name></trkpt>
<trkpt lat="53.238172" lon="-1.856080"><ele>269</ele><time>2019-08-30T10:13:20Z</time><name>PT2129</name></trkpt>
<trkpt lat="53.238166" lon="-1.856093"><ele>269</ele><time>2019-08-30T10:13:22Z</time><name>PT2130</name></trkpt>
<trkpt lat="53.238162" lon="-1.856099"><ele>270</ele><time>2019-08-30T10:13:22Z</time><name>PT2131</name></trkpt>
<trkpt lat="53.238156" lon="-1.856109"><ele>270</ele><time>2019-08-30T10:13:23Z</time><name>PT2132</name></trkpt>
<trkpt lat="53.238151" lon="-1.856112"><ele>270</ele><time>2019-08-30T10:13:24Z</time><name>PT2133</name></trkpt>
<trkpt lat="53.238148" lon="-1.856110"><ele>271</ele><time>2019-08-30T10:13:25Z</time><name>PT2134</name></trkpt>
<trkpt lat="53.238109" lon="-1.856104"><ele>268</ele><time>2019-08-30T10:13:28Z</time><name>PT2135</name></trkpt>
<trkpt lat="53.238102" lon="-1.856103"><ele>268</ele><time>2019-08-30T10:13:29Z</time><name>PT2136</name></trkpt>
<trkpt lat="53.238099" lon="-1.856097"><ele>269</ele><time>2019-08-30T10:13:30Z</time><name>PT2137</name></trkpt>
<trkpt lat="53.238084" lon="-1.856099"><ele>269</ele><time>2019-08-30T10:13:34Z</time><name>PT2138</name></trkpt>
<trkpt lat="53.238080" lon="-1.856102"><ele>269</ele><time>2019-08-30T10:13:35Z</time><name>PT2139</name></trkpt>
<trkpt lat="53.238081" lon="-1.856100"><ele>270</ele><time>2019-08-30T10:13:36Z</time><name>PT2140</name></trkpt>
<trkpt lat="53.238080" lon="-1.856102"><ele>270</ele><time>2019-08-30T10:13:37Z</time><name>PT2141</name></trkpt>
<trkpt lat="53.238079" lon="-1.856106"><ele>269</ele><time>2019-08-30T10:13:38Z</time><name>PT2142</name></trkpt>
<trkpt lat="53.238066" lon="-1.856103"><ele>269</ele><time>2019-08-30T10:13:43Z</time><name>PT2143</name></trkpt>
<trkpt lat="53.238065" lon="-1.856110"><ele>268</ele><time>2019-08-30T10:13:43Z</time><name>PT2144</name></trkpt>
<trkpt lat="53.238066" lon="-1.856112"><ele>268</ele><time>2019-08-30T10:13:44Z</time><name>PT2145</name></trkpt>
<trkpt lat="53.238062" lon="-1.856112"><ele>268</ele><time>2019-08-30T10:13:46Z</time><name>PT2146</name></trkpt>
<trkpt lat="53.238059" lon="-1.856117"><ele>268</ele><time>2019-08-30T10:13:46Z</time><name>PT2147</name></trkpt>
<trkpt lat="53.238055" lon="-1.856119"><ele>269</ele><time>2019-08-30T10:13:49Z</time><name>PT2148</name></trkpt>
<trkpt lat="53.238053" lon="-1.856121"><ele>269</ele><time>2019-08-30T10:13:49Z</time><name>PT2149</name></trkpt>
<trkpt lat="53.238056" lon="-1.856121"><ele>270</ele><time>2019-08-30T10:13:50Z</time><name>PT2150</name></trkpt>
<trkpt lat="53.238053" lon="-1.856116"><ele>270</ele><time>2019-08-30T10:13:51Z</time><name>PT2151</name></trkpt>
<trkpt lat="53.238050" lon="-1.856128"><ele>270</ele><time>2019-08-30T10:13:52Z</time><name>PT2152</name></trkpt>
<trkpt lat="53.238044" lon="-1.856136"><ele>269</ele><time>2019-08-30T10:13:58Z</time><name>PT2153</name></trkpt>
<trkpt lat="53.238040" lon="-1.856142"><ele>269</ele><time>2019-08-30T10:13:59Z</time><name>PT2154</name></trkpt>
<trkpt lat="53.238038" lon="-1.856150"><ele>268</ele><time>2019-08-30T10:14:01Z</time><name>PT2155</name></trkpt>
<trkpt lat="53.238033" lon="-1.856161"><ele>267</ele><time>2019-08-30T10:14:03Z</time><name>PT2156</name></trkpt>
<trkpt lat="53.238033" lon="-1.856165"><ele>266</ele><time>2019-08-30T10:14:04Z</time><name>PT2157</name></trkpt>
<trkpt lat="53.238025" lon="-1.856160"><ele>265</ele><time>2019-08-30T10:14:05Z</time><name>PT2158</name></trkpt>
<trkpt lat="53.238018" lon="-1.856166"><ele>265</ele><time>2019-08-30T10:14:07Z</time><name>PT2159</name></trkpt>
<trkpt lat="53.238014" lon="-1.856174"><ele>265</ele><time>2019-08-30T10:14:07Z</time><name>PT2160</name></trkpt>
<trkpt lat="53.238008" lon="-1.856182"><ele>265</ele><time>2019-08-30T10:14:08Z</time><name>PT2161</name></trkpt>
<trkpt lat="53.238007" lon="-1.856181"><ele>264</ele><time>2019-08-30T10:14:10Z</time><name>PT2162</name></trkpt>
<trkpt lat="53.238000" lon="-1.856182"><ele>263</ele><time>2019-08-30T10:14:10Z</time><name>PT2163</name></trkpt>
<trkpt lat="53.237996" lon="-1.856181"><ele>262</ele><time>2019-08-30T10:14:11Z</time><name>PT2164</name></trkpt>
<trkpt lat="53.237991" lon="-1.856191"><ele>262</ele><time>2019-08-30T10:14:13Z</time><name>PT2165</name></trkpt>
<trkpt lat="53.237989" lon="-1.856187"><ele>261</ele><time>2019-08-30T10:14:13Z</time><name>PT2166</name></trkpt>
<trkpt lat="53.237982" lon="-1.856187"><ele>261</ele><time>2019-08-30T10:14:14Z</time><name>PT2167</name></trkpt>
<trkpt lat="53.237977" lon="-1.856191"><ele>261</ele><time>2019-08-30T10:14:15Z</time><name>PT2168</name></trkpt>
<trkpt lat="53.237964" lon="-1.856183"><ele>262</ele><time>2019-08-30T10:14:16Z</time><name>PT2169</name></trkpt>
<trkpt lat="53.237955" lon="-1.856183"><ele>261</ele><time>2019-08-30T10:14:17Z</time><name>PT2170</name></trkpt>
<trkpt lat="53.237947" lon="-1.856188"><ele>261</ele><time>2019-08-30T10:14:18Z</time><name>PT2171</name></trkpt>
<trkpt lat="53.237939" lon="-1.856190"><ele>262</ele><time>2019-08-30T10:14:19Z</time><name>PT2172</name></trkpt>
<trkpt lat="53.237935" lon="-1.856193"><ele>262</ele><time>2019-08-30T10:14:20Z</time><name>PT2173</name></trkpt>
<trkpt lat="53.237932" lon="-1.856197"><ele>261</ele><time>2019-08-30T10:14:21Z</time><name>PT2174</name></trkpt>
<trkpt lat="53.237927" lon="-1.856201"><ele>261</ele><time>2019-08-30T10:14:22Z</time><name>PT2175</name></trkpt>
<trkpt lat="53.237921" lon="-1.856214"><ele>261</ele><time>2019-08-30T10:14:23Z</time><name>PT2176</name></trkpt>
<trkpt lat="53.237915" lon="-1.856226"><ele>261</ele><time>2019-08-30T10:14:25Z</time><name>PT2177</name></trkpt>
<trkpt lat="53.237910" lon="-1.856231"><ele>261</ele><time>2019-08-30T10:14:25Z</time><name>PT2178</name></trkpt>
<trkpt lat="53.237908" lon="-1.856237"><ele>261</ele><time>2019-08-30T10:14:26Z</time><name>PT2179</name></trkpt>
<trkpt lat="53.237907" lon="-1.856241"><ele>260</ele><time>2019-08-30T10:14:27Z</time><name>PT2180</name></trkpt>
<trkpt lat="53.237890" lon="-1.856218"><ele>262</ele><time>2019-08-30T10:14:28Z</time><name>PT2181</name></trkpt>
<trkpt lat="53.237883" lon="-1.856211"><ele>262</ele><time>2019-08-30T10:14:29Z</time><name>PT2182</name></trkpt>
<trkpt lat="53.237874" lon="-1.856222"><ele>262</ele><time>2019-08-30T10:14:31Z</time><name>PT2183</name></trkpt>
<trkpt lat="53.237865" lon="-1.856228"><ele>262</ele><time>2019-08-30T10:14:31Z</time><name>PT2184</name></trkpt>
<trkpt lat="53.237858" lon="-1.856232"><ele>263</ele><time>2019-08-30T10:14:32Z</time><name>PT2185</name></trkpt>
<trkpt lat="53.237855" lon="-1.856237"><ele>263</ele><time>2019-08-30T10:14:34Z</time><name>PT2186</name></trkpt>
<trkpt lat="53.237852" lon="-1.856245"><ele>263</ele><time>2019-08-30T10:14:34Z</time><name>PT2187</name></trkpt>
<trkpt lat="53.237850" lon="-1.856272"><ele>264</ele><time>2019-08-30T10:14:35Z</time><name>PT2188</name></trkpt>
<trkpt lat="53.237847" lon="-1.856271"><ele>265</ele><time>2019-08-30T10:14:37Z</time><name>PT2189</name></trkpt>
<trkpt lat="53.237842" lon="-1.856268"><ele>265</ele><time>2019-08-30T10:14:37Z</time><name>PT2190</name></trkpt>
<trkpt lat="53.237838" lon="-1.856280"><ele>266</ele><time>2019-08-30T10:14:38Z</time><name>PT2191</name></trkpt>
<trkpt lat="53.237835" lon="-1.856288"><ele>265</ele><time>2019-08-30T10:14:39Z</time><name>PT2192</name></trkpt>
<trkpt lat="53.237832" lon="-1.856293"><ele>268</ele><time>2019-08-30T10:14:40Z</time><name>PT2193</name></trkpt>
<trkpt lat="53.237827" lon="-1.856297"><ele>268</ele><time>2019-08-30T10:14:41Z</time><name>PT2194</name></trkpt>
<trkpt lat="53.237819" lon="-1.856287"><ele>268</ele><time>2019-08-30T10:14:42Z</time><name>PT2195</name></trkpt>
<trkpt lat="53.237813" lon="-1.856291"><ele>269</ele><time>2019-08-30T10:14:43Z</time><name>PT2196</name></trkpt>
<trkpt lat="53.237805" lon="-1.856285"><ele>269</ele><time>2019-08-30T10:14:44Z</time><name>PT2197</name></trkpt>
<trkpt lat="53.237803" lon="-1.856288"><ele>268</ele><time>2019-08-30T10:14:45Z</time><name>PT2198</name></trkpt>
<trkpt lat="53.237794" lon="-1.856289"><ele>270</ele><time>2019-08-30T10:14:46Z</time><name>PT2199</name></trkpt>
<trkpt lat="53.237787" lon="-1.856289"><ele>271</ele><time>2019-08-30T10:14:47Z</time><name>PT2200</name></trkpt>
<trkpt lat="53.237783" lon="-1.856294"><ele>271</ele><time>2019-08-30T10:14:49Z</time><name>PT2201</name></trkpt>
<trkpt lat="53.237779" lon="-1.856296"><ele>272</ele><time>2019-08-30T10:14:49Z</time><name>PT2202</name></trkpt>
<trkpt lat="53.237780" lon="-1.856292"><ele>272</ele><time>2019-08-30T10:14:50Z</time><name>PT2203</name></trkpt>
<trkpt lat="53.237779" lon="-1.856294"><ele>272</ele><time>2019-08-30T10:14:52Z</time><name>PT2204</name></trkpt>
<trkpt lat="53.237772" lon="-1.856299"><ele>271</ele><time>2019-08-30T10:14:55Z</time><name>PT2205</name></trkpt>
<trkpt lat="53.237752" lon="-1.856309"><ele>270</ele><time>2019-08-30T10:14:56Z</time><name>PT2206</name></trkpt>
<trkpt lat="53.237743" lon="-1.856315"><ele>270</ele><time>2019-08-30T10:14:57Z</time><name>PT2207</name></trkpt>
<trkpt lat="53.237730" lon="-1.856320"><ele>269</ele><time>2019-08-30T10:14:58Z</time><name>PT2208</name></trkpt>
<trkpt lat="53.237720" lon="-1.856341"><ele>270</ele><time>2019-08-30T10:14:59Z</time><name>PT2209</name></trkpt>
<trkpt lat="53.237711" lon="-1.856353"><ele>269</ele><time>2019-08-30T10:15:01Z</time><name>PT2210</name></trkpt>
<trkpt lat="53.237704" lon="-1.856357"><ele>269</ele><time>2019-08-30T10:15:01Z</time><name>PT2211</name></trkpt>
<trkpt lat="53.237695" lon="-1.856355"><ele>270</ele><time>2019-08-30T10:15:02Z</time><name>PT2212</name></trkpt>
<trkpt lat="53.237689" lon="-1.856371"><ele>270</ele><time>2019-08-30T10:15:04Z</time><name>PT2213</name></trkpt>
<trkpt lat="53.237683" lon="-1.856374"><ele>270</ele><time>2019-08-30T10:15:04Z</time><name>PT2214</name></trkpt>
<trkpt lat="53.237668" lon="-1.856378"><ele>271</ele><time>2019-08-30T10:15:05Z</time><name>PT2215</name></trkpt>
<trkpt lat="53.237660" lon="-1.856381"><ele>271</ele><time>2019-08-30T10:15:07Z</time><name>PT2216</name></trkpt>
<trkpt lat="53.237652" lon="-1.856389"><ele>272</ele><time>2019-08-30T10:15:07Z</time><name>PT2217</name></trkpt>
<trkpt lat="53.237648" lon="-1.856401"><ele>272</ele><time>2019-08-30T10:15:08Z</time><name>PT2218</name></trkpt>
<trkpt lat="53.237645" lon="-1.856417"><ele>273</ele><time>2019-08-30T10:15:09Z</time><name>PT2219</name></trkpt>
<trkpt lat="53.237643" lon="-1.856421"><ele>274</ele><time>2019-08-30T10:15:10Z</time><name>PT2220</name></trkpt>
<trkpt lat="53.237640" lon="-1.856424"><ele>275</ele><time>2019-08-30T10:15:11Z</time><name>PT2221</name></trkpt>
<trkpt lat="53.237622" lon="-1.856429"><ele>275</ele><time>2019-08-30T10:15:18Z</time><name>PT2222</name></trkpt>
<trkpt lat="53.237610" lon="-1.856434"><ele>275</ele><time>2019-08-30T10:15:19Z</time><name>PT2223</name></trkpt>
<trkpt lat="53.237590" lon="-1.856454"><ele>276</ele><time>2019-08-30T10:15:20Z</time><name>PT2224</name></trkpt>
<trkpt lat="53.237573" lon="-1.856458"><ele>276</ele><time>2019-08-30T10:15:21Z</time><name>PT2225</name></trkpt>
<trkpt lat="53.237563" lon="-1.856464"><ele>276</ele><time>2019-08-30T10:15:22Z</time><name>PT2226</name></trkpt>
<trkpt lat="53.237553" lon="-1.856471"><ele>276</ele><time>2019-08-30T10:15:23Z</time><name>PT2227</name></trkpt>
<trkpt lat="53.237547" lon="-1.856478"><ele>277</ele><time>2019-08-30T10:15:25Z</time><name>PT2228</name></trkpt>
<trkpt lat="53.237542" lon="-1.856480"><ele>277</ele><time>2019-08-30T10:15:25Z</time><name>PT2229</name></trkpt>
<trkpt lat="53.237535" lon="-1.856484"><ele>277</ele><time>2019-08-30T10:15:26Z</time><name>PT2230</name></trkpt>
<trkpt lat="53.237531" lon="-1.856484"><ele>277</ele><time>2019-08-30T10:15:27Z</time><name>PT2231</name></trkpt>
<trkpt lat="53.237518" lon="-1.856478"><ele>277</ele><time>2019-08-30T10:15:28Z</time><name>PT2232</name></trkpt>
<trkpt lat="53.237520" lon="-1.856485"><ele>278</ele><time>2019-08-30T10:15:30Z</time><name>PT2233</name></trkpt>
<trkpt lat="53.237516" lon="-1.856498"><ele>278</ele><time>2019-08-30T10:15:30Z</time><name>PT2234</name></trkpt>
<trkpt lat="53.237505" lon="-1.856503"><ele>278</ele><time>2019-08-30T10:15:31Z</time><name>PT2235</name></trkpt>
<trkpt lat="53.237494" lon="-1.856510"><ele>277</ele><time>2019-08-30T10:15:33Z</time><name>PT2236</name></trkpt>
<trkpt lat="53.237484" lon="-1.856512"><ele>278</ele><time>2019-08-30T10:15:33Z</time><name>PT2237</name></trkpt>
<trkpt lat="53.237475" lon="-1.856508"><ele>278</ele><time>2019-08-30T10:15:34Z</time><name>PT2238</name></trkpt>
<trkpt lat="53.237465" lon="-1.856507"><ele>278</ele><time>2019-08-30T10:15:36Z</time><name>PT2239</name></trkpt>
<trkpt lat="53.237458" lon="-1.856506"><ele>279</ele><time>2019-08-30T10:15:36Z</time><name>PT2240</name></trkpt>
<trkpt lat="53.237451" lon="-1.856506"><ele>279</ele><time>2019-08-30T10:15:37Z</time><name>PT2241</name></trkpt>
<trkpt lat="53.237443" lon="-1.856521"><ele>280</ele><time>2019-08-30T10:15:52Z</time><name>PT2242</name></trkpt>
<trkpt lat="53.237423" lon="-1.856533"><ele>281</ele><time>2019-08-30T10:15:54Z</time><name>PT2243</name></trkpt>
<trkpt lat="53.237408" lon="-1.856562"><ele>280</ele><time>2019-08-30T10:15:54Z</time><name>PT2244</name></trkpt>
<trkpt lat="53.237394" lon="-1.856589"><ele>281</ele><time>2019-08-30T10:15:55Z</time><name>PT2245</name></trkpt>
<trkpt lat="53.237384" lon="-1.856606"><ele>280</ele><time>2019-08-30T10:15:57Z</time><name>PT2246</name></trkpt>
<trkpt lat="53.237380" lon="-1.856617"><ele>280</ele><time>2019-08-30T10:15:57Z</time><name>PT2247</name></trkpt>
<trkpt lat="53.237375" lon="-1.856628"><ele>280</ele><time>2019-08-30T10:15:58Z</time><name>PT2248</name></trkpt>
<trkpt lat="53.237366" lon="-1.856643"><ele>281</ele><time>2019-08-30T10:16:03Z</time><name>PT2249</name></trkpt>
<trkpt lat="53.237363" lon="-1.856657"><ele>280</ele><time>2019-08-30T10:16:04Z</time><name>PT2250</name></trkpt>
<trkpt lat="53.237358" lon="-1.856668"><ele>280</ele><time>2019-08-30T10:16:06Z</time><name>PT2251</name></trkpt>
<trkpt lat="53.237343" lon="-1.856696"><ele>280</ele><time>2019-08-30T10:16:07Z</time><name>PT2252</name></trkpt>
<trkpt lat="53.237330" lon="-1.856704"><ele>280</ele><time>2019-08-30T10:16:08Z</time><name>PT2253</name></trkpt>
<trkpt lat="53.237321" lon="-1.856717"><ele>279</ele><time>2019-08-30T10:16:09Z</time><name>PT2254</name></trkpt>
<trkpt lat="53.237310" lon="-1.856722"><ele>279</ele><time>2019-08-30T10:16:10Z</time><name>PT2255</name></trkpt>
<trkpt lat="53.237303" lon="-1.856725"><ele>279</ele><time>2019-08-30T10:16:11Z</time><name>PT2256</name></trkpt>
<trkpt lat="53.237299" lon="-1.856733"><ele>279</ele><time>2019-08-30T10:16:12Z</time><name>PT2257</name></trkpt>
<trkpt lat="53.237285" lon="-1.856744"><ele>279</ele><time>2019-08-30T10:16:13Z</time><name>PT2258</name></trkpt>
<trkpt lat="53.237276" lon="-1.856743"><ele>279</ele><time>2019-08-30T10:16:14Z</time><name>PT2259</name></trkpt>
<trkpt lat="53.237269" lon="-1.856744"><ele>279</ele><time>2019-08-30T10:16:15Z</time><name>PT2260</name></trkpt>
<trkpt lat="53.237264" lon="-1.856752"><ele>279</ele><time>2019-08-30T10:16:18Z</time><name>PT2261</name></trkpt>
<trkpt lat="53.237262" lon="-1.856770"><ele>280</ele><time>2019-08-30T10:16:19Z</time><name>PT2262</name></trkpt>
<trkpt lat="53.237257" lon="-1.856779"><ele>280</ele><time>2019-08-30T10:16:21Z</time><name>PT2263</name></trkpt>
<trkpt lat="53.237249" lon="-1.856787"><ele>280</ele><time>2019-08-30T10:16:21Z</time><name>PT2264</name></trkpt>
<trkpt lat="53.237243" lon="-1.856796"><ele>280</ele><time>2019-08-30T10:16:22Z</time><name>PT2265</name></trkpt>
<trkpt lat="53.237236" lon="-1.856801"><ele>280</ele><time>2019-08-30T10:16:23Z</time><name>PT2266</name></trkpt>
<trkpt lat="53.237236" lon="-1.856810"><ele>280</ele><time>2019-08-30T10:16:24Z</time><name>PT2267</name></trkpt>
<trkpt lat="53.237232" lon="-1.856813"><ele>279</ele><time>2019-08-30T10:16:38Z</time><name>PT2268</name></trkpt>
<trkpt lat="53.237225" lon="-1.856822"><ele>280</ele><time>2019-08-30T10:16:39Z</time><name>PT2269</name></trkpt>
<trkpt lat="53.237227" lon="-1.856844"><ele>280</ele><time>2019-08-30T10:16:40Z</time><name>PT2270</name></trkpt>
<trkpt lat="53.237226" lon="-1.856852"><ele>281</ele><time>2019-08-30T10:16:42Z</time><name>PT2271</name></trkpt>
<trkpt lat="53.237217" lon="-1.856857"><ele>281</ele><time>2019-08-30T10:16:42Z</time><name>PT2272</name></trkpt>
<trkpt lat="53.237213" lon="-1.856861"><ele>281</ele><time>2019-08-30T10:16:43Z</time><name>PT2273</name></trkpt>
<trkpt lat="53.237212" lon="-1.856866"><ele>281</ele><time>2019-08-30T10:16:45Z</time><name>PT2274</name></trkpt>
<trkpt lat="53.237216" lon="-1.856868"><ele>281</ele><time>2019-08-30T10:16:45Z</time><name>PT2275</name></trkpt>
<trkpt lat="53.237217" lon="-1.856873"><ele>282</ele><time>2019-08-30T10:16:46Z</time><name>PT2276</name></trkpt>
<trkpt lat="53.237212" lon="-1.856877"><ele>282</ele><time>2019-08-30T10:16:48Z</time><name>PT2277</name></trkpt>
<trkpt lat="53.237207" lon="-1.856882"><ele>282</ele><time>2019-08-30T10:16:48Z</time><name>PT2278</name></trkpt>
<trkpt lat="53.237198" lon="-1.856875"><ele>282</ele><time>2019-08-30T10:16:49Z</time><name>PT2279</name></trkpt>
<trkpt lat="53.237192" lon="-1.856879"><ele>282</ele><time>2019-08-30T10:16:51Z</time><name>PT2280</name></trkpt>
<trkpt lat="53.237191" lon="-1.856887"><ele>282</ele><time>2019-08-30T10:16:51Z</time><name>PT2281</name></trkpt>
<trkpt lat="53.237185" lon="-1.856886"><ele>283</ele><time>2019-08-30T10:16:52Z</time><name>PT2282</name></trkpt>
<trkpt lat="53.237177" lon="-1.856885"><ele>282</ele><time>2019-08-30T10:16:54Z</time><name>PT2283</name></trkpt>
<trkpt lat="53.237170" lon="-1.856886"><ele>283</ele><time>2019-08-30T10:16:54Z</time><name>PT2284</name></trkpt>
<trkpt lat="53.237164" lon="-1.856887"><ele>283</ele><time>2019-08-30T10:16:55Z</time><name>PT2285</name></trkpt>
<trkpt lat="53.237165" lon="-1.856893"><ele>283</ele><time>2019-08-30T10:16:57Z</time><name>PT2286</name></trkpt>
<trkpt lat="53.237161" lon="-1.856899"><ele>283</ele><time>2019-08-30T10:16:57Z</time><name>PT2287</name></trkpt>
<trkpt lat="53.237146" lon="-1.856892"><ele>284</ele><time>2019-08-30T10:16:58Z</time><name>PT2288</name></trkpt>
<trkpt lat="53.237141" lon="-1.856897"><ele>284</ele><time>2019-08-30T10:17:00Z</time><name>PT2289</name></trkpt>
<trkpt lat="53.237135" lon="-1.856901"><ele>284</ele><time>2019-08-30T10:17:00Z</time><name>PT2290</name></trkpt>
<trkpt lat="53.237137" lon="-1.856921"><ele>284</ele><time>2019-08-30T10:17:01Z</time><name>PT2291</name></trkpt>
<trkpt lat="53.237136" lon="-1.856928"><ele>284</ele><time>2019-08-30T10:17:02Z</time><name>PT2292</name></trkpt>
<trkpt lat="53.237134" lon="-1.856936"><ele>284</ele><time>2019-08-30T10:17:03Z</time><name>PT2293</name></trkpt>
<trkpt lat="53.237129" lon="-1.856940"><ele>284</ele><time>2019-08-30T10:17:04Z</time><name>PT2294</name></trkpt>
<trkpt lat="53.237123" lon="-1.856943"><ele>284</ele><time>2019-08-30T10:17:05Z</time><name>PT2295</name></trkpt>
<trkpt lat="53.237120" lon="-1.856946"><ele>284</ele><time>2019-08-30T10:17:06Z</time><name>PT2296</name></trkpt>
<trkpt lat="53.237114" lon="-1.856958"><ele>283</ele><time>2019-08-30T10:17:10Z</time><name>PT2297</name></trkpt>
<trkpt lat="53.237093" lon="-1.856981"><ele>283</ele><time>2019-08-30T10:17:11Z</time><name>PT2298</name></trkpt>
<trkpt lat="53.237075" lon="-1.856995"><ele>283</ele><time>2019-08-30T10:17:12Z</time><name>PT2299</name></trkpt>
<trkpt lat="53.237070" lon="-1.857010"><ele>283</ele><time>2019-08-30T10:17:13Z</time><name>PT2300</name></trkpt>
<trkpt lat="53.237061" lon="-1.857017"><ele>282</ele><time>2019-08-30T10:17:15Z</time><name>PT2301</name></trkpt>
<trkpt lat="53.237050" lon="-1.857023"><ele>282</ele><time>2019-08-30T10:17:15Z</time><name>PT2302</name></trkpt>
<trkpt lat="53.237041" lon="-1.857025"><ele>281</ele><time>2019-08-30T10:17:16Z</time><name>PT2303</name></trkpt>
<trkpt lat="53.237033" lon="-1.857030"><ele>281</ele><time>2019-08-30T10:17:17Z</time><name>PT2304</name></trkpt>
<trkpt lat="53.237026" lon="-1.857038"><ele>281</ele><time>2019-08-30T10:17:18Z</time><name>PT2305</name></trkpt>
<trkpt lat="53.237018" lon="-1.857039"><ele>281</ele><time>2019-08-30T10:17:19Z</time><name>PT2306</name></trkpt>
<trkpt lat="53.236993" lon="-1.857047"><ele>280</ele><time>2019-08-30T10:17:21Z</time><name>PT2307</name></trkpt>
<trkpt lat="53.236985" lon="-1.857047"><ele>280</ele><time>2019-08-30T10:17:21Z</time><name>PT2308</name></trkpt>
<trkpt lat="53.236978" lon="-1.857055"><ele>279</ele><time>2019-08-30T10:17:22Z</time><name>PT2309</name></trkpt>
<trkpt lat="53.236961" lon="-1.857065"><ele>277</ele><time>2019-08-30T10:17:23Z</time><name>PT2310</name></trkpt>
<trkpt lat="53.236970" lon="-1.857075"><ele>276</ele><time>2019-08-30T10:17:24Z</time><name>PT2311</name></trkpt>
<trkpt lat="53.236974" lon="-1.857103"><ele>275</ele><time>2019-08-30T10:17:25Z</time><name>PT2312</name></trkpt>
<trkpt lat="53.236976" lon="-1.857117"><ele>275</ele><time>2019-08-30T10:17:27Z</time><name>PT2313</name></trkpt>
<trkpt lat="53.236976" lon="-1.857124"><ele>274</ele><time>2019-08-30T10:17:27Z</time><name>PT2314</name></trkpt>
<trkpt lat="53.236974" lon="-1.857127"><ele>274</ele><time>2019-08-30T10:17:28Z</time><name>PT2315</name></trkpt>
<trkpt lat="53.236966" lon="-1.857127"><ele>275</ele><time>2019-08-30T10:17:30Z</time><name>PT2316</name></trkpt>
<trkpt lat="53.236964" lon="-1.857127"><ele>275</ele><time>2019-08-30T10:17:30Z</time><name>PT2317</name></trkpt>
<trkpt lat="53.236958" lon="-1.857132"><ele>275</ele><time>2019-08-30T10:17:31Z</time><name>PT2318</name></trkpt>
<trkpt lat="53.236954" lon="-1.857142"><ele>275</ele><time>2019-08-30T10:17:33Z</time><name>PT2319</name></trkpt>
<trkpt lat="53.236952" lon="-1.857149"><ele>275</ele><time>2019-08-30T10:17:33Z</time><name>PT2320</name></trkpt>
<trkpt lat="53.236946" lon="-1.857151"><ele>276</ele><time>2019-08-30T10:17:34Z</time><name>PT2321</name></trkpt>
<trkpt lat="53.236942" lon="-1.857158"><ele>276</ele><time>2019-08-30T10:17:35Z</time><name>PT2322</name></trkpt>
<trkpt lat="53.236939" lon="-1.857165"><ele>277</ele><time>2019-08-30T10:17:36Z</time><name>PT2323</name></trkpt>
<trkpt lat="53.236933" lon="-1.857168"><ele>277</ele><time>2019-08-30T10:17:37Z</time><name>PT2324</name></trkpt>
<trkpt lat="53.236931" lon="-1.857167"><ele>277</ele><time>2019-08-30T10:17:38Z</time><name>PT2325</name></trkpt>
<trkpt lat="53.236932" lon="-1.857173"><ele>276</ele><time>2019-08-30T10:17:39Z</time><name>PT2326</name></trkpt>
<trkpt lat="53.236928" lon="-1.857175"><ele>277</ele><time>2019-08-30T10:17:40Z</time><name>PT2327</name></trkpt>
<trkpt lat="53.236923" lon="-1.857174"><ele>277</ele><time>2019-08-30T10:17:41Z</time><name>PT2328</name></trkpt>
<trkpt lat="53.236916" lon="-1.857175"><ele>277</ele><time>2019-08-30T10:17:42Z</time><name>PT2329</name></trkpt>
<trkpt lat="53.236913" lon="-1.857179"><ele>276</ele><time>2019-08-30T10:17:43Z</time><name>PT2330</name></trkpt>
<trkpt lat="53.236909" lon="-1.857188"><ele>277</ele><time>2019-08-30T10:17:44Z</time><name>PT2331</name></trkpt>
<trkpt lat="53.236904" lon="-1.857188"><ele>277</ele><time>2019-08-30T10:17:45Z</time><name>PT2332</name></trkpt>
<trkpt lat="53.236899" lon="-1.857191"><ele>277</ele><time>2019-08-30T10:17:46Z</time><name>PT2333</name></trkpt>
<trkpt lat="53.236896" lon="-1.857197"><ele>278</ele><time>2019-08-30T10:17:47Z</time><name>PT2334</name></trkpt>
<trkpt lat="53.236888" lon="-1.857199"><ele>279</ele><time>2019-08-30T10:17:48Z</time><name>PT2335</name></trkpt>
<trkpt lat="53.236883" lon="-1.857202"><ele>279</ele><time>2019-08-30T10:17:49Z</time><name>PT2336</name></trkpt>
<trkpt lat="53.236878" lon="-1.857198"><ele>279</ele><time>2019-08-30T10:17:50Z</time><name>PT2337</name></trkpt>
<trkpt lat="53.236875" lon="-1.857195"><ele>279</ele><time>2019-08-30T10:17:51Z</time><name>PT2338</name></trkpt>
<trkpt lat="53.236870" lon="-1.857200"><ele>279</ele><time>2019-08-30T10:17:52Z</time><name>PT2339</name></trkpt>
<trkpt lat="53.236864" lon="-1.857204"><ele>279</ele><time>2019-08-30T10:17:53Z</time><name>PT2340</name></trkpt>
<trkpt lat="53.236863" lon="-1.857206"><ele>279</ele><time>2019-08-30T10:17:54Z</time><name>PT2341</name></trkpt>
<trkpt lat="53.236860" lon="-1.857216"><ele>280</ele><time>2019-08-30T10:17:55Z</time><name>PT2342</name></trkpt>
<trkpt lat="53.236857" lon="-1.857228"><ele>280</ele><time>2019-08-30T10:17:56Z</time><name>PT2343</name></trkpt>
<trkpt lat="53.236856" lon="-1.857244"><ele>280</ele><time>2019-08-30T10:17:57Z</time><name>PT2344</name></trkpt>
<trkpt lat="53.236855" lon="-1.857255"><ele>278</ele><time>2019-08-30T10:17:58Z</time><name>PT2345</name></trkpt>
<trkpt lat="53.236852" lon="-1.857271"><ele>279</ele><time>2019-08-30T10:17:59Z</time><name>PT2346</name></trkpt>
<trkpt lat="53.236849" lon="-1.857274"><ele>279</ele><time>2019-08-30T10:18:00Z</time><name>PT2347</name></trkpt>
<trkpt lat="53.236842" lon="-1.857275"><ele>280</ele><time>2019-08-30T10:18:01Z</time><name>PT2348</name></trkpt>
<trkpt lat="53.236841" lon="-1.857277"><ele>279</ele><time>2019-08-30T10:18:02Z</time><name>PT2349</name></trkpt>
<trkpt lat="53.236838" lon="-1.857283"><ele>279</ele><time>2019-08-30T10:18:03Z</time><name>PT2350</name></trkpt>
<trkpt lat="53.236837" lon="-1.857294"><ele>279</ele><time>2019-08-30T10:18:04Z</time><name>PT2351</name></trkpt>
<trkpt lat="53.236833" lon="-1.857302"><ele>278</ele><time>2019-08-30T10:18:06Z</time><name>PT2352</name></trkpt>
<trkpt lat="53.236830" lon="-1.857307"><ele>278</ele><time>2019-08-30T10:18:06Z</time><name>PT2353</name></trkpt>
<trkpt lat="53.236826" lon="-1.857318"><ele>277</ele><time>2019-08-30T10:18:07Z</time><name>PT2354</name></trkpt>
<trkpt lat="53.236821" lon="-1.857326"><ele>276</ele><time>2019-08-30T10:18:08Z</time><name>PT2355</name></trkpt>
<trkpt lat="53.236813" lon="-1.857336"><ele>275</ele><time>2019-08-30T10:18:09Z</time><name>PT2356</name></trkpt>
<trkpt lat="53.236813" lon="-1.857350"><ele>273</ele><time>2019-08-30T10:18:10Z</time><name>PT2357</name></trkpt>
<trkpt lat="53.236802" lon="-1.857365"><ele>273</ele><time>2019-08-30T10:18:12Z</time><name>PT2358</name></trkpt>
<trkpt lat="53.236797" lon="-1.857378"><ele>273</ele><time>2019-08-30T10:18:12Z</time><name>PT2359</name></trkpt>
<trkpt lat="53.236790" lon="-1.857397"><ele>273</ele><time>2019-08-30T10:18:13Z</time><name>PT2360</name></trkpt>
<trkpt lat="53.236788" lon="-1.857420"><ele>273</ele><time>2019-08-30T10:18:14Z</time><name>PT2361</name></trkpt>
<trkpt lat="53.236778" lon="-1.857434"><ele>272</ele><time>2019-08-30T10:18:15Z</time><name>PT2362</name></trkpt>
<trkpt lat="53.236775" lon="-1.857443"><ele>271</ele><time>2019-08-30T10:18:16Z</time><name>PT2363</name></trkpt>
<trkpt lat="53.236767" lon="-1.857457"><ele>271</ele><time>2019-08-30T10:18:17Z</time><name>PT2364</name></trkpt>
<trkpt lat="53.236762" lon="-1.857466"><ele>270</ele><time>2019-08-30T10:18:18Z</time><name>PT2365</name></trkpt>
<trkpt lat="53.236761" lon="-1.857480"><ele>269</ele><time>2019-08-30T10:18:19Z</time><name>PT2366</name></trkpt>
<trkpt lat="53.236756" lon="-1.857493"><ele>269</ele><time>2019-08-30T10:18:21Z</time><name>PT2367</name></trkpt>
<trkpt lat="53.236753" lon="-1.857506"><ele>270</ele><time>2019-08-30T10:18:21Z</time><name>PT2368</name></trkpt>
<trkpt lat="53.236748" lon="-1.857525"><ele>270</ele><time>2019-08-30T10:18:22Z</time><name>PT2369</name></trkpt>
<trkpt lat="53.236744" lon="-1.857531"><ele>270</ele><time>2019-08-30T10:18:24Z</time><name>PT2370</name></trkpt>
<trkpt lat="53.236735" lon="-1.857538"><ele>270</ele><time>2019-08-30T10:18:24Z</time><name>PT2371</name></trkpt>
<trkpt lat="53.236724" lon="-1.857553"><ele>272</ele><time>2019-08-30T10:18:25Z</time><name>PT2372</name></trkpt>
<trkpt lat="53.236717" lon="-1.857559"><ele>272</ele><time>2019-08-30T10:18:27Z</time><name>PT2373</name></trkpt>
<trkpt lat="53.236707" lon="-1.857577"><ele>273</ele><time>2019-08-30T10:18:27Z</time><name>PT2374</name></trkpt>
<trkpt lat="53.236703" lon="-1.857588"><ele>272</ele><time>2019-08-30T10:18:28Z</time><name>PT2375</name></trkpt>
<trkpt lat="53.236696" lon="-1.857597"><ele>272</ele><time>2019-08-30T10:18:29Z</time><name>PT2376</name></trkpt>
<trkpt lat="53.236690" lon="-1.857610"><ele>273</ele><time>2019-08-30T10:18:30Z</time><name>PT2377</name></trkpt>
<trkpt lat="53.236681" lon="-1.857624"><ele>274</ele><time>2019-08-30T10:18:31Z</time><name>PT2378</name></trkpt>
<trkpt lat="53.236674" lon="-1.857632"><ele>275</ele><time>2019-08-30T10:18:32Z</time><name>PT2379</name></trkpt>
<trkpt lat="53.236674" lon="-1.857635"><ele>274</ele><time>2019-08-30T10:18:33Z</time><name>PT2380</name></trkpt>
<trkpt lat="53.236671" lon="-1.857650"><ele>274</ele><time>2019-08-30T10:18:34Z</time><name>PT2381</name></trkpt>
<trkpt lat="53.236663" lon="-1.857656"><ele>273</ele><time>2019-08-30T10:18:36Z</time><name>PT2382</name></trkpt>
<trkpt lat="53.236660" lon="-1.857666"><ele>272</ele><time>2019-08-30T10:18:36Z</time><name>PT2383</name></trkpt>
<trkpt lat="53.236655" lon="-1.857678"><ele>272</ele><time>2019-08-30T10:18:37Z</time><name>PT2384</name></trkpt>
<trkpt lat="53.236647" lon="-1.857688"><ele>272</ele><time>2019-08-30T10:18:38Z</time><name>PT2385</name></trkpt>
<trkpt lat="53.236642" lon="-1.857691"><ele>271</ele><time>2019-08-30T10:18:39Z</time><name>PT2386</name></trkpt>
<trkpt lat="53.236627" lon="-1.857686"><ele>271</ele><time>2019-08-30T10:18:40Z</time><name>PT2387</name></trkpt>
<trkpt lat="53.236617" lon="-1.857686"><ele>271</ele><time>2019-08-30T10:18:41Z</time><name>PT2388</name></trkpt>
<trkpt lat="53.236617" lon="-1.857686"><ele>270</ele><time>2019-08-30T10:18:42Z</time><name>PT2389</name></trkpt>
<trkpt lat="53.236612" lon="-1.857692"><ele>269</ele><time>2019-08-30T10:18:43Z</time><name>PT2390</name></trkpt>
<trkpt lat="53.236604" lon="-1.857705"><ele>269</ele><time>2019-08-30T10:18:44Z</time><name>PT2391</name></trkpt>
<trkpt lat="53.236596" lon="-1.857714"><ele>270</ele><time>2019-08-30T10:18:45Z</time><name>PT2392</name></trkpt>
<trkpt lat="53.236586" lon="-1.857724"><ele>270</ele><time>2019-08-30T10:18:46Z</time><name>PT2393</name></trkpt>
<trkpt lat="53.236579" lon="-1.857728"><ele>270</ele><time>2019-08-30T10:18:47Z</time><name>PT2394</name></trkpt>
<trkpt lat="53.236573" lon="-1.857732"><ele>270</ele><time>2019-08-30T10:18:48Z</time><name>PT2395</name></trkpt>
<trkpt lat="53.236567" lon="-1.857745"><ele>270</ele><time>2019-08-30T10:18:49Z</time><name>PT2396</name></trkpt>
<trkpt lat="53.236560" lon="-1.857756"><ele>270</ele><time>2019-08-30T10:18:50Z</time><name>PT2397</name></trkpt>
<trkpt lat="53.236550" lon="-1.857769"><ele>270</ele><time>2019-08-30T10:18:51Z</time><name>PT2398</name></trkpt>
<trkpt lat="53.236540" lon="-1.857784"><ele>271</ele><time>2019-08-30T10:18:52Z</time><name>PT2399</name></trkpt>
<trkpt lat="53.236531" lon="-1.857796"><ele>271</ele><time>2019-08-30T10:18:53Z</time><name>PT2400</name></trkpt>
<trkpt lat="53.236531" lon="-1.857799"><ele>270</ele><time>2019-08-30T10:18:54Z</time><name>PT2401</name></trkpt>
<trkpt lat="53.236526" lon="-1.857808"><ele>270</ele><time>2019-08-30T10:18:55Z</time><name>PT2402</name></trkpt>
<trkpt lat="53.236523" lon="-1.857819"><ele>271</ele><time>2019-08-30T10:18:56Z</time><name>PT2403</name></trkpt>
<trkpt lat="53.236518" lon="-1.857827"><ele>270</ele><time>2019-08-30T10:18:57Z</time><name>PT2404</name></trkpt>
<trkpt lat="53.236512" lon="-1.857841"><ele>270</ele><time>2019-08-30T10:18:58Z</time><name>PT2405</name></trkpt>
<trkpt lat="53.236508" lon="-1.857849"><ele>270</ele><time>2019-08-30T10:18:59Z</time><name>PT2406</name></trkpt>
<trkpt lat="53.236506" lon="-1.857853"><ele>269</ele><time>2019-08-30T10:19:00Z</time><name>PT2407</name></trkpt>
<trkpt lat="53.236501" lon="-1.857861"><ele>268</ele><time>2019-08-30T10:19:01Z</time><name>PT2408</name></trkpt>
<trkpt lat="53.236492" lon="-1.857875"><ele>268</ele><time>2019-08-30T10:19:03Z</time><name>PT2409</name></trkpt>
<trkpt lat="53.236492" lon="-1.857883"><ele>267</ele><time>2019-08-30T10:19:03Z</time><name>PT2410</name></trkpt>
<trkpt lat="53.236489" lon="-1.857891"><ele>267</ele><time>2019-08-30T10:19:04Z</time><name>PT2411</name></trkpt>
<trkpt lat="53.236486" lon="-1.857904"><ele>267</ele><time>2019-08-30T10:19:05Z</time><name>PT2412</name></trkpt>
<trkpt lat="53.236478" lon="-1.857924"><ele>268</ele><time>2019-08-30T10:19:06Z</time><name>PT2413</name></trkpt>
<trkpt lat="53.236470" lon="-1.857942"><ele>269</ele><time>2019-08-30T10:19:07Z</time><name>PT2414</name></trkpt>
<trkpt lat="53.236466" lon="-1.857952"><ele>269</ele><time>2019-08-30T10:19:08Z</time><name>PT2415</name></trkpt>
<trkpt lat="53.236463" lon="-1.857957"><ele>269</ele><time>2019-08-30T10:19:09Z</time><name>PT2416</name></trkpt>
<trkpt lat="53.236462" lon="-1.857962"><ele>269</ele><time>2019-08-30T10:19:10Z</time><name>PT2417</name></trkpt>
<trkpt lat="53.236456" lon="-1.857973"><ele>270</ele><time>2019-08-30T10:19:11Z</time><name>PT2418</name></trkpt>
<trkpt lat="53.236453" lon="-1.857982"><ele>270</ele><time>2019-08-30T10:19:12Z</time><name>PT2419</name></trkpt>
<trkpt lat="53.236449" lon="-1.857986"><ele>271</ele><time>2019-08-30T10:19:13Z</time><name>PT2420</name></trkpt>
<trkpt lat="53.236439" lon="-1.857999"><ele>271</ele><time>2019-08-30T10:19:20Z</time><name>PT2421</name></trkpt>
<trkpt lat="53.236426" lon="-1.858006"><ele>270</ele><time>2019-08-30T10:19:21Z</time><name>PT2422</name></trkpt>
<trkpt lat="53.236423" lon="-1.858012"><ele>270</ele><time>2019-08-30T10:19:22Z</time><name>PT2423</name></trkpt>
<trkpt lat="53.236417" lon="-1.858020"><ele>269</ele><time>2019-08-30T10:19:23Z</time><name>PT2424</name></trkpt>
<trkpt lat="53.236413" lon="-1.858029"><ele>269</ele><time>2019-08-30T10:19:24Z</time><name>PT2425</name></trkpt>
<trkpt lat="53.236413" lon="-1.858041"><ele>268</ele><time>2019-08-30T10:19:25Z</time><name>PT2426</name></trkpt>
<trkpt lat="53.236407" lon="-1.858052"><ele>268</ele><time>2019-08-30T10:19:27Z</time><name>PT2427</name></trkpt>
<trkpt lat="53.236403" lon="-1.858060"><ele>268</ele><time>2019-08-30T10:19:27Z</time><name>PT2428</name></trkpt>
<trkpt lat="53.236395" lon="-1.858066"><ele>267</ele><time>2019-08-30T10:19:28Z</time><name>PT2429</name></trkpt>
<trkpt lat="53.236387" lon="-1.858086"><ele>267</ele><time>2019-08-30T10:19:29Z</time><name>PT2430</name></trkpt>
<trkpt lat="53.236379" lon="-1.858110"><ele>268</ele><time>2019-08-30T10:19:30Z</time><name>PT2431</name></trkpt>
<trkpt lat="53.236371" lon="-1.858119"><ele>268</ele><time>2019-08-30T10:19:31Z</time><name>PT2432</name></trkpt>
<trkpt lat="53.236363" lon="-1.858123"><ele>268</ele><time>2019-08-30T10:19:32Z</time><name>PT2433</name></trkpt>
<trkpt lat="53.236354" lon="-1.858125"><ele>268</ele><time>2019-08-30T10:19:33Z</time><name>PT2434</name></trkpt>
<trkpt lat="53.236346" lon="-1.858121"><ele>268</ele><time>2019-08-30T10:19:34Z</time><name>PT2435</name></trkpt>
<trkpt lat="53.236337" lon="-1.858127"><ele>268</ele><time>2019-08-30T10:19:35Z</time><name>PT2436</name></trkpt>
<trkpt lat="53.236334" lon="-1.858127"><ele>269</ele><time>2019-08-30T10:19:36Z</time><name>PT2437</name></trkpt>
<trkpt lat="53.236328" lon="-1.858137"><ele>269</ele><time>2019-08-30T10:19:37Z</time><name>PT2438</name></trkpt>
<trkpt lat="53.236321" lon="-1.858139"><ele>270</ele><time>2019-08-30T10:19:38Z</time><name>PT2439</name></trkpt>
<trkpt lat="53.236316" lon="-1.858141"><ele>270</ele><time>2019-08-30T10:19:39Z</time><name>PT2440</name></trkpt>
<trkpt lat="53.236310" lon="-1.858143"><ele>270</ele><time>2019-08-30T10:19:40Z</time><name>PT2441</name></trkpt>
<trkpt lat="53.236301" lon="-1.858151"><ele>270</ele><time>2019-08-30T10:19:41Z</time><name>PT2442</name></trkpt>
<trkpt lat="53.236291" lon="-1.858157"><ele>271</ele><time>2019-08-30T10:19:42Z</time><name>PT2443</name></trkpt>
<trkpt lat="53.236282" lon="-1.858161"><ele>271</ele><time>2019-08-30T10:19:43Z</time><name>PT2444</name></trkpt>
<trkpt lat="53.236274" lon="-1.858170"><ele>271</ele><time>2019-08-30T10:19:44Z</time><name>PT2445</name></trkpt>
<trkpt lat="53.236257" lon="-1.858183"><ele>272</ele><time>2019-08-30T10:19:45Z</time><name>PT2446</name></trkpt>
<trkpt lat="53.236243" lon="-1.858189"><ele>272</ele><time>2019-08-30T10:19:46Z</time><name>PT2447</name></trkpt>
<trkpt lat="53.236236" lon="-1.858192"><ele>272</ele><time>2019-08-30T10:19:47Z</time><name>PT2448</name></trkpt>
<trkpt lat="53.236228" lon="-1.858195"><ele>272</ele><time>2019-08-30T10:19:48Z</time><name>PT2449</name></trkpt>
<trkpt lat="53.236222" lon="-1.858184"><ele>272</ele><time>2019-08-30T10:19:49Z</time><name>PT2450</name></trkpt>
<trkpt lat="53.236215" lon="-1.858189"><ele>272</ele><time>2019-08-30T10:19:51Z</time><name>PT2451</name></trkpt>
<trkpt lat="53.236206" lon="-1.858191"><ele>272</ele><time>2019-08-30T10:19:51Z</time><name>PT2452</name></trkpt>
<trkpt lat="53.236199" lon="-1.858196"><ele>272</ele><time>2019-08-30T10:19:52Z</time><name>PT2453</name></trkpt>
<trkpt lat="53.236193" lon="-1.858189"><ele>272</ele><time>2019-08-30T10:19:53Z</time><name>PT2454</name></trkpt>
<trkpt lat="53.236188" lon="-1.858186"><ele>272</ele><time>2019-08-30T10:19:54Z</time><name>PT2455</name></trkpt>
<trkpt lat="53.236178" lon="-1.858187"><ele>272</ele><time>2019-08-30T10:19:55Z</time><name>PT2456</name></trkpt>
<trkpt lat="53.236166" lon="-1.858187"><ele>273</ele><time>2019-08-30T10:19:56Z</time><name>PT2457</name></trkpt>
<trkpt lat="53.236161" lon="-1.858187"><ele>272</ele><time>2019-08-30T10:19:57Z</time><name>PT2458</name></trkpt>
<trkpt lat="53.236157" lon="-1.858187"><ele>272</ele><time>2019-08-30T10:19:58Z</time><name>PT2459</name></trkpt>
<trkpt lat="53.236148" lon="-1.858189"><ele>272</ele><time>2019-08-30T10:19:59Z</time><name>PT2460</name></trkpt>
<trkpt lat="53.236139" lon="-1.858187"><ele>272</ele><time>2019-08-30T10:20:00Z</time><name>PT2461</name></trkpt>
<trkpt lat="53.236131" lon="-1.858186"><ele>272</ele><time>2019-08-30T10:20:01Z</time><name>PT2462</name></trkpt>
<trkpt lat="53.236124" lon="-1.858189"><ele>272</ele><time>2019-08-30T10:20:02Z</time><name>PT2463</name></trkpt>
<trkpt lat="53.236119" lon="-1.858190"><ele>272</ele><time>2019-08-30T10:20:03Z</time><name>PT2464</name></trkpt>
<trkpt lat="53.236111" lon="-1.858191"><ele>272</ele><time>2019-08-30T10:20:04Z</time><name>PT2465</name></trkpt>
<trkpt lat="53.236100" lon="-1.858195"><ele>272</ele><time>2019-08-30T10:20:05Z</time><name>PT2466</name></trkpt>
<trkpt lat="53.236095" lon="-1.858190"><ele>272</ele><time>2019-08-30T10:20:06Z</time><name>PT2467</name></trkpt>
<trkpt lat="53.236090" lon="-1.858188"><ele>272</ele><time>2019-08-30T10:20:07Z</time><name>PT2468</name></trkpt>
<trkpt lat="53.236079" lon="-1.858185"><ele>271</ele><time>2019-08-30T10:20:09Z</time><name>PT2469</name></trkpt>
<trkpt lat="53.236071" lon="-1.858182"><ele>271</ele><time>2019-08-30T10:20:09Z</time><name>PT2470</name></trkpt>
<trkpt lat="53.236062" lon="-1.858180"><ele>271</ele><time>2019-08-30T10:20:10Z</time><name>PT2471</name></trkpt>
<trkpt lat="53.236049" lon="-1.858185"><ele>272</ele><time>2019-08-30T10:20:11Z</time><name>PT2472</name></trkpt>
<trkpt lat="53.236040" lon="-1.858187"><ele>272</ele><time>2019-08-30T10:20:12Z</time><name>PT2473</name></trkpt>
<trkpt lat="53.236031" lon="-1.858183"><ele>272</ele><time>2019-08-30T10:20:13Z</time><name>PT2474</name></trkpt>
<trkpt lat="53.236022" lon="-1.858180"><ele>272</ele><time>2019-08-30T10:20:14Z</time><name>PT2475</name></trkpt>
<trkpt lat="53.236010" lon="-1.858177"><ele>272</ele><time>2019-08-30T10:20:15Z</time><name>PT2476</name></trkpt>
<trkpt lat="53.235997" lon="-1.858176"><ele>273</ele><time>2019-08-30T10:20:16Z</time><name>PT2477</name></trkpt>
<trkpt lat="53.235996" lon="-1.858174"><ele>272</ele><time>2019-08-30T10:20:18Z</time><name>PT2478</name></trkpt>
<trkpt lat="53.235989" lon="-1.858166"><ele>272</ele><time>2019-08-30T10:20:18Z</time><name>PT2479</name></trkpt>
<trkpt lat="53.235986" lon="-1.858161"><ele>271</ele><time>2019-08-30T10:20:19Z</time><name>PT2480</name></trkpt>
<trkpt lat="53.235983" lon="-1.858154"><ele>271</ele><time>2019-08-30T10:20:20Z</time><name>PT2481</name></trkpt>
<trkpt lat="53.235977" lon="-1.858148"><ele>272</ele><time>2019-08-30T10:20:21Z</time><name>PT2482</name></trkpt>
<trkpt lat="53.235974" lon="-1.858150"><ele>272</ele><time>2019-08-30T10:20:22Z</time><name>PT2483</name></trkpt>
<trkpt lat="53.235969" lon="-1.858143"><ele>272</ele><time>2019-08-30T10:20:24Z</time><name>PT2484</name></trkpt>
<trkpt lat="53.235962" lon="-1.858138"><ele>272</ele><time>2019-08-30T10:20:24Z</time><name>PT2485</name></trkpt>
<trkpt lat="53.235955" lon="-1.858130"><ele>273</ele><time>2019-08-30T10:20:25Z</time><name>PT2486</name></trkpt>
<trkpt lat="53.235949" lon="-1.858117"><ele>272</ele><time>2019-08-30T10:20:26Z</time><name>PT2487</name></trkpt>
<trkpt lat="53.235942" lon="-1.858115"><ele>273</ele><time>2019-08-30T10:20:27Z</time><name>PT2488</name></trkpt>
<trkpt lat="53.235938" lon="-1.858115"><ele>273</ele><time>2019-08-30T10:20:28Z</time><name>PT2489</name></trkpt>
<trkpt lat="53.235936" lon="-1.858115"><ele>274</ele><time>2019-08-30T10:20:29Z</time><name>PT2490</name></trkpt>
<trkpt lat="53.235935" lon="-1.858115"><ele>274</ele><time>2019-08-30T10:20:30Z</time><name>PT2491</name></trkpt>
<trkpt lat="53.235934" lon="-1.858081"><ele>275</ele><time>2019-08-30T10:20:54Z</time><name>PT2492</name></trkpt>
<trkpt lat="53.235927" lon="-1.858080"><ele>274</ele><time>2019-08-30T10:20:54Z</time><name>PT2493</name></trkpt>
<trkpt lat="53.235922" lon="-1.858069"><ele>275</ele><time>2019-08-30T10:20:55Z</time><name>PT2494</name></trkpt>
<trkpt lat="53.235918" lon="-1.858069"><ele>276</ele><time>2019-08-30T10:20:56Z</time><name>PT2495</name></trkpt>
<trkpt lat="53.235908" lon="-1.858064"><ele>275</ele><time>2019-08-30T10:20:57Z</time><name>PT2496</name></trkpt>
<trkpt lat="53.235892" lon="-1.858068"><ele>275</ele><time>2019-08-30T10:20:58Z</time><name>PT2497</name></trkpt>
<trkpt lat="53.235884" lon="-1.858060"><ele>275</ele><time>2019-08-30T10:20:59Z</time><name>PT2498</name></trkpt>
<trkpt lat="53.235877" lon="-1.858047"><ele>275</ele><time>2019-08-30T10:21:00Z</time><name>PT2499</name></trkpt>
<trkpt lat="53.235870" lon="-1.858042"><ele>275</ele><time>2019-08-30T10:21:01Z</time><name>PT2500</name></trkpt>
<trkpt lat="53.235861" lon="-1.858032"><ele>275</ele><time>2019-08-30T10:21:02Z</time><name>PT2501</name></trkpt>
<trkpt lat="53.235855" lon="-1.858030"><ele>275</ele><time>2019-08-30T10:21:03Z</time><name>PT2502</name></trkpt>
<trkpt lat="53.235846" lon="-1.858014"><ele>274</ele><time>2019-08-30T10:21:04Z</time><name>PT2503</name></trkpt>
<trkpt lat="53.235838" lon="-1.858007"><ele>274</ele><time>2019-08-30T10:21:05Z</time><name>PT2504</name></trkpt>
<trkpt lat="53.235827" lon="-1.857999"><ele>275</ele><time>2019-08-30T10:21:06Z</time><name>PT2505</name></trkpt>
<trkpt lat="53.235818" lon="-1.857994"><ele>275</ele><time>2019-08-30T10:21:07Z</time><name>PT2506</name></trkpt>
<trkpt lat="53.235810" lon="-1.857988"><ele>275</ele><time>2019-08-30T10:21:09Z</time><name>PT2507</name></trkpt>
<trkpt lat="53.235805" lon="-1.857981"><ele>275</ele><time>2019-08-30T10:21:09Z</time><name>PT2508</name></trkpt>
<trkpt lat="53.235800" lon="-1.857977"><ele>274</ele><time>2019-08-30T10:21:10Z</time><name>PT2509</name></trkpt>
<trkpt lat="53.235791" lon="-1.857976"><ele>275</ele><time>2019-08-30T10:21:11Z</time><name>PT2510</name></trkpt>
<trkpt lat="53.235787" lon="-1.857976"><ele>274</ele><time>2019-08-30T10:21:12Z</time><name>PT2511</name></trkpt>
<trkpt lat="53.235782" lon="-1.857977"><ele>275</ele><time>2019-08-30T10:21:13Z</time><name>PT2512</name></trkpt>
<trkpt lat="53.235775" lon="-1.857970"><ele>273</ele><time>2019-08-30T10:21:14Z</time><name>PT2513</name></trkpt>
<trkpt lat="53.235770" lon="-1.857964"><ele>273</ele><time>2019-08-30T10:21:15Z</time><name>PT2514</name></trkpt>
<trkpt lat="53.235768" lon="-1.857959"><ele>273</ele><time>2019-08-30T10:21:16Z</time><name>PT2515</name></trkpt>
<trkpt lat="53.235762" lon="-1.857955"><ele>274</ele><time>2019-08-30T10:21:17Z</time><name>PT2516</name></trkpt>
<trkpt lat="53.235755" lon="-1.857949"><ele>275</ele><time>2019-08-30T10:21:18Z</time><name>PT2517</name></trkpt>
<trkpt lat="53.235752" lon="-1.857941"><ele>275</ele><time>2019-08-30T10:21:19Z</time><name>PT2518</name></trkpt>
<trkpt lat="53.235749" lon="-1.857938"><ele>275</ele><time>2019-08-30T10:21:21Z</time><name>PT2519</name></trkpt>
<trkpt lat="53.235744" lon="-1.857937"><ele>275</ele><time>2019-08-30T10:21:21Z</time><name>PT2520</name></trkpt>
<trkpt lat="53.235740" lon="-1.857933"><ele>274</ele><time>2019-08-30T10:21:22Z</time><name>PT2521</name></trkpt>
<trkpt lat="53.235736" lon="-1.857930"><ele>274</ele><time>2019-08-30T10:21:23Z</time><name>PT2522</name></trkpt>
<trkpt lat="53.235730" lon="-1.857926"><ele>275</ele><time>2019-08-30T10:21:24Z</time><name>PT2523</name></trkpt>
<trkpt lat="53.235727" lon="-1.857926"><ele>275</ele><time>2019-08-30T10:21:25Z</time><name>PT2524</name></trkpt>
<trkpt lat="53.235727" lon="-1.857923"><ele>274</ele><time>2019-08-30T10:21:27Z</time><name>PT2525</name></trkpt>
<trkpt lat="53.235722" lon="-1.857920"><ele>274</ele><time>2019-08-30T10:21:27Z</time><name>PT2526</name></trkpt>
<trkpt lat="53.235722" lon="-1.857921"><ele>274</ele><time>2019-08-30T10:21:28Z</time><name>PT2527</name></trkpt>
<trkpt lat="53.235714" lon="-1.857919"><ele>274</ele><time>2019-08-30T10:21:30Z</time><name>PT2528</name></trkpt>
<trkpt lat="53.235710" lon="-1.857923"><ele>274</ele><time>2019-08-30T10:21:30Z</time><name>PT2529</name></trkpt>
<trkpt lat="53.235706" lon="-1.857921"><ele>275</ele><time>2019-08-30T10:21:33Z</time><name>PT2530</name></trkpt>
<trkpt lat="53.235703" lon="-1.857907"><ele>274</ele><time>2019-08-30T10:21:34Z</time><name>PT2531</name></trkpt>
<trkpt lat="53.235695" lon="-1.857902"><ele>274</ele><time>2019-08-30T10:21:36Z</time><name>PT2532</name></trkpt>
<trkpt lat="53.235690" lon="-1.857897"><ele>273</ele><time>2019-08-30T10:21:36Z</time><name>PT2533</name></trkpt>
<trkpt lat="53.235683" lon="-1.857893"><ele>272</ele><time>2019-08-30T10:21:37Z</time><name>PT2534</name></trkpt>
<trkpt lat="53.235673" lon="-1.857893"><ele>271</ele><time>2019-08-30T10:21:38Z</time><name>PT2535</name></trkpt>
<trkpt lat="53.235666" lon="-1.857889"><ele>271</ele><time>2019-08-30T10:21:39Z</time><name>PT2536</name></trkpt>
<trkpt lat="53.235659" lon="-1.857891"><ele>271</ele><time>2019-08-30T10:21:40Z</time><name>PT2537</name></trkpt>
<trkpt lat="53.235651" lon="-1.857898"><ele>271</ele><time>2019-08-30T10:21:41Z</time><name>PT2538</name></trkpt>
<trkpt lat="53.235642" lon="-1.857898"><ele>271</ele><time>2019-08-30T10:21:42Z</time><name>PT2539</name></trkpt>
<trkpt lat="53.235628" lon="-1.857900"><ele>271</ele><time>2019-08-30T10:21:43Z</time><name>PT2540</name></trkpt>
<trkpt lat="53.235621" lon="-1.857897"><ele>271</ele><time>2019-08-30T10:21:45Z</time><name>PT2541</name></trkpt>
<trkpt lat="53.235613" lon="-1.857891"><ele>271</ele><time>2019-08-30T10:21:45Z</time><name>PT2542</name></trkpt>
<trkpt lat="53.235606" lon="-1.857890"><ele>271</ele><time>2019-08-30T10:21:46Z</time><name>PT2543</name></trkpt>
<trkpt lat="53.235596" lon="-1.857889"><ele>271</ele><time>2019-08-30T10:21:47Z</time><name>PT2544</name></trkpt>
<trkpt lat="53.235587" lon="-1.857883"><ele>271</ele><time>2019-08-30T10:21:48Z</time><name>PT2545</name></trkpt>
<trkpt lat="53.235577" lon="-1.857875"><ele>271</ele><time>2019-08-30T10:21:49Z</time><name>PT2546</name></trkpt>
<trkpt lat="53.235568" lon="-1.857867"><ele>272</ele><time>2019-08-30T10:21:50Z</time><name>PT2547</name></trkpt>
<trkpt lat="53.235561" lon="-1.857861"><ele>272</ele><time>2019-08-30T10:21:51Z</time><name>PT2548</name></trkpt>
<trkpt lat="53.235551" lon="-1.857855"><ele>272</ele><time>2019-08-30T10:21:52Z</time><name>PT2549</name></trkpt>
<trkpt lat="53.235543" lon="-1.857850"><ele>272</ele><time>2019-08-30T10:21:53Z</time><name>PT2550</name></trkpt>
<trkpt lat="53.235534" lon="-1.857847"><ele>272</ele><time>2019-08-30T10:21:54Z</time><name>PT2551</name></trkpt>
<trkpt lat="53.235523" lon="-1.857846"><ele>274</ele><time>2019-08-30T10:21:55Z</time><name>PT2552</name></trkpt>
<trkpt lat="53.235513" lon="-1.857841"><ele>273</ele><time>2019-08-30T10:21:56Z</time><name>PT2553</name></trkpt>
<trkpt lat="53.235505" lon="-1.857834"><ele>273</ele><time>2019-08-30T10:21:57Z</time><name>PT2554</name></trkpt>
<trkpt lat="53.235494" lon="-1.857832"><ele>273</ele><time>2019-08-30T10:21:58Z</time><name>PT2555</name></trkpt>
<trkpt lat="53.235488" lon="-1.857829"><ele>273</ele><time>2019-08-30T10:21:59Z</time><name>PT2556</name></trkpt>
<trkpt lat="53.235477" lon="-1.857822"><ele>273</ele><time>2019-08-30T10:22:00Z</time><name>PT2557</name></trkpt>
<trkpt lat="53.235473" lon="-1.857817"><ele>272</ele><time>2019-08-30T10:22:01Z</time><name>PT2558</name></trkpt>
<trkpt lat="53.235458" lon="-1.857817"><ele>273</ele><time>2019-08-30T10:22:02Z</time><name>PT2559</name></trkpt>
<trkpt lat="53.235447" lon="-1.857809"><ele>274</ele><time>2019-08-30T10:22:03Z</time><name>PT2560</name></trkpt>
<trkpt lat="53.235443" lon="-1.857808"><ele>274</ele><time>2019-08-30T10:22:04Z</time><name>PT2561</name></trkpt>
<trkpt lat="53.235435" lon="-1.857803"><ele>274</ele><time>2019-08-30T10:22:05Z</time><name>PT2562</name></trkpt>
<trkpt lat="53.235428" lon="-1.857802"><ele>274</ele><time>2019-08-30T10:22:06Z</time><name>PT2563</name></trkpt>
<trkpt lat="53.235418" lon="-1.857793"><ele>274</ele><time>2019-08-30T10:22:07Z</time><name>PT2564</name></trkpt>
<trkpt lat="53.235408" lon="-1.857789"><ele>274</ele><time>2019-08-30T10:22:08Z</time><name>PT2565</name></trkpt>
<trkpt lat="53.235399" lon="-1.857787"><ele>274</ele><time>2019-08-30T10:22:09Z</time><name>PT2566</name></trkpt>
<trkpt lat="53.235389" lon="-1.857789"><ele>274</ele><time>2019-08-30T10:22:10Z</time><name>PT2567</name></trkpt>
<trkpt lat="53.235377" lon="-1.857788"><ele>274</ele><time>2019-08-30T10:22:12Z</time><name>PT2568</name></trkpt>
<trkpt lat="53.235369" lon="-1.857786"><ele>274</ele><time>2019-08-30T10:22:12Z</time><name>PT2569</name></trkpt>
<trkpt lat="53.235360" lon="-1.857779"><ele>273</ele><time>2019-08-30T10:22:13Z</time><name>PT2570</name></trkpt>
<trkpt lat="53.235354" lon="-1.857773"><ele>273</ele><time>2019-08-30T10:22:14Z</time><name>PT2571</name></trkpt>
<trkpt lat="53.235348" lon="-1.857764"><ele>273</ele><time>2019-08-30T10:22:15Z</time><name>PT2572</name></trkpt>
<trkpt lat="53.235338" lon="-1.857756"><ele>274</ele><time>2019-08-30T10:22:16Z</time><name>PT2573</name></trkpt>
<trkpt lat="53.235334" lon="-1.857751"><ele>274</ele><time>2019-08-30T10:22:17Z</time><name>PT2574</name></trkpt>
<trkpt lat="53.235332" lon="-1.857746"><ele>273</ele><time>2019-08-30T10:22:18Z</time><name>PT2575</name></trkpt>
<trkpt lat="53.235324" lon="-1.857744"><ele>273</ele><time>2019-08-30T10:22:19Z</time><name>PT2576</name></trkpt>
<trkpt lat="53.235317" lon="-1.857739"><ele>273</ele><time>2019-08-30T10:22:20Z</time><name>PT2577</name></trkpt>
<trkpt lat="53.235311" lon="-1.857735"><ele>273</ele><time>2019-08-30T10:22:21Z</time><name>PT2578</name></trkpt>
<trkpt lat="53.235304" lon="-1.857736"><ele>273</ele><time>2019-08-30T10:22:22Z</time><name>PT2579</name></trkpt>
<trkpt lat="53.235293" lon="-1.857735"><ele>273</ele><time>2019-08-30T10:22:24Z</time><name>PT2580</name></trkpt>
<trkpt lat="53.235287" lon="-1.857730"><ele>273</ele><time>2019-08-30T10:22:24Z</time><name>PT2581</name></trkpt>
<trkpt lat="53.235279" lon="-1.857727"><ele>273</ele><time>2019-08-30T10:22:25Z</time><name>PT2582</name></trkpt>
<trkpt lat="53.235269" lon="-1.857719"><ele>273</ele><time>2019-08-30T10:22:26Z</time><name>PT2583</name></trkpt>
<trkpt lat="53.235263" lon="-1.857715"><ele>273</ele><time>2019-08-30T10:22:27Z</time><name>PT2584</name></trkpt>
<trkpt lat="53.235252" lon="-1.857708"><ele>274</ele><time>2019-08-30T10:22:28Z</time><name>PT2585</name></trkpt>
<trkpt lat="53.235245" lon="-1.857699"><ele>274</ele><time>2019-08-30T10:22:29Z</time><name>PT2586</name></trkpt>
<trkpt lat="53.235240" lon="-1.857694"><ele>273</ele><time>2019-08-30T10:22:30Z</time><name>PT2587</name></trkpt>
<trkpt lat="53.235233" lon="-1.857685"><ele>273</ele><time>2019-08-30T10:22:31Z</time><name>PT2588</name></trkpt>
<trkpt lat="53.235226" lon="-1.857676"><ele>273</ele><time>2019-08-30T10:22:32Z</time><name>PT2589</name></trkpt>
<trkpt lat="53.235215" lon="-1.857669"><ele>274</ele><time>2019-08-30T10:22:33Z</time><name>PT2590</name></trkpt>
<trkpt lat="53.235203" lon="-1.857668"><ele>275</ele><time>2019-08-30T10:22:34Z</time><name>PT2591</name></trkpt>
<trkpt lat="53.235195" lon="-1.857663"><ele>274</ele><time>2019-08-30T10:22:35Z</time><name>PT2592</name></trkpt>
<trkpt lat="53.235187" lon="-1.857657"><ele>274</ele><time>2019-08-30T10:22:36Z</time><name>PT2593</name></trkpt>
<trkpt lat="53.235180" lon="-1.857649"><ele>274</ele><time>2019-08-30T10:22:37Z</time><name>PT2594</name></trkpt>
<trkpt lat="53.235171" lon="-1.857640"><ele>273</ele><time>2019-08-30T10:22:38Z</time><name>PT2595</name></trkpt>
<trkpt lat="53.235159" lon="-1.857632"><ele>273</ele><time>2019-08-30T10:22:39Z</time><name>PT2596</name></trkpt>
<trkpt lat="53.235149" lon="-1.857627"><ele>273</ele><time>2019-08-30T10:22:40Z</time><name>PT2597</name></trkpt>
<trkpt lat="53.235140" lon="-1.857625"><ele>274</ele><time>2019-08-30T10:22:41Z</time><name>PT2598</name></trkpt>
<trkpt lat="53.235129" lon="-1.857623"><ele>274</ele><time>2019-08-30T10:22:42Z</time><name>PT2599</name></trkpt>
<trkpt lat="53.235122" lon="-1.857621"><ele>274</ele><time>2019-08-30T10:22:43Z</time><name>PT2600</name></trkpt>
<trkpt lat="53.235112" lon="-1.857621"><ele>274</ele><time>2019-08-30T10:22:44Z</time><name>PT2601</name></trkpt>
<trkpt lat="53.235111" lon="-1.857610"><ele>273</ele><time>2019-08-30T10:22:45Z</time><name>PT2602</name></trkpt>
<trkpt lat="53.235103" lon="-1.857604"><ele>273</ele><time>2019-08-30T10:22:46Z</time><name>PT2603</name></trkpt>
<trkpt lat="53.235092" lon="-1.857598"><ele>273</ele><time>2019-08-30T10:22:47Z</time><name>PT2604</name></trkpt>
<trkpt lat="53.235080" lon="-1.857587"><ele>273</ele><time>2019-08-30T10:22:48Z</time><name>PT2605</name></trkpt>
<trkpt lat="53.235071" lon="-1.857578"><ele>273</ele><time>2019-08-30T10:22:49Z</time><name>PT2606</name></trkpt>
<trkpt lat="53.235061" lon="-1.857571"><ele>274</ele><time>2019-08-30T10:22:50Z</time><name>PT2607</name></trkpt>
<trkpt lat="53.235052" lon="-1.857566"><ele>274</ele><time>2019-08-30T10:22:51Z</time><name>PT2608</name></trkpt>
<trkpt lat="53.235042" lon="-1.857563"><ele>274</ele><time>2019-08-30T10:22:52Z</time><name>PT2609</name></trkpt>
<trkpt lat="53.235034" lon="-1.857559"><ele>274</ele><time>2019-08-30T10:22:53Z</time><name>PT2610</name></trkpt>
<trkpt lat="53.235025" lon="-1.857554"><ele>274</ele><time>2019-08-30T10:22:54Z</time><name>PT2611</name></trkpt>
<trkpt lat="53.235015" lon="-1.857547"><ele>274</ele><time>2019-08-30T10:22:55Z</time><name>PT2612</name></trkpt>
<trkpt lat="53.235001" lon="-1.857538"><ele>274</ele><time>2019-08-30T10:22:56Z</time><name>PT2613</name></trkpt>
<trkpt lat="53.234991" lon="-1.857529"><ele>274</ele><time>2019-08-30T10:22:57Z</time><name>PT2614</name></trkpt>
<trkpt lat="53.234983" lon="-1.857521"><ele>274</ele><time>2019-08-30T10:22:58Z</time><name>PT2615</name></trkpt>
<trkpt lat="53.234973" lon="-1.857513"><ele>273</ele><time>2019-08-30T10:22:59Z</time><name>PT2616</name></trkpt>
<trkpt lat="53.234964" lon="-1.857506"><ele>273</ele><time>2019-08-30T10:23:00Z</time><name>PT2617</name></trkpt>
<trkpt lat="53.234959" lon="-1.857499"><ele>272</ele><time>2019-08-30T10:23:01Z</time><name>PT2618</name></trkpt>
<trkpt lat="53.234955" lon="-1.857489"><ele>272</ele><time>2019-08-30T10:23:02Z</time><name>PT2619</name></trkpt>
<trkpt lat="53.234947" lon="-1.857486"><ele>272</ele><time>2019-08-30T10:23:03Z</time><name>PT2620</name></trkpt>
<trkpt lat="53.234939" lon="-1.857489"><ele>273</ele><time>2019-08-30T10:23:04Z</time><name>PT2621</name></trkpt>
<trkpt lat="53.234932" lon="-1.857487"><ele>273</ele><time>2019-08-30T10:23:05Z</time><name>PT2622</name></trkpt>
<trkpt lat="53.234921" lon="-1.857484"><ele>273</ele><time>2019-08-30T10:23:06Z</time><name>PT2623</name></trkpt>
<trkpt lat="53.234916" lon="-1.857485"><ele>272</ele><time>2019-08-30T10:23:07Z</time><name>PT2624</name></trkpt>
<trkpt lat="53.234905" lon="-1.857480"><ele>273</ele><time>2019-08-30T10:23:08Z</time><name>PT2625</name></trkpt>
<trkpt lat="53.234898" lon="-1.857474"><ele>273</ele><time>2019-08-30T10:23:09Z</time><name>PT2626</name></trkpt>
<trkpt lat="53.234888" lon="-1.857474"><ele>273</ele><time>2019-08-30T10:23:10Z</time><name>PT2627</name></trkpt>
<trkpt lat="53.234873" lon="-1.857475"><ele>275</ele><time>2019-08-30T10:23:11Z</time><name>PT2628</name></trkpt>
<trkpt lat="53.234865" lon="-1.857470"><ele>275</ele><time>2019-08-30T10:23:12Z</time><name>PT2629</name></trkpt>
<trkpt lat="53.234860" lon="-1.857468"><ele>275</ele><time>2019-08-30T10:23:13Z</time><name>PT2630</name></trkpt>
<trkpt lat="53.234848" lon="-1.857460"><ele>274</ele><time>2019-08-30T10:23:15Z</time><name>PT2631</name></trkpt>
<trkpt lat="53.234838" lon="-1.857453"><ele>274</ele><time>2019-08-30T10:23:15Z</time><name>PT2632</name></trkpt>
<trkpt lat="53.234831" lon="-1.857453"><ele>275</ele><time>2019-08-30T10:23:16Z</time><name>PT2633</name></trkpt>
<trkpt lat="53.234823" lon="-1.857449"><ele>275</ele><time>2019-08-30T10:23:17Z</time><name>PT2634</name></trkpt>
<trkpt lat="53.234813" lon="-1.857443"><ele>275</ele><time>2019-08-30T10:23:18Z</time><name>PT2635</name></trkpt>
<trkpt lat="53.234805" lon="-1.857437"><ele>275</ele><time>2019-08-30T10:23:19Z</time><name>PT2636</name></trkpt>
<trkpt lat="53.234797" lon="-1.857429"><ele>275</ele><time>2019-08-30T10:23:20Z</time><name>PT2637</name></trkpt>
<trkpt lat="53.234793" lon="-1.857427"><ele>274</ele><time>2019-08-30T10:23:21Z</time><name>PT2638</name></trkpt>
<trkpt lat="53.234786" lon="-1.857427"><ele>274</ele><time>2019-08-30T10:23:22Z</time><name>PT2639</name></trkpt>
<trkpt lat="53.234790" lon="-1.857423"><ele>273</ele><time>2019-08-30T10:23:25Z</time><name>PT2640</name></trkpt>
<trkpt lat="53.234781" lon="-1.857423"><ele>273</ele><time>2019-08-30T10:23:27Z</time><name>PT2641</name></trkpt>
<trkpt lat="53.234773" lon="-1.857418"><ele>274</ele><time>2019-08-30T10:23:27Z</time><name>PT2642</name></trkpt>
<trkpt lat="53.234763" lon="-1.857417"><ele>274</ele><time>2019-08-30T10:23:28Z</time><name>PT2643</name></trkpt>
<trkpt lat="53.234754" lon="-1.857401"><ele>273</ele><time>2019-08-30T10:23:29Z</time><name>PT2644</name></trkpt>
<trkpt lat="53.234741" lon="-1.857396"><ele>273</ele><time>2019-08-30T10:23:30Z</time><name>PT2645</name></trkpt>
<trkpt lat="53.234730" lon="-1.857392"><ele>273</ele><time>2019-08-30T10:23:31Z</time><name>PT2646</name></trkpt>
<trkpt lat="53.234718" lon="-1.857390"><ele>273</ele><time>2019-08-30T10:23:32Z</time><name>PT2647</name></trkpt>
<trkpt lat="53.234708" lon="-1.857390"><ele>273</ele><time>2019-08-30T10:23:33Z</time><name>PT2648</name></trkpt>
<trkpt lat="53.234697" lon="-1.857387"><ele>273</ele><time>2019-08-30T10:23:34Z</time><name>PT2649</name></trkpt>
<trkpt lat="53.234684" lon="-1.857379"><ele>273</ele><time>2019-08-30T10:23:35Z</time><name>PT2650</name></trkpt>
<trkpt lat="53.234675" lon="-1.857378"><ele>272</ele><time>2019-08-30T10:23:36Z</time><name>PT2651</name></trkpt>
<trkpt lat="53.234664" lon="-1.857376"><ele>273</ele><time>2019-08-30T10:23:37Z</time><name>PT2652</name></trkpt>
<trkpt lat="53.234654" lon="-1.857377"><ele>273</ele><time>2019-08-30T10:23:39Z</time><name>PT2653</name></trkpt>
<trkpt lat="53.234647" lon="-1.857377"><ele>272</ele><time>2019-08-30T10:23:39Z</time><name>PT2654</name></trkpt>
<trkpt lat="53.234637" lon="-1.857370"><ele>273</ele><time>2019-08-30T10:23:40Z</time><name>PT2655</name></trkpt>
<trkpt lat="53.234626" lon="-1.857370"><ele>273</ele><time>2019-08-30T10:23:41Z</time><name>PT2656</name></trkpt>
<trkpt lat="53.234621" lon="-1.857369"><ele>273</ele><time>2019-08-30T10:23:42Z</time><name>PT2657</name></trkpt>
<trkpt lat="53.234615" lon="-1.857360"><ele>272</ele><time>2019-08-30T10:23:43Z</time><name>PT2658</name></trkpt>
<trkpt lat="53.234603" lon="-1.857369"><ele>272</ele><time>2019-08-30T10:23:44Z</time><name>PT2659</name></trkpt>
<trkpt lat="53.234592" lon="-1.857371"><ele>273</ele><time>2019-08-30T10:23:45Z</time><name>PT2660</name></trkpt>
<trkpt lat="53.234584" lon="-1.857370"><ele>273</ele><time>2019-08-30T10:23:46Z</time><name>PT2661</name></trkpt>
<trkpt lat="53.234576" lon="-1.857373"><ele>273</ele><time>2019-08-30T10:23:47Z</time><name>PT2662</name></trkpt>
<trkpt lat="53.234566" lon="-1.857385"><ele>273</ele><time>2019-08-30T10:23:48Z</time><name>PT2663</name></trkpt>
<trkpt lat="53.234559" lon="-1.857387"><ele>273</ele><time>2019-08-30T10:23:49Z</time><name>PT2664</name></trkpt>
<trkpt lat="53.234550" lon="-1.857387"><ele>273</ele><time>2019-08-30T10:23:51Z</time><name>PT2665</name></trkpt>
<trkpt lat="53.234542" lon="-1.857390"><ele>273</ele><time>2019-08-30T10:23:51Z</time><name>PT2666</name></trkpt>
<trkpt lat="53.234538" lon="-1.857397"><ele>272</ele><time>2019-08-30T10:23:52Z</time><name>PT2667</name></trkpt>
<trkpt lat="53.234535" lon="-1.857396"><ele>272</ele><time>2019-08-30T10:23:53Z</time><name>PT2668</name></trkpt>
<trkpt lat="53.234531" lon="-1.857397"><ele>273</ele><time>2019-08-30T10:23:54Z</time><name>PT2669</name></trkpt>
<trkpt lat="53.234522" lon="-1.857396"><ele>273</ele><time>2019-08-30T10:23:55Z</time><name>PT2670</name></trkpt>
<trkpt lat="53.234521" lon="-1.857405"><ele>273</ele><time>2019-08-30T10:24:07Z</time><name>PT2671</name></trkpt>
<trkpt lat="53.234516" lon="-1.857415"><ele>273</ele><time>2019-08-30T10:24:08Z</time><name>PT2672</name></trkpt>
<trkpt lat="53.234511" lon="-1.857414"><ele>273</ele><time>2019-08-30T10:24:09Z</time><name>PT2673</name></trkpt>
<trkpt lat="53.234497" lon="-1.857418"><ele>273</ele><time>2019-08-30T10:24:10Z</time><name>PT2674</name></trkpt>
<trkpt lat="53.234482" lon="-1.857415"><ele>274</ele><time>2019-08-30T10:24:27Z</time><name>PT2675</name></trkpt>
<trkpt lat="53.234473" lon="-1.857418"><ele>274</ele><time>2019-08-30T10:24:27Z</time><name>PT2676</name></trkpt>
<trkpt lat="53.234467" lon="-1.857417"><ele>275</ele><time>2019-08-30T10:24:28Z</time><name>PT2677</name></trkpt>
<trkpt lat="53.234463" lon="-1.857414"><ele>275</ele><time>2019-08-30T10:24:30Z</time><name>PT2678</name></trkpt>
<trkpt lat="53.234462" lon="-1.857408"><ele>274</ele><time>2019-08-30T10:24:30Z</time><name>PT2679</name></trkpt>
<trkpt lat="53.234458" lon="-1.857402"><ele>274</ele><time>2019-08-30T10:24:31Z</time><name>PT2680</name></trkpt>
<trkpt lat="53.234451" lon="-1.857403"><ele>274</ele><time>2019-08-30T10:24:34Z</time><name>PT2681</name></trkpt>
<trkpt lat="53.234434" lon="-1.857403"><ele>275</ele><time>2019-08-30T10:24:35Z</time><name>PT2682</name></trkpt>
<trkpt lat="53.234420" lon="-1.857401"><ele>275</ele><time>2019-08-30T10:24:36Z</time><name>PT2683</name></trkpt>
<trkpt lat="53.234411" lon="-1.857397"><ele>274</ele><time>2019-08-30T10:24:37Z</time><name>PT2684</name></trkpt>
<trkpt lat="53.234396" lon="-1.857395"><ele>274</ele><time>2019-08-30T10:24:38Z</time><name>PT2685</name></trkpt>
<trkpt lat="53.234383" lon="-1.857390"><ele>274</ele><time>2019-08-30T10:24:39Z</time><name>PT2686</name></trkpt>
<trkpt lat="53.234368" lon="-1.857385"><ele>274</ele><time>2019-08-30T10:24:40Z</time><name>PT2687</name></trkpt>
<trkpt lat="53.234354" lon="-1.857382"><ele>274</ele><time>2019-08-30T10:24:42Z</time><name>PT2688</name></trkpt>
<trkpt lat="53.234341" lon="-1.857386"><ele>274</ele><time>2019-08-30T10:24:42Z</time><name>PT2689</name></trkpt>
<trkpt lat="53.234329" lon="-1.857390"><ele>274</ele><time>2019-08-30T10:24:43Z</time><name>PT2690</name></trkpt>
<trkpt lat="53.234317" lon="-1.857394"><ele>274</ele><time>2019-08-30T10:24:45Z</time><name>PT2691</name></trkpt>
<trkpt lat="53.234304" lon="-1.857392"><ele>274</ele><time>2019-08-30T10:24:45Z</time><name>PT2692</name></trkpt>
<trkpt lat="53.234294" lon="-1.857396"><ele>273</ele><time>2019-08-30T10:24:46Z</time><name>PT2693</name></trkpt>
<trkpt lat="53.234283" lon="-1.857406"><ele>274</ele><time>2019-08-30T10:24:47Z</time><name>PT2694</name></trkpt>
<trkpt lat="53.234267" lon="-1.857410"><ele>274</ele><time>2019-08-30T10:24:48Z</time><name>PT2695</name></trkpt>
<trkpt lat="53.234253" lon="-1.857412"><ele>274</ele><time>2019-08-30T10:24:49Z</time><name>PT2696</name></trkpt>
<trkpt lat="53.234238" lon="-1.857413"><ele>274</ele><time>2019-08-30T10:24:50Z</time><name>PT2697</name></trkpt>
<trkpt lat="53.234223" lon="-1.857414"><ele>274</ele><time>2019-08-30T10:24:51Z</time><name>PT2698</name></trkpt>
<trkpt lat="53.234216" lon="-1.857418"><ele>273</ele><time>2019-08-30T10:24:52Z</time><name>PT2699</name></trkpt>
<trkpt lat="53.234202" lon="-1.857419"><ele>274</ele><time>2019-08-30T10:24:53Z</time><name>PT2700</name></trkpt>
<trkpt lat="53.234184" lon="-1.857419"><ele>274</ele><time>2019-08-30T10:24:54Z</time><name>PT2701</name></trkpt>
<trkpt lat="53.234172" lon="-1.857417"><ele>274</ele><time>2019-08-30T10:24:55Z</time><name>PT2702</name></trkpt>
<trkpt lat="53.234152" lon="-1.857413"><ele>275</ele><time>2019-08-30T10:24:56Z</time><name>PT2703</name></trkpt>
<trkpt lat="53.234138" lon="-1.857402"><ele>275</ele><time>2019-08-30T10:24:57Z</time><name>PT2704</name></trkpt>
<trkpt lat="53.234126" lon="-1.857400"><ele>275</ele><time>2019-08-30T10:24:58Z</time><name>PT2705</name></trkpt>
<trkpt lat="53.234122" lon="-1.857395"><ele>273</ele><time>2019-08-30T10:24:59Z</time><name>PT2706</name></trkpt>
<trkpt lat="53.234109" lon="-1.857392"><ele>273</ele><time>2019-08-30T10:25:00Z</time><name>PT2707</name></trkpt>
<trkpt lat="53.234097" lon="-1.857390"><ele>272</ele><time>2019-08-30T10:25:01Z</time><name>PT2708</name></trkpt>
<trkpt lat="53.234083" lon="-1.857392"><ele>273</ele><time>2019-08-30T10:25:02Z</time><name>PT2709</name></trkpt>
<trkpt lat="53.234068" lon="-1.857392"><ele>273</ele><time>2019-08-30T10:25:03Z</time><name>PT2710</name></trkpt>
<trkpt lat="53.234055" lon="-1.857390"><ele>274</ele><time>2019-08-30T10:25:04Z</time><name>PT2711</name></trkpt>
<trkpt lat="53.234043" lon="-1.857392"><ele>274</ele><time>2019-08-30T10:25:05Z</time><name>PT2712</name></trkpt>
<trkpt lat="53.234029" lon="-1.857395"><ele>274</ele><time>2019-08-30T10:25:06Z</time><name>PT2713</name></trkpt>
<trkpt lat="53.234015" lon="-1.857398"><ele>274</ele><time>2019-08-30T10:25:07Z</time><name>PT2714</name></trkpt>
<trkpt lat="53.234005" lon="-1.857398"><ele>274</ele><time>2019-08-30T10:25:08Z</time><name>PT2715</name></trkpt>
<trkpt lat="53.233999" lon="-1.857396"><ele>273</ele><time>2019-08-30T10:25:09Z</time><name>PT2716</name></trkpt>
<trkpt lat="53.233986" lon="-1.857400"><ele>273</ele><time>2019-08-30T10:25:10Z</time><name>PT2717</name></trkpt>
<trkpt lat="53.233974" lon="-1.857400"><ele>273</ele><time>2019-08-30T10:25:11Z</time><name>PT2718</name></trkpt>
<trkpt lat="53.233961" lon="-1.857396"><ele>274</ele><time>2019-08-30T10:25:12Z</time><name>PT2719</name></trkpt>
<trkpt lat="53.233956" lon="-1.857388"><ele>272</ele><time>2019-08-30T10:25:13Z</time><name>PT2720</name></trkpt>
<trkpt lat="53.233939" lon="-1.857386"><ele>273</ele><time>2019-08-30T10:25:14Z</time><name>PT2721</name></trkpt>
<trkpt lat="53.233927" lon="-1.857381"><ele>274</ele><time>2019-08-30T10:25:15Z</time><name>PT2722</name></trkpt>
<trkpt lat="53.233918" lon="-1.857371"><ele>273</ele><time>2019-08-30T10:25:16Z</time><name>PT2723</name></trkpt>
<trkpt lat="53.233907" lon="-1.857370"><ele>273</ele><time>2019-08-30T10:25:17Z</time><name>PT2724</name></trkpt>
<trkpt lat="53.233897" lon="-1.857370"><ele>273</ele><time>2019-08-30T10:25:18Z</time><name>PT2725</name></trkpt>
<trkpt lat="53.233890" lon="-1.857363"><ele>273</ele><time>2019-08-30T10:25:19Z</time><name>PT2726</name></trkpt>
<trkpt lat="53.233880" lon="-1.857358"><ele>273</ele><time>2019-08-30T10:25:21Z</time><name>PT2727</name></trkpt>
<trkpt lat="53.233871" lon="-1.857353"><ele>273</ele><time>2019-08-30T10:25:21Z</time><name>PT2728</name></trkpt>
<trkpt lat="53.233861" lon="-1.857350"><ele>273</ele><time>2019-08-30T10:25:22Z</time><name>PT2729</name></trkpt>
<trkpt lat="53.233847" lon="-1.857342"><ele>273</ele><time>2019-08-30T10:25:23Z</time><name>PT2730</name></trkpt>
<trkpt lat="53.233839" lon="-1.857335"><ele>273</ele><time>2019-08-30T10:25:24Z</time><name>PT2731</name></trkpt>
<trkpt lat="53.233828" lon="-1.857331"><ele>273</ele><time>2019-08-30T10:25:25Z</time><name>PT2732</name></trkpt>
<trkpt lat="53.233815" lon="-1.857329"><ele>274</ele><time>2019-08-30T10:25:26Z</time><name>PT2733</name></trkpt>
<trkpt lat="53.233808" lon="-1.857327"><ele>273</ele><time>2019-08-30T10:25:27Z</time><name>PT2734</name></trkpt>
<trkpt lat="53.233795" lon="-1.857320"><ele>273</ele><time>2019-08-30T10:25:28Z</time><name>PT2735</name></trkpt>
<trkpt lat="53.233785" lon="-1.857316"><ele>273</ele><time>2019-08-30T10:25:29Z</time><name>PT2736</name></trkpt>
<trkpt lat="53.233775" lon="-1.857312"><ele>272</ele><time>2019-08-30T10:25:30Z</time><name>PT2737</name></trkpt>
<trkpt lat="53.233763" lon="-1.857303"><ele>273</ele><time>2019-08-30T10:25:31Z</time><name>PT2738</name></trkpt>
<trkpt lat="53.233742" lon="-1.857285"><ele>274</ele><time>2019-08-30T10:25:32Z</time><name>PT2739</name></trkpt>
<trkpt lat="53.233725" lon="-1.857276"><ele>274</ele><time>2019-08-30T10:25:33Z</time><name>PT2740</name></trkpt>
<trkpt lat="53.233712" lon="-1.857275"><ele>275</ele><time>2019-08-30T10:25:34Z</time><name>PT2741</name></trkpt>
<trkpt lat="53.233702" lon="-1.857267"><ele>275</ele><time>2019-08-30T10:25:35Z</time><name>PT2742</name></trkpt>
<trkpt lat="53.233693" lon="-1.857260"><ele>275</ele><time>2019-08-30T10:25:36Z</time><name>PT2743</name></trkpt>
<trkpt lat="53.233680" lon="-1.857255"><ele>275</ele><time>2019-08-30T10:25:37Z</time><name>PT2744</name></trkpt>
<trkpt lat="53.233670" lon="-1.857250"><ele>274</ele><time>2019-08-30T10:25:38Z</time><name>PT2745</name></trkpt>
<trkpt lat="53.233659" lon="-1.857243"><ele>274</ele><time>2019-08-30T10:25:39Z</time><name>PT2746</name></trkpt>
<trkpt lat="53.233648" lon="-1.857235"><ele>274</ele><time>2019-08-30T10:25:40Z</time><name>PT2747</name></trkpt>
<trkpt lat="53.233635" lon="-1.857226"><ele>275</ele><time>2019-08-30T10:25:41Z</time><name>PT2748</name></trkpt>
<trkpt lat="53.233623" lon="-1.857218"><ele>275</ele><time>2019-08-30T10:25:42Z</time><name>PT2749</name></trkpt>
<trkpt lat="53.233613" lon="-1.857211"><ele>275</ele><time>2019-08-30T10:25:43Z</time><name>PT2750</name></trkpt>
<trkpt lat="53.233603" lon="-1.857202"><ele>275</ele><time>2019-08-30T10:25:45Z</time><name>PT2751</name></trkpt>
<trkpt lat="53.233592" lon="-1.857192"><ele>275</ele><time>2019-08-30T10:25:45Z</time><name>PT2752</name></trkpt>
<trkpt lat="53.233579" lon="-1.857185"><ele>275</ele><time>2019-08-30T10:25:46Z</time><name>PT2753</name></trkpt>
<trkpt lat="53.233566" lon="-1.857177"><ele>275</ele><time>2019-08-30T10:25:47Z</time><name>PT2754</name></trkpt>
<trkpt lat="53.233556" lon="-1.857165"><ele>275</ele><time>2019-08-30T10:25:48Z</time><name>PT2755</name></trkpt>
<trkpt lat="53.233548" lon="-1.857159"><ele>275</ele><time>2019-08-30T10:25:49Z</time><name>PT2756</name></trkpt>
<trkpt lat="53.233539" lon="-1.857151"><ele>275</ele><time>2019-08-30T10:25:50Z</time><name>PT2757</name></trkpt>
<trkpt lat="53.233531" lon="-1.857143"><ele>274</ele><time>2019-08-30T10:25:51Z</time><name>PT2758</name></trkpt>
<trkpt lat="53.233518" lon="-1.857137"><ele>274</ele><time>2019-08-30T10:25:52Z</time><name>PT2759</name></trkpt>
<trkpt lat="53.233503" lon="-1.857131"><ele>275</ele><time>2019-08-30T10:25:53Z</time><name>PT2760</name></trkpt>
<trkpt lat="53.233490" lon="-1.857120"><ele>275</ele><time>2019-08-30T10:25:54Z</time><name>PT2761</name></trkpt>
<trkpt lat="53.233478" lon="-1.857112"><ele>275</ele><time>2019-08-30T10:25:55Z</time><name>PT2762</name></trkpt>
<trkpt lat="53.233469" lon="-1.857102"><ele>275</ele><time>2019-08-30T10:25:57Z</time><name>PT2763</name></trkpt>
<trkpt lat="53.233459" lon="-1.857093"><ele>275</ele><time>2019-08-30T10:25:57Z</time><name>PT2764</name></trkpt>
<trkpt lat="53.233446" lon="-1.857080"><ele>275</ele><time>2019-08-30T10:25:58Z</time><name>PT2765</name></trkpt>
<trkpt lat="53.233434" lon="-1.857073"><ele>275</ele><time>2019-08-30T10:25:59Z</time><name>PT2766</name></trkpt>
<trkpt lat="53.233429" lon="-1.857060"><ele>275</ele><time>2019-08-30T10:26:00Z</time><name>PT2767</name></trkpt>
<trkpt lat="53.233420" lon="-1.857051"><ele>275</ele><time>2019-08-30T10:26:01Z</time><name>PT2768</name></trkpt>
<trkpt lat="53.233408" lon="-1.857041"><ele>276</ele><time>2019-08-30T10:26:02Z</time><name>PT2769</name></trkpt>
<trkpt lat="53.233397" lon="-1.857032"><ele>275</ele><time>2019-08-30T10:26:03Z</time><name>PT2770</name></trkpt>
<trkpt lat="53.233387" lon="-1.857029"><ele>275</ele><time>2019-08-30T10:26:04Z</time><name>PT2771</name></trkpt>
<trkpt lat="53.233379" lon="-1.857021"><ele>276</ele><time>2019-08-30T10:26:05Z</time><name>PT2772</name></trkpt>
<trkpt lat="53.233368" lon="-1.857011"><ele>276</ele><time>2019-08-30T10:26:06Z</time><name>PT2773</name></trkpt>
<trkpt lat="53.233357" lon="-1.857002"><ele>276</ele><time>2019-08-30T10:26:07Z</time><name>PT2774</name></trkpt>
<trkpt lat="53.233346" lon="-1.856995"><ele>277</ele><time>2019-08-30T10:26:08Z</time><name>PT2775</name></trkpt>
<trkpt lat="53.233333" lon="-1.856987"><ele>278</ele><time>2019-08-30T10:26:09Z</time><name>PT2776</name></trkpt>
<trkpt lat="53.233323" lon="-1.856970"><ele>278</ele><time>2019-08-30T10:26:10Z</time><name>PT2777</name></trkpt>
<trkpt lat="53.233308" lon="-1.856959"><ele>278</ele><time>2019-08-30T10:26:11Z</time><name>PT2778</name></trkpt>
<trkpt lat="53.233300" lon="-1.856952"><ele>279</ele><time>2019-08-30T10:26:12Z</time><name>PT2779</name></trkpt>
<trkpt lat="53.233292" lon="-1.856947"><ele>279</ele><time>2019-08-30T10:26:13Z</time><name>PT2780</name></trkpt>
<trkpt lat="53.233283" lon="-1.856941"><ele>278</ele><time>2019-08-30T10:26:14Z</time><name>PT2781</name></trkpt>
<trkpt lat="53.233273" lon="-1.856934"><ele>279</ele><time>2019-08-30T10:26:15Z</time><name>PT2782</name></trkpt>
<trkpt lat="53.233264" lon="-1.856926"><ele>279</ele><time>2019-08-30T10:26:16Z</time><name>PT2783</name></trkpt>
<trkpt lat="53.233253" lon="-1.856918"><ele>278</ele><time>2019-08-30T10:26:17Z</time><name>PT2784</name></trkpt>
<trkpt lat="53.233243" lon="-1.856909"><ele>278</ele><time>2019-08-30T10:26:18Z</time><name>PT2785</name></trkpt>
<trkpt lat="53.233232" lon="-1.856898"><ele>278</ele><time>2019-08-30T10:26:19Z</time><name>PT2786</name></trkpt>
<trkpt lat="53.233223" lon="-1.856891"><ele>278</ele><time>2019-08-30T10:26:20Z</time><name>PT2787</name></trkpt>
<trkpt lat="53.233211" lon="-1.856881"><ele>279</ele><time>2019-08-30T10:26:21Z</time><name>PT2788</name></trkpt>
<trkpt lat="53.233205" lon="-1.856869"><ele>279</ele><time>2019-08-30T10:26:22Z</time><name>PT2789</name></trkpt>
<trkpt lat="53.233198" lon="-1.856861"><ele>280</ele><time>2019-08-30T10:26:23Z</time><name>PT2790</name></trkpt>
<trkpt lat="53.233188" lon="-1.856853"><ele>280</ele><time>2019-08-30T10:26:24Z</time><name>PT2791</name></trkpt>
<trkpt lat="53.233179" lon="-1.856845"><ele>280</ele><time>2019-08-30T10:26:25Z</time><name>PT2792</name></trkpt>
<trkpt lat="53.233172" lon="-1.856833"><ele>280</ele><time>2019-08-30T10:26:26Z</time><name>PT2793</name></trkpt>
<trkpt lat="53.233164" lon="-1.856823"><ele>280</ele><time>2019-08-30T10:26:27Z</time><name>PT2794</name></trkpt>
<trkpt lat="53.233155" lon="-1.856813"><ele>280</ele><time>2019-08-30T10:26:28Z</time><name>PT2795</name></trkpt>
<trkpt lat="53.233151" lon="-1.856801"><ele>280</ele><time>2019-08-30T10:26:29Z</time><name>PT2796</name></trkpt>
<trkpt lat="53.233144" lon="-1.856792"><ele>280</ele><time>2019-08-30T10:26:30Z</time><name>PT2797</name></trkpt>
<trkpt lat="53.233137" lon="-1.856782"><ele>280</ele><time>2019-08-30T10:26:31Z</time><name>PT2798</name></trkpt>
<trkpt lat="53.233128" lon="-1.856773"><ele>280</ele><time>2019-08-30T10:26:32Z</time><name>PT2799</name></trkpt>
<trkpt lat="53.233119" lon="-1.856768"><ele>281</ele><time>2019-08-30T10:26:33Z</time><name>PT2800</name></trkpt>
<trkpt lat="53.233113" lon="-1.856758"><ele>280</ele><time>2019-08-30T10:26:34Z</time><name>PT2801</name></trkpt>
<trkpt lat="53.233106" lon="-1.856749"><ele>280</ele><time>2019-08-30T10:26:36Z</time><name>PT2802</name></trkpt>
<trkpt lat="53.233098" lon="-1.856744"><ele>280</ele><time>2019-08-30T10:26:36Z</time><name>PT2803</name></trkpt>
<trkpt lat="53.233089" lon="-1.856738"><ele>280</ele><time>2019-08-30T10:26:37Z</time><name>PT2804</name></trkpt>
<trkpt lat="53.233082" lon="-1.856734"><ele>279</ele><time>2019-08-30T10:26:39Z</time><name>PT2805</name></trkpt>
<trkpt lat="53.233071" lon="-1.856726"><ele>279</ele><time>2019-08-30T10:26:39Z</time><name>PT2806</name></trkpt>
<trkpt lat="53.233063" lon="-1.856718"><ele>279</ele><time>2019-08-30T10:26:40Z</time><name>PT2807</name></trkpt>
<trkpt lat="53.233050" lon="-1.856709"><ele>279</ele><time>2019-08-30T10:26:41Z</time><name>PT2808</name></trkpt>
<trkpt lat="53.233041" lon="-1.856705"><ele>279</ele><time>2019-08-30T10:26:42Z</time><name>PT2809</name></trkpt>
<trkpt lat="53.233035" lon="-1.856700"><ele>279</ele><time>2019-08-30T10:26:43Z</time><name>PT2810</name></trkpt>
<trkpt lat="53.233027" lon="-1.856689"><ele>279</ele><time>2019-08-30T10:26:44Z</time><name>PT2811</name></trkpt>
<trkpt lat="53.233019" lon="-1.856680"><ele>279</ele><time>2019-08-30T10:26:45Z</time><name>PT2812</name></trkpt>
<trkpt lat="53.233008" lon="-1.856672"><ele>278</ele><time>2019-08-30T10:26:46Z</time><name>PT2813</name></trkpt>
<trkpt lat="53.233000" lon="-1.856656"><ele>279</ele><time>2019-08-30T10:26:48Z</time><name>PT2814</name></trkpt>
<trkpt lat="53.232994" lon="-1.856646"><ele>279</ele><time>2019-08-30T10:26:48Z</time><name>PT2815</name></trkpt>
<trkpt lat="53.232986" lon="-1.856641"><ele>278</ele><time>2019-08-30T10:26:49Z</time><name>PT2816</name></trkpt>
<trkpt lat="53.232979" lon="-1.856634"><ele>278</ele><time>2019-08-30T10:26:50Z</time><name>PT2817</name></trkpt>
<trkpt lat="53.232969" lon="-1.856627"><ele>277</ele><time>2019-08-30T10:26:51Z</time><name>PT2818</name></trkpt>
<trkpt lat="53.232958" lon="-1.856622"><ele>278</ele><time>2019-08-30T10:26:52Z</time><name>PT2819</name></trkpt>
<trkpt lat="53.232949" lon="-1.856615"><ele>278</ele><time>2019-08-30T10:26:53Z</time><name>PT2820</name></trkpt>
<trkpt lat="53.232940" lon="-1.856614"><ele>277</ele><time>2019-08-30T10:26:54Z</time><name>PT2821</name></trkpt>
<trkpt lat="53.232931" lon="-1.856610"><ele>276</ele><time>2019-08-30T10:26:55Z</time><name>PT2822</name></trkpt>
<trkpt lat="53.232927" lon="-1.856603"><ele>276</ele><time>2019-08-30T10:26:56Z</time><name>PT2823</name></trkpt>
<trkpt lat="53.232918" lon="-1.856597"><ele>276</ele><time>2019-08-30T10:26:57Z</time><name>PT2824</name></trkpt>
<trkpt lat="53.232908" lon="-1.856587"><ele>276</ele><time>2019-08-30T10:26:58Z</time><name>PT2825</name></trkpt>
<trkpt lat="53.232901" lon="-1.856583"><ele>276</ele><time>2019-08-30T10:27:00Z</time><name>PT2826</name></trkpt>
<trkpt lat="53.232894" lon="-1.856576"><ele>275</ele><time>2019-08-30T10:27:00Z</time><name>PT2827</name></trkpt>
<trkpt lat="53.232886" lon="-1.856560"><ele>275</ele><time>2019-08-30T10:27:01Z</time><name>PT2828</name></trkpt>
<trkpt lat="53.232878" lon="-1.856552"><ele>275</ele><time>2019-08-30T10:27:02Z</time><name>PT2829</name></trkpt>
<trkpt lat="53.232869" lon="-1.856550"><ele>275</ele><time>2019-08-30T10:27:03Z</time><name>PT2830</name></trkpt>
<trkpt lat="53.232861" lon="-1.856540"><ele>275</ele><time>2019-08-30T10:27:04Z</time><name>PT2831</name></trkpt>
<trkpt lat="53.232848" lon="-1.856528"><ele>275</ele><time>2019-08-30T10:27:05Z</time><name>PT2832</name></trkpt>
<trkpt lat="53.232839" lon="-1.856527"><ele>274</ele><time>2019-08-30T10:27:06Z</time><name>PT2833</name></trkpt>
<trkpt lat="53.232827" lon="-1.856524"><ele>273</ele><time>2019-08-30T10:27:07Z</time><name>PT2834</name></trkpt>
<trkpt lat="53.232817" lon="-1.856514"><ele>273</ele><time>2019-08-30T10:27:08Z</time><name>PT2835</name></trkpt>
<trkpt lat="53.232807" lon="-1.856499"><ele>274</ele><time>2019-08-30T10:27:09Z</time><name>PT2836</name></trkpt>
<trkpt lat="53.232797" lon="-1.856491"><ele>274</ele><time>2019-08-30T10:27:10Z</time><name>PT2837</name></trkpt>
<trkpt lat="53.232789" lon="-1.856487"><ele>273</ele><time>2019-08-30T10:27:11Z</time><name>PT2838</name></trkpt>
<trkpt lat="53.232778" lon="-1.856473"><ele>274</ele><time>2019-08-30T10:27:12Z</time><name>PT2839</name></trkpt>
<trkpt lat="53.232764" lon="-1.856469"><ele>274</ele><time>2019-08-30T10:27:13Z</time><name>PT2840</name></trkpt>
<trkpt lat="53.232751" lon="-1.856456"><ele>275</ele><time>2019-08-30T10:27:14Z</time><name>PT2841</name></trkpt>
<trkpt lat="53.232744" lon="-1.856448"><ele>275</ele><time>2019-08-30T10:27:15Z</time><name>PT2842</name></trkpt>
<trkpt lat="53.232734" lon="-1.856440"><ele>275</ele><time>2019-08-30T10:27:16Z</time><name>PT2843</name></trkpt>
<trkpt lat="53.232725" lon="-1.856434"><ele>275</ele><time>2019-08-30T10:27:17Z</time><name>PT2844</name></trkpt>
<trkpt lat="53.232719" lon="-1.856426"><ele>274</ele><time>2019-08-30T10:27:18Z</time><name>PT2845</name></trkpt>
<trkpt lat="53.232710" lon="-1.856420"><ele>274</ele><time>2019-08-30T10:27:19Z</time><name>PT2846</name></trkpt>
<trkpt lat="53.232698" lon="-1.856415"><ele>274</ele><time>2019-08-30T10:27:20Z</time><name>PT2847</name></trkpt>
<trkpt lat="53.232683" lon="-1.856408"><ele>275</ele><time>2019-08-30T10:27:21Z</time><name>PT2848</name></trkpt>
<trkpt lat="53.232671" lon="-1.856397"><ele>275</ele><time>2019-08-30T10:27:22Z</time><name>PT2849</name></trkpt>
<trkpt lat="53.232662" lon="-1.856391"><ele>275</ele><time>2019-08-30T10:27:23Z</time><name>PT2850</name></trkpt>
<trkpt lat="53.232653" lon="-1.856385"><ele>275</ele><time>2019-08-30T10:27:24Z</time><name>PT2851</name></trkpt>
<trkpt lat="53.232641" lon="-1.856375"><ele>275</ele><time>2019-08-30T10:27:25Z</time><name>PT2852</name></trkpt>
<trkpt lat="53.232630" lon="-1.856369"><ele>275</ele><time>2019-08-30T10:27:26Z</time><name>PT2853</name></trkpt>
<trkpt lat="53.232621" lon="-1.856365"><ele>275</ele><time>2019-08-30T10:27:27Z</time><name>PT2854</name></trkpt>
<trkpt lat="53.232612" lon="-1.856358"><ele>276</ele><time>2019-08-30T10:27:28Z</time><name>PT2855</name></trkpt>
<trkpt lat="53.232611" lon="-1.856347"><ele>274</ele><time>2019-08-30T10:27:29Z</time><name>PT2856</name></trkpt>
<trkpt lat="53.232599" lon="-1.856334"><ele>274</ele><time>2019-08-30T10:27:30Z</time><name>PT2857</name></trkpt>
<trkpt lat="53.232585" lon="-1.856324"><ele>276</ele><time>2019-08-30T10:27:31Z</time><name>PT2858</name></trkpt>
<trkpt lat="53.232575" lon="-1.856317"><ele>276</ele><time>2019-08-30T10:27:32Z</time><name>PT2859</name></trkpt>
<trkpt lat="53.232564" lon="-1.856307"><ele>276</ele><time>2019-08-30T10:27:33Z</time><name>PT2860</name></trkpt>
<trkpt lat="53.232553" lon="-1.856302"><ele>277</ele><time>2019-08-30T10:27:34Z</time><name>PT2861</name></trkpt>
<trkpt lat="53.232541" lon="-1.856290"><ele>277</ele><time>2019-08-30T10:27:35Z</time><name>PT2862</name></trkpt>
<trkpt lat="53.232530" lon="-1.856285"><ele>277</ele><time>2019-08-30T10:27:36Z</time><name>PT2863</name></trkpt>
<trkpt lat="53.232517" lon="-1.856283"><ele>277</ele><time>2019-08-30T10:27:37Z</time><name>PT2864</name></trkpt>
<trkpt lat="53.232508" lon="-1.856272"><ele>277</ele><time>2019-08-30T10:27:38Z</time><name>PT2865</name></trkpt>
<trkpt lat="53.232496" lon="-1.856266"><ele>278</ele><time>2019-08-30T10:27:39Z</time><name>PT2866</name></trkpt>
<trkpt lat="53.232488" lon="-1.856265"><ele>279</ele><time>2019-08-30T10:27:40Z</time><name>PT2867</name></trkpt>
<trkpt lat="53.232473" lon="-1.856261"><ele>280</ele><time>2019-08-30T10:27:41Z</time><name>PT2868</name></trkpt>
<trkpt lat="53.232461" lon="-1.856255"><ele>280</ele><time>2019-08-30T10:27:42Z</time><name>PT2869</name></trkpt>
<trkpt lat="53.232446" lon="-1.856237"><ele>281</ele><time>2019-08-30T10:27:43Z</time><name>PT2870</name></trkpt>
<trkpt lat="53.232435" lon="-1.856231"><ele>280</ele><time>2019-08-30T10:27:44Z</time><name>PT2871</name></trkpt>
<trkpt lat="53.232426" lon="-1.856230"><ele>280</ele><time>2019-08-30T10:27:45Z</time><name>PT2872</name></trkpt>
<trkpt lat="53.232416" lon="-1.856225"><ele>280</ele><time>2019-08-30T10:27:46Z</time><name>PT2873</name></trkpt>
<trkpt lat="53.232401" lon="-1.856222"><ele>281</ele><time>2019-08-30T10:27:47Z</time><name>PT2874</name></trkpt>
<trkpt lat="53.232391" lon="-1.856215"><ele>281</ele><time>2019-08-30T10:27:48Z</time><name>PT2875</name></trkpt>
<trkpt lat="53.232381" lon="-1.856215"><ele>281</ele><time>2019-08-30T10:27:49Z</time><name>PT2876</name></trkpt>
<trkpt lat="53.232373" lon="-1.856205"><ele>281</ele><time>2019-08-30T10:27:50Z</time><name>PT2877</name></trkpt>
<trkpt lat="53.232366" lon="-1.856198"><ele>280</ele><time>2019-08-30T10:27:51Z</time><name>PT2878</name></trkpt>
<trkpt lat="53.232356" lon="-1.856192"><ele>280</ele><time>2019-08-30T10:27:52Z</time><name>PT2879</name></trkpt>
<trkpt lat="53.232347" lon="-1.856188"><ele>280</ele><time>2019-08-30T10:27:53Z</time><name>PT2880</name></trkpt>
<trkpt lat="53.232340" lon="-1.856180"><ele>280</ele><time>2019-08-30T10:27:54Z</time><name>PT2881</name></trkpt>
<trkpt lat="53.232327" lon="-1.856177"><ele>283</ele><time>2019-08-30T10:27:55Z</time><name>PT2882</name></trkpt>
<trkpt lat="53.232327" lon="-1.856167"><ele>282</ele><time>2019-08-30T10:27:56Z</time><name>PT2883</name></trkpt>
<trkpt lat="53.232324" lon="-1.856163"><ele>282</ele><time>2019-08-30T10:27:57Z</time><name>PT2884</name></trkpt>
<trkpt lat="53.232315" lon="-1.856156"><ele>283</ele><time>2019-08-30T10:27:58Z</time><name>PT2885</name></trkpt>
<trkpt lat="53.232312" lon="-1.856148"><ele>283</ele><time>2019-08-30T10:27:59Z</time><name>PT2886</name></trkpt>
<trkpt lat="53.232311" lon="-1.856143"><ele>283</ele><time>2019-08-30T10:28:00Z</time><name>PT2887</name></trkpt>
<trkpt lat="53.232303" lon="-1.856136"><ele>284</ele><time>2019-08-30T10:28:01Z</time><name>PT2888</name></trkpt>
<trkpt lat="53.232301" lon="-1.856133"><ele>284</ele><time>2019-08-30T10:28:03Z</time><name>PT2889</name></trkpt>
<trkpt lat="53.232288" lon="-1.856115"><ele>283</ele><time>2019-08-30T10:28:10Z</time><name>PT2890</name></trkpt>
<trkpt lat="53.232279" lon="-1.856112"><ele>283</ele><time>2019-08-30T10:28:11Z</time><name>PT2891</name></trkpt>
<trkpt lat="53.232267" lon="-1.856123"><ele>282</ele><time>2019-08-30T10:28:12Z</time><name>PT2892</name></trkpt>
<trkpt lat="53.232258" lon="-1.856118"><ele>282</ele><time>2019-08-30T10:28:13Z</time><name>PT2893</name></trkpt>
<trkpt lat="53.232246" lon="-1.856115"><ele>282</ele><time>2019-08-30T10:28:14Z</time><name>PT2894</name></trkpt>
<trkpt lat="53.232236" lon="-1.856114"><ele>282</ele><time>2019-08-30T10:28:15Z</time><name>PT2895</name></trkpt>
<trkpt lat="53.232229" lon="-1.856114"><ele>282</ele><time>2019-08-30T10:28:16Z</time><name>PT2896</name></trkpt>
<trkpt lat="53.232221" lon="-1.856117"><ele>283</ele><time>2019-08-30T10:28:18Z</time><name>PT2897</name></trkpt>
<trkpt lat="53.232216" lon="-1.856116"><ele>282</ele><time>2019-08-30T10:28:18Z</time><name>PT2898</name></trkpt>
<trkpt lat="53.232209" lon="-1.856117"><ele>282</ele><time>2019-08-30T10:28:19Z</time><name>PT2899</name></trkpt>
<trkpt lat="53.232197" lon="-1.856125"><ele>282</ele><time>2019-08-30T10:28:21Z</time><name>PT2900</name></trkpt>
<trkpt lat="53.232192" lon="-1.856125"><ele>282</ele><time>2019-08-30T10:28:21Z</time><name>PT2901</name></trkpt>
<trkpt lat="53.232183" lon="-1.856125"><ele>282</ele><time>2019-08-30T10:28:22Z</time><name>PT2902</name></trkpt>
<trkpt lat="53.232169" lon="-1.856136"><ele>282</ele><time>2019-08-30T10:28:23Z</time><name>PT2903</name></trkpt>
<trkpt lat="53.232160" lon="-1.856137"><ele>282</ele><time>2019-08-30T10:28:24Z</time><name>PT2904</name></trkpt>
<trkpt lat="53.232149" lon="-1.856139"><ele>281</ele><time>2019-08-30T10:28:25Z</time><name>PT2905</name></trkpt>
<trkpt lat="53.232143" lon="-1.856135"><ele>281</ele><time>2019-08-30T10:28:26Z</time><name>PT2906</name></trkpt>
<trkpt lat="53.232132" lon="-1.856136"><ele>281</ele><time>2019-08-30T10:28:27Z</time><name>PT2907</name></trkpt>
<trkpt lat="53.232124" lon="-1.856131"><ele>282</ele><time>2019-08-30T10:28:28Z</time><name>PT2908</name></trkpt>
<trkpt lat="53.232117" lon="-1.856129"><ele>281</ele><time>2019-08-30T10:28:30Z</time><name>PT2909</name></trkpt>
<trkpt lat="53.232106" lon="-1.856127"><ele>282</ele><time>2019-08-30T10:28:30Z</time><name>PT2910</name></trkpt>
<trkpt lat="53.232094" lon="-1.856125"><ele>282</ele><time>2019-08-30T10:28:31Z</time><name>PT2911</name></trkpt>
<trkpt lat="53.232085" lon="-1.856127"><ele>283</ele><time>2019-08-30T10:28:33Z</time><name>PT2912</name></trkpt>
<trkpt lat="53.232075" lon="-1.856125"><ele>282</ele><time>2019-08-30T10:28:33Z</time><name>PT2913</name></trkpt>
<trkpt lat="53.232065" lon="-1.856122"><ele>282</ele><time>2019-08-30T10:28:34Z</time><name>PT2914</name></trkpt>
<trkpt lat="53.232057" lon="-1.856122"><ele>282</ele><time>2019-08-30T10:28:35Z</time><name>PT2915</name></trkpt>
<trkpt lat="53.232050" lon="-1.856118"><ele>281</ele><time>2019-08-30T10:28:36Z</time><name>PT2916</name></trkpt>
<trkpt lat="53.232041" lon="-1.856119"><ele>282</ele><time>2019-08-30T10:28:37Z</time><name>PT2917</name></trkpt>
<trkpt lat="53.232032" lon="-1.856114"><ele>282</ele><time>2019-08-30T10:28:38Z</time><name>PT2918</name></trkpt>
<trkpt lat="53.232024" lon="-1.856113"><ele>282</ele><time>2019-08-30T10:28:39Z</time><name>PT2919</name></trkpt>
<trkpt lat="53.232015" lon="-1.856111"><ele>283</ele><time>2019-08-30T10:28:40Z</time><name>PT2920</name></trkpt>
<trkpt lat="53.232008" lon="-1.856107"><ele>282</ele><time>2019-08-30T10:28:42Z</time><name>PT2921</name></trkpt>
<trkpt lat="53.232003" lon="-1.856104"><ele>281</ele><time>2019-08-30T10:28:42Z</time><name>PT2922</name></trkpt>
<trkpt lat="53.231994" lon="-1.856106"><ele>281</ele><time>2019-08-30T10:28:43Z</time><name>PT2923</name></trkpt>
<trkpt lat="53.231986" lon="-1.856102"><ele>281</ele><time>2019-08-30T10:28:44Z</time><name>PT2924</name></trkpt>
<trkpt lat="53.231981" lon="-1.856096"><ele>281</ele><time>2019-08-30T10:28:45Z</time><name>PT2925</name></trkpt>
<trkpt lat="53.231974" lon="-1.856094"><ele>280</ele><time>2019-08-30T10:28:46Z</time><name>PT2926</name></trkpt>
<trkpt lat="53.231968" lon="-1.856093"><ele>280</ele><time>2019-08-30T10:28:47Z</time><name>PT2927</name></trkpt>
<trkpt lat="53.231962" lon="-1.856095"><ele>280</ele><time>2019-08-30T10:28:48Z</time><name>PT2928</name></trkpt>
<trkpt lat="53.231952" lon="-1.856092"><ele>280</ele><time>2019-08-30T10:28:49Z</time><name>PT2929</name></trkpt>
<trkpt lat="53.231945" lon="-1.856090"><ele>280</ele><time>2019-08-30T10:28:50Z</time><name>PT2930</name></trkpt>
<trkpt lat="53.231932" lon="-1.856088"><ele>281</ele><time>2019-08-30T10:28:51Z</time><name>PT2931</name></trkpt>
<trkpt lat="53.231923" lon="-1.856086"><ele>281</ele><time>2019-08-30T10:28:52Z</time><name>PT2932</name></trkpt>
<trkpt lat="53.231915" lon="-1.856087"><ele>281</ele><time>2019-08-30T10:28:53Z</time><name>PT2933</name></trkpt>
<trkpt lat="53.231907" lon="-1.856084"><ele>281</ele><time>2019-08-30T10:28:54Z</time><name>PT2934</name></trkpt>
<trkpt lat="53.231897" lon="-1.856083"><ele>281</ele><time>2019-08-30T10:28:55Z</time><name>PT2935</name></trkpt>
<trkpt lat="53.231889" lon="-1.856079"><ele>281</ele><time>2019-08-30T10:28:56Z</time><name>PT2936</name></trkpt>
<trkpt lat="53.231876" lon="-1.856076"><ele>281</ele><time>2019-08-30T10:28:57Z</time><name>PT2937</name></trkpt>
<trkpt lat="53.231863" lon="-1.856071"><ele>282</ele><time>2019-08-30T10:28:58Z</time><name>PT2938</name></trkpt>
<trkpt lat="53.231854" lon="-1.856071"><ele>281</ele><time>2019-08-30T10:28:59Z</time><name>PT2939</name></trkpt>
<trkpt lat="53.231843" lon="-1.856076"><ele>281</ele><time>2019-08-30T10:29:00Z</time><name>PT2940</name></trkpt>
<trkpt lat="53.231833" lon="-1.856072"><ele>281</ele><time>2019-08-30T10:29:01Z</time><name>PT2941</name></trkpt>
<trkpt lat="53.231822" lon="-1.856066"><ele>281</ele><time>2019-08-30T10:29:02Z</time><name>PT2942</name></trkpt>
<trkpt lat="53.231816" lon="-1.856062"><ele>280</ele><time>2019-08-30T10:29:03Z</time><name>PT2943</name></trkpt>
<trkpt lat="53.231810" lon="-1.856061"><ele>280</ele><time>2019-08-30T10:29:04Z</time><name>PT2944</name></trkpt>
<trkpt lat="53.231795" lon="-1.856061"><ele>280</ele><time>2019-08-30T10:29:05Z</time><name>PT2945</name></trkpt>
<trkpt lat="53.231784" lon="-1.856053"><ele>281</ele><time>2019-08-30T10:29:06Z</time><name>PT2946</name></trkpt>
<trkpt lat="53.231774" lon="-1.856047"><ele>281</ele><time>2019-08-30T10:29:07Z</time><name>PT2947</name></trkpt>
<trkpt lat="53.231763" lon="-1.856037"><ele>281</ele><time>2019-08-30T10:29:08Z</time><name>PT2948</name></trkpt>
<trkpt lat="53.231755" lon="-1.856031"><ele>281</ele><time>2019-08-30T10:29:09Z</time><name>PT2949</name></trkpt>
<trkpt lat="53.231740" lon="-1.856029"><ele>282</ele><time>2019-08-30T10:29:10Z</time><name>PT2950</name></trkpt>
<trkpt lat="53.231724" lon="-1.856026"><ele>282</ele><time>2019-08-30T10:29:11Z</time><name>PT2951</name></trkpt>
<trkpt lat="53.231716" lon="-1.856018"><ele>282</ele><time>2019-08-30T10:29:12Z</time><name>PT2952</name></trkpt>
<trkpt lat="53.231708" lon="-1.856012"><ele>282</ele><time>2019-08-30T10:29:13Z</time><name>PT2953</name></trkpt>
<trkpt lat="53.231694" lon="-1.856006"><ele>283</ele><time>2019-08-30T10:29:14Z</time><name>PT2954</name></trkpt>
<trkpt lat="53.231682" lon="-1.855998"><ele>284</ele><time>2019-08-30T10:29:15Z</time><name>PT2955</name></trkpt>
<trkpt lat="53.231671" lon="-1.855990"><ele>284</ele><time>2019-08-30T10:29:16Z</time><name>PT2956</name></trkpt>
<trkpt lat="53.231664" lon="-1.855980"><ele>283</ele><time>2019-08-30T10:29:17Z</time><name>PT2957</name></trkpt>
<trkpt lat="53.231654" lon="-1.855966"><ele>282</ele><time>2019-08-30T10:29:18Z</time><name>PT2958</name></trkpt>
<trkpt lat="53.231641" lon="-1.855954"><ele>283</ele><time>2019-08-30T10:29:19Z</time><name>PT2959</name></trkpt>
<trkpt lat="53.231631" lon="-1.855945"><ele>283</ele><time>2019-08-30T10:29:20Z</time><name>PT2960</name></trkpt>
<trkpt lat="53.231619" lon="-1.855941"><ele>283</ele><time>2019-08-30T10:29:21Z</time><name>PT2961</name></trkpt>
<trkpt lat="53.231607" lon="-1.855938"><ele>283</ele><time>2019-08-30T10:29:22Z</time><name>PT2962</name></trkpt>
<trkpt lat="53.231594" lon="-1.855934"><ele>284</ele><time>2019-08-30T10:29:23Z</time><name>PT2963</name></trkpt>
<trkpt lat="53.231583" lon="-1.855931"><ele>284</ele><time>2019-08-30T10:29:24Z</time><name>PT2964</name></trkpt>
<trkpt lat="53.231569" lon="-1.855928"><ele>284</ele><time>2019-08-30T10:29:25Z</time><name>PT2965</name></trkpt>
<trkpt lat="53.231556" lon="-1.855924"><ele>284</ele><time>2019-08-30T10:29:26Z</time><name>PT2966</name></trkpt>
<trkpt lat="53.231544" lon="-1.855922"><ele>284</ele><time>2019-08-30T10:29:27Z</time><name>PT2967</name></trkpt>
<trkpt lat="53.231533" lon="-1.855919"><ele>284</ele><time>2019-08-30T10:29:28Z</time><name>PT2968</name></trkpt>
<trkpt lat="53.231522" lon="-1.855917"><ele>285</ele><time>2019-08-30T10:29:29Z</time><name>PT2969</name></trkpt>
<trkpt lat="53.231512" lon="-1.855915"><ele>285</ele><time>2019-08-30T10:29:30Z</time><name>PT2970</name></trkpt>
<trkpt lat="53.231503" lon="-1.855910"><ele>285</ele><time>2019-08-30T10:29:31Z</time><name>PT2971</name></trkpt>
<trkpt lat="53.231490" lon="-1.855904"><ele>285</ele><time>2019-08-30T10:29:32Z</time><name>PT2972</name></trkpt>
<trkpt lat="53.231482" lon="-1.855896"><ele>285</ele><time>2019-08-30T10:29:33Z</time><name>PT2973</name></trkpt>
<trkpt lat="53.231472" lon="-1.855892"><ele>284</ele><time>2019-08-30T10:29:34Z</time><name>PT2974</name></trkpt>
<trkpt lat="53.231464" lon="-1.855886"><ele>284</ele><time>2019-08-30T10:29:35Z</time><name>PT2975</name></trkpt>
<trkpt lat="53.231451" lon="-1.855882"><ele>284</ele><time>2019-08-30T10:29:36Z</time><name>PT2976</name></trkpt>
<trkpt lat="53.231439" lon="-1.855877"><ele>284</ele><time>2019-08-30T10:29:37Z</time><name>PT2977</name></trkpt>
<trkpt lat="53.231428" lon="-1.855875"><ele>284</ele><time>2019-08-30T10:29:38Z</time><name>PT2978</name></trkpt>
<trkpt lat="53.231417" lon="-1.855870"><ele>284</ele><time>2019-08-30T10:29:39Z</time><name>PT2979</name></trkpt>
<trkpt lat="53.231404" lon="-1.855866"><ele>284</ele><time>2019-08-30T10:29:40Z</time><name>PT2980</name></trkpt>
<trkpt lat="53.231395" lon="-1.855867"><ele>283</ele><time>2019-08-30T10:29:41Z</time><name>PT2981</name></trkpt>
<trkpt lat="53.231383" lon="-1.855866"><ele>284</ele><time>2019-08-30T10:29:42Z</time><name>PT2982</name></trkpt>
<trkpt lat="53.231373" lon="-1.855863"><ele>284</ele><time>2019-08-30T10:29:43Z</time><name>PT2983</name></trkpt>
<trkpt lat="53.231361" lon="-1.855864"><ele>284</ele><time>2019-08-30T10:29:44Z</time><name>PT2984</name></trkpt>
<trkpt lat="53.231348" lon="-1.855860"><ele>285</ele><time>2019-08-30T10:29:45Z</time><name>PT2985</name></trkpt>
<trkpt lat="53.231336" lon="-1.855856"><ele>285</ele><time>2019-08-30T10:29:46Z</time><name>PT2986</name></trkpt>
<trkpt lat="53.231324" lon="-1.855852"><ele>285</ele><time>2019-08-30T10:29:47Z</time><name>PT2987</name></trkpt>
<trkpt lat="53.231310" lon="-1.855854"><ele>285</ele><time>2019-08-30T10:29:48Z</time><name>PT2988</name></trkpt>
<trkpt lat="53.231295" lon="-1.855847"><ele>286</ele><time>2019-08-30T10:29:49Z</time><name>PT2989</name></trkpt>
<trkpt lat="53.231276" lon="-1.855843"><ele>287</ele><time>2019-08-30T10:29:50Z</time><name>PT2990</name></trkpt>
<trkpt lat="53.231264" lon="-1.855836"><ele>288</ele><time>2019-08-30T10:29:51Z</time><name>PT2991</name></trkpt>
<trkpt lat="53.231256" lon="-1.855827"><ele>287</ele><time>2019-08-30T10:29:52Z</time><name>PT2992</name></trkpt>
<trkpt lat="53.231245" lon="-1.855822"><ele>288</ele><time>2019-08-30T10:29:53Z</time><name>PT2993</name></trkpt>
<trkpt lat="53.231235" lon="-1.855812"><ele>288</ele><time>2019-08-30T10:29:54Z</time><name>PT2994</name></trkpt>
<trkpt lat="53.231227" lon="-1.855794"><ele>287</ele><time>2019-08-30T10:29:55Z</time><name>PT2995</name></trkpt>
<trkpt lat="53.231217" lon="-1.855783"><ele>287</ele><time>2019-08-30T10:29:56Z</time><name>PT2996</name></trkpt>
<trkpt lat="53.231208" lon="-1.855777"><ele>287</ele><time>2019-08-30T10:29:57Z</time><name>PT2997</name></trkpt>
<trkpt lat="53.231199" lon="-1.855768"><ele>287</ele><time>2019-08-30T10:29:58Z</time><name>PT2998</name></trkpt>
<trkpt lat="53.231188" lon="-1.855756"><ele>287</ele><time>2019-08-30T10:29:59Z</time><name>PT2999</name></trkpt>
<trkpt lat="53.231177" lon="-1.855749"><ele>287</ele><time>2019-08-30T10:30:00Z</time><name>PT3000</name></trkpt>
<trkpt lat="53.231168" lon="-1.855743"><ele>287</ele><time>2019-08-30T10:30:01Z</time><name>PT3001</name></trkpt>
<trkpt lat="53.231160" lon="-1.855732"><ele>285</ele><time>2019-08-30T10:30:02Z</time><name>PT3002</name></trkpt>
<trkpt lat="53.231150" lon="-1.855723"><ele>285</ele><time>2019-08-30T10:30:03Z</time><name>PT3003</name></trkpt>
<trkpt lat="53.231137" lon="-1.855718"><ele>285</ele><time>2019-08-30T10:30:04Z</time><name>PT3004</name></trkpt>
<trkpt lat="53.231127" lon="-1.855715"><ele>285</ele><time>2019-08-30T10:30:05Z</time><name>PT3005</name></trkpt>
<trkpt lat="53.231114" lon="-1.855706"><ele>285</ele><time>2019-08-30T10:30:06Z</time><name>PT3006</name></trkpt>
<trkpt lat="53.231103" lon="-1.855697"><ele>285</ele><time>2019-08-30T10:30:07Z</time><name>PT3007</name></trkpt>
<trkpt lat="53.231089" lon="-1.855699"><ele>286</ele><time>2019-08-30T10:30:08Z</time><name>PT3008</name></trkpt>
<trkpt lat="53.231079" lon="-1.855698"><ele>286</ele><time>2019-08-30T10:30:09Z</time><name>PT3009</name></trkpt>
<trkpt lat="53.231072" lon="-1.855700"><ele>284</ele><time>2019-08-30T10:30:10Z</time><name>PT3010</name></trkpt>
<trkpt lat="53.231061" lon="-1.855694"><ele>284</ele><time>2019-08-30T10:30:11Z</time><name>PT3011</name></trkpt>
<trkpt lat="53.231042" lon="-1.855690"><ele>286</ele><time>2019-08-30T10:30:12Z</time><name>PT3012</name></trkpt>
<trkpt lat="53.231031" lon="-1.855678"><ele>285</ele><time>2019-08-30T10:30:13Z</time><name>PT3013</name></trkpt>
<trkpt lat="53.231020" lon="-1.855672"><ele>285</ele><time>2019-08-30T10:30:14Z</time><name>PT3014</name></trkpt>
<trkpt lat="53.231008" lon="-1.855661"><ele>285</ele><time>2019-08-30T10:30:15Z</time><name>PT3015</name></trkpt>
<trkpt lat="53.230995" lon="-1.855654"><ele>286</ele><time>2019-08-30T10:30:16Z</time><name>PT3016</name></trkpt>
<trkpt lat="53.230982" lon="-1.855645"><ele>287</ele><time>2019-08-30T10:30:17Z</time><name>PT3017</name></trkpt>
<trkpt lat="53.230973" lon="-1.855643"><ele>287</ele><time>2019-08-30T10:30:18Z</time><name>PT3018</name></trkpt>
<trkpt lat="53.230964" lon="-1.855638"><ele>287</ele><time>2019-08-30T10:30:19Z</time><name>PT3019</name></trkpt>
<trkpt lat="53.230954" lon="-1.855632"><ele>287</ele><time>2019-08-30T10:30:20Z</time><name>PT3020</name></trkpt>
<trkpt lat="53.230944" lon="-1.855625"><ele>287</ele><time>2019-08-30T10:30:21Z</time><name>PT3021</name></trkpt>
<trkpt lat="53.230934" lon="-1.855621"><ele>287</ele><time>2019-08-30T10:30:22Z</time><name>PT3022</name></trkpt>
<trkpt lat="53.230924" lon="-1.855615"><ele>287</ele><time>2019-08-30T10:30:23Z</time><name>PT3023</name></trkpt>
<trkpt lat="53.230916" lon="-1.855609"><ele>287</ele><time>2019-08-30T10:30:24Z</time><name>PT3024</name></trkpt>
<trkpt lat="53.230906" lon="-1.855602"><ele>287</ele><time>2019-08-30T10:30:25Z</time><name>PT3025</name></trkpt>
<trkpt lat="53.230898" lon="-1.855590"><ele>286</ele><time>2019-08-30T10:30:26Z</time><name>PT3026</name></trkpt>
<trkpt lat="53.230888" lon="-1.855585"><ele>286</ele><time>2019-08-30T10:30:27Z</time><name>PT3027</name></trkpt>
<trkpt lat="53.230878" lon="-1.855574"><ele>286</ele><time>2019-08-30T10:30:28Z</time><name>PT3028</name></trkpt>
<trkpt lat="53.230867" lon="-1.855565"><ele>286</ele><time>2019-08-30T10:30:29Z</time><name>PT3029</name></trkpt>
<trkpt lat="53.230859" lon="-1.855560"><ele>286</ele><time>2019-08-30T10:30:30Z</time><name>PT3030</name></trkpt>
<trkpt lat="53.230845" lon="-1.855566"><ele>286</ele><time>2019-08-30T10:30:31Z</time><name>PT3031</name></trkpt>
<trkpt lat="53.230830" lon="-1.855560"><ele>286</ele><time>2019-08-30T10:30:32Z</time><name>PT3032</name></trkpt>
<trkpt lat="53.230820" lon="-1.855554"><ele>286</ele><time>2019-08-30T10:30:33Z</time><name>PT3033</name></trkpt>
<trkpt lat="53.230807" lon="-1.855547"><ele>286</ele><time>2019-08-30T10:30:34Z</time><name>PT3034</name></trkpt>
<trkpt lat="53.230798" lon="-1.855545"><ele>286</ele><time>2019-08-30T10:30:35Z</time><name>PT3035</name></trkpt>
<trkpt lat="53.230786" lon="-1.855544"><ele>287</ele><time>2019-08-30T10:30:36Z</time><name>PT3036</name></trkpt>
<trkpt lat="53.230774" lon="-1.855543"><ele>287</ele><time>2019-08-30T10:30:37Z</time><name>PT3037</name></trkpt>
<trkpt lat="53.230764" lon="-1.855535"><ele>287</ele><time>2019-08-30T10:30:38Z</time><name>PT3038</name></trkpt>
<trkpt lat="53.230755" lon="-1.855530"><ele>287</ele><time>2019-08-30T10:30:39Z</time><name>PT3039</name></trkpt>
<trkpt lat="53.230744" lon="-1.855522"><ele>287</ele><time>2019-08-30T10:30:40Z</time><name>PT3040</name></trkpt>
<trkpt lat="53.230734" lon="-1.855513"><ele>287</ele><time>2019-08-30T10:30:41Z</time><name>PT3041</name></trkpt>
<trkpt lat="53.230725" lon="-1.855506"><ele>287</ele><time>2019-08-30T10:30:42Z</time><name>PT3042</name></trkpt>
<trkpt lat="53.230716" lon="-1.855497"><ele>287</ele><time>2019-08-30T10:30:43Z</time><name>PT3043</name></trkpt>
<trkpt lat="53.230706" lon="-1.855486"><ele>287</ele><time>2019-08-30T10:30:44Z</time><name>PT3044</name></trkpt>
<trkpt lat="53.230693" lon="-1.855479"><ele>287</ele><time>2019-08-30T10:30:45Z</time><name>PT3045</name></trkpt>
<trkpt lat="53.230687" lon="-1.855473"><ele>286</ele><time>2019-08-30T10:30:46Z</time><name>PT3046</name></trkpt>
<trkpt lat="53.230675" lon="-1.855467"><ele>287</ele><time>2019-08-30T10:30:48Z</time><name>PT3047</name></trkpt>
<trkpt lat="53.230661" lon="-1.855467"><ele>288</ele><time>2019-08-30T10:30:48Z</time><name>PT3048</name></trkpt>
<trkpt lat="53.230649" lon="-1.855460"><ele>288</ele><time>2019-08-30T10:30:49Z</time><name>PT3049</name></trkpt>
<trkpt lat="53.230637" lon="-1.855454"><ele>288</ele><time>2019-08-30T10:30:50Z</time><name>PT3050</name></trkpt>
<trkpt lat="53.230624" lon="-1.855445"><ele>288</ele><time>2019-08-30T10:30:51Z</time><name>PT3051</name></trkpt>
<trkpt lat="53.230614" lon="-1.855435"><ele>288</ele><time>2019-08-30T10:30:52Z</time><name>PT3052</name></trkpt>
<trkpt lat="53.230612" lon="-1.855418"><ele>287</ele><time>2019-08-30T10:30:53Z</time><name>PT3053</name></trkpt>
<trkpt lat="53.230601" lon="-1.855412"><ele>287</ele><time>2019-08-30T10:30:54Z</time><name>PT3054</name></trkpt>
<trkpt lat="53.230586" lon="-1.855408"><ele>287</ele><time>2019-08-30T10:30:55Z</time><name>PT3055</name></trkpt>
<trkpt lat="53.230572" lon="-1.855397"><ele>288</ele><time>2019-08-30T10:30:56Z</time><name>PT3056</name></trkpt>
<trkpt lat="53.230562" lon="-1.855393"><ele>288</ele><time>2019-08-30T10:30:57Z</time><name>PT3057</name></trkpt>
<trkpt lat="53.230549" lon="-1.855387"><ele>288</ele><time>2019-08-30T10:30:58Z</time><name>PT3058</name></trkpt>
<trkpt lat="53.230541" lon="-1.855376"><ele>288</ele><time>2019-08-30T10:30:59Z</time><name>PT3059</name></trkpt>
<trkpt lat="53.230534" lon="-1.855369"><ele>287</ele><time>2019-08-30T10:31:00Z</time><name>PT3060</name></trkpt>
<trkpt lat="53.230523" lon="-1.855367"><ele>287</ele><time>2019-08-30T10:31:01Z</time><name>PT3061</name></trkpt>
<trkpt lat="53.230514" lon="-1.855363"><ele>287</ele><time>2019-08-30T10:31:02Z</time><name>PT3062</name></trkpt>
<trkpt lat="53.230504" lon="-1.855356"><ele>287</ele><time>2019-08-30T10:31:03Z</time><name>PT3063</name></trkpt>
<trkpt lat="53.230491" lon="-1.855346"><ele>287</ele><time>2019-08-30T10:31:04Z</time><name>PT3064</name></trkpt>
<trkpt lat="53.230482" lon="-1.855339"><ele>287</ele><time>2019-08-30T10:31:05Z</time><name>PT3065</name></trkpt>
<trkpt lat="53.230471" lon="-1.855333"><ele>287</ele><time>2019-08-30T10:31:06Z</time><name>PT3066</name></trkpt>
<trkpt lat="53.230462" lon="-1.855324"><ele>287</ele><time>2019-08-30T10:31:07Z</time><name>PT3067</name></trkpt>
<trkpt lat="53.230449" lon="-1.855313"><ele>287</ele><time>2019-08-30T10:31:08Z</time><name>PT3068</name></trkpt>
<trkpt lat="53.230438" lon="-1.855311"><ele>287</ele><time>2019-08-30T10:31:09Z</time><name>PT3069</name></trkpt>
<trkpt lat="53.230427" lon="-1.855303"><ele>288</ele><time>2019-08-30T10:31:10Z</time><name>PT3070</name></trkpt>
<trkpt lat="53.230415" lon="-1.855298"><ele>288</ele><time>2019-08-30T10:31:12Z</time><name>PT3071</name></trkpt>
<trkpt lat="53.230399" lon="-1.855287"><ele>289</ele><time>2019-08-30T10:31:12Z</time><name>PT3072</name></trkpt>
<trkpt lat="53.230387" lon="-1.855279"><ele>289</ele><time>2019-08-30T10:31:13Z</time><name>PT3073</name></trkpt>
<trkpt lat="53.230377" lon="-1.855276"><ele>289</ele><time>2019-08-30T10:31:14Z</time><name>PT3074</name></trkpt>
<trkpt lat="53.230367" lon="-1.855272"><ele>290</ele><time>2019-08-30T10:31:15Z</time><name>PT3075</name></trkpt>
<trkpt lat="53.230357" lon="-1.855269"><ele>290</ele><time>2019-08-30T10:31:16Z</time><name>PT3076</name></trkpt>
<trkpt lat="53.230347" lon="-1.855262"><ele>289</ele><time>2019-08-30T10:31:17Z</time><name>PT3077</name></trkpt>
<trkpt lat="53.230335" lon="-1.855258"><ele>290</ele><time>2019-08-30T10:31:18Z</time><name>PT3078</name></trkpt>
<trkpt lat="53.230321" lon="-1.855252"><ele>290</ele><time>2019-08-30T10:31:19Z</time><name>PT3079</name></trkpt>
<trkpt lat="53.230313" lon="-1.855245"><ele>290</ele><time>2019-08-30T10:31:20Z</time><name>PT3080</name></trkpt>
<trkpt lat="53.230303" lon="-1.855238"><ele>290</ele><time>2019-08-30T10:31:21Z</time><name>PT3081</name></trkpt>
<trkpt lat="53.230292" lon="-1.855238"><ele>289</ele><time>2019-08-30T10:31:22Z</time><name>PT3082</name></trkpt>
<trkpt lat="53.230281" lon="-1.855234"><ele>289</ele><time>2019-08-30T10:31:24Z</time><name>PT3083</name></trkpt>
<trkpt lat="53.230271" lon="-1.855226"><ele>289</ele><time>2019-08-30T10:31:24Z</time><name>PT3084</name></trkpt>
<trkpt lat="53.230259" lon="-1.855218"><ele>290</ele><time>2019-08-30T10:31:25Z</time><name>PT3085</name></trkpt>
<trkpt lat="53.230249" lon="-1.855211"><ele>289</ele><time>2019-08-30T10:31:27Z</time><name>PT3086</name></trkpt>
<trkpt lat="53.230237" lon="-1.855209"><ele>289</ele><time>2019-08-30T10:31:27Z</time><name>PT3087</name></trkpt>
<trkpt lat="53.230225" lon="-1.855201"><ele>289</ele><time>2019-08-30T10:31:28Z</time><name>PT3088</name></trkpt>
<trkpt lat="53.230215" lon="-1.855192"><ele>290</ele><time>2019-08-30T10:31:29Z</time><name>PT3089</name></trkpt>
<trkpt lat="53.230203" lon="-1.855187"><ele>290</ele><time>2019-08-30T10:31:30Z</time><name>PT3090</name></trkpt>
<trkpt lat="53.230194" lon="-1.855183"><ele>289</ele><time>2019-08-30T10:31:31Z</time><name>PT3091</name></trkpt>
<trkpt lat="53.230183" lon="-1.855179"><ele>289</ele><time>2019-08-30T10:31:32Z</time><name>PT3092</name></trkpt>
<trkpt lat="53.230172" lon="-1.855176"><ele>289</ele><time>2019-08-30T10:31:33Z</time><name>PT3093</name></trkpt>
<trkpt lat="53.230162" lon="-1.855176"><ele>288</ele><time>2019-08-30T10:31:34Z</time><name>PT3094</name></trkpt>
<trkpt lat="53.230154" lon="-1.855173"><ele>288</ele><time>2019-08-30T10:31:35Z</time><name>PT3095</name></trkpt>
<trkpt lat="53.230143" lon="-1.855166"><ele>289</ele><time>2019-08-30T10:31:36Z</time><name>PT3096</name></trkpt>
<trkpt lat="53.230132" lon="-1.855160"><ele>289</ele><time>2019-08-30T10:31:37Z</time><name>PT3097</name></trkpt>
<trkpt lat="53.230120" lon="-1.855153"><ele>289</ele><time>2019-08-30T10:31:39Z</time><name>PT3098</name></trkpt>
<trkpt lat="53.230107" lon="-1.855145"><ele>290</ele><time>2019-08-30T10:31:39Z</time><name>PT3099</name></trkpt>
<trkpt lat="53.230097" lon="-1.855139"><ele>290</ele><time>2019-08-30T10:31:40Z</time><name>PT3100</name></trkpt>
<trkpt lat="53.230088" lon="-1.855131"><ele>290</ele><time>2019-08-30T10:31:42Z</time><name>PT3101</name></trkpt>
<trkpt lat="53.230076" lon="-1.855126"><ele>290</ele><time>2019-08-30T10:31:42Z</time><name>PT3102</name></trkpt>
<trkpt lat="53.230062" lon="-1.855126"><ele>290</ele><time>2019-08-30T10:31:43Z</time><name>PT3103</name></trkpt>
<trkpt lat="53.230055" lon="-1.855125"><ele>290</ele><time>2019-08-30T10:31:44Z</time><name>PT3104</name></trkpt>
<trkpt lat="53.230052" lon="-1.855112"><ele>290</ele><time>2019-08-30T10:31:45Z</time><name>PT3105</name></trkpt>
<trkpt lat="53.230044" lon="-1.855101"><ele>290</ele><time>2019-08-30T10:31:46Z</time><name>PT3106</name></trkpt>
<trkpt lat="53.230045" lon="-1.855097"><ele>289</ele><time>2019-08-30T10:31:47Z</time><name>PT3107</name></trkpt>
<trkpt lat="53.230039" lon="-1.855102"><ele>289</ele><time>2019-08-30T10:31:48Z</time><name>PT3108</name></trkpt>
<trkpt lat="53.230029" lon="-1.855107"><ele>289</ele><time>2019-08-30T10:31:49Z</time><name>PT3109</name></trkpt>
<trkpt lat="53.230019" lon="-1.855110"><ele>289</ele><time>2019-08-30T10:31:51Z</time><name>PT3110</name></trkpt>
<trkpt lat="53.230009" lon="-1.855114"><ele>289</ele><time>2019-08-30T10:31:51Z</time><name>PT3111</name></trkpt>
<trkpt lat="53.229999" lon="-1.855111"><ele>289</ele><time>2019-08-30T10:31:52Z</time><name>PT3112</name></trkpt>
<trkpt lat="53.229987" lon="-1.855107"><ele>289</ele><time>2019-08-30T10:31:54Z</time><name>PT3113</name></trkpt>
<trkpt lat="53.229979" lon="-1.855102"><ele>289</ele><time>2019-08-30T10:31:54Z</time><name>PT3114</name></trkpt>
<trkpt lat="53.229970" lon="-1.855102"><ele>288</ele><time>2019-08-30T10:31:55Z</time><name>PT3115</name></trkpt>
<trkpt lat="53.229960" lon="-1.855099"><ele>288</ele><time>2019-08-30T10:31:56Z</time><name>PT3116</name></trkpt>
<trkpt lat="53.229951" lon="-1.855093"><ele>288</ele><time>2019-08-30T10:31:57Z</time><name>PT3117</name></trkpt>
<trkpt lat="53.229944" lon="-1.855091"><ele>288</ele><time>2019-08-30T10:31:58Z</time><name>PT3118</name></trkpt>
<trkpt lat="53.229934" lon="-1.855090"><ele>288</ele><time>2019-08-30T10:31:59Z</time><name>PT3119</name></trkpt>
<trkpt lat="53.229927" lon="-1.855086"><ele>288</ele><time>2019-08-30T10:32:00Z</time><name>PT3120</name></trkpt>
<trkpt lat="53.229920" lon="-1.855078"><ele>288</ele><time>2019-08-30T10:32:01Z</time><name>PT3121</name></trkpt>
<trkpt lat="53.229915" lon="-1.855070"><ele>288</ele><time>2019-08-30T10:32:03Z</time><name>PT3122</name></trkpt>
<trkpt lat="53.229905" lon="-1.855068"><ele>287</ele><time>2019-08-30T10:32:03Z</time><name>PT3123</name></trkpt>
<trkpt lat="53.229897" lon="-1.855068"><ele>287</ele><time>2019-08-30T10:32:04Z</time><name>PT3124</name></trkpt>
<trkpt lat="53.229889" lon="-1.855067"><ele>288</ele><time>2019-08-30T10:32:05Z</time><name>PT3125</name></trkpt>
<trkpt lat="53.229877" lon="-1.855067"><ele>289</ele><time>2019-08-30T10:32:06Z</time><name>PT3126</name></trkpt>
<trkpt lat="53.229868" lon="-1.855068"><ele>288</ele><time>2019-08-30T10:32:07Z</time><name>PT3127</name></trkpt>
<trkpt lat="53.229858" lon="-1.855072"><ele>288</ele><time>2019-08-30T10:32:09Z</time><name>PT3128</name></trkpt>
<trkpt lat="53.229849" lon="-1.855076"><ele>288</ele><time>2019-08-30T10:32:09Z</time><name>PT3129</name></trkpt>
<trkpt lat="53.229839" lon="-1.855075"><ele>288</ele><time>2019-08-30T10:32:10Z</time><name>PT3130</name></trkpt>
<trkpt lat="53.229830" lon="-1.855069"><ele>288</ele><time>2019-08-30T10:32:11Z</time><name>PT3131</name></trkpt>
<trkpt lat="53.229820" lon="-1.855069"><ele>287</ele><time>2019-08-30T10:32:12Z</time><name>PT3132</name></trkpt>
<trkpt lat="53.229813" lon="-1.855067"><ele>287</ele><time>2019-08-30T10:32:13Z</time><name>PT3133</name></trkpt>
<trkpt lat="53.229805" lon="-1.855060"><ele>287</ele><time>2019-08-30T10:32:14Z</time><name>PT3134</name></trkpt>
<trkpt lat="53.229795" lon="-1.855050"><ele>287</ele><time>2019-08-30T10:32:15Z</time><name>PT3135</name></trkpt>
<trkpt lat="53.229790" lon="-1.855047"><ele>286</ele><time>2019-08-30T10:32:16Z</time><name>PT3136</name></trkpt>
<trkpt lat="53.229779" lon="-1.855046"><ele>286</ele><time>2019-08-30T10:32:17Z</time><name>PT3137</name></trkpt>
<trkpt lat="53.229767" lon="-1.855042"><ele>287</ele><time>2019-08-30T10:32:18Z</time><name>PT3138</name></trkpt>
<trkpt lat="53.229758" lon="-1.855038"><ele>286</ele><time>2019-08-30T10:32:19Z</time><name>PT3139</name></trkpt>
<trkpt lat="53.229755" lon="-1.855028"><ele>286</ele><time>2019-08-30T10:32:20Z</time><name>PT3140</name></trkpt>
<trkpt lat="53.229740" lon="-1.855034"><ele>286</ele><time>2019-08-30T10:32:21Z</time><name>PT3141</name></trkpt>
<trkpt lat="53.229728" lon="-1.855033"><ele>286</ele><time>2019-08-30T10:32:22Z</time><name>PT3142</name></trkpt>
<trkpt lat="53.229720" lon="-1.855029"><ele>285</ele><time>2019-08-30T10:32:23Z</time><name>PT3143</name></trkpt>
<trkpt lat="53.229709" lon="-1.855027"><ele>285</ele><time>2019-08-30T10:32:24Z</time><name>PT3144</name></trkpt>
<trkpt lat="53.229703" lon="-1.855020"><ele>285</ele><time>2019-08-30T10:32:25Z</time><name>PT3145</name></trkpt>
<trkpt lat="53.229692" lon="-1.855016"><ele>285</ele><time>2019-08-30T10:32:26Z</time><name>PT3146</name></trkpt>
<trkpt lat="53.229686" lon="-1.855012"><ele>285</ele><time>2019-08-30T10:32:27Z</time><name>PT3147</name></trkpt>
<trkpt lat="53.229674" lon="-1.855007"><ele>285</ele><time>2019-08-30T10:32:28Z</time><name>PT3148</name></trkpt>
<trkpt lat="53.229663" lon="-1.855005"><ele>285</ele><time>2019-08-30T10:32:29Z</time><name>PT3149</name></trkpt>
<trkpt lat="53.229653" lon="-1.854997"><ele>285</ele><time>2019-08-30T10:32:30Z</time><name>PT3150</name></trkpt>
<trkpt lat="53.229643" lon="-1.854993"><ele>285</ele><time>2019-08-30T10:32:31Z</time><name>PT3151</name></trkpt>
<trkpt lat="53.229632" lon="-1.854990"><ele>285</ele><time>2019-08-30T10:32:32Z</time><name>PT3152</name></trkpt>
<trkpt lat="53.229621" lon="-1.854986"><ele>285</ele><time>2019-08-30T10:32:33Z</time><name>PT3153</name></trkpt>
<trkpt lat="53.229607" lon="-1.854980"><ele>285</ele><time>2019-08-30T10:32:34Z</time><name>PT3154</name></trkpt>
<trkpt lat="53.229594" lon="-1.854975"><ele>286</ele><time>2019-08-30T10:32:35Z</time><name>PT3155</name></trkpt>
<trkpt lat="53.229581" lon="-1.854977"><ele>286</ele><time>2019-08-30T10:32:36Z</time><name>PT3156</name></trkpt>
<trkpt lat="53.229568" lon="-1.854978"><ele>287</ele><time>2019-08-30T10:32:37Z</time><name>PT3157</name></trkpt>
<trkpt lat="53.229555" lon="-1.854974"><ele>287</ele><time>2019-08-30T10:32:38Z</time><name>PT3158</name></trkpt>
<trkpt lat="53.229542" lon="-1.854958"><ele>288</ele><time>2019-08-30T10:32:39Z</time><name>PT3159</name></trkpt>
<trkpt lat="53.229533" lon="-1.854950"><ele>288</ele><time>2019-08-30T10:32:40Z</time><name>PT3160</name></trkpt>
<trkpt lat="53.229530" lon="-1.854939"><ele>288</ele><time>2019-08-30T10:32:41Z</time><name>PT3161</name></trkpt>
<trkpt lat="53.229520" lon="-1.854935"><ele>288</ele><time>2019-08-30T10:32:42Z</time><name>PT3162</name></trkpt>
<trkpt lat="53.229512" lon="-1.854929"><ele>288</ele><time>2019-08-30T10:32:43Z</time><name>PT3163</name></trkpt>
<trkpt lat="53.229496" lon="-1.854927"><ele>288</ele><time>2019-08-30T10:32:44Z</time><name>PT3164</name></trkpt>
<trkpt lat="53.229483" lon="-1.854925"><ele>289</ele><time>2019-08-30T10:32:45Z</time><name>PT3165</name></trkpt>
<trkpt lat="53.229471" lon="-1.854924"><ele>289</ele><time>2019-08-30T10:32:46Z</time><name>PT3166</name></trkpt>
<trkpt lat="53.229458" lon="-1.854924"><ele>289</ele><time>2019-08-30T10:32:47Z</time><name>PT3167</name></trkpt>
<trkpt lat="53.229448" lon="-1.854918"><ele>289</ele><time>2019-08-30T10:32:48Z</time><name>PT3168</name></trkpt>
<trkpt lat="53.229425" lon="-1.854911"><ele>290</ele><time>2019-08-30T10:32:49Z</time><name>PT3169</name></trkpt>
<trkpt lat="53.229416" lon="-1.854912"><ele>290</ele><time>2019-08-30T10:32:50Z</time><name>PT3170</name></trkpt>
<trkpt lat="53.229403" lon="-1.854912"><ele>290</ele><time>2019-08-30T10:32:51Z</time><name>PT3171</name></trkpt>
<trkpt lat="53.229395" lon="-1.854914"><ele>290</ele><time>2019-08-30T10:32:52Z</time><name>PT3172</name></trkpt>
<trkpt lat="53.229385" lon="-1.854915"><ele>290</ele><time>2019-08-30T10:32:53Z</time><name>PT3173</name></trkpt>
<trkpt lat="53.229375" lon="-1.854915"><ele>290</ele><time>2019-08-30T10:32:54Z</time><name>PT3174</name></trkpt>
<trkpt lat="53.229364" lon="-1.854914"><ele>290</ele><time>2019-08-30T10:32:55Z</time><name>PT3175</name></trkpt>
<trkpt lat="53.229352" lon="-1.854912"><ele>290</ele><time>2019-08-30T10:32:56Z</time><name>PT3176</name></trkpt>
<trkpt lat="53.229339" lon="-1.854909"><ele>290</ele><time>2019-08-30T10:32:57Z</time><name>PT3177</name></trkpt>
<trkpt lat="53.229328" lon="-1.854912"><ele>290</ele><time>2019-08-30T10:32:58Z</time><name>PT3178</name></trkpt>
<trkpt lat="53.229319" lon="-1.854915"><ele>290</ele><time>2019-08-30T10:32:59Z</time><name>PT3179</name></trkpt>
<trkpt lat="53.229309" lon="-1.854920"><ele>290</ele><time>2019-08-30T10:33:00Z</time><name>PT3180</name></trkpt>
<trkpt lat="53.229299" lon="-1.854919"><ele>290</ele><time>2019-08-30T10:33:01Z</time><name>PT3181</name></trkpt>
<trkpt lat="53.229287" lon="-1.854912"><ele>290</ele><time>2019-08-30T10:33:02Z</time><name>PT3182</name></trkpt>
<trkpt lat="53.229276" lon="-1.854908"><ele>290</ele><time>2019-08-30T10:33:03Z</time><name>PT3183</name></trkpt>
<trkpt lat="53.229267" lon="-1.854904"><ele>290</ele><time>2019-08-30T10:33:04Z</time><name>PT3184</name></trkpt>
<trkpt lat="53.229256" lon="-1.854903"><ele>290</ele><time>2019-08-30T10:33:05Z</time><name>PT3185</name></trkpt>
<trkpt lat="53.229244" lon="-1.854901"><ele>290</ele><time>2019-08-30T10:33:06Z</time><name>PT3186</name></trkpt>
<trkpt lat="53.229231" lon="-1.854893"><ele>291</ele><time>2019-08-30T10:33:07Z</time><name>PT3187</name></trkpt>
<trkpt lat="53.229224" lon="-1.854887"><ele>290</ele><time>2019-08-30T10:33:08Z</time><name>PT3188</name></trkpt>
<trkpt lat="53.229215" lon="-1.854884"><ele>290</ele><time>2019-08-30T10:33:09Z</time><name>PT3189</name></trkpt>
<trkpt lat="53.229206" lon="-1.854881"><ele>290</ele><time>2019-08-30T10:33:10Z</time><name>PT3190</name></trkpt>
<trkpt lat="53.229196" lon="-1.854871"><ele>290</ele><time>2019-08-30T10:33:11Z</time><name>PT3191</name></trkpt>
<trkpt lat="53.229186" lon="-1.854868"><ele>290</ele><time>2019-08-30T10:33:12Z</time><name>PT3192</name></trkpt>
<trkpt lat="53.229174" lon="-1.854867"><ele>290</ele><time>2019-08-30T10:33:13Z</time><name>PT3193</name></trkpt>
<trkpt lat="53.229163" lon="-1.854865"><ele>290</ele><time>2019-08-30T10:33:14Z</time><name>PT3194</name></trkpt>
<trkpt lat="53.229151" lon="-1.854862"><ele>291</ele><time>2019-08-30T10:33:15Z</time><name>PT3195</name></trkpt>
<trkpt lat="53.229146" lon="-1.854858"><ele>291</ele><time>2019-08-30T10:33:16Z</time><name>PT3196</name></trkpt>
<trkpt lat="53.229138" lon="-1.854858"><ele>291</ele><time>2019-08-30T10:33:17Z</time><name>PT3197</name></trkpt>
<trkpt lat="53.229137" lon="-1.854860"><ele>291</ele><time>2019-08-30T10:33:18Z</time><name>PT3198</name></trkpt>
<trkpt lat="53.229127" lon="-1.854852"><ele>292</ele><time>2019-08-30T10:33:19Z</time><name>PT3199</name></trkpt>
<trkpt lat="53.229124" lon="-1.854855"><ele>292</ele><time>2019-08-30T10:33:20Z</time><name>PT3200</name></trkpt>
<trkpt lat="53.229126" lon="-1.854849"><ele>292</ele><time>2019-08-30T10:33:21Z</time><name>PT3201</name></trkpt>
<trkpt lat="53.229117" lon="-1.854845"><ele>292</ele><time>2019-08-30T10:33:24Z</time><name>PT3202</name></trkpt>
<trkpt lat="53.229102" lon="-1.854847"><ele>292</ele><time>2019-08-30T10:33:25Z</time><name>PT3203</name></trkpt>
<trkpt lat="53.229092" lon="-1.854846"><ele>292</ele><time>2019-08-30T10:33:26Z</time><name>PT3204</name></trkpt>
<trkpt lat="53.229080" lon="-1.854845"><ele>292</ele><time>2019-08-30T10:33:27Z</time><name>PT3205</name></trkpt>
<trkpt lat="53.229067" lon="-1.854837"><ele>293</ele><time>2019-08-30T10:33:28Z</time><name>PT3206</name></trkpt>
<trkpt lat="53.229062" lon="-1.854832"><ele>292</ele><time>2019-08-30T10:33:29Z</time><name>PT3207</name></trkpt>
<trkpt lat="53.229051" lon="-1.854832"><ele>292</ele><time>2019-08-30T10:33:30Z</time><name>PT3208</name></trkpt>
<trkpt lat="53.229041" lon="-1.854831"><ele>292</ele><time>2019-08-30T10:33:31Z</time><name>PT3209</name></trkpt>
<trkpt lat="53.229030" lon="-1.854826"><ele>292</ele><time>2019-08-30T10:33:32Z</time><name>PT3210</name></trkpt>
<trkpt lat="53.229017" lon="-1.854822"><ele>292</ele><time>2019-08-30T10:33:33Z</time><name>PT3211</name></trkpt>
<trkpt lat="53.229008" lon="-1.854821"><ele>292</ele><time>2019-08-30T10:33:34Z</time><name>PT3212</name></trkpt>
<trkpt lat="53.228995" lon="-1.854827"><ele>292</ele><time>2019-08-30T10:33:35Z</time><name>PT3213</name></trkpt>
<trkpt lat="53.228982" lon="-1.854829"><ele>292</ele><time>2019-08-30T10:33:36Z</time><name>PT3214</name></trkpt>
<trkpt lat="53.228970" lon="-1.854832"><ele>293</ele><time>2019-08-30T10:33:37Z</time><name>PT3215</name></trkpt>
<trkpt lat="53.228960" lon="-1.854831"><ele>292</ele><time>2019-08-30T10:33:38Z</time><name>PT3216</name></trkpt>
<trkpt lat="53.228951" lon="-1.854829"><ele>292</ele><time>2019-08-30T10:33:39Z</time><name>PT3217</name></trkpt>
<trkpt lat="53.228940" lon="-1.854829"><ele>292</ele><time>2019-08-30T10:33:40Z</time><name>PT3218</name></trkpt>
<trkpt lat="53.228930" lon="-1.854828"><ele>292</ele><time>2019-08-30T10:33:41Z</time><name>PT3219</name></trkpt>
<trkpt lat="53.228917" lon="-1.854826"><ele>293</ele><time>2019-08-30T10:33:42Z</time><name>PT3220</name></trkpt>
<trkpt lat="53.228903" lon="-1.854817"><ele>293</ele><time>2019-08-30T10:33:43Z</time><name>PT3221</name></trkpt>
<trkpt lat="53.228896" lon="-1.854814"><ele>293</ele><time>2019-08-30T10:33:44Z</time><name>PT3222</name></trkpt>
<trkpt lat="53.228884" lon="-1.854818"><ele>293</ele><time>2019-08-30T10:33:45Z</time><name>PT3223</name></trkpt>
<trkpt lat="53.228874" lon="-1.854817"><ele>293</ele><time>2019-08-30T10:33:46Z</time><name>PT3224</name></trkpt>
<trkpt lat="53.228864" lon="-1.854810"><ele>293</ele><time>2019-08-30T10:33:47Z</time><name>PT3225</name></trkpt>
<trkpt lat="53.228854" lon="-1.854801"><ele>293</ele><time>2019-08-30T10:33:48Z</time><name>PT3226</name></trkpt>
<trkpt lat="53.228843" lon="-1.854799"><ele>293</ele><time>2019-08-30T10:33:49Z</time><name>PT3227</name></trkpt>
<trkpt lat="53.228829" lon="-1.854797"><ele>293</ele><time>2019-08-30T10:33:50Z</time><name>PT3228</name></trkpt>
<trkpt lat="53.228815" lon="-1.854800"><ele>293</ele><time>2019-08-30T10:33:51Z</time><name>PT3229</name></trkpt>
<trkpt lat="53.228805" lon="-1.854793"><ele>293</ele><time>2019-08-30T10:33:52Z</time><name>PT3230</name></trkpt>
<trkpt lat="53.228796" lon="-1.854785"><ele>293</ele><time>2019-08-30T10:33:53Z</time><name>PT3231</name></trkpt>
<trkpt lat="53.228788" lon="-1.854776"><ele>292</ele><time>2019-08-30T10:33:54Z</time><name>PT3232</name></trkpt>
<trkpt lat="53.228778" lon="-1.854774"><ele>292</ele><time>2019-08-30T10:33:55Z</time><name>PT3233</name></trkpt>
<trkpt lat="53.228765" lon="-1.854769"><ele>292</ele><time>2019-08-30T10:33:56Z</time><name>PT3234</name></trkpt>
<trkpt lat="53.228750" lon="-1.854768"><ele>292</ele><time>2019-08-30T10:33:57Z</time><name>PT3235</name></trkpt>
<trkpt lat="53.228741" lon="-1.854767"><ele>292</ele><time>2019-08-30T10:33:58Z</time><name>PT3236</name></trkpt>
<trkpt lat="53.228730" lon="-1.854763"><ele>292</ele><time>2019-08-30T10:33:59Z</time><name>PT3237</name></trkpt>
<trkpt lat="53.228717" lon="-1.854758"><ele>293</ele><time>2019-08-30T10:34:00Z</time><name>PT3238</name></trkpt>
<trkpt lat="53.228705" lon="-1.854753"><ele>293</ele><time>2019-08-30T10:34:01Z</time><name>PT3239</name></trkpt>
<trkpt lat="53.228694" lon="-1.854751"><ele>292</ele><time>2019-08-30T10:34:02Z</time><name>PT3240</name></trkpt>
<trkpt lat="53.228684" lon="-1.854750"><ele>292</ele><time>2019-08-30T10:34:03Z</time><name>PT3241</name></trkpt>
<trkpt lat="53.228675" lon="-1.854751"><ele>292</ele><time>2019-08-30T10:34:04Z</time><name>PT3242</name></trkpt>
<trkpt lat="53.228663" lon="-1.854748"><ele>292</ele><time>2019-08-30T10:34:05Z</time><name>PT3243</name></trkpt>
<trkpt lat="53.228652" lon="-1.854741"><ele>292</ele><time>2019-08-30T10:34:06Z</time><name>PT3244</name></trkpt>
<trkpt lat="53.228642" lon="-1.854736"><ele>292</ele><time>2019-08-30T10:34:07Z</time><name>PT3245</name></trkpt>
<trkpt lat="53.228633" lon="-1.854732"><ele>291</ele><time>2019-08-30T10:34:09Z</time><name>PT3246</name></trkpt>
<trkpt lat="53.228623" lon="-1.854735"><ele>291</ele><time>2019-08-30T10:34:09Z</time><name>PT3247</name></trkpt>
<trkpt lat="53.228611" lon="-1.854734"><ele>291</ele><time>2019-08-30T10:34:10Z</time><name>PT3248</name></trkpt>
<trkpt lat="53.228601" lon="-1.854732"><ele>290</ele><time>2019-08-30T10:34:12Z</time><name>PT3249</name></trkpt>
<trkpt lat="53.228588" lon="-1.854731"><ele>291</ele><time>2019-08-30T10:34:12Z</time><name>PT3250</name></trkpt>
<trkpt lat="53.228574" lon="-1.854734"><ele>291</ele><time>2019-08-30T10:34:13Z</time><name>PT3251</name></trkpt>
<trkpt lat="53.228565" lon="-1.854731"><ele>291</ele><time>2019-08-30T10:34:14Z</time><name>PT3252</name></trkpt>
<trkpt lat="53.228555" lon="-1.854732"><ele>290</ele><time>2019-08-30T10:34:15Z</time><name>PT3253</name></trkpt>
<trkpt lat="53.228543" lon="-1.854731"><ele>291</ele><time>2019-08-30T10:34:16Z</time><name>PT3254</name></trkpt>
<trkpt lat="53.228529" lon="-1.854736"><ele>291</ele><time>2019-08-30T10:34:17Z</time><name>PT3255</name></trkpt>
<trkpt lat="53.228515" lon="-1.854738"><ele>291</ele><time>2019-08-30T10:34:18Z</time><name>PT3256</name></trkpt>
<trkpt lat="53.228502" lon="-1.854738"><ele>291</ele><time>2019-08-30T10:34:19Z</time><name>PT3257</name></trkpt>
<trkpt lat="53.228492" lon="-1.854737"><ele>291</ele><time>2019-08-30T10:34:21Z</time><name>PT3258</name></trkpt>
<trkpt lat="53.228481" lon="-1.854738"><ele>291</ele><time>2019-08-30T10:34:21Z</time><name>PT3259</name></trkpt>
<trkpt lat="53.228469" lon="-1.854741"><ele>291</ele><time>2019-08-30T10:34:22Z</time><name>PT3260</name></trkpt>
<trkpt lat="53.228456" lon="-1.854743"><ele>292</ele><time>2019-08-30T10:34:23Z</time><name>PT3261</name></trkpt>
<trkpt lat="53.228446" lon="-1.854743"><ele>292</ele><time>2019-08-30T10:34:24Z</time><name>PT3262</name></trkpt>
<trkpt lat="53.228436" lon="-1.854743"><ele>292</ele><time>2019-08-30T10:34:25Z</time><name>PT3263</name></trkpt>
<trkpt lat="53.228425" lon="-1.854744"><ele>292</ele><time>2019-08-30T10:34:26Z</time><name>PT3264</name></trkpt>
<trkpt lat="53.228412" lon="-1.854746"><ele>292</ele><time>2019-08-30T10:34:27Z</time><name>PT3265</name></trkpt>
<trkpt lat="53.228401" lon="-1.854746"><ele>292</ele><time>2019-08-30T10:34:28Z</time><name>PT3266</name></trkpt>
<trkpt lat="53.228394" lon="-1.854742"><ele>291</ele><time>2019-08-30T10:34:29Z</time><name>PT3267</name></trkpt>
<trkpt lat="53.228383" lon="-1.854737"><ele>291</ele><time>2019-08-30T10:34:30Z</time><name>PT3268</name></trkpt>
<trkpt lat="53.228369" lon="-1.854737"><ele>291</ele><time>2019-08-30T10:34:31Z</time><name>PT3269</name></trkpt>
<trkpt lat="53.228360" lon="-1.854733"><ele>291</ele><time>2019-08-30T10:34:32Z</time><name>PT3270</name></trkpt>
<trkpt lat="53.228349" lon="-1.854735"><ele>291</ele><time>2019-08-30T10:34:33Z</time><name>PT3271</name></trkpt>
<trkpt lat="53.228338" lon="-1.854731"><ele>292</ele><time>2019-08-30T10:34:34Z</time><name>PT3272</name></trkpt>
<trkpt lat="53.228328" lon="-1.854730"><ele>292</ele><time>2019-08-30T10:34:35Z</time><name>PT3273</name></trkpt>
<trkpt lat="53.228318" lon="-1.854729"><ele>292</ele><time>2019-08-30T10:34:36Z</time><name>PT3274</name></trkpt>
<trkpt lat="53.228308" lon="-1.854728"><ele>292</ele><time>2019-08-30T10:34:37Z</time><name>PT3275</name></trkpt>
<trkpt lat="53.228301" lon="-1.854731"><ele>292</ele><time>2019-08-30T10:34:39Z</time><name>PT3276</name></trkpt>
<trkpt lat="53.228291" lon="-1.854729"><ele>292</ele><time>2019-08-30T10:34:39Z</time><name>PT3277</name></trkpt>
<trkpt lat="53.228282" lon="-1.854728"><ele>292</ele><time>2019-08-30T10:34:40Z</time><name>PT3278</name></trkpt>
<trkpt lat="53.228271" lon="-1.854726"><ele>292</ele><time>2019-08-30T10:34:41Z</time><name>PT3279</name></trkpt>
<trkpt lat="53.228263" lon="-1.854722"><ele>292</ele><time>2019-08-30T10:34:42Z</time><name>PT3280</name></trkpt>
<trkpt lat="53.228255" lon="-1.854717"><ele>292</ele><time>2019-08-30T10:34:43Z</time><name>PT3281</name></trkpt>
<trkpt lat="53.228243" lon="-1.854718"><ele>292</ele><time>2019-08-30T10:34:44Z</time><name>PT3282</name></trkpt>
<trkpt lat="53.228232" lon="-1.854721"><ele>292</ele><time>2019-08-30T10:34:45Z</time><name>PT3283</name></trkpt>
<trkpt lat="53.228216" lon="-1.854720"><ele>293</ele><time>2019-08-30T10:34:46Z</time><name>PT3284</name></trkpt>
<trkpt lat="53.228201" lon="-1.854731"><ele>293</ele><time>2019-08-30T10:34:47Z</time><name>PT3285</name></trkpt>
<trkpt lat="53.228186" lon="-1.854726"><ele>293</ele><time>2019-08-30T10:34:48Z</time><name>PT3286</name></trkpt>
<trkpt lat="53.228172" lon="-1.854726"><ele>294</ele><time>2019-08-30T10:34:49Z</time><name>PT3287</name></trkpt>
<trkpt lat="53.228159" lon="-1.854727"><ele>294</ele><time>2019-08-30T10:34:50Z</time><name>PT3288</name></trkpt>
<trkpt lat="53.228147" lon="-1.854730"><ele>294</ele><time>2019-08-30T10:34:51Z</time><name>PT3289</name></trkpt>
<trkpt lat="53.228137" lon="-1.854735"><ele>294</ele><time>2019-08-30T10:34:52Z</time><name>PT3290</name></trkpt>
<trkpt lat="53.228124" lon="-1.854742"><ele>294</ele><time>2019-08-30T10:34:53Z</time><name>PT3291</name></trkpt>
<trkpt lat="53.228111" lon="-1.854747"><ele>294</ele><time>2019-08-30T10:34:54Z</time><name>PT3292</name></trkpt>
<trkpt lat="53.228097" lon="-1.854749"><ele>294</ele><time>2019-08-30T10:34:55Z</time><name>PT3293</name></trkpt>
<trkpt lat="53.228083" lon="-1.854751"><ele>294</ele><time>2019-08-30T10:34:56Z</time><name>PT3294</name></trkpt>
<trkpt lat="53.228072" lon="-1.854759"><ele>295</ele><time>2019-08-30T10:34:57Z</time><name>PT3295</name></trkpt>
<trkpt lat="53.228063" lon="-1.854765"><ele>294</ele><time>2019-08-30T10:34:58Z</time><name>PT3296</name></trkpt>
<trkpt lat="53.228052" lon="-1.854769"><ele>294</ele><time>2019-08-30T10:34:59Z</time><name>PT3297</name></trkpt>
<trkpt lat="53.228039" lon="-1.854770"><ele>294</ele><time>2019-08-30T10:35:00Z</time><name>PT3298</name></trkpt>
<trkpt lat="53.228028" lon="-1.854772"><ele>294</ele><time>2019-08-30T10:35:01Z</time><name>PT3299</name></trkpt>
<trkpt lat="53.228016" lon="-1.854780"><ele>295</ele><time>2019-08-30T10:35:02Z</time><name>PT3300</name></trkpt>
<trkpt lat="53.228002" lon="-1.854788"><ele>295</ele><time>2019-08-30T10:35:03Z</time><name>PT3301</name></trkpt>
<trkpt lat="53.227990" lon="-1.854793"><ele>295</ele><time>2019-08-30T10:35:04Z</time><name>PT3302</name></trkpt>
<trkpt lat="53.227977" lon="-1.854800"><ele>295</ele><time>2019-08-30T10:35:05Z</time><name>PT3303</name></trkpt>
<trkpt lat="53.227967" lon="-1.854804"><ele>295</ele><time>2019-08-30T10:35:06Z</time><name>PT3304</name></trkpt>
<trkpt lat="53.227957" lon="-1.854814"><ele>295</ele><time>2019-08-30T10:35:07Z</time><name>PT3305</name></trkpt>
<trkpt lat="53.227944" lon="-1.854821"><ele>295</ele><time>2019-08-30T10:35:08Z</time><name>PT3306</name></trkpt>
<trkpt lat="53.227933" lon="-1.854829"><ele>295</ele><time>2019-08-30T10:35:09Z</time><name>PT3307</name></trkpt>
<trkpt lat="53.227922" lon="-1.854836"><ele>295</ele><time>2019-08-30T10:35:10Z</time><name>PT3308</name></trkpt>
<trkpt lat="53.227910" lon="-1.854842"><ele>296</ele><time>2019-08-30T10:35:11Z</time><name>PT3309</name></trkpt>
<trkpt lat="53.227900" lon="-1.854845"><ele>296</ele><time>2019-08-30T10:35:12Z</time><name>PT3310</name></trkpt>
<trkpt lat="53.227889" lon="-1.854849"><ele>296</ele><time>2019-08-30T10:35:13Z</time><name>PT3311</name></trkpt>
<trkpt lat="53.227876" lon="-1.854857"><ele>296</ele><time>2019-08-30T10:35:14Z</time><name>PT3312</name></trkpt>
<trkpt lat="53.227865" lon="-1.854859"><ele>296</ele><time>2019-08-30T10:35:15Z</time><name>PT3313</name></trkpt>
<trkpt lat="53.227850" lon="-1.854866"><ele>297</ele><time>2019-08-30T10:35:16Z</time><name>PT3314</name></trkpt>
<trkpt lat="53.227840" lon="-1.854869"><ele>296</ele><time>2019-08-30T10:35:18Z</time><name>PT3315</name></trkpt>
<trkpt lat="53.227828" lon="-1.854870"><ele>297</ele><time>2019-08-30T10:35:18Z</time><name>PT3316</name></trkpt>
<trkpt lat="53.227814" lon="-1.854875"><ele>297</ele><time>2019-08-30T10:35:19Z</time><name>PT3317</name></trkpt>
<trkpt lat="53.227803" lon="-1.854878"><ele>296</ele><time>2019-08-30T10:35:20Z</time><name>PT3318</name></trkpt>
<trkpt lat="53.227791" lon="-1.854881"><ele>296</ele><time>2019-08-30T10:35:21Z</time><name>PT3319</name></trkpt>
<trkpt lat="53.227779" lon="-1.854880"><ele>296</ele><time>2019-08-30T10:35:22Z</time><name>PT3320</name></trkpt>
<trkpt lat="53.227768" lon="-1.854875"><ele>296</ele><time>2019-08-30T10:35:24Z</time><name>PT3321</name></trkpt>
<trkpt lat="53.227750" lon="-1.854884"><ele>296</ele><time>2019-08-30T10:35:24Z</time><name>PT3322</name></trkpt>
<trkpt lat="53.227737" lon="-1.854890"><ele>297</ele><time>2019-08-30T10:35:25Z</time><name>PT3323</name></trkpt>
<trkpt lat="53.227725" lon="-1.854890"><ele>296</ele><time>2019-08-30T10:35:26Z</time><name>PT3324</name></trkpt>
<trkpt lat="53.227715" lon="-1.854893"><ele>296</ele><time>2019-08-30T10:35:27Z</time><name>PT3325</name></trkpt>
<trkpt lat="53.227705" lon="-1.854893"><ele>296</ele><time>2019-08-30T10:35:28Z</time><name>PT3326</name></trkpt>
<trkpt lat="53.227695" lon="-1.854893"><ele>297</ele><time>2019-08-30T10:35:29Z</time><name>PT3327</name></trkpt>
<trkpt lat="53.227683" lon="-1.854893"><ele>297</ele><time>2019-08-30T10:35:30Z</time><name>PT3328</name></trkpt>
<trkpt lat="53.227669" lon="-1.854895"><ele>296</ele><time>2019-08-30T10:35:31Z</time><name>PT3329</name></trkpt>
<trkpt lat="53.227657" lon="-1.854898"><ele>297</ele><time>2019-08-30T10:35:32Z</time><name>PT3330</name></trkpt>
<trkpt lat="53.227640" lon="-1.854900"><ele>297</ele><time>2019-08-30T10:35:33Z</time><name>PT3331</name></trkpt>
<trkpt lat="53.227626" lon="-1.854901"><ele>297</ele><time>2019-08-30T10:35:34Z</time><name>PT3332</name></trkpt>
<trkpt lat="53.227616" lon="-1.854904"><ele>297</ele><time>2019-08-30T10:35:35Z</time><name>PT3333</name></trkpt>
<trkpt lat="53.227606" lon="-1.854905"><ele>297</ele><time>2019-08-30T10:35:36Z</time><name>PT3334</name></trkpt>
<trkpt lat="53.227591" lon="-1.854906"><ele>297</ele><time>2019-08-30T10:35:37Z</time><name>PT3335</name></trkpt>
<trkpt lat="53.227577" lon="-1.854900"><ele>298</ele><time>2019-08-30T10:35:38Z</time><name>PT3336</name></trkpt>
<trkpt lat="53.227562" lon="-1.854898"><ele>298</ele><time>2019-08-30T10:35:39Z</time><name>PT3337</name></trkpt>
<trkpt lat="53.227549" lon="-1.854901"><ele>298</ele><time>2019-08-30T10:35:40Z</time><name>PT3338</name></trkpt>
<trkpt lat="53.227537" lon="-1.854900"><ele>298</ele><time>2019-08-30T10:35:41Z</time><name>PT3339</name></trkpt>
<trkpt lat="53.227527" lon="-1.854898"><ele>298</ele><time>2019-08-30T10:35:42Z</time><name>PT3340</name></trkpt>
<trkpt lat="53.227515" lon="-1.854893"><ele>297</ele><time>2019-08-30T10:35:43Z</time><name>PT3341</name></trkpt>
<trkpt lat="53.227501" lon="-1.854895"><ele>298</ele><time>2019-08-30T10:35:44Z</time><name>PT3342</name></trkpt>
<trkpt lat="53.227489" lon="-1.854897"><ele>297</ele><time>2019-08-30T10:35:45Z</time><name>PT3343</name></trkpt>
<trkpt lat="53.227477" lon="-1.854894"><ele>297</ele><time>2019-08-30T10:35:46Z</time><name>PT3344</name></trkpt>
<trkpt lat="53.227460" lon="-1.854895"><ele>298</ele><time>2019-08-30T10:35:47Z</time><name>PT3345</name></trkpt>
<trkpt lat="53.227447" lon="-1.854889"><ele>298</ele><time>2019-08-30T10:35:48Z</time><name>PT3346</name></trkpt>
<trkpt lat="53.227434" lon="-1.854888"><ele>298</ele><time>2019-08-30T10:35:49Z</time><name>PT3347</name></trkpt>
<trkpt lat="53.227418" lon="-1.854895"><ele>299</ele><time>2019-08-30T10:35:51Z</time><name>PT3348</name></trkpt>
<trkpt lat="53.227407" lon="-1.854893"><ele>298</ele><time>2019-08-30T10:35:51Z</time><name>PT3349</name></trkpt>
<trkpt lat="53.227397" lon="-1.854887"><ele>298</ele><time>2019-08-30T10:35:52Z</time><name>PT3350</name></trkpt>
<trkpt lat="53.227386" lon="-1.854881"><ele>298</ele><time>2019-08-30T10:35:53Z</time><name>PT3351</name></trkpt>
<trkpt lat="53.227375" lon="-1.854878"><ele>299</ele><time>2019-08-30T10:35:54Z</time><name>PT3352</name></trkpt>
<trkpt lat="53.227365" lon="-1.854875"><ele>299</ele><time>2019-08-30T10:35:55Z</time><name>PT3353</name></trkpt>
<trkpt lat="53.227356" lon="-1.854866"><ele>298</ele><time>2019-08-30T10:35:56Z</time><name>PT3354</name></trkpt>
<trkpt lat="53.227347" lon="-1.854861"><ele>298</ele><time>2019-08-30T10:35:57Z</time><name>PT3355</name></trkpt>
<trkpt lat="53.227337" lon="-1.854851"><ele>298</ele><time>2019-08-30T10:35:58Z</time><name>PT3356</name></trkpt>
<trkpt lat="53.227327" lon="-1.854844"><ele>298</ele><time>2019-08-30T10:35:59Z</time><name>PT3357</name></trkpt>
<trkpt lat="53.227320" lon="-1.854835"><ele>297</ele><time>2019-08-30T10:36:00Z</time><name>PT3358</name></trkpt>
<trkpt lat="53.227310" lon="-1.854828"><ele>297</ele><time>2019-08-30T10:36:01Z</time><name>PT3359</name></trkpt>
<trkpt lat="53.227300" lon="-1.854819"><ele>297</ele><time>2019-08-30T10:36:02Z</time><name>PT3360</name></trkpt>
<trkpt lat="53.227290" lon="-1.854805"><ele>297</ele><time>2019-08-30T10:36:03Z</time><name>PT3361</name></trkpt>
<trkpt lat="53.227279" lon="-1.854800"><ele>297</ele><time>2019-08-30T10:36:04Z</time><name>PT3362</name></trkpt>
<trkpt lat="53.227267" lon="-1.854798"><ele>298</ele><time>2019-08-30T10:36:05Z</time><name>PT3363</name></trkpt>
<trkpt lat="53.227257" lon="-1.854792"><ele>297</ele><time>2019-08-30T10:36:06Z</time><name>PT3364</name></trkpt>
<trkpt lat="53.227248" lon="-1.854780"><ele>298</ele><time>2019-08-30T10:36:07Z</time><name>PT3365</name></trkpt>
<trkpt lat="53.227239" lon="-1.854764"><ele>297</ele><time>2019-08-30T10:36:08Z</time><name>PT3366</name></trkpt>
<trkpt lat="53.227228" lon="-1.854758"><ele>297</ele><time>2019-08-30T10:36:09Z</time><name>PT3367</name></trkpt>
<trkpt lat="53.227218" lon="-1.854750"><ele>297</ele><time>2019-08-30T10:36:10Z</time><name>PT3368</name></trkpt>
<trkpt lat="53.227211" lon="-1.854739"><ele>296</ele><time>2019-08-30T10:36:11Z</time><name>PT3369</name></trkpt>
<trkpt lat="53.227203" lon="-1.854725"><ele>297</ele><time>2019-08-30T10:36:12Z</time><name>PT3370</name></trkpt>
<trkpt lat="53.227196" lon="-1.854711"><ele>296</ele><time>2019-08-30T10:36:13Z</time><name>PT3371</name></trkpt>
<trkpt lat="53.227193" lon="-1.854693"><ele>297</ele><time>2019-08-30T10:36:15Z</time><name>PT3372</name></trkpt>
<trkpt lat="53.227187" lon="-1.854675"><ele>297</ele><time>2019-08-30T10:36:15Z</time><name>PT3373</name></trkpt>
<trkpt lat="53.227178" lon="-1.854657"><ele>297</ele><time>2019-08-30T10:36:16Z</time><name>PT3374</name></trkpt>
<trkpt lat="53.227170" lon="-1.854641"><ele>298</ele><time>2019-08-30T10:36:18Z</time><name>PT3375</name></trkpt>
<trkpt lat="53.227164" lon="-1.854627"><ele>298</ele><time>2019-08-30T10:36:18Z</time><name>PT3376</name></trkpt>
<trkpt lat="53.227156" lon="-1.854616"><ele>298</ele><time>2019-08-30T10:36:19Z</time><name>PT3377</name></trkpt>
<trkpt lat="53.227149" lon="-1.854602"><ele>298</ele><time>2019-08-30T10:36:20Z</time><name>PT3378</name></trkpt>
<trkpt lat="53.227141" lon="-1.854587"><ele>298</ele><time>2019-08-30T10:36:21Z</time><name>PT3379</name></trkpt>
<trkpt lat="53.227134" lon="-1.854573"><ele>298</ele><time>2019-08-30T10:36:22Z</time><name>PT3380</name></trkpt>
<trkpt lat="53.227128" lon="-1.854558"><ele>298</ele><time>2019-08-30T10:36:23Z</time><name>PT3381</name></trkpt>
<trkpt lat="53.227121" lon="-1.854543"><ele>298</ele><time>2019-08-30T10:36:24Z</time><name>PT3382</name></trkpt>
<trkpt lat="53.227114" lon="-1.854526"><ele>298</ele><time>2019-08-30T10:36:25Z</time><name>PT3383</name></trkpt>
<trkpt lat="53.227107" lon="-1.854511"><ele>298</ele><time>2019-08-30T10:36:27Z</time><name>PT3384</name></trkpt>
<trkpt lat="53.227103" lon="-1.854498"><ele>298</ele><time>2019-08-30T10:36:27Z</time><name>PT3385</name></trkpt>
<trkpt lat="53.227095" lon="-1.854481"><ele>298</ele><time>2019-08-30T10:36:28Z</time><name>PT3386</name></trkpt>
<trkpt lat="53.227088" lon="-1.854466"><ele>298</ele><time>2019-08-30T10:36:30Z</time><name>PT3387</name></trkpt>
<trkpt lat="53.227081" lon="-1.854448"><ele>298</ele><time>2019-08-30T10:36:30Z</time><name>PT3388</name></trkpt>
<trkpt lat="53.227075" lon="-1.854430"><ele>297</ele><time>2019-08-30T10:36:31Z</time><name>PT3389</name></trkpt>
<trkpt lat="53.227067" lon="-1.854415"><ele>297</ele><time>2019-08-30T10:36:32Z</time><name>PT3390</name></trkpt>
<trkpt lat="53.227061" lon="-1.854397"><ele>298</ele><time>2019-08-30T10:36:33Z</time><name>PT3391</name></trkpt>
<trkpt lat="53.227055" lon="-1.854378"><ele>297</ele><time>2019-08-30T10:36:34Z</time><name>PT3392</name></trkpt>
<trkpt lat="53.227048" lon="-1.854362"><ele>297</ele><time>2019-08-30T10:36:35Z</time><name>PT3393</name></trkpt>
<trkpt lat="53.227043" lon="-1.854341"><ele>297</ele><time>2019-08-30T10:36:36Z</time><name>PT3394</name></trkpt>
<trkpt lat="53.227038" lon="-1.854322"><ele>297</ele><time>2019-08-30T10:36:37Z</time><name>PT3395</name></trkpt>
<trkpt lat="53.227032" lon="-1.854306"><ele>297</ele><time>2019-08-30T10:36:38Z</time><name>PT3396</name></trkpt>
<trkpt lat="53.227029" lon="-1.854295"><ele>298</ele><time>2019-08-30T10:36:39Z</time><name>PT3397</name></trkpt>
<trkpt lat="53.227023" lon="-1.854287"><ele>297</ele><time>2019-08-30T10:36:40Z</time><name>PT3398</name></trkpt>
<trkpt lat="53.227015" lon="-1.854276"><ele>297</ele><time>2019-08-30T10:36:41Z</time><name>PT3399</name></trkpt>
<trkpt lat="53.227008" lon="-1.854260"><ele>297</ele><time>2019-08-30T10:36:42Z</time><name>PT3400</name></trkpt>
<trkpt lat="53.227000" lon="-1.854246"><ele>297</ele><time>2019-08-30T10:36:43Z</time><name>PT3401</name></trkpt>
<trkpt lat="53.226993" lon="-1.854233"><ele>297</ele><time>2019-08-30T10:36:44Z</time><name>PT3402</name></trkpt>
<trkpt lat="53.226983" lon="-1.854219"><ele>297</ele><time>2019-08-30T10:36:45Z</time><name>PT3403</name></trkpt>
<trkpt lat="53.226978" lon="-1.854205"><ele>297</ele><time>2019-08-30T10:36:46Z</time><name>PT3404</name></trkpt>
<trkpt lat="53.226975" lon="-1.854183"><ele>297</ele><time>2019-08-30T10:36:47Z</time><name>PT3405</name></trkpt>
<trkpt lat="53.226970" lon="-1.854167"><ele>298</ele><time>2019-08-30T10:36:48Z</time><name>PT3406</name></trkpt>
<trkpt lat="53.226965" lon="-1.854149"><ele>298</ele><time>2019-08-30T10:36:49Z</time><name>PT3407</name></trkpt>
<trkpt lat="53.226957" lon="-1.854136"><ele>298</ele><time>2019-08-30T10:36:50Z</time><name>PT3408</name></trkpt>
<trkpt lat="53.226950" lon="-1.854119"><ele>299</ele><time>2019-08-30T10:36:51Z</time><name>PT3409</name></trkpt>
<trkpt lat="53.226943" lon="-1.854101"><ele>299</ele><time>2019-08-30T10:36:52Z</time><name>PT3410</name></trkpt>
<trkpt lat="53.226938" lon="-1.854085"><ele>299</ele><time>2019-08-30T10:36:53Z</time><name>PT3411</name></trkpt>
<trkpt lat="53.226933" lon="-1.854067"><ele>298</ele><time>2019-08-30T10:36:54Z</time><name>PT3412</name></trkpt>
<trkpt lat="53.226929" lon="-1.854049"><ele>299</ele><time>2019-08-30T10:36:55Z</time><name>PT3413</name></trkpt>
<trkpt lat="53.226923" lon="-1.854033"><ele>299</ele><time>2019-08-30T10:36:56Z</time><name>PT3414</name></trkpt>
<trkpt lat="53.226917" lon="-1.854020"><ele>299</ele><time>2019-08-30T10:36:57Z</time><name>PT3415</name></trkpt>
<trkpt lat="53.226913" lon="-1.854004"><ele>299</ele><time>2019-08-30T10:36:58Z</time><name>PT3416</name></trkpt>
<trkpt lat="53.226907" lon="-1.853987"><ele>299</ele><time>2019-08-30T10:36:59Z</time><name>PT3417</name></trkpt>
<trkpt lat="53.226901" lon="-1.853975"><ele>299</ele><time>2019-08-30T10:37:00Z</time><name>PT3418</name></trkpt>
<trkpt lat="53.226897" lon="-1.853963"><ele>299</ele><time>2019-08-30T10:37:01Z</time><name>PT3419</name></trkpt>
<trkpt lat="53.226894" lon="-1.853946"><ele>299</ele><time>2019-08-30T10:37:02Z</time><name>PT3420</name></trkpt>
<trkpt lat="53.226890" lon="-1.853919"><ele>300</ele><time>2019-08-30T10:37:03Z</time><name>PT3421</name></trkpt>
<trkpt lat="53.226881" lon="-1.853905"><ele>300</ele><time>2019-08-30T10:37:04Z</time><name>PT3422</name></trkpt>
<trkpt lat="53.226873" lon="-1.853897"><ele>301</ele><time>2019-08-30T10:37:05Z</time><name>PT3423</name></trkpt>
<trkpt lat="53.226865" lon="-1.853880"><ele>301</ele><time>2019-08-30T10:37:06Z</time><name>PT3424</name></trkpt>
<trkpt lat="53.226858" lon="-1.853867"><ele>301</ele><time>2019-08-30T10:37:07Z</time><name>PT3425</name></trkpt>
<trkpt lat="53.226852" lon="-1.853858"><ele>301</ele><time>2019-08-30T10:37:08Z</time><name>PT3426</name></trkpt>
<trkpt lat="53.226846" lon="-1.853850"><ele>302</ele><time>2019-08-30T10:37:09Z</time><name>PT3427</name></trkpt>
<trkpt lat="53.226842" lon="-1.853841"><ele>302</ele><time>2019-08-30T10:37:10Z</time><name>PT3428</name></trkpt>
<trkpt lat="53.226839" lon="-1.853834"><ele>302</ele><time>2019-08-30T10:37:11Z</time><name>PT3429</name></trkpt>
<trkpt lat="53.226834" lon="-1.853825"><ele>302</ele><time>2019-08-30T10:37:12Z</time><name>PT3430</name></trkpt>
<trkpt lat="53.226830" lon="-1.853812"><ele>302</ele><time>2019-08-30T10:37:13Z</time><name>PT3431</name></trkpt>
<trkpt lat="53.226825" lon="-1.853800"><ele>302</ele><time>2019-08-30T10:37:14Z</time><name>PT3432</name></trkpt>
<trkpt lat="53.226822" lon="-1.853791"><ele>302</ele><time>2019-08-30T10:37:15Z</time><name>PT3433</name></trkpt>
<trkpt lat="53.226818" lon="-1.853780"><ele>302</ele><time>2019-08-30T10:37:16Z</time><name>PT3434</name></trkpt>
<trkpt lat="53.226815" lon="-1.853774"><ele>302</ele><time>2019-08-30T10:37:17Z</time><name>PT3435</name></trkpt>
<trkpt lat="53.226811" lon="-1.853771"><ele>302</ele><time>2019-08-30T10:37:18Z</time><name>PT3436</name></trkpt>
<trkpt lat="53.226808" lon="-1.853768"><ele>302</ele><time>2019-08-30T10:37:19Z</time><name>PT3437</name></trkpt>
<trkpt lat="53.226805" lon="-1.853763"><ele>303</ele><time>2019-08-30T10:37:21Z</time><name>PT3438</name></trkpt>
<trkpt lat="53.226802" lon="-1.853754"><ele>303</ele><time>2019-08-30T10:37:21Z</time><name>PT3439</name></trkpt>
<trkpt lat="53.226796" lon="-1.853745"><ele>302</ele><time>2019-08-30T10:37:22Z</time><name>PT3440</name></trkpt>
<trkpt lat="53.226797" lon="-1.853738"><ele>302</ele><time>2019-08-30T10:37:23Z</time><name>PT3441</name></trkpt>
<trkpt lat="53.226794" lon="-1.853728"><ele>302</ele><time>2019-08-30T10:37:24Z</time><name>PT3442</name></trkpt>
<trkpt lat="53.226792" lon="-1.853718"><ele>302</ele><time>2019-08-30T10:37:25Z</time><name>PT3443</name></trkpt>
<trkpt lat="53.226789" lon="-1.853709"><ele>303</ele><time>2019-08-30T10:37:26Z</time><name>PT3444</name></trkpt>
<trkpt lat="53.226789" lon="-1.853699"><ele>302</ele><time>2019-08-30T10:37:27Z</time><name>PT3445</name></trkpt>
<trkpt lat="53.226786" lon="-1.853690"><ele>302</ele><time>2019-08-30T10:37:28Z</time><name>PT3446</name></trkpt>
<trkpt lat="53.226782" lon="-1.853685"><ele>302</ele><time>2019-08-30T10:37:29Z</time><name>PT3447</name></trkpt>
<trkpt lat="53.226775" lon="-1.853684"><ele>302</ele><time>2019-08-30T10:37:35Z</time><name>PT3448</name></trkpt>
<trkpt lat="53.226770" lon="-1.853689"><ele>301</ele><time>2019-08-30T10:37:36Z</time><name>PT3449</name></trkpt>
<trkpt lat="53.226767" lon="-1.853679"><ele>301</ele><time>2019-08-30T10:37:37Z</time><name>PT3450</name></trkpt>
<trkpt lat="53.226763" lon="-1.853674"><ele>301</ele><time>2019-08-30T10:37:38Z</time><name>PT3451</name></trkpt>
<trkpt lat="53.226760" lon="-1.853668"><ele>301</ele><time>2019-08-30T10:37:39Z</time><name>PT3452</name></trkpt>
<trkpt lat="53.226756" lon="-1.853662"><ele>301</ele><time>2019-08-30T10:37:40Z</time><name>PT3453</name></trkpt>
<trkpt lat="53.226755" lon="-1.853657"><ele>301</ele><time>2019-08-30T10:37:41Z</time><name>PT3454</name></trkpt>
<trkpt lat="53.226759" lon="-1.853653"><ele>300</ele><time>2019-08-30T10:37:42Z</time><name>PT3455</name></trkpt>
<trkpt lat="53.226756" lon="-1.853656"><ele>300</ele><time>2019-08-30T10:37:43Z</time><name>PT3456</name></trkpt>
<trkpt lat="53.226753" lon="-1.853651"><ele>301</ele><time>2019-08-30T10:37:44Z</time><name>PT3457</name></trkpt>
<trkpt lat="53.226751" lon="-1.853650"><ele>300</ele><time>2019-08-30T10:37:45Z</time><name>PT3458</name></trkpt>
<trkpt lat="53.226749" lon="-1.853648"><ele>300</ele><time>2019-08-30T10:37:55Z</time><name>PT3459</name></trkpt>
<trkpt lat="53.226746" lon="-1.853645"><ele>300</ele><time>2019-08-30T10:37:56Z</time><name>PT3460</name></trkpt>
<trkpt lat="53.226744" lon="-1.853645"><ele>300</ele><time>2019-08-30T10:37:57Z</time><name>PT3461</name></trkpt>
<trkpt lat="53.226744" lon="-1.853646"><ele>300</ele><time>2019-08-30T10:37:58Z</time><name>PT3462</name></trkpt>
<trkpt lat="53.226743" lon="-1.853648"><ele>300</ele><time>2019-08-30T10:37:59Z</time><name>PT3463</name></trkpt>
<trkpt lat="53.226742" lon="-1.853651"><ele>300</ele><time>2019-08-30T10:38:00Z</time><name>PT3464</name></trkpt>
<trkpt lat="53.226741" lon="-1.853651"><ele>300</ele><time>2019-08-30T10:38:01Z</time><name>PT3465</name></trkpt>
<trkpt lat="53.226731" lon="-1.853646"><ele>301</ele><time>2019-08-30T10:38:08Z</time><name>PT3466</name></trkpt>
<trkpt lat="53.226733" lon="-1.853635"><ele>302</ele><time>2019-08-30T10:38:09Z</time><name>PT3467</name></trkpt>
<trkpt lat="53.226733" lon="-1.853633"><ele>302</ele><time>2019-08-30T10:38:10Z</time><name>PT3468</name></trkpt>
<trkpt lat="53.226732" lon="-1.853634"><ele>302</ele><time>2019-08-30T10:38:11Z</time><name>PT3469</name></trkpt>
<trkpt lat="53.226734" lon="-1.853634"><ele>302</ele><time>2019-08-30T10:38:12Z</time><name>PT3470</name></trkpt>
<trkpt lat="53.226735" lon="-1.853653"><ele>303</ele><time>2019-08-30T10:38:16Z</time><name>PT3471</name></trkpt>
<trkpt lat="53.226737" lon="-1.853654"><ele>302</ele><time>2019-08-30T10:38:17Z</time><name>PT3472</name></trkpt>
<trkpt lat="53.226731" lon="-1.853656"><ele>302</ele><time>2019-08-30T10:39:05Z</time><name>PT3473</name></trkpt>
<trkpt lat="53.226728" lon="-1.853656"><ele>303</ele><time>2019-08-30T10:39:06Z</time><name>PT3474</name></trkpt>
<trkpt lat="53.226724" lon="-1.853656"><ele>303</ele><time>2019-08-30T10:39:07Z</time><name>PT3475</name></trkpt>
<trkpt lat="53.226725" lon="-1.853652"><ele>302</ele><time>2019-08-30T10:39:45Z</time><name>PT3476</name></trkpt>
<trkpt lat="53.226725" lon="-1.853658"><ele>302</ele><time>2019-08-30T10:39:46Z</time><name>PT3477</name></trkpt>
<trkpt lat="53.226723" lon="-1.853659"><ele>302</ele><time>2019-08-30T10:39:47Z</time><name>PT3478</name></trkpt>
<trkpt lat="53.226722" lon="-1.853661"><ele>302</ele><time>2019-08-30T10:39:48Z</time><name>PT3479</name></trkpt>
<trkpt lat="53.226718" lon="-1.853664"><ele>302</ele><time>2019-08-30T10:39:49Z</time><name>PT3480</name></trkpt>
<trkpt lat="53.226725" lon="-1.853679"><ele>304</ele><time>2019-08-30T10:42:09Z</time><name>PT3481</name></trkpt>
<trkpt lat="53.226727" lon="-1.853685"><ele>305</ele><time>2019-08-30T10:42:10Z</time><name>PT3482</name></trkpt>
<trkpt lat="53.226729" lon="-1.853689"><ele>305</ele><time>2019-08-30T10:42:11Z</time><name>PT3483</name></trkpt>
<trkpt lat="53.226729" lon="-1.853690"><ele>305</ele><time>2019-08-30T10:42:12Z</time><name>PT3484</name></trkpt>
<trkpt lat="53.226729" lon="-1.853691"><ele>305</ele><time>2019-08-30T10:42:13Z</time><name>PT3485</name></trkpt>
<trkpt lat="53.226728" lon="-1.853689"><ele>305</ele><time>2019-08-30T10:42:14Z</time><name>PT3486</name></trkpt>
<trkpt lat="53.226734" lon="-1.853703"><ele>306</ele><time>2019-08-30T10:43:15Z</time><name>PT3487</name></trkpt>
<trkpt lat="53.226735" lon="-1.853711"><ele>306</ele><time>2019-08-30T10:43:16Z</time><name>PT3488</name></trkpt>
<trkpt lat="53.226734" lon="-1.853712"><ele>306</ele><time>2019-08-30T10:43:17Z</time><name>PT3489</name></trkpt>
<trkpt lat="53.226732" lon="-1.853711"><ele>307</ele><time>2019-08-30T10:43:18Z</time><name>PT3490</name></trkpt>
<trkpt lat="53.226730" lon="-1.853711"><ele>307</ele><time>2019-08-30T10:43:19Z</time><name>PT3491</name></trkpt>
<trkpt lat="53.226730" lon="-1.853715"><ele>308</ele><time>2019-08-30T10:43:47Z</time><name>PT3492</name></trkpt>
<trkpt lat="53.226730" lon="-1.853716"><ele>308</ele><time>2019-08-30T10:43:48Z</time><name>PT3493</name></trkpt>
<trkpt lat="53.226729" lon="-1.853716"><ele>308</ele><time>2019-08-30T10:43:49Z</time><name>PT3494</name></trkpt>
<trkpt lat="53.226729" lon="-1.853715"><ele>308</ele><time>2019-08-30T10:43:50Z</time><name>PT3495</name></trkpt>
<trkpt lat="53.226728" lon="-1.853715"><ele>308</ele><time>2019-08-30T10:43:51Z</time><name>PT3496</name></trkpt>
<trkpt lat="53.226725" lon="-1.853709"><ele>307</ele><time>2019-08-30T10:44:41Z</time><name>PT3497</name></trkpt>
<trkpt lat="53.226725" lon="-1.853709"><ele>307</ele><time>2019-08-30T10:44:42Z</time><name>PT3498</name></trkpt>
<trkpt lat="53.226722" lon="-1.853708"><ele>306</ele><time>2019-08-30T10:44:43Z</time><name>PT3499</name></trkpt>
<trkpt lat="53.226722" lon="-1.853712"><ele>306</ele><time>2019-08-30T10:45:11Z</time><name>PT3500</name></trkpt>
<trkpt lat="53.226724" lon="-1.853717"><ele>307</ele><time>2019-08-30T10:45:12Z</time><name>PT3501</name></trkpt>
<trkpt lat="53.226726" lon="-1.853716"><ele>307</ele><time>2019-08-30T10:45:13Z</time><name>PT3502</name></trkpt>
<trkpt lat="53.226727" lon="-1.853714"><ele>307</ele><time>2019-08-30T10:45:27Z</time><name>PT3503</name></trkpt>
<trkpt lat="53.226727" lon="-1.853711"><ele>308</ele><time>2019-08-30T10:45:28Z</time><name>PT3504</name></trkpt>
<trkpt lat="53.226728" lon="-1.853707"><ele>308</ele><time>2019-08-30T10:45:29Z</time><name>PT3505</name></trkpt>
<trkpt lat="53.226730" lon="-1.853719"><ele>308</ele><time>2019-08-30T10:45:56Z</time><name>PT3506</name></trkpt>
<trkpt lat="53.226729" lon="-1.853721"><ele>308</ele><time>2019-08-30T10:45:57Z</time><name>PT3507</name></trkpt>
<trkpt lat="53.226721" lon="-1.853717"><ele>307</ele><time>2019-08-30T10:45:58Z</time><name>PT3508</name></trkpt>
<trkpt lat="53.226719" lon="-1.853722"><ele>307</ele><time>2019-08-30T10:45:59Z</time><name>PT3509</name></trkpt>
<trkpt lat="53.226710" lon="-1.853724"><ele>306</ele><time>2019-08-30T10:46:00Z</time><name>PT3510</name></trkpt>
<trkpt lat="53.226706" lon="-1.853728"><ele>305</ele><time>2019-08-30T10:46:01Z</time><name>PT3511</name></trkpt>
<trkpt lat="53.226693" lon="-1.853715"><ele>305</ele><time>2019-08-30T10:46:17Z</time><name>PT3512</name></trkpt>
<trkpt lat="53.226694" lon="-1.853719"><ele>304</ele><time>2019-08-30T10:46:18Z</time><name>PT3513</name></trkpt>
<trkpt lat="53.226693" lon="-1.853725"><ele>304</ele><time>2019-08-30T10:46:19Z</time><name>PT3514</name></trkpt>
<trkpt lat="53.226701" lon="-1.853720"><ele>303</ele><time>2019-08-30T10:46:20Z</time><name>PT3515</name></trkpt>
<trkpt lat="53.226704" lon="-1.853716"><ele>303</ele><time>2019-08-30T10:46:21Z</time><name>PT3516</name></trkpt>
<trkpt lat="53.226705" lon="-1.853710"><ele>303</ele><time>2019-08-30T10:46:22Z</time><name>PT3517</name></trkpt>
<trkpt lat="53.226714" lon="-1.853714"><ele>304</ele><time>2019-08-30T10:46:25Z</time><name>PT3518</name></trkpt>
<trkpt lat="53.226716" lon="-1.853718"><ele>304</ele><time>2019-08-30T10:46:26Z</time><name>PT3519</name></trkpt>
<trkpt lat="53.226719" lon="-1.853700"><ele>305</ele><time>2019-08-30T10:46:27Z</time><name>PT3520</name></trkpt>
<trkpt lat="53.226718" lon="-1.853694"><ele>305</ele><time>2019-08-30T10:46:43Z</time><name>PT3521</name></trkpt>
<trkpt lat="53.226719" lon="-1.853695"><ele>305</ele><time>2019-08-30T10:46:44Z</time><name>PT3522</name></trkpt>
<trkpt lat="53.226719" lon="-1.853696"><ele>305</ele><time>2019-08-30T10:46:45Z</time><name>PT3523</name></trkpt>
<trkpt lat="53.226719" lon="-1.853696"><ele>305</ele><time>2019-08-30T10:47:54Z</time><name>PT3524</name></trkpt>
<trkpt lat="53.226717" lon="-1.853695"><ele>305</ele><time>2019-08-30T10:47:55Z</time><name>PT3525</name></trkpt>
<trkpt lat="53.226719" lon="-1.853690"><ele>305</ele><time>2019-08-30T10:47:56Z</time><name>PT3526</name></trkpt>
<trkpt lat="53.226714" lon="-1.853686"><ele>305</ele><time>2019-08-30T10:47:57Z</time><name>PT3527</name></trkpt>
<trkpt lat="53.226721" lon="-1.853680"><ele>304</ele><time>2019-08-30T10:47:58Z</time><name>PT3528</name></trkpt>
<trkpt lat="53.226722" lon="-1.853671"><ele>304</ele><time>2019-08-30T10:47:59Z</time><name>PT3529</name></trkpt>
<trkpt lat="53.226728" lon="-1.853666"><ele>304</ele><time>2019-08-30T10:48:00Z</time><name>PT3530</name></trkpt>
<trkpt lat="53.226729" lon="-1.853666"><ele>303</ele><time>2019-08-30T10:48:01Z</time><name>PT3531</name></trkpt>
<trkpt lat="53.226738" lon="-1.853651"><ele>303</ele><time>2019-08-30T10:48:30Z</time><name>PT3532</name></trkpt>
<trkpt lat="53.226736" lon="-1.853647"><ele>303</ele><time>2019-08-30T10:48:31Z</time><name>PT3533</name></trkpt>
<trkpt lat="53.226733" lon="-1.853639"><ele>303</ele><time>2019-08-30T10:48:32Z</time><name>PT3534</name></trkpt>
<trkpt lat="53.226730" lon="-1.853647"><ele>303</ele><time>2019-08-30T10:48:51Z</time><name>PT3535</name></trkpt>
<trkpt lat="53.226725" lon="-1.853647"><ele>303</ele><time>2019-08-30T10:48:52Z</time><name>PT3536</name></trkpt>
<trkpt lat="53.226724" lon="-1.853650"><ele>303</ele><time>2019-08-30T10:48:53Z</time><name>PT3537</name></trkpt>
<trkpt lat="53.226723" lon="-1.853655"><ele>303</ele><time>2019-08-30T10:48:54Z</time><name>PT3538</name></trkpt>
<trkpt lat="53.226729" lon="-1.853663"><ele>303</ele><time>2019-08-30T10:48:55Z</time><name>PT3539</name></trkpt>
<trkpt lat="53.226727" lon="-1.853665"><ele>303</ele><time>2019-08-30T10:48:56Z</time><name>PT3540</name></trkpt>
<trkpt lat="53.226724" lon="-1.853668"><ele>303</ele><time>2019-08-30T10:48:57Z</time><name>PT3541</name></trkpt>
<trkpt lat="53.226724" lon="-1.853668"><ele>302</ele><time>2019-08-30T10:48:58Z</time><name>PT3542</name></trkpt>
<trkpt lat="53.226726" lon="-1.853670"><ele>302</ele><time>2019-08-30T10:48:59Z</time><name>PT3543</name></trkpt>
<trkpt lat="53.226728" lon="-1.853669"><ele>302</ele><time>2019-08-30T10:49:09Z</time><name>PT3544</name></trkpt>
<trkpt lat="53.226725" lon="-1.853679"><ele>302</ele><time>2019-08-30T10:49:10Z</time><name>PT3545</name></trkpt>
<trkpt lat="53.226723" lon="-1.853684"><ele>302</ele><time>2019-08-30T10:49:11Z</time><name>PT3546</name></trkpt>
<trkpt lat="53.226723" lon="-1.853681"><ele>302</ele><time>2019-08-30T10:49:12Z</time><name>PT3547</name></trkpt>
<trkpt lat="53.226720" lon="-1.853685"><ele>302</ele><time>2019-08-30T10:49:13Z</time><name>PT3548</name></trkpt>
<trkpt lat="53.226717" lon="-1.853689"><ele>302</ele><time>2019-08-30T10:49:14Z</time><name>PT3549</name></trkpt>
<trkpt lat="53.226708" lon="-1.853694"><ele>302</ele><time>2019-08-30T10:49:15Z</time><name>PT3550</name></trkpt>
<trkpt lat="53.226697" lon="-1.853699"><ele>302</ele><time>2019-08-30T10:49:16Z</time><name>PT3551</name></trkpt>
<trkpt lat="53.226687" lon="-1.853701"><ele>302</ele><time>2019-08-30T10:49:17Z</time><name>PT3552</name></trkpt>
<trkpt lat="53.226682" lon="-1.853707"><ele>302</ele><time>2019-08-30T10:49:18Z</time><name>PT3553</name></trkpt>
<trkpt lat="53.226675" lon="-1.853712"><ele>302</ele><time>2019-08-30T10:49:19Z</time><name>PT3554</name></trkpt>
<trkpt lat="53.226663" lon="-1.853709"><ele>302</ele><time>2019-08-30T10:49:20Z</time><name>PT3555</name></trkpt>
<trkpt lat="53.226653" lon="-1.853709"><ele>302</ele><time>2019-08-30T10:49:21Z</time><name>PT3556</name></trkpt>
<trkpt lat="53.226642" lon="-1.853707"><ele>302</ele><time>2019-08-30T10:49:22Z</time><name>PT3557</name></trkpt>
<trkpt lat="53.226632" lon="-1.853705"><ele>302</ele><time>2019-08-30T10:49:23Z</time><name>PT3558</name></trkpt>
<trkpt lat="53.226624" lon="-1.853706"><ele>302</ele><time>2019-08-30T10:49:24Z</time><name>PT3559</name></trkpt>
<trkpt lat="53.226615" lon="-1.853706"><ele>302</ele><time>2019-08-30T10:49:25Z</time><name>PT3560</name></trkpt>
<trkpt lat="53.226603" lon="-1.853704"><ele>302</ele><time>2019-08-30T10:49:26Z</time><name>PT3561</name></trkpt>
<trkpt lat="53.226596" lon="-1.853702"><ele>302</ele><time>2019-08-30T10:49:27Z</time><name>PT3562</name></trkpt>
<trkpt lat="53.226586" lon="-1.853701"><ele>302</ele><time>2019-08-30T10:49:28Z</time><name>PT3563</name></trkpt>
<trkpt lat="53.226577" lon="-1.853697"><ele>302</ele><time>2019-08-30T10:49:29Z</time><name>PT3564</name></trkpt>
<trkpt lat="53.226567" lon="-1.853695"><ele>302</ele><time>2019-08-30T10:49:30Z</time><name>PT3565</name></trkpt>
<trkpt lat="53.226557" lon="-1.853695"><ele>303</ele><time>2019-08-30T10:49:31Z</time><name>PT3566</name></trkpt>
<trkpt lat="53.226549" lon="-1.853696"><ele>302</ele><time>2019-08-30T10:49:32Z</time><name>PT3567</name></trkpt>
<trkpt lat="53.226540" lon="-1.853693"><ele>302</ele><time>2019-08-30T10:49:33Z</time><name>PT3568</name></trkpt>
<trkpt lat="53.226530" lon="-1.853692"><ele>302</ele><time>2019-08-30T10:49:34Z</time><name>PT3569</name></trkpt>
<trkpt lat="53.226519" lon="-1.853691"><ele>302</ele><time>2019-08-30T10:49:35Z</time><name>PT3570</name></trkpt>
<trkpt lat="53.226509" lon="-1.853692"><ele>301</ele><time>2019-08-30T10:49:36Z</time><name>PT3571</name></trkpt>
<trkpt lat="53.226499" lon="-1.853695"><ele>301</ele><time>2019-08-30T10:49:37Z</time><name>PT3572</name></trkpt>
<trkpt lat="53.226490" lon="-1.853694"><ele>301</ele><time>2019-08-30T10:49:38Z</time><name>PT3573</name></trkpt>
<trkpt lat="53.226481" lon="-1.853695"><ele>301</ele><time>2019-08-30T10:49:39Z</time><name>PT3574</name></trkpt>
<trkpt lat="53.226474" lon="-1.853694"><ele>301</ele><time>2019-08-30T10:49:40Z</time><name>PT3575</name></trkpt>
<trkpt lat="53.226464" lon="-1.853690"><ele>301</ele><time>2019-08-30T10:49:42Z</time><name>PT3576</name></trkpt>
<trkpt lat="53.226454" lon="-1.853687"><ele>301</ele><time>2019-08-30T10:49:42Z</time><name>PT3577</name></trkpt>
<trkpt lat="53.226447" lon="-1.853685"><ele>301</ele><time>2019-08-30T10:49:43Z</time><name>PT3578</name></trkpt>
<trkpt lat="53.226438" lon="-1.853681"><ele>300</ele><time>2019-08-30T10:49:44Z</time><name>PT3579</name></trkpt>
<trkpt lat="53.226429" lon="-1.853671"><ele>300</ele><time>2019-08-30T10:49:45Z</time><name>PT3580</name></trkpt>
<trkpt lat="53.226420" lon="-1.853665"><ele>301</ele><time>2019-08-30T10:49:46Z</time><name>PT3581</name></trkpt>
<trkpt lat="53.226411" lon="-1.853661"><ele>301</ele><time>2019-08-30T10:49:47Z</time><name>PT3582</name></trkpt>
<trkpt lat="53.226401" lon="-1.853655"><ele>301</ele><time>2019-08-30T10:49:48Z</time><name>PT3583</name></trkpt>
<trkpt lat="53.226389" lon="-1.853652"><ele>302</ele><time>2019-08-30T10:49:49Z</time><name>PT3584</name></trkpt>
<trkpt lat="53.226377" lon="-1.853648"><ele>303</ele><time>2019-08-30T10:49:50Z</time><name>PT3585</name></trkpt>
<trkpt lat="53.226367" lon="-1.853646"><ele>303</ele><time>2019-08-30T10:49:51Z</time><name>PT3586</name></trkpt>
<trkpt lat="53.226356" lon="-1.853635"><ele>303</ele><time>2019-08-30T10:49:52Z</time><name>PT3587</name></trkpt>
<trkpt lat="53.226348" lon="-1.853631"><ele>302</ele><time>2019-08-30T10:49:53Z</time><name>PT3588</name></trkpt>
<trkpt lat="53.226337" lon="-1.853624"><ele>301</ele><time>2019-08-30T10:49:54Z</time><name>PT3589</name></trkpt>
<trkpt lat="53.226328" lon="-1.853624"><ele>302</ele><time>2019-08-30T10:49:55Z</time><name>PT3590</name></trkpt>
<trkpt lat="53.226318" lon="-1.853619"><ele>302</ele><time>2019-08-30T10:49:56Z</time><name>PT3591</name></trkpt>
<trkpt lat="53.226308" lon="-1.853611"><ele>303</ele><time>2019-08-30T10:49:57Z</time><name>PT3592</name></trkpt>
<trkpt lat="53.226299" lon="-1.853605"><ele>303</ele><time>2019-08-30T10:49:58Z</time><name>PT3593</name></trkpt>
<trkpt lat="53.226290" lon="-1.853602"><ele>303</ele><time>2019-08-30T10:49:59Z</time><name>PT3594</name></trkpt>
<trkpt lat="53.226280" lon="-1.853596"><ele>303</ele><time>2019-08-30T10:50:00Z</time><name>PT3595</name></trkpt>
<trkpt lat="53.226268" lon="-1.853589"><ele>303</ele><time>2019-08-30T10:50:01Z</time><name>PT3596</name></trkpt>
<trkpt lat="53.226259" lon="-1.853585"><ele>303</ele><time>2019-08-30T10:50:02Z</time><name>PT3597</name></trkpt>
<trkpt lat="53.226250" lon="-1.853583"><ele>303</ele><time>2019-08-30T10:50:03Z</time><name>PT3598</name></trkpt>
<trkpt lat="53.226240" lon="-1.853577"><ele>303</ele><time>2019-08-30T10:50:04Z</time><name>PT3599</name></trkpt>
<trkpt lat="53.226233" lon="-1.853571"><ele>303</ele><time>2019-08-30T10:50:05Z</time><name>PT3600</name></trkpt>
<trkpt lat="53.226222" lon="-1.853565"><ele>302</ele><time>2019-08-30T10:50:06Z</time><name>PT3601</name></trkpt>
<trkpt lat="53.226214" lon="-1.853558"><ele>302</ele><time>2019-08-30T10:50:07Z</time><name>PT3602</name></trkpt>
<trkpt lat="53.226205" lon="-1.853556"><ele>303</ele><time>2019-08-30T10:50:08Z</time><name>PT3603</name></trkpt>
<trkpt lat="53.226196" lon="-1.853554"><ele>304</ele><time>2019-08-30T10:50:09Z</time><name>PT3604</name></trkpt>
<trkpt lat="53.226188" lon="-1.853552"><ele>305</ele><time>2019-08-30T10:50:10Z</time><name>PT3605</name></trkpt>
<trkpt lat="53.226180" lon="-1.853550"><ele>305</ele><time>2019-08-30T10:50:11Z</time><name>PT3606</name></trkpt>
<trkpt lat="53.226170" lon="-1.853549"><ele>306</ele><time>2019-08-30T10:50:12Z</time><name>PT3607</name></trkpt>
<trkpt lat="53.226164" lon="-1.853546"><ele>307</ele><time>2019-08-30T10:50:13Z</time><name>PT3608</name></trkpt>
<trkpt lat="53.226156" lon="-1.853537"><ele>307</ele><time>2019-08-30T10:50:14Z</time><name>PT3609</name></trkpt>
<trkpt lat="53.226147" lon="-1.853531"><ele>307</ele><time>2019-08-30T10:50:15Z</time><name>PT3610</name></trkpt>
<trkpt lat="53.226136" lon="-1.853526"><ele>308</ele><time>2019-08-30T10:50:16Z</time><name>PT3611</name></trkpt>
<trkpt lat="53.226127" lon="-1.853520"><ele>308</ele><time>2019-08-30T10:50:17Z</time><name>PT3612</name></trkpt>
<trkpt lat="53.226119" lon="-1.853515"><ele>308</ele><time>2019-08-30T10:50:18Z</time><name>PT3613</name></trkpt>
<trkpt lat="53.226112" lon="-1.853513"><ele>308</ele><time>2019-08-30T10:50:19Z</time><name>PT3614</name></trkpt>
<trkpt lat="53.226104" lon="-1.853509"><ele>309</ele><time>2019-08-30T10:50:20Z</time><name>PT3615</name></trkpt>
<trkpt lat="53.226095" lon="-1.853505"><ele>308</ele><time>2019-08-30T10:50:21Z</time><name>PT3616</name></trkpt>
<trkpt lat="53.226082" lon="-1.853501"><ele>309</ele><time>2019-08-30T10:50:22Z</time><name>PT3617</name></trkpt>
<trkpt lat="53.226072" lon="-1.853499"><ele>310</ele><time>2019-08-30T10:50:23Z</time><name>PT3618</name></trkpt>
<trkpt lat="53.226062" lon="-1.853490"><ele>310</ele><time>2019-08-30T10:50:24Z</time><name>PT3619</name></trkpt>
<trkpt lat="53.226053" lon="-1.853478"><ele>310</ele><time>2019-08-30T10:50:25Z</time><name>PT3620</name></trkpt>
<trkpt lat="53.226043" lon="-1.853474"><ele>310</ele><time>2019-08-30T10:50:26Z</time><name>PT3621</name></trkpt>
<trkpt lat="53.226032" lon="-1.853467"><ele>311</ele><time>2019-08-30T10:50:27Z</time><name>PT3622</name></trkpt>
<trkpt lat="53.226023" lon="-1.853463"><ele>312</ele><time>2019-08-30T10:50:28Z</time><name>PT3623</name></trkpt>
<trkpt lat="53.226013" lon="-1.853454"><ele>312</ele><time>2019-08-30T10:50:29Z</time><name>PT3624</name></trkpt>
<trkpt lat="53.226001" lon="-1.853448"><ele>312</ele><time>2019-08-30T10:50:30Z</time><name>PT3625</name></trkpt>
<trkpt lat="53.225992" lon="-1.853443"><ele>313</ele><time>2019-08-30T10:50:31Z</time><name>PT3626</name></trkpt>
<trkpt lat="53.225983" lon="-1.853439"><ele>313</ele><time>2019-08-30T10:50:32Z</time><name>PT3627</name></trkpt>
<trkpt lat="53.225975" lon="-1.853433"><ele>313</ele><time>2019-08-30T10:50:33Z</time><name>PT3628</name></trkpt>
<trkpt lat="53.225973" lon="-1.853424"><ele>312</ele><time>2019-08-30T10:50:34Z</time><name>PT3629</name></trkpt>
<trkpt lat="53.225968" lon="-1.853416"><ele>311</ele><time>2019-08-30T10:50:35Z</time><name>PT3630</name></trkpt>
<trkpt lat="53.225961" lon="-1.853409"><ele>311</ele><time>2019-08-30T10:50:36Z</time><name>PT3631</name></trkpt>
<trkpt lat="53.225954" lon="-1.853408"><ele>310</ele><time>2019-08-30T10:50:37Z</time><name>PT3632</name></trkpt>
<trkpt lat="53.225944" lon="-1.853403"><ele>311</ele><time>2019-08-30T10:50:38Z</time><name>PT3633</name></trkpt>
<trkpt lat="53.225944" lon="-1.853391"><ele>311</ele><time>2019-08-30T10:50:39Z</time><name>PT3634</name></trkpt>
<trkpt lat="53.225944" lon="-1.853389"><ele>310</ele><time>2019-08-30T10:50:40Z</time><name>PT3635</name></trkpt>
<trkpt lat="53.225946" lon="-1.853393"><ele>311</ele><time>2019-08-30T10:50:41Z</time><name>PT3636</name></trkpt>
<trkpt lat="53.225945" lon="-1.853388"><ele>311</ele><time>2019-08-30T10:50:42Z</time><name>PT3637</name></trkpt>
<trkpt lat="53.225942" lon="-1.853393"><ele>311</ele><time>2019-08-30T10:50:47Z</time><name>PT3638</name></trkpt>
<trkpt lat="53.225931" lon="-1.853389"><ele>311</ele><time>2019-08-30T10:50:48Z</time><name>PT3639</name></trkpt>
<trkpt lat="53.225921" lon="-1.853384"><ele>311</ele><time>2019-08-30T10:50:49Z</time><name>PT3640</name></trkpt>
<trkpt lat="53.225910" lon="-1.853381"><ele>311</ele><time>2019-08-30T10:50:50Z</time><name>PT3641</name></trkpt>
<trkpt lat="53.225894" lon="-1.853377"><ele>311</ele><time>2019-08-30T10:50:51Z</time><name>PT3642</name></trkpt>
<trkpt lat="53.225879" lon="-1.853370"><ele>312</ele><time>2019-08-30T10:50:52Z</time><name>PT3643</name></trkpt>
<trkpt lat="53.225866" lon="-1.853359"><ele>312</ele><time>2019-08-30T10:50:53Z</time><name>PT3644</name></trkpt>
<trkpt lat="53.225855" lon="-1.853348"><ele>313</ele><time>2019-08-30T10:50:54Z</time><name>PT3645</name></trkpt>
<trkpt lat="53.225842" lon="-1.853342"><ele>313</ele><time>2019-08-30T10:50:55Z</time><name>PT3646</name></trkpt>
<trkpt lat="53.225828" lon="-1.853338"><ele>313</ele><time>2019-08-30T10:50:56Z</time><name>PT3647</name></trkpt>
<trkpt lat="53.225814" lon="-1.853335"><ele>313</ele><time>2019-08-30T10:50:57Z</time><name>PT3648</name></trkpt>
<trkpt lat="53.225801" lon="-1.853330"><ele>314</ele><time>2019-08-30T10:50:58Z</time><name>PT3649</name></trkpt>
<trkpt lat="53.225791" lon="-1.853323"><ele>313</ele><time>2019-08-30T10:50:59Z</time><name>PT3650</name></trkpt>
<trkpt lat="53.225776" lon="-1.853318"><ele>314</ele><time>2019-08-30T10:51:00Z</time><name>PT3651</name></trkpt>
<trkpt lat="53.225765" lon="-1.853307"><ele>314</ele><time>2019-08-30T10:51:01Z</time><name>PT3652</name></trkpt>
<trkpt lat="53.225756" lon="-1.853300"><ele>314</ele><time>2019-08-30T10:51:02Z</time><name>PT3653</name></trkpt>
<trkpt lat="53.225749" lon="-1.853290"><ele>315</ele><time>2019-08-30T10:51:03Z</time><name>PT3654</name></trkpt>
<trkpt lat="53.225742" lon="-1.853281"><ele>315</ele><time>2019-08-30T10:51:04Z</time><name>PT3655</name></trkpt>
<trkpt lat="53.225735" lon="-1.853273"><ele>314</ele><time>2019-08-30T10:51:05Z</time><name>PT3656</name></trkpt>
<trkpt lat="53.225725" lon="-1.853268"><ele>314</ele><time>2019-08-30T10:51:06Z</time><name>PT3657</name></trkpt>
<trkpt lat="53.225716" lon="-1.853262"><ele>315</ele><time>2019-08-30T10:51:07Z</time><name>PT3658</name></trkpt>
<trkpt lat="53.225706" lon="-1.853253"><ele>314</ele><time>2019-08-30T10:51:08Z</time><name>PT3659</name></trkpt>
<trkpt lat="53.225699" lon="-1.853247"><ele>314</ele><time>2019-08-30T10:51:09Z</time><name>PT3660</name></trkpt>
<trkpt lat="53.225695" lon="-1.853246"><ele>314</ele><time>2019-08-30T10:51:10Z</time><name>PT3661</name></trkpt>
<trkpt lat="53.225686" lon="-1.853236"><ele>314</ele><time>2019-08-30T10:51:11Z</time><name>PT3662</name></trkpt>
<trkpt lat="53.225677" lon="-1.853226"><ele>314</ele><time>2019-08-30T10:51:12Z</time><name>PT3663</name></trkpt>
<trkpt lat="53.225667" lon="-1.853215"><ele>314</ele><time>2019-08-30T10:51:13Z</time><name>PT3664</name></trkpt>
<trkpt lat="53.225659" lon="-1.853210"><ele>314</ele><time>2019-08-30T10:51:14Z</time><name>PT3665</name></trkpt>
<trkpt lat="53.225649" lon="-1.853203"><ele>314</ele><time>2019-08-30T10:51:15Z</time><name>PT3666</name></trkpt>
<trkpt lat="53.225637" lon="-1.853194"><ele>314</ele><time>2019-08-30T10:51:16Z</time><name>PT3667</name></trkpt>
<trkpt lat="53.225629" lon="-1.853191"><ele>314</ele><time>2019-08-30T10:51:17Z</time><name>PT3668</name></trkpt>
<trkpt lat="53.225625" lon="-1.853188"><ele>314</ele><time>2019-08-30T10:51:18Z</time><name>PT3669</name></trkpt>
<trkpt lat="53.225619" lon="-1.853185"><ele>314</ele><time>2019-08-30T10:51:19Z</time><name>PT3670</name></trkpt>
<trkpt lat="53.225613" lon="-1.853186"><ele>313</ele><time>2019-08-30T10:51:20Z</time><name>PT3671</name></trkpt>
<trkpt lat="53.225608" lon="-1.853186"><ele>313</ele><time>2019-08-30T10:51:21Z</time><name>PT3672</name></trkpt>
<trkpt lat="53.225602" lon="-1.853186"><ele>313</ele><time>2019-08-30T10:51:22Z</time><name>PT3673</name></trkpt>
<trkpt lat="53.225598" lon="-1.853184"><ele>312</ele><time>2019-08-30T10:51:23Z</time><name>PT3674</name></trkpt>
<trkpt lat="53.225593" lon="-1.853176"><ele>313</ele><time>2019-08-30T10:51:24Z</time><name>PT3675</name></trkpt>
<trkpt lat="53.225591" lon="-1.853170"><ele>313</ele><time>2019-08-30T10:51:25Z</time><name>PT3676</name></trkpt>
<trkpt lat="53.225591" lon="-1.853168"><ele>313</ele><time>2019-08-30T10:51:26Z</time><name>PT3677</name></trkpt>
<trkpt lat="53.225589" lon="-1.853164"><ele>313</ele><time>2019-08-30T10:51:27Z</time><name>PT3678</name></trkpt>
<trkpt lat="53.225578" lon="-1.853172"><ele>313</ele><time>2019-08-30T10:51:30Z</time><name>PT3679</name></trkpt>
<trkpt lat="53.225572" lon="-1.853170"><ele>312</ele><time>2019-08-30T10:51:31Z</time><name>PT3680</name></trkpt>
<trkpt lat="53.225567" lon="-1.853170"><ele>312</ele><time>2019-08-30T10:51:32Z</time><name>PT3681</name></trkpt>
<trkpt lat="53.225567" lon="-1.853173"><ele>312</ele><time>2019-08-30T10:51:33Z</time><name>PT3682</name></trkpt>
<trkpt lat="53.225566" lon="-1.853176"><ele>312</ele><time>2019-08-30T10:51:34Z</time><name>PT3683</name></trkpt>
<trkpt lat="53.225565" lon="-1.853177"><ele>311</ele><time>2019-08-30T10:51:35Z</time><name>PT3684</name></trkpt>
<trkpt lat="53.225559" lon="-1.853175"><ele>311</ele><time>2019-08-30T10:51:48Z</time><name>PT3685</name></trkpt>
<trkpt lat="53.225556" lon="-1.853178"><ele>310</ele><time>2019-08-30T10:51:49Z</time><name>PT3686</name></trkpt>
<trkpt lat="53.225549" lon="-1.853180"><ele>310</ele><time>2019-08-30T10:51:50Z</time><name>PT3687</name></trkpt>
<trkpt lat="53.225535" lon="-1.853181"><ele>310</ele><time>2019-08-30T10:51:51Z</time><name>PT3688</name></trkpt>
<trkpt lat="53.225525" lon="-1.853183"><ele>310</ele><time>2019-08-30T10:51:52Z</time><name>PT3689</name></trkpt>
<trkpt lat="53.225515" lon="-1.853186"><ele>310</ele><time>2019-08-30T10:51:53Z</time><name>PT3690</name></trkpt>
<trkpt lat="53.225505" lon="-1.853190"><ele>310</ele><time>2019-08-30T10:51:54Z</time><name>PT3691</name></trkpt>
<trkpt lat="53.225494" lon="-1.853188"><ele>310</ele><time>2019-08-30T10:51:55Z</time><name>PT3692</name></trkpt>
<trkpt lat="53.225487" lon="-1.853192"><ele>309</ele><time>2019-08-30T10:51:56Z</time><name>PT3693</name></trkpt>
<trkpt lat="53.225478" lon="-1.853187"><ele>309</ele><time>2019-08-30T10:51:57Z</time><name>PT3694</name></trkpt>
<trkpt lat="53.225471" lon="-1.853192"><ele>309</ele><time>2019-08-30T10:51:58Z</time><name>PT3695</name></trkpt>
<trkpt lat="53.225466" lon="-1.853195"><ele>308</ele><time>2019-08-30T10:51:59Z</time><name>PT3696</name></trkpt>
<trkpt lat="53.225458" lon="-1.853198"><ele>308</ele><time>2019-08-30T10:52:00Z</time><name>PT3697</name></trkpt>
<trkpt lat="53.225446" lon="-1.853206"><ele>308</ele><time>2019-08-30T10:52:01Z</time><name>PT3698</name></trkpt>
<trkpt lat="53.225436" lon="-1.853200"><ele>308</ele><time>2019-08-30T10:52:02Z</time><name>PT3699</name></trkpt>
<trkpt lat="53.225432" lon="-1.853198"><ele>308</ele><time>2019-08-30T10:52:03Z</time><name>PT3700</name></trkpt>
<trkpt lat="53.225431" lon="-1.853197"><ele>309</ele><time>2019-08-30T10:52:04Z</time><name>PT3701</name></trkpt>
<trkpt lat="53.225429" lon="-1.853198"><ele>309</ele><time>2019-08-30T10:52:05Z</time><name>PT3702</name></trkpt>
<trkpt lat="53.225426" lon="-1.853199"><ele>309</ele><time>2019-08-30T10:52:06Z</time><name>PT3703</name></trkpt>
<trkpt lat="53.225421" lon="-1.853201"><ele>309</ele><time>2019-08-30T10:52:08Z</time><name>PT3704</name></trkpt>
<trkpt lat="53.225408" lon="-1.853201"><ele>308</ele><time>2019-08-30T10:52:09Z</time><name>PT3705</name></trkpt>
<trkpt lat="53.225399" lon="-1.853203"><ele>307</ele><time>2019-08-30T10:52:10Z</time><name>PT3706</name></trkpt>
<trkpt lat="53.225385" lon="-1.853197"><ele>307</ele><time>2019-08-30T10:52:11Z</time><name>PT3707</name></trkpt>
<trkpt lat="53.225370" lon="-1.853194"><ele>307</ele><time>2019-08-30T10:52:12Z</time><name>PT3708</name></trkpt>
<trkpt lat="53.225359" lon="-1.853194"><ele>307</ele><time>2019-08-30T10:52:13Z</time><name>PT3709</name></trkpt>
<trkpt lat="53.225347" lon="-1.853198"><ele>307</ele><time>2019-08-30T10:52:14Z</time><name>PT3710</name></trkpt>
<trkpt lat="53.225336" lon="-1.853201"><ele>307</ele><time>2019-08-30T10:52:15Z</time><name>PT3711</name></trkpt>
<trkpt lat="53.225329" lon="-1.853202"><ele>308</ele><time>2019-08-30T10:52:16Z</time><name>PT3712</name></trkpt>
<trkpt lat="53.225320" lon="-1.853205"><ele>307</ele><time>2019-08-30T10:52:17Z</time><name>PT3713</name></trkpt>
<trkpt lat="53.225310" lon="-1.853205"><ele>307</ele><time>2019-08-30T10:52:18Z</time><name>PT3714</name></trkpt>
<trkpt lat="53.225302" lon="-1.853204"><ele>307</ele><time>2019-08-30T10:52:19Z</time><name>PT3715</name></trkpt>
<trkpt lat="53.225301" lon="-1.853207"><ele>306</ele><time>2019-08-30T10:52:20Z</time><name>PT3716</name></trkpt>
<trkpt lat="53.225290" lon="-1.853209"><ele>307</ele><time>2019-08-30T10:52:21Z</time><name>PT3717</name></trkpt>
<trkpt lat="53.225280" lon="-1.853210"><ele>308</ele><time>2019-08-30T10:52:22Z</time><name>PT3718</name></trkpt>
<trkpt lat="53.225271" lon="-1.853206"><ele>308</ele><time>2019-08-30T10:52:23Z</time><name>PT3719</name></trkpt>
<trkpt lat="53.225266" lon="-1.853201"><ele>307</ele><time>2019-08-30T10:52:24Z</time><name>PT3720</name></trkpt>
<trkpt lat="53.225260" lon="-1.853197"><ele>307</ele><time>2019-08-30T10:52:25Z</time><name>PT3721</name></trkpt>
<trkpt lat="53.225248" lon="-1.853191"><ele>307</ele><time>2019-08-30T10:52:26Z</time><name>PT3722</name></trkpt>
<trkpt lat="53.225240" lon="-1.853185"><ele>307</ele><time>2019-08-30T10:52:27Z</time><name>PT3723</name></trkpt>
<trkpt lat="53.225231" lon="-1.853185"><ele>307</ele><time>2019-08-30T10:52:28Z</time><name>PT3724</name></trkpt>
<trkpt lat="53.225221" lon="-1.853183"><ele>308</ele><time>2019-08-30T10:52:29Z</time><name>PT3725</name></trkpt>
<trkpt lat="53.225211" lon="-1.853186"><ele>308</ele><time>2019-08-30T10:52:30Z</time><name>PT3726</name></trkpt>
<trkpt lat="53.225200" lon="-1.853188"><ele>308</ele><time>2019-08-30T10:52:31Z</time><name>PT3727</name></trkpt>
<trkpt lat="53.225196" lon="-1.853185"><ele>308</ele><time>2019-08-30T10:52:32Z</time><name>PT3728</name></trkpt>
<trkpt lat="53.225190" lon="-1.853182"><ele>309</ele><time>2019-08-30T10:52:33Z</time><name>PT3729</name></trkpt>
<trkpt lat="53.225184" lon="-1.853177"><ele>309</ele><time>2019-08-30T10:52:34Z</time><name>PT3730</name></trkpt>
<trkpt lat="53.225170" lon="-1.853180"><ele>311</ele><time>2019-08-30T10:52:35Z</time><name>PT3731</name></trkpt>
<trkpt lat="53.225164" lon="-1.853175"><ele>312</ele><time>2019-08-30T10:52:36Z</time><name>PT3732</name></trkpt>
<trkpt lat="53.225162" lon="-1.853173"><ele>312</ele><time>2019-08-30T10:52:37Z</time><name>PT3733</name></trkpt>
<trkpt lat="53.225158" lon="-1.853166"><ele>312</ele><time>2019-08-30T10:52:38Z</time><name>PT3734</name></trkpt>
<trkpt lat="53.225153" lon="-1.853158"><ele>314</ele><time>2019-08-30T10:52:39Z</time><name>PT3735</name></trkpt>
<trkpt lat="53.225153" lon="-1.853149"><ele>314</ele><time>2019-08-30T10:52:40Z</time><name>PT3736</name></trkpt>
<trkpt lat="53.225154" lon="-1.853143"><ele>314</ele><time>2019-08-30T10:52:41Z</time><name>PT3737</name></trkpt>
<trkpt lat="53.225155" lon="-1.853133"><ele>314</ele><time>2019-08-30T10:52:42Z</time><name>PT3738</name></trkpt>
<trkpt lat="53.225155" lon="-1.853122"><ele>314</ele><time>2019-08-30T10:52:43Z</time><name>PT3739</name></trkpt>
<trkpt lat="53.225156" lon="-1.853107"><ele>314</ele><time>2019-08-30T10:52:44Z</time><name>PT3740</name></trkpt>
<trkpt lat="53.225159" lon="-1.853096"><ele>314</ele><time>2019-08-30T10:52:45Z</time><name>PT3741</name></trkpt>
<trkpt lat="53.225161" lon="-1.853084"><ele>314</ele><time>2019-08-30T10:52:46Z</time><name>PT3742</name></trkpt>
<trkpt lat="53.225164" lon="-1.853074"><ele>314</ele><time>2019-08-30T10:52:47Z</time><name>PT3743</name></trkpt>
<trkpt lat="53.225168" lon="-1.853062"><ele>314</ele><time>2019-08-30T10:52:48Z</time><name>PT3744</name></trkpt>
<trkpt lat="53.225168" lon="-1.853056"><ele>315</ele><time>2019-08-30T10:52:49Z</time><name>PT3745</name></trkpt>
<trkpt lat="53.225172" lon="-1.853042"><ele>315</ele><time>2019-08-30T10:52:50Z</time><name>PT3746</name></trkpt>
<trkpt lat="53.225177" lon="-1.853027"><ele>315</ele><time>2019-08-30T10:52:51Z</time><name>PT3747</name></trkpt>
<trkpt lat="53.225178" lon="-1.853014"><ele>315</ele><time>2019-08-30T10:52:52Z</time><name>PT3748</name></trkpt>
<trkpt lat="53.225182" lon="-1.853000"><ele>315</ele><time>2019-08-30T10:52:53Z</time><name>PT3749</name></trkpt>
<trkpt lat="53.225185" lon="-1.852986"><ele>315</ele><time>2019-08-30T10:52:54Z</time><name>PT3750</name></trkpt>
<trkpt lat="53.225189" lon="-1.852971"><ele>315</ele><time>2019-08-30T10:52:55Z</time><name>PT3751</name></trkpt>
<trkpt lat="53.225190" lon="-1.852959"><ele>315</ele><time>2019-08-30T10:52:56Z</time><name>PT3752</name></trkpt>
<trkpt lat="53.225193" lon="-1.852941"><ele>316</ele><time>2019-08-30T10:52:57Z</time><name>PT3753</name></trkpt>
<trkpt lat="53.225195" lon="-1.852928"><ele>316</ele><time>2019-08-30T10:52:58Z</time><name>PT3754</name></trkpt>
<trkpt lat="53.225196" lon="-1.852913"><ele>316</ele><time>2019-08-30T10:52:59Z</time><name>PT3755</name></trkpt>
<trkpt lat="53.225196" lon="-1.852897"><ele>316</ele><time>2019-08-30T10:53:00Z</time><name>PT3756</name></trkpt>
<trkpt lat="53.225200" lon="-1.852879"><ele>316</ele><time>2019-08-30T10:53:01Z</time><name>PT3757</name></trkpt>
<trkpt lat="53.225205" lon="-1.852859"><ele>318</ele><time>2019-08-30T10:53:02Z</time><name>PT3758</name></trkpt>
<trkpt lat="53.225208" lon="-1.852841"><ele>318</ele><time>2019-08-30T10:53:03Z</time><name>PT3759</name></trkpt>
<trkpt lat="53.225209" lon="-1.852824"><ele>318</ele><time>2019-08-30T10:53:04Z</time><name>PT3760</name></trkpt>
<trkpt lat="53.225212" lon="-1.852812"><ele>319</ele><time>2019-08-30T10:53:05Z</time><name>PT3761</name></trkpt>
<trkpt lat="53.225216" lon="-1.852805"><ele>319</ele><time>2019-08-30T10:53:06Z</time><name>PT3762</name></trkpt>
<trkpt lat="53.225217" lon="-1.852793"><ele>319</ele><time>2019-08-30T10:53:07Z</time><name>PT3763</name></trkpt>
<trkpt lat="53.225215" lon="-1.852768"><ele>319</ele><time>2019-08-30T10:53:08Z</time><name>PT3764</name></trkpt>
<trkpt lat="53.225214" lon="-1.852745"><ele>319</ele><time>2019-08-30T10:53:09Z</time><name>PT3765</name></trkpt>
<trkpt lat="53.225213" lon="-1.852721"><ele>320</ele><time>2019-08-30T10:53:10Z</time><name>PT3766</name></trkpt>
<trkpt lat="53.225212" lon="-1.852697"><ele>320</ele><time>2019-08-30T10:53:11Z</time><name>PT3767</name></trkpt>
<trkpt lat="53.225215" lon="-1.852680"><ele>320</ele><time>2019-08-30T10:53:12Z</time><name>PT3768</name></trkpt>
<trkpt lat="53.225221" lon="-1.852669"><ele>320</ele><time>2019-08-30T10:53:13Z</time><name>PT3769</name></trkpt>
<trkpt lat="53.225221" lon="-1.852658"><ele>319</ele><time>2019-08-30T10:53:14Z</time><name>PT3770</name></trkpt>
<trkpt lat="53.225226" lon="-1.852647"><ele>319</ele><time>2019-08-30T10:53:16Z</time><name>PT3771</name></trkpt>
<trkpt lat="53.225232" lon="-1.852635"><ele>319</ele><time>2019-08-30T10:53:16Z</time><name>PT3772</name></trkpt>
<trkpt lat="53.225238" lon="-1.852621"><ele>319</ele><time>2019-08-30T10:53:17Z</time><name>PT3773</name></trkpt>
<trkpt lat="53.225246" lon="-1.852605"><ele>319</ele><time>2019-08-30T10:53:18Z</time><name>PT3774</name></trkpt>
<trkpt lat="53.225253" lon="-1.852585"><ele>319</ele><time>2019-08-30T10:53:19Z</time><name>PT3775</name></trkpt>
<trkpt lat="53.225261" lon="-1.852570"><ele>319</ele><time>2019-08-30T10:53:20Z</time><name>PT3776</name></trkpt>
<trkpt lat="53.225266" lon="-1.852558"><ele>319</ele><time>2019-08-30T10:53:21Z</time><name>PT3777</name></trkpt>
<trkpt lat="53.225271" lon="-1.852546"><ele>319</ele><time>2019-08-30T10:53:22Z</time><name>PT3778</name></trkpt>
<trkpt lat="53.225276" lon="-1.852530"><ele>318</ele><time>2019-08-30T10:53:23Z</time><name>PT3779</name></trkpt>
<trkpt lat="53.225285" lon="-1.852511"><ele>318</ele><time>2019-08-30T10:53:24Z</time><name>PT3780</name></trkpt>
<trkpt lat="53.225293" lon="-1.852501"><ele>318</ele><time>2019-08-30T10:53:25Z</time><name>PT3781</name></trkpt>
<trkpt lat="53.225300" lon="-1.852486"><ele>318</ele><time>2019-08-30T10:53:26Z</time><name>PT3782</name></trkpt>
<trkpt lat="53.225304" lon="-1.852475"><ele>317</ele><time>2019-08-30T10:53:28Z</time><name>PT3783</name></trkpt>
<trkpt lat="53.225311" lon="-1.852459"><ele>317</ele><time>2019-08-30T10:53:28Z</time><name>PT3784</name></trkpt>
<trkpt lat="53.225317" lon="-1.852446"><ele>317</ele><time>2019-08-30T10:53:29Z</time><name>PT3785</name></trkpt>
<trkpt lat="53.225324" lon="-1.852430"><ele>317</ele><time>2019-08-30T10:53:30Z</time><name>PT3786</name></trkpt>
<trkpt lat="53.225331" lon="-1.852421"><ele>317</ele><time>2019-08-30T10:53:31Z</time><name>PT3787</name></trkpt>
<trkpt lat="53.225335" lon="-1.852413"><ele>317</ele><time>2019-08-30T10:53:32Z</time><name>PT3788</name></trkpt>
<trkpt lat="53.225341" lon="-1.852401"><ele>317</ele><time>2019-08-30T10:53:33Z</time><name>PT3789</name></trkpt>
<trkpt lat="53.225347" lon="-1.852384"><ele>317</ele><time>2019-08-30T10:53:34Z</time><name>PT3790</name></trkpt>
<trkpt lat="53.225353" lon="-1.852367"><ele>318</ele><time>2019-08-30T10:53:35Z</time><name>PT3791</name></trkpt>
<trkpt lat="53.225358" lon="-1.852359"><ele>318</ele><time>2019-08-30T10:53:36Z</time><name>PT3792</name></trkpt>
<trkpt lat="53.225362" lon="-1.852347"><ele>318</ele><time>2019-08-30T10:53:37Z</time><name>PT3793</name></trkpt>
<trkpt lat="53.225370" lon="-1.852336"><ele>318</ele><time>2019-08-30T10:53:38Z</time><name>PT3794</name></trkpt>
<trkpt lat="53.225379" lon="-1.852324"><ele>318</ele><time>2019-08-30T10:53:39Z</time><name>PT3795</name></trkpt>
<trkpt lat="53.225388" lon="-1.852312"><ele>318</ele><time>2019-08-30T10:53:40Z</time><name>PT3796</name></trkpt>
<trkpt lat="53.225392" lon="-1.852300"><ele>318</ele><time>2019-08-30T10:53:41Z</time><name>PT3797</name></trkpt>
<trkpt lat="53.225398" lon="-1.852287"><ele>318</ele><time>2019-08-30T10:53:42Z</time><name>PT3798</name></trkpt>
<trkpt lat="53.225406" lon="-1.852277"><ele>318</ele><time>2019-08-30T10:53:43Z</time><name>PT3799</name></trkpt>
<trkpt lat="53.225413" lon="-1.852267"><ele>318</ele><time>2019-08-30T10:53:44Z</time><name>PT3800</name></trkpt>
<trkpt lat="53.225417" lon="-1.852261"><ele>317</ele><time>2019-08-30T10:53:45Z</time><name>PT3801</name></trkpt>
<trkpt lat="53.225427" lon="-1.852253"><ele>316</ele><time>2019-08-30T10:53:46Z</time><name>PT3802</name></trkpt>
<trkpt lat="53.225435" lon="-1.852238"><ele>316</ele><time>2019-08-30T10:53:48Z</time><name>PT3803</name></trkpt>
<trkpt lat="53.225443" lon="-1.852229"><ele>316</ele><time>2019-08-30T10:53:48Z</time><name>PT3804</name></trkpt>
<trkpt lat="53.225451" lon="-1.852217"><ele>315</ele><time>2019-08-30T10:53:49Z</time><name>PT3805</name></trkpt>
<trkpt lat="53.225456" lon="-1.852200"><ele>315</ele><time>2019-08-30T10:53:51Z</time><name>PT3806</name></trkpt>
<trkpt lat="53.225460" lon="-1.852184"><ele>314</ele><time>2019-08-30T10:53:51Z</time><name>PT3807</name></trkpt>
<trkpt lat="53.225468" lon="-1.852167"><ele>315</ele><time>2019-08-30T10:53:52Z</time><name>PT3808</name></trkpt>
<trkpt lat="53.225478" lon="-1.852151"><ele>315</ele><time>2019-08-30T10:53:53Z</time><name>PT3809</name></trkpt>
<trkpt lat="53.225486" lon="-1.852138"><ele>314</ele><time>2019-08-30T10:53:54Z</time><name>PT3810</name></trkpt>
<trkpt lat="53.225493" lon="-1.852120"><ele>315</ele><time>2019-08-30T10:53:55Z</time><name>PT3811</name></trkpt>
<trkpt lat="53.225496" lon="-1.852111"><ele>314</ele><time>2019-08-30T10:53:56Z</time><name>PT3812</name></trkpt>
<trkpt lat="53.225505" lon="-1.852095"><ele>314</ele><time>2019-08-30T10:53:57Z</time><name>PT3813</name></trkpt>
<trkpt lat="53.225510" lon="-1.852084"><ele>314</ele><time>2019-08-30T10:53:58Z</time><name>PT3814</name></trkpt>
<trkpt lat="53.225516" lon="-1.852066"><ele>314</ele><time>2019-08-30T10:53:59Z</time><name>PT3815</name></trkpt>
<trkpt lat="53.225524" lon="-1.852052"><ele>315</ele><time>2019-08-30T10:54:00Z</time><name>PT3816</name></trkpt>
<trkpt lat="53.225530" lon="-1.852038"><ele>314</ele><time>2019-08-30T10:54:01Z</time><name>PT3817</name></trkpt>
<trkpt lat="53.225538" lon="-1.852020"><ele>314</ele><time>2019-08-30T10:54:03Z</time><name>PT3818</name></trkpt>
<trkpt lat="53.225539" lon="-1.852000"><ele>314</ele><time>2019-08-30T10:54:03Z</time><name>PT3819</name></trkpt>
<trkpt lat="53.225547" lon="-1.851983"><ele>314</ele><time>2019-08-30T10:54:04Z</time><name>PT3820</name></trkpt>
<trkpt lat="53.225557" lon="-1.851965"><ele>314</ele><time>2019-08-30T10:54:05Z</time><name>PT3821</name></trkpt>
<trkpt lat="53.225559" lon="-1.851946"><ele>314</ele><time>2019-08-30T10:54:06Z</time><name>PT3822</name></trkpt>
<trkpt lat="53.225563" lon="-1.851929"><ele>315</ele><time>2019-08-30T10:54:07Z</time><name>PT3823</name></trkpt>
<trkpt lat="53.225568" lon="-1.851912"><ele>315</ele><time>2019-08-30T10:54:08Z</time><name>PT3824</name></trkpt>
<trkpt lat="53.225577" lon="-1.851900"><ele>316</ele><time>2019-08-30T10:54:09Z</time><name>PT3825</name></trkpt>
<trkpt lat="53.225587" lon="-1.851889"><ele>316</ele><time>2019-08-30T10:54:10Z</time><name>PT3826</name></trkpt>
<trkpt lat="53.225592" lon="-1.851882"><ele>316</ele><time>2019-08-30T10:54:11Z</time><name>PT3827</name></trkpt>
<trkpt lat="53.225602" lon="-1.851870"><ele>317</ele><time>2019-08-30T10:54:12Z</time><name>PT3828</name></trkpt>
<trkpt lat="53.225614" lon="-1.851856"><ele>318</ele><time>2019-08-30T10:54:13Z</time><name>PT3829</name></trkpt>
<trkpt lat="53.225624" lon="-1.851843"><ele>318</ele><time>2019-08-30T10:54:14Z</time><name>PT3830</name></trkpt>
<trkpt lat="53.225634" lon="-1.851829"><ele>318</ele><time>2019-08-30T10:54:15Z</time><name>PT3831</name></trkpt>
<trkpt lat="53.225640" lon="-1.851811"><ele>318</ele><time>2019-08-30T10:54:16Z</time><name>PT3832</name></trkpt>
<trkpt lat="53.225644" lon="-1.851795"><ele>317</ele><time>2019-08-30T10:54:17Z</time><name>PT3833</name></trkpt>
<trkpt lat="53.225650" lon="-1.851785"><ele>317</ele><time>2019-08-30T10:54:18Z</time><name>PT3834</name></trkpt>
<trkpt lat="53.225657" lon="-1.851769"><ele>317</ele><time>2019-08-30T10:54:19Z</time><name>PT3835</name></trkpt>
<trkpt lat="53.225663" lon="-1.851752"><ele>316</ele><time>2019-08-30T10:54:20Z</time><name>PT3836</name></trkpt>
<trkpt lat="53.225671" lon="-1.851737"><ele>317</ele><time>2019-08-30T10:54:21Z</time><name>PT3837</name></trkpt>
<trkpt lat="53.225681" lon="-1.851722"><ele>317</ele><time>2019-08-30T10:54:22Z</time><name>PT3838</name></trkpt>
<trkpt lat="53.225694" lon="-1.851707"><ele>319</ele><time>2019-08-30T10:54:23Z</time><name>PT3839</name></trkpt>
<trkpt lat="53.225701" lon="-1.851696"><ele>319</ele><time>2019-08-30T10:54:24Z</time><name>PT3840</name></trkpt>
<trkpt lat="53.225706" lon="-1.851677"><ele>320</ele><time>2019-08-30T10:54:25Z</time><name>PT3841</name></trkpt>
<trkpt lat="53.225711" lon="-1.851657"><ele>321</ele><time>2019-08-30T10:54:26Z</time><name>PT3842</name></trkpt>
<trkpt lat="53.225721" lon="-1.851638"><ele>322</ele><time>2019-08-30T10:54:27Z</time><name>PT3843</name></trkpt>
<trkpt lat="53.225729" lon="-1.851628"><ele>322</ele><time>2019-08-30T10:54:28Z</time><name>PT3844</name></trkpt>
<trkpt lat="53.225735" lon="-1.851609"><ele>322</ele><time>2019-08-30T10:54:29Z</time><name>PT3845</name></trkpt>
<trkpt lat="53.225739" lon="-1.851595"><ele>323</ele><time>2019-08-30T10:54:30Z</time><name>PT3846</name></trkpt>
<trkpt lat="53.225743" lon="-1.851579"><ele>323</ele><time>2019-08-30T10:54:31Z</time><name>PT3847</name></trkpt>
<trkpt lat="53.225746" lon="-1.851568"><ele>323</ele><time>2019-08-30T10:54:32Z</time><name>PT3848</name></trkpt>
<trkpt lat="53.225750" lon="-1.851552"><ele>323</ele><time>2019-08-30T10:54:33Z</time><name>PT3849</name></trkpt>
<trkpt lat="53.225754" lon="-1.851535"><ele>323</ele><time>2019-08-30T10:54:34Z</time><name>PT3850</name></trkpt>
<trkpt lat="53.225764" lon="-1.851517"><ele>324</ele><time>2019-08-30T10:54:35Z</time><name>PT3851</name></trkpt>
<trkpt lat="53.225771" lon="-1.851499"><ele>324</ele><time>2019-08-30T10:54:36Z</time><name>PT3852</name></trkpt>
<trkpt lat="53.225776" lon="-1.851482"><ele>324</ele><time>2019-08-30T10:54:37Z</time><name>PT3853</name></trkpt>
<trkpt lat="53.225779" lon="-1.851465"><ele>324</ele><time>2019-08-30T10:54:38Z</time><name>PT3854</name></trkpt>
<trkpt lat="53.225785" lon="-1.851448"><ele>324</ele><time>2019-08-30T10:54:39Z</time><name>PT3855</name></trkpt>
<trkpt lat="53.225792" lon="-1.851432"><ele>324</ele><time>2019-08-30T10:54:40Z</time><name>PT3856</name></trkpt>
<trkpt lat="53.225796" lon="-1.851415"><ele>324</ele><time>2019-08-30T10:54:41Z</time><name>PT3857</name></trkpt>
<trkpt lat="53.225796" lon="-1.851394"><ele>324</ele><time>2019-08-30T10:54:42Z</time><name>PT3858</name></trkpt>
<trkpt lat="53.225800" lon="-1.851373"><ele>324</ele><time>2019-08-30T10:54:43Z</time><name>PT3859</name></trkpt>
<trkpt lat="53.225808" lon="-1.851350"><ele>325</ele><time>2019-08-30T10:54:44Z</time><name>PT3860</name></trkpt>
<trkpt lat="53.225811" lon="-1.851332"><ele>325</ele><time>2019-08-30T10:54:45Z</time><name>PT3861</name></trkpt>
<trkpt lat="53.225814" lon="-1.851317"><ele>326</ele><time>2019-08-30T10:54:46Z</time><name>PT3862</name></trkpt>
<trkpt lat="53.225816" lon="-1.851299"><ele>325</ele><time>2019-08-30T10:54:47Z</time><name>PT3863</name></trkpt>
<trkpt lat="53.225822" lon="-1.851283"><ele>326</ele><time>2019-08-30T10:54:48Z</time><name>PT3864</name></trkpt>
<trkpt lat="53.225824" lon="-1.851268"><ele>326</ele><time>2019-08-30T10:54:49Z</time><name>PT3865</name></trkpt>
<trkpt lat="53.225825" lon="-1.851250"><ele>326</ele><time>2019-08-30T10:54:50Z</time><name>PT3866</name></trkpt>
<trkpt lat="53.225829" lon="-1.851236"><ele>327</ele><time>2019-08-30T10:54:51Z</time><name>PT3867</name></trkpt>
<trkpt lat="53.225833" lon="-1.851218"><ele>327</ele><time>2019-08-30T10:54:52Z</time><name>PT3868</name></trkpt>
<trkpt lat="53.225836" lon="-1.851205"><ele>327</ele><time>2019-08-30T10:54:53Z</time><name>PT3869</name></trkpt>
<trkpt lat="53.225838" lon="-1.851191"><ele>327</ele><time>2019-08-30T10:54:54Z</time><name>PT3870</name></trkpt>
<trkpt lat="53.225840" lon="-1.851172"><ele>327</ele><time>2019-08-30T10:54:55Z</time><name>PT3871</name></trkpt>
<trkpt lat="53.225845" lon="-1.851152"><ele>327</ele><time>2019-08-30T10:54:56Z</time><name>PT3872</name></trkpt>
<trkpt lat="53.225849" lon="-1.851135"><ele>327</ele><time>2019-08-30T10:54:57Z</time><name>PT3873</name></trkpt>
<trkpt lat="53.225851" lon="-1.851120"><ele>327</ele><time>2019-08-30T10:54:58Z</time><name>PT3874</name></trkpt>
<trkpt lat="53.225853" lon="-1.851106"><ele>327</ele><time>2019-08-30T10:54:59Z</time><name>PT3875</name></trkpt>
<trkpt lat="53.225856" lon="-1.851096"><ele>327</ele><time>2019-08-30T10:55:00Z</time><name>PT3876</name></trkpt>
<trkpt lat="53.225857" lon="-1.851090"><ele>327</ele><time>2019-08-30T10:55:01Z</time><name>PT3877</name></trkpt>
<trkpt lat="53.225857" lon="-1.851086"><ele>327</ele><time>2019-08-30T10:55:02Z</time><name>PT3878</name></trkpt>
<trkpt lat="53.225859" lon="-1.851066"><ele>328</ele><time>2019-08-30T10:55:03Z</time><name>PT3879</name></trkpt>
<trkpt lat="53.225862" lon="-1.851033"><ele>328</ele><time>2019-08-30T10:55:04Z</time><name>PT3880</name></trkpt>
<trkpt lat="53.225862" lon="-1.851019"><ele>328</ele><time>2019-08-30T10:55:05Z</time><name>PT3881</name></trkpt>
<trkpt lat="53.225861" lon="-1.851016"><ele>328</ele><time>2019-08-30T10:55:06Z</time><name>PT3882</name></trkpt>
<trkpt lat="53.225861" lon="-1.851014"><ele>328</ele><time>2019-08-30T10:55:07Z</time><name>PT3883</name></trkpt>
<trkpt lat="53.225869" lon="-1.851013"><ele>328</ele><time>2019-08-30T10:55:08Z</time><name>PT3884</name></trkpt>
<trkpt lat="53.225880" lon="-1.851007"><ele>328</ele><time>2019-08-30T10:55:09Z</time><name>PT3885</name></trkpt>
<trkpt lat="53.225891" lon="-1.850999"><ele>327</ele><time>2019-08-30T10:55:10Z</time><name>PT3886</name></trkpt>
<trkpt lat="53.225902" lon="-1.850993"><ele>328</ele><time>2019-08-30T10:55:11Z</time><name>PT3887</name></trkpt>
<trkpt lat="53.225909" lon="-1.850986"><ele>327</ele><time>2019-08-30T10:55:12Z</time><name>PT3888</name></trkpt>
<trkpt lat="53.225917" lon="-1.850973"><ele>327</ele><time>2019-08-30T10:55:13Z</time><name>PT3889</name></trkpt>
<trkpt lat="53.225926" lon="-1.850960"><ele>328</ele><time>2019-08-30T10:55:14Z</time><name>PT3890</name></trkpt>
<trkpt lat="53.225936" lon="-1.850945"><ele>329</ele><time>2019-08-30T10:55:15Z</time><name>PT3891</name></trkpt>
<trkpt lat="53.225939" lon="-1.850934"><ele>329</ele><time>2019-08-30T10:55:16Z</time><name>PT3892</name></trkpt>
<trkpt lat="53.225943" lon="-1.850919"><ele>330</ele><time>2019-08-30T10:55:17Z</time><name>PT3893</name></trkpt>
<trkpt lat="53.225948" lon="-1.850903"><ele>330</ele><time>2019-08-30T10:55:18Z</time><name>PT3894</name></trkpt>
<trkpt lat="53.225950" lon="-1.850893"><ele>330</ele><time>2019-08-30T10:55:19Z</time><name>PT3895</name></trkpt>
<trkpt lat="53.225953" lon="-1.850879"><ele>330</ele><time>2019-08-30T10:55:20Z</time><name>PT3896</name></trkpt>
<trkpt lat="53.225956" lon="-1.850864"><ele>331</ele><time>2019-08-30T10:55:21Z</time><name>PT3897</name></trkpt>
<trkpt lat="53.225958" lon="-1.850850"><ele>331</ele><time>2019-08-30T10:55:22Z</time><name>PT3898</name></trkpt>
<trkpt lat="53.225959" lon="-1.850836"><ele>331</ele><time>2019-08-30T10:55:23Z</time><name>PT3899</name></trkpt>
<trkpt lat="53.225961" lon="-1.850828"><ele>331</ele><time>2019-08-30T10:55:24Z</time><name>PT3900</name></trkpt>
<trkpt lat="53.225961" lon="-1.850824"><ele>331</ele><time>2019-08-30T10:55:25Z</time><name>PT3901</name></trkpt>
<trkpt lat="53.225962" lon="-1.850821"><ele>331</ele><time>2019-08-30T10:55:26Z</time><name>PT3902</name></trkpt>
<trkpt lat="53.225968" lon="-1.850814"><ele>331</ele><time>2019-08-30T10:55:40Z</time><name>PT3903</name></trkpt>
<trkpt lat="53.225970" lon="-1.850811"><ele>331</ele><time>2019-08-30T10:55:41Z</time><name>PT3904</name></trkpt>
<trkpt lat="53.225968" lon="-1.850807"><ele>331</ele><time>2019-08-30T10:55:49Z</time><name>PT3905</name></trkpt>
<trkpt lat="53.225972" lon="-1.850804"><ele>331</ele><time>2019-08-30T10:55:50Z</time><name>PT3906</name></trkpt>
<trkpt lat="53.225973" lon="-1.850791"><ele>331</ele><time>2019-08-30T10:56:05Z</time><name>PT3907</name></trkpt>
<trkpt lat="53.225989" lon="-1.850777"><ele>331</ele><time>2019-08-30T10:56:06Z</time><name>PT3908</name></trkpt>
<trkpt lat="53.225997" lon="-1.850775"><ele>331</ele><time>2019-08-30T10:56:07Z</time><name>PT3909</name></trkpt>
<trkpt lat="53.226000" lon="-1.850773"><ele>331</ele><time>2019-08-30T10:56:08Z</time><name>PT3910</name></trkpt>
<trkpt lat="53.226002" lon="-1.850773"><ele>331</ele><time>2019-08-30T10:56:09Z</time><name>PT3911</name></trkpt>
<trkpt lat="53.226005" lon="-1.850770"><ele>330</ele><time>2019-08-30T10:56:10Z</time><name>PT3912</name></trkpt>
<trkpt lat="53.226010" lon="-1.850754"><ele>330</ele><time>2019-08-30T10:56:14Z</time><name>PT3913</name></trkpt>
<trkpt lat="53.226026" lon="-1.850741"><ele>330</ele><time>2019-08-30T10:56:15Z</time><name>PT3914</name></trkpt>
<trkpt lat="53.226034" lon="-1.850724"><ele>330</ele><time>2019-08-30T10:56:16Z</time><name>PT3915</name></trkpt>
<trkpt lat="53.226042" lon="-1.850711"><ele>329</ele><time>2019-08-30T10:56:17Z</time><name>PT3916</name></trkpt>
<trkpt lat="53.226053" lon="-1.850695"><ele>330</ele><time>2019-08-30T10:56:18Z</time><name>PT3917</name></trkpt>
<trkpt lat="53.226059" lon="-1.850683"><ele>329</ele><time>2019-08-30T10:56:19Z</time><name>PT3918</name></trkpt>
<trkpt lat="53.226065" lon="-1.850669"><ele>330</ele><time>2019-08-30T10:56:20Z</time><name>PT3919</name></trkpt>
<trkpt lat="53.226069" lon="-1.850653"><ele>329</ele><time>2019-08-30T10:56:21Z</time><name>PT3920</name></trkpt>
<trkpt lat="53.226076" lon="-1.850638"><ele>329</ele><time>2019-08-30T10:56:22Z</time><name>PT3921</name></trkpt>
<trkpt lat="53.226087" lon="-1.850623"><ele>330</ele><time>2019-08-30T10:56:23Z</time><name>PT3922</name></trkpt>
<trkpt lat="53.226095" lon="-1.850613"><ele>329</ele><time>2019-08-30T10:56:24Z</time><name>PT3923</name></trkpt>
<trkpt lat="53.226104" lon="-1.850597"><ele>330</ele><time>2019-08-30T10:56:25Z</time><name>PT3924</name></trkpt>
<trkpt lat="53.226114" lon="-1.850572"><ele>329</ele><time>2019-08-30T10:56:26Z</time><name>PT3925</name></trkpt>
<trkpt lat="53.226122" lon="-1.850544"><ele>329</ele><time>2019-08-30T10:56:27Z</time><name>PT3926</name></trkpt>
<trkpt lat="53.226131" lon="-1.850523"><ele>330</ele><time>2019-08-30T10:56:28Z</time><name>PT3927</name></trkpt>
<trkpt lat="53.226140" lon="-1.850508"><ele>330</ele><time>2019-08-30T10:56:29Z</time><name>PT3928</name></trkpt>
<trkpt lat="53.226149" lon="-1.850495"><ele>330</ele><time>2019-08-30T10:56:30Z</time><name>PT3929</name></trkpt>
<trkpt lat="53.226160" lon="-1.850484"><ele>330</ele><time>2019-08-30T10:56:31Z</time><name>PT3930</name></trkpt>
<trkpt lat="53.226171" lon="-1.850472"><ele>330</ele><time>2019-08-30T10:56:32Z</time><name>PT3931</name></trkpt>
<trkpt lat="53.226181" lon="-1.850460"><ele>330</ele><time>2019-08-30T10:56:33Z</time><name>PT3932</name></trkpt>
<trkpt lat="53.226190" lon="-1.850451"><ele>330</ele><time>2019-08-30T10:56:34Z</time><name>PT3933</name></trkpt>
<trkpt lat="53.226200" lon="-1.850440"><ele>330</ele><time>2019-08-30T10:56:35Z</time><name>PT3934</name></trkpt>
<trkpt lat="53.226211" lon="-1.850430"><ele>330</ele><time>2019-08-30T10:56:36Z</time><name>PT3935</name></trkpt>
<trkpt lat="53.226221" lon="-1.850420"><ele>330</ele><time>2019-08-30T10:56:37Z</time><name>PT3936</name></trkpt>
<trkpt lat="53.226233" lon="-1.850411"><ele>330</ele><time>2019-08-30T10:56:38Z</time><name>PT3937</name></trkpt>
<trkpt lat="53.226244" lon="-1.850401"><ele>330</ele><time>2019-08-30T10:56:39Z</time><name>PT3938</name></trkpt>
<trkpt lat="53.226255" lon="-1.850391"><ele>330</ele><time>2019-08-30T10:56:40Z</time><name>PT3939</name></trkpt>
<trkpt lat="53.226267" lon="-1.850381"><ele>330</ele><time>2019-08-30T10:56:41Z</time><name>PT3940</name></trkpt>
<trkpt lat="53.226279" lon="-1.850371"><ele>329</ele><time>2019-08-30T10:56:42Z</time><name>PT3941</name></trkpt>
<trkpt lat="53.226290" lon="-1.850360"><ele>329</ele><time>2019-08-30T10:56:43Z</time><name>PT3942</name></trkpt>
<trkpt lat="53.226300" lon="-1.850350"><ele>329</ele><time>2019-08-30T10:56:44Z</time><name>PT3943</name></trkpt>
<trkpt lat="53.226311" lon="-1.850342"><ele>329</ele><time>2019-08-30T10:56:45Z</time><name>PT3944</name></trkpt>
<trkpt lat="53.226324" lon="-1.850333"><ele>329</ele><time>2019-08-30T10:56:46Z</time><name>PT3945</name></trkpt>
<trkpt lat="53.226336" lon="-1.850327"><ele>329</ele><time>2019-08-30T10:56:47Z</time><name>PT3946</name></trkpt>
<trkpt lat="53.226348" lon="-1.850319"><ele>329</ele><time>2019-08-30T10:56:48Z</time><name>PT3947</name></trkpt>
<trkpt lat="53.226359" lon="-1.850313"><ele>329</ele><time>2019-08-30T10:56:49Z</time><name>PT3948</name></trkpt>
<trkpt lat="53.226371" lon="-1.850306"><ele>329</ele><time>2019-08-30T10:56:50Z</time><name>PT3949</name></trkpt>
<trkpt lat="53.226381" lon="-1.850299"><ele>329</ele><time>2019-08-30T10:56:51Z</time><name>PT3950</name></trkpt>
<trkpt lat="53.226394" lon="-1.850293"><ele>329</ele><time>2019-08-30T10:56:52Z</time><name>PT3951</name></trkpt>
<trkpt lat="53.226408" lon="-1.850287"><ele>328</ele><time>2019-08-30T10:56:53Z</time><name>PT3952</name></trkpt>
<trkpt lat="53.226420" lon="-1.850284"><ele>328</ele><time>2019-08-30T10:56:54Z</time><name>PT3953</name></trkpt>
<trkpt lat="53.226432" lon="-1.850279"><ele>328</ele><time>2019-08-30T10:56:55Z</time><name>PT3954</name></trkpt>
<trkpt lat="53.226444" lon="-1.850272"><ele>328</ele><time>2019-08-30T10:56:56Z</time><name>PT3955</name></trkpt>
<trkpt lat="53.226456" lon="-1.850265"><ele>328</ele><time>2019-08-30T10:56:57Z</time><name>PT3956</name></trkpt>
<trkpt lat="53.226469" lon="-1.850257"><ele>328</ele><time>2019-08-30T10:56:58Z</time><name>PT3957</name></trkpt>
<trkpt lat="53.226480" lon="-1.850248"><ele>327</ele><time>2019-08-30T10:56:59Z</time><name>PT3958</name></trkpt>
<trkpt lat="53.226490" lon="-1.850237"><ele>327</ele><time>2019-08-30T10:57:00Z</time><name>PT3959</name></trkpt>
<trkpt lat="53.226499" lon="-1.850225"><ele>327</ele><time>2019-08-30T10:57:01Z</time><name>PT3960</name></trkpt>
<trkpt lat="53.226509" lon="-1.850210"><ele>328</ele><time>2019-08-30T10:57:02Z</time><name>PT3961</name></trkpt>
<trkpt lat="53.226520" lon="-1.850200"><ele>328</ele><time>2019-08-30T10:57:03Z</time><name>PT3962</name></trkpt>
<trkpt lat="53.226529" lon="-1.850187"><ele>328</ele><time>2019-08-30T10:57:04Z</time><name>PT3963</name></trkpt>
<trkpt lat="53.226537" lon="-1.850171"><ele>328</ele><time>2019-08-30T10:57:05Z</time><name>PT3964</name></trkpt>
<trkpt lat="53.226546" lon="-1.850156"><ele>328</ele><time>2019-08-30T10:57:06Z</time><name>PT3965</name></trkpt>
<trkpt lat="53.226557" lon="-1.850143"><ele>328</ele><time>2019-08-30T10:57:07Z</time><name>PT3966</name></trkpt>
<trkpt lat="53.226566" lon="-1.850132"><ele>328</ele><time>2019-08-30T10:57:08Z</time><name>PT3967</name></trkpt>
<trkpt lat="53.226576" lon="-1.850121"><ele>328</ele><time>2019-08-30T10:57:09Z</time><name>PT3968</name></trkpt>
<trkpt lat="53.226586" lon="-1.850110"><ele>328</ele><time>2019-08-30T10:57:10Z</time><name>PT3969</name></trkpt>
<trkpt lat="53.226595" lon="-1.850098"><ele>328</ele><time>2019-08-30T10:57:11Z</time><name>PT3970</name></trkpt>
<trkpt lat="53.226606" lon="-1.850085"><ele>328</ele><time>2019-08-30T10:57:12Z</time><name>PT3971</name></trkpt>
<trkpt lat="53.226616" lon="-1.850075"><ele>328</ele><time>2019-08-30T10:57:13Z</time><name>PT3972</name></trkpt>
<trkpt lat="53.226626" lon="-1.850066"><ele>328</ele><time>2019-08-30T10:57:14Z</time><name>PT3973</name></trkpt>
<trkpt lat="53.226637" lon="-1.850055"><ele>328</ele><time>2019-08-30T10:57:15Z</time><name>PT3974</name></trkpt>
<trkpt lat="53.226648" lon="-1.850046"><ele>328</ele><time>2019-08-30T10:57:16Z</time><name>PT3975</name></trkpt>
<trkpt lat="53.226660" lon="-1.850040"><ele>328</ele><time>2019-08-30T10:57:17Z</time><name>PT3976</name></trkpt>
<trkpt lat="53.226670" lon="-1.850033"><ele>328</ele><time>2019-08-30T10:57:18Z</time><name>PT3977</name></trkpt>
<trkpt lat="53.226681" lon="-1.850025"><ele>328</ele><time>2019-08-30T10:57:19Z</time><name>PT3978</name></trkpt>
<trkpt lat="53.226691" lon="-1.850015"><ele>328</ele><time>2019-08-30T10:57:20Z</time><name>PT3979</name></trkpt>
<trkpt lat="53.226701" lon="-1.850003"><ele>328</ele><time>2019-08-30T10:57:21Z</time><name>PT3980</name></trkpt>
<trkpt lat="53.226711" lon="-1.849992"><ele>327</ele><time>2019-08-30T10:57:22Z</time><name>PT3981</name></trkpt>
<trkpt lat="53.226722" lon="-1.849982"><ele>328</ele><time>2019-08-30T10:57:23Z</time><name>PT3982</name></trkpt>
<trkpt lat="53.226732" lon="-1.849971"><ele>327</ele><time>2019-08-30T10:57:24Z</time><name>PT3983</name></trkpt>
<trkpt lat="53.226744" lon="-1.849962"><ele>328</ele><time>2019-08-30T10:57:25Z</time><name>PT3984</name></trkpt>
<trkpt lat="53.226756" lon="-1.849954"><ele>327</ele><time>2019-08-30T10:57:26Z</time><name>PT3985</name></trkpt>
<trkpt lat="53.226766" lon="-1.849947"><ele>327</ele><time>2019-08-30T10:57:27Z</time><name>PT3986</name></trkpt>
<trkpt lat="53.226777" lon="-1.849937"><ele>327</ele><time>2019-08-30T10:57:28Z</time><name>PT3987</name></trkpt>
<trkpt lat="53.226787" lon="-1.849928"><ele>327</ele><time>2019-08-30T10:57:29Z</time><name>PT3988</name></trkpt>
<trkpt lat="53.226799" lon="-1.849922"><ele>327</ele><time>2019-08-30T10:57:30Z</time><name>PT3989</name></trkpt>
<trkpt lat="53.226811" lon="-1.849917"><ele>327</ele><time>2019-08-30T10:57:31Z</time><name>PT3990</name></trkpt>
<trkpt lat="53.226823" lon="-1.849913"><ele>327</ele><time>2019-08-30T10:57:32Z</time><name>PT3991</name></trkpt>
<trkpt lat="53.226834" lon="-1.849906"><ele>327</ele><time>2019-08-30T10:57:33Z</time><name>PT3992</name></trkpt>
<trkpt lat="53.226846" lon="-1.849899"><ele>327</ele><time>2019-08-30T10:57:34Z</time><name>PT3993</name></trkpt>
<trkpt lat="53.226859" lon="-1.849892"><ele>327</ele><time>2019-08-30T10:57:35Z</time><name>PT3994</name></trkpt>
<trkpt lat="53.226872" lon="-1.849884"><ele>327</ele><time>2019-08-30T10:57:36Z</time><name>PT3995</name></trkpt>
<trkpt lat="53.226883" lon="-1.849877"><ele>327</ele><time>2019-08-30T10:57:37Z</time><name>PT3996</name></trkpt>
<trkpt lat="53.226894" lon="-1.849870"><ele>327</ele><time>2019-08-30T10:57:38Z</time><name>PT3997</name></trkpt>
<trkpt lat="53.226907" lon="-1.849863"><ele>327</ele><time>2019-08-30T10:57:39Z</time><name>PT3998</name></trkpt>
<trkpt lat="53.226918" lon="-1.849857"><ele>327</ele><time>2019-08-30T10:57:40Z</time><name>PT3999</name></trkpt>
<trkpt lat="53.226929" lon="-1.849848"><ele>327</ele><time>2019-08-30T10:57:41Z</time><name>PT4000</name></trkpt>
<trkpt lat="53.226939" lon="-1.849838"><ele>327</ele><time>2019-08-30T10:57:42Z</time><name>PT4001</name></trkpt>
<trkpt lat="53.226948" lon="-1.849825"><ele>327</ele><time>2019-08-30T10:57:43Z</time><name>PT4002</name></trkpt>
<trkpt lat="53.226959" lon="-1.849811"><ele>327</ele><time>2019-08-30T10:57:44Z</time><name>PT4003</name></trkpt>
<trkpt lat="53.226967" lon="-1.849799"><ele>327</ele><time>2019-08-30T10:57:45Z</time><name>PT4004</name></trkpt>
<trkpt lat="53.226975" lon="-1.849787"><ele>327</ele><time>2019-08-30T10:57:46Z</time><name>PT4005</name></trkpt>
<trkpt lat="53.226984" lon="-1.849775"><ele>327</ele><time>2019-08-30T10:57:47Z</time><name>PT4006</name></trkpt>
<trkpt lat="53.226995" lon="-1.849767"><ele>327</ele><time>2019-08-30T10:57:48Z</time><name>PT4007</name></trkpt>
<trkpt lat="53.227006" lon="-1.849763"><ele>327</ele><time>2019-08-30T10:57:49Z</time><name>PT4008</name></trkpt>
<trkpt lat="53.227018" lon="-1.849763"><ele>327</ele><time>2019-08-30T10:57:50Z</time><name>PT4009</name></trkpt>
<trkpt lat="53.227031" lon="-1.849764"><ele>327</ele><time>2019-08-30T10:57:51Z</time><name>PT4010</name></trkpt>
<trkpt lat="53.227042" lon="-1.849767"><ele>327</ele><time>2019-08-30T10:57:52Z</time><name>PT4011</name></trkpt>
<trkpt lat="53.227054" lon="-1.849767"><ele>326</ele><time>2019-08-30T10:57:53Z</time><name>PT4012</name></trkpt>
<trkpt lat="53.227066" lon="-1.849767"><ele>326</ele><time>2019-08-30T10:57:54Z</time><name>PT4013</name></trkpt>
<trkpt lat="53.227077" lon="-1.849766"><ele>326</ele><time>2019-08-30T10:57:55Z</time><name>PT4014</name></trkpt>
<trkpt lat="53.227090" lon="-1.849764"><ele>326</ele><time>2019-08-30T10:57:56Z</time><name>PT4015</name></trkpt>
<trkpt lat="53.227102" lon="-1.849759"><ele>326</ele><time>2019-08-30T10:57:57Z</time><name>PT4016</name></trkpt>
<trkpt lat="53.227114" lon="-1.849757"><ele>326</ele><time>2019-08-30T10:57:58Z</time><name>PT4017</name></trkpt>
<trkpt lat="53.227125" lon="-1.849754"><ele>326</ele><time>2019-08-30T10:57:59Z</time><name>PT4018</name></trkpt>
<trkpt lat="53.227137" lon="-1.849753"><ele>326</ele><time>2019-08-30T10:58:00Z</time><name>PT4019</name></trkpt>
<trkpt lat="53.227151" lon="-1.849755"><ele>326</ele><time>2019-08-30T10:58:01Z</time><name>PT4020</name></trkpt>
<trkpt lat="53.227164" lon="-1.849755"><ele>326</ele><time>2019-08-30T10:58:02Z</time><name>PT4021</name></trkpt>
<trkpt lat="53.227175" lon="-1.849757"><ele>326</ele><time>2019-08-30T10:58:03Z</time><name>PT4022</name></trkpt>
<trkpt lat="53.227187" lon="-1.849764"><ele>326</ele><time>2019-08-30T10:58:04Z</time><name>PT4023</name></trkpt>
<trkpt lat="53.227198" lon="-1.849770"><ele>326</ele><time>2019-08-30T10:58:05Z</time><name>PT4024</name></trkpt>
<trkpt lat="53.227209" lon="-1.849776"><ele>326</ele><time>2019-08-30T10:58:06Z</time><name>PT4025</name></trkpt>
<trkpt lat="53.227220" lon="-1.849779"><ele>326</ele><time>2019-08-30T10:58:07Z</time><name>PT4026</name></trkpt>
<trkpt lat="53.227226" lon="-1.849780"><ele>326</ele><time>2019-08-30T10:58:08Z</time><name>PT4027</name></trkpt>
<trkpt lat="53.227231" lon="-1.849782"><ele>326</ele><time>2019-08-30T10:58:09Z</time><name>PT4028</name></trkpt>
<trkpt lat="53.227235" lon="-1.849783"><ele>326</ele><time>2019-08-30T10:58:10Z</time><name>PT4029</name></trkpt>
<trkpt lat="53.227239" lon="-1.849778"><ele>327</ele><time>2019-08-30T10:58:11Z</time><name>PT4030</name></trkpt>
<trkpt lat="53.227244" lon="-1.849764"><ele>326</ele><time>2019-08-30T10:58:12Z</time><name>PT4031</name></trkpt>
<trkpt lat="53.227246" lon="-1.849748"><ele>327</ele><time>2019-08-30T10:58:13Z</time><name>PT4032</name></trkpt>
<trkpt lat="53.227246" lon="-1.849732"><ele>326</ele><time>2019-08-30T10:58:14Z</time><name>PT4033</name></trkpt>
<trkpt lat="53.227249" lon="-1.849720"><ele>327</ele><time>2019-08-30T10:58:15Z</time><name>PT4034</name></trkpt>
<trkpt lat="53.227257" lon="-1.849710"><ele>327</ele><time>2019-08-30T10:58:16Z</time><name>PT4035</name></trkpt>
<trkpt lat="53.227265" lon="-1.849701"><ele>327</ele><time>2019-08-30T10:58:17Z</time><name>PT4036</name></trkpt>
<trkpt lat="53.227272" lon="-1.849692"><ele>327</ele><time>2019-08-30T10:58:18Z</time><name>PT4037</name></trkpt>
<trkpt lat="53.227279" lon="-1.849681"><ele>327</ele><time>2019-08-30T10:58:19Z</time><name>PT4038</name></trkpt>
<trkpt lat="53.227286" lon="-1.849664"><ele>327</ele><time>2019-08-30T10:58:20Z</time><name>PT4039</name></trkpt>
<trkpt lat="53.227293" lon="-1.849646"><ele>327</ele><time>2019-08-30T10:58:21Z</time><name>PT4040</name></trkpt>
<trkpt lat="53.227301" lon="-1.849631"><ele>327</ele><time>2019-08-30T10:58:22Z</time><name>PT4041</name></trkpt>
<trkpt lat="53.227310" lon="-1.849618"><ele>327</ele><time>2019-08-30T10:58:23Z</time><name>PT4042</name></trkpt>
<trkpt lat="53.227318" lon="-1.849601"><ele>327</ele><time>2019-08-30T10:58:24Z</time><name>PT4043</name></trkpt>
<trkpt lat="53.227328" lon="-1.849583"><ele>327</ele><time>2019-08-30T10:58:25Z</time><name>PT4044</name></trkpt>
<trkpt lat="53.227338" lon="-1.849567"><ele>326</ele><time>2019-08-30T10:58:26Z</time><name>PT4045</name></trkpt>
<trkpt lat="53.227347" lon="-1.849553"><ele>326</ele><time>2019-08-30T10:58:27Z</time><name>PT4046</name></trkpt>
<trkpt lat="53.227355" lon="-1.849539"><ele>326</ele><time>2019-08-30T10:58:28Z</time><name>PT4047</name></trkpt>
<trkpt lat="53.227362" lon="-1.849525"><ele>326</ele><time>2019-08-30T10:58:29Z</time><name>PT4048</name></trkpt>
<trkpt lat="53.227368" lon="-1.849506"><ele>326</ele><time>2019-08-30T10:58:30Z</time><name>PT4049</name></trkpt>
<trkpt lat="53.227371" lon="-1.849491"><ele>326</ele><time>2019-08-30T10:58:31Z</time><name>PT4050</name></trkpt>
<trkpt lat="53.227376" lon="-1.849479"><ele>326</ele><time>2019-08-30T10:58:32Z</time><name>PT4051</name></trkpt>
<trkpt lat="53.227382" lon="-1.849469"><ele>326</ele><time>2019-08-30T10:58:33Z</time><name>PT4052</name></trkpt>
<trkpt lat="53.227388" lon="-1.849464"><ele>326</ele><time>2019-08-30T10:58:34Z</time><name>PT4053</name></trkpt>
<trkpt lat="53.227395" lon="-1.849452"><ele>326</ele><time>2019-08-30T10:58:35Z</time><name>PT4054</name></trkpt>
<trkpt lat="53.227398" lon="-1.849445"><ele>326</ele><time>2019-08-30T10:58:36Z</time><name>PT4055</name></trkpt>
<trkpt lat="53.227405" lon="-1.849434"><ele>326</ele><time>2019-08-30T10:58:37Z</time><name>PT4056</name></trkpt>
<trkpt lat="53.227411" lon="-1.849418"><ele>326</ele><time>2019-08-30T10:58:38Z</time><name>PT4057</name></trkpt>
<trkpt lat="53.227420" lon="-1.849400"><ele>326</ele><time>2019-08-30T10:58:39Z</time><name>PT4058</name></trkpt>
<trkpt lat="53.227427" lon="-1.849380"><ele>326</ele><time>2019-08-30T10:58:40Z</time><name>PT4059</name></trkpt>
<trkpt lat="53.227433" lon="-1.849359"><ele>326</ele><time>2019-08-30T10:58:41Z</time><name>PT4060</name></trkpt>
<trkpt lat="53.227437" lon="-1.849342"><ele>326</ele><time>2019-08-30T10:58:42Z</time><name>PT4061</name></trkpt>
<trkpt lat="53.227442" lon="-1.849324"><ele>326</ele><time>2019-08-30T10:58:43Z</time><name>PT4062</name></trkpt>
<trkpt lat="53.227448" lon="-1.849309"><ele>326</ele><time>2019-08-30T10:58:44Z</time><name>PT4063</name></trkpt>
<trkpt lat="53.227452" lon="-1.849289"><ele>325</ele><time>2019-08-30T10:58:45Z</time><name>PT4064</name></trkpt>
<trkpt lat="53.227463" lon="-1.849270"><ele>325</ele><time>2019-08-30T10:58:46Z</time><name>PT4065</name></trkpt>
<trkpt lat="53.227472" lon="-1.849253"><ele>325</ele><time>2019-08-30T10:58:47Z</time><name>PT4066</name></trkpt>
<trkpt lat="53.227482" lon="-1.849236"><ele>325</ele><time>2019-08-30T10:58:48Z</time><name>PT4067</name></trkpt>
<trkpt lat="53.227493" lon="-1.849220"><ele>324</ele><time>2019-08-30T10:58:49Z</time><name>PT4068</name></trkpt>
<trkpt lat="53.227504" lon="-1.849202"><ele>325</ele><time>2019-08-30T10:58:50Z</time><name>PT4069</name></trkpt>
<trkpt lat="53.227515" lon="-1.849187"><ele>324</ele><time>2019-08-30T10:58:51Z</time><name>PT4070</name></trkpt>
<trkpt lat="53.227524" lon="-1.849173"><ele>325</ele><time>2019-08-30T10:58:52Z</time><name>PT4071</name></trkpt>
<trkpt lat="53.227532" lon="-1.849159"><ele>324</ele><time>2019-08-30T10:58:53Z</time><name>PT4072</name></trkpt>
<trkpt lat="53.227541" lon="-1.849146"><ele>324</ele><time>2019-08-30T10:58:54Z</time><name>PT4073</name></trkpt>
<trkpt lat="53.227549" lon="-1.849126"><ele>324</ele><time>2019-08-30T10:58:55Z</time><name>PT4074</name></trkpt>
<trkpt lat="53.227556" lon="-1.849105"><ele>323</ele><time>2019-08-30T10:58:56Z</time><name>PT4075</name></trkpt>
<trkpt lat="53.227564" lon="-1.849087"><ele>323</ele><time>2019-08-30T10:58:57Z</time><name>PT4076</name></trkpt>
<trkpt lat="53.227566" lon="-1.849070"><ele>321</ele><time>2019-08-30T10:58:58Z</time><name>PT4077</name></trkpt>
<trkpt lat="53.227572" lon="-1.849054"><ele>321</ele><time>2019-08-30T10:58:59Z</time><name>PT4078</name></trkpt>
<trkpt lat="53.227583" lon="-1.849036"><ele>321</ele><time>2019-08-30T10:59:00Z</time><name>PT4079</name></trkpt>
<trkpt lat="53.227592" lon="-1.849018"><ele>321</ele><time>2019-08-30T10:59:01Z</time><name>PT4080</name></trkpt>
<trkpt lat="53.227600" lon="-1.849006"><ele>321</ele><time>2019-08-30T10:59:02Z</time><name>PT4081</name></trkpt>
<trkpt lat="53.227606" lon="-1.848988"><ele>321</ele><time>2019-08-30T10:59:03Z</time><name>PT4082</name></trkpt>
<trkpt lat="53.227615" lon="-1.848970"><ele>321</ele><time>2019-08-30T10:59:04Z</time><name>PT4083</name></trkpt>
<trkpt lat="53.227623" lon="-1.848952"><ele>321</ele><time>2019-08-30T10:59:05Z</time><name>PT4084</name></trkpt>
<trkpt lat="53.227630" lon="-1.848937"><ele>320</ele><time>2019-08-30T10:59:06Z</time><name>PT4085</name></trkpt>
<trkpt lat="53.227637" lon="-1.848925"><ele>320</ele><time>2019-08-30T10:59:07Z</time><name>PT4086</name></trkpt>
<trkpt lat="53.227644" lon="-1.848910"><ele>320</ele><time>2019-08-30T10:59:08Z</time><name>PT4087</name></trkpt>
<trkpt lat="53.227652" lon="-1.848895"><ele>320</ele><time>2019-08-30T10:59:09Z</time><name>PT4088</name></trkpt>
<trkpt lat="53.227660" lon="-1.848878"><ele>320</ele><time>2019-08-30T10:59:10Z</time><name>PT4089</name></trkpt>
<trkpt lat="53.227668" lon="-1.848864"><ele>320</ele><time>2019-08-30T10:59:11Z</time><name>PT4090</name></trkpt>
<trkpt lat="53.227682" lon="-1.848847"><ele>321</ele><time>2019-08-30T10:59:12Z</time><name>PT4091</name></trkpt>
<trkpt lat="53.227688" lon="-1.848829"><ele>321</ele><time>2019-08-30T10:59:13Z</time><name>PT4092</name></trkpt>
<trkpt lat="53.227696" lon="-1.848812"><ele>321</ele><time>2019-08-30T10:59:14Z</time><name>PT4093</name></trkpt>
<trkpt lat="53.227705" lon="-1.848795"><ele>321</ele><time>2019-08-30T10:59:15Z</time><name>PT4094</name></trkpt>
<trkpt lat="53.227717" lon="-1.848780"><ele>321</ele><time>2019-08-30T10:59:16Z</time><name>PT4095</name></trkpt>
<trkpt lat="53.227725" lon="-1.848771"><ele>321</ele><time>2019-08-30T10:59:17Z</time><name>PT4096</name></trkpt>
<trkpt lat="53.227735" lon="-1.848756"><ele>321</ele><time>2019-08-30T10:59:18Z</time><name>PT4097</name></trkpt>
<trkpt lat="53.227744" lon="-1.848739"><ele>321</ele><time>2019-08-30T10:59:19Z</time><name>PT4098</name></trkpt>
<trkpt lat="53.227752" lon="-1.848721"><ele>321</ele><time>2019-08-30T10:59:20Z</time><name>PT4099</name></trkpt>
<trkpt lat="53.227759" lon="-1.848700"><ele>321</ele><time>2019-08-30T10:59:21Z</time><name>PT4100</name></trkpt>
<trkpt lat="53.227764" lon="-1.848684"><ele>322</ele><time>2019-08-30T10:59:22Z</time><name>PT4101</name></trkpt>
<trkpt lat="53.227774" lon="-1.848662"><ele>322</ele><time>2019-08-30T10:59:23Z</time><name>PT4102</name></trkpt>
<trkpt lat="53.227782" lon="-1.848644"><ele>322</ele><time>2019-08-30T10:59:24Z</time><name>PT4103</name></trkpt>
<trkpt lat="53.227788" lon="-1.848630"><ele>322</ele><time>2019-08-30T10:59:25Z</time><name>PT4104</name></trkpt>
<trkpt lat="53.227793" lon="-1.848614"><ele>321</ele><time>2019-08-30T10:59:26Z</time><name>PT4105</name></trkpt>
<trkpt lat="53.227801" lon="-1.848598"><ele>321</ele><time>2019-08-30T10:59:27Z</time><name>PT4106</name></trkpt>
<trkpt lat="53.227813" lon="-1.848574"><ele>323</ele><time>2019-08-30T10:59:28Z</time><name>PT4107</name></trkpt>
<trkpt lat="53.227822" lon="-1.848561"><ele>323</ele><time>2019-08-30T10:59:29Z</time><name>PT4108</name></trkpt>
<trkpt lat="53.227831" lon="-1.848551"><ele>323</ele><time>2019-08-30T10:59:30Z</time><name>PT4109</name></trkpt>
<trkpt lat="53.227841" lon="-1.848525"><ele>323</ele><time>2019-08-30T10:59:31Z</time><name>PT4110</name></trkpt>
<trkpt lat="53.227845" lon="-1.848508"><ele>323</ele><time>2019-08-30T10:59:32Z</time><name>PT4111</name></trkpt>
<trkpt lat="53.227854" lon="-1.848487"><ele>324</ele><time>2019-08-30T10:59:33Z</time><name>PT4112</name></trkpt>
<trkpt lat="53.227862" lon="-1.848475"><ele>324</ele><time>2019-08-30T10:59:34Z</time><name>PT4113</name></trkpt>
<trkpt lat="53.227872" lon="-1.848463"><ele>325</ele><time>2019-08-30T10:59:35Z</time><name>PT4114</name></trkpt>
<trkpt lat="53.227877" lon="-1.848449"><ele>324</ele><time>2019-08-30T10:59:36Z</time><name>PT4115</name></trkpt>
<trkpt lat="53.227881" lon="-1.848441"><ele>324</ele><time>2019-08-30T10:59:37Z</time><name>PT4116</name></trkpt>
<trkpt lat="53.227882" lon="-1.848432"><ele>325</ele><time>2019-08-30T10:59:38Z</time><name>PT4117</name></trkpt>
<trkpt lat="53.227886" lon="-1.848427"><ele>325</ele><time>2019-08-30T10:59:39Z</time><name>PT4118</name></trkpt>
<trkpt lat="53.227893" lon="-1.848427"><ele>325</ele><time>2019-08-30T10:59:40Z</time><name>PT4119</name></trkpt>
<trkpt lat="53.227895" lon="-1.848426"><ele>325</ele><time>2019-08-30T10:59:41Z</time><name>PT4120</name></trkpt>
<trkpt lat="53.227896" lon="-1.848422"><ele>325</ele><time>2019-08-30T10:59:42Z</time><name>PT4121</name></trkpt>
<trkpt lat="53.227898" lon="-1.848416"><ele>325</ele><time>2019-08-30T10:59:43Z</time><name>PT4122</name></trkpt>
<trkpt lat="53.227900" lon="-1.848411"><ele>325</ele><time>2019-08-30T10:59:44Z</time><name>PT4123</name></trkpt>
<trkpt lat="53.227897" lon="-1.848406"><ele>325</ele><time>2019-08-30T10:59:45Z</time><name>PT4124</name></trkpt>
<trkpt lat="53.227897" lon="-1.848398"><ele>324</ele><time>2019-08-30T10:59:47Z</time><name>PT4125</name></trkpt>
<trkpt lat="53.227896" lon="-1.848392"><ele>324</ele><time>2019-08-30T10:59:48Z</time><name>PT4126</name></trkpt>
<trkpt lat="53.227892" lon="-1.848390"><ele>324</ele><time>2019-08-30T10:59:49Z</time><name>PT4127</name></trkpt>
<trkpt lat="53.227896" lon="-1.848370"><ele>324</ele><time>2019-08-30T10:59:50Z</time><name>PT4128</name></trkpt>
<trkpt lat="53.227900" lon="-1.848367"><ele>324</ele><time>2019-08-30T10:59:51Z</time><name>PT4129</name></trkpt>
<trkpt lat="53.227907" lon="-1.848346"><ele>324</ele><time>2019-08-30T10:59:52Z</time><name>PT4130</name></trkpt>
<trkpt lat="53.227907" lon="-1.848345"><ele>324</ele><time>2019-08-30T10:59:53Z</time><name>PT4131</name></trkpt>
<trkpt lat="53.227907" lon="-1.848342"><ele>324</ele><time>2019-08-30T10:59:54Z</time><name>PT4132</name></trkpt>
<trkpt lat="53.227905" lon="-1.848335"><ele>325</ele><time>2019-08-30T10:59:55Z</time><name>PT4133</name></trkpt>
<trkpt lat="53.227900" lon="-1.848327"><ele>325</ele><time>2019-08-30T10:59:56Z</time><name>PT4134</name></trkpt>
<trkpt lat="53.227897" lon="-1.848316"><ele>325</ele><time>2019-08-30T10:59:57Z</time><name>PT4135</name></trkpt>
<trkpt lat="53.227898" lon="-1.848310"><ele>325</ele><time>2019-08-30T10:59:58Z</time><name>PT4136</name></trkpt>
<trkpt lat="53.227897" lon="-1.848302"><ele>325</ele><time>2019-08-30T10:59:59Z</time><name>PT4137</name></trkpt>
<trkpt lat="53.227895" lon="-1.848295"><ele>325</ele><time>2019-08-30T11:00:00Z</time><name>PT4138</name></trkpt>
<trkpt lat="53.227891" lon="-1.848290"><ele>326</ele><time>2019-08-30T11:00:01Z</time><name>PT4139</name></trkpt>
<trkpt lat="53.227886" lon="-1.848284"><ele>325</ele><time>2019-08-30T11:00:02Z</time><name>PT4140</name></trkpt>
<trkpt lat="53.227880" lon="-1.848272"><ele>325</ele><time>2019-08-30T11:00:03Z</time><name>PT4141</name></trkpt>
<trkpt lat="53.227873" lon="-1.848264"><ele>325</ele><time>2019-08-30T11:00:04Z</time><name>PT4142</name></trkpt>
<trkpt lat="53.227861" lon="-1.848259"><ele>324</ele><time>2019-08-30T11:00:05Z</time><name>PT4143</name></trkpt>
<trkpt lat="53.227855" lon="-1.848252"><ele>324</ele><time>2019-08-30T11:00:06Z</time><name>PT4144</name></trkpt>
<trkpt lat="53.227856" lon="-1.848243"><ele>324</ele><time>2019-08-30T11:00:07Z</time><name>PT4145</name></trkpt>
<trkpt lat="53.227854" lon="-1.848244"><ele>324</ele><time>2019-08-30T11:00:08Z</time><name>PT4146</name></trkpt>
<trkpt lat="53.227861" lon="-1.848233"><ele>325</ele><time>2019-08-30T11:00:13Z</time><name>PT4147</name></trkpt>
<trkpt lat="53.227863" lon="-1.848222"><ele>324</ele><time>2019-08-30T11:00:14Z</time><name>PT4148</name></trkpt>
<trkpt lat="53.227868" lon="-1.848211"><ele>324</ele><time>2019-08-30T11:00:15Z</time><name>PT4149</name></trkpt>
<trkpt lat="53.227877" lon="-1.848195"><ele>324</ele><time>2019-08-30T11:00:16Z</time><name>PT4150</name></trkpt>
<trkpt lat="53.227879" lon="-1.848179"><ele>324</ele><time>2019-08-30T11:00:17Z</time><name>PT4151</name></trkpt>
<trkpt lat="53.227873" lon="-1.848160"><ele>325</ele><time>2019-08-30T11:00:18Z</time><name>PT4152</name></trkpt>
<trkpt lat="53.227875" lon="-1.848145"><ele>325</ele><time>2019-08-30T11:00:19Z</time><name>PT4153</name></trkpt>
<trkpt lat="53.227876" lon="-1.848126"><ele>324</ele><time>2019-08-30T11:00:20Z</time><name>PT4154</name></trkpt>
<trkpt lat="53.227876" lon="-1.848104"><ele>324</ele><time>2019-08-30T11:00:21Z</time><name>PT4155</name></trkpt>
<trkpt lat="53.227880" lon="-1.848081"><ele>325</ele><time>2019-08-30T11:00:22Z</time><name>PT4156</name></trkpt>
<trkpt lat="53.227882" lon="-1.848056"><ele>325</ele><time>2019-08-30T11:00:23Z</time><name>PT4157</name></trkpt>
<trkpt lat="53.227885" lon="-1.848032"><ele>325</ele><time>2019-08-30T11:00:24Z</time><name>PT4158</name></trkpt>
<trkpt lat="53.227889" lon="-1.848012"><ele>325</ele><time>2019-08-30T11:00:25Z</time><name>PT4159</name></trkpt>
<trkpt lat="53.227895" lon="-1.847995"><ele>325</ele><time>2019-08-30T11:00:27Z</time><name>PT4160</name></trkpt>
<trkpt lat="53.227899" lon="-1.847971"><ele>324</ele><time>2019-08-30T11:00:27Z</time><name>PT4161</name></trkpt>
<trkpt lat="53.227902" lon="-1.847949"><ele>324</ele><time>2019-08-30T11:00:28Z</time><name>PT4162</name></trkpt>
<trkpt lat="53.227906" lon="-1.847929"><ele>324</ele><time>2019-08-30T11:00:29Z</time><name>PT4163</name></trkpt>
<trkpt lat="53.227912" lon="-1.847908"><ele>324</ele><time>2019-08-30T11:00:30Z</time><name>PT4164</name></trkpt>
<trkpt lat="53.227915" lon="-1.847886"><ele>324</ele><time>2019-08-30T11:00:31Z</time><name>PT4165</name></trkpt>
<trkpt lat="53.227916" lon="-1.847862"><ele>324</ele><time>2019-08-30T11:00:32Z</time><name>PT4166</name></trkpt>
<trkpt lat="53.227918" lon="-1.847840"><ele>324</ele><time>2019-08-30T11:00:33Z</time><name>PT4167</name></trkpt>
<trkpt lat="53.227924" lon="-1.847819"><ele>324</ele><time>2019-08-30T11:00:34Z</time><name>PT4168</name></trkpt>
<trkpt lat="53.227930" lon="-1.847798"><ele>325</ele><time>2019-08-30T11:00:35Z</time><name>PT4169</name></trkpt>
<trkpt lat="53.227932" lon="-1.847776"><ele>324</ele><time>2019-08-30T11:00:36Z</time><name>PT4170</name></trkpt>
<trkpt lat="53.227933" lon="-1.847755"><ele>324</ele><time>2019-08-30T11:00:37Z</time><name>PT4171</name></trkpt>
<trkpt lat="53.227935" lon="-1.847732"><ele>324</ele><time>2019-08-30T11:00:38Z</time><name>PT4172</name></trkpt>
<trkpt lat="53.227936" lon="-1.847712"><ele>324</ele><time>2019-08-30T11:00:39Z</time><name>PT4173</name></trkpt>
<trkpt lat="53.227939" lon="-1.847691"><ele>324</ele><time>2019-08-30T11:00:40Z</time><name>PT4174</name></trkpt>
<trkpt lat="53.227944" lon="-1.847671"><ele>324</ele><time>2019-08-30T11:00:42Z</time><name>PT4175</name></trkpt>
<trkpt lat="53.227947" lon="-1.847650"><ele>324</ele><time>2019-08-30T11:00:42Z</time><name>PT4176</name></trkpt>
<trkpt lat="53.227951" lon="-1.847629"><ele>324</ele><time>2019-08-30T11:00:43Z</time><name>PT4177</name></trkpt>
<trkpt lat="53.227952" lon="-1.847606"><ele>324</ele><time>2019-08-30T11:00:44Z</time><name>PT4178</name></trkpt>
<trkpt lat="53.227952" lon="-1.847583"><ele>324</ele><time>2019-08-30T11:00:45Z</time><name>PT4179</name></trkpt>
<trkpt lat="53.227954" lon="-1.847561"><ele>324</ele><time>2019-08-30T11:00:46Z</time><name>PT4180</name></trkpt>
<trkpt lat="53.227957" lon="-1.847538"><ele>324</ele><time>2019-08-30T11:00:47Z</time><name>PT4181</name></trkpt>
<trkpt lat="53.227961" lon="-1.847511"><ele>324</ele><time>2019-08-30T11:00:48Z</time><name>PT4182</name></trkpt>
<trkpt lat="53.227963" lon="-1.847488"><ele>324</ele><time>2019-08-30T11:00:49Z</time><name>PT4183</name></trkpt>
<trkpt lat="53.227965" lon="-1.847467"><ele>324</ele><time>2019-08-30T11:00:50Z</time><name>PT4184</name></trkpt>
<trkpt lat="53.227966" lon="-1.847444"><ele>324</ele><time>2019-08-30T11:00:51Z</time><name>PT4185</name></trkpt>
<trkpt lat="53.227967" lon="-1.847418"><ele>324</ele><time>2019-08-30T11:00:52Z</time><name>PT4186</name></trkpt>
<trkpt lat="53.227968" lon="-1.847394"><ele>324</ele><time>2019-08-30T11:00:53Z</time><name>PT4187</name></trkpt>
<trkpt lat="53.227970" lon="-1.847371"><ele>324</ele><time>2019-08-30T11:00:54Z</time><name>PT4188</name></trkpt>
<trkpt lat="53.227973" lon="-1.847352"><ele>323</ele><time>2019-08-30T11:00:55Z</time><name>PT4189</name></trkpt>
<trkpt lat="53.227974" lon="-1.847326"><ele>324</ele><time>2019-08-30T11:00:57Z</time><name>PT4190</name></trkpt>
<trkpt lat="53.227977" lon="-1.847308"><ele>324</ele><time>2019-08-30T11:00:57Z</time><name>PT4191</name></trkpt>
<trkpt lat="53.227977" lon="-1.847287"><ele>324</ele><time>2019-08-30T11:00:58Z</time><name>PT4192</name></trkpt>
<trkpt lat="53.227977" lon="-1.847260"><ele>324</ele><time>2019-08-30T11:00:59Z</time><name>PT4193</name></trkpt>
<trkpt lat="53.227977" lon="-1.847235"><ele>324</ele><time>2019-08-30T11:01:00Z</time><name>PT4194</name></trkpt>
<trkpt lat="53.227978" lon="-1.847212"><ele>324</ele><time>2019-08-30T11:01:01Z</time><name>PT4195</name></trkpt>
<trkpt lat="53.227980" lon="-1.847202"><ele>324</ele><time>2019-08-30T11:01:02Z</time><name>PT4196</name></trkpt>
<trkpt lat="53.227981" lon="-1.847190"><ele>324</ele><time>2019-08-30T11:01:03Z</time><name>PT4197</name></trkpt>
<trkpt lat="53.227980" lon="-1.847178"><ele>324</ele><time>2019-08-30T11:01:04Z</time><name>PT4198</name></trkpt>
<trkpt lat="53.227983" lon="-1.847158"><ele>324</ele><time>2019-08-30T11:01:05Z</time><name>PT4199</name></trkpt>
<trkpt lat="53.227985" lon="-1.847134"><ele>324</ele><time>2019-08-30T11:01:06Z</time><name>PT4200</name></trkpt>
<trkpt lat="53.227987" lon="-1.847112"><ele>324</ele><time>2019-08-30T11:01:07Z</time><name>PT4201</name></trkpt>
<trkpt lat="53.227989" lon="-1.847093"><ele>324</ele><time>2019-08-30T11:01:08Z</time><name>PT4202</name></trkpt>
<trkpt lat="53.227993" lon="-1.847073"><ele>324</ele><time>2019-08-30T11:01:09Z</time><name>PT4203</name></trkpt>
<trkpt lat="53.227997" lon="-1.847051"><ele>324</ele><time>2019-08-30T11:01:10Z</time><name>PT4204</name></trkpt>
<trkpt lat="53.227998" lon="-1.847033"><ele>324</ele><time>2019-08-30T11:01:11Z</time><name>PT4205</name></trkpt>
<trkpt lat="53.228001" lon="-1.847012"><ele>324</ele><time>2019-08-30T11:01:12Z</time><name>PT4206</name></trkpt>
<trkpt lat="53.228003" lon="-1.846990"><ele>324</ele><time>2019-08-30T11:01:13Z</time><name>PT4207</name></trkpt>
<trkpt lat="53.228005" lon="-1.846967"><ele>324</ele><time>2019-08-30T11:01:14Z</time><name>PT4208</name></trkpt>
<trkpt lat="53.228008" lon="-1.846944"><ele>323</ele><time>2019-08-30T11:01:15Z</time><name>PT4209</name></trkpt>
<trkpt lat="53.228012" lon="-1.846924"><ele>324</ele><time>2019-08-30T11:01:16Z</time><name>PT4210</name></trkpt>
<trkpt lat="53.228017" lon="-1.846901"><ele>323</ele><time>2019-08-30T11:01:17Z</time><name>PT4211</name></trkpt>
<trkpt lat="53.228029" lon="-1.846870"><ele>325</ele><time>2019-08-30T11:01:18Z</time><name>PT4212</name></trkpt>
<trkpt lat="53.228031" lon="-1.846843"><ele>325</ele><time>2019-08-30T11:01:19Z</time><name>PT4213</name></trkpt>
<trkpt lat="53.228036" lon="-1.846823"><ele>326</ele><time>2019-08-30T11:01:20Z</time><name>PT4214</name></trkpt>
<trkpt lat="53.228039" lon="-1.846800"><ele>326</ele><time>2019-08-30T11:01:21Z</time><name>PT4215</name></trkpt>
<trkpt lat="53.228043" lon="-1.846778"><ele>326</ele><time>2019-08-30T11:01:22Z</time><name>PT4216</name></trkpt>
<trkpt lat="53.228045" lon="-1.846758"><ele>325</ele><time>2019-08-30T11:01:23Z</time><name>PT4217</name></trkpt>
<trkpt lat="53.228048" lon="-1.846737"><ele>325</ele><time>2019-08-30T11:01:24Z</time><name>PT4218</name></trkpt>
<trkpt lat="53.228052" lon="-1.846716"><ele>325</ele><time>2019-08-30T11:01:25Z</time><name>PT4219</name></trkpt>
<trkpt lat="53.228052" lon="-1.846695"><ele>325</ele><time>2019-08-30T11:01:26Z</time><name>PT4220</name></trkpt>
<trkpt lat="53.228050" lon="-1.846673"><ele>325</ele><time>2019-08-30T11:01:27Z</time><name>PT4221</name></trkpt>
<trkpt lat="53.228052" lon="-1.846651"><ele>324</ele><time>2019-08-30T11:01:28Z</time><name>PT4222</name></trkpt>
<trkpt lat="53.228053" lon="-1.846631"><ele>324</ele><time>2019-08-30T11:01:29Z</time><name>PT4223</name></trkpt>
<trkpt lat="53.228057" lon="-1.846609"><ele>324</ele><time>2019-08-30T11:01:30Z</time><name>PT4224</name></trkpt>
<trkpt lat="53.228060" lon="-1.846586"><ele>324</ele><time>2019-08-30T11:01:31Z</time><name>PT4225</name></trkpt>
<trkpt lat="53.228063" lon="-1.846564"><ele>324</ele><time>2019-08-30T11:01:32Z</time><name>PT4226</name></trkpt>
<trkpt lat="53.228068" lon="-1.846544"><ele>324</ele><time>2019-08-30T11:01:33Z</time><name>PT4227</name></trkpt>
<trkpt lat="53.228073" lon="-1.846522"><ele>324</ele><time>2019-08-30T11:01:34Z</time><name>PT4228</name></trkpt>
<trkpt lat="53.228076" lon="-1.846500"><ele>324</ele><time>2019-08-30T11:01:35Z</time><name>PT4229</name></trkpt>
<trkpt lat="53.228078" lon="-1.846481"><ele>324</ele><time>2019-08-30T11:01:36Z</time><name>PT4230</name></trkpt>
<trkpt lat="53.228081" lon="-1.846464"><ele>324</ele><time>2019-08-30T11:01:37Z</time><name>PT4231</name></trkpt>
<trkpt lat="53.228084" lon="-1.846444"><ele>323</ele><time>2019-08-30T11:01:38Z</time><name>PT4232</name></trkpt>
<trkpt lat="53.228084" lon="-1.846426"><ele>323</ele><time>2019-08-30T11:01:39Z</time><name>PT4233</name></trkpt>
<trkpt lat="53.228086" lon="-1.846404"><ele>322</ele><time>2019-08-30T11:01:40Z</time><name>PT4234</name></trkpt>
<trkpt lat="53.228086" lon="-1.846384"><ele>322</ele><time>2019-08-30T11:01:41Z</time><name>PT4235</name></trkpt>
<trkpt lat="53.228088" lon="-1.846366"><ele>322</ele><time>2019-08-30T11:01:42Z</time><name>PT4236</name></trkpt>
<trkpt lat="53.228087" lon="-1.846349"><ele>322</ele><time>2019-08-30T11:01:43Z</time><name>PT4237</name></trkpt>
<trkpt lat="53.228085" lon="-1.846328"><ele>321</ele><time>2019-08-30T11:01:44Z</time><name>PT4238</name></trkpt>
<trkpt lat="53.228083" lon="-1.846312"><ele>321</ele><time>2019-08-30T11:01:45Z</time><name>PT4239</name></trkpt>
<trkpt lat="53.228080" lon="-1.846298"><ele>321</ele><time>2019-08-30T11:01:46Z</time><name>PT4240</name></trkpt>
<trkpt lat="53.228077" lon="-1.846280"><ele>322</ele><time>2019-08-30T11:01:47Z</time><name>PT4241</name></trkpt>
<trkpt lat="53.228076" lon="-1.846265"><ele>322</ele><time>2019-08-30T11:01:48Z</time><name>PT4242</name></trkpt>
<trkpt lat="53.228075" lon="-1.846248"><ele>322</ele><time>2019-08-30T11:01:49Z</time><name>PT4243</name></trkpt>
<trkpt lat="53.228072" lon="-1.846234"><ele>322</ele><time>2019-08-30T11:01:50Z</time><name>PT4244</name></trkpt>
<trkpt lat="53.228069" lon="-1.846223"><ele>322</ele><time>2019-08-30T11:01:51Z</time><name>PT4245</name></trkpt>
<trkpt lat="53.228067" lon="-1.846212"><ele>322</ele><time>2019-08-30T11:01:52Z</time><name>PT4246</name></trkpt>
<trkpt lat="53.228066" lon="-1.846199"><ele>322</ele><time>2019-08-30T11:01:53Z</time><name>PT4247</name></trkpt>
<trkpt lat="53.228064" lon="-1.846188"><ele>321</ele><time>2019-08-30T11:01:54Z</time><name>PT4248</name></trkpt>
<trkpt lat="53.228062" lon="-1.846170"><ele>321</ele><time>2019-08-30T11:01:55Z</time><name>PT4249</name></trkpt>
<trkpt lat="53.228059" lon="-1.846153"><ele>321</ele><time>2019-08-30T11:01:56Z</time><name>PT4250</name></trkpt>
<trkpt lat="53.228060" lon="-1.846137"><ele>322</ele><time>2019-08-30T11:01:57Z</time><name>PT4251</name></trkpt>
<trkpt lat="53.228057" lon="-1.846122"><ele>322</ele><time>2019-08-30T11:01:58Z</time><name>PT4252</name></trkpt>
<trkpt lat="53.228052" lon="-1.846107"><ele>322</ele><time>2019-08-30T11:01:59Z</time><name>PT4253</name></trkpt>
<trkpt lat="53.228047" lon="-1.846097"><ele>322</ele><time>2019-08-30T11:02:00Z</time><name>PT4254</name></trkpt>
<trkpt lat="53.228042" lon="-1.846087"><ele>321</ele><time>2019-08-30T11:02:01Z</time><name>PT4255</name></trkpt>
<trkpt lat="53.228037" lon="-1.846076"><ele>321</ele><time>2019-08-30T11:02:02Z</time><name>PT4256</name></trkpt>
<trkpt lat="53.228036" lon="-1.846065"><ele>321</ele><time>2019-08-30T11:02:03Z</time><name>PT4257</name></trkpt>
<trkpt lat="53.228031" lon="-1.846054"><ele>320</ele><time>2019-08-30T11:02:04Z</time><name>PT4258</name></trkpt>
<trkpt lat="53.228027" lon="-1.846039"><ele>320</ele><time>2019-08-30T11:02:05Z</time><name>PT4259</name></trkpt>
<trkpt lat="53.228028" lon="-1.846024"><ele>320</ele><time>2019-08-30T11:02:06Z</time><name>PT4260</name></trkpt>
<trkpt lat="53.228028" lon="-1.846008"><ele>320</ele><time>2019-08-30T11:02:07Z</time><name>PT4261</name></trkpt>
<trkpt lat="53.228026" lon="-1.845995"><ele>320</ele><time>2019-08-30T11:02:08Z</time><name>PT4262</name></trkpt>
<trkpt lat="53.228024" lon="-1.845979"><ele>320</ele><time>2019-08-30T11:02:09Z</time><name>PT4263</name></trkpt>
<trkpt lat="53.228024" lon="-1.845966"><ele>320</ele><time>2019-08-30T11:02:10Z</time><name>PT4264</name></trkpt>
<trkpt lat="53.228024" lon="-1.845951"><ele>319</ele><time>2019-08-30T11:02:11Z</time><name>PT4265</name></trkpt>
<trkpt lat="53.228022" lon="-1.845937"><ele>319</ele><time>2019-08-30T11:02:12Z</time><name>PT4266</name></trkpt>
<trkpt lat="53.228021" lon="-1.845917"><ele>319</ele><time>2019-08-30T11:02:13Z</time><name>PT4267</name></trkpt>
<trkpt lat="53.228022" lon="-1.845900"><ele>319</ele><time>2019-08-30T11:02:14Z</time><name>PT4268</name></trkpt>
<trkpt lat="53.228021" lon="-1.845879"><ele>319</ele><time>2019-08-30T11:02:15Z</time><name>PT4269</name></trkpt>
<trkpt lat="53.228022" lon="-1.845864"><ele>320</ele><time>2019-08-30T11:02:16Z</time><name>PT4270</name></trkpt>
<trkpt lat="53.228026" lon="-1.845847"><ele>320</ele><time>2019-08-30T11:02:17Z</time><name>PT4271</name></trkpt>
<trkpt lat="53.228031" lon="-1.845831"><ele>320</ele><time>2019-08-30T11:02:18Z</time><name>PT4272</name></trkpt>
<trkpt lat="53.228031" lon="-1.845816"><ele>320</ele><time>2019-08-30T11:02:19Z</time><name>PT4273</name></trkpt>
<trkpt lat="53.228030" lon="-1.845799"><ele>320</ele><time>2019-08-30T11:02:20Z</time><name>PT4274</name></trkpt>
<trkpt lat="53.228030" lon="-1.845780"><ele>320</ele><time>2019-08-30T11:02:21Z</time><name>PT4275</name></trkpt>
<trkpt lat="53.228031" lon="-1.845759"><ele>321</ele><time>2019-08-30T11:02:22Z</time><name>PT4276</name></trkpt>
<trkpt lat="53.228032" lon="-1.845738"><ele>321</ele><time>2019-08-30T11:02:23Z</time><name>PT4277</name></trkpt>
<trkpt lat="53.228029" lon="-1.845718"><ele>321</ele><time>2019-08-30T11:02:24Z</time><name>PT4278</name></trkpt>
<trkpt lat="53.228027" lon="-1.845696"><ele>322</ele><time>2019-08-30T11:02:25Z</time><name>PT4279</name></trkpt>
<trkpt lat="53.228029" lon="-1.845677"><ele>322</ele><time>2019-08-30T11:02:26Z</time><name>PT4280</name></trkpt>
<trkpt lat="53.228026" lon="-1.845655"><ele>322</ele><time>2019-08-30T11:02:27Z</time><name>PT4281</name></trkpt>
<trkpt lat="53.228025" lon="-1.845633"><ele>322</ele><time>2019-08-30T11:02:28Z</time><name>PT4282</name></trkpt>
<trkpt lat="53.228029" lon="-1.845615"><ele>322</ele><time>2019-08-30T11:02:29Z</time><name>PT4283</name></trkpt>
<trkpt lat="53.228030" lon="-1.845597"><ele>322</ele><time>2019-08-30T11:02:30Z</time><name>PT4284</name></trkpt>
<trkpt lat="53.228030" lon="-1.845577"><ele>321</ele><time>2019-08-30T11:02:31Z</time><name>PT4285</name></trkpt>
<trkpt lat="53.228030" lon="-1.845560"><ele>322</ele><time>2019-08-30T11:02:32Z</time><name>PT4286</name></trkpt>
<trkpt lat="53.228031" lon="-1.845541"><ele>322</ele><time>2019-08-30T11:02:33Z</time><name>PT4287</name></trkpt>
<trkpt lat="53.228034" lon="-1.845524"><ele>322</ele><time>2019-08-30T11:02:34Z</time><name>PT4288</name></trkpt>
<trkpt lat="53.228034" lon="-1.845502"><ele>322</ele><time>2019-08-30T11:02:35Z</time><name>PT4289</name></trkpt>
<trkpt lat="53.228033" lon="-1.845483"><ele>322</ele><time>2019-08-30T11:02:36Z</time><name>PT4290</name></trkpt>
<trkpt lat="53.228032" lon="-1.845462"><ele>322</ele><time>2019-08-30T11:02:37Z</time><name>PT4291</name></trkpt>
<trkpt lat="53.228032" lon="-1.845439"><ele>322</ele><time>2019-08-30T11:02:38Z</time><name>PT4292</name></trkpt>
<trkpt lat="53.228036" lon="-1.845417"><ele>322</ele><time>2019-08-30T11:02:39Z</time><name>PT4293</name></trkpt>
<trkpt lat="53.228038" lon="-1.845401"><ele>322</ele><time>2019-08-30T11:02:40Z</time><name>PT4294</name></trkpt>
<trkpt lat="53.228039" lon="-1.845384"><ele>322</ele><time>2019-08-30T11:02:41Z</time><name>PT4295</name></trkpt>
<trkpt lat="53.228038" lon="-1.845363"><ele>322</ele><time>2019-08-30T11:02:42Z</time><name>PT4296</name></trkpt>
<trkpt lat="53.228038" lon="-1.845347"><ele>322</ele><time>2019-08-30T11:02:43Z</time><name>PT4297</name></trkpt>
<trkpt lat="53.228038" lon="-1.845329"><ele>322</ele><time>2019-08-30T11:02:44Z</time><name>PT4298</name></trkpt>
<trkpt lat="53.228036" lon="-1.845310"><ele>322</ele><time>2019-08-30T11:02:45Z</time><name>PT4299</name></trkpt>
<trkpt lat="53.228035" lon="-1.845292"><ele>322</ele><time>2019-08-30T11:02:46Z</time><name>PT4300</name></trkpt>
<trkpt lat="53.228036" lon="-1.845276"><ele>322</ele><time>2019-08-30T11:02:47Z</time><name>PT4301</name></trkpt>
<trkpt lat="53.228035" lon="-1.845257"><ele>322</ele><time>2019-08-30T11:02:48Z</time><name>PT4302</name></trkpt>
<trkpt lat="53.228035" lon="-1.845239"><ele>322</ele><time>2019-08-30T11:02:49Z</time><name>PT4303</name></trkpt>
<trkpt lat="53.228034" lon="-1.845221"><ele>322</ele><time>2019-08-30T11:02:50Z</time><name>PT4304</name></trkpt>
<trkpt lat="53.228033" lon="-1.845202"><ele>322</ele><time>2019-08-30T11:02:51Z</time><name>PT4305</name></trkpt>
<trkpt lat="53.228032" lon="-1.845180"><ele>322</ele><time>2019-08-30T11:02:52Z</time><name>PT4306</name></trkpt>
<trkpt lat="53.228031" lon="-1.845162"><ele>322</ele><time>2019-08-30T11:02:53Z</time><name>PT4307</name></trkpt>
<trkpt lat="53.228027" lon="-1.845143"><ele>322</ele><time>2019-08-30T11:02:54Z</time><name>PT4308</name></trkpt>
<trkpt lat="53.228026" lon="-1.845124"><ele>322</ele><time>2019-08-30T11:02:55Z</time><name>PT4309</name></trkpt>
<trkpt lat="53.228024" lon="-1.845105"><ele>322</ele><time>2019-08-30T11:02:56Z</time><name>PT4310</name></trkpt>
<trkpt lat="53.228022" lon="-1.845083"><ele>322</ele><time>2019-08-30T11:02:57Z</time><name>PT4311</name></trkpt>
<trkpt lat="53.228020" lon="-1.845063"><ele>322</ele><time>2019-08-30T11:02:58Z</time><name>PT4312</name></trkpt>
<trkpt lat="53.228018" lon="-1.845046"><ele>322</ele><time>2019-08-30T11:02:59Z</time><name>PT4313</name></trkpt>
<trkpt lat="53.228017" lon="-1.845026"><ele>322</ele><time>2019-08-30T11:03:00Z</time><name>PT4314</name></trkpt>
<trkpt lat="53.228014" lon="-1.845006"><ele>322</ele><time>2019-08-30T11:03:01Z</time><name>PT4315</name></trkpt>
<trkpt lat="53.228013" lon="-1.844988"><ele>322</ele><time>2019-08-30T11:03:02Z</time><name>PT4316</name></trkpt>
<trkpt lat="53.228014" lon="-1.844974"><ele>322</ele><time>2019-08-30T11:03:03Z</time><name>PT4317</name></trkpt>
<trkpt lat="53.228014" lon="-1.844954"><ele>322</ele><time>2019-08-30T11:03:04Z</time><name>PT4318</name></trkpt>
<trkpt lat="53.228012" lon="-1.844936"><ele>322</ele><time>2019-08-30T11:03:05Z</time><name>PT4319</name></trkpt>
<trkpt lat="53.228009" lon="-1.844918"><ele>322</ele><time>2019-08-30T11:03:06Z</time><name>PT4320</name></trkpt>
<trkpt lat="53.228007" lon="-1.844901"><ele>322</ele><time>2019-08-30T11:03:07Z</time><name>PT4321</name></trkpt>
<trkpt lat="53.228005" lon="-1.844881"><ele>321</ele><time>2019-08-30T11:03:08Z</time><name>PT4322</name></trkpt>
<trkpt lat="53.228003" lon="-1.844863"><ele>321</ele><time>2019-08-30T11:03:09Z</time><name>PT4323</name></trkpt>
<trkpt lat="53.227999" lon="-1.844850"><ele>321</ele><time>2019-08-30T11:03:10Z</time><name>PT4324</name></trkpt>
<trkpt lat="53.228001" lon="-1.844840"><ele>321</ele><time>2019-08-30T11:03:11Z</time><name>PT4325</name></trkpt>
<trkpt lat="53.228002" lon="-1.844824"><ele>322</ele><time>2019-08-30T11:03:12Z</time><name>PT4326</name></trkpt>
<trkpt lat="53.228002" lon="-1.844805"><ele>323</ele><time>2019-08-30T11:03:13Z</time><name>PT4327</name></trkpt>
<trkpt lat="53.228003" lon="-1.844794"><ele>323</ele><time>2019-08-30T11:03:14Z</time><name>PT4328</name></trkpt>
<trkpt lat="53.228004" lon="-1.844783"><ele>323</ele><time>2019-08-30T11:03:15Z</time><name>PT4329</name></trkpt>
<trkpt lat="53.228005" lon="-1.844771"><ele>323</ele><time>2019-08-30T11:03:16Z</time><name>PT4330</name></trkpt>
<trkpt lat="53.227997" lon="-1.844755"><ele>324</ele><time>2019-08-30T11:03:17Z</time><name>PT4331</name></trkpt>
<trkpt lat="53.227992" lon="-1.844742"><ele>324</ele><time>2019-08-30T11:03:18Z</time><name>PT4332</name></trkpt>
<trkpt lat="53.227987" lon="-1.844727"><ele>324</ele><time>2019-08-30T11:03:19Z</time><name>PT4333</name></trkpt>
<trkpt lat="53.227990" lon="-1.844712"><ele>324</ele><time>2019-08-30T11:03:20Z</time><name>PT4334</name></trkpt>
<trkpt lat="53.227985" lon="-1.844697"><ele>324</ele><time>2019-08-30T11:03:21Z</time><name>PT4335</name></trkpt>
<trkpt lat="53.227986" lon="-1.844688"><ele>324</ele><time>2019-08-30T11:03:22Z</time><name>PT4336</name></trkpt>
<trkpt lat="53.227987" lon="-1.844673"><ele>324</ele><time>2019-08-30T11:03:23Z</time><name>PT4337</name></trkpt>
<trkpt lat="53.227982" lon="-1.844655"><ele>324</ele><time>2019-08-30T11:03:24Z</time><name>PT4338</name></trkpt>
<trkpt lat="53.227979" lon="-1.844641"><ele>324</ele><time>2019-08-30T11:03:25Z</time><name>PT4339</name></trkpt>
<trkpt lat="53.227978" lon="-1.844627"><ele>325</ele><time>2019-08-30T11:03:26Z</time><name>PT4340</name></trkpt>
<trkpt lat="53.227976" lon="-1.844613"><ele>326</ele><time>2019-08-30T11:03:27Z</time><name>PT4341</name></trkpt>
<trkpt lat="53.227973" lon="-1.844597"><ele>326</ele><time>2019-08-30T11:03:28Z</time><name>PT4342</name></trkpt>
<trkpt lat="53.227969" lon="-1.844581"><ele>326</ele><time>2019-08-30T11:03:29Z</time><name>PT4343</name></trkpt>
<trkpt lat="53.227969" lon="-1.844565"><ele>326</ele><time>2019-08-30T11:03:30Z</time><name>PT4344</name></trkpt>
<trkpt lat="53.227971" lon="-1.844545"><ele>326</ele><time>2019-08-30T11:03:31Z</time><name>PT4345</name></trkpt>
<trkpt lat="53.227968" lon="-1.844529"><ele>326</ele><time>2019-08-30T11:03:32Z</time><name>PT4346</name></trkpt>
<trkpt lat="53.227968" lon="-1.844513"><ele>325</ele><time>2019-08-30T11:03:33Z</time><name>PT4347</name></trkpt>
<trkpt lat="53.227967" lon="-1.844490"><ele>325</ele><time>2019-08-30T11:03:34Z</time><name>PT4348</name></trkpt>
<trkpt lat="53.227966" lon="-1.844477"><ele>325</ele><time>2019-08-30T11:03:35Z</time><name>PT4349</name></trkpt>
<trkpt lat="53.227961" lon="-1.844459"><ele>325</ele><time>2019-08-30T11:03:36Z</time><name>PT4350</name></trkpt>
<trkpt lat="53.227963" lon="-1.844446"><ele>325</ele><time>2019-08-30T11:03:37Z</time><name>PT4351</name></trkpt>
<trkpt lat="53.227961" lon="-1.844431"><ele>325</ele><time>2019-08-30T11:03:38Z</time><name>PT4352</name></trkpt>
<trkpt lat="53.227961" lon="-1.844419"><ele>325</ele><time>2019-08-30T11:03:39Z</time><name>PT4353</name></trkpt>
<trkpt lat="53.227958" lon="-1.844408"><ele>324</ele><time>2019-08-30T11:03:40Z</time><name>PT4354</name></trkpt>
<trkpt lat="53.227955" lon="-1.844391"><ele>325</ele><time>2019-08-30T11:03:41Z</time><name>PT4355</name></trkpt>
<trkpt lat="53.227949" lon="-1.844382"><ele>325</ele><time>2019-08-30T11:03:42Z</time><name>PT4356</name></trkpt>
<trkpt lat="53.227944" lon="-1.844371"><ele>325</ele><time>2019-08-30T11:03:43Z</time><name>PT4357</name></trkpt>
<trkpt lat="53.227937" lon="-1.844358"><ele>325</ele><time>2019-08-30T11:03:44Z</time><name>PT4358</name></trkpt>
<trkpt lat="53.227935" lon="-1.844345"><ele>325</ele><time>2019-08-30T11:03:45Z</time><name>PT4359</name></trkpt>
<trkpt lat="53.227935" lon="-1.844334"><ele>325</ele><time>2019-08-30T11:03:46Z</time><name>PT4360</name></trkpt>
<trkpt lat="53.227932" lon="-1.844324"><ele>324</ele><time>2019-08-30T11:03:47Z</time><name>PT4361</name></trkpt>
<trkpt lat="53.227931" lon="-1.844313"><ele>324</ele><time>2019-08-30T11:03:48Z</time><name>PT4362</name></trkpt>
<trkpt lat="53.227930" lon="-1.844302"><ele>324</ele><time>2019-08-30T11:03:49Z</time><name>PT4363</name></trkpt>
<trkpt lat="53.227923" lon="-1.844284"><ele>323</ele><time>2019-08-30T11:03:50Z</time><name>PT4364</name></trkpt>
<trkpt lat="53.227909" lon="-1.844261"><ele>324</ele><time>2019-08-30T11:03:51Z</time><name>PT4365</name></trkpt>
<trkpt lat="53.227904" lon="-1.844242"><ele>324</ele><time>2019-08-30T11:03:52Z</time><name>PT4366</name></trkpt>
<trkpt lat="53.227903" lon="-1.844227"><ele>324</ele><time>2019-08-30T11:03:53Z</time><name>PT4367</name></trkpt>
<trkpt lat="53.227897" lon="-1.844203"><ele>324</ele><time>2019-08-30T11:03:54Z</time><name>PT4368</name></trkpt>
<trkpt lat="53.227893" lon="-1.844185"><ele>324</ele><time>2019-08-30T11:03:55Z</time><name>PT4369</name></trkpt>
<trkpt lat="53.227888" lon="-1.844164"><ele>324</ele><time>2019-08-30T11:03:56Z</time><name>PT4370</name></trkpt>
<trkpt lat="53.227884" lon="-1.844146"><ele>325</ele><time>2019-08-30T11:03:57Z</time><name>PT4371</name></trkpt>
<trkpt lat="53.227883" lon="-1.844125"><ele>325</ele><time>2019-08-30T11:03:58Z</time><name>PT4372</name></trkpt>
<trkpt lat="53.227882" lon="-1.844109"><ele>326</ele><time>2019-08-30T11:03:59Z</time><name>PT4373</name></trkpt>
<trkpt lat="53.227875" lon="-1.844092"><ele>326</ele><time>2019-08-30T11:04:00Z</time><name>PT4374</name></trkpt>
<trkpt lat="53.227867" lon="-1.844074"><ele>326</ele><time>2019-08-30T11:04:01Z</time><name>PT4375</name></trkpt>
<trkpt lat="53.227862" lon="-1.844061"><ele>326</ele><time>2019-08-30T11:04:02Z</time><name>PT4376</name></trkpt>
<trkpt lat="53.227857" lon="-1.844047"><ele>326</ele><time>2019-08-30T11:04:03Z</time><name>PT4377</name></trkpt>
<trkpt lat="53.227851" lon="-1.844034"><ele>327</ele><time>2019-08-30T11:04:04Z</time><name>PT4378</name></trkpt>
<trkpt lat="53.227844" lon="-1.844024"><ele>326</ele><time>2019-08-30T11:04:05Z</time><name>PT4379</name></trkpt>
<trkpt lat="53.227838" lon="-1.844013"><ele>327</ele><time>2019-08-30T11:04:06Z</time><name>PT4380</name></trkpt>
<trkpt lat="53.227835" lon="-1.844005"><ele>327</ele><time>2019-08-30T11:04:07Z</time><name>PT4381</name></trkpt>
<trkpt lat="53.227832" lon="-1.843982"><ele>325</ele><time>2019-08-30T11:04:08Z</time><name>PT4382</name></trkpt>
<trkpt lat="53.227829" lon="-1.843964"><ele>325</ele><time>2019-08-30T11:04:09Z</time><name>PT4383</name></trkpt>
<trkpt lat="53.227827" lon="-1.843942"><ele>326</ele><time>2019-08-30T11:04:10Z</time><name>PT4384</name></trkpt>
<trkpt lat="53.227822" lon="-1.843924"><ele>326</ele><time>2019-08-30T11:04:11Z</time><name>PT4385</name></trkpt>
<trkpt lat="53.227815" lon="-1.843906"><ele>326</ele><time>2019-08-30T11:04:12Z</time><name>PT4386</name></trkpt>
<trkpt lat="53.227808" lon="-1.843893"><ele>325</ele><time>2019-08-30T11:04:13Z</time><name>PT4387</name></trkpt>
<trkpt lat="53.227803" lon="-1.843878"><ele>324</ele><time>2019-08-30T11:04:14Z</time><name>PT4388</name></trkpt>
<trkpt lat="53.227794" lon="-1.843860"><ele>325</ele><time>2019-08-30T11:04:15Z</time><name>PT4389</name></trkpt>
<trkpt lat="53.227786" lon="-1.843848"><ele>325</ele><time>2019-08-30T11:04:16Z</time><name>PT4390</name></trkpt>
<trkpt lat="53.227779" lon="-1.843834"><ele>324</ele><time>2019-08-30T11:04:17Z</time><name>PT4391</name></trkpt>
<trkpt lat="53.227772" lon="-1.843817"><ele>325</ele><time>2019-08-30T11:04:18Z</time><name>PT4392</name></trkpt>
<trkpt lat="53.227767" lon="-1.843800"><ele>324</ele><time>2019-08-30T11:04:19Z</time><name>PT4393</name></trkpt>
<trkpt lat="53.227762" lon="-1.843783"><ele>324</ele><time>2019-08-30T11:04:20Z</time><name>PT4394</name></trkpt>
<trkpt lat="53.227756" lon="-1.843769"><ele>324</ele><time>2019-08-30T11:04:21Z</time><name>PT4395</name></trkpt>
<trkpt lat="53.227752" lon="-1.843751"><ele>324</ele><time>2019-08-30T11:04:22Z</time><name>PT4396</name></trkpt>
<trkpt lat="53.227749" lon="-1.843739"><ele>324</ele><time>2019-08-30T11:04:23Z</time><name>PT4397</name></trkpt>
<trkpt lat="53.227743" lon="-1.843728"><ele>323</ele><time>2019-08-30T11:04:24Z</time><name>PT4398</name></trkpt>
<trkpt lat="53.227738" lon="-1.843715"><ele>324</ele><time>2019-08-30T11:04:25Z</time><name>PT4399</name></trkpt>
<trkpt lat="53.227733" lon="-1.843707"><ele>324</ele><time>2019-08-30T11:04:26Z</time><name>PT4400</name></trkpt>
<trkpt lat="53.227729" lon="-1.843696"><ele>324</ele><time>2019-08-30T11:04:27Z</time><name>PT4401</name></trkpt>
<trkpt lat="53.227724" lon="-1.843688"><ele>324</ele><time>2019-08-30T11:04:28Z</time><name>PT4402</name></trkpt>
<trkpt lat="53.227722" lon="-1.843675"><ele>325</ele><time>2019-08-30T11:04:29Z</time><name>PT4403</name></trkpt>
<trkpt lat="53.227723" lon="-1.843665"><ele>325</ele><time>2019-08-30T11:04:30Z</time><name>PT4404</name></trkpt>
<trkpt lat="53.227722" lon="-1.843654"><ele>325</ele><time>2019-08-30T11:04:31Z</time><name>PT4405</name></trkpt>
<trkpt lat="53.227716" lon="-1.843643"><ele>325</ele><time>2019-08-30T11:04:32Z</time><name>PT4406</name></trkpt>
<trkpt lat="53.227714" lon="-1.843627"><ele>325</ele><time>2019-08-30T11:04:33Z</time><name>PT4407</name></trkpt>
<trkpt lat="53.227711" lon="-1.843610"><ele>325</ele><time>2019-08-30T11:04:34Z</time><name>PT4408</name></trkpt>
<trkpt lat="53.227708" lon="-1.843596"><ele>324</ele><time>2019-08-30T11:04:35Z</time><name>PT4409</name></trkpt>
<trkpt lat="53.227708" lon="-1.843586"><ele>324</ele><time>2019-08-30T11:04:36Z</time><name>PT4410</name></trkpt>
<trkpt lat="53.227709" lon="-1.843579"><ele>324</ele><time>2019-08-30T11:04:37Z</time><name>PT4411</name></trkpt>
<trkpt lat="53.227710" lon="-1.843571"><ele>325</ele><time>2019-08-30T11:04:38Z</time><name>PT4412</name></trkpt>
<trkpt lat="53.227711" lon="-1.843555"><ele>325</ele><time>2019-08-30T11:04:39Z</time><name>PT4413</name></trkpt>
<trkpt lat="53.227709" lon="-1.843542"><ele>324</ele><time>2019-08-30T11:04:40Z</time><name>PT4414</name></trkpt>
<trkpt lat="53.227702" lon="-1.843527"><ele>324</ele><time>2019-08-30T11:04:41Z</time><name>PT4415</name></trkpt>
<trkpt lat="53.227694" lon="-1.843512"><ele>324</ele><time>2019-08-30T11:04:42Z</time><name>PT4416</name></trkpt>
<trkpt lat="53.227691" lon="-1.843498"><ele>324</ele><time>2019-08-30T11:04:43Z</time><name>PT4417</name></trkpt>
<trkpt lat="53.227685" lon="-1.843483"><ele>323</ele><time>2019-08-30T11:04:44Z</time><name>PT4418</name></trkpt>
<trkpt lat="53.227677" lon="-1.843465"><ele>323</ele><time>2019-08-30T11:04:45Z</time><name>PT4419</name></trkpt>
<trkpt lat="53.227671" lon="-1.843444"><ele>324</ele><time>2019-08-30T11:04:46Z</time><name>PT4420</name></trkpt>
<trkpt lat="53.227668" lon="-1.843425"><ele>323</ele><time>2019-08-30T11:04:47Z</time><name>PT4421</name></trkpt>
<trkpt lat="53.227661" lon="-1.843405"><ele>323</ele><time>2019-08-30T11:04:48Z</time><name>PT4422</name></trkpt>
<trkpt lat="53.227658" lon="-1.843387"><ele>323</ele><time>2019-08-30T11:04:49Z</time><name>PT4423</name></trkpt>
<trkpt lat="53.227653" lon="-1.843370"><ele>323</ele><time>2019-08-30T11:04:50Z</time><name>PT4424</name></trkpt>
<trkpt lat="53.227647" lon="-1.843354"><ele>323</ele><time>2019-08-30T11:04:51Z</time><name>PT4425</name></trkpt>
<trkpt lat="53.227640" lon="-1.843340"><ele>323</ele><time>2019-08-30T11:04:52Z</time><name>PT4426</name></trkpt>
<trkpt lat="53.227639" lon="-1.843321"><ele>324</ele><time>2019-08-30T11:04:53Z</time><name>PT4427</name></trkpt>
<trkpt lat="53.227640" lon="-1.843303"><ele>324</ele><time>2019-08-30T11:04:54Z</time><name>PT4428</name></trkpt>
<trkpt lat="53.227639" lon="-1.843286"><ele>324</ele><time>2019-08-30T11:04:55Z</time><name>PT4429</name></trkpt>
<trkpt lat="53.227641" lon="-1.843271"><ele>324</ele><time>2019-08-30T11:04:56Z</time><name>PT4430</name></trkpt>
<trkpt lat="53.227641" lon="-1.843258"><ele>324</ele><time>2019-08-30T11:04:57Z</time><name>PT4431</name></trkpt>
<trkpt lat="53.227637" lon="-1.843242"><ele>323</ele><time>2019-08-30T11:04:58Z</time><name>PT4432</name></trkpt>
<trkpt lat="53.227634" lon="-1.843227"><ele>324</ele><time>2019-08-30T11:04:59Z</time><name>PT4433</name></trkpt>
<trkpt lat="53.227630" lon="-1.843210"><ele>324</ele><time>2019-08-30T11:05:00Z</time><name>PT4434</name></trkpt>
<trkpt lat="53.227626" lon="-1.843196"><ele>324</ele><time>2019-08-30T11:05:01Z</time><name>PT4435</name></trkpt>
<trkpt lat="53.227617" lon="-1.843183"><ele>324</ele><time>2019-08-30T11:05:02Z</time><name>PT4436</name></trkpt>
<trkpt lat="53.227610" lon="-1.843168"><ele>324</ele><time>2019-08-30T11:05:03Z</time><name>PT4437</name></trkpt>
<trkpt lat="53.227606" lon="-1.843148"><ele>324</ele><time>2019-08-30T11:05:04Z</time><name>PT4438</name></trkpt>
<trkpt lat="53.227603" lon="-1.843132"><ele>324</ele><time>2019-08-30T11:05:05Z</time><name>PT4439</name></trkpt>
<trkpt lat="53.227599" lon="-1.843122"><ele>324</ele><time>2019-08-30T11:05:06Z</time><name>PT4440</name></trkpt>
<trkpt lat="53.227594" lon="-1.843110"><ele>324</ele><time>2019-08-30T11:05:07Z</time><name>PT4441</name></trkpt>
<trkpt lat="53.227592" lon="-1.843096"><ele>325</ele><time>2019-08-30T11:05:08Z</time><name>PT4442</name></trkpt>
<trkpt lat="53.227588" lon="-1.843084"><ele>325</ele><time>2019-08-30T11:05:09Z</time><name>PT4443</name></trkpt>
<trkpt lat="53.227586" lon="-1.843067"><ele>325</ele><time>2019-08-30T11:05:10Z</time><name>PT4444</name></trkpt>
<trkpt lat="53.227585" lon="-1.843052"><ele>325</ele><time>2019-08-30T11:05:11Z</time><name>PT4445</name></trkpt>
<trkpt lat="53.227586" lon="-1.843036"><ele>325</ele><time>2019-08-30T11:05:12Z</time><name>PT4446</name></trkpt>
<trkpt lat="53.227585" lon="-1.843019"><ele>325</ele><time>2019-08-30T11:05:13Z</time><name>PT4447</name></trkpt>
<trkpt lat="53.227585" lon="-1.843006"><ele>325</ele><time>2019-08-30T11:05:14Z</time><name>PT4448</name></trkpt>
<trkpt lat="53.227582" lon="-1.842986"><ele>325</ele><time>2019-08-30T11:05:15Z</time><name>PT4449</name></trkpt>
<trkpt lat="53.227579" lon="-1.842972"><ele>325</ele><time>2019-08-30T11:05:16Z</time><name>PT4450</name></trkpt>
<trkpt lat="53.227577" lon="-1.842956"><ele>326</ele><time>2019-08-30T11:05:17Z</time><name>PT4451</name></trkpt>
<trkpt lat="53.227573" lon="-1.842938"><ele>326</ele><time>2019-08-30T11:05:18Z</time><name>PT4452</name></trkpt>
<trkpt lat="53.227571" lon="-1.842918"><ele>326</ele><time>2019-08-30T11:05:19Z</time><name>PT4453</name></trkpt>
<trkpt lat="53.227572" lon="-1.842899"><ele>326</ele><time>2019-08-30T11:05:20Z</time><name>PT4454</name></trkpt>
<trkpt lat="53.227570" lon="-1.842881"><ele>326</ele><time>2019-08-30T11:05:21Z</time><name>PT4455</name></trkpt>
<trkpt lat="53.227566" lon="-1.842860"><ele>326</ele><time>2019-08-30T11:05:22Z</time><name>PT4456</name></trkpt>
<trkpt lat="53.227567" lon="-1.842844"><ele>326</ele><time>2019-08-30T11:05:23Z</time><name>PT4457</name></trkpt>
<trkpt lat="53.227570" lon="-1.842824"><ele>326</ele><time>2019-08-30T11:05:24Z</time><name>PT4458</name></trkpt>
<trkpt lat="53.227572" lon="-1.842807"><ele>326</ele><time>2019-08-30T11:05:25Z</time><name>PT4459</name></trkpt>
<trkpt lat="53.227575" lon="-1.842787"><ele>325</ele><time>2019-08-30T11:05:26Z</time><name>PT4460</name></trkpt>
<trkpt lat="53.227579" lon="-1.842770"><ele>326</ele><time>2019-08-30T11:05:27Z</time><name>PT4461</name></trkpt>
<trkpt lat="53.227579" lon="-1.842755"><ele>326</ele><time>2019-08-30T11:05:28Z</time><name>PT4462</name></trkpt>
<trkpt lat="53.227583" lon="-1.842743"><ele>326</ele><time>2019-08-30T11:05:29Z</time><name>PT4463</name></trkpt>
<trkpt lat="53.227586" lon="-1.842722"><ele>326</ele><time>2019-08-30T11:05:30Z</time><name>PT4464</name></trkpt>
<trkpt lat="53.227588" lon="-1.842698"><ele>327</ele><time>2019-08-30T11:05:31Z</time><name>PT4465</name></trkpt>
<trkpt lat="53.227590" lon="-1.842682"><ele>327</ele><time>2019-08-30T11:05:32Z</time><name>PT4466</name></trkpt>
<trkpt lat="53.227590" lon="-1.842664"><ele>327</ele><time>2019-08-30T11:05:33Z</time><name>PT4467</name></trkpt>
<trkpt lat="53.227587" lon="-1.842648"><ele>327</ele><time>2019-08-30T11:05:34Z</time><name>PT4468</name></trkpt>
<trkpt lat="53.227585" lon="-1.842635"><ele>326</ele><time>2019-08-30T11:05:35Z</time><name>PT4469</name></trkpt>
<trkpt lat="53.227585" lon="-1.842627"><ele>326</ele><time>2019-08-30T11:05:36Z</time><name>PT4470</name></trkpt>
<trkpt lat="53.227581" lon="-1.842619"><ele>326</ele><time>2019-08-30T11:05:37Z</time><name>PT4471</name></trkpt>
<trkpt lat="53.227580" lon="-1.842608"><ele>327</ele><time>2019-08-30T11:05:38Z</time><name>PT4472</name></trkpt>
<trkpt lat="53.227580" lon="-1.842597"><ele>327</ele><time>2019-08-30T11:05:39Z</time><name>PT4473</name></trkpt>
<trkpt lat="53.227579" lon="-1.842583"><ele>327</ele><time>2019-08-30T11:05:40Z</time><name>PT4474</name></trkpt>
<trkpt lat="53.227578" lon="-1.842568"><ele>328</ele><time>2019-08-30T11:05:41Z</time><name>PT4475</name></trkpt>
<trkpt lat="53.227577" lon="-1.842553"><ele>328</ele><time>2019-08-30T11:05:42Z</time><name>PT4476</name></trkpt>
<trkpt lat="53.227577" lon="-1.842542"><ele>328</ele><time>2019-08-30T11:05:43Z</time><name>PT4477</name></trkpt>
<trkpt lat="53.227580" lon="-1.842526"><ele>328</ele><time>2019-08-30T11:05:44Z</time><name>PT4478</name></trkpt>
<trkpt lat="53.227581" lon="-1.842509"><ele>327</ele><time>2019-08-30T11:05:45Z</time><name>PT4479</name></trkpt>
<trkpt lat="53.227581" lon="-1.842495"><ele>327</ele><time>2019-08-30T11:05:46Z</time><name>PT4480</name></trkpt>
<trkpt lat="53.227581" lon="-1.842475"><ele>328</ele><time>2019-08-30T11:05:47Z</time><name>PT4481</name></trkpt>
<trkpt lat="53.227582" lon="-1.842470"><ele>328</ele><time>2019-08-30T11:05:48Z</time><name>PT4482</name></trkpt>
<trkpt lat="53.227584" lon="-1.842467"><ele>329</ele><time>2019-08-30T11:05:49Z</time><name>PT4483</name></trkpt>
<trkpt lat="53.227581" lon="-1.842463"><ele>329</ele><time>2019-08-30T11:05:50Z</time><name>PT4484</name></trkpt>
<trkpt lat="53.227580" lon="-1.842461"><ele>329</ele><time>2019-08-30T11:05:51Z</time><name>PT4485</name></trkpt>
<trkpt lat="53.227580" lon="-1.842457"><ele>329</ele><time>2019-08-30T11:05:52Z</time><name>PT4486</name></trkpt>
<trkpt lat="53.227581" lon="-1.842450"><ele>329</ele><time>2019-08-30T11:05:53Z</time><name>PT4487</name></trkpt>
<trkpt lat="53.227582" lon="-1.842439"><ele>329</ele><time>2019-08-30T11:05:54Z</time><name>PT4488</name></trkpt>
<trkpt lat="53.227583" lon="-1.842423"><ele>329</ele><time>2019-08-30T11:05:55Z</time><name>PT4489</name></trkpt>
<trkpt lat="53.227584" lon="-1.842410"><ele>329</ele><time>2019-08-30T11:05:56Z</time><name>PT4490</name></trkpt>
<trkpt lat="53.227585" lon="-1.842395"><ele>329</ele><time>2019-08-30T11:05:57Z</time><name>PT4491</name></trkpt>
<trkpt lat="53.227584" lon="-1.842380"><ele>329</ele><time>2019-08-30T11:05:58Z</time><name>PT4492</name></trkpt>
<trkpt lat="53.227585" lon="-1.842369"><ele>328</ele><time>2019-08-30T11:05:59Z</time><name>PT4493</name></trkpt>
<trkpt lat="53.227583" lon="-1.842357"><ele>328</ele><time>2019-08-30T11:06:00Z</time><name>PT4494</name></trkpt>
<trkpt lat="53.227584" lon="-1.842343"><ele>328</ele><time>2019-08-30T11:06:01Z</time><name>PT4495</name></trkpt>
<trkpt lat="53.227585" lon="-1.842331"><ele>328</ele><time>2019-08-30T11:06:02Z</time><name>PT4496</name></trkpt>
<trkpt lat="53.227585" lon="-1.842316"><ele>328</ele><time>2019-08-30T11:06:03Z</time><name>PT4497</name></trkpt>
<trkpt lat="53.227581" lon="-1.842301"><ele>328</ele><time>2019-08-30T11:06:04Z</time><name>PT4498</name></trkpt>
<trkpt lat="53.227580" lon="-1.842284"><ele>328</ele><time>2019-08-30T11:06:05Z</time><name>PT4499</name></trkpt>
<trkpt lat="53.227578" lon="-1.842270"><ele>327</ele><time>2019-08-30T11:06:06Z</time><name>PT4500</name></trkpt>
<trkpt lat="53.227574" lon="-1.842257"><ele>327</ele><time>2019-08-30T11:06:07Z</time><name>PT4501</name></trkpt>
<trkpt lat="53.227573" lon="-1.842244"><ele>326</ele><time>2019-08-30T11:06:08Z</time><name>PT4502</name></trkpt>
<trkpt lat="53.227568" lon="-1.842230"><ele>326</ele><time>2019-08-30T11:06:09Z</time><name>PT4503</name></trkpt>
<trkpt lat="53.227566" lon="-1.842213"><ele>326</ele><time>2019-08-30T11:06:10Z</time><name>PT4504</name></trkpt>
<trkpt lat="53.227567" lon="-1.842196"><ele>326</ele><time>2019-08-30T11:06:11Z</time><name>PT4505</name></trkpt>
<trkpt lat="53.227567" lon="-1.842182"><ele>326</ele><time>2019-08-30T11:06:12Z</time><name>PT4506</name></trkpt>
<trkpt lat="53.227566" lon="-1.842168"><ele>326</ele><time>2019-08-30T11:06:13Z</time><name>PT4507</name></trkpt>
<trkpt lat="53.227565" lon="-1.842154"><ele>326</ele><time>2019-08-30T11:06:14Z</time><name>PT4508</name></trkpt>
<trkpt lat="53.227569" lon="-1.842138"><ele>326</ele><time>2019-08-30T11:06:15Z</time><name>PT4509</name></trkpt>
<trkpt lat="53.227572" lon="-1.842124"><ele>326</ele><time>2019-08-30T11:06:16Z</time><name>PT4510</name></trkpt>
<trkpt lat="53.227576" lon="-1.842109"><ele>326</ele><time>2019-08-30T11:06:17Z</time><name>PT4511</name></trkpt>
<trkpt lat="53.227578" lon="-1.842091"><ele>326</ele><time>2019-08-30T11:06:18Z</time><name>PT4512</name></trkpt>
<trkpt lat="53.227581" lon="-1.842074"><ele>326</ele><time>2019-08-30T11:06:19Z</time><name>PT4513</name></trkpt>
<trkpt lat="53.227583" lon="-1.842056"><ele>326</ele><time>2019-08-30T11:06:20Z</time><name>PT4514</name></trkpt>
<trkpt lat="53.227584" lon="-1.842039"><ele>326</ele><time>2019-08-30T11:06:21Z</time><name>PT4515</name></trkpt>
<trkpt lat="53.227580" lon="-1.842017"><ele>325</ele><time>2019-08-30T11:06:22Z</time><name>PT4516</name></trkpt>
<trkpt lat="53.227581" lon="-1.841995"><ele>326</ele><time>2019-08-30T11:06:23Z</time><name>PT4517</name></trkpt>
<trkpt lat="53.227581" lon="-1.841974"><ele>326</ele><time>2019-08-30T11:06:24Z</time><name>PT4518</name></trkpt>
<trkpt lat="53.227578" lon="-1.841954"><ele>326</ele><time>2019-08-30T11:06:25Z</time><name>PT4519</name></trkpt>
<trkpt lat="53.227575" lon="-1.841935"><ele>326</ele><time>2019-08-30T11:06:26Z</time><name>PT4520</name></trkpt>
<trkpt lat="53.227575" lon="-1.841922"><ele>326</ele><time>2019-08-30T11:06:27Z</time><name>PT4521</name></trkpt>
<trkpt lat="53.227574" lon="-1.841909"><ele>325</ele><time>2019-08-30T11:06:28Z</time><name>PT4522</name></trkpt>
<trkpt lat="53.227573" lon="-1.841890"><ele>325</ele><time>2019-08-30T11:06:29Z</time><name>PT4523</name></trkpt>
<trkpt lat="53.227573" lon="-1.841867"><ele>325</ele><time>2019-08-30T11:06:30Z</time><name>PT4524</name></trkpt>
<trkpt lat="53.227575" lon="-1.841850"><ele>325</ele><time>2019-08-30T11:06:31Z</time><name>PT4525</name></trkpt>
<trkpt lat="53.227578" lon="-1.841843"><ele>326</ele><time>2019-08-30T11:06:32Z</time><name>PT4526</name></trkpt>
<trkpt lat="53.227578" lon="-1.841832"><ele>326</ele><time>2019-08-30T11:06:33Z</time><name>PT4527</name></trkpt>
<trkpt lat="53.227576" lon="-1.841816"><ele>326</ele><time>2019-08-30T11:06:34Z</time><name>PT4528</name></trkpt>
<trkpt lat="53.227575" lon="-1.841799"><ele>326</ele><time>2019-08-30T11:06:35Z</time><name>PT4529</name></trkpt>
<trkpt lat="53.227573" lon="-1.841780"><ele>326</ele><time>2019-08-30T11:06:36Z</time><name>PT4530</name></trkpt>
<trkpt lat="53.227572" lon="-1.841761"><ele>326</ele><time>2019-08-30T11:06:37Z</time><name>PT4531</name></trkpt>
<trkpt lat="53.227573" lon="-1.841746"><ele>326</ele><time>2019-08-30T11:06:38Z</time><name>PT4532</name></trkpt>
<trkpt lat="53.227573" lon="-1.841735"><ele>327</ele><time>2019-08-30T11:06:39Z</time><name>PT4533</name></trkpt>
<trkpt lat="53.227575" lon="-1.841714"><ele>327</ele><time>2019-08-30T11:06:40Z</time><name>PT4534</name></trkpt>
<trkpt lat="53.227573" lon="-1.841697"><ele>326</ele><time>2019-08-30T11:06:41Z</time><name>PT4535</name></trkpt>
<trkpt lat="53.227570" lon="-1.841681"><ele>327</ele><time>2019-08-30T11:06:42Z</time><name>PT4536</name></trkpt>
<trkpt lat="53.227568" lon="-1.841666"><ele>327</ele><time>2019-08-30T11:06:43Z</time><name>PT4537</name></trkpt>
<trkpt lat="53.227566" lon="-1.841648"><ele>327</ele><time>2019-08-30T11:06:44Z</time><name>PT4538</name></trkpt>
<trkpt lat="53.227570" lon="-1.841631"><ele>327</ele><time>2019-08-30T11:06:45Z</time><name>PT4539</name></trkpt>
<trkpt lat="53.227573" lon="-1.841619"><ele>327</ele><time>2019-08-30T11:06:46Z</time><name>PT4540</name></trkpt>
<trkpt lat="53.227576" lon="-1.841609"><ele>327</ele><time>2019-08-30T11:06:47Z</time><name>PT4541</name></trkpt>
<trkpt lat="53.227577" lon="-1.841589"><ele>327</ele><time>2019-08-30T11:06:48Z</time><name>PT4542</name></trkpt>
<trkpt lat="53.227576" lon="-1.841567"><ele>326</ele><time>2019-08-30T11:06:49Z</time><name>PT4543</name></trkpt>
<trkpt lat="53.227575" lon="-1.841556"><ele>326</ele><time>2019-08-30T11:06:50Z</time><name>PT4544</name></trkpt>
<trkpt lat="53.227576" lon="-1.841543"><ele>327</ele><time>2019-08-30T11:06:51Z</time><name>PT4545</name></trkpt>
<trkpt lat="53.227578" lon="-1.841527"><ele>327</ele><time>2019-08-30T11:06:52Z</time><name>PT4546</name></trkpt>
<trkpt lat="53.227579" lon="-1.841513"><ele>328</ele><time>2019-08-30T11:06:53Z</time><name>PT4547</name></trkpt>
<trkpt lat="53.227579" lon="-1.841493"><ele>327</ele><time>2019-08-30T11:06:54Z</time><name>PT4548</name></trkpt>
<trkpt lat="53.227579" lon="-1.841476"><ele>327</ele><time>2019-08-30T11:06:55Z</time><name>PT4549</name></trkpt>
<trkpt lat="53.227574" lon="-1.841460"><ele>327</ele><time>2019-08-30T11:06:56Z</time><name>PT4550</name></trkpt>
<trkpt lat="53.227572" lon="-1.841434"><ele>327</ele><time>2019-08-30T11:06:57Z</time><name>PT4551</name></trkpt>
<trkpt lat="53.227571" lon="-1.841417"><ele>327</ele><time>2019-08-30T11:06:58Z</time><name>PT4552</name></trkpt>
<trkpt lat="53.227568" lon="-1.841400"><ele>327</ele><time>2019-08-30T11:06:59Z</time><name>PT4553</name></trkpt>
<trkpt lat="53.227563" lon="-1.841381"><ele>328</ele><time>2019-08-30T11:07:00Z</time><name>PT4554</name></trkpt>
<trkpt lat="53.227563" lon="-1.841360"><ele>328</ele><time>2019-08-30T11:07:01Z</time><name>PT4555</name></trkpt>
<trkpt lat="53.227562" lon="-1.841339"><ele>328</ele><time>2019-08-30T11:07:02Z</time><name>PT4556</name></trkpt>
<trkpt lat="53.227561" lon="-1.841321"><ele>329</ele><time>2019-08-30T11:07:03Z</time><name>PT4557</name></trkpt>
<trkpt lat="53.227554" lon="-1.841295"><ele>328</ele><time>2019-08-30T11:07:04Z</time><name>PT4558</name></trkpt>
<trkpt lat="53.227550" lon="-1.841255"><ele>328</ele><time>2019-08-30T11:07:05Z</time><name>PT4559</name></trkpt>
<trkpt lat="53.227546" lon="-1.841223"><ele>328</ele><time>2019-08-30T11:07:06Z</time><name>PT4560</name></trkpt>
<trkpt lat="53.227551" lon="-1.841200"><ele>328</ele><time>2019-08-30T11:07:07Z</time><name>PT4561</name></trkpt>
<trkpt lat="53.227555" lon="-1.841184"><ele>328</ele><time>2019-08-30T11:07:08Z</time><name>PT4562</name></trkpt>
<trkpt lat="53.227556" lon="-1.841166"><ele>328</ele><time>2019-08-30T11:07:09Z</time><name>PT4563</name></trkpt>
<trkpt lat="53.227558" lon="-1.841137"><ele>329</ele><time>2019-08-30T11:07:10Z</time><name>PT4564</name></trkpt>
<trkpt lat="53.227559" lon="-1.841116"><ele>329</ele><time>2019-08-30T11:07:11Z</time><name>PT4565</name></trkpt>
<trkpt lat="53.227559" lon="-1.841096"><ele>329</ele><time>2019-08-30T11:07:12Z</time><name>PT4566</name></trkpt>
<trkpt lat="53.227567" lon="-1.841075"><ele>329</ele><time>2019-08-30T11:07:13Z</time><name>PT4567</name></trkpt>
<trkpt lat="53.227573" lon="-1.841057"><ele>330</ele><time>2019-08-30T11:07:14Z</time><name>PT4568</name></trkpt>
<trkpt lat="53.227584" lon="-1.841038"><ele>330</ele><time>2019-08-30T11:07:15Z</time><name>PT4569</name></trkpt>
<trkpt lat="53.227588" lon="-1.841022"><ele>331</ele><time>2019-08-30T11:07:16Z</time><name>PT4570</name></trkpt>
<trkpt lat="53.227591" lon="-1.841009"><ele>331</ele><time>2019-08-30T11:07:17Z</time><name>PT4571</name></trkpt>
<trkpt lat="53.227592" lon="-1.840995"><ele>331</ele><time>2019-08-30T11:07:18Z</time><name>PT4572</name></trkpt>
<trkpt lat="53.227592" lon="-1.840979"><ele>331</ele><time>2019-08-30T11:07:19Z</time><name>PT4573</name></trkpt>
<trkpt lat="53.227591" lon="-1.840962"><ele>332</ele><time>2019-08-30T11:07:20Z</time><name>PT4574</name></trkpt>
<trkpt lat="53.227590" lon="-1.840945"><ele>332</ele><time>2019-08-30T11:07:21Z</time><name>PT4575</name></trkpt>
<trkpt lat="53.227589" lon="-1.840932"><ele>332</ele><time>2019-08-30T11:07:22Z</time><name>PT4576</name></trkpt>
<trkpt lat="53.227586" lon="-1.840918"><ele>331</ele><time>2019-08-30T11:07:23Z</time><name>PT4577</name></trkpt>
<trkpt lat="53.227586" lon="-1.840908"><ele>331</ele><time>2019-08-30T11:07:24Z</time><name>PT4578</name></trkpt>
<trkpt lat="53.227585" lon="-1.840902"><ele>331</ele><time>2019-08-30T11:07:25Z</time><name>PT4579</name></trkpt>
<trkpt lat="53.227584" lon="-1.840893"><ele>331</ele><time>2019-08-30T11:07:26Z</time><name>PT4580</name></trkpt>
<trkpt lat="53.227582" lon="-1.840877"><ele>331</ele><time>2019-08-30T11:07:27Z</time><name>PT4581</name></trkpt>
<trkpt lat="53.227585" lon="-1.840864"><ele>331</ele><time>2019-08-30T11:07:28Z</time><name>PT4582</name></trkpt>
<trkpt lat="53.227587" lon="-1.840849"><ele>331</ele><time>2019-08-30T11:07:29Z</time><name>PT4583</name></trkpt>
<trkpt lat="53.227590" lon="-1.840835"><ele>330</ele><time>2019-08-30T11:07:30Z</time><name>PT4584</name></trkpt>
<trkpt lat="53.227594" lon="-1.840816"><ele>331</ele><time>2019-08-30T11:07:31Z</time><name>PT4585</name></trkpt>
<trkpt lat="53.227598" lon="-1.840796"><ele>331</ele><time>2019-08-30T11:07:32Z</time><name>PT4586</name></trkpt>
<trkpt lat="53.227606" lon="-1.840778"><ele>332</ele><time>2019-08-30T11:07:33Z</time><name>PT4587</name></trkpt>
<trkpt lat="53.227613" lon="-1.840759"><ele>332</ele><time>2019-08-30T11:07:34Z</time><name>PT4588</name></trkpt>
<trkpt lat="53.227617" lon="-1.840739"><ele>332</ele><time>2019-08-30T11:07:35Z</time><name>PT4589</name></trkpt>
<trkpt lat="53.227623" lon="-1.840722"><ele>332</ele><time>2019-08-30T11:07:36Z</time><name>PT4590</name></trkpt>
<trkpt lat="53.227623" lon="-1.840704"><ele>332</ele><time>2019-08-30T11:07:37Z</time><name>PT4591</name></trkpt>
<trkpt lat="53.227623" lon="-1.840682"><ele>332</ele><time>2019-08-30T11:07:38Z</time><name>PT4592</name></trkpt>
<trkpt lat="53.227629" lon="-1.840662"><ele>332</ele><time>2019-08-30T11:07:39Z</time><name>PT4593</name></trkpt>
<trkpt lat="53.227633" lon="-1.840645"><ele>332</ele><time>2019-08-30T11:07:40Z</time><name>PT4594</name></trkpt>
<trkpt lat="53.227637" lon="-1.840626"><ele>332</ele><time>2019-08-30T11:07:41Z</time><name>PT4595</name></trkpt>
<trkpt lat="53.227642" lon="-1.840608"><ele>332</ele><time>2019-08-30T11:07:42Z</time><name>PT4596</name></trkpt>
<trkpt lat="53.227648" lon="-1.840591"><ele>332</ele><time>2019-08-30T11:07:43Z</time><name>PT4597</name></trkpt>
<trkpt lat="53.227651" lon="-1.840569"><ele>333</ele><time>2019-08-30T11:07:44Z</time><name>PT4598</name></trkpt>
<trkpt lat="53.227652" lon="-1.840547"><ele>333</ele><time>2019-08-30T11:07:45Z</time><name>PT4599</name></trkpt>
<trkpt lat="53.227652" lon="-1.840526"><ele>333</ele><time>2019-08-30T11:07:46Z</time><name>PT4600</name></trkpt>
<trkpt lat="53.227656" lon="-1.840510"><ele>333</ele><time>2019-08-30T11:07:47Z</time><name>PT4601</name></trkpt>
<trkpt lat="53.227655" lon="-1.840486"><ele>333</ele><time>2019-08-30T11:07:48Z</time><name>PT4602</name></trkpt>
<trkpt lat="53.227658" lon="-1.840465"><ele>334</ele><time>2019-08-30T11:07:49Z</time><name>PT4603</name></trkpt>
<trkpt lat="53.227662" lon="-1.840449"><ele>333</ele><time>2019-08-30T11:07:50Z</time><name>PT4604</name></trkpt>
<trkpt lat="53.227666" lon="-1.840432"><ele>333</ele><time>2019-08-30T11:07:51Z</time><name>PT4605</name></trkpt>
<trkpt lat="53.227670" lon="-1.840413"><ele>333</ele><time>2019-08-30T11:07:52Z</time><name>PT4606</name></trkpt>
<trkpt lat="53.227674" lon="-1.840396"><ele>333</ele><time>2019-08-30T11:07:53Z</time><name>PT4607</name></trkpt>
<trkpt lat="53.227674" lon="-1.840374"><ele>332</ele><time>2019-08-30T11:07:54Z</time><name>PT4608</name></trkpt>
<trkpt lat="53.227679" lon="-1.840360"><ele>332</ele><time>2019-08-30T11:07:55Z</time><name>PT4609</name></trkpt>
<trkpt lat="53.227685" lon="-1.840341"><ele>333</ele><time>2019-08-30T11:07:56Z</time><name>PT4610</name></trkpt>
<trkpt lat="53.227693" lon="-1.840326"><ele>334</ele><time>2019-08-30T11:07:57Z</time><name>PT4611</name></trkpt>
<trkpt lat="53.227697" lon="-1.840306"><ele>335</ele><time>2019-08-30T11:07:58Z</time><name>PT4612</name></trkpt>
<trkpt lat="53.227700" lon="-1.840280"><ele>335</ele><time>2019-08-30T11:07:59Z</time><name>PT4613</name></trkpt>
<trkpt lat="53.227703" lon="-1.840258"><ele>335</ele><time>2019-08-30T11:08:00Z</time><name>PT4614</name></trkpt>
<trkpt lat="53.227707" lon="-1.840238"><ele>334</ele><time>2019-08-30T11:08:01Z</time><name>PT4615</name></trkpt>
<trkpt lat="53.227708" lon="-1.840216"><ele>334</ele><time>2019-08-30T11:08:02Z</time><name>PT4616</name></trkpt>
<trkpt lat="53.227709" lon="-1.840198"><ele>334</ele><time>2019-08-30T11:08:03Z</time><name>PT4617</name></trkpt>
<trkpt lat="53.227714" lon="-1.840178"><ele>335</ele><time>2019-08-30T11:08:04Z</time><name>PT4618</name></trkpt>
<trkpt lat="53.227719" lon="-1.840159"><ele>335</ele><time>2019-08-30T11:08:05Z</time><name>PT4619</name></trkpt>
<trkpt lat="53.227724" lon="-1.840138"><ele>335</ele><time>2019-08-30T11:08:06Z</time><name>PT4620</name></trkpt>
<trkpt lat="53.227725" lon="-1.840118"><ele>335</ele><time>2019-08-30T11:08:07Z</time><name>PT4621</name></trkpt>
<trkpt lat="53.227727" lon="-1.840096"><ele>335</ele><time>2019-08-30T11:08:08Z</time><name>PT4622</name></trkpt>
<trkpt lat="53.227731" lon="-1.840077"><ele>335</ele><time>2019-08-30T11:08:09Z</time><name>PT4623</name></trkpt>
<trkpt lat="53.227735" lon="-1.840057"><ele>335</ele><time>2019-08-30T11:08:10Z</time><name>PT4624</name></trkpt>
<trkpt lat="53.227742" lon="-1.840037"><ele>335</ele><time>2019-08-30T11:08:11Z</time><name>PT4625</name></trkpt>
<trkpt lat="53.227747" lon="-1.840016"><ele>335</ele><time>2019-08-30T11:08:12Z</time><name>PT4626</name></trkpt>
<trkpt lat="53.227751" lon="-1.839995"><ele>335</ele><time>2019-08-30T11:08:13Z</time><name>PT4627</name></trkpt>
<trkpt lat="53.227756" lon="-1.839975"><ele>335</ele><time>2019-08-30T11:08:14Z</time><name>PT4628</name></trkpt>
<trkpt lat="53.227760" lon="-1.839954"><ele>335</ele><time>2019-08-30T11:08:15Z</time><name>PT4629</name></trkpt>
<trkpt lat="53.227763" lon="-1.839936"><ele>335</ele><time>2019-08-30T11:08:16Z</time><name>PT4630</name></trkpt>
<trkpt lat="53.227766" lon="-1.839918"><ele>335</ele><time>2019-08-30T11:08:17Z</time><name>PT4631</name></trkpt>
<trkpt lat="53.227771" lon="-1.839902"><ele>335</ele><time>2019-08-30T11:08:18Z</time><name>PT4632</name></trkpt>
<trkpt lat="53.227776" lon="-1.839886"><ele>335</ele><time>2019-08-30T11:08:19Z</time><name>PT4633</name></trkpt>
<trkpt lat="53.227779" lon="-1.839871"><ele>334</ele><time>2019-08-30T11:08:20Z</time><name>PT4634</name></trkpt>
<trkpt lat="53.227784" lon="-1.839853"><ele>335</ele><time>2019-08-30T11:08:21Z</time><name>PT4635</name></trkpt>
<trkpt lat="53.227790" lon="-1.839836"><ele>335</ele><time>2019-08-30T11:08:22Z</time><name>PT4636</name></trkpt>
<trkpt lat="53.227796" lon="-1.839821"><ele>335</ele><time>2019-08-30T11:08:23Z</time><name>PT4637</name></trkpt>
<trkpt lat="53.227800" lon="-1.839805"><ele>335</ele><time>2019-08-30T11:08:24Z</time><name>PT4638</name></trkpt>
<trkpt lat="53.227802" lon="-1.839786"><ele>335</ele><time>2019-08-30T11:08:25Z</time><name>PT4639</name></trkpt>
<trkpt lat="53.227807" lon="-1.839769"><ele>336</ele><time>2019-08-30T11:08:26Z</time><name>PT4640</name></trkpt>
<trkpt lat="53.227813" lon="-1.839753"><ele>336</ele><time>2019-08-30T11:08:27Z</time><name>PT4641</name></trkpt>
<trkpt lat="53.227821" lon="-1.839735"><ele>336</ele><time>2019-08-30T11:08:28Z</time><name>PT4642</name></trkpt>
<trkpt lat="53.227823" lon="-1.839716"><ele>336</ele><time>2019-08-30T11:08:29Z</time><name>PT4643</name></trkpt>
<trkpt lat="53.227828" lon="-1.839702"><ele>336</ele><time>2019-08-30T11:08:30Z</time><name>PT4644</name></trkpt>
<trkpt lat="53.227835" lon="-1.839687"><ele>337</ele><time>2019-08-30T11:08:31Z</time><name>PT4645</name></trkpt>
<trkpt lat="53.227839" lon="-1.839673"><ele>337</ele><time>2019-08-30T11:08:32Z</time><name>PT4646</name></trkpt>
<trkpt lat="53.227844" lon="-1.839657"><ele>337</ele><time>2019-08-30T11:08:33Z</time><name>PT4647</name></trkpt>
<trkpt lat="53.227849" lon="-1.839642"><ele>337</ele><time>2019-08-30T11:08:34Z</time><name>PT4648</name></trkpt>
<trkpt lat="53.227856" lon="-1.839630"><ele>337</ele><time>2019-08-30T11:08:35Z</time><name>PT4649</name></trkpt>
<trkpt lat="53.227861" lon="-1.839620"><ele>337</ele><time>2019-08-30T11:08:36Z</time><name>PT4650</name></trkpt>
<trkpt lat="53.227866" lon="-1.839608"><ele>338</ele><time>2019-08-30T11:08:37Z</time><name>PT4651</name></trkpt>
<trkpt lat="53.227871" lon="-1.839599"><ele>338</ele><time>2019-08-30T11:08:38Z</time><name>PT4652</name></trkpt>
<trkpt lat="53.227876" lon="-1.839586"><ele>337</ele><time>2019-08-30T11:08:39Z</time><name>PT4653</name></trkpt>
<trkpt lat="53.227881" lon="-1.839577"><ele>337</ele><time>2019-08-30T11:08:40Z</time><name>PT4654</name></trkpt>
<trkpt lat="53.227886" lon="-1.839571"><ele>337</ele><time>2019-08-30T11:08:41Z</time><name>PT4655</name></trkpt>
<trkpt lat="53.227889" lon="-1.839561"><ele>337</ele><time>2019-08-30T11:08:42Z</time><name>PT4656</name></trkpt>
<trkpt lat="53.227892" lon="-1.839554"><ele>337</ele><time>2019-08-30T11:08:43Z</time><name>PT4657</name></trkpt>
<trkpt lat="53.227894" lon="-1.839549"><ele>337</ele><time>2019-08-30T11:08:44Z</time><name>PT4658</name></trkpt>
<trkpt lat="53.227896" lon="-1.839545"><ele>337</ele><time>2019-08-30T11:08:45Z</time><name>PT4659</name></trkpt>
<trkpt lat="53.227895" lon="-1.839540"><ele>337</ele><time>2019-08-30T11:08:46Z</time><name>PT4660</name></trkpt>
<trkpt lat="53.227894" lon="-1.839533"><ele>336</ele><time>2019-08-30T11:08:47Z</time><name>PT4661</name></trkpt>
<trkpt lat="53.227900" lon="-1.839510"><ele>336</ele><time>2019-08-30T11:08:56Z</time><name>PT4662</name></trkpt>
<trkpt lat="53.227902" lon="-1.839494"><ele>336</ele><time>2019-08-30T11:08:57Z</time><name>PT4663</name></trkpt>
<trkpt lat="53.227896" lon="-1.839483"><ele>336</ele><time>2019-08-30T11:08:58Z</time><name>PT4664</name></trkpt>
<trkpt lat="53.227895" lon="-1.839483"><ele>335</ele><time>2019-08-30T11:09:00Z</time><name>PT4665</name></trkpt>
<trkpt lat="53.227893" lon="-1.839462"><ele>336</ele><time>2019-08-30T11:09:01Z</time><name>PT4666</name></trkpt>
<trkpt lat="53.227893" lon="-1.839446"><ele>336</ele><time>2019-08-30T11:09:02Z</time><name>PT4667</name></trkpt>
<trkpt lat="53.227894" lon="-1.839452"><ele>336</ele><time>2019-08-30T11:09:07Z</time><name>PT4668</name></trkpt>
<trkpt lat="53.227893" lon="-1.839448"><ele>336</ele><time>2019-08-30T11:09:08Z</time><name>PT4669</name></trkpt>
<trkpt lat="53.227895" lon="-1.839447"><ele>336</ele><time>2019-08-30T11:09:09Z</time><name>PT4670</name></trkpt>
<trkpt lat="53.227894" lon="-1.839445"><ele>336</ele><time>2019-08-30T11:09:10Z</time><name>PT4671</name></trkpt>
<trkpt lat="53.227893" lon="-1.839437"><ele>336</ele><time>2019-08-30T11:09:11Z</time><name>PT4672</name></trkpt>
<trkpt lat="53.227893" lon="-1.839435"><ele>335</ele><time>2019-08-30T11:09:12Z</time><name>PT4673</name></trkpt>
<trkpt lat="53.227894" lon="-1.839430"><ele>336</ele><time>2019-08-30T11:09:40Z</time><name>PT4674</name></trkpt>
<trkpt lat="53.227896" lon="-1.839421"><ele>336</ele><time>2019-08-30T11:09:41Z</time><name>PT4675</name></trkpt>
<trkpt lat="53.227897" lon="-1.839396"><ele>336</ele><time>2019-08-30T11:09:46Z</time><name>PT4676</name></trkpt>
<trkpt lat="53.227898" lon="-1.839385"><ele>336</ele><time>2019-08-30T11:09:47Z</time><name>PT4677</name></trkpt>
<trkpt lat="53.227901" lon="-1.839371"><ele>336</ele><time>2019-08-30T11:09:48Z</time><name>PT4678</name></trkpt>
<trkpt lat="53.227898" lon="-1.839358"><ele>335</ele><time>2019-08-30T11:09:49Z</time><name>PT4679</name></trkpt>
<trkpt lat="53.227900" lon="-1.839339"><ele>335</ele><time>2019-08-30T11:09:50Z</time><name>PT4680</name></trkpt>
<trkpt lat="53.227903" lon="-1.839333"><ele>334</ele><time>2019-08-30T11:09:51Z</time><name>PT4681</name></trkpt>
<trkpt lat="53.227904" lon="-1.839330"><ele>334</ele><time>2019-08-30T11:09:52Z</time><name>PT4682</name></trkpt>
<trkpt lat="53.227904" lon="-1.839326"><ele>334</ele><time>2019-08-30T11:09:53Z</time><name>PT4683</name></trkpt>
<trkpt lat="53.227905" lon="-1.839322"><ele>335</ele><time>2019-08-30T11:09:54Z</time><name>PT4684</name></trkpt>
<trkpt lat="53.227903" lon="-1.839315"><ele>335</ele><time>2019-08-30T11:10:21Z</time><name>PT4685</name></trkpt>
<trkpt lat="53.227903" lon="-1.839325"><ele>335</ele><time>2019-08-30T11:10:22Z</time><name>PT4686</name></trkpt>
<trkpt lat="53.227903" lon="-1.839327"><ele>335</ele><time>2019-08-30T11:10:23Z</time><name>PT4687</name></trkpt>
<trkpt lat="53.227900" lon="-1.839329"><ele>335</ele><time>2019-08-30T11:10:24Z</time><name>PT4688</name></trkpt>
<trkpt lat="53.227898" lon="-1.839329"><ele>335</ele><time>2019-08-30T11:10:25Z</time><name>PT4689</name></trkpt>
<trkpt lat="53.227897" lon="-1.839329"><ele>335</ele><time>2019-08-30T11:10:26Z</time><name>PT4690</name></trkpt>
<trkpt lat="53.227897" lon="-1.839330"><ele>334</ele><time>2019-08-30T11:10:27Z</time><name>PT4691</name></trkpt>
<trkpt lat="53.227900" lon="-1.839317"><ele>335</ele><time>2019-08-30T11:11:08Z</time><name>PT4692</name></trkpt>
<trkpt lat="53.227901" lon="-1.839283"><ele>335</ele><time>2019-08-30T11:11:09Z</time><name>PT4693</name></trkpt>
<trkpt lat="53.227904" lon="-1.839273"><ele>335</ele><time>2019-08-30T11:11:10Z</time><name>PT4694</name></trkpt>
<trkpt lat="53.227909" lon="-1.839270"><ele>334</ele><time>2019-08-30T11:11:11Z</time><name>PT4695</name></trkpt>
<trkpt lat="53.227911" lon="-1.839261"><ele>334</ele><time>2019-08-30T11:11:12Z</time><name>PT4696</name></trkpt>
<trkpt lat="53.227915" lon="-1.839256"><ele>334</ele><time>2019-08-30T11:11:14Z</time><name>PT4697</name></trkpt>
<trkpt lat="53.227919" lon="-1.839250"><ele>334</ele><time>2019-08-30T11:11:14Z</time><name>PT4698</name></trkpt>
<trkpt lat="53.227926" lon="-1.839242"><ele>333</ele><time>2019-08-30T11:11:15Z</time><name>PT4699</name></trkpt>
<trkpt lat="53.227932" lon="-1.839235"><ele>333</ele><time>2019-08-30T11:11:16Z</time><name>PT4700</name></trkpt>
<trkpt lat="53.227938" lon="-1.839228"><ele>333</ele><time>2019-08-30T11:11:17Z</time><name>PT4701</name></trkpt>
<trkpt lat="53.227947" lon="-1.839222"><ele>333</ele><time>2019-08-30T11:11:18Z</time><name>PT4702</name></trkpt>
<trkpt lat="53.227953" lon="-1.839223"><ele>332</ele><time>2019-08-30T11:11:19Z</time><name>PT4703</name></trkpt>
<trkpt lat="53.227961" lon="-1.839218"><ele>332</ele><time>2019-08-30T11:11:20Z</time><name>PT4704</name></trkpt>
<trkpt lat="53.227972" lon="-1.839213"><ele>332</ele><time>2019-08-30T11:11:21Z</time><name>PT4705</name></trkpt>
<trkpt lat="53.227983" lon="-1.839207"><ele>333</ele><time>2019-08-30T11:11:22Z</time><name>PT4706</name></trkpt>
<trkpt lat="53.227995" lon="-1.839205"><ele>333</ele><time>2019-08-30T11:11:23Z</time><name>PT4707</name></trkpt>
<trkpt lat="53.228003" lon="-1.839200"><ele>333</ele><time>2019-08-30T11:11:24Z</time><name>PT4708</name></trkpt>
<trkpt lat="53.228008" lon="-1.839193"><ele>333</ele><time>2019-08-30T11:11:25Z</time><name>PT4709</name></trkpt>
<trkpt lat="53.228013" lon="-1.839187"><ele>333</ele><time>2019-08-30T11:11:26Z</time><name>PT4710</name></trkpt>
<trkpt lat="53.228020" lon="-1.839182"><ele>334</ele><time>2019-08-30T11:11:27Z</time><name>PT4711</name></trkpt>
<trkpt lat="53.228027" lon="-1.839174"><ele>334</ele><time>2019-08-30T11:11:29Z</time><name>PT4712</name></trkpt>
<trkpt lat="53.228037" lon="-1.839167"><ele>334</ele><time>2019-08-30T11:11:29Z</time><name>PT4713</name></trkpt>
<trkpt lat="53.228042" lon="-1.839168"><ele>334</ele><time>2019-08-30T11:11:30Z</time><name>PT4714</name></trkpt>
<trkpt lat="53.228049" lon="-1.839167"><ele>334</ele><time>2019-08-30T11:11:31Z</time><name>PT4715</name></trkpt>
<trkpt lat="53.228057" lon="-1.839157"><ele>334</ele><time>2019-08-30T11:11:32Z</time><name>PT4716</name></trkpt>
<trkpt lat="53.228061" lon="-1.839150"><ele>334</ele><time>2019-08-30T11:11:33Z</time><name>PT4717</name></trkpt>
<trkpt lat="53.228070" lon="-1.839140"><ele>334</ele><time>2019-08-30T11:11:34Z</time><name>PT4718</name></trkpt>
<trkpt lat="53.228079" lon="-1.839132"><ele>334</ele><time>2019-08-30T11:11:35Z</time><name>PT4719</name></trkpt>
<trkpt lat="53.228087" lon="-1.839125"><ele>334</ele><time>2019-08-30T11:11:36Z</time><name>PT4720</name></trkpt>
<trkpt lat="53.228093" lon="-1.839115"><ele>334</ele><time>2019-08-30T11:11:37Z</time><name>PT4721</name></trkpt>
<trkpt lat="53.228103" lon="-1.839110"><ele>334</ele><time>2019-08-30T11:11:38Z</time><name>PT4722</name></trkpt>
<trkpt lat="53.228112" lon="-1.839103"><ele>334</ele><time>2019-08-30T11:11:39Z</time><name>PT4723</name></trkpt>
<trkpt lat="53.228119" lon="-1.839103"><ele>334</ele><time>2019-08-30T11:11:40Z</time><name>PT4724</name></trkpt>
<trkpt lat="53.228125" lon="-1.839103"><ele>334</ele><time>2019-08-30T11:11:41Z</time><name>PT4725</name></trkpt>
<trkpt lat="53.228133" lon="-1.839100"><ele>334</ele><time>2019-08-30T11:11:42Z</time><name>PT4726</name></trkpt>
<trkpt lat="53.228143" lon="-1.839091"><ele>334</ele><time>2019-08-30T11:11:43Z</time><name>PT4727</name></trkpt>
<trkpt lat="53.228152" lon="-1.839085"><ele>333</ele><time>2019-08-30T11:11:44Z</time><name>PT4728</name></trkpt>
<trkpt lat="53.228161" lon="-1.839080"><ele>333</ele><time>2019-08-30T11:11:45Z</time><name>PT4729</name></trkpt>
<trkpt lat="53.228170" lon="-1.839075"><ele>333</ele><time>2019-08-30T11:11:46Z</time><name>PT4730</name></trkpt>
<trkpt lat="53.228177" lon="-1.839066"><ele>333</ele><time>2019-08-30T11:11:47Z</time><name>PT4731</name></trkpt>
<trkpt lat="53.228184" lon="-1.839058"><ele>333</ele><time>2019-08-30T11:11:49Z</time><name>PT4732</name></trkpt>
<trkpt lat="53.228193" lon="-1.839053"><ele>333</ele><time>2019-08-30T11:11:49Z</time><name>PT4733</name></trkpt>
<trkpt lat="53.228200" lon="-1.839049"><ele>333</ele><time>2019-08-30T11:11:50Z</time><name>PT4734</name></trkpt>
<trkpt lat="53.228209" lon="-1.839038"><ele>333</ele><time>2019-08-30T11:11:51Z</time><name>PT4735</name></trkpt>
<trkpt lat="53.228214" lon="-1.839032"><ele>333</ele><time>2019-08-30T11:11:52Z</time><name>PT4736</name></trkpt>
<trkpt lat="53.228224" lon="-1.839026"><ele>334</ele><time>2019-08-30T11:11:53Z</time><name>PT4737</name></trkpt>
<trkpt lat="53.228231" lon="-1.839021"><ele>334</ele><time>2019-08-30T11:11:54Z</time><name>PT4738</name></trkpt>
<trkpt lat="53.228238" lon="-1.839010"><ele>333</ele><time>2019-08-30T11:11:55Z</time><name>PT4739</name></trkpt>
<trkpt lat="53.228248" lon="-1.839005"><ele>333</ele><time>2019-08-30T11:11:56Z</time><name>PT4740</name></trkpt>
<trkpt lat="53.228261" lon="-1.839003"><ele>333</ele><time>2019-08-30T11:11:57Z</time><name>PT4741</name></trkpt>
<trkpt lat="53.228269" lon="-1.839000"><ele>333</ele><time>2019-08-30T11:11:58Z</time><name>PT4742</name></trkpt>
<trkpt lat="53.228279" lon="-1.838990"><ele>333</ele><time>2019-08-30T11:11:59Z</time><name>PT4743</name></trkpt>
<trkpt lat="53.228288" lon="-1.838979"><ele>333</ele><time>2019-08-30T11:12:00Z</time><name>PT4744</name></trkpt>
<trkpt lat="53.228301" lon="-1.838970"><ele>333</ele><time>2019-08-30T11:12:01Z</time><name>PT4745</name></trkpt>
<trkpt lat="53.228312" lon="-1.838968"><ele>333</ele><time>2019-08-30T11:12:02Z</time><name>PT4746</name></trkpt>
<trkpt lat="53.228319" lon="-1.838967"><ele>333</ele><time>2019-08-30T11:12:03Z</time><name>PT4747</name></trkpt>
<trkpt lat="53.228326" lon="-1.838966"><ele>333</ele><time>2019-08-30T11:12:04Z</time><name>PT4748</name></trkpt>
<trkpt lat="53.228332" lon="-1.838964"><ele>332</ele><time>2019-08-30T11:12:05Z</time><name>PT4749</name></trkpt>
<trkpt lat="53.228339" lon="-1.838961"><ele>332</ele><time>2019-08-30T11:12:06Z</time><name>PT4750</name></trkpt>
<trkpt lat="53.228346" lon="-1.838956"><ele>332</ele><time>2019-08-30T11:12:07Z</time><name>PT4751</name></trkpt>
<trkpt lat="53.228352" lon="-1.838949"><ele>332</ele><time>2019-08-30T11:12:08Z</time><name>PT4752</name></trkpt>
<trkpt lat="53.228358" lon="-1.838943"><ele>332</ele><time>2019-08-30T11:12:09Z</time><name>PT4753</name></trkpt>
<trkpt lat="53.228363" lon="-1.838938"><ele>332</ele><time>2019-08-30T11:12:10Z</time><name>PT4754</name></trkpt>
<trkpt lat="53.228368" lon="-1.838935"><ele>332</ele><time>2019-08-30T11:12:11Z</time><name>PT4755</name></trkpt>
<trkpt lat="53.228373" lon="-1.838925"><ele>332</ele><time>2019-08-30T11:12:12Z</time><name>PT4756</name></trkpt>
<trkpt lat="53.228381" lon="-1.838916"><ele>333</ele><time>2019-08-30T11:12:13Z</time><name>PT4757</name></trkpt>
<trkpt lat="53.228386" lon="-1.838910"><ele>333</ele><time>2019-08-30T11:12:14Z</time><name>PT4758</name></trkpt>
<trkpt lat="53.228395" lon="-1.838901"><ele>332</ele><time>2019-08-30T11:12:15Z</time><name>PT4759</name></trkpt>
<trkpt lat="53.228404" lon="-1.838897"><ele>332</ele><time>2019-08-30T11:12:16Z</time><name>PT4760</name></trkpt>
<trkpt lat="53.228409" lon="-1.838896"><ele>332</ele><time>2019-08-30T11:12:17Z</time><name>PT4761</name></trkpt>
<trkpt lat="53.228413" lon="-1.838893"><ele>332</ele><time>2019-08-30T11:12:18Z</time><name>PT4762</name></trkpt>
<trkpt lat="53.228420" lon="-1.838885"><ele>332</ele><time>2019-08-30T11:12:19Z</time><name>PT4763</name></trkpt>
<trkpt lat="53.228428" lon="-1.838880"><ele>332</ele><time>2019-08-30T11:12:20Z</time><name>PT4764</name></trkpt>
<trkpt lat="53.228440" lon="-1.838877"><ele>332</ele><time>2019-08-30T11:12:21Z</time><name>PT4765</name></trkpt>
<trkpt lat="53.228442" lon="-1.838871"><ele>331</ele><time>2019-08-30T11:12:22Z</time><name>PT4766</name></trkpt>
<trkpt lat="53.228447" lon="-1.838860"><ele>331</ele><time>2019-08-30T11:12:23Z</time><name>PT4767</name></trkpt>
<trkpt lat="53.228453" lon="-1.838852"><ele>331</ele><time>2019-08-30T11:12:24Z</time><name>PT4768</name></trkpt>
<trkpt lat="53.228459" lon="-1.838845"><ele>330</ele><time>2019-08-30T11:12:25Z</time><name>PT4769</name></trkpt>
<trkpt lat="53.228467" lon="-1.838836"><ele>330</ele><time>2019-08-30T11:12:26Z</time><name>PT4770</name></trkpt>
<trkpt lat="53.228477" lon="-1.838827"><ele>330</ele><time>2019-08-30T11:12:27Z</time><name>PT4771</name></trkpt>
<trkpt lat="53.228478" lon="-1.838822"><ele>330</ele><time>2019-08-30T11:12:28Z</time><name>PT4772</name></trkpt>
<trkpt lat="53.228485" lon="-1.838810"><ele>331</ele><time>2019-08-30T11:12:29Z</time><name>PT4773</name></trkpt>
<trkpt lat="53.228489" lon="-1.838805"><ele>332</ele><time>2019-08-30T11:12:30Z</time><name>PT4774</name></trkpt>
<trkpt lat="53.228494" lon="-1.838798"><ele>332</ele><time>2019-08-30T11:12:31Z</time><name>PT4775</name></trkpt>
<trkpt lat="53.228521" lon="-1.838785"><ele>335</ele><time>2019-08-30T11:12:32Z</time><name>PT4776</name></trkpt>
<trkpt lat="53.228523" lon="-1.838774"><ele>334</ele><time>2019-08-30T11:12:33Z</time><name>PT4777</name></trkpt>
<trkpt lat="53.228519" lon="-1.838761"><ele>334</ele><time>2019-08-30T11:12:34Z</time><name>PT4778</name></trkpt>
<trkpt lat="53.228515" lon="-1.838752"><ele>335</ele><time>2019-08-30T11:12:35Z</time><name>PT4779</name></trkpt>
<trkpt lat="53.228516" lon="-1.838742"><ele>335</ele><time>2019-08-30T11:12:36Z</time><name>PT4780</name></trkpt>
<trkpt lat="53.228519" lon="-1.838734"><ele>335</ele><time>2019-08-30T11:12:37Z</time><name>PT4781</name></trkpt>
<trkpt lat="53.228519" lon="-1.838735"><ele>336</ele><time>2019-08-30T11:12:38Z</time><name>PT4782</name></trkpt>
<trkpt lat="53.228519" lon="-1.838737"><ele>336</ele><time>2019-08-30T11:12:39Z</time><name>PT4783</name></trkpt>
<trkpt lat="53.228528" lon="-1.838732"><ele>337</ele><time>2019-08-30T11:12:40Z</time><name>PT4784</name></trkpt>
<trkpt lat="53.228532" lon="-1.838721"><ele>338</ele><time>2019-08-30T11:12:41Z</time><name>PT4785</name></trkpt>
<trkpt lat="53.228541" lon="-1.838713"><ele>338</ele><time>2019-08-30T11:12:42Z</time><name>PT4786</name></trkpt>
<trkpt lat="53.228543" lon="-1.838711"><ele>338</ele><time>2019-08-30T11:12:43Z</time><name>PT4787</name></trkpt>
<trkpt lat="53.228545" lon="-1.838711"><ele>338</ele><time>2019-08-30T11:12:44Z</time><name>PT4788</name></trkpt>
<trkpt lat="53.228543" lon="-1.838707"><ele>339</ele><time>2019-08-30T11:12:45Z</time><name>PT4789</name></trkpt>
<trkpt lat="53.228537" lon="-1.838696"><ele>339</ele><time>2019-08-30T11:12:46Z</time><name>PT4790</name></trkpt>
<trkpt lat="53.228536" lon="-1.838685"><ele>339</ele><time>2019-08-30T11:12:48Z</time><name>PT4791</name></trkpt>
<trkpt lat="53.228533" lon="-1.838670"><ele>339</ele><time>2019-08-30T11:12:48Z</time><name>PT4792</name></trkpt>
<trkpt lat="53.228534" lon="-1.838658"><ele>339</ele><time>2019-08-30T11:12:49Z</time><name>PT4793</name></trkpt>
<trkpt lat="53.228535" lon="-1.838648"><ele>339</ele><time>2019-08-30T11:12:50Z</time><name>PT4794</name></trkpt>
<trkpt lat="53.228532" lon="-1.838634"><ele>339</ele><time>2019-08-30T11:12:51Z</time><name>PT4795</name></trkpt>
<trkpt lat="53.228531" lon="-1.838620"><ele>339</ele><time>2019-08-30T11:12:52Z</time><name>PT4796</name></trkpt>
<trkpt lat="53.228532" lon="-1.838611"><ele>339</ele><time>2019-08-30T11:12:54Z</time><name>PT4797</name></trkpt>
<trkpt lat="53.228528" lon="-1.838600"><ele>339</ele><time>2019-08-30T11:12:54Z</time><name>PT4798</name></trkpt>
<trkpt lat="53.228524" lon="-1.838593"><ele>339</ele><time>2019-08-30T11:12:55Z</time><name>PT4799</name></trkpt>
<trkpt lat="53.228521" lon="-1.838581"><ele>339</ele><time>2019-08-30T11:12:56Z</time><name>PT4800</name></trkpt>
<trkpt lat="53.228516" lon="-1.838566"><ele>339</ele><time>2019-08-30T11:12:57Z</time><name>PT4801</name></trkpt>
<trkpt lat="53.228516" lon="-1.838554"><ele>340</ele><time>2019-08-30T11:12:58Z</time><name>PT4802</name></trkpt>
<trkpt lat="53.228514" lon="-1.838537"><ele>339</ele><time>2019-08-30T11:12:59Z</time><name>PT4803</name></trkpt>
<trkpt lat="53.228512" lon="-1.838521"><ele>340</ele><time>2019-08-30T11:13:00Z</time><name>PT4804</name></trkpt>
<trkpt lat="53.228509" lon="-1.838510"><ele>340</ele><time>2019-08-30T11:13:01Z</time><name>PT4805</name></trkpt>
<trkpt lat="53.228507" lon="-1.838493"><ele>340</ele><time>2019-08-30T11:13:02Z</time><name>PT4806</name></trkpt>
<trkpt lat="53.228503" lon="-1.838481"><ele>340</ele><time>2019-08-30T11:13:03Z</time><name>PT4807</name></trkpt>
<trkpt lat="53.228499" lon="-1.838471"><ele>340</ele><time>2019-08-30T11:13:04Z</time><name>PT4808</name></trkpt>
<trkpt lat="53.228494" lon="-1.838458"><ele>341</ele><time>2019-08-30T11:13:05Z</time><name>PT4809</name></trkpt>
<trkpt lat="53.228488" lon="-1.838444"><ele>341</ele><time>2019-08-30T11:13:06Z</time><name>PT4810</name></trkpt>
<trkpt lat="53.228482" lon="-1.838427"><ele>341</ele><time>2019-08-30T11:13:07Z</time><name>PT4811</name></trkpt>
<trkpt lat="53.228477" lon="-1.838413"><ele>341</ele><time>2019-08-30T11:13:08Z</time><name>PT4812</name></trkpt>
<trkpt lat="53.228472" lon="-1.838398"><ele>342</ele><time>2019-08-30T11:13:09Z</time><name>PT4813</name></trkpt>
<trkpt lat="53.228467" lon="-1.838377"><ele>342</ele><time>2019-08-30T11:13:10Z</time><name>PT4814</name></trkpt>
<trkpt lat="53.228461" lon="-1.838361"><ele>342</ele><time>2019-08-30T11:13:11Z</time><name>PT4815</name></trkpt>
<trkpt lat="53.228456" lon="-1.838344"><ele>341</ele><time>2019-08-30T11:13:12Z</time><name>PT4816</name></trkpt>
<trkpt lat="53.228453" lon="-1.838328"><ele>341</ele><time>2019-08-30T11:13:13Z</time><name>PT4817</name></trkpt>
<trkpt lat="53.228450" lon="-1.838307"><ele>341</ele><time>2019-08-30T11:13:14Z</time><name>PT4818</name></trkpt>
<trkpt lat="53.228447" lon="-1.838289"><ele>341</ele><time>2019-08-30T11:13:15Z</time><name>PT4819</name></trkpt>
<trkpt lat="53.228442" lon="-1.838273"><ele>342</ele><time>2019-08-30T11:13:16Z</time><name>PT4820</name></trkpt>
<trkpt lat="53.228438" lon="-1.838261"><ele>342</ele><time>2019-08-30T11:13:17Z</time><name>PT4821</name></trkpt>
<trkpt lat="53.228435" lon="-1.838241"><ele>341</ele><time>2019-08-30T11:13:18Z</time><name>PT4822</name></trkpt>
<trkpt lat="53.228433" lon="-1.838224"><ele>341</ele><time>2019-08-30T11:13:19Z</time><name>PT4823</name></trkpt>
<trkpt lat="53.228430" lon="-1.838210"><ele>341</ele><time>2019-08-30T11:13:20Z</time><name>PT4824</name></trkpt>
<trkpt lat="53.228425" lon="-1.838191"><ele>341</ele><time>2019-08-30T11:13:21Z</time><name>PT4825</name></trkpt>
<trkpt lat="53.228420" lon="-1.838172"><ele>342</ele><time>2019-08-30T11:13:22Z</time><name>PT4826</name></trkpt>
<trkpt lat="53.228414" lon="-1.838152"><ele>341</ele><time>2019-08-30T11:13:23Z</time><name>PT4827</name></trkpt>
<trkpt lat="53.228410" lon="-1.838136"><ele>341</ele><time>2019-08-30T11:13:24Z</time><name>PT4828</name></trkpt>
<trkpt lat="53.228405" lon="-1.838117"><ele>341</ele><time>2019-08-30T11:13:25Z</time><name>PT4829</name></trkpt>
<trkpt lat="53.228400" lon="-1.838099"><ele>342</ele><time>2019-08-30T11:13:26Z</time><name>PT4830</name></trkpt>
<trkpt lat="53.228396" lon="-1.838079"><ele>342</ele><time>2019-08-30T11:13:27Z</time><name>PT4831</name></trkpt>
<trkpt lat="53.228388" lon="-1.838054"><ele>342</ele><time>2019-08-30T11:13:28Z</time><name>PT4832</name></trkpt>
<trkpt lat="53.228379" lon="-1.838024"><ele>343</ele><time>2019-08-30T11:13:29Z</time><name>PT4833</name></trkpt>
<trkpt lat="53.228371" lon="-1.837997"><ele>343</ele><time>2019-08-30T11:13:30Z</time><name>PT4834</name></trkpt>
<trkpt lat="53.228366" lon="-1.837977"><ele>343</ele><time>2019-08-30T11:13:31Z</time><name>PT4835</name></trkpt>
<trkpt lat="53.228360" lon="-1.837955"><ele>343</ele><time>2019-08-30T11:13:32Z</time><name>PT4836</name></trkpt>
<trkpt lat="53.228353" lon="-1.837934"><ele>343</ele><time>2019-08-30T11:13:33Z</time><name>PT4837</name></trkpt>
<trkpt lat="53.228345" lon="-1.837909"><ele>343</ele><time>2019-08-30T11:13:34Z</time><name>PT4838</name></trkpt>
<trkpt lat="53.228336" lon="-1.837888"><ele>343</ele><time>2019-08-30T11:13:35Z</time><name>PT4839</name></trkpt>
<trkpt lat="53.228330" lon="-1.837864"><ele>343</ele><time>2019-08-30T11:13:36Z</time><name>PT4840</name></trkpt>
<trkpt lat="53.228325" lon="-1.837844"><ele>343</ele><time>2019-08-30T11:13:37Z</time><name>PT4841</name></trkpt>
<trkpt lat="53.228318" lon="-1.837821"><ele>343</ele><time>2019-08-30T11:13:38Z</time><name>PT4842</name></trkpt>
<trkpt lat="53.228314" lon="-1.837804"><ele>343</ele><time>2019-08-30T11:13:39Z</time><name>PT4843</name></trkpt>
<trkpt lat="53.228310" lon="-1.837784"><ele>343</ele><time>2019-08-30T11:13:40Z</time><name>PT4844</name></trkpt>
<trkpt lat="53.228307" lon="-1.837765"><ele>343</ele><time>2019-08-30T11:13:41Z</time><name>PT4845</name></trkpt>
<trkpt lat="53.228302" lon="-1.837748"><ele>343</ele><time>2019-08-30T11:13:42Z</time><name>PT4846</name></trkpt>
<trkpt lat="53.228299" lon="-1.837736"><ele>343</ele><time>2019-08-30T11:13:43Z</time><name>PT4847</name></trkpt>
<trkpt lat="53.228294" lon="-1.837719"><ele>343</ele><time>2019-08-30T11:13:44Z</time><name>PT4848</name></trkpt>
<trkpt lat="53.228289" lon="-1.837704"><ele>343</ele><time>2019-08-30T11:13:45Z</time><name>PT4849</name></trkpt>
<trkpt lat="53.228285" lon="-1.837687"><ele>343</ele><time>2019-08-30T11:13:46Z</time><name>PT4850</name></trkpt>
<trkpt lat="53.228280" lon="-1.837670"><ele>343</ele><time>2019-08-30T11:13:47Z</time><name>PT4851</name></trkpt>
<trkpt lat="53.228275" lon="-1.837654"><ele>344</ele><time>2019-08-30T11:13:48Z</time><name>PT4852</name></trkpt>
<trkpt lat="53.228271" lon="-1.837633"><ele>344</ele><time>2019-08-30T11:13:49Z</time><name>PT4853</name></trkpt>
<trkpt lat="53.228266" lon="-1.837615"><ele>343</ele><time>2019-08-30T11:13:50Z</time><name>PT4854</name></trkpt>
<trkpt lat="53.228263" lon="-1.837596"><ele>343</ele><time>2019-08-30T11:13:51Z</time><name>PT4855</name></trkpt>
<trkpt lat="53.228260" lon="-1.837581"><ele>343</ele><time>2019-08-30T11:13:52Z</time><name>PT4856</name></trkpt>
<trkpt lat="53.228257" lon="-1.837565"><ele>343</ele><time>2019-08-30T11:13:53Z</time><name>PT4857</name></trkpt>
<trkpt lat="53.228254" lon="-1.837549"><ele>343</ele><time>2019-08-30T11:13:54Z</time><name>PT4858</name></trkpt>
<trkpt lat="53.228245" lon="-1.837535"><ele>343</ele><time>2019-08-30T11:13:55Z</time><name>PT4859</name></trkpt>
<trkpt lat="53.228239" lon="-1.837518"><ele>344</ele><time>2019-08-30T11:13:56Z</time><name>PT4860</name></trkpt>
<trkpt lat="53.228237" lon="-1.837503"><ele>343</ele><time>2019-08-30T11:13:57Z</time><name>PT4861</name></trkpt>
<trkpt lat="53.228234" lon="-1.837485"><ele>343</ele><time>2019-08-30T11:13:58Z</time><name>PT4862</name></trkpt>
<trkpt lat="53.228232" lon="-1.837469"><ele>343</ele><time>2019-08-30T11:13:59Z</time><name>PT4863</name></trkpt>
<trkpt lat="53.228227" lon="-1.837453"><ele>343</ele><time>2019-08-30T11:14:00Z</time><name>PT4864</name></trkpt>
<trkpt lat="53.228222" lon="-1.837437"><ele>343</ele><time>2019-08-30T11:14:01Z</time><name>PT4865</name></trkpt>
<trkpt lat="53.228213" lon="-1.837421"><ele>344</ele><time>2019-08-30T11:14:02Z</time><name>PT4866</name></trkpt>
<trkpt lat="53.228208" lon="-1.837402"><ele>344</ele><time>2019-08-30T11:14:03Z</time><name>PT4867</name></trkpt>
<trkpt lat="53.228204" lon="-1.837383"><ele>344</ele><time>2019-08-30T11:14:05Z</time><name>PT4868</name></trkpt>
<trkpt lat="53.228200" lon="-1.837363"><ele>344</ele><time>2019-08-30T11:14:05Z</time><name>PT4869</name></trkpt>
<trkpt lat="53.228196" lon="-1.837342"><ele>344</ele><time>2019-08-30T11:14:06Z</time><name>PT4870</name></trkpt>
<trkpt lat="53.228192" lon="-1.837327"><ele>344</ele><time>2019-08-30T11:14:07Z</time><name>PT4871</name></trkpt>
<trkpt lat="53.228189" lon="-1.837308"><ele>344</ele><time>2019-08-30T11:14:08Z</time><name>PT4872</name></trkpt>
<trkpt lat="53.228185" lon="-1.837292"><ele>345</ele><time>2019-08-30T11:14:09Z</time><name>PT4873</name></trkpt>
<trkpt lat="53.228178" lon="-1.837272"><ele>345</ele><time>2019-08-30T11:14:10Z</time><name>PT4874</name></trkpt>
<trkpt lat="53.228173" lon="-1.837250"><ele>345</ele><time>2019-08-30T11:14:11Z</time><name>PT4875</name></trkpt>
<trkpt lat="53.228169" lon="-1.837230"><ele>345</ele><time>2019-08-30T11:14:12Z</time><name>PT4876</name></trkpt>
<trkpt lat="53.228164" lon="-1.837212"><ele>344</ele><time>2019-08-30T11:14:13Z</time><name>PT4877</name></trkpt>
<trkpt lat="53.228159" lon="-1.837197"><ele>344</ele><time>2019-08-30T11:14:14Z</time><name>PT4878</name></trkpt>
<trkpt lat="53.228151" lon="-1.837178"><ele>344</ele><time>2019-08-30T11:14:15Z</time><name>PT4879</name></trkpt>
<trkpt lat="53.228144" lon="-1.837158"><ele>344</ele><time>2019-08-30T11:14:16Z</time><name>PT4880</name></trkpt>
<trkpt lat="53.228138" lon="-1.837140"><ele>345</ele><time>2019-08-30T11:14:17Z</time><name>PT4881</name></trkpt>
<trkpt lat="53.228133" lon="-1.837120"><ele>344</ele><time>2019-08-30T11:14:18Z</time><name>PT4882</name></trkpt>
<trkpt lat="53.228128" lon="-1.837101"><ele>344</ele><time>2019-08-30T11:14:20Z</time><name>PT4883</name></trkpt>
<trkpt lat="53.228120" lon="-1.837082"><ele>344</ele><time>2019-08-30T11:14:20Z</time><name>PT4884</name></trkpt>
<trkpt lat="53.228114" lon="-1.837059"><ele>344</ele><time>2019-08-30T11:14:21Z</time><name>PT4885</name></trkpt>
<trkpt lat="53.228112" lon="-1.837040"><ele>345</ele><time>2019-08-30T11:14:22Z</time><name>PT4886</name></trkpt>
<trkpt lat="53.228109" lon="-1.837022"><ele>345</ele><time>2019-08-30T11:14:23Z</time><name>PT4887</name></trkpt>
<trkpt lat="53.228106" lon="-1.837009"><ele>345</ele><time>2019-08-30T11:14:24Z</time><name>PT4888</name></trkpt>
<trkpt lat="53.228099" lon="-1.836988"><ele>345</ele><time>2019-08-30T11:14:25Z</time><name>PT4889</name></trkpt>
<trkpt lat="53.228094" lon="-1.836968"><ele>345</ele><time>2019-08-30T11:14:26Z</time><name>PT4890</name></trkpt>
<trkpt lat="53.228089" lon="-1.836952"><ele>345</ele><time>2019-08-30T11:14:27Z</time><name>PT4891</name></trkpt>
<trkpt lat="53.228083" lon="-1.836930"><ele>345</ele><time>2019-08-30T11:14:28Z</time><name>PT4892</name></trkpt>
<trkpt lat="53.228078" lon="-1.836914"><ele>344</ele><time>2019-08-30T11:14:29Z</time><name>PT4893</name></trkpt>
<trkpt lat="53.228069" lon="-1.836893"><ele>345</ele><time>2019-08-30T11:14:30Z</time><name>PT4894</name></trkpt>
<trkpt lat="53.228063" lon="-1.836874"><ele>344</ele><time>2019-08-30T11:14:31Z</time><name>PT4895</name></trkpt>
<trkpt lat="53.228058" lon="-1.836856"><ele>345</ele><time>2019-08-30T11:14:32Z</time><name>PT4896</name></trkpt>
<trkpt lat="53.228053" lon="-1.836835"><ele>345</ele><time>2019-08-30T11:14:33Z</time><name>PT4897</name></trkpt>
<trkpt lat="53.228046" lon="-1.836817"><ele>345</ele><time>2019-08-30T11:14:35Z</time><name>PT4898</name></trkpt>
<trkpt lat="53.228039" lon="-1.836801"><ele>345</ele><time>2019-08-30T11:14:35Z</time><name>PT4899</name></trkpt>
<trkpt lat="53.228030" lon="-1.836782"><ele>345</ele><time>2019-08-30T11:14:36Z</time><name>PT4900</name></trkpt>
<trkpt lat="53.228025" lon="-1.836768"><ele>344</ele><time>2019-08-30T11:14:37Z</time><name>PT4901</name></trkpt>
<trkpt lat="53.228021" lon="-1.836751"><ele>345</ele><time>2019-08-30T11:14:38Z</time><name>PT4902</name></trkpt>
<trkpt lat="53.228016" lon="-1.836737"><ele>345</ele><time>2019-08-30T11:14:39Z</time><name>PT4903</name></trkpt>
<trkpt lat="53.228008" lon="-1.836722"><ele>345</ele><time>2019-08-30T11:14:40Z</time><name>PT4904</name></trkpt>
<trkpt lat="53.228002" lon="-1.836709"><ele>344</ele><time>2019-08-30T11:14:41Z</time><name>PT4905</name></trkpt>
<trkpt lat="53.227996" lon="-1.836692"><ele>344</ele><time>2019-08-30T11:14:42Z</time><name>PT4906</name></trkpt>
<trkpt lat="53.227994" lon="-1.836680"><ele>343</ele><time>2019-08-30T11:14:43Z</time><name>PT4907</name></trkpt>
<trkpt lat="53.227988" lon="-1.836668"><ele>343</ele><time>2019-08-30T11:14:44Z</time><name>PT4908</name></trkpt>
<trkpt lat="53.227984" lon="-1.836660"><ele>343</ele><time>2019-08-30T11:14:45Z</time><name>PT4909</name></trkpt>
<trkpt lat="53.227983" lon="-1.836648"><ele>343</ele><time>2019-08-30T11:14:46Z</time><name>PT4910</name></trkpt>
<trkpt lat="53.227983" lon="-1.836637"><ele>343</ele><time>2019-08-30T11:14:47Z</time><name>PT4911</name></trkpt>
<trkpt lat="53.227982" lon="-1.836633"><ele>343</ele><time>2019-08-30T11:14:48Z</time><name>PT4912</name></trkpt>
<trkpt lat="53.227981" lon="-1.836627"><ele>344</ele><time>2019-08-30T11:14:50Z</time><name>PT4913</name></trkpt>
<trkpt lat="53.227980" lon="-1.836623"><ele>343</ele><time>2019-08-30T11:14:50Z</time><name>PT4914</name></trkpt>
<trkpt lat="53.227975" lon="-1.836618"><ele>343</ele><time>2019-08-30T11:14:51Z</time><name>PT4915</name></trkpt>
<trkpt lat="53.227968" lon="-1.836610"><ele>343</ele><time>2019-08-30T11:14:52Z</time><name>PT4916</name></trkpt>
<trkpt lat="53.227959" lon="-1.836600"><ele>343</ele><time>2019-08-30T11:14:53Z</time><name>PT4917</name></trkpt>
<trkpt lat="53.227950" lon="-1.836585"><ele>343</ele><time>2019-08-30T11:14:54Z</time><name>PT4918</name></trkpt>
<trkpt lat="53.227939" lon="-1.836575"><ele>343</ele><time>2019-08-30T11:14:55Z</time><name>PT4919</name></trkpt>
<trkpt lat="53.227933" lon="-1.836565"><ele>343</ele><time>2019-08-30T11:14:56Z</time><name>PT4920</name></trkpt>
<trkpt lat="53.227925" lon="-1.836553"><ele>343</ele><time>2019-08-30T11:14:57Z</time><name>PT4921</name></trkpt>
<trkpt lat="53.227908" lon="-1.836535"><ele>344</ele><time>2019-08-30T11:14:58Z</time><name>PT4922</name></trkpt>
<trkpt lat="53.227895" lon="-1.836516"><ele>343</ele><time>2019-08-30T11:14:59Z</time><name>PT4923</name></trkpt>
<trkpt lat="53.227887" lon="-1.836501"><ele>344</ele><time>2019-08-30T11:15:00Z</time><name>PT4924</name></trkpt>
<trkpt lat="53.227880" lon="-1.836487"><ele>344</ele><time>2019-08-30T11:15:01Z</time><name>PT4925</name></trkpt>
<trkpt lat="53.227876" lon="-1.836475"><ele>344</ele><time>2019-08-30T11:15:02Z</time><name>PT4926</name></trkpt>
<trkpt lat="53.227874" lon="-1.836465"><ele>344</ele><time>2019-08-30T11:15:03Z</time><name>PT4927</name></trkpt>
<trkpt lat="53.227870" lon="-1.836452"><ele>343</ele><time>2019-08-30T11:15:04Z</time><name>PT4928</name></trkpt>
<trkpt lat="53.227869" lon="-1.836438"><ele>343</ele><time>2019-08-30T11:15:05Z</time><name>PT4929</name></trkpt>
<trkpt lat="53.227866" lon="-1.836427"><ele>343</ele><time>2019-08-30T11:15:06Z</time><name>PT4930</name></trkpt>
<trkpt lat="53.227859" lon="-1.836414"><ele>342</ele><time>2019-08-30T11:15:08Z</time><name>PT4931</name></trkpt>
<trkpt lat="53.227853" lon="-1.836401"><ele>343</ele><time>2019-08-30T11:15:08Z</time><name>PT4932</name></trkpt>
<trkpt lat="53.227843" lon="-1.836385"><ele>343</ele><time>2019-08-30T11:15:09Z</time><name>PT4933</name></trkpt>
<trkpt lat="53.227838" lon="-1.836375"><ele>344</ele><time>2019-08-30T11:15:10Z</time><name>PT4934</name></trkpt>
<trkpt lat="53.227837" lon="-1.836359"><ele>344</ele><time>2019-08-30T11:15:11Z</time><name>PT4935</name></trkpt>
<trkpt lat="53.227834" lon="-1.836345"><ele>344</ele><time>2019-08-30T11:15:13Z</time><name>PT4936</name></trkpt>
<trkpt lat="53.227830" lon="-1.836321"><ele>344</ele><time>2019-08-30T11:15:13Z</time><name>PT4937</name></trkpt>
<trkpt lat="53.227825" lon="-1.836305"><ele>345</ele><time>2019-08-30T11:15:14Z</time><name>PT4938</name></trkpt>
<trkpt lat="53.227814" lon="-1.836291"><ele>344</ele><time>2019-08-30T11:15:15Z</time><name>PT4939</name></trkpt>
<trkpt lat="53.227807" lon="-1.836279"><ele>344</ele><time>2019-08-30T11:15:16Z</time><name>PT4940</name></trkpt>
<trkpt lat="53.227806" lon="-1.836259"><ele>343</ele><time>2019-08-30T11:15:17Z</time><name>PT4941</name></trkpt>
<trkpt lat="53.227802" lon="-1.836247"><ele>343</ele><time>2019-08-30T11:15:19Z</time><name>PT4942</name></trkpt>
<trkpt lat="53.227798" lon="-1.836238"><ele>343</ele><time>2019-08-30T11:15:19Z</time><name>PT4943</name></trkpt>
<trkpt lat="53.227793" lon="-1.836225"><ele>343</ele><time>2019-08-30T11:15:20Z</time><name>PT4944</name></trkpt>
<trkpt lat="53.227790" lon="-1.836211"><ele>343</ele><time>2019-08-30T11:15:21Z</time><name>PT4945</name></trkpt>
<trkpt lat="53.227785" lon="-1.836195"><ele>343</ele><time>2019-08-30T11:15:22Z</time><name>PT4946</name></trkpt>
<trkpt lat="53.227780" lon="-1.836182"><ele>343</ele><time>2019-08-30T11:15:23Z</time><name>PT4947</name></trkpt>
<trkpt lat="53.227775" lon="-1.836161"><ele>343</ele><time>2019-08-30T11:15:25Z</time><name>PT4948</name></trkpt>
<trkpt lat="53.227771" lon="-1.836145"><ele>343</ele><time>2019-08-30T11:15:25Z</time><name>PT4949</name></trkpt>
<trkpt lat="53.227764" lon="-1.836128"><ele>343</ele><time>2019-08-30T11:15:26Z</time><name>PT4950</name></trkpt>
<trkpt lat="53.227755" lon="-1.836115"><ele>343</ele><time>2019-08-30T11:15:27Z</time><name>PT4951</name></trkpt>
<trkpt lat="53.227748" lon="-1.836098"><ele>343</ele><time>2019-08-30T11:15:28Z</time><name>PT4952</name></trkpt>
<trkpt lat="53.227744" lon="-1.836086"><ele>343</ele><time>2019-08-30T11:15:29Z</time><name>PT4953</name></trkpt>
<trkpt lat="53.227736" lon="-1.836073"><ele>343</ele><time>2019-08-30T11:15:30Z</time><name>PT4954</name></trkpt>
<trkpt lat="53.227729" lon="-1.836061"><ele>343</ele><time>2019-08-30T11:15:31Z</time><name>PT4955</name></trkpt>
<trkpt lat="53.227723" lon="-1.836043"><ele>342</ele><time>2019-08-30T11:15:32Z</time><name>PT4956</name></trkpt>
<trkpt lat="53.227716" lon="-1.836025"><ele>342</ele><time>2019-08-30T11:15:33Z</time><name>PT4957</name></trkpt>
<trkpt lat="53.227709" lon="-1.836014"><ele>342</ele><time>2019-08-30T11:15:34Z</time><name>PT4958</name></trkpt>
<trkpt lat="53.227705" lon="-1.836002"><ele>342</ele><time>2019-08-30T11:15:35Z</time><name>PT4959</name></trkpt>
<trkpt lat="53.227699" lon="-1.835984"><ele>342</ele><time>2019-08-30T11:15:36Z</time><name>PT4960</name></trkpt>
<trkpt lat="53.227695" lon="-1.835972"><ele>342</ele><time>2019-08-30T11:15:37Z</time><name>PT4961</name></trkpt>
<trkpt lat="53.227690" lon="-1.835957"><ele>342</ele><time>2019-08-30T11:15:38Z</time><name>PT4962</name></trkpt>
<trkpt lat="53.227687" lon="-1.835941"><ele>342</ele><time>2019-08-30T11:15:39Z</time><name>PT4963</name></trkpt>
<trkpt lat="53.227684" lon="-1.835928"><ele>342</ele><time>2019-08-30T11:15:40Z</time><name>PT4964</name></trkpt>
<trkpt lat="53.227679" lon="-1.835908"><ele>341</ele><time>2019-08-30T11:15:41Z</time><name>PT4965</name></trkpt>
<trkpt lat="53.227674" lon="-1.835895"><ele>341</ele><time>2019-08-30T11:15:42Z</time><name>PT4966</name></trkpt>
<trkpt lat="53.227668" lon="-1.835879"><ele>341</ele><time>2019-08-30T11:15:43Z</time><name>PT4967</name></trkpt>
<trkpt lat="53.227662" lon="-1.835861"><ele>342</ele><time>2019-08-30T11:15:44Z</time><name>PT4968</name></trkpt>
<trkpt lat="53.227652" lon="-1.835837"><ele>342</ele><time>2019-08-30T11:15:45Z</time><name>PT4969</name></trkpt>
<trkpt lat="53.227643" lon="-1.835819"><ele>342</ele><time>2019-08-30T11:15:46Z</time><name>PT4970</name></trkpt>
<trkpt lat="53.227635" lon="-1.835806"><ele>342</ele><time>2019-08-30T11:15:47Z</time><name>PT4971</name></trkpt>
<trkpt lat="53.227627" lon="-1.835790"><ele>341</ele><time>2019-08-30T11:15:48Z</time><name>PT4972</name></trkpt>
<trkpt lat="53.227618" lon="-1.835765"><ele>342</ele><time>2019-08-30T11:15:49Z</time><name>PT4973</name></trkpt>
<trkpt lat="53.227611" lon="-1.835748"><ele>342</ele><time>2019-08-30T11:15:50Z</time><name>PT4974</name></trkpt>
<trkpt lat="53.227604" lon="-1.835730"><ele>342</ele><time>2019-08-30T11:15:51Z</time><name>PT4975</name></trkpt>
<trkpt lat="53.227598" lon="-1.835715"><ele>342</ele><time>2019-08-30T11:15:52Z</time><name>PT4976</name></trkpt>
<trkpt lat="53.227592" lon="-1.835697"><ele>342</ele><time>2019-08-30T11:15:53Z</time><name>PT4977</name></trkpt>
<trkpt lat="53.227585" lon="-1.835681"><ele>342</ele><time>2019-08-30T11:15:54Z</time><name>PT4978</name></trkpt>
<trkpt lat="53.227579" lon="-1.835663"><ele>342</ele><time>2019-08-30T11:15:55Z</time><name>PT4979</name></trkpt>
<trkpt lat="53.227572" lon="-1.835644"><ele>342</ele><time>2019-08-30T11:15:56Z</time><name>PT4980</name></trkpt>
<trkpt lat="53.227567" lon="-1.835625"><ele>342</ele><time>2019-08-30T11:15:57Z</time><name>PT4981</name></trkpt>
<trkpt lat="53.227564" lon="-1.835605"><ele>341</ele><time>2019-08-30T11:15:58Z</time><name>PT4982</name></trkpt>
<trkpt lat="53.227558" lon="-1.835586"><ele>341</ele><time>2019-08-30T11:15:59Z</time><name>PT4983</name></trkpt>
<trkpt lat="53.227549" lon="-1.835566"><ele>341</ele><time>2019-08-30T11:16:00Z</time><name>PT4984</name></trkpt>
<trkpt lat="53.227543" lon="-1.835552"><ele>341</ele><time>2019-08-30T11:16:01Z</time><name>PT4985</name></trkpt>
<trkpt lat="53.227537" lon="-1.835529"><ele>342</ele><time>2019-08-30T11:16:02Z</time><name>PT4986</name></trkpt>
<trkpt lat="53.227531" lon="-1.835509"><ele>342</ele><time>2019-08-30T11:16:03Z</time><name>PT4987</name></trkpt>
<trkpt lat="53.227523" lon="-1.835487"><ele>342</ele><time>2019-08-30T11:16:04Z</time><name>PT4988</name></trkpt>
<trkpt lat="53.227518" lon="-1.835471"><ele>342</ele><time>2019-08-30T11:16:05Z</time><name>PT4989</name></trkpt>
<trkpt lat="53.227515" lon="-1.835453"><ele>343</ele><time>2019-08-30T11:16:06Z</time><name>PT4990</name></trkpt>
<trkpt lat="53.227511" lon="-1.835433"><ele>342</ele><time>2019-08-30T11:16:07Z</time><name>PT4991</name></trkpt>
<trkpt lat="53.227506" lon="-1.835419"><ele>343</ele><time>2019-08-30T11:16:08Z</time><name>PT4992</name></trkpt>
<trkpt lat="53.227501" lon="-1.835404"><ele>343</ele><time>2019-08-30T11:16:09Z</time><name>PT4993</name></trkpt>
<trkpt lat="53.227498" lon="-1.835391"><ele>343</ele><time>2019-08-30T11:16:10Z</time><name>PT4994</name></trkpt>
<trkpt lat="53.227491" lon="-1.835365"><ele>344</ele><time>2019-08-30T11:16:11Z</time><name>PT4995</name></trkpt>
<trkpt lat="53.227485" lon="-1.835345"><ele>344</ele><time>2019-08-30T11:16:12Z</time><name>PT4996</name></trkpt>
<trkpt lat="53.227479" lon="-1.835327"><ele>344</ele><time>2019-08-30T11:16:13Z</time><name>PT4997</name></trkpt>
<trkpt lat="53.227473" lon="-1.835311"><ele>344</ele><time>2019-08-30T11:16:14Z</time><name>PT4998</name></trkpt>
<trkpt lat="53.227468" lon="-1.835293"><ele>344</ele><time>2019-08-30T11:16:15Z</time><name>PT4999</name></trkpt>
<trkpt lat="53.227464" lon="-1.835276"><ele>344</ele><time>2019-08-30T11:16:16Z</time><name>PT5000</name></trkpt>
<trkpt lat="53.227460" lon="-1.835264"><ele>344</ele><time>2019-08-30T11:16:17Z</time><name>PT5001</name></trkpt>
<trkpt lat="53.227452" lon="-1.835248"><ele>344</ele><time>2019-08-30T11:16:18Z</time><name>PT5002</name></trkpt>
<trkpt lat="53.227446" lon="-1.835232"><ele>344</ele><time>2019-08-30T11:16:19Z</time><name>PT5003</name></trkpt>
<trkpt lat="53.227442" lon="-1.835212"><ele>344</ele><time>2019-08-30T11:16:20Z</time><name>PT5004</name></trkpt>
<trkpt lat="53.227439" lon="-1.835193"><ele>343</ele><time>2019-08-30T11:16:21Z</time><name>PT5005</name></trkpt>
<trkpt lat="53.227433" lon="-1.835176"><ele>343</ele><time>2019-08-30T11:16:22Z</time><name>PT5006</name></trkpt>
<trkpt lat="53.227427" lon="-1.835164"><ele>343</ele><time>2019-08-30T11:16:23Z</time><name>PT5007</name></trkpt>
<trkpt lat="53.227421" lon="-1.835146"><ele>344</ele><time>2019-08-30T11:16:24Z</time><name>PT5008</name></trkpt>
<trkpt lat="53.227416" lon="-1.835128"><ele>344</ele><time>2019-08-30T11:16:25Z</time><name>PT5009</name></trkpt>
<trkpt lat="53.227409" lon="-1.835110"><ele>344</ele><time>2019-08-30T11:16:26Z</time><name>PT5010</name></trkpt>
<trkpt lat="53.227403" lon="-1.835090"><ele>344</ele><time>2019-08-30T11:16:27Z</time><name>PT5011</name></trkpt>
<trkpt lat="53.227400" lon="-1.835074"><ele>344</ele><time>2019-08-30T11:16:28Z</time><name>PT5012</name></trkpt>
<trkpt lat="53.227397" lon="-1.835058"><ele>343</ele><time>2019-08-30T11:16:29Z</time><name>PT5013</name></trkpt>
<trkpt lat="53.227391" lon="-1.835042"><ele>343</ele><time>2019-08-30T11:16:30Z</time><name>PT5014</name></trkpt>
<trkpt lat="53.227383" lon="-1.835027"><ele>343</ele><time>2019-08-30T11:16:31Z</time><name>PT5015</name></trkpt>
<trkpt lat="53.227379" lon="-1.835015"><ele>343</ele><time>2019-08-30T11:16:32Z</time><name>PT5016</name></trkpt>
<trkpt lat="53.227376" lon="-1.834998"><ele>343</ele><time>2019-08-30T11:16:33Z</time><name>PT5017</name></trkpt>
<trkpt lat="53.227367" lon="-1.834970"><ele>343</ele><time>2019-08-30T11:16:34Z</time><name>PT5018</name></trkpt>
<trkpt lat="53.227358" lon="-1.834944"><ele>344</ele><time>2019-08-30T11:16:35Z</time><name>PT5019</name></trkpt>
<trkpt lat="53.227352" lon="-1.834928"><ele>344</ele><time>2019-08-30T11:16:36Z</time><name>PT5020</name></trkpt>
<trkpt lat="53.227347" lon="-1.834910"><ele>345</ele><time>2019-08-30T11:16:37Z</time><name>PT5021</name></trkpt>
<trkpt lat="53.227341" lon="-1.834893"><ele>344</ele><time>2019-08-30T11:16:38Z</time><name>PT5022</name></trkpt>
<trkpt lat="53.227338" lon="-1.834887"><ele>345</ele><time>2019-08-30T11:16:39Z</time><name>PT5023</name></trkpt>
<trkpt lat="53.227332" lon="-1.834876"><ele>345</ele><time>2019-08-30T11:16:40Z</time><name>PT5024</name></trkpt>
<trkpt lat="53.227327" lon="-1.834862"><ele>345</ele><time>2019-08-30T11:16:41Z</time><name>PT5025</name></trkpt>
<trkpt lat="53.227326" lon="-1.834843"><ele>344</ele><time>2019-08-30T11:16:42Z</time><name>PT5026</name></trkpt>
<trkpt lat="53.227324" lon="-1.834828"><ele>344</ele><time>2019-08-30T11:16:43Z</time><name>PT5027</name></trkpt>
<trkpt lat="53.227321" lon="-1.834815"><ele>343</ele><time>2019-08-30T11:16:44Z</time><name>PT5028</name></trkpt>
<trkpt lat="53.227318" lon="-1.834802"><ele>343</ele><time>2019-08-30T11:16:45Z</time><name>PT5029</name></trkpt>
<trkpt lat="53.227315" lon="-1.834793"><ele>343</ele><time>2019-08-30T11:16:46Z</time><name>PT5030</name></trkpt>
<trkpt lat="53.227308" lon="-1.834775"><ele>343</ele><time>2019-08-30T11:16:47Z</time><name>PT5031</name></trkpt>
<trkpt lat="53.227303" lon="-1.834761"><ele>343</ele><time>2019-08-30T11:16:48Z</time><name>PT5032</name></trkpt>
<trkpt lat="53.227299" lon="-1.834748"><ele>343</ele><time>2019-08-30T11:16:49Z</time><name>PT5033</name></trkpt>
<trkpt lat="53.227297" lon="-1.834733"><ele>343</ele><time>2019-08-30T11:16:50Z</time><name>PT5034</name></trkpt>
<trkpt lat="53.227295" lon="-1.834713"><ele>342</ele><time>2019-08-30T11:16:52Z</time><name>PT5035</name></trkpt>
<trkpt lat="53.227292" lon="-1.834699"><ele>342</ele><time>2019-08-30T11:16:52Z</time><name>PT5036</name></trkpt>
<trkpt lat="53.227289" lon="-1.834685"><ele>341</ele><time>2019-08-30T11:16:53Z</time><name>PT5037</name></trkpt>
<trkpt lat="53.227285" lon="-1.834668"><ele>342</ele><time>2019-08-30T11:16:54Z</time><name>PT5038</name></trkpt>
<trkpt lat="53.227282" lon="-1.834654"><ele>342</ele><time>2019-08-30T11:16:55Z</time><name>PT5039</name></trkpt>
<trkpt lat="53.227280" lon="-1.834633"><ele>342</ele><time>2019-08-30T11:16:56Z</time><name>PT5040</name></trkpt>
<trkpt lat="53.227279" lon="-1.834614"><ele>342</ele><time>2019-08-30T11:16:57Z</time><name>PT5041</name></trkpt>
<trkpt lat="53.227276" lon="-1.834597"><ele>342</ele><time>2019-08-30T11:16:58Z</time><name>PT5042</name></trkpt>
<trkpt lat="53.227273" lon="-1.834582"><ele>342</ele><time>2019-08-30T11:16:59Z</time><name>PT5043</name></trkpt>
<trkpt lat="53.227267" lon="-1.834548"><ele>343</ele><time>2019-08-30T11:17:00Z</time><name>PT5044</name></trkpt>
<trkpt lat="53.227259" lon="-1.834534"><ele>343</ele><time>2019-08-30T11:17:01Z</time><name>PT5045</name></trkpt>
<trkpt lat="53.227255" lon="-1.834524"><ele>343</ele><time>2019-08-30T11:17:02Z</time><name>PT5046</name></trkpt>
<trkpt lat="53.227251" lon="-1.834513"><ele>343</ele><time>2019-08-30T11:17:03Z</time><name>PT5047</name></trkpt>
<trkpt lat="53.227249" lon="-1.834509"><ele>343</ele><time>2019-08-30T11:17:04Z</time><name>PT5048</name></trkpt>
<trkpt lat="53.227248" lon="-1.834515"><ele>343</ele><time>2019-08-30T11:17:08Z</time><name>PT5049</name></trkpt>
<trkpt lat="53.227247" lon="-1.834512"><ele>343</ele><time>2019-08-30T11:17:09Z</time><name>PT5050</name></trkpt>
<trkpt lat="53.227245" lon="-1.834500"><ele>343</ele><time>2019-08-30T11:17:10Z</time><name>PT5051</name></trkpt>
<trkpt lat="53.227245" lon="-1.834490"><ele>342</ele><time>2019-08-30T11:17:11Z</time><name>PT5052</name></trkpt>
<trkpt lat="53.227250" lon="-1.834473"><ele>342</ele><time>2019-08-30T11:17:12Z</time><name>PT5053</name></trkpt>
<trkpt lat="53.227240" lon="-1.834442"><ele>342</ele><time>2019-08-30T11:17:13Z</time><name>PT5054</name></trkpt>
<trkpt lat="53.227243" lon="-1.834427"><ele>340</ele><time>2019-08-30T11:17:14Z</time><name>PT5055</name></trkpt>
<trkpt lat="53.227239" lon="-1.834413"><ele>339</ele><time>2019-08-30T11:17:15Z</time><name>PT5056</name></trkpt>
<trkpt lat="53.227241" lon="-1.834403"><ele>339</ele><time>2019-08-30T11:17:16Z</time><name>PT5057</name></trkpt>
<trkpt lat="53.227249" lon="-1.834392"><ele>337</ele><time>2019-08-30T11:17:17Z</time><name>PT5058</name></trkpt>
<trkpt lat="53.227250" lon="-1.834373"><ele>337</ele><time>2019-08-30T11:17:18Z</time><name>PT5059</name></trkpt>
<trkpt lat="53.227246" lon="-1.834344"><ele>338</ele><time>2019-08-30T11:17:19Z</time><name>PT5060</name></trkpt>
<trkpt lat="53.227243" lon="-1.834329"><ele>338</ele><time>2019-08-30T11:17:20Z</time><name>PT5061</name></trkpt>
<trkpt lat="53.227242" lon="-1.834324"><ele>338</ele><time>2019-08-30T11:17:22Z</time><name>PT5062</name></trkpt>
<trkpt lat="53.227242" lon="-1.834319"><ele>338</ele><time>2019-08-30T11:17:22Z</time><name>PT5063</name></trkpt>
<trkpt lat="53.227238" lon="-1.834313"><ele>338</ele><time>2019-08-30T11:17:23Z</time><name>PT5064</name></trkpt>
<trkpt lat="53.227233" lon="-1.834301"><ele>338</ele><time>2019-08-30T11:17:24Z</time><name>PT5065</name></trkpt>
<trkpt lat="53.227228" lon="-1.834290"><ele>339</ele><time>2019-08-30T11:17:25Z</time><name>PT5066</name></trkpt>
<trkpt lat="53.227228" lon="-1.834279"><ele>339</ele><time>2019-08-30T11:17:26Z</time><name>PT5067</name></trkpt>
<trkpt lat="53.227224" lon="-1.834263"><ele>339</ele><time>2019-08-30T11:17:27Z</time><name>PT5068</name></trkpt>
<trkpt lat="53.227217" lon="-1.834238"><ele>339</ele><time>2019-08-30T11:17:28Z</time><name>PT5069</name></trkpt>
<trkpt lat="53.227194" lon="-1.834176"><ele>339</ele><time>2019-08-30T11:17:29Z</time><name>PT5070</name></trkpt>
<trkpt lat="53.227177" lon="-1.834119"><ele>340</ele><time>2019-08-30T11:17:30Z</time><name>PT5071</name></trkpt>
<trkpt lat="53.227164" lon="-1.834084"><ele>341</ele><time>2019-08-30T11:17:31Z</time><name>PT5072</name></trkpt>
<trkpt lat="53.227158" lon="-1.834061"><ele>342</ele><time>2019-08-30T11:17:32Z</time><name>PT5073</name></trkpt>
<trkpt lat="53.227147" lon="-1.834029"><ele>342</ele><time>2019-08-30T11:17:33Z</time><name>PT5074</name></trkpt>
<trkpt lat="53.227141" lon="-1.834005"><ele>342</ele><time>2019-08-30T11:17:34Z</time><name>PT5075</name></trkpt>
<trkpt lat="53.227133" lon="-1.833982"><ele>342</ele><time>2019-08-30T11:17:35Z</time><name>PT5076</name></trkpt>
<trkpt lat="53.227133" lon="-1.833977"><ele>342</ele><time>2019-08-30T11:17:37Z</time><name>PT5077</name></trkpt>
<trkpt lat="53.227123" lon="-1.833969"><ele>342</ele><time>2019-08-30T11:17:37Z</time><name>PT5078</name></trkpt>
<trkpt lat="53.227122" lon="-1.833966"><ele>342</ele><time>2019-08-30T11:17:38Z</time><name>PT5079</name></trkpt>
<trkpt lat="53.227123" lon="-1.833962"><ele>343</ele><time>2019-08-30T11:17:39Z</time><name>PT5080</name></trkpt>
<trkpt lat="53.227124" lon="-1.833954"><ele>343</ele><time>2019-08-30T11:17:40Z</time><name>PT5081</name></trkpt>
<trkpt lat="53.227124" lon="-1.833946"><ele>343</ele><time>2019-08-30T11:17:41Z</time><name>PT5082</name></trkpt>
<trkpt lat="53.227120" lon="-1.833944"><ele>342</ele><time>2019-08-30T11:17:42Z</time><name>PT5083</name></trkpt>
<trkpt lat="53.227119" lon="-1.833940"><ele>342</ele><time>2019-08-30T11:17:43Z</time><name>PT5084</name></trkpt>
<trkpt lat="53.227117" lon="-1.833937"><ele>343</ele><time>2019-08-30T11:17:44Z</time><name>PT5085</name></trkpt>
<trkpt lat="53.227114" lon="-1.833928"><ele>342</ele><time>2019-08-30T11:17:45Z</time><name>PT5086</name></trkpt>
<trkpt lat="53.227105" lon="-1.833923"><ele>342</ele><time>2019-08-30T11:17:46Z</time><name>PT5087</name></trkpt>
<trkpt lat="53.227106" lon="-1.833919"><ele>342</ele><time>2019-08-30T11:17:47Z</time><name>PT5088</name></trkpt>
<trkpt lat="53.227104" lon="-1.833916"><ele>342</ele><time>2019-08-30T11:17:48Z</time><name>PT5089</name></trkpt>
<trkpt lat="53.227103" lon="-1.833909"><ele>342</ele><time>2019-08-30T11:17:49Z</time><name>PT5090</name></trkpt>
<trkpt lat="53.227104" lon="-1.833900"><ele>342</ele><time>2019-08-30T11:17:50Z</time><name>PT5091</name></trkpt>
<trkpt lat="53.227109" lon="-1.833895"><ele>342</ele><time>2019-08-30T11:17:51Z</time><name>PT5092</name></trkpt>
<trkpt lat="53.227110" lon="-1.833894"><ele>342</ele><time>2019-08-30T11:17:52Z</time><name>PT5093</name></trkpt>
<trkpt lat="53.227109" lon="-1.833890"><ele>342</ele><time>2019-08-30T11:17:53Z</time><name>PT5094</name></trkpt>
<trkpt lat="53.227108" lon="-1.833888"><ele>342</ele><time>2019-08-30T11:17:54Z</time><name>PT5095</name></trkpt>
<trkpt lat="53.227103" lon="-1.833882"><ele>342</ele><time>2019-08-30T11:18:02Z</time><name>PT5096</name></trkpt>
<trkpt lat="53.227097" lon="-1.833870"><ele>341</ele><time>2019-08-30T11:18:03Z</time><name>PT5097</name></trkpt>
<trkpt lat="53.227096" lon="-1.833852"><ele>341</ele><time>2019-08-30T11:18:04Z</time><name>PT5098</name></trkpt>
<trkpt lat="53.227093" lon="-1.833836"><ele>341</ele><time>2019-08-30T11:18:05Z</time><name>PT5099</name></trkpt>
<trkpt lat="53.227088" lon="-1.833821"><ele>341</ele><time>2019-08-30T11:18:06Z</time><name>PT5100</name></trkpt>
<trkpt lat="53.227082" lon="-1.833809"><ele>341</ele><time>2019-08-30T11:18:07Z</time><name>PT5101</name></trkpt>
<trkpt lat="53.227077" lon="-1.833800"><ele>341</ele><time>2019-08-30T11:18:08Z</time><name>PT5102</name></trkpt>
<trkpt lat="53.227071" lon="-1.833783"><ele>341</ele><time>2019-08-30T11:18:09Z</time><name>PT5103</name></trkpt>
<trkpt lat="53.227068" lon="-1.833765"><ele>341</ele><time>2019-08-30T11:18:10Z</time><name>PT5104</name></trkpt>
<trkpt lat="53.227065" lon="-1.833747"><ele>340</ele><time>2019-08-30T11:18:11Z</time><name>PT5105</name></trkpt>
<trkpt lat="53.227060" lon="-1.833736"><ele>340</ele><time>2019-08-30T11:18:12Z</time><name>PT5106</name></trkpt>
<trkpt lat="53.227057" lon="-1.833715"><ele>340</ele><time>2019-08-30T11:18:13Z</time><name>PT5107</name></trkpt>
<trkpt lat="53.227056" lon="-1.833699"><ele>340</ele><time>2019-08-30T11:18:14Z</time><name>PT5108</name></trkpt>
<trkpt lat="53.227055" lon="-1.833682"><ele>339</ele><time>2019-08-30T11:18:16Z</time><name>PT5109</name></trkpt>
<trkpt lat="53.227050" lon="-1.833663"><ele>339</ele><time>2019-08-30T11:18:16Z</time><name>PT5110</name></trkpt>
<trkpt lat="53.227045" lon="-1.833648"><ele>338</ele><time>2019-08-30T11:18:17Z</time><name>PT5111</name></trkpt>
<trkpt lat="53.227043" lon="-1.833631"><ele>339</ele><time>2019-08-30T11:18:18Z</time><name>PT5112</name></trkpt>
<trkpt lat="53.227040" lon="-1.833619"><ele>338</ele><time>2019-08-30T11:18:19Z</time><name>PT5113</name></trkpt>
<trkpt lat="53.227040" lon="-1.833613"><ele>336</ele><time>2019-08-30T11:18:20Z</time><name>PT5114</name></trkpt>
<trkpt lat="53.227035" lon="-1.833595"><ele>336</ele><time>2019-08-30T11:18:21Z</time><name>PT5115</name></trkpt>
<trkpt lat="53.227030" lon="-1.833584"><ele>336</ele><time>2019-08-30T11:18:22Z</time><name>PT5116</name></trkpt>
<trkpt lat="53.227029" lon="-1.833570"><ele>335</ele><time>2019-08-30T11:18:23Z</time><name>PT5117</name></trkpt>
<trkpt lat="53.227023" lon="-1.833550"><ele>335</ele><time>2019-08-30T11:18:24Z</time><name>PT5118</name></trkpt>
<trkpt lat="53.227022" lon="-1.833538"><ele>335</ele><time>2019-08-30T11:18:25Z</time><name>PT5119</name></trkpt>
<trkpt lat="53.227016" lon="-1.833523"><ele>334</ele><time>2019-08-30T11:18:26Z</time><name>PT5120</name></trkpt>
<trkpt lat="53.227011" lon="-1.833512"><ele>334</ele><time>2019-08-30T11:18:27Z</time><name>PT5121</name></trkpt>
<trkpt lat="53.227004" lon="-1.833502"><ele>334</ele><time>2019-08-30T11:18:28Z</time><name>PT5122</name></trkpt>
<trkpt lat="53.226997" lon="-1.833483"><ele>334</ele><time>2019-08-30T11:18:29Z</time><name>PT5123</name></trkpt>
<trkpt lat="53.226992" lon="-1.833472"><ele>333</ele><time>2019-08-30T11:18:30Z</time><name>PT5124</name></trkpt>
<trkpt lat="53.226984" lon="-1.833460"><ele>333</ele><time>2019-08-30T11:18:31Z</time><name>PT5125</name></trkpt>
<trkpt lat="53.226983" lon="-1.833448"><ele>332</ele><time>2019-08-30T11:18:32Z</time><name>PT5126</name></trkpt>
<trkpt lat="53.226981" lon="-1.833441"><ele>332</ele><time>2019-08-30T11:18:33Z</time><name>PT5127</name></trkpt>
<trkpt lat="53.226982" lon="-1.833430"><ele>332</ele><time>2019-08-30T11:18:34Z</time><name>PT5128</name></trkpt>
<trkpt lat="53.226981" lon="-1.833420"><ele>331</ele><time>2019-08-30T11:18:35Z</time><name>PT5129</name></trkpt>
<trkpt lat="53.226967" lon="-1.833399"><ele>333</ele><time>2019-08-30T11:18:36Z</time><name>PT5130</name></trkpt>
<trkpt lat="53.226963" lon="-1.833384"><ele>334</ele><time>2019-08-30T11:18:37Z</time><name>PT5131</name></trkpt>
<trkpt lat="53.226960" lon="-1.833386"><ele>330</ele><time>2019-08-30T11:18:38Z</time><name>PT5132</name></trkpt>
<trkpt lat="53.226957" lon="-1.833376"><ele>330</ele><time>2019-08-30T11:18:39Z</time><name>PT5133</name></trkpt>
<trkpt lat="53.226948" lon="-1.833369"><ele>328</ele><time>2019-08-30T11:18:40Z</time><name>PT5134</name></trkpt>
<trkpt lat="53.226941" lon="-1.833346"><ele>329</ele><time>2019-08-30T11:18:41Z</time><name>PT5135</name></trkpt>
<trkpt lat="53.226936" lon="-1.833331"><ele>329</ele><time>2019-08-30T11:18:42Z</time><name>PT5136</name></trkpt>
<trkpt lat="53.226933" lon="-1.833316"><ele>329</ele><time>2019-08-30T11:18:43Z</time><name>PT5137</name></trkpt>
<trkpt lat="53.226934" lon="-1.833309"><ele>329</ele><time>2019-08-30T11:18:44Z</time><name>PT5138</name></trkpt>
<trkpt lat="53.226928" lon="-1.833291"><ele>329</ele><time>2019-08-30T11:18:45Z</time><name>PT5139</name></trkpt>
<trkpt lat="53.226924" lon="-1.833273"><ele>330</ele><time>2019-08-30T11:18:46Z</time><name>PT5140</name></trkpt>
<trkpt lat="53.226920" lon="-1.833259"><ele>330</ele><time>2019-08-30T11:18:47Z</time><name>PT5141</name></trkpt>
<trkpt lat="53.226917" lon="-1.833250"><ele>331</ele><time>2019-08-30T11:18:48Z</time><name>PT5142</name></trkpt>
<trkpt lat="53.226916" lon="-1.833243"><ele>331</ele><time>2019-08-30T11:18:49Z</time><name>PT5143</name></trkpt>
<trkpt lat="53.226909" lon="-1.833211"><ele>334</ele><time>2019-08-30T11:18:50Z</time><name>PT5144</name></trkpt>
<trkpt lat="53.226909" lon="-1.833183"><ele>336</ele><time>2019-08-30T11:18:51Z</time><name>PT5145</name></trkpt>
<trkpt lat="53.226903" lon="-1.833143"><ele>339</ele><time>2019-08-30T11:18:52Z</time><name>PT5146</name></trkpt>
<trkpt lat="53.226892" lon="-1.833098"><ele>341</ele><time>2019-08-30T11:18:53Z</time><name>PT5147</name></trkpt>
<trkpt lat="53.226889" lon="-1.833089"><ele>341</ele><time>2019-08-30T11:18:55Z</time><name>PT5148</name></trkpt>
<trkpt lat="53.226888" lon="-1.833086"><ele>341</ele><time>2019-08-30T11:18:56Z</time><name>PT5149</name></trkpt>
<trkpt lat="53.226891" lon="-1.833083"><ele>341</ele><time>2019-08-30T11:18:57Z</time><name>PT5150</name></trkpt>
<trkpt lat="53.226895" lon="-1.833078"><ele>341</ele><time>2019-08-30T11:18:58Z</time><name>PT5151</name></trkpt>
<trkpt lat="53.226890" lon="-1.833083"><ele>341</ele><time>2019-08-30T11:18:59Z</time><name>PT5152</name></trkpt>
<trkpt lat="53.226886" lon="-1.833082"><ele>342</ele><time>2019-08-30T11:19:00Z</time><name>PT5153</name></trkpt>
<trkpt lat="53.226884" lon="-1.833073"><ele>341</ele><time>2019-08-30T11:19:01Z</time><name>PT5154</name></trkpt>
<trkpt lat="53.226883" lon="-1.833066"><ele>341</ele><time>2019-08-30T11:19:02Z</time><name>PT5155</name></trkpt>
<trkpt lat="53.226882" lon="-1.833062"><ele>341</ele><time>2019-08-30T11:19:20Z</time><name>PT5156</name></trkpt>
<trkpt lat="53.226880" lon="-1.833049"><ele>342</ele><time>2019-08-30T11:19:21Z</time><name>PT5157</name></trkpt>
<trkpt lat="53.226881" lon="-1.833024"><ele>343</ele><time>2019-08-30T11:19:24Z</time><name>PT5158</name></trkpt>
<trkpt lat="53.226875" lon="-1.833013"><ele>343</ele><time>2019-08-30T11:19:25Z</time><name>PT5159</name></trkpt>
<trkpt lat="53.226875" lon="-1.833013"><ele>344</ele><time>2019-08-30T11:20:02Z</time><name>PT5160</name></trkpt>
<trkpt lat="53.226874" lon="-1.833012"><ele>344</ele><time>2019-08-30T11:20:03Z</time><name>PT5161</name></trkpt>
<trkpt lat="53.226874" lon="-1.833006"><ele>344</ele><time>2019-08-30T11:20:04Z</time><name>PT5162</name></trkpt>
<trkpt lat="53.226874" lon="-1.833003"><ele>344</ele><time>2019-08-30T11:20:05Z</time><name>PT5163</name></trkpt>
<trkpt lat="53.226868" lon="-1.832982"><ele>344</ele><time>2019-08-30T11:21:31Z</time><name>PT5164</name></trkpt>
<trkpt lat="53.226873" lon="-1.832960"><ele>345</ele><time>2019-08-30T11:21:32Z</time><name>PT5165</name></trkpt>
<trkpt lat="53.226872" lon="-1.832951"><ele>345</ele><time>2019-08-30T11:21:33Z</time><name>PT5166</name></trkpt>
<trkpt lat="53.226874" lon="-1.832948"><ele>345</ele><time>2019-08-30T11:21:34Z</time><name>PT5167</name></trkpt>
<trkpt lat="53.226874" lon="-1.832944"><ele>344</ele><time>2019-08-30T11:21:35Z</time><name>PT5168</name></trkpt>
<trkpt lat="53.226879" lon="-1.832939"><ele>344</ele><time>2019-08-30T11:21:36Z</time><name>PT5169</name></trkpt>
<trkpt lat="53.226882" lon="-1.832936"><ele>344</ele><time>2019-08-30T11:21:37Z</time><name>PT5170</name></trkpt>
<trkpt lat="53.226889" lon="-1.832932"><ele>343</ele><time>2019-08-30T11:21:38Z</time><name>PT5171</name></trkpt>
<trkpt lat="53.226894" lon="-1.832926"><ele>343</ele><time>2019-08-30T11:21:39Z</time><name>PT5172</name></trkpt>
<trkpt lat="53.226898" lon="-1.832919"><ele>343</ele><time>2019-08-30T11:21:40Z</time><name>PT5173</name></trkpt>
<trkpt lat="53.226900" lon="-1.832913"><ele>342</ele><time>2019-08-30T11:21:41Z</time><name>PT5174</name></trkpt>
<trkpt lat="53.226903" lon="-1.832906"><ele>342</ele><time>2019-08-30T11:21:42Z</time><name>PT5175</name></trkpt>
<trkpt lat="53.226905" lon="-1.832901"><ele>342</ele><time>2019-08-30T11:21:43Z</time><name>PT5176</name></trkpt>
<trkpt lat="53.226905" lon="-1.832898"><ele>342</ele><time>2019-08-30T11:21:44Z</time><name>PT5177</name></trkpt>
<trkpt lat="53.226911" lon="-1.832890"><ele>342</ele><time>2019-08-30T11:21:45Z</time><name>PT5178</name></trkpt>
<trkpt lat="53.226917" lon="-1.832887"><ele>342</ele><time>2019-08-30T11:21:46Z</time><name>PT5179</name></trkpt>
<trkpt lat="53.226920" lon="-1.832882"><ele>342</ele><time>2019-08-30T11:21:47Z</time><name>PT5180</name></trkpt>
<trkpt lat="53.226923" lon="-1.832877"><ele>342</ele><time>2019-08-30T11:21:48Z</time><name>PT5181</name></trkpt>
<trkpt lat="53.226927" lon="-1.832872"><ele>342</ele><time>2019-08-30T11:21:49Z</time><name>PT5182</name></trkpt>
<trkpt lat="53.226930" lon="-1.832864"><ele>342</ele><time>2019-08-30T11:21:50Z</time><name>PT5183</name></trkpt>
<trkpt lat="53.226938" lon="-1.832857"><ele>343</ele><time>2019-08-30T11:21:51Z</time><name>PT5184</name></trkpt>
<trkpt lat="53.226944" lon="-1.832846"><ele>343</ele><time>2019-08-30T11:21:52Z</time><name>PT5185</name></trkpt>
<trkpt lat="53.226950" lon="-1.832841"><ele>343</ele><time>2019-08-30T11:21:53Z</time><name>PT5186</name></trkpt>
<trkpt lat="53.226958" lon="-1.832833"><ele>342</ele><time>2019-08-30T11:21:54Z</time><name>PT5187</name></trkpt>
<trkpt lat="53.226964" lon="-1.832826"><ele>342</ele><time>2019-08-30T11:21:55Z</time><name>PT5188</name></trkpt>
<trkpt lat="53.226974" lon="-1.832821"><ele>342</ele><time>2019-08-30T11:21:56Z</time><name>PT5189</name></trkpt>
<trkpt lat="53.226982" lon="-1.832818"><ele>342</ele><time>2019-08-30T11:21:57Z</time><name>PT5190</name></trkpt>
<trkpt lat="53.226987" lon="-1.832812"><ele>341</ele><time>2019-08-30T11:21:58Z</time><name>PT5191</name></trkpt>
<trkpt lat="53.226994" lon="-1.832800"><ele>342</ele><time>2019-08-30T11:21:59Z</time><name>PT5192</name></trkpt>
<trkpt lat="53.227003" lon="-1.832794"><ele>342</ele><time>2019-08-30T11:22:00Z</time><name>PT5193</name></trkpt>
<trkpt lat="53.227012" lon="-1.832788"><ele>342</ele><time>2019-08-30T11:22:01Z</time><name>PT5194</name></trkpt>
<trkpt lat="53.227019" lon="-1.832783"><ele>342</ele><time>2019-08-30T11:22:02Z</time><name>PT5195</name></trkpt>
<trkpt lat="53.227027" lon="-1.832772"><ele>342</ele><time>2019-08-30T11:22:03Z</time><name>PT5196</name></trkpt>
<trkpt lat="53.227036" lon="-1.832765"><ele>343</ele><time>2019-08-30T11:22:04Z</time><name>PT5197</name></trkpt>
<trkpt lat="53.227041" lon="-1.832760"><ele>343</ele><time>2019-08-30T11:22:05Z</time><name>PT5198</name></trkpt>
<trkpt lat="53.227047" lon="-1.832751"><ele>343</ele><time>2019-08-30T11:22:06Z</time><name>PT5199</name></trkpt>
<trkpt lat="53.227054" lon="-1.832744"><ele>343</ele><time>2019-08-30T11:22:07Z</time><name>PT5200</name></trkpt>
<trkpt lat="53.227059" lon="-1.832737"><ele>343</ele><time>2019-08-30T11:22:08Z</time><name>PT5201</name></trkpt>
<trkpt lat="53.227065" lon="-1.832731"><ele>342</ele><time>2019-08-30T11:22:09Z</time><name>PT5202</name></trkpt>
<trkpt lat="53.227072" lon="-1.832728"><ele>341</ele><time>2019-08-30T11:22:10Z</time><name>PT5203</name></trkpt>
<trkpt lat="53.227075" lon="-1.832722"><ele>341</ele><time>2019-08-30T11:22:11Z</time><name>PT5204</name></trkpt>
<trkpt lat="53.227082" lon="-1.832716"><ele>341</ele><time>2019-08-30T11:22:12Z</time><name>PT5205</name></trkpt>
<trkpt lat="53.227092" lon="-1.832710"><ele>341</ele><time>2019-08-30T11:22:13Z</time><name>PT5206</name></trkpt>
<trkpt lat="53.227102" lon="-1.832701"><ele>341</ele><time>2019-08-30T11:22:14Z</time><name>PT5207</name></trkpt>
<trkpt lat="53.227111" lon="-1.832692"><ele>341</ele><time>2019-08-30T11:22:15Z</time><name>PT5208</name></trkpt>
<trkpt lat="53.227118" lon="-1.832685"><ele>341</ele><time>2019-08-30T11:22:16Z</time><name>PT5209</name></trkpt>
<trkpt lat="53.227126" lon="-1.832678"><ele>341</ele><time>2019-08-30T11:22:17Z</time><name>PT5210</name></trkpt>
<trkpt lat="53.227135" lon="-1.832669"><ele>341</ele><time>2019-08-30T11:22:18Z</time><name>PT5211</name></trkpt>
<trkpt lat="53.227144" lon="-1.832663"><ele>342</ele><time>2019-08-30T11:22:19Z</time><name>PT5212</name></trkpt>
<trkpt lat="53.227155" lon="-1.832656"><ele>342</ele><time>2019-08-30T11:22:20Z</time><name>PT5213</name></trkpt>
<trkpt lat="53.227164" lon="-1.832649"><ele>342</ele><time>2019-08-30T11:22:21Z</time><name>PT5214</name></trkpt>
<trkpt lat="53.227173" lon="-1.832641"><ele>342</ele><time>2019-08-30T11:22:22Z</time><name>PT5215</name></trkpt>
<trkpt lat="53.227183" lon="-1.832636"><ele>341</ele><time>2019-08-30T11:22:23Z</time><name>PT5216</name></trkpt>
<trkpt lat="53.227192" lon="-1.832627"><ele>340</ele><time>2019-08-30T11:22:24Z</time><name>PT5217</name></trkpt>
<trkpt lat="53.227200" lon="-1.832623"><ele>340</ele><time>2019-08-30T11:22:25Z</time><name>PT5218</name></trkpt>
<trkpt lat="53.227208" lon="-1.832620"><ele>340</ele><time>2019-08-30T11:22:26Z</time><name>PT5219</name></trkpt>
<trkpt lat="53.227218" lon="-1.832612"><ele>339</ele><time>2019-08-30T11:22:27Z</time><name>PT5220</name></trkpt>
<trkpt lat="53.227225" lon="-1.832608"><ele>339</ele><time>2019-08-30T11:22:28Z</time><name>PT5221</name></trkpt>
<trkpt lat="53.227232" lon="-1.832602"><ele>339</ele><time>2019-08-30T11:22:29Z</time><name>PT5222</name></trkpt>
<trkpt lat="53.227241" lon="-1.832593"><ele>340</ele><time>2019-08-30T11:22:30Z</time><name>PT5223</name></trkpt>
<trkpt lat="53.227252" lon="-1.832580"><ele>340</ele><time>2019-08-30T11:22:31Z</time><name>PT5224</name></trkpt>
<trkpt lat="53.227260" lon="-1.832571"><ele>340</ele><time>2019-08-30T11:22:32Z</time><name>PT5225</name></trkpt>
<trkpt lat="53.227267" lon="-1.832561"><ele>340</ele><time>2019-08-30T11:22:33Z</time><name>PT5226</name></trkpt>
<trkpt lat="53.227277" lon="-1.832553"><ele>340</ele><time>2019-08-30T11:22:34Z</time><name>PT5227</name></trkpt>
<trkpt lat="53.227287" lon="-1.832540"><ele>341</ele><time>2019-08-30T11:22:35Z</time><name>PT5228</name></trkpt>
<trkpt lat="53.227299" lon="-1.832526"><ele>342</ele><time>2019-08-30T11:22:36Z</time><name>PT5229</name></trkpt>
<trkpt lat="53.227307" lon="-1.832505"><ele>343</ele><time>2019-08-30T11:22:37Z</time><name>PT5230</name></trkpt>
<trkpt lat="53.227312" lon="-1.832489"><ele>344</ele><time>2019-08-30T11:22:38Z</time><name>PT5231</name></trkpt>
<trkpt lat="53.227322" lon="-1.832472"><ele>345</ele><time>2019-08-30T11:22:39Z</time><name>PT5232</name></trkpt>
<trkpt lat="53.227330" lon="-1.832461"><ele>344</ele><time>2019-08-30T11:22:40Z</time><name>PT5233</name></trkpt>
<trkpt lat="53.227340" lon="-1.832449"><ele>344</ele><time>2019-08-30T11:22:41Z</time><name>PT5234</name></trkpt>
<trkpt lat="53.227348" lon="-1.832441"><ele>344</ele><time>2019-08-30T11:22:42Z</time><name>PT5235</name></trkpt>
<trkpt lat="53.227358" lon="-1.832432"><ele>345</ele><time>2019-08-30T11:22:43Z</time><name>PT5236</name></trkpt>
<trkpt lat="53.227369" lon="-1.832421"><ele>345</ele><time>2019-08-30T11:22:44Z</time><name>PT5237</name></trkpt>
<trkpt lat="53.227379" lon="-1.832409"><ele>345</ele><time>2019-08-30T11:22:45Z</time><name>PT5238</name></trkpt>
<trkpt lat="53.227389" lon="-1.832400"><ele>346</ele><time>2019-08-30T11:22:46Z</time><name>PT5239</name></trkpt>
<trkpt lat="53.227401" lon="-1.832390"><ele>346</ele><time>2019-08-30T11:22:47Z</time><name>PT5240</name></trkpt>
<trkpt lat="53.227408" lon="-1.832381"><ele>346</ele><time>2019-08-30T11:22:48Z</time><name>PT5241</name></trkpt>
<trkpt lat="53.227414" lon="-1.832367"><ele>346</ele><time>2019-08-30T11:22:49Z</time><name>PT5242</name></trkpt>
<trkpt lat="53.227423" lon="-1.832355"><ele>346</ele><time>2019-08-30T11:22:50Z</time><name>PT5243</name></trkpt>
<trkpt lat="53.227435" lon="-1.832342"><ele>346</ele><time>2019-08-30T11:22:51Z</time><name>PT5244</name></trkpt>
<trkpt lat="53.227442" lon="-1.832330"><ele>346</ele><time>2019-08-30T11:22:52Z</time><name>PT5245</name></trkpt>
<trkpt lat="53.227451" lon="-1.832319"><ele>347</ele><time>2019-08-30T11:22:53Z</time><name>PT5246</name></trkpt>
<trkpt lat="53.227462" lon="-1.832310"><ele>346</ele><time>2019-08-30T11:22:54Z</time><name>PT5247</name></trkpt>
<trkpt lat="53.227474" lon="-1.832301"><ele>347</ele><time>2019-08-30T11:22:55Z</time><name>PT5248</name></trkpt>
<trkpt lat="53.227482" lon="-1.832289"><ele>347</ele><time>2019-08-30T11:22:56Z</time><name>PT5249</name></trkpt>
<trkpt lat="53.227489" lon="-1.832274"><ele>347</ele><time>2019-08-30T11:22:57Z</time><name>PT5250</name></trkpt>
<trkpt lat="53.227497" lon="-1.832264"><ele>347</ele><time>2019-08-30T11:22:58Z</time><name>PT5251</name></trkpt>
<trkpt lat="53.227510" lon="-1.832254"><ele>347</ele><time>2019-08-30T11:22:59Z</time><name>PT5252</name></trkpt>
<trkpt lat="53.227514" lon="-1.832250"><ele>346</ele><time>2019-08-30T11:23:00Z</time><name>PT5253</name></trkpt>
<trkpt lat="53.227521" lon="-1.832238"><ele>347</ele><time>2019-08-30T11:23:01Z</time><name>PT5254</name></trkpt>
<trkpt lat="53.227530" lon="-1.832226"><ele>347</ele><time>2019-08-30T11:23:02Z</time><name>PT5255</name></trkpt>
<trkpt lat="53.227544" lon="-1.832212"><ele>347</ele><time>2019-08-30T11:23:03Z</time><name>PT5256</name></trkpt>
<trkpt lat="53.227553" lon="-1.832197"><ele>347</ele><time>2019-08-30T11:23:04Z</time><name>PT5257</name></trkpt>
<trkpt lat="53.227560" lon="-1.832185"><ele>348</ele><time>2019-08-30T11:23:05Z</time><name>PT5258</name></trkpt>
<trkpt lat="53.227567" lon="-1.832171"><ele>348</ele><time>2019-08-30T11:23:06Z</time><name>PT5259</name></trkpt>
<trkpt lat="53.227576" lon="-1.832158"><ele>349</ele><time>2019-08-30T11:23:07Z</time><name>PT5260</name></trkpt>
<trkpt lat="53.227584" lon="-1.832147"><ele>349</ele><time>2019-08-30T11:23:08Z</time><name>PT5261</name></trkpt>
<trkpt lat="53.227593" lon="-1.832135"><ele>349</ele><time>2019-08-30T11:23:09Z</time><name>PT5262</name></trkpt>
<trkpt lat="53.227604" lon="-1.832121"><ele>349</ele><time>2019-08-30T11:23:10Z</time><name>PT5263</name></trkpt>
<trkpt lat="53.227612" lon="-1.832110"><ele>348</ele><time>2019-08-30T11:23:11Z</time><name>PT5264</name></trkpt>
<trkpt lat="53.227620" lon="-1.832096"><ele>349</ele><time>2019-08-30T11:23:12Z</time><name>PT5265</name></trkpt>
<trkpt lat="53.227628" lon="-1.832084"><ele>349</ele><time>2019-08-30T11:23:13Z</time><name>PT5266</name></trkpt>
<trkpt lat="53.227637" lon="-1.832074"><ele>348</ele><time>2019-08-30T11:23:14Z</time><name>PT5267</name></trkpt>
<trkpt lat="53.227650" lon="-1.832062"><ele>349</ele><time>2019-08-30T11:23:15Z</time><name>PT5268</name></trkpt>
<trkpt lat="53.227658" lon="-1.832049"><ele>349</ele><time>2019-08-30T11:23:16Z</time><name>PT5269</name></trkpt>
<trkpt lat="53.227668" lon="-1.832034"><ele>349</ele><time>2019-08-30T11:23:17Z</time><name>PT5270</name></trkpt>
<trkpt lat="53.227677" lon="-1.832024"><ele>349</ele><time>2019-08-30T11:23:18Z</time><name>PT5271</name></trkpt>
<trkpt lat="53.227686" lon="-1.832009"><ele>349</ele><time>2019-08-30T11:23:19Z</time><name>PT5272</name></trkpt>
<trkpt lat="53.227691" lon="-1.831993"><ele>349</ele><time>2019-08-30T11:23:20Z</time><name>PT5273</name></trkpt>
<trkpt lat="53.227699" lon="-1.831975"><ele>350</ele><time>2019-08-30T11:23:21Z</time><name>PT5274</name></trkpt>
<trkpt lat="53.227706" lon="-1.831961"><ele>350</ele><time>2019-08-30T11:23:22Z</time><name>PT5275</name></trkpt>
<trkpt lat="53.227717" lon="-1.831946"><ele>350</ele><time>2019-08-30T11:23:23Z</time><name>PT5276</name></trkpt>
<trkpt lat="53.227728" lon="-1.831935"><ele>350</ele><time>2019-08-30T11:23:24Z</time><name>PT5277</name></trkpt>
<trkpt lat="53.227737" lon="-1.831919"><ele>351</ele><time>2019-08-30T11:23:25Z</time><name>PT5278</name></trkpt>
<trkpt lat="53.227744" lon="-1.831908"><ele>351</ele><time>2019-08-30T11:23:26Z</time><name>PT5279</name></trkpt>
<trkpt lat="53.227753" lon="-1.831897"><ele>351</ele><time>2019-08-30T11:23:27Z</time><name>PT5280</name></trkpt>
<trkpt lat="53.227759" lon="-1.831888"><ele>351</ele><time>2019-08-30T11:23:28Z</time><name>PT5281</name></trkpt>
<trkpt lat="53.227765" lon="-1.831873"><ele>351</ele><time>2019-08-30T11:23:29Z</time><name>PT5282</name></trkpt>
<trkpt lat="53.227772" lon="-1.831857"><ele>351</ele><time>2019-08-30T11:23:30Z</time><name>PT5283</name></trkpt>
<trkpt lat="53.227780" lon="-1.831849"><ele>351</ele><time>2019-08-30T11:23:31Z</time><name>PT5284</name></trkpt>
<trkpt lat="53.227786" lon="-1.831842"><ele>351</ele><time>2019-08-30T11:23:32Z</time><name>PT5285</name></trkpt>
<trkpt lat="53.227791" lon="-1.831833"><ele>351</ele><time>2019-08-30T11:23:34Z</time><name>PT5286</name></trkpt>
<trkpt lat="53.227799" lon="-1.831823"><ele>351</ele><time>2019-08-30T11:23:34Z</time><name>PT5287</name></trkpt>
<trkpt lat="53.227811" lon="-1.831816"><ele>351</ele><time>2019-08-30T11:23:35Z</time><name>PT5288</name></trkpt>
<trkpt lat="53.227819" lon="-1.831811"><ele>350</ele><time>2019-08-30T11:23:36Z</time><name>PT5289</name></trkpt>
<trkpt lat="53.227827" lon="-1.831805"><ele>350</ele><time>2019-08-30T11:23:37Z</time><name>PT5290</name></trkpt>
<trkpt lat="53.227836" lon="-1.831800"><ele>350</ele><time>2019-08-30T11:23:38Z</time><name>PT5291</name></trkpt>
<trkpt lat="53.227845" lon="-1.831789"><ele>350</ele><time>2019-08-30T11:23:39Z</time><name>PT5292</name></trkpt>
<trkpt lat="53.227855" lon="-1.831780"><ele>349</ele><time>2019-08-30T11:23:40Z</time><name>PT5293</name></trkpt>
<trkpt lat="53.227865" lon="-1.831766"><ele>349</ele><time>2019-08-30T11:23:41Z</time><name>PT5294</name></trkpt>
<trkpt lat="53.227873" lon="-1.831744"><ele>349</ele><time>2019-08-30T11:23:42Z</time><name>PT5295</name></trkpt>
<trkpt lat="53.227882" lon="-1.831731"><ele>350</ele><time>2019-08-30T11:23:43Z</time><name>PT5296</name></trkpt>
<trkpt lat="53.227890" lon="-1.831716"><ele>350</ele><time>2019-08-30T11:23:44Z</time><name>PT5297</name></trkpt>
<trkpt lat="53.227898" lon="-1.831701"><ele>351</ele><time>2019-08-30T11:23:45Z</time><name>PT5298</name></trkpt>
<trkpt lat="53.227906" lon="-1.831692"><ele>351</ele><time>2019-08-30T11:23:46Z</time><name>PT5299</name></trkpt>
<trkpt lat="53.227915" lon="-1.831685"><ele>350</ele><time>2019-08-30T11:23:47Z</time><name>PT5300</name></trkpt>
<trkpt lat="53.227927" lon="-1.831671"><ele>351</ele><time>2019-08-30T11:23:48Z</time><name>PT5301</name></trkpt>
<trkpt lat="53.227935" lon="-1.831657"><ele>351</ele><time>2019-08-30T11:23:49Z</time><name>PT5302</name></trkpt>
<trkpt lat="53.227941" lon="-1.831642"><ele>351</ele><time>2019-08-30T11:23:50Z</time><name>PT5303</name></trkpt>
<trkpt lat="53.227949" lon="-1.831635"><ele>351</ele><time>2019-08-30T11:23:51Z</time><name>PT5304</name></trkpt>
<trkpt lat="53.227957" lon="-1.831623"><ele>351</ele><time>2019-08-30T11:23:52Z</time><name>PT5305</name></trkpt>
<trkpt lat="53.227968" lon="-1.831618"><ele>350</ele><time>2019-08-30T11:23:53Z</time><name>PT5306</name></trkpt>
<trkpt lat="53.227976" lon="-1.831611"><ele>350</ele><time>2019-08-30T11:23:54Z</time><name>PT5307</name></trkpt>
<trkpt lat="53.227982" lon="-1.831598"><ele>350</ele><time>2019-08-30T11:23:55Z</time><name>PT5308</name></trkpt>
<trkpt lat="53.227991" lon="-1.831589"><ele>350</ele><time>2019-08-30T11:23:56Z</time><name>PT5309</name></trkpt>
<trkpt lat="53.228000" lon="-1.831582"><ele>349</ele><time>2019-08-30T11:23:57Z</time><name>PT5310</name></trkpt>
<trkpt lat="53.228007" lon="-1.831574"><ele>349</ele><time>2019-08-30T11:23:58Z</time><name>PT5311</name></trkpt>
<trkpt lat="53.228015" lon="-1.831550"><ele>349</ele><time>2019-08-30T11:23:59Z</time><name>PT5312</name></trkpt>
<trkpt lat="53.228023" lon="-1.831541"><ele>349</ele><time>2019-08-30T11:24:00Z</time><name>PT5313</name></trkpt>
<trkpt lat="53.228035" lon="-1.831533"><ele>349</ele><time>2019-08-30T11:24:01Z</time><name>PT5314</name></trkpt>
<trkpt lat="53.228046" lon="-1.831521"><ele>349</ele><time>2019-08-30T11:24:02Z</time><name>PT5315</name></trkpt>
<trkpt lat="53.228056" lon="-1.831507"><ele>349</ele><time>2019-08-30T11:24:03Z</time><name>PT5316</name></trkpt>
<trkpt lat="53.228065" lon="-1.831494"><ele>349</ele><time>2019-08-30T11:24:04Z</time><name>PT5317</name></trkpt>
<trkpt lat="53.228074" lon="-1.831481"><ele>349</ele><time>2019-08-30T11:24:05Z</time><name>PT5318</name></trkpt>
<trkpt lat="53.228084" lon="-1.831471"><ele>349</ele><time>2019-08-30T11:24:06Z</time><name>PT5319</name></trkpt>
<trkpt lat="53.228090" lon="-1.831457"><ele>349</ele><time>2019-08-30T11:24:07Z</time><name>PT5320</name></trkpt>
<trkpt lat="53.228100" lon="-1.831436"><ele>350</ele><time>2019-08-30T11:24:08Z</time><name>PT5321</name></trkpt>
<trkpt lat="53.228107" lon="-1.831418"><ele>350</ele><time>2019-08-30T11:24:09Z</time><name>PT5322</name></trkpt>
<trkpt lat="53.228116" lon="-1.831401"><ele>351</ele><time>2019-08-30T11:24:10Z</time><name>PT5323</name></trkpt>
<trkpt lat="53.228126" lon="-1.831382"><ele>351</ele><time>2019-08-30T11:24:11Z</time><name>PT5324</name></trkpt>
<trkpt lat="53.228130" lon="-1.831372"><ele>351</ele><time>2019-08-30T11:24:12Z</time><name>PT5325</name></trkpt>
<trkpt lat="53.228135" lon="-1.831353"><ele>351</ele><time>2019-08-30T11:24:13Z</time><name>PT5326</name></trkpt>
<trkpt lat="53.228139" lon="-1.831342"><ele>351</ele><time>2019-08-30T11:24:14Z</time><name>PT5327</name></trkpt>
<trkpt lat="53.228149" lon="-1.831329"><ele>351</ele><time>2019-08-30T11:24:15Z</time><name>PT5328</name></trkpt>
<trkpt lat="53.228159" lon="-1.831313"><ele>352</ele><time>2019-08-30T11:24:16Z</time><name>PT5329</name></trkpt>
<trkpt lat="53.228166" lon="-1.831299"><ele>352</ele><time>2019-08-30T11:24:17Z</time><name>PT5330</name></trkpt>
<trkpt lat="53.228174" lon="-1.831289"><ele>352</ele><time>2019-08-30T11:24:18Z</time><name>PT5331</name></trkpt>
<trkpt lat="53.228182" lon="-1.831278"><ele>352</ele><time>2019-08-30T11:24:19Z</time><name>PT5332</name></trkpt>
<trkpt lat="53.228191" lon="-1.831265"><ele>351</ele><time>2019-08-30T11:24:20Z</time><name>PT5333</name></trkpt>
<trkpt lat="53.228197" lon="-1.831249"><ele>351</ele><time>2019-08-30T11:24:21Z</time><name>PT5334</name></trkpt>
<trkpt lat="53.228203" lon="-1.831232"><ele>351</ele><time>2019-08-30T11:24:22Z</time><name>PT5335</name></trkpt>
<trkpt lat="53.228210" lon="-1.831213"><ele>351</ele><time>2019-08-30T11:24:23Z</time><name>PT5336</name></trkpt>
<trkpt lat="53.228219" lon="-1.831199"><ele>351</ele><time>2019-08-30T11:24:24Z</time><name>PT5337</name></trkpt>
<trkpt lat="53.228229" lon="-1.831182"><ele>351</ele><time>2019-08-30T11:24:25Z</time><name>PT5338</name></trkpt>
<trkpt lat="53.228233" lon="-1.831168"><ele>352</ele><time>2019-08-30T11:24:26Z</time><name>PT5339</name></trkpt>
<trkpt lat="53.228240" lon="-1.831154"><ele>352</ele><time>2019-08-30T11:24:27Z</time><name>PT5340</name></trkpt>
<trkpt lat="53.228249" lon="-1.831139"><ele>351</ele><time>2019-08-30T11:24:28Z</time><name>PT5341</name></trkpt>
<trkpt lat="53.228257" lon="-1.831128"><ele>351</ele><time>2019-08-30T11:24:29Z</time><name>PT5342</name></trkpt>
<trkpt lat="53.228266" lon="-1.831117"><ele>351</ele><time>2019-08-30T11:24:30Z</time><name>PT5343</name></trkpt>
<trkpt lat="53.228272" lon="-1.831102"><ele>351</ele><time>2019-08-30T11:24:31Z</time><name>PT5344</name></trkpt>
<trkpt lat="53.228277" lon="-1.831085"><ele>351</ele><time>2019-08-30T11:24:32Z</time><name>PT5345</name></trkpt>
<trkpt lat="53.228284" lon="-1.831068"><ele>351</ele><time>2019-08-30T11:24:33Z</time><name>PT5346</name></trkpt>
<trkpt lat="53.228293" lon="-1.831055"><ele>352</ele><time>2019-08-30T11:24:34Z</time><name>PT5347</name></trkpt>
<trkpt lat="53.228304" lon="-1.831039"><ele>352</ele><time>2019-08-30T11:24:35Z</time><name>PT5348</name></trkpt>
<trkpt lat="53.228313" lon="-1.831026"><ele>352</ele><time>2019-08-30T11:24:36Z</time><name>PT5349</name></trkpt>
<trkpt lat="53.228321" lon="-1.831016"><ele>352</ele><time>2019-08-30T11:24:37Z</time><name>PT5350</name></trkpt>
<trkpt lat="53.228330" lon="-1.831004"><ele>352</ele><time>2019-08-30T11:24:38Z</time><name>PT5351</name></trkpt>
<trkpt lat="53.228341" lon="-1.830998"><ele>352</ele><time>2019-08-30T11:24:39Z</time><name>PT5352</name></trkpt>
<trkpt lat="53.228350" lon="-1.830985"><ele>352</ele><time>2019-08-30T11:24:40Z</time><name>PT5353</name></trkpt>
<trkpt lat="53.228357" lon="-1.830974"><ele>351</ele><time>2019-08-30T11:24:41Z</time><name>PT5354</name></trkpt>
<trkpt lat="53.228368" lon="-1.830961"><ele>351</ele><time>2019-08-30T11:24:42Z</time><name>PT5355</name></trkpt>
<trkpt lat="53.228379" lon="-1.830954"><ele>351</ele><time>2019-08-30T11:24:43Z</time><name>PT5356</name></trkpt>
<trkpt lat="53.228389" lon="-1.830947"><ele>351</ele><time>2019-08-30T11:24:44Z</time><name>PT5357</name></trkpt>
<trkpt lat="53.228398" lon="-1.830934"><ele>350</ele><time>2019-08-30T11:24:45Z</time><name>PT5358</name></trkpt>
<trkpt lat="53.228404" lon="-1.830916"><ele>351</ele><time>2019-08-30T11:24:46Z</time><name>PT5359</name></trkpt>
<trkpt lat="53.228411" lon="-1.830908"><ele>351</ele><time>2019-08-30T11:24:47Z</time><name>PT5360</name></trkpt>
<trkpt lat="53.228420" lon="-1.830896"><ele>351</ele><time>2019-08-30T11:24:48Z</time><name>PT5361</name></trkpt>
<trkpt lat="53.228431" lon="-1.830880"><ele>352</ele><time>2019-08-30T11:24:49Z</time><name>PT5362</name></trkpt>
<trkpt lat="53.228438" lon="-1.830864"><ele>352</ele><time>2019-08-30T11:24:50Z</time><name>PT5363</name></trkpt>
<trkpt lat="53.228443" lon="-1.830848"><ele>352</ele><time>2019-08-30T11:24:51Z</time><name>PT5364</name></trkpt>
<trkpt lat="53.228452" lon="-1.830832"><ele>352</ele><time>2019-08-30T11:24:52Z</time><name>PT5365</name></trkpt>
<trkpt lat="53.228459" lon="-1.830823"><ele>352</ele><time>2019-08-30T11:24:53Z</time><name>PT5366</name></trkpt>
<trkpt lat="53.228470" lon="-1.830801"><ele>353</ele><time>2019-08-30T11:24:54Z</time><name>PT5367</name></trkpt>
<trkpt lat="53.228478" lon="-1.830786"><ele>352</ele><time>2019-08-30T11:24:55Z</time><name>PT5368</name></trkpt>
<trkpt lat="53.228482" lon="-1.830767"><ele>352</ele><time>2019-08-30T11:24:56Z</time><name>PT5369</name></trkpt>
<trkpt lat="53.228491" lon="-1.830753"><ele>352</ele><time>2019-08-30T11:24:57Z</time><name>PT5370</name></trkpt>
<trkpt lat="53.228500" lon="-1.830742"><ele>352</ele><time>2019-08-30T11:24:58Z</time><name>PT5371</name></trkpt>
<trkpt lat="53.228510" lon="-1.830730"><ele>352</ele><time>2019-08-30T11:24:59Z</time><name>PT5372</name></trkpt>
<trkpt lat="53.228518" lon="-1.830707"><ele>352</ele><time>2019-08-30T11:25:00Z</time><name>PT5373</name></trkpt>
<trkpt lat="53.228524" lon="-1.830671"><ele>353</ele><time>2019-08-30T11:25:01Z</time><name>PT5374</name></trkpt>
<trkpt lat="53.228534" lon="-1.830659"><ele>353</ele><time>2019-08-30T11:25:02Z</time><name>PT5375</name></trkpt>
<trkpt lat="53.228545" lon="-1.830647"><ele>353</ele><time>2019-08-30T11:25:03Z</time><name>PT5376</name></trkpt>
<trkpt lat="53.228557" lon="-1.830638"><ele>353</ele><time>2019-08-30T11:25:04Z</time><name>PT5377</name></trkpt>
<trkpt lat="53.228564" lon="-1.830598"><ele>355</ele><time>2019-08-30T11:25:05Z</time><name>PT5378</name></trkpt>
<trkpt lat="53.228570" lon="-1.830552"><ele>357</ele><time>2019-08-30T11:25:06Z</time><name>PT5379</name></trkpt>
<trkpt lat="53.228572" lon="-1.830545"><ele>358</ele><time>2019-08-30T11:25:07Z</time><name>PT5380</name></trkpt>
<trkpt lat="53.228567" lon="-1.830536"><ele>356</ele><time>2019-08-30T11:25:08Z</time><name>PT5381</name></trkpt>
<trkpt lat="53.228569" lon="-1.830528"><ele>356</ele><time>2019-08-30T11:25:09Z</time><name>PT5382</name></trkpt>
<trkpt lat="53.228569" lon="-1.830526"><ele>356</ele><time>2019-08-30T11:25:10Z</time><name>PT5383</name></trkpt>
<trkpt lat="53.228570" lon="-1.830524"><ele>357</ele><time>2019-08-30T11:25:11Z</time><name>PT5384</name></trkpt>
<trkpt lat="53.228572" lon="-1.830524"><ele>357</ele><time>2019-08-30T11:25:13Z</time><name>PT5385</name></trkpt>
<trkpt lat="53.228570" lon="-1.830522"><ele>358</ele><time>2019-08-30T11:25:13Z</time><name>PT5386</name></trkpt>
<trkpt lat="53.228570" lon="-1.830521"><ele>358</ele><time>2019-08-30T11:25:14Z</time><name>PT5387</name></trkpt>
<trkpt lat="53.228574" lon="-1.830500"><ele>358</ele><time>2019-08-30T11:26:11Z</time><name>PT5388</name></trkpt>
<trkpt lat="53.228577" lon="-1.830485"><ele>358</ele><time>2019-08-30T11:26:12Z</time><name>PT5389</name></trkpt>
<trkpt lat="53.228582" lon="-1.830467"><ele>358</ele><time>2019-08-30T11:26:13Z</time><name>PT5390</name></trkpt>
<trkpt lat="53.228585" lon="-1.830459"><ele>357</ele><time>2019-08-30T11:26:14Z</time><name>PT5391</name></trkpt>
<trkpt lat="53.228592" lon="-1.830446"><ele>357</ele><time>2019-08-30T11:26:15Z</time><name>PT5392</name></trkpt>
<trkpt lat="53.228600" lon="-1.830431"><ele>357</ele><time>2019-08-30T11:26:16Z</time><name>PT5393</name></trkpt>
<trkpt lat="53.228606" lon="-1.830415"><ele>357</ele><time>2019-08-30T11:26:17Z</time><name>PT5394</name></trkpt>
<trkpt lat="53.228612" lon="-1.830403"><ele>358</ele><time>2019-08-30T11:26:18Z</time><name>PT5395</name></trkpt>
<trkpt lat="53.228618" lon="-1.830393"><ele>357</ele><time>2019-08-30T11:26:19Z</time><name>PT5396</name></trkpt>
<trkpt lat="53.228626" lon="-1.830378"><ele>357</ele><time>2019-08-30T11:26:20Z</time><name>PT5397</name></trkpt>
<trkpt lat="53.228635" lon="-1.830367"><ele>356</ele><time>2019-08-30T11:26:21Z</time><name>PT5398</name></trkpt>
<trkpt lat="53.228643" lon="-1.830353"><ele>355</ele><time>2019-08-30T11:26:22Z</time><name>PT5399</name></trkpt>
<trkpt lat="53.228649" lon="-1.830334"><ele>356</ele><time>2019-08-30T11:26:23Z</time><name>PT5400</name></trkpt>
<trkpt lat="53.228656" lon="-1.830314"><ele>356</ele><time>2019-08-30T11:26:25Z</time><name>PT5401</name></trkpt>
<trkpt lat="53.228663" lon="-1.830301"><ele>356</ele><time>2019-08-30T11:26:25Z</time><name>PT5402</name></trkpt>
<trkpt lat="53.228669" lon="-1.830285"><ele>357</ele><time>2019-08-30T11:26:26Z</time><name>PT5403</name></trkpt>
<trkpt lat="53.228675" lon="-1.830268"><ele>357</ele><time>2019-08-30T11:26:27Z</time><name>PT5404</name></trkpt>
<trkpt lat="53.228681" lon="-1.830253"><ele>357</ele><time>2019-08-30T11:26:28Z</time><name>PT5405</name></trkpt>
<trkpt lat="53.228687" lon="-1.830239"><ele>356</ele><time>2019-08-30T11:26:29Z</time><name>PT5406</name></trkpt>
<trkpt lat="53.228693" lon="-1.830232"><ele>355</ele><time>2019-08-30T11:26:30Z</time><name>PT5407</name></trkpt>
<trkpt lat="53.228700" lon="-1.830218"><ele>356</ele><time>2019-08-30T11:26:31Z</time><name>PT5408</name></trkpt>
<trkpt lat="53.228709" lon="-1.830197"><ele>356</ele><time>2019-08-30T11:26:32Z</time><name>PT5409</name></trkpt>
<trkpt lat="53.228715" lon="-1.830187"><ele>356</ele><time>2019-08-30T11:26:33Z</time><name>PT5410</name></trkpt>
<trkpt lat="53.228719" lon="-1.830169"><ele>356</ele><time>2019-08-30T11:26:34Z</time><name>PT5411</name></trkpt>
<trkpt lat="53.228722" lon="-1.830158"><ele>356</ele><time>2019-08-30T11:26:35Z</time><name>PT5412</name></trkpt>
<trkpt lat="53.228730" lon="-1.830146"><ele>355</ele><time>2019-08-30T11:26:36Z</time><name>PT5413</name></trkpt>
<trkpt lat="53.228740" lon="-1.830124"><ele>355</ele><time>2019-08-30T11:26:37Z</time><name>PT5414</name></trkpt>
<trkpt lat="53.228746" lon="-1.830110"><ele>356</ele><time>2019-08-30T11:26:38Z</time><name>PT5415</name></trkpt>
<trkpt lat="53.228750" lon="-1.830096"><ele>356</ele><time>2019-08-30T11:26:39Z</time><name>PT5416</name></trkpt>
<trkpt lat="53.228757" lon="-1.830084"><ele>356</ele><time>2019-08-30T11:26:40Z</time><name>PT5417</name></trkpt>
<trkpt lat="53.228761" lon="-1.830075"><ele>356</ele><time>2019-08-30T11:26:41Z</time><name>PT5418</name></trkpt>
<trkpt lat="53.228766" lon="-1.830063"><ele>355</ele><time>2019-08-30T11:26:42Z</time><name>PT5419</name></trkpt>
<trkpt lat="53.228771" lon="-1.830057"><ele>354</ele><time>2019-08-30T11:26:43Z</time><name>PT5420</name></trkpt>
<trkpt lat="53.228773" lon="-1.830046"><ele>354</ele><time>2019-08-30T11:26:44Z</time><name>PT5421</name></trkpt>
<trkpt lat="53.228779" lon="-1.830035"><ele>354</ele><time>2019-08-30T11:26:45Z</time><name>PT5422</name></trkpt>
<trkpt lat="53.228792" lon="-1.830025"><ele>354</ele><time>2019-08-30T11:26:46Z</time><name>PT5423</name></trkpt>
<trkpt lat="53.228800" lon="-1.830009"><ele>354</ele><time>2019-08-30T11:26:47Z</time><name>PT5424</name></trkpt>
<trkpt lat="53.228807" lon="-1.829990"><ele>354</ele><time>2019-08-30T11:26:48Z</time><name>PT5425</name></trkpt>
<trkpt lat="53.228814" lon="-1.829969"><ele>354</ele><time>2019-08-30T11:26:49Z</time><name>PT5426</name></trkpt>
<trkpt lat="53.228819" lon="-1.829947"><ele>354</ele><time>2019-08-30T11:26:50Z</time><name>PT5427</name></trkpt>
<trkpt lat="53.228828" lon="-1.829935"><ele>354</ele><time>2019-08-30T11:26:51Z</time><name>PT5428</name></trkpt>
<trkpt lat="53.228838" lon="-1.829920"><ele>355</ele><time>2019-08-30T11:26:52Z</time><name>PT5429</name></trkpt>
<trkpt lat="53.228850" lon="-1.829911"><ele>355</ele><time>2019-08-30T11:26:53Z</time><name>PT5430</name></trkpt>
<trkpt lat="53.228860" lon="-1.829900"><ele>355</ele><time>2019-08-30T11:26:54Z</time><name>PT5431</name></trkpt>
<trkpt lat="53.228868" lon="-1.829887"><ele>355</ele><time>2019-08-30T11:26:55Z</time><name>PT5432</name></trkpt>
<trkpt lat="53.228875" lon="-1.829871"><ele>355</ele><time>2019-08-30T11:26:56Z</time><name>PT5433</name></trkpt>
<trkpt lat="53.228884" lon="-1.829857"><ele>355</ele><time>2019-08-30T11:26:57Z</time><name>PT5434</name></trkpt>
<trkpt lat="53.228893" lon="-1.829855"><ele>353</ele><time>2019-08-30T11:26:58Z</time><name>PT5435</name></trkpt>
<trkpt lat="53.228901" lon="-1.829844"><ele>353</ele><time>2019-08-30T11:26:59Z</time><name>PT5436</name></trkpt>
<trkpt lat="53.228906" lon="-1.829837"><ele>353</ele><time>2019-08-30T11:27:00Z</time><name>PT5437</name></trkpt>
<trkpt lat="53.228909" lon="-1.829826"><ele>352</ele><time>2019-08-30T11:27:01Z</time><name>PT5438</name></trkpt>
<trkpt lat="53.228912" lon="-1.829813"><ele>352</ele><time>2019-08-30T11:27:02Z</time><name>PT5439</name></trkpt>
<trkpt lat="53.228914" lon="-1.829787"><ele>352</ele><time>2019-08-30T11:27:03Z</time><name>PT5440</name></trkpt>
<trkpt lat="53.228926" lon="-1.829757"><ele>354</ele><time>2019-08-30T11:27:04Z</time><name>PT5441</name></trkpt>
<trkpt lat="53.228930" lon="-1.829731"><ele>355</ele><time>2019-08-30T11:27:05Z</time><name>PT5442</name></trkpt>
<trkpt lat="53.228934" lon="-1.829716"><ele>355</ele><time>2019-08-30T11:27:06Z</time><name>PT5443</name></trkpt>
<trkpt lat="53.228938" lon="-1.829690"><ele>355</ele><time>2019-08-30T11:27:07Z</time><name>PT5444</name></trkpt>
<trkpt lat="53.228948" lon="-1.829682"><ele>356</ele><time>2019-08-30T11:27:08Z</time><name>PT5445</name></trkpt>
<trkpt lat="53.228959" lon="-1.829679"><ele>354</ele><time>2019-08-30T11:27:09Z</time><name>PT5446</name></trkpt>
<trkpt lat="53.228967" lon="-1.829678"><ele>354</ele><time>2019-08-30T11:27:10Z</time><name>PT5447</name></trkpt>
<trkpt lat="53.228978" lon="-1.829664"><ele>355</ele><time>2019-08-30T11:27:11Z</time><name>PT5448</name></trkpt>
<trkpt lat="53.228979" lon="-1.829644"><ele>355</ele><time>2019-08-30T11:27:12Z</time><name>PT5449</name></trkpt>
<trkpt lat="53.228988" lon="-1.829635"><ele>354</ele><time>2019-08-30T11:27:13Z</time><name>PT5450</name></trkpt>
<trkpt lat="53.228996" lon="-1.829626"><ele>355</ele><time>2019-08-30T11:27:14Z</time><name>PT5451</name></trkpt>
<trkpt lat="53.229016" lon="-1.829605"><ele>357</ele><time>2019-08-30T11:27:15Z</time><name>PT5452</name></trkpt>
<trkpt lat="53.229022" lon="-1.829595"><ele>358</ele><time>2019-08-30T11:27:16Z</time><name>PT5453</name></trkpt>
<trkpt lat="53.229028" lon="-1.829579"><ele>358</ele><time>2019-08-30T11:27:17Z</time><name>PT5454</name></trkpt>
<trkpt lat="53.229033" lon="-1.829560"><ele>358</ele><time>2019-08-30T11:27:18Z</time><name>PT5455</name></trkpt>
<trkpt lat="53.229041" lon="-1.829551"><ele>358</ele><time>2019-08-30T11:27:19Z</time><name>PT5456</name></trkpt>
<trkpt lat="53.229059" lon="-1.829543"><ele>357</ele><time>2019-08-30T11:27:20Z</time><name>PT5457</name></trkpt>
<trkpt lat="53.229067" lon="-1.829527"><ele>357</ele><time>2019-08-30T11:27:21Z</time><name>PT5458</name></trkpt>
<trkpt lat="53.229072" lon="-1.829517"><ele>357</ele><time>2019-08-30T11:27:22Z</time><name>PT5459</name></trkpt>
<trkpt lat="53.229079" lon="-1.829502"><ele>358</ele><time>2019-08-30T11:27:23Z</time><name>PT5460</name></trkpt>
<trkpt lat="53.229079" lon="-1.829493"><ele>356</ele><time>2019-08-30T11:27:24Z</time><name>PT5461</name></trkpt>
<trkpt lat="53.229083" lon="-1.829486"><ele>356</ele><time>2019-08-30T11:27:25Z</time><name>PT5462</name></trkpt>
<trkpt lat="53.229097" lon="-1.829485"><ele>356</ele><time>2019-08-30T11:27:26Z</time><name>PT5463</name></trkpt>
<trkpt lat="53.229103" lon="-1.829476"><ele>356</ele><time>2019-08-30T11:27:27Z</time><name>PT5464</name></trkpt>
<trkpt lat="53.229114" lon="-1.829465"><ele>357</ele><time>2019-08-30T11:27:28Z</time><name>PT5465</name></trkpt>
<trkpt lat="53.229125" lon="-1.829453"><ele>358</ele><time>2019-08-30T11:27:29Z</time><name>PT5466</name></trkpt>
<trkpt lat="53.229137" lon="-1.829448"><ele>358</ele><time>2019-08-30T11:27:30Z</time><name>PT5467</name></trkpt>
<trkpt lat="53.229156" lon="-1.829425"><ele>360</ele><time>2019-08-30T11:27:31Z</time><name>PT5468</name></trkpt>
<trkpt lat="53.229163" lon="-1.829415"><ele>360</ele><time>2019-08-30T11:27:32Z</time><name>PT5469</name></trkpt>
<trkpt lat="53.229174" lon="-1.829409"><ele>360</ele><time>2019-08-30T11:27:33Z</time><name>PT5470</name></trkpt>
<trkpt lat="53.229183" lon="-1.829399"><ele>360</ele><time>2019-08-30T11:27:34Z</time><name>PT5471</name></trkpt>
<trkpt lat="53.229194" lon="-1.829390"><ele>360</ele><time>2019-08-30T11:27:35Z</time><name>PT5472</name></trkpt>
<trkpt lat="53.229204" lon="-1.829371"><ele>361</ele><time>2019-08-30T11:27:36Z</time><name>PT5473</name></trkpt>
<trkpt lat="53.229216" lon="-1.829369"><ele>362</ele><time>2019-08-30T11:27:37Z</time><name>PT5474</name></trkpt>
<trkpt lat="53.229221" lon="-1.829359"><ele>362</ele><time>2019-08-30T11:27:38Z</time><name>PT5475</name></trkpt>
<trkpt lat="53.229225" lon="-1.829347"><ele>362</ele><time>2019-08-30T11:27:39Z</time><name>PT5476</name></trkpt>
<trkpt lat="53.229230" lon="-1.829331"><ele>362</ele><time>2019-08-30T11:27:40Z</time><name>PT5477</name></trkpt>
<trkpt lat="53.229241" lon="-1.829318"><ele>362</ele><time>2019-08-30T11:27:41Z</time><name>PT5478</name></trkpt>
<trkpt lat="53.229252" lon="-1.829305"><ele>362</ele><time>2019-08-30T11:27:42Z</time><name>PT5479</name></trkpt>
<trkpt lat="53.229260" lon="-1.829292"><ele>363</ele><time>2019-08-30T11:27:43Z</time><name>PT5480</name></trkpt>
<trkpt lat="53.229269" lon="-1.829282"><ele>363</ele><time>2019-08-30T11:27:44Z</time><name>PT5481</name></trkpt>
<trkpt lat="53.229278" lon="-1.829267"><ele>364</ele><time>2019-08-30T11:27:45Z</time><name>PT5482</name></trkpt>
<trkpt lat="53.229284" lon="-1.829249"><ele>364</ele><time>2019-08-30T11:27:46Z</time><name>PT5483</name></trkpt>
<trkpt lat="53.229290" lon="-1.829245"><ele>364</ele><time>2019-08-30T11:27:47Z</time><name>PT5484</name></trkpt>
<trkpt lat="53.229297" lon="-1.829232"><ele>364</ele><time>2019-08-30T11:27:48Z</time><name>PT5485</name></trkpt>
<trkpt lat="53.229304" lon="-1.829222"><ele>364</ele><time>2019-08-30T11:27:49Z</time><name>PT5486</name></trkpt>
<trkpt lat="53.229314" lon="-1.829215"><ele>364</ele><time>2019-08-30T11:27:50Z</time><name>PT5487</name></trkpt>
<trkpt lat="53.229319" lon="-1.829195"><ele>364</ele><time>2019-08-30T11:27:51Z</time><name>PT5488</name></trkpt>
<trkpt lat="53.229334" lon="-1.829180"><ele>365</ele><time>2019-08-30T11:27:52Z</time><name>PT5489</name></trkpt>
<trkpt lat="53.229352" lon="-1.829175"><ele>365</ele><time>2019-08-30T11:27:53Z</time><name>PT5490</name></trkpt>
<trkpt lat="53.229364" lon="-1.829168"><ele>366</ele><time>2019-08-30T11:27:54Z</time><name>PT5491</name></trkpt>
<trkpt lat="53.229382" lon="-1.829166"><ele>365</ele><time>2019-08-30T11:27:55Z</time><name>PT5492</name></trkpt>
<trkpt lat="53.229396" lon="-1.829160"><ele>365</ele><time>2019-08-30T11:27:56Z</time><name>PT5493</name></trkpt>
<trkpt lat="53.229406" lon="-1.829157"><ele>365</ele><time>2019-08-30T11:27:57Z</time><name>PT5494</name></trkpt>
<trkpt lat="53.229417" lon="-1.829154"><ele>365</ele><time>2019-08-30T11:27:58Z</time><name>PT5495</name></trkpt>
<trkpt lat="53.229427" lon="-1.829149"><ele>365</ele><time>2019-08-30T11:27:59Z</time><name>PT5496</name></trkpt>
<trkpt lat="53.229441" lon="-1.829150"><ele>365</ele><time>2019-08-30T11:28:00Z</time><name>PT5497</name></trkpt>
<trkpt lat="53.229448" lon="-1.829145"><ele>365</ele><time>2019-08-30T11:28:01Z</time><name>PT5498</name></trkpt>
<trkpt lat="53.229456" lon="-1.829142"><ele>365</ele><time>2019-08-30T11:28:02Z</time><name>PT5499</name></trkpt>
<trkpt lat="53.229464" lon="-1.829135"><ele>365</ele><time>2019-08-30T11:28:03Z</time><name>PT5500</name></trkpt>
<trkpt lat="53.229483" lon="-1.829139"><ele>363</ele><time>2019-08-30T11:28:04Z</time><name>PT5501</name></trkpt>
<trkpt lat="53.229497" lon="-1.829126"><ele>362</ele><time>2019-08-30T11:28:05Z</time><name>PT5502</name></trkpt>
<trkpt lat="53.229509" lon="-1.829113"><ele>362</ele><time>2019-08-30T11:28:06Z</time><name>PT5503</name></trkpt>
<trkpt lat="53.229521" lon="-1.829100"><ele>362</ele><time>2019-08-30T11:28:07Z</time><name>PT5504</name></trkpt>
<trkpt lat="53.229525" lon="-1.829095"><ele>361</ele><time>2019-08-30T11:28:08Z</time><name>PT5505</name></trkpt>
<trkpt lat="53.229535" lon="-1.829088"><ele>362</ele><time>2019-08-30T11:28:09Z</time><name>PT5506</name></trkpt>
<trkpt lat="53.229547" lon="-1.829070"><ele>362</ele><time>2019-08-30T11:28:10Z</time><name>PT5507</name></trkpt>
<trkpt lat="53.229558" lon="-1.829063"><ele>362</ele><time>2019-08-30T11:28:11Z</time><name>PT5508</name></trkpt>
<trkpt lat="53.229562" lon="-1.829060"><ele>362</ele><time>2019-08-30T11:28:12Z</time><name>PT5509</name></trkpt>
<trkpt lat="53.229569" lon="-1.829057"><ele>362</ele><time>2019-08-30T11:28:13Z</time><name>PT5510</name></trkpt>
<trkpt lat="53.229584" lon="-1.829049"><ele>362</ele><time>2019-08-30T11:28:14Z</time><name>PT5511</name></trkpt>
<trkpt lat="53.229599" lon="-1.829033"><ele>364</ele><time>2019-08-30T11:28:15Z</time><name>PT5512</name></trkpt>
<trkpt lat="53.229610" lon="-1.829023"><ele>365</ele><time>2019-08-30T11:28:16Z</time><name>PT5513</name></trkpt>
<trkpt lat="53.229617" lon="-1.829009"><ele>366</ele><time>2019-08-30T11:28:17Z</time><name>PT5514</name></trkpt>
<trkpt lat="53.229626" lon="-1.828988"><ele>366</ele><time>2019-08-30T11:28:18Z</time><name>PT5515</name></trkpt>
<trkpt lat="53.229635" lon="-1.828973"><ele>368</ele><time>2019-08-30T11:28:19Z</time><name>PT5516</name></trkpt>
<trkpt lat="53.229644" lon="-1.828964"><ele>370</ele><time>2019-08-30T11:28:20Z</time><name>PT5517</name></trkpt>
<trkpt lat="53.229651" lon="-1.828948"><ele>372</ele><time>2019-08-30T11:28:21Z</time><name>PT5518</name></trkpt>
<trkpt lat="53.229661" lon="-1.828938"><ele>374</ele><time>2019-08-30T11:28:22Z</time><name>PT5519</name></trkpt>
<trkpt lat="53.229674" lon="-1.828922"><ele>377</ele><time>2019-08-30T11:28:23Z</time><name>PT5520</name></trkpt>
<trkpt lat="53.229683" lon="-1.828916"><ele>378</ele><time>2019-08-30T11:28:24Z</time><name>PT5521</name></trkpt>
<trkpt lat="53.229691" lon="-1.828915"><ele>379</ele><time>2019-08-30T11:28:25Z</time><name>PT5522</name></trkpt>
<trkpt lat="53.229696" lon="-1.828908"><ele>379</ele><time>2019-08-30T11:28:26Z</time><name>PT5523</name></trkpt>
<trkpt lat="53.229699" lon="-1.828900"><ele>380</ele><time>2019-08-30T11:28:27Z</time><name>PT5524</name></trkpt>
<trkpt lat="53.229703" lon="-1.828884"><ele>380</ele><time>2019-08-30T11:28:28Z</time><name>PT5525</name></trkpt>
<trkpt lat="53.229711" lon="-1.828873"><ele>381</ele><time>2019-08-30T11:28:29Z</time><name>PT5526</name></trkpt>
<trkpt lat="53.229718" lon="-1.828867"><ele>381</ele><time>2019-08-30T11:28:30Z</time><name>PT5527</name></trkpt>
<trkpt lat="53.229727" lon="-1.828863"><ele>381</ele><time>2019-08-30T11:28:31Z</time><name>PT5528</name></trkpt>
<trkpt lat="53.229736" lon="-1.828861"><ele>380</ele><time>2019-08-30T11:28:32Z</time><name>PT5529</name></trkpt>
<trkpt lat="53.229745" lon="-1.828845"><ele>380</ele><time>2019-08-30T11:28:33Z</time><name>PT5530</name></trkpt>
<trkpt lat="53.229753" lon="-1.828833"><ele>380</ele><time>2019-08-30T11:28:34Z</time><name>PT5531</name></trkpt>
<trkpt lat="53.229764" lon="-1.828832"><ele>380</ele><time>2019-08-30T11:28:35Z</time><name>PT5532</name></trkpt>
<trkpt lat="53.229773" lon="-1.828823"><ele>381</ele><time>2019-08-30T11:28:36Z</time><name>PT5533</name></trkpt>
<trkpt lat="53.229781" lon="-1.828814"><ele>381</ele><time>2019-08-30T11:28:37Z</time><name>PT5534</name></trkpt>
<trkpt lat="53.229786" lon="-1.828809"><ele>381</ele><time>2019-08-30T11:28:38Z</time><name>PT5535</name></trkpt>
<trkpt lat="53.229790" lon="-1.828795"><ele>380</ele><time>2019-08-30T11:28:39Z</time><name>PT5536</name></trkpt>
<trkpt lat="53.229798" lon="-1.828787"><ele>380</ele><time>2019-08-30T11:28:40Z</time><name>PT5537</name></trkpt>
<trkpt lat="53.229802" lon="-1.828778"><ele>379</ele><time>2019-08-30T11:28:41Z</time><name>PT5538</name></trkpt>
<trkpt lat="53.229804" lon="-1.828770"><ele>379</ele><time>2019-08-30T11:28:42Z</time><name>PT5539</name></trkpt>
<trkpt lat="53.229804" lon="-1.828760"><ele>379</ele><time>2019-08-30T11:28:43Z</time><name>PT5540</name></trkpt>
<trkpt lat="53.229805" lon="-1.828749"><ele>379</ele><time>2019-08-30T11:28:44Z</time><name>PT5541</name></trkpt>
<trkpt lat="53.229803" lon="-1.828744"><ele>378</ele><time>2019-08-30T11:28:45Z</time><name>PT5542</name></trkpt>
<trkpt lat="53.229807" lon="-1.828743"><ele>378</ele><time>2019-08-30T11:28:46Z</time><name>PT5543</name></trkpt>
<trkpt lat="53.229809" lon="-1.828743"><ele>378</ele><time>2019-08-30T11:28:47Z</time><name>PT5544</name></trkpt>
<trkpt lat="53.229809" lon="-1.828743"><ele>378</ele><time>2019-08-30T11:28:48Z</time><name>PT5545</name></trkpt>
<trkpt lat="53.229811" lon="-1.828745"><ele>378</ele><time>2019-08-30T11:28:49Z</time><name>PT5546</name></trkpt>
<trkpt lat="53.229819" lon="-1.828749"><ele>377</ele><time>2019-08-30T11:28:50Z</time><name>PT5547</name></trkpt>
<trkpt lat="53.229819" lon="-1.828729"><ele>377</ele><time>2019-08-30T11:28:51Z</time><name>PT5548</name></trkpt>
<trkpt lat="53.229817" lon="-1.828718"><ele>377</ele><time>2019-08-30T11:28:52Z</time><name>PT5549</name></trkpt>
<trkpt lat="53.229821" lon="-1.828702"><ele>376</ele><time>2019-08-30T11:28:53Z</time><name>PT5550</name></trkpt>
<trkpt lat="53.229821" lon="-1.828689"><ele>377</ele><time>2019-08-30T11:28:54Z</time><name>PT5551</name></trkpt>
<trkpt lat="53.229819" lon="-1.828678"><ele>378</ele><time>2019-08-30T11:28:55Z</time><name>PT5552</name></trkpt>
<trkpt lat="53.229816" lon="-1.828661"><ele>378</ele><time>2019-08-30T11:28:56Z</time><name>PT5553</name></trkpt>
<trkpt lat="53.229810" lon="-1.828647"><ele>379</ele><time>2019-08-30T11:28:57Z</time><name>PT5554</name></trkpt>
<trkpt lat="53.229804" lon="-1.828626"><ele>379</ele><time>2019-08-30T11:28:58Z</time><name>PT5555</name></trkpt>
<trkpt lat="53.229805" lon="-1.828609"><ele>381</ele><time>2019-08-30T11:28:59Z</time><name>PT5556</name></trkpt>
<trkpt lat="53.229805" lon="-1.828593"><ele>381</ele><time>2019-08-30T11:29:00Z</time><name>PT5557</name></trkpt>
<trkpt lat="53.229807" lon="-1.828580"><ele>381</ele><time>2019-08-30T11:29:01Z</time><name>PT5558</name></trkpt>
<trkpt lat="53.229817" lon="-1.828567"><ele>379</ele><time>2019-08-30T11:29:02Z</time><name>PT5559</name></trkpt>
<trkpt lat="53.229818" lon="-1.828555"><ele>380</ele><time>2019-08-30T11:29:03Z</time><name>PT5560</name></trkpt>
<trkpt lat="53.229817" lon="-1.828529"><ele>380</ele><time>2019-08-30T11:29:04Z</time><name>PT5561</name></trkpt>
<trkpt lat="53.229814" lon="-1.828508"><ele>380</ele><time>2019-08-30T11:29:05Z</time><name>PT5562</name></trkpt>
<trkpt lat="53.229814" lon="-1.828496"><ele>380</ele><time>2019-08-30T11:29:06Z</time><name>PT5563</name></trkpt>
<trkpt lat="53.229813" lon="-1.828479"><ele>379</ele><time>2019-08-30T11:29:07Z</time><name>PT5564</name></trkpt>
<trkpt lat="53.229813" lon="-1.828465"><ele>379</ele><time>2019-08-30T11:29:08Z</time><name>PT5565</name></trkpt>
<trkpt lat="53.229813" lon="-1.828448"><ele>379</ele><time>2019-08-30T11:29:09Z</time><name>PT5566</name></trkpt>
<trkpt lat="53.229817" lon="-1.828432"><ele>378</ele><time>2019-08-30T11:29:10Z</time><name>PT5567</name></trkpt>
<trkpt lat="53.229818" lon="-1.828424"><ele>378</ele><time>2019-08-30T11:29:11Z</time><name>PT5568</name></trkpt>
<trkpt lat="53.229817" lon="-1.828411"><ele>378</ele><time>2019-08-30T11:29:12Z</time><name>PT5569</name></trkpt>
<trkpt lat="53.229814" lon="-1.828399"><ele>378</ele><time>2019-08-30T11:29:13Z</time><name>PT5570</name></trkpt>
<trkpt lat="53.229815" lon="-1.828384"><ele>379</ele><time>2019-08-30T11:29:14Z</time><name>PT5571</name></trkpt>
<trkpt lat="53.229816" lon="-1.828366"><ele>378</ele><time>2019-08-30T11:29:15Z</time><name>PT5572</name></trkpt>
<trkpt lat="53.229817" lon="-1.828350"><ele>379</ele><time>2019-08-30T11:29:16Z</time><name>PT5573</name></trkpt>
<trkpt lat="53.229812" lon="-1.828335"><ele>379</ele><time>2019-08-30T11:29:17Z</time><name>PT5574</name></trkpt>
<trkpt lat="53.229805" lon="-1.828318"><ele>379</ele><time>2019-08-30T11:29:18Z</time><name>PT5575</name></trkpt>
<trkpt lat="53.229809" lon="-1.828306"><ele>380</ele><time>2019-08-30T11:29:19Z</time><name>PT5576</name></trkpt>
<trkpt lat="53.229812" lon="-1.828293"><ele>380</ele><time>2019-08-30T11:29:20Z</time><name>PT5577</name></trkpt>
<trkpt lat="53.229816" lon="-1.828280"><ele>380</ele><time>2019-08-30T11:29:21Z</time><name>PT5578</name></trkpt>
<trkpt lat="53.229824" lon="-1.828271"><ele>379</ele><time>2019-08-30T11:29:22Z</time><name>PT5579</name></trkpt>
<trkpt lat="53.229829" lon="-1.828253"><ele>378</ele><time>2019-08-30T11:29:23Z</time><name>PT5580</name></trkpt>
<trkpt lat="53.229826" lon="-1.828238"><ele>378</ele><time>2019-08-30T11:29:24Z</time><name>PT5581</name></trkpt>
<trkpt lat="53.229828" lon="-1.828231"><ele>376</ele><time>2019-08-30T11:29:25Z</time><name>PT5582</name></trkpt>
<trkpt lat="53.229834" lon="-1.828218"><ele>375</ele><time>2019-08-30T11:29:26Z</time><name>PT5583</name></trkpt>
<trkpt lat="53.229841" lon="-1.828195"><ele>376</ele><time>2019-08-30T11:29:27Z</time><name>PT5584</name></trkpt>
<trkpt lat="53.229841" lon="-1.828180"><ele>376</ele><time>2019-08-30T11:29:28Z</time><name>PT5585</name></trkpt>
<trkpt lat="53.229844" lon="-1.828165"><ele>376</ele><time>2019-08-30T11:29:29Z</time><name>PT5586</name></trkpt>
<trkpt lat="53.229845" lon="-1.828154"><ele>376</ele><time>2019-08-30T11:29:30Z</time><name>PT5587</name></trkpt>
<trkpt lat="53.229850" lon="-1.828144"><ele>376</ele><time>2019-08-30T11:29:31Z</time><name>PT5588</name></trkpt>
<trkpt lat="53.229850" lon="-1.828131"><ele>376</ele><time>2019-08-30T11:29:32Z</time><name>PT5589</name></trkpt>
<trkpt lat="53.229854" lon="-1.828122"><ele>376</ele><time>2019-08-30T11:29:33Z</time><name>PT5590</name></trkpt>
<trkpt lat="53.229857" lon="-1.828116"><ele>376</ele><time>2019-08-30T11:29:34Z</time><name>PT5591</name></trkpt>
<trkpt lat="53.229857" lon="-1.828108"><ele>374</ele><time>2019-08-30T11:29:35Z</time><name>PT5592</name></trkpt>
<trkpt lat="53.229859" lon="-1.828103"><ele>373</ele><time>2019-08-30T11:29:36Z</time><name>PT5593</name></trkpt>
<trkpt lat="53.229856" lon="-1.828091"><ele>373</ele><time>2019-08-30T11:29:37Z</time><name>PT5594</name></trkpt>
<trkpt lat="53.229857" lon="-1.828073"><ele>374</ele><time>2019-08-30T11:29:38Z</time><name>PT5595</name></trkpt>
<trkpt lat="53.229858" lon="-1.828066"><ele>374</ele><time>2019-08-30T11:29:39Z</time><name>PT5596</name></trkpt>
<trkpt lat="53.229860" lon="-1.828053"><ele>374</ele><time>2019-08-30T11:29:40Z</time><name>PT5597</name></trkpt>
<trkpt lat="53.229860" lon="-1.828041"><ele>374</ele><time>2019-08-30T11:29:41Z</time><name>PT5598</name></trkpt>
<trkpt lat="53.229863" lon="-1.828029"><ele>374</ele><time>2019-08-30T11:29:42Z</time><name>PT5599</name></trkpt>
<trkpt lat="53.229863" lon="-1.828020"><ele>374</ele><time>2019-08-30T11:29:43Z</time><name>PT5600</name></trkpt>
<trkpt lat="53.229866" lon="-1.828009"><ele>373</ele><time>2019-08-30T11:29:44Z</time><name>PT5601</name></trkpt>
<trkpt lat="53.229867" lon="-1.827997"><ele>373</ele><time>2019-08-30T11:29:45Z</time><name>PT5602</name></trkpt>
<trkpt lat="53.229868" lon="-1.827990"><ele>373</ele><time>2019-08-30T11:29:46Z</time><name>PT5603</name></trkpt>
<trkpt lat="53.229870" lon="-1.827972"><ele>373</ele><time>2019-08-30T11:29:47Z</time><name>PT5604</name></trkpt>
<trkpt lat="53.229871" lon="-1.827961"><ele>373</ele><time>2019-08-30T11:29:48Z</time><name>PT5605</name></trkpt>
<trkpt lat="53.229875" lon="-1.827929"><ele>373</ele><time>2019-08-30T11:29:49Z</time><name>PT5606</name></trkpt>
<trkpt lat="53.229879" lon="-1.827924"><ele>373</ele><time>2019-08-30T11:29:50Z</time><name>PT5607</name></trkpt>
<trkpt lat="53.229882" lon="-1.827906"><ele>373</ele><time>2019-08-30T11:29:51Z</time><name>PT5608</name></trkpt>
<trkpt lat="53.229886" lon="-1.827903"><ele>372</ele><time>2019-08-30T11:29:52Z</time><name>PT5609</name></trkpt>
<trkpt lat="53.229891" lon="-1.827894"><ele>372</ele><time>2019-08-30T11:29:53Z</time><name>PT5610</name></trkpt>
<trkpt lat="53.229895" lon="-1.827885"><ele>372</ele><time>2019-08-30T11:29:54Z</time><name>PT5611</name></trkpt>
<trkpt lat="53.229898" lon="-1.827870"><ele>373</ele><time>2019-08-30T11:29:55Z</time><name>PT5612</name></trkpt>
<trkpt lat="53.229900" lon="-1.827855"><ele>373</ele><time>2019-08-30T11:29:56Z</time><name>PT5613</name></trkpt>
<trkpt lat="53.229910" lon="-1.827783"><ele>375</ele><time>2019-08-30T11:30:16Z</time><name>PT5614</name></trkpt>
<trkpt lat="53.229915" lon="-1.827728"><ele>376</ele><time>2019-08-30T11:30:17Z</time><name>PT5615</name></trkpt>
<trkpt lat="53.229926" lon="-1.827689"><ele>376</ele><time>2019-08-30T11:30:18Z</time><name>PT5616</name></trkpt>
<trkpt lat="53.229930" lon="-1.827653"><ele>376</ele><time>2019-08-30T11:30:19Z</time><name>PT5617</name></trkpt>
<trkpt lat="53.229934" lon="-1.827626"><ele>377</ele><time>2019-08-30T11:30:20Z</time><name>PT5618</name></trkpt>
<trkpt lat="53.229938" lon="-1.827602"><ele>377</ele><time>2019-08-30T11:30:21Z</time><name>PT5619</name></trkpt>
<trkpt lat="53.229944" lon="-1.827579"><ele>377</ele><time>2019-08-30T11:30:22Z</time><name>PT5620</name></trkpt>
<trkpt lat="53.229950" lon="-1.827555"><ele>377</ele><time>2019-08-30T11:30:23Z</time><name>PT5621</name></trkpt>
<trkpt lat="53.229956" lon="-1.827539"><ele>377</ele><time>2019-08-30T11:30:25Z</time><name>PT5622</name></trkpt>
<trkpt lat="53.229960" lon="-1.827521"><ele>377</ele><time>2019-08-30T11:30:25Z</time><name>PT5623</name></trkpt>
<trkpt lat="53.229967" lon="-1.827507"><ele>378</ele><time>2019-08-30T11:30:26Z</time><name>PT5624</name></trkpt>
<trkpt lat="53.229970" lon="-1.827489"><ele>378</ele><time>2019-08-30T11:30:27Z</time><name>PT5625</name></trkpt>
<trkpt lat="53.229975" lon="-1.827475"><ele>378</ele><time>2019-08-30T11:30:28Z</time><name>PT5626</name></trkpt>
<trkpt lat="53.229979" lon="-1.827461"><ele>378</ele><time>2019-08-30T11:30:29Z</time><name>PT5627</name></trkpt>
<trkpt lat="53.229984" lon="-1.827452"><ele>378</ele><time>2019-08-30T11:30:30Z</time><name>PT5628</name></trkpt>
<trkpt lat="53.229991" lon="-1.827444"><ele>378</ele><time>2019-08-30T11:30:31Z</time><name>PT5629</name></trkpt>
<trkpt lat="53.229997" lon="-1.827418"><ele>378</ele><time>2019-08-30T11:30:32Z</time><name>PT5630</name></trkpt>
<trkpt lat="53.230005" lon="-1.827399"><ele>378</ele><time>2019-08-30T11:30:33Z</time><name>PT5631</name></trkpt>
<trkpt lat="53.230008" lon="-1.827377"><ele>378</ele><time>2019-08-30T11:30:34Z</time><name>PT5632</name></trkpt>
<trkpt lat="53.230015" lon="-1.827364"><ele>378</ele><time>2019-08-30T11:30:35Z</time><name>PT5633</name></trkpt>
<trkpt lat="53.230022" lon="-1.827326"><ele>378</ele><time>2019-08-30T11:30:36Z</time><name>PT5634</name></trkpt>
<trkpt lat="53.230028" lon="-1.827312"><ele>378</ele><time>2019-08-30T11:30:37Z</time><name>PT5635</name></trkpt>
<trkpt lat="53.230035" lon="-1.827296"><ele>378</ele><time>2019-08-30T11:30:38Z</time><name>PT5636</name></trkpt>
<trkpt lat="53.230037" lon="-1.827275"><ele>378</ele><time>2019-08-30T11:30:39Z</time><name>PT5637</name></trkpt>
<trkpt lat="53.230041" lon="-1.827259"><ele>378</ele><time>2019-08-30T11:30:40Z</time><name>PT5638</name></trkpt>
<trkpt lat="53.230045" lon="-1.827244"><ele>379</ele><time>2019-08-30T11:30:41Z</time><name>PT5639</name></trkpt>
<trkpt lat="53.230050" lon="-1.827232"><ele>378</ele><time>2019-08-30T11:30:42Z</time><name>PT5640</name></trkpt>
<trkpt lat="53.230053" lon="-1.827218"><ele>378</ele><time>2019-08-30T11:30:43Z</time><name>PT5641</name></trkpt>
<trkpt lat="53.230058" lon="-1.827202"><ele>378</ele><time>2019-08-30T11:30:44Z</time><name>PT5642</name></trkpt>
<trkpt lat="53.230061" lon="-1.827187"><ele>378</ele><time>2019-08-30T11:30:45Z</time><name>PT5643</name></trkpt>
<trkpt lat="53.230067" lon="-1.827167"><ele>379</ele><time>2019-08-30T11:30:46Z</time><name>PT5644</name></trkpt>
<trkpt lat="53.230071" lon="-1.827153"><ele>379</ele><time>2019-08-30T11:30:47Z</time><name>PT5645</name></trkpt>
<trkpt lat="53.230075" lon="-1.827138"><ele>379</ele><time>2019-08-30T11:30:48Z</time><name>PT5646</name></trkpt>
<trkpt lat="53.230079" lon="-1.827122"><ele>379</ele><time>2019-08-30T11:30:49Z</time><name>PT5647</name></trkpt>
<trkpt lat="53.230081" lon="-1.827104"><ele>380</ele><time>2019-08-30T11:30:50Z</time><name>PT5648</name></trkpt>
<trkpt lat="53.230083" lon="-1.827084"><ele>380</ele><time>2019-08-30T11:30:51Z</time><name>PT5649</name></trkpt>
<trkpt lat="53.230088" lon="-1.827063"><ele>380</ele><time>2019-08-30T11:30:52Z</time><name>PT5650</name></trkpt>
<trkpt lat="53.230091" lon="-1.827041"><ele>381</ele><time>2019-08-30T11:30:53Z</time><name>PT5651</name></trkpt>
<trkpt lat="53.230095" lon="-1.827021"><ele>381</ele><time>2019-08-30T11:30:55Z</time><name>PT5652</name></trkpt>
<trkpt lat="53.230097" lon="-1.826999"><ele>382</ele><time>2019-08-30T11:30:55Z</time><name>PT5653</name></trkpt>
<trkpt lat="53.230101" lon="-1.826977"><ele>382</ele><time>2019-08-30T11:30:56Z</time><name>PT5654</name></trkpt>
<trkpt lat="53.230105" lon="-1.826959"><ele>383</ele><time>2019-08-30T11:30:57Z</time><name>PT5655</name></trkpt>
<trkpt lat="53.230108" lon="-1.826949"><ele>383</ele><time>2019-08-30T11:30:58Z</time><name>PT5656</name></trkpt>
<trkpt lat="53.230111" lon="-1.826931"><ele>384</ele><time>2019-08-30T11:30:59Z</time><name>PT5657</name></trkpt>
<trkpt lat="53.230114" lon="-1.826916"><ele>384</ele><time>2019-08-30T11:31:00Z</time><name>PT5658</name></trkpt>
<trkpt lat="53.230118" lon="-1.826893"><ele>384</ele><time>2019-08-30T11:31:01Z</time><name>PT5659</name></trkpt>
<trkpt lat="53.230122" lon="-1.826876"><ele>384</ele><time>2019-08-30T11:31:02Z</time><name>PT5660</name></trkpt>
<trkpt lat="53.230125" lon="-1.826854"><ele>385</ele><time>2019-08-30T11:31:03Z</time><name>PT5661</name></trkpt>
<trkpt lat="53.230130" lon="-1.826840"><ele>385</ele><time>2019-08-30T11:31:04Z</time><name>PT5662</name></trkpt>
<trkpt lat="53.230133" lon="-1.826824"><ele>385</ele><time>2019-08-30T11:31:05Z</time><name>PT5663</name></trkpt>
<trkpt lat="53.230135" lon="-1.826787"><ele>388</ele><time>2019-08-30T11:31:06Z</time><name>PT5664</name></trkpt>
<trkpt lat="53.230138" lon="-1.826767"><ele>388</ele><time>2019-08-30T11:31:07Z</time><name>PT5665</name></trkpt>
<trkpt lat="53.230143" lon="-1.826752"><ele>389</ele><time>2019-08-30T11:31:08Z</time><name>PT5666</name></trkpt>
<trkpt lat="53.230148" lon="-1.826735"><ele>389</ele><time>2019-08-30T11:31:09Z</time><name>PT5667</name></trkpt>
<trkpt lat="53.230151" lon="-1.826723"><ele>389</ele><time>2019-08-30T11:31:10Z</time><name>PT5668</name></trkpt>
<trkpt lat="53.230152" lon="-1.826701"><ele>390</ele><time>2019-08-30T11:31:11Z</time><name>PT5669</name></trkpt>
<trkpt lat="53.230157" lon="-1.826687"><ele>391</ele><time>2019-08-30T11:31:12Z</time><name>PT5670</name></trkpt>
<trkpt lat="53.230161" lon="-1.826675"><ele>391</ele><time>2019-08-30T11:31:13Z</time><name>PT5671</name></trkpt>
<trkpt lat="53.230165" lon="-1.826664"><ele>391</ele><time>2019-08-30T11:31:14Z</time><name>PT5672</name></trkpt>
<trkpt lat="53.230164" lon="-1.826637"><ele>392</ele><time>2019-08-30T11:31:15Z</time><name>PT5673</name></trkpt>
<trkpt lat="53.230167" lon="-1.826621"><ele>393</ele><time>2019-08-30T11:31:16Z</time><name>PT5674</name></trkpt>
<trkpt lat="53.230170" lon="-1.826604"><ele>393</ele><time>2019-08-30T11:31:17Z</time><name>PT5675</name></trkpt>
<trkpt lat="53.230174" lon="-1.826584"><ele>394</ele><time>2019-08-30T11:31:18Z</time><name>PT5676</name></trkpt>
<trkpt lat="53.230177" lon="-1.826572"><ele>394</ele><time>2019-08-30T11:31:19Z</time><name>PT5677</name></trkpt>
<trkpt lat="53.230178" lon="-1.826554"><ele>394</ele><time>2019-08-30T11:31:20Z</time><name>PT5678</name></trkpt>
<trkpt lat="53.230182" lon="-1.826540"><ele>394</ele><time>2019-08-30T11:31:21Z</time><name>PT5679</name></trkpt>
<trkpt lat="53.230186" lon="-1.826524"><ele>395</ele><time>2019-08-30T11:31:22Z</time><name>PT5680</name></trkpt>
<trkpt lat="53.230192" lon="-1.826511"><ele>395</ele><time>2019-08-30T11:31:23Z</time><name>PT5681</name></trkpt>
<trkpt lat="53.230194" lon="-1.826492"><ele>396</ele><time>2019-08-30T11:31:24Z</time><name>PT5682</name></trkpt>
<trkpt lat="53.230194" lon="-1.826469"><ele>396</ele><time>2019-08-30T11:31:25Z</time><name>PT5683</name></trkpt>
<trkpt lat="53.230198" lon="-1.826451"><ele>396</ele><time>2019-08-30T11:31:26Z</time><name>PT5684</name></trkpt>
<trkpt lat="53.230203" lon="-1.826433"><ele>397</ele><time>2019-08-30T11:31:27Z</time><name>PT5685</name></trkpt>
<trkpt lat="53.230208" lon="-1.826412"><ele>397</ele><time>2019-08-30T11:31:28Z</time><name>PT5686</name></trkpt>
<trkpt lat="53.230210" lon="-1.826391"><ele>398</ele><time>2019-08-30T11:31:29Z</time><name>PT5687</name></trkpt>
<trkpt lat="53.230212" lon="-1.826372"><ele>398</ele><time>2019-08-30T11:31:30Z</time><name>PT5688</name></trkpt>
<trkpt lat="53.230216" lon="-1.826353"><ele>399</ele><time>2019-08-30T11:31:31Z</time><name>PT5689</name></trkpt>
<trkpt lat="53.230222" lon="-1.826332"><ele>400</ele><time>2019-08-30T11:31:32Z</time><name>PT5690</name></trkpt>
<trkpt lat="53.230224" lon="-1.826319"><ele>400</ele><time>2019-08-30T11:31:33Z</time><name>PT5691</name></trkpt>
<trkpt lat="53.230227" lon="-1.826305"><ele>400</ele><time>2019-08-30T11:31:34Z</time><name>PT5692</name></trkpt>
<trkpt lat="53.230229" lon="-1.826290"><ele>400</ele><time>2019-08-30T11:31:35Z</time><name>PT5693</name></trkpt>
<trkpt lat="53.230232" lon="-1.826273"><ele>401</ele><time>2019-08-30T11:31:36Z</time><name>PT5694</name></trkpt>
<trkpt lat="53.230235" lon="-1.826259"><ele>401</ele><time>2019-08-30T11:31:37Z</time><name>PT5695</name></trkpt>
<trkpt lat="53.230237" lon="-1.826238"><ele>402</ele><time>2019-08-30T11:31:38Z</time><name>PT5696</name></trkpt>
<trkpt lat="53.230240" lon="-1.826217"><ele>402</ele><time>2019-08-30T11:31:39Z</time><name>PT5697</name></trkpt>
<trkpt lat="53.230242" lon="-1.826197"><ele>402</ele><time>2019-08-30T11:31:40Z</time><name>PT5698</name></trkpt>
<trkpt lat="53.230242" lon="-1.826177"><ele>402</ele><time>2019-08-30T11:31:41Z</time><name>PT5699</name></trkpt>
<trkpt lat="53.230244" lon="-1.826160"><ele>403</ele><time>2019-08-30T11:31:42Z</time><name>PT5700</name></trkpt>
<trkpt lat="53.230246" lon="-1.826131"><ele>404</ele><time>2019-08-30T11:31:43Z</time><name>PT5701</name></trkpt>
<trkpt lat="53.230249" lon="-1.826109"><ele>405</ele><time>2019-08-30T11:31:44Z</time><name>PT5702</name></trkpt>
<trkpt lat="53.230251" lon="-1.826093"><ele>405</ele><time>2019-08-30T11:31:45Z</time><name>PT5703</name></trkpt>
<trkpt lat="53.230253" lon="-1.826065"><ele>406</ele><time>2019-08-30T11:31:46Z</time><name>PT5704</name></trkpt>
<trkpt lat="53.230255" lon="-1.826040"><ele>407</ele><time>2019-08-30T11:31:47Z</time><name>PT5705</name></trkpt>
<trkpt lat="53.230255" lon="-1.826018"><ele>407</ele><time>2019-08-30T11:31:48Z</time><name>PT5706</name></trkpt>
<trkpt lat="53.230255" lon="-1.825997"><ele>408</ele><time>2019-08-30T11:31:49Z</time><name>PT5707</name></trkpt>
<trkpt lat="53.230256" lon="-1.825980"><ele>408</ele><time>2019-08-30T11:31:50Z</time><name>PT5708</name></trkpt>
<trkpt lat="53.230256" lon="-1.825935"><ele>409</ele><time>2019-08-30T11:31:51Z</time><name>PT5709</name></trkpt>
<trkpt lat="53.230259" lon="-1.825911"><ele>410</ele><time>2019-08-30T11:31:52Z</time><name>PT5710</name></trkpt>
<trkpt lat="53.230263" lon="-1.825897"><ele>410</ele><time>2019-08-30T11:31:53Z</time><name>PT5711</name></trkpt>
<trkpt lat="53.230267" lon="-1.825884"><ele>410</ele><time>2019-08-30T11:31:54Z</time><name>PT5712</name></trkpt>
<trkpt lat="53.230268" lon="-1.825860"><ele>411</ele><time>2019-08-30T11:31:55Z</time><name>PT5713</name></trkpt>
<trkpt lat="53.230272" lon="-1.825844"><ele>411</ele><time>2019-08-30T11:31:56Z</time><name>PT5714</name></trkpt>
<trkpt lat="53.230279" lon="-1.825828"><ele>412</ele><time>2019-08-30T11:31:57Z</time><name>PT5715</name></trkpt>
<trkpt lat="53.230283" lon="-1.825806"><ele>413</ele><time>2019-08-30T11:31:58Z</time><name>PT5716</name></trkpt>
<trkpt lat="53.230289" lon="-1.825793"><ele>413</ele><time>2019-08-30T11:31:59Z</time><name>PT5717</name></trkpt>
<trkpt lat="53.230294" lon="-1.825771"><ele>413</ele><time>2019-08-30T11:32:00Z</time><name>PT5718</name></trkpt>
<trkpt lat="53.230301" lon="-1.825753"><ele>414</ele><time>2019-08-30T11:32:01Z</time><name>PT5719</name></trkpt>
<trkpt lat="53.230304" lon="-1.825737"><ele>414</ele><time>2019-08-30T11:32:02Z</time><name>PT5720</name></trkpt>
<trkpt lat="53.230310" lon="-1.825722"><ele>414</ele><time>2019-08-30T11:32:03Z</time><name>PT5721</name></trkpt>
<trkpt lat="53.230315" lon="-1.825709"><ele>414</ele><time>2019-08-30T11:32:04Z</time><name>PT5722</name></trkpt>
<trkpt lat="53.230318" lon="-1.825694"><ele>413</ele><time>2019-08-30T11:32:05Z</time><name>PT5723</name></trkpt>
<trkpt lat="53.230324" lon="-1.825676"><ele>413</ele><time>2019-08-30T11:32:06Z</time><name>PT5724</name></trkpt>
<trkpt lat="53.230330" lon="-1.825661"><ele>413</ele><time>2019-08-30T11:32:07Z</time><name>PT5725</name></trkpt>
<trkpt lat="53.230337" lon="-1.825649"><ele>413</ele><time>2019-08-30T11:32:08Z</time><name>PT5726</name></trkpt>
<trkpt lat="53.230346" lon="-1.825635"><ele>413</ele><time>2019-08-30T11:32:09Z</time><name>PT5727</name></trkpt>
<trkpt lat="53.230350" lon="-1.825620"><ele>413</ele><time>2019-08-30T11:32:10Z</time><name>PT5728</name></trkpt>
<trkpt lat="53.230354" lon="-1.825603"><ele>413</ele><time>2019-08-30T11:32:11Z</time><name>PT5729</name></trkpt>
<trkpt lat="53.230356" lon="-1.825586"><ele>414</ele><time>2019-08-30T11:32:12Z</time><name>PT5730</name></trkpt>
<trkpt lat="53.230361" lon="-1.825573"><ele>414</ele><time>2019-08-30T11:32:13Z</time><name>PT5731</name></trkpt>
<trkpt lat="53.230364" lon="-1.825557"><ele>414</ele><time>2019-08-30T11:32:14Z</time><name>PT5732</name></trkpt>
<trkpt lat="53.230367" lon="-1.825544"><ele>414</ele><time>2019-08-30T11:32:15Z</time><name>PT5733</name></trkpt>
<trkpt lat="53.230372" lon="-1.825527"><ele>414</ele><time>2019-08-30T11:32:16Z</time><name>PT5734</name></trkpt>
<trkpt lat="53.230376" lon="-1.825508"><ele>414</ele><time>2019-08-30T11:32:17Z</time><name>PT5735</name></trkpt>
<trkpt lat="53.230383" lon="-1.825488"><ele>415</ele><time>2019-08-30T11:32:18Z</time><name>PT5736</name></trkpt>
<trkpt lat="53.230389" lon="-1.825467"><ele>415</ele><time>2019-08-30T11:32:19Z</time><name>PT5737</name></trkpt>
<trkpt lat="53.230394" lon="-1.825450"><ele>415</ele><time>2019-08-30T11:32:20Z</time><name>PT5738</name></trkpt>
<trkpt lat="53.230398" lon="-1.825435"><ele>416</ele><time>2019-08-30T11:32:21Z</time><name>PT5739</name></trkpt>
<trkpt lat="53.230404" lon="-1.825419"><ele>416</ele><time>2019-08-30T11:32:22Z</time><name>PT5740</name></trkpt>
<trkpt lat="53.230410" lon="-1.825399"><ele>416</ele><time>2019-08-30T11:32:23Z</time><name>PT5741</name></trkpt>
<trkpt lat="53.230413" lon="-1.825378"><ele>416</ele><time>2019-08-30T11:32:24Z</time><name>PT5742</name></trkpt>
<trkpt lat="53.230419" lon="-1.825360"><ele>416</ele><time>2019-08-30T11:32:25Z</time><name>PT5743</name></trkpt>
<trkpt lat="53.230425" lon="-1.825345"><ele>416</ele><time>2019-08-30T11:32:26Z</time><name>PT5744</name></trkpt>
<trkpt lat="53.230430" lon="-1.825333"><ele>417</ele><time>2019-08-30T11:32:27Z</time><name>PT5745</name></trkpt>
<trkpt lat="53.230436" lon="-1.825321"><ele>417</ele><time>2019-08-30T11:32:28Z</time><name>PT5746</name></trkpt>
<trkpt lat="53.230441" lon="-1.825309"><ele>417</ele><time>2019-08-30T11:32:29Z</time><name>PT5747</name></trkpt>
<trkpt lat="53.230446" lon="-1.825292"><ele>417</ele><time>2019-08-30T11:32:30Z</time><name>PT5748</name></trkpt>
<trkpt lat="53.230449" lon="-1.825266"><ele>417</ele><time>2019-08-30T11:32:31Z</time><name>PT5749</name></trkpt>
<trkpt lat="53.230453" lon="-1.825251"><ele>417</ele><time>2019-08-30T11:32:32Z</time><name>PT5750</name></trkpt>
<trkpt lat="53.230457" lon="-1.825236"><ele>417</ele><time>2019-08-30T11:32:33Z</time><name>PT5751</name></trkpt>
<trkpt lat="53.230461" lon="-1.825218"><ele>417</ele><time>2019-08-30T11:32:34Z</time><name>PT5752</name></trkpt>
<trkpt lat="53.230462" lon="-1.825202"><ele>417</ele><time>2019-08-30T11:32:35Z</time><name>PT5753</name></trkpt>
<trkpt lat="53.230463" lon="-1.825183"><ele>417</ele><time>2019-08-30T11:32:36Z</time><name>PT5754</name></trkpt>
<trkpt lat="53.230466" lon="-1.825162"><ele>417</ele><time>2019-08-30T11:32:37Z</time><name>PT5755</name></trkpt>
<trkpt lat="53.230471" lon="-1.825145"><ele>417</ele><time>2019-08-30T11:32:38Z</time><name>PT5756</name></trkpt>
<trkpt lat="53.230474" lon="-1.825129"><ele>417</ele><time>2019-08-30T11:32:39Z</time><name>PT5757</name></trkpt>
<trkpt lat="53.230476" lon="-1.825114"><ele>417</ele><time>2019-08-30T11:32:40Z</time><name>PT5758</name></trkpt>
<trkpt lat="53.230477" lon="-1.825098"><ele>417</ele><time>2019-08-30T11:32:41Z</time><name>PT5759</name></trkpt>
<trkpt lat="53.230479" lon="-1.825079"><ele>417</ele><time>2019-08-30T11:32:42Z</time><name>PT5760</name></trkpt>
<trkpt lat="53.230483" lon="-1.825063"><ele>417</ele><time>2019-08-30T11:32:43Z</time><name>PT5761</name></trkpt>
<trkpt lat="53.230488" lon="-1.825043"><ele>418</ele><time>2019-08-30T11:32:44Z</time><name>PT5762</name></trkpt>
<trkpt lat="53.230492" lon="-1.825025"><ele>418</ele><time>2019-08-30T11:32:45Z</time><name>PT5763</name></trkpt>
<trkpt lat="53.230497" lon="-1.825010"><ele>418</ele><time>2019-08-30T11:32:46Z</time><name>PT5764</name></trkpt>
<trkpt lat="53.230505" lon="-1.824985"><ele>418</ele><time>2019-08-30T11:32:47Z</time><name>PT5765</name></trkpt>
<trkpt lat="53.230511" lon="-1.824965"><ele>419</ele><time>2019-08-30T11:32:48Z</time><name>PT5766</name></trkpt>
<trkpt lat="53.230517" lon="-1.824949"><ele>419</ele><time>2019-08-30T11:32:49Z</time><name>PT5767</name></trkpt>
<trkpt lat="53.230523" lon="-1.824932"><ele>419</ele><time>2019-08-30T11:32:50Z</time><name>PT5768</name></trkpt>
<trkpt lat="53.230531" lon="-1.824914"><ele>419</ele><time>2019-08-30T11:32:51Z</time><name>PT5769</name></trkpt>
<trkpt lat="53.230538" lon="-1.824900"><ele>420</ele><time>2019-08-30T11:32:52Z</time><name>PT5770</name></trkpt>
<trkpt lat="53.230543" lon="-1.824883"><ele>420</ele><time>2019-08-30T11:32:53Z</time><name>PT5771</name></trkpt>
<trkpt lat="53.230550" lon="-1.824864"><ele>420</ele><time>2019-08-30T11:32:54Z</time><name>PT5772</name></trkpt>
<trkpt lat="53.230557" lon="-1.824846"><ele>420</ele><time>2019-08-30T11:32:55Z</time><name>PT5773</name></trkpt>
<trkpt lat="53.230563" lon="-1.824831"><ele>420</ele><time>2019-08-30T11:32:56Z</time><name>PT5774</name></trkpt>
<trkpt lat="53.230569" lon="-1.824813"><ele>420</ele><time>2019-08-30T11:32:57Z</time><name>PT5775</name></trkpt>
<trkpt lat="53.230572" lon="-1.824797"><ele>419</ele><time>2019-08-30T11:32:58Z</time><name>PT5776</name></trkpt>
<trkpt lat="53.230577" lon="-1.824778"><ele>419</ele><time>2019-08-30T11:32:59Z</time><name>PT5777</name></trkpt>
<trkpt lat="53.230583" lon="-1.824757"><ele>419</ele><time>2019-08-30T11:33:00Z</time><name>PT5778</name></trkpt>
<trkpt lat="53.230587" lon="-1.824740"><ele>419</ele><time>2019-08-30T11:33:01Z</time><name>PT5779</name></trkpt>
<trkpt lat="53.230591" lon="-1.824722"><ele>419</ele><time>2019-08-30T11:33:02Z</time><name>PT5780</name></trkpt>
<trkpt lat="53.230597" lon="-1.824704"><ele>420</ele><time>2019-08-30T11:33:03Z</time><name>PT5781</name></trkpt>
<trkpt lat="53.230603" lon="-1.824685"><ele>419</ele><time>2019-08-30T11:33:04Z</time><name>PT5782</name></trkpt>
<trkpt lat="53.230605" lon="-1.824665"><ele>419</ele><time>2019-08-30T11:33:05Z</time><name>PT5783</name></trkpt>
<trkpt lat="53.230608" lon="-1.824640"><ele>419</ele><time>2019-08-30T11:33:06Z</time><name>PT5784</name></trkpt>
<trkpt lat="53.230612" lon="-1.824612"><ele>419</ele><time>2019-08-30T11:33:07Z</time><name>PT5785</name></trkpt>
<trkpt lat="53.230620" lon="-1.824587"><ele>420</ele><time>2019-08-30T11:33:08Z</time><name>PT5786</name></trkpt>
<trkpt lat="53.230627" lon="-1.824548"><ele>420</ele><time>2019-08-30T11:33:09Z</time><name>PT5787</name></trkpt>
<trkpt lat="53.230635" lon="-1.824514"><ele>420</ele><time>2019-08-30T11:33:10Z</time><name>PT5788</name></trkpt>
<trkpt lat="53.230637" lon="-1.824493"><ele>421</ele><time>2019-08-30T11:33:11Z</time><name>PT5789</name></trkpt>
<trkpt lat="53.230638" lon="-1.824468"><ele>421</ele><time>2019-08-30T11:33:12Z</time><name>PT5790</name></trkpt>
<trkpt lat="53.230641" lon="-1.824447"><ele>421</ele><time>2019-08-30T11:33:13Z</time><name>PT5791</name></trkpt>
<trkpt lat="53.230644" lon="-1.824428"><ele>421</ele><time>2019-08-30T11:33:14Z</time><name>PT5792</name></trkpt>
<trkpt lat="53.230647" lon="-1.824411"><ele>421</ele><time>2019-08-30T11:33:15Z</time><name>PT5793</name></trkpt>
<trkpt lat="53.230652" lon="-1.824392"><ele>421</ele><time>2019-08-30T11:33:16Z</time><name>PT5794</name></trkpt>
<trkpt lat="53.230656" lon="-1.824377"><ele>421</ele><time>2019-08-30T11:33:17Z</time><name>PT5795</name></trkpt>
<trkpt lat="53.230662" lon="-1.824363"><ele>421</ele><time>2019-08-30T11:33:18Z</time><name>PT5796</name></trkpt>
<trkpt lat="53.230667" lon="-1.824349"><ele>421</ele><time>2019-08-30T11:33:19Z</time><name>PT5797</name></trkpt>
<trkpt lat="53.230671" lon="-1.824333"><ele>421</ele><time>2019-08-30T11:33:20Z</time><name>PT5798</name></trkpt>
<trkpt lat="53.230677" lon="-1.824312"><ele>421</ele><time>2019-08-30T11:33:21Z</time><name>PT5799</name></trkpt>
<trkpt lat="53.230685" lon="-1.824292"><ele>420</ele><time>2019-08-30T11:33:22Z</time><name>PT5800</name></trkpt>
<trkpt lat="53.230691" lon="-1.824272"><ele>420</ele><time>2019-08-30T11:33:23Z</time><name>PT5801</name></trkpt>
<trkpt lat="53.230694" lon="-1.824252"><ele>420</ele><time>2019-08-30T11:33:24Z</time><name>PT5802</name></trkpt>
<trkpt lat="53.230699" lon="-1.824232"><ele>420</ele><time>2019-08-30T11:33:25Z</time><name>PT5803</name></trkpt>
<trkpt lat="53.230703" lon="-1.824215"><ele>420</ele><time>2019-08-30T11:33:26Z</time><name>PT5804</name></trkpt>
<trkpt lat="53.230707" lon="-1.824198"><ele>420</ele><time>2019-08-30T11:33:27Z</time><name>PT5805</name></trkpt>
<trkpt lat="53.230711" lon="-1.824180"><ele>420</ele><time>2019-08-30T11:33:28Z</time><name>PT5806</name></trkpt>
<trkpt lat="53.230715" lon="-1.824163"><ele>420</ele><time>2019-08-30T11:33:29Z</time><name>PT5807</name></trkpt>
<trkpt lat="53.230719" lon="-1.824143"><ele>421</ele><time>2019-08-30T11:33:30Z</time><name>PT5808</name></trkpt>
<trkpt lat="53.230722" lon="-1.824123"><ele>421</ele><time>2019-08-30T11:33:31Z</time><name>PT5809</name></trkpt>
<trkpt lat="53.230726" lon="-1.824106"><ele>421</ele><time>2019-08-30T11:33:32Z</time><name>PT5810</name></trkpt>
<trkpt lat="53.230730" lon="-1.824087"><ele>420</ele><time>2019-08-30T11:33:33Z</time><name>PT5811</name></trkpt>
<trkpt lat="53.230735" lon="-1.824063"><ele>421</ele><time>2019-08-30T11:33:34Z</time><name>PT5812</name></trkpt>
<trkpt lat="53.230740" lon="-1.824043"><ele>421</ele><time>2019-08-30T11:33:35Z</time><name>PT5813</name></trkpt>
<trkpt lat="53.230744" lon="-1.824023"><ele>420</ele><time>2019-08-30T11:33:36Z</time><name>PT5814</name></trkpt>
<trkpt lat="53.230749" lon="-1.824007"><ele>420</ele><time>2019-08-30T11:33:37Z</time><name>PT5815</name></trkpt>
<trkpt lat="53.230756" lon="-1.823993"><ele>420</ele><time>2019-08-30T11:33:38Z</time><name>PT5816</name></trkpt>
<trkpt lat="53.230762" lon="-1.823981"><ele>420</ele><time>2019-08-30T11:33:39Z</time><name>PT5817</name></trkpt>
<trkpt lat="53.230769" lon="-1.823963"><ele>420</ele><time>2019-08-30T11:33:40Z</time><name>PT5818</name></trkpt>
<trkpt lat="53.230774" lon="-1.823943"><ele>420</ele><time>2019-08-30T11:33:41Z</time><name>PT5819</name></trkpt>
<trkpt lat="53.230780" lon="-1.823926"><ele>420</ele><time>2019-08-30T11:33:42Z</time><name>PT5820</name></trkpt>
<trkpt lat="53.230785" lon="-1.823907"><ele>420</ele><time>2019-08-30T11:33:43Z</time><name>PT5821</name></trkpt>
<trkpt lat="53.230792" lon="-1.823889"><ele>420</ele><time>2019-08-30T11:33:44Z</time><name>PT5822</name></trkpt>
<trkpt lat="53.230799" lon="-1.823874"><ele>420</ele><time>2019-08-30T11:33:45Z</time><name>PT5823</name></trkpt>
<trkpt lat="53.230807" lon="-1.823859"><ele>420</ele><time>2019-08-30T11:33:46Z</time><name>PT5824</name></trkpt>
<trkpt lat="53.230816" lon="-1.823841"><ele>419</ele><time>2019-08-30T11:33:47Z</time><name>PT5825</name></trkpt>
<trkpt lat="53.230822" lon="-1.823822"><ele>419</ele><time>2019-08-30T11:33:48Z</time><name>PT5826</name></trkpt>
<trkpt lat="53.230827" lon="-1.823802"><ele>420</ele><time>2019-08-30T11:33:49Z</time><name>PT5827</name></trkpt>
<trkpt lat="53.230831" lon="-1.823782"><ele>420</ele><time>2019-08-30T11:33:50Z</time><name>PT5828</name></trkpt>
<trkpt lat="53.230834" lon="-1.823763"><ele>420</ele><time>2019-08-30T11:33:51Z</time><name>PT5829</name></trkpt>
<trkpt lat="53.230832" lon="-1.823745"><ele>420</ele><time>2019-08-30T11:33:52Z</time><name>PT5830</name></trkpt>
<trkpt lat="53.230833" lon="-1.823724"><ele>420</ele><time>2019-08-30T11:33:53Z</time><name>PT5831</name></trkpt>
<trkpt lat="53.230835" lon="-1.823710"><ele>420</ele><time>2019-08-30T11:33:54Z</time><name>PT5832</name></trkpt>
<trkpt lat="53.230838" lon="-1.823694"><ele>420</ele><time>2019-08-30T11:33:55Z</time><name>PT5833</name></trkpt>
<trkpt lat="53.230842" lon="-1.823672"><ele>420</ele><time>2019-08-30T11:33:56Z</time><name>PT5834</name></trkpt>
<trkpt lat="53.230844" lon="-1.823650"><ele>421</ele><time>2019-08-30T11:33:57Z</time><name>PT5835</name></trkpt>
<trkpt lat="53.230848" lon="-1.823632"><ele>422</ele><time>2019-08-30T11:33:58Z</time><name>PT5836</name></trkpt>
<trkpt lat="53.230855" lon="-1.823616"><ele>421</ele><time>2019-08-30T11:33:59Z</time><name>PT5837</name></trkpt>
<trkpt lat="53.230856" lon="-1.823594"><ele>420</ele><time>2019-08-30T11:34:00Z</time><name>PT5838</name></trkpt>
<trkpt lat="53.230856" lon="-1.823577"><ele>420</ele><time>2019-08-30T11:34:01Z</time><name>PT5839</name></trkpt>
<trkpt lat="53.230855" lon="-1.823557"><ele>420</ele><time>2019-08-30T11:34:02Z</time><name>PT5840</name></trkpt>
<trkpt lat="53.230854" lon="-1.823535"><ele>420</ele><time>2019-08-30T11:34:03Z</time><name>PT5841</name></trkpt>
<trkpt lat="53.230856" lon="-1.823513"><ele>420</ele><time>2019-08-30T11:34:04Z</time><name>PT5842</name></trkpt>
<trkpt lat="53.230858" lon="-1.823489"><ele>420</ele><time>2019-08-30T11:34:05Z</time><name>PT5843</name></trkpt>
<trkpt lat="53.230862" lon="-1.823467"><ele>420</ele><time>2019-08-30T11:34:06Z</time><name>PT5844</name></trkpt>
<trkpt lat="53.230865" lon="-1.823448"><ele>419</ele><time>2019-08-30T11:34:07Z</time><name>PT5845</name></trkpt>
<trkpt lat="53.230867" lon="-1.823432"><ele>419</ele><time>2019-08-30T11:34:08Z</time><name>PT5846</name></trkpt>
<trkpt lat="53.230870" lon="-1.823412"><ele>419</ele><time>2019-08-30T11:34:09Z</time><name>PT5847</name></trkpt>
<trkpt lat="53.230875" lon="-1.823392"><ele>419</ele><time>2019-08-30T11:34:10Z</time><name>PT5848</name></trkpt>
<trkpt lat="53.230879" lon="-1.823378"><ele>419</ele><time>2019-08-30T11:34:11Z</time><name>PT5849</name></trkpt>
<trkpt lat="53.230885" lon="-1.823362"><ele>419</ele><time>2019-08-30T11:34:12Z</time><name>PT5850</name></trkpt>
<trkpt lat="53.230891" lon="-1.823344"><ele>419</ele><time>2019-08-30T11:34:13Z</time><name>PT5851</name></trkpt>
<trkpt lat="53.230895" lon="-1.823329"><ele>419</ele><time>2019-08-30T11:34:14Z</time><name>PT5852</name></trkpt>
<trkpt lat="53.230898" lon="-1.823308"><ele>418</ele><time>2019-08-30T11:34:15Z</time><name>PT5853</name></trkpt>
<trkpt lat="53.230903" lon="-1.823288"><ele>418</ele><time>2019-08-30T11:34:16Z</time><name>PT5854</name></trkpt>
<trkpt lat="53.230910" lon="-1.823271"><ele>418</ele><time>2019-08-30T11:34:17Z</time><name>PT5855</name></trkpt>
<trkpt lat="53.230919" lon="-1.823252"><ele>418</ele><time>2019-08-30T11:34:18Z</time><name>PT5856</name></trkpt>
<trkpt lat="53.230929" lon="-1.823230"><ele>418</ele><time>2019-08-30T11:34:19Z</time><name>PT5857</name></trkpt>
<trkpt lat="53.230936" lon="-1.823209"><ele>419</ele><time>2019-08-30T11:34:20Z</time><name>PT5858</name></trkpt>
<trkpt lat="53.230941" lon="-1.823193"><ele>419</ele><time>2019-08-30T11:34:21Z</time><name>PT5859</name></trkpt>
<trkpt lat="53.230944" lon="-1.823175"><ele>419</ele><time>2019-08-30T11:34:22Z</time><name>PT5860</name></trkpt>
<trkpt lat="53.230949" lon="-1.823158"><ele>419</ele><time>2019-08-30T11:34:23Z</time><name>PT5861</name></trkpt>
<trkpt lat="53.230954" lon="-1.823143"><ele>419</ele><time>2019-08-30T11:34:24Z</time><name>PT5862</name></trkpt>
<trkpt lat="53.230957" lon="-1.823125"><ele>418</ele><time>2019-08-30T11:34:25Z</time><name>PT5863</name></trkpt>
<trkpt lat="53.230961" lon="-1.823101"><ele>418</ele><time>2019-08-30T11:34:26Z</time><name>PT5864</name></trkpt>
<trkpt lat="53.230964" lon="-1.823082"><ele>418</ele><time>2019-08-30T11:34:27Z</time><name>PT5865</name></trkpt>
<trkpt lat="53.230967" lon="-1.823061"><ele>418</ele><time>2019-08-30T11:34:28Z</time><name>PT5866</name></trkpt>
<trkpt lat="53.230970" lon="-1.823040"><ele>419</ele><time>2019-08-30T11:34:29Z</time><name>PT5867</name></trkpt>
<trkpt lat="53.230974" lon="-1.823020"><ele>419</ele><time>2019-08-30T11:34:30Z</time><name>PT5868</name></trkpt>
<trkpt lat="53.230975" lon="-1.822997"><ele>419</ele><time>2019-08-30T11:34:31Z</time><name>PT5869</name></trkpt>
<trkpt lat="53.230978" lon="-1.822974"><ele>419</ele><time>2019-08-30T11:34:32Z</time><name>PT5870</name></trkpt>
<trkpt lat="53.230980" lon="-1.822951"><ele>419</ele><time>2019-08-30T11:34:33Z</time><name>PT5871</name></trkpt>
<trkpt lat="53.230983" lon="-1.822933"><ele>419</ele><time>2019-08-30T11:34:34Z</time><name>PT5872</name></trkpt>
<trkpt lat="53.230984" lon="-1.822916"><ele>419</ele><time>2019-08-30T11:34:35Z</time><name>PT5873</name></trkpt>
<trkpt lat="53.230986" lon="-1.822898"><ele>418</ele><time>2019-08-30T11:34:36Z</time><name>PT5874</name></trkpt>
<trkpt lat="53.230988" lon="-1.822877"><ele>418</ele><time>2019-08-30T11:34:37Z</time><name>PT5875</name></trkpt>
<trkpt lat="53.230992" lon="-1.822856"><ele>418</ele><time>2019-08-30T11:34:38Z</time><name>PT5876</name></trkpt>
<trkpt lat="53.230997" lon="-1.822838"><ele>418</ele><time>2019-08-30T11:34:39Z</time><name>PT5877</name></trkpt>
<trkpt lat="53.231003" lon="-1.822820"><ele>418</ele><time>2019-08-30T11:34:40Z</time><name>PT5878</name></trkpt>
<trkpt lat="53.231006" lon="-1.822802"><ele>419</ele><time>2019-08-30T11:34:41Z</time><name>PT5879</name></trkpt>
<trkpt lat="53.231011" lon="-1.822784"><ele>419</ele><time>2019-08-30T11:34:42Z</time><name>PT5880</name></trkpt>
<trkpt lat="53.231015" lon="-1.822769"><ele>419</ele><time>2019-08-30T11:34:43Z</time><name>PT5881</name></trkpt>
<trkpt lat="53.231020" lon="-1.822754"><ele>420</ele><time>2019-08-30T11:34:44Z</time><name>PT5882</name></trkpt>
<trkpt lat="53.231027" lon="-1.822736"><ele>420</ele><time>2019-08-30T11:34:45Z</time><name>PT5883</name></trkpt>
<trkpt lat="53.231033" lon="-1.822720"><ele>420</ele><time>2019-08-30T11:34:46Z</time><name>PT5884</name></trkpt>
<trkpt lat="53.231037" lon="-1.822704"><ele>420</ele><time>2019-08-30T11:34:47Z</time><name>PT5885</name></trkpt>
<trkpt lat="53.231044" lon="-1.822687"><ele>419</ele><time>2019-08-30T11:34:48Z</time><name>PT5886</name></trkpt>
<trkpt lat="53.231051" lon="-1.822670"><ele>419</ele><time>2019-08-30T11:34:49Z</time><name>PT5887</name></trkpt>
<trkpt lat="53.231058" lon="-1.822652"><ele>419</ele><time>2019-08-30T11:34:50Z</time><name>PT5888</name></trkpt>
<trkpt lat="53.231064" lon="-1.822632"><ele>419</ele><time>2019-08-30T11:34:51Z</time><name>PT5889</name></trkpt>
<trkpt lat="53.231069" lon="-1.822612"><ele>420</ele><time>2019-08-30T11:34:52Z</time><name>PT5890</name></trkpt>
<trkpt lat="53.231074" lon="-1.822592"><ele>420</ele><time>2019-08-30T11:34:53Z</time><name>PT5891</name></trkpt>
<trkpt lat="53.231078" lon="-1.822574"><ele>420</ele><time>2019-08-30T11:34:54Z</time><name>PT5892</name></trkpt>
<trkpt lat="53.231082" lon="-1.822556"><ele>420</ele><time>2019-08-30T11:34:55Z</time><name>PT5893</name></trkpt>
<trkpt lat="53.231087" lon="-1.822538"><ele>420</ele><time>2019-08-30T11:34:56Z</time><name>PT5894</name></trkpt>
<trkpt lat="53.231094" lon="-1.822522"><ele>420</ele><time>2019-08-30T11:34:57Z</time><name>PT5895</name></trkpt>
<trkpt lat="53.231103" lon="-1.822499"><ele>420</ele><time>2019-08-30T11:34:58Z</time><name>PT5896</name></trkpt>
<trkpt lat="53.231109" lon="-1.822477"><ele>420</ele><time>2019-08-30T11:34:59Z</time><name>PT5897</name></trkpt>
<trkpt lat="53.231110" lon="-1.822462"><ele>420</ele><time>2019-08-30T11:35:00Z</time><name>PT5898</name></trkpt>
<trkpt lat="53.231111" lon="-1.822439"><ele>420</ele><time>2019-08-30T11:35:01Z</time><name>PT5899</name></trkpt>
<trkpt lat="53.231112" lon="-1.822418"><ele>419</ele><time>2019-08-30T11:35:02Z</time><name>PT5900</name></trkpt>
<trkpt lat="53.231114" lon="-1.822398"><ele>420</ele><time>2019-08-30T11:35:03Z</time><name>PT5901</name></trkpt>
<trkpt lat="53.231117" lon="-1.822378"><ele>420</ele><time>2019-08-30T11:35:04Z</time><name>PT5902</name></trkpt>
<trkpt lat="53.231119" lon="-1.822360"><ele>420</ele><time>2019-08-30T11:35:05Z</time><name>PT5903</name></trkpt>
<trkpt lat="53.231119" lon="-1.822340"><ele>419</ele><time>2019-08-30T11:35:06Z</time><name>PT5904</name></trkpt>
<trkpt lat="53.231121" lon="-1.822315"><ele>419</ele><time>2019-08-30T11:35:07Z</time><name>PT5905</name></trkpt>
<trkpt lat="53.231124" lon="-1.822294"><ele>419</ele><time>2019-08-30T11:35:08Z</time><name>PT5906</name></trkpt>
<trkpt lat="53.231127" lon="-1.822273"><ele>420</ele><time>2019-08-30T11:35:09Z</time><name>PT5907</name></trkpt>
<trkpt lat="53.231135" lon="-1.822253"><ele>419</ele><time>2019-08-30T11:35:10Z</time><name>PT5908</name></trkpt>
<trkpt lat="53.231141" lon="-1.822234"><ele>420</ele><time>2019-08-30T11:35:11Z</time><name>PT5909</name></trkpt>
<trkpt lat="53.231146" lon="-1.822216"><ele>420</ele><time>2019-08-30T11:35:12Z</time><name>PT5910</name></trkpt>
<trkpt lat="53.231152" lon="-1.822199"><ele>419</ele><time>2019-08-30T11:35:13Z</time><name>PT5911</name></trkpt>
<trkpt lat="53.231159" lon="-1.822180"><ele>420</ele><time>2019-08-30T11:35:14Z</time><name>PT5912</name></trkpt>
<trkpt lat="53.231164" lon="-1.822163"><ele>420</ele><time>2019-08-30T11:35:16Z</time><name>PT5913</name></trkpt>
<trkpt lat="53.231171" lon="-1.822151"><ele>420</ele><time>2019-08-30T11:35:16Z</time><name>PT5914</name></trkpt>
<trkpt lat="53.231177" lon="-1.822132"><ele>420</ele><time>2019-08-30T11:35:17Z</time><name>PT5915</name></trkpt>
<trkpt lat="53.231182" lon="-1.822114"><ele>421</ele><time>2019-08-30T11:35:18Z</time><name>PT5916</name></trkpt>
<trkpt lat="53.231189" lon="-1.822095"><ele>421</ele><time>2019-08-30T11:35:19Z</time><name>PT5917</name></trkpt>
<trkpt lat="53.231195" lon="-1.822078"><ele>421</ele><time>2019-08-30T11:35:20Z</time><name>PT5918</name></trkpt>
<trkpt lat="53.231200" lon="-1.822057"><ele>421</ele><time>2019-08-30T11:35:21Z</time><name>PT5919</name></trkpt>
<trkpt lat="53.231205" lon="-1.822037"><ele>420</ele><time>2019-08-30T11:35:22Z</time><name>PT5920</name></trkpt>
<trkpt lat="53.231207" lon="-1.822018"><ele>420</ele><time>2019-08-30T11:35:23Z</time><name>PT5921</name></trkpt>
<trkpt lat="53.231208" lon="-1.821998"><ele>420</ele><time>2019-08-30T11:35:24Z</time><name>PT5922</name></trkpt>
<trkpt lat="53.231210" lon="-1.821982"><ele>420</ele><time>2019-08-30T11:35:25Z</time><name>PT5923</name></trkpt>
<trkpt lat="53.231214" lon="-1.821964"><ele>420</ele><time>2019-08-30T11:35:26Z</time><name>PT5924</name></trkpt>
<trkpt lat="53.231217" lon="-1.821943"><ele>420</ele><time>2019-08-30T11:35:27Z</time><name>PT5925</name></trkpt>
<trkpt lat="53.231218" lon="-1.821924"><ele>420</ele><time>2019-08-30T11:35:28Z</time><name>PT5926</name></trkpt>
<trkpt lat="53.231218" lon="-1.821908"><ele>419</ele><time>2019-08-30T11:35:29Z</time><name>PT5927</name></trkpt>
<trkpt lat="53.231221" lon="-1.821888"><ele>419</ele><time>2019-08-30T11:35:30Z</time><name>PT5928</name></trkpt>
<trkpt lat="53.231225" lon="-1.821872"><ele>419</ele><time>2019-08-30T11:35:31Z</time><name>PT5929</name></trkpt>
<trkpt lat="53.231232" lon="-1.821856"><ele>419</ele><time>2019-08-30T11:35:32Z</time><name>PT5930</name></trkpt>
<trkpt lat="53.231237" lon="-1.821837"><ele>419</ele><time>2019-08-30T11:35:33Z</time><name>PT5931</name></trkpt>
<trkpt lat="53.231241" lon="-1.821820"><ele>418</ele><time>2019-08-30T11:35:34Z</time><name>PT5932</name></trkpt>
<trkpt lat="53.231243" lon="-1.821800"><ele>419</ele><time>2019-08-30T11:35:35Z</time><name>PT5933</name></trkpt>
<trkpt lat="53.231250" lon="-1.821781"><ele>419</ele><time>2019-08-30T11:35:36Z</time><name>PT5934</name></trkpt>
<trkpt lat="53.231255" lon="-1.821764"><ele>419</ele><time>2019-08-30T11:35:37Z</time><name>PT5935</name></trkpt>
<trkpt lat="53.231262" lon="-1.821747"><ele>419</ele><time>2019-08-30T11:35:38Z</time><name>PT5936</name></trkpt>
<trkpt lat="53.231269" lon="-1.821730"><ele>419</ele><time>2019-08-30T11:35:39Z</time><name>PT5937</name></trkpt>
<trkpt lat="53.231274" lon="-1.821714"><ele>420</ele><time>2019-08-30T11:35:40Z</time><name>PT5938</name></trkpt>
<trkpt lat="53.231278" lon="-1.821693"><ele>420</ele><time>2019-08-30T11:35:41Z</time><name>PT5939</name></trkpt>
<trkpt lat="53.231284" lon="-1.821672"><ele>419</ele><time>2019-08-30T11:35:42Z</time><name>PT5940</name></trkpt>
<trkpt lat="53.231288" lon="-1.821655"><ele>419</ele><time>2019-08-30T11:35:43Z</time><name>PT5941</name></trkpt>
<trkpt lat="53.231296" lon="-1.821642"><ele>419</ele><time>2019-08-30T11:35:44Z</time><name>PT5942</name></trkpt>
<trkpt lat="53.231304" lon="-1.821628"><ele>419</ele><time>2019-08-30T11:35:45Z</time><name>PT5943</name></trkpt>
<trkpt lat="53.231311" lon="-1.821609"><ele>420</ele><time>2019-08-30T11:35:46Z</time><name>PT5944</name></trkpt>
<trkpt lat="53.231319" lon="-1.821592"><ele>420</ele><time>2019-08-30T11:35:47Z</time><name>PT5945</name></trkpt>
<trkpt lat="53.231329" lon="-1.821577"><ele>420</ele><time>2019-08-30T11:35:48Z</time><name>PT5946</name></trkpt>
<trkpt lat="53.231337" lon="-1.821561"><ele>420</ele><time>2019-08-30T11:35:49Z</time><name>PT5947</name></trkpt>
<trkpt lat="53.231343" lon="-1.821542"><ele>420</ele><time>2019-08-30T11:35:50Z</time><name>PT5948</name></trkpt>
<trkpt lat="53.231346" lon="-1.821522"><ele>420</ele><time>2019-08-30T11:35:51Z</time><name>PT5949</name></trkpt>
<trkpt lat="53.231348" lon="-1.821500"><ele>420</ele><time>2019-08-30T11:35:52Z</time><name>PT5950</name></trkpt>
<trkpt lat="53.231352" lon="-1.821479"><ele>420</ele><time>2019-08-30T11:35:53Z</time><name>PT5951</name></trkpt>
<trkpt lat="53.231356" lon="-1.821462"><ele>420</ele><time>2019-08-30T11:35:54Z</time><name>PT5952</name></trkpt>
<trkpt lat="53.231359" lon="-1.821441"><ele>420</ele><time>2019-08-30T11:35:55Z</time><name>PT5953</name></trkpt>
<trkpt lat="53.231363" lon="-1.821419"><ele>420</ele><time>2019-08-30T11:35:56Z</time><name>PT5954</name></trkpt>
<trkpt lat="53.231367" lon="-1.821398"><ele>420</ele><time>2019-08-30T11:35:57Z</time><name>PT5955</name></trkpt>
<trkpt lat="53.231370" lon="-1.821378"><ele>420</ele><time>2019-08-30T11:35:58Z</time><name>PT5956</name></trkpt>
<trkpt lat="53.231374" lon="-1.821356"><ele>420</ele><time>2019-08-30T11:35:59Z</time><name>PT5957</name></trkpt>
<trkpt lat="53.231377" lon="-1.821337"><ele>420</ele><time>2019-08-30T11:36:00Z</time><name>PT5958</name></trkpt>
<trkpt lat="53.231385" lon="-1.821317"><ele>420</ele><time>2019-08-30T11:36:01Z</time><name>PT5959</name></trkpt>
<trkpt lat="53.231390" lon="-1.821301"><ele>420</ele><time>2019-08-30T11:36:02Z</time><name>PT5960</name></trkpt>
<trkpt lat="53.231395" lon="-1.821284"><ele>420</ele><time>2019-08-30T11:36:03Z</time><name>PT5961</name></trkpt>
<trkpt lat="53.231397" lon="-1.821263"><ele>420</ele><time>2019-08-30T11:36:04Z</time><name>PT5962</name></trkpt>
<trkpt lat="53.231401" lon="-1.821243"><ele>420</ele><time>2019-08-30T11:36:05Z</time><name>PT5963</name></trkpt>
<trkpt lat="53.231408" lon="-1.821226"><ele>420</ele><time>2019-08-30T11:36:06Z</time><name>PT5964</name></trkpt>
<trkpt lat="53.231415" lon="-1.821208"><ele>420</ele><time>2019-08-30T11:36:07Z</time><name>PT5965</name></trkpt>
<trkpt lat="53.231423" lon="-1.821191"><ele>420</ele><time>2019-08-30T11:36:08Z</time><name>PT5966</name></trkpt>
<trkpt lat="53.231428" lon="-1.821175"><ele>420</ele><time>2019-08-30T11:36:09Z</time><name>PT5967</name></trkpt>
<trkpt lat="53.231435" lon="-1.821156"><ele>420</ele><time>2019-08-30T11:36:10Z</time><name>PT5968</name></trkpt>
<trkpt lat="53.231442" lon="-1.821138"><ele>420</ele><time>2019-08-30T11:36:11Z</time><name>PT5969</name></trkpt>
<trkpt lat="53.231449" lon="-1.821124"><ele>421</ele><time>2019-08-30T11:36:12Z</time><name>PT5970</name></trkpt>
<trkpt lat="53.231459" lon="-1.821107"><ele>421</ele><time>2019-08-30T11:36:13Z</time><name>PT5971</name></trkpt>
<trkpt lat="53.231468" lon="-1.821091"><ele>421</ele><time>2019-08-30T11:36:14Z</time><name>PT5972</name></trkpt>
<trkpt lat="53.231475" lon="-1.821077"><ele>421</ele><time>2019-08-30T11:36:15Z</time><name>PT5973</name></trkpt>
<trkpt lat="53.231483" lon="-1.821063"><ele>421</ele><time>2019-08-30T11:36:16Z</time><name>PT5974</name></trkpt>
<trkpt lat="53.231492" lon="-1.821049"><ele>421</ele><time>2019-08-30T11:36:17Z</time><name>PT5975</name></trkpt>
<trkpt lat="53.231500" lon="-1.821039"><ele>421</ele><time>2019-08-30T11:36:18Z</time><name>PT5976</name></trkpt>
<trkpt lat="53.231511" lon="-1.821026"><ele>421</ele><time>2019-08-30T11:36:19Z</time><name>PT5977</name></trkpt>
<trkpt lat="53.231522" lon="-1.821011"><ele>421</ele><time>2019-08-30T11:36:20Z</time><name>PT5978</name></trkpt>
<trkpt lat="53.231529" lon="-1.820999"><ele>420</ele><time>2019-08-30T11:36:21Z</time><name>PT5979</name></trkpt>
<trkpt lat="53.231535" lon="-1.820981"><ele>421</ele><time>2019-08-30T11:36:22Z</time><name>PT5980</name></trkpt>
<trkpt lat="53.231541" lon="-1.820965"><ele>421</ele><time>2019-08-30T11:36:23Z</time><name>PT5981</name></trkpt>
<trkpt lat="53.231546" lon="-1.820951"><ele>421</ele><time>2019-08-30T11:36:24Z</time><name>PT5982</name></trkpt>
<trkpt lat="53.231552" lon="-1.820935"><ele>420</ele><time>2019-08-30T11:36:25Z</time><name>PT5983</name></trkpt>
<trkpt lat="53.231556" lon="-1.820920"><ele>420</ele><time>2019-08-30T11:36:26Z</time><name>PT5984</name></trkpt>
<trkpt lat="53.231560" lon="-1.820906"><ele>420</ele><time>2019-08-30T11:36:27Z</time><name>PT5985</name></trkpt>
<trkpt lat="53.231564" lon="-1.820888"><ele>420</ele><time>2019-08-30T11:36:28Z</time><name>PT5986</name></trkpt>
<trkpt lat="53.231568" lon="-1.820866"><ele>420</ele><time>2019-08-30T11:36:29Z</time><name>PT5987</name></trkpt>
<trkpt lat="53.231575" lon="-1.820849"><ele>420</ele><time>2019-08-30T11:36:30Z</time><name>PT5988</name></trkpt>
<trkpt lat="53.231581" lon="-1.820832"><ele>420</ele><time>2019-08-30T11:36:31Z</time><name>PT5989</name></trkpt>
<trkpt lat="53.231587" lon="-1.820810"><ele>420</ele><time>2019-08-30T11:36:32Z</time><name>PT5990</name></trkpt>
<trkpt lat="53.231594" lon="-1.820794"><ele>420</ele><time>2019-08-30T11:36:33Z</time><name>PT5991</name></trkpt>
<trkpt lat="53.231599" lon="-1.820781"><ele>420</ele><time>2019-08-30T11:36:34Z</time><name>PT5992</name></trkpt>
<trkpt lat="53.231607" lon="-1.820767"><ele>420</ele><time>2019-08-30T11:36:35Z</time><name>PT5993</name></trkpt>
<trkpt lat="53.231614" lon="-1.820755"><ele>420</ele><time>2019-08-30T11:36:36Z</time><name>PT5994</name></trkpt>
<trkpt lat="53.231624" lon="-1.820740"><ele>420</ele><time>2019-08-30T11:36:37Z</time><name>PT5995</name></trkpt>
<trkpt lat="53.231629" lon="-1.820728"><ele>420</ele><time>2019-08-30T11:36:38Z</time><name>PT5996</name></trkpt>
<trkpt lat="53.231629" lon="-1.820707"><ele>421</ele><time>2019-08-30T11:36:39Z</time><name>PT5997</name></trkpt>
<trkpt lat="53.231630" lon="-1.820688"><ele>420</ele><time>2019-08-30T11:36:40Z</time><name>PT5998</name></trkpt>
<trkpt lat="53.231633" lon="-1.820670"><ele>420</ele><time>2019-08-30T11:36:41Z</time><name>PT5999</name></trkpt>
<trkpt lat="53.231638" lon="-1.820649"><ele>420</ele><time>2019-08-30T11:36:42Z</time><name>PT6000</name></trkpt>
<trkpt lat="53.231641" lon="-1.820631"><ele>420</ele><time>2019-08-30T11:36:43Z</time><name>PT6001</name></trkpt>
<trkpt lat="53.231643" lon="-1.820612"><ele>420</ele><time>2019-08-30T11:36:44Z</time><name>PT6002</name></trkpt>
<trkpt lat="53.231647" lon="-1.820596"><ele>419</ele><time>2019-08-30T11:36:45Z</time><name>PT6003</name></trkpt>
<trkpt lat="53.231654" lon="-1.820587"><ele>419</ele><time>2019-08-30T11:36:46Z</time><name>PT6004</name></trkpt>
<trkpt lat="53.231657" lon="-1.820580"><ele>419</ele><time>2019-08-30T11:36:47Z</time><name>PT6005</name></trkpt>
<trkpt lat="53.231657" lon="-1.820569"><ele>419</ele><time>2019-08-30T11:36:48Z</time><name>PT6006</name></trkpt>
<trkpt lat="53.231653" lon="-1.820571"><ele>419</ele><time>2019-08-30T11:36:49Z</time><name>PT6007</name></trkpt>
<trkpt lat="53.231654" lon="-1.820566"><ele>419</ele><time>2019-08-30T11:36:50Z</time><name>PT6008</name></trkpt>
<trkpt lat="53.231654" lon="-1.820561"><ele>419</ele><time>2019-08-30T11:36:51Z</time><name>PT6009</name></trkpt>
<trkpt lat="53.231653" lon="-1.820547"><ele>420</ele><time>2019-08-30T11:36:52Z</time><name>PT6010</name></trkpt>
<trkpt lat="53.231652" lon="-1.820542"><ele>419</ele><time>2019-08-30T11:36:53Z</time><name>PT6011</name></trkpt>
<trkpt lat="53.231650" lon="-1.820534"><ele>419</ele><time>2019-08-30T11:36:54Z</time><name>PT6012</name></trkpt>
<trkpt lat="53.231651" lon="-1.820523"><ele>419</ele><time>2019-08-30T11:36:55Z</time><name>PT6013</name></trkpt>
<trkpt lat="53.231651" lon="-1.820516"><ele>419</ele><time>2019-08-30T11:36:56Z</time><name>PT6014</name></trkpt>
<trkpt lat="53.231652" lon="-1.820505"><ele>419</ele><time>2019-08-30T11:36:57Z</time><name>PT6015</name></trkpt>
<trkpt lat="53.231653" lon="-1.820494"><ele>420</ele><time>2019-08-30T11:36:58Z</time><name>PT6016</name></trkpt>
<trkpt lat="53.231655" lon="-1.820486"><ele>419</ele><time>2019-08-30T11:36:59Z</time><name>PT6017</name></trkpt>
<trkpt lat="53.231657" lon="-1.820477"><ele>419</ele><time>2019-08-30T11:37:00Z</time><name>PT6018</name></trkpt>
<trkpt lat="53.231657" lon="-1.820464"><ele>420</ele><time>2019-08-30T11:37:01Z</time><name>PT6019</name></trkpt>
<trkpt lat="53.231659" lon="-1.820455"><ele>420</ele><time>2019-08-30T11:37:02Z</time><name>PT6020</name></trkpt>
<trkpt lat="53.231660" lon="-1.820446"><ele>420</ele><time>2019-08-30T11:37:03Z</time><name>PT6021</name></trkpt>
<trkpt lat="53.231659" lon="-1.820442"><ele>420</ele><time>2019-08-30T11:37:04Z</time><name>PT6022</name></trkpt>
<trkpt lat="53.231654" lon="-1.820427"><ele>419</ele><time>2019-08-30T11:37:08Z</time><name>PT6023</name></trkpt>
<trkpt lat="53.231658" lon="-1.820420"><ele>420</ele><time>2019-08-30T11:37:09Z</time><name>PT6024</name></trkpt>
<trkpt lat="53.231665" lon="-1.820413"><ele>420</ele><time>2019-08-30T11:37:10Z</time><name>PT6025</name></trkpt>
<trkpt lat="53.231669" lon="-1.820408"><ele>420</ele><time>2019-08-30T11:37:11Z</time><name>PT6026</name></trkpt>
<trkpt lat="53.231670" lon="-1.820408"><ele>420</ele><time>2019-08-30T11:37:12Z</time><name>PT6027</name></trkpt>
<trkpt lat="53.231669" lon="-1.820407"><ele>420</ele><time>2019-08-30T11:37:13Z</time><name>PT6028</name></trkpt>
<trkpt lat="53.231668" lon="-1.820400"><ele>420</ele><time>2019-08-30T11:37:29Z</time><name>PT6029</name></trkpt>
<trkpt lat="53.231668" lon="-1.820402"><ele>420</ele><time>2019-08-30T11:37:30Z</time><name>PT6030</name></trkpt>
<trkpt lat="53.231668" lon="-1.820402"><ele>420</ele><time>2019-08-30T11:37:31Z</time><name>PT6031</name></trkpt>
<trkpt lat="53.231668" lon="-1.820401"><ele>420</ele><time>2019-08-30T11:37:32Z</time><name>PT6032</name></trkpt>
<trkpt lat="53.231671" lon="-1.820400"><ele>420</ele><time>2019-08-30T11:39:31Z</time><name>PT6033</name></trkpt>
<trkpt lat="53.231673" lon="-1.820398"><ele>420</ele><time>2019-08-30T11:39:32Z</time><name>PT6034</name></trkpt>
<trkpt lat="53.231674" lon="-1.820395"><ele>420</ele><time>2019-08-30T11:39:33Z</time><name>PT6035</name></trkpt>
<trkpt lat="53.231681" lon="-1.820385"><ele>420</ele><time>2019-08-30T11:39:41Z</time><name>PT6036</name></trkpt>
<trkpt lat="53.231690" lon="-1.820384"><ele>420</ele><time>2019-08-30T11:39:42Z</time><name>PT6037</name></trkpt>
<trkpt lat="53.231698" lon="-1.820386"><ele>420</ele><time>2019-08-30T11:39:43Z</time><name>PT6038</name></trkpt>
<trkpt lat="53.231706" lon="-1.820391"><ele>420</ele><time>2019-08-30T11:39:44Z</time><name>PT6039</name></trkpt>
<trkpt lat="53.231717" lon="-1.820392"><ele>420</ele><time>2019-08-30T11:39:45Z</time><name>PT6040</name></trkpt>
<trkpt lat="53.231728" lon="-1.820397"><ele>420</ele><time>2019-08-30T11:39:46Z</time><name>PT6041</name></trkpt>
<trkpt lat="53.231738" lon="-1.820398"><ele>420</ele><time>2019-08-30T11:39:47Z</time><name>PT6042</name></trkpt>
<trkpt lat="53.231751" lon="-1.820401"><ele>421</ele><time>2019-08-30T11:39:48Z</time><name>PT6043</name></trkpt>
<trkpt lat="53.231764" lon="-1.820407"><ele>421</ele><time>2019-08-30T11:39:49Z</time><name>PT6044</name></trkpt>
<trkpt lat="53.231780" lon="-1.820407"><ele>421</ele><time>2019-08-30T11:39:50Z</time><name>PT6045</name></trkpt>
<trkpt lat="53.231792" lon="-1.820412"><ele>421</ele><time>2019-08-30T11:39:51Z</time><name>PT6046</name></trkpt>
<trkpt lat="53.231804" lon="-1.820416"><ele>421</ele><time>2019-08-30T11:39:52Z</time><name>PT6047</name></trkpt>
<trkpt lat="53.231817" lon="-1.820420"><ele>421</ele><time>2019-08-30T11:39:53Z</time><name>PT6048</name></trkpt>
<trkpt lat="53.231829" lon="-1.820427"><ele>421</ele><time>2019-08-30T11:39:54Z</time><name>PT6049</name></trkpt>
<trkpt lat="53.231842" lon="-1.820431"><ele>421</ele><time>2019-08-30T11:39:55Z</time><name>PT6050</name></trkpt>
<trkpt lat="53.231855" lon="-1.820437"><ele>421</ele><time>2019-08-30T11:39:56Z</time><name>PT6051</name></trkpt>
<trkpt lat="53.231870" lon="-1.820444"><ele>422</ele><time>2019-08-30T11:39:57Z</time><name>PT6052</name></trkpt>
<trkpt lat="53.231883" lon="-1.820449"><ele>422</ele><time>2019-08-30T11:39:58Z</time><name>PT6053</name></trkpt>
<trkpt lat="53.231896" lon="-1.820454"><ele>422</ele><time>2019-08-30T11:39:59Z</time><name>PT6054</name></trkpt>
<trkpt lat="53.231909" lon="-1.820457"><ele>422</ele><time>2019-08-30T11:40:00Z</time><name>PT6055</name></trkpt>
<trkpt lat="53.231921" lon="-1.820459"><ele>422</ele><time>2019-08-30T11:40:01Z</time><name>PT6056</name></trkpt>
<trkpt lat="53.231934" lon="-1.820459"><ele>423</ele><time>2019-08-30T11:40:02Z</time><name>PT6057</name></trkpt>
<trkpt lat="53.231949" lon="-1.820460"><ele>423</ele><time>2019-08-30T11:40:03Z</time><name>PT6058</name></trkpt>
<trkpt lat="53.231960" lon="-1.820459"><ele>423</ele><time>2019-08-30T11:40:04Z</time><name>PT6059</name></trkpt>
<trkpt lat="53.231972" lon="-1.820454"><ele>423</ele><time>2019-08-30T11:40:05Z</time><name>PT6060</name></trkpt>
<trkpt lat="53.231985" lon="-1.820446"><ele>423</ele><time>2019-08-30T11:40:06Z</time><name>PT6061</name></trkpt>
<trkpt lat="53.231996" lon="-1.820441"><ele>422</ele><time>2019-08-30T11:40:07Z</time><name>PT6062</name></trkpt>
<trkpt lat="53.232006" lon="-1.820434"><ele>422</ele><time>2019-08-30T11:40:08Z</time><name>PT6063</name></trkpt>
<trkpt lat="53.232018" lon="-1.820426"><ele>422</ele><time>2019-08-30T11:40:09Z</time><name>PT6064</name></trkpt>
<trkpt lat="53.232029" lon="-1.820414"><ele>422</ele><time>2019-08-30T11:40:10Z</time><name>PT6065</name></trkpt>
<trkpt lat="53.232040" lon="-1.820402"><ele>422</ele><time>2019-08-30T11:40:11Z</time><name>PT6066</name></trkpt>
<trkpt lat="53.232051" lon="-1.820388"><ele>422</ele><time>2019-08-30T11:40:12Z</time><name>PT6067</name></trkpt>
<trkpt lat="53.232060" lon="-1.820375"><ele>422</ele><time>2019-08-30T11:40:13Z</time><name>PT6068</name></trkpt>
<trkpt lat="53.232066" lon="-1.820361"><ele>422</ele><time>2019-08-30T11:40:14Z</time><name>PT6069</name></trkpt>
<trkpt lat="53.232073" lon="-1.820344"><ele>422</ele><time>2019-08-30T11:40:15Z</time><name>PT6070</name></trkpt>
<trkpt lat="53.232080" lon="-1.820323"><ele>422</ele><time>2019-08-30T11:40:16Z</time><name>PT6071</name></trkpt>
<trkpt lat="53.232088" lon="-1.820311"><ele>422</ele><time>2019-08-30T11:40:17Z</time><name>PT6072</name></trkpt>
<trkpt lat="53.232095" lon="-1.820298"><ele>422</ele><time>2019-08-30T11:40:18Z</time><name>PT6073</name></trkpt>
<trkpt lat="53.232103" lon="-1.820279"><ele>422</ele><time>2019-08-30T11:40:19Z</time><name>PT6074</name></trkpt>
<trkpt lat="53.232109" lon="-1.820262"><ele>422</ele><time>2019-08-30T11:40:21Z</time><name>PT6075</name></trkpt>
<trkpt lat="53.232114" lon="-1.820244"><ele>422</ele><time>2019-08-30T11:40:21Z</time><name>PT6076</name></trkpt>
<trkpt lat="53.232121" lon="-1.820226"><ele>423</ele><time>2019-08-30T11:40:22Z</time><name>PT6077</name></trkpt>
<trkpt lat="53.232129" lon="-1.820207"><ele>423</ele><time>2019-08-30T11:40:23Z</time><name>PT6078</name></trkpt>
<trkpt lat="53.232135" lon="-1.820190"><ele>423</ele><time>2019-08-30T11:40:24Z</time><name>PT6079</name></trkpt>
<trkpt lat="53.232143" lon="-1.820168"><ele>424</ele><time>2019-08-30T11:40:25Z</time><name>PT6080</name></trkpt>
<trkpt lat="53.232149" lon="-1.820147"><ele>424</ele><time>2019-08-30T11:40:26Z</time><name>PT6081</name></trkpt>
<trkpt lat="53.232153" lon="-1.820127"><ele>425</ele><time>2019-08-30T11:40:27Z</time><name>PT6082</name></trkpt>
<trkpt lat="53.232158" lon="-1.820106"><ele>425</ele><time>2019-08-30T11:40:28Z</time><name>PT6083</name></trkpt>
<trkpt lat="53.232167" lon="-1.820090"><ele>425</ele><time>2019-08-30T11:40:29Z</time><name>PT6084</name></trkpt>
<trkpt lat="53.232173" lon="-1.820075"><ele>424</ele><time>2019-08-30T11:40:30Z</time><name>PT6085</name></trkpt>
<trkpt lat="53.232181" lon="-1.820058"><ele>425</ele><time>2019-08-30T11:40:31Z</time><name>PT6086</name></trkpt>
<trkpt lat="53.232186" lon="-1.820041"><ele>425</ele><time>2019-08-30T11:40:32Z</time><name>PT6087</name></trkpt>
<trkpt lat="53.232192" lon="-1.820021"><ele>425</ele><time>2019-08-30T11:40:33Z</time><name>PT6088</name></trkpt>
<trkpt lat="53.232200" lon="-1.820000"><ele>425</ele><time>2019-08-30T11:40:34Z</time><name>PT6089</name></trkpt>
<trkpt lat="53.232206" lon="-1.819980"><ele>425</ele><time>2019-08-30T11:40:35Z</time><name>PT6090</name></trkpt>
<trkpt lat="53.232214" lon="-1.819961"><ele>425</ele><time>2019-08-30T11:40:36Z</time><name>PT6091</name></trkpt>
<trkpt lat="53.232222" lon="-1.819948"><ele>425</ele><time>2019-08-30T11:40:37Z</time><name>PT6092</name></trkpt>
<trkpt lat="53.232231" lon="-1.819933"><ele>424</ele><time>2019-08-30T11:40:38Z</time><name>PT6093</name></trkpt>
<trkpt lat="53.232238" lon="-1.819917"><ele>424</ele><time>2019-08-30T11:40:39Z</time><name>PT6094</name></trkpt>
<trkpt lat="53.232243" lon="-1.819904"><ele>424</ele><time>2019-08-30T11:40:40Z</time><name>PT6095</name></trkpt>
<trkpt lat="53.232251" lon="-1.819889"><ele>423</ele><time>2019-08-30T11:40:41Z</time><name>PT6096</name></trkpt>
<trkpt lat="53.232260" lon="-1.819877"><ele>423</ele><time>2019-08-30T11:40:42Z</time><name>PT6097</name></trkpt>
<trkpt lat="53.232268" lon="-1.819864"><ele>423</ele><time>2019-08-30T11:40:43Z</time><name>PT6098</name></trkpt>
<trkpt lat="53.232277" lon="-1.819843"><ele>423</ele><time>2019-08-30T11:40:44Z</time><name>PT6099</name></trkpt>
<trkpt lat="53.232284" lon="-1.819824"><ele>423</ele><time>2019-08-30T11:40:45Z</time><name>PT6100</name></trkpt>
<trkpt lat="53.232289" lon="-1.819807"><ele>423</ele><time>2019-08-30T11:40:46Z</time><name>PT6101</name></trkpt>
<trkpt lat="53.232296" lon="-1.819791"><ele>423</ele><time>2019-08-30T11:40:47Z</time><name>PT6102</name></trkpt>
<trkpt lat="53.232302" lon="-1.819770"><ele>423</ele><time>2019-08-30T11:40:48Z</time><name>PT6103</name></trkpt>
<trkpt lat="53.232309" lon="-1.819751"><ele>423</ele><time>2019-08-30T11:40:49Z</time><name>PT6104</name></trkpt>
<trkpt lat="53.232316" lon="-1.819731"><ele>424</ele><time>2019-08-30T11:40:50Z</time><name>PT6105</name></trkpt>
<trkpt lat="53.232323" lon="-1.819711"><ele>424</ele><time>2019-08-30T11:40:51Z</time><name>PT6106</name></trkpt>
<trkpt lat="53.232330" lon="-1.819693"><ele>424</ele><time>2019-08-30T11:40:52Z</time><name>PT6107</name></trkpt>
<trkpt lat="53.232336" lon="-1.819676"><ele>424</ele><time>2019-08-30T11:40:53Z</time><name>PT6108</name></trkpt>
<trkpt lat="53.232343" lon="-1.819657"><ele>424</ele><time>2019-08-30T11:40:54Z</time><name>PT6109</name></trkpt>
<trkpt lat="53.232350" lon="-1.819639"><ele>424</ele><time>2019-08-30T11:40:55Z</time><name>PT6110</name></trkpt>
<trkpt lat="53.232357" lon="-1.819625"><ele>423</ele><time>2019-08-30T11:40:56Z</time><name>PT6111</name></trkpt>
<trkpt lat="53.232365" lon="-1.819607"><ele>423</ele><time>2019-08-30T11:40:57Z</time><name>PT6112</name></trkpt>
<trkpt lat="53.232372" lon="-1.819589"><ele>423</ele><time>2019-08-30T11:40:58Z</time><name>PT6113</name></trkpt>
<trkpt lat="53.232376" lon="-1.819570"><ele>423</ele><time>2019-08-30T11:40:59Z</time><name>PT6114</name></trkpt>
<trkpt lat="53.232380" lon="-1.819550"><ele>423</ele><time>2019-08-30T11:41:00Z</time><name>PT6115</name></trkpt>
<trkpt lat="53.232387" lon="-1.819527"><ele>423</ele><time>2019-08-30T11:41:01Z</time><name>PT6116</name></trkpt>
<trkpt lat="53.232394" lon="-1.819511"><ele>423</ele><time>2019-08-30T11:41:02Z</time><name>PT6117</name></trkpt>
<trkpt lat="53.232404" lon="-1.819490"><ele>423</ele><time>2019-08-30T11:41:03Z</time><name>PT6118</name></trkpt>
<trkpt lat="53.232412" lon="-1.819469"><ele>423</ele><time>2019-08-30T11:41:04Z</time><name>PT6119</name></trkpt>
<trkpt lat="53.232419" lon="-1.819447"><ele>423</ele><time>2019-08-30T11:41:05Z</time><name>PT6120</name></trkpt>
<trkpt lat="53.232423" lon="-1.819430"><ele>423</ele><time>2019-08-30T11:41:06Z</time><name>PT6121</name></trkpt>
<trkpt lat="53.232428" lon="-1.819410"><ele>423</ele><time>2019-08-30T11:41:07Z</time><name>PT6122</name></trkpt>
<trkpt lat="53.232434" lon="-1.819390"><ele>423</ele><time>2019-08-30T11:41:08Z</time><name>PT6123</name></trkpt>
<trkpt lat="53.232441" lon="-1.819369"><ele>423</ele><time>2019-08-30T11:41:09Z</time><name>PT6124</name></trkpt>
<trkpt lat="53.232449" lon="-1.819351"><ele>423</ele><time>2019-08-30T11:41:10Z</time><name>PT6125</name></trkpt>
<trkpt lat="53.232457" lon="-1.819332"><ele>423</ele><time>2019-08-30T11:41:11Z</time><name>PT6126</name></trkpt>
<trkpt lat="53.232461" lon="-1.819314"><ele>423</ele><time>2019-08-30T11:41:12Z</time><name>PT6127</name></trkpt>
<trkpt lat="53.232465" lon="-1.819297"><ele>423</ele><time>2019-08-30T11:41:13Z</time><name>PT6128</name></trkpt>
<trkpt lat="53.232472" lon="-1.819275"><ele>423</ele><time>2019-08-30T11:41:14Z</time><name>PT6129</name></trkpt>
<trkpt lat="53.232478" lon="-1.819258"><ele>423</ele><time>2019-08-30T11:41:15Z</time><name>PT6130</name></trkpt>
<trkpt lat="53.232486" lon="-1.819244"><ele>423</ele><time>2019-08-30T11:41:16Z</time><name>PT6131</name></trkpt>
<trkpt lat="53.232494" lon="-1.819229"><ele>423</ele><time>2019-08-30T11:41:17Z</time><name>PT6132</name></trkpt>
<trkpt lat="53.232502" lon="-1.819208"><ele>423</ele><time>2019-08-30T11:41:18Z</time><name>PT6133</name></trkpt>
<trkpt lat="53.232506" lon="-1.819190"><ele>423</ele><time>2019-08-30T11:41:19Z</time><name>PT6134</name></trkpt>
<trkpt lat="53.232511" lon="-1.819170"><ele>423</ele><time>2019-08-30T11:41:20Z</time><name>PT6135</name></trkpt>
<trkpt lat="53.232519" lon="-1.819148"><ele>423</ele><time>2019-08-30T11:41:21Z</time><name>PT6136</name></trkpt>
<trkpt lat="53.232526" lon="-1.819131"><ele>423</ele><time>2019-08-30T11:41:22Z</time><name>PT6137</name></trkpt>
<trkpt lat="53.232534" lon="-1.819115"><ele>422</ele><time>2019-08-30T11:41:23Z</time><name>PT6138</name></trkpt>
<trkpt lat="53.232543" lon="-1.819096"><ele>422</ele><time>2019-08-30T11:41:24Z</time><name>PT6139</name></trkpt>
<trkpt lat="53.232549" lon="-1.819079"><ele>422</ele><time>2019-08-30T11:41:25Z</time><name>PT6140</name></trkpt>
<trkpt lat="53.232555" lon="-1.819063"><ele>422</ele><time>2019-08-30T11:41:26Z</time><name>PT6141</name></trkpt>
<trkpt lat="53.232562" lon="-1.819039"><ele>423</ele><time>2019-08-30T11:41:27Z</time><name>PT6142</name></trkpt>
<trkpt lat="53.232569" lon="-1.819021"><ele>423</ele><time>2019-08-30T11:41:28Z</time><name>PT6143</name></trkpt>
<trkpt lat="53.232577" lon="-1.819005"><ele>423</ele><time>2019-08-30T11:41:29Z</time><name>PT6144</name></trkpt>
<trkpt lat="53.232587" lon="-1.818983"><ele>423</ele><time>2019-08-30T11:41:30Z</time><name>PT6145</name></trkpt>
<trkpt lat="53.232594" lon="-1.818962"><ele>423</ele><time>2019-08-30T11:41:31Z</time><name>PT6146</name></trkpt>
<trkpt lat="53.232599" lon="-1.818943"><ele>423</ele><time>2019-08-30T11:41:32Z</time><name>PT6147</name></trkpt>
<trkpt lat="53.232606" lon="-1.818926"><ele>423</ele><time>2019-08-30T11:41:33Z</time><name>PT6148</name></trkpt>
<trkpt lat="53.232612" lon="-1.818898"><ele>424</ele><time>2019-08-30T11:41:34Z</time><name>PT6149</name></trkpt>
<trkpt lat="53.232619" lon="-1.818877"><ele>424</ele><time>2019-08-30T11:41:35Z</time><name>PT6150</name></trkpt>
<trkpt lat="53.232629" lon="-1.818869"><ele>423</ele><time>2019-08-30T11:41:36Z</time><name>PT6151</name></trkpt>
<trkpt lat="53.232636" lon="-1.818850"><ele>422</ele><time>2019-08-30T11:41:37Z</time><name>PT6152</name></trkpt>
<trkpt lat="53.232642" lon="-1.818833"><ele>422</ele><time>2019-08-30T11:41:38Z</time><name>PT6153</name></trkpt>
<trkpt lat="53.232647" lon="-1.818813"><ele>423</ele><time>2019-08-30T11:41:39Z</time><name>PT6154</name></trkpt>
<trkpt lat="53.232653" lon="-1.818792"><ele>423</ele><time>2019-08-30T11:41:40Z</time><name>PT6155</name></trkpt>
<trkpt lat="53.232660" lon="-1.818774"><ele>423</ele><time>2019-08-30T11:41:41Z</time><name>PT6156</name></trkpt>
<trkpt lat="53.232666" lon="-1.818756"><ele>423</ele><time>2019-08-30T11:41:42Z</time><name>PT6157</name></trkpt>
<trkpt lat="53.232674" lon="-1.818737"><ele>423</ele><time>2019-08-30T11:41:43Z</time><name>PT6158</name></trkpt>
<trkpt lat="53.232678" lon="-1.818715"><ele>424</ele><time>2019-08-30T11:41:44Z</time><name>PT6159</name></trkpt>
<trkpt lat="53.232683" lon="-1.818698"><ele>424</ele><time>2019-08-30T11:41:45Z</time><name>PT6160</name></trkpt>
<trkpt lat="53.232689" lon="-1.818676"><ele>424</ele><time>2019-08-30T11:41:46Z</time><name>PT6161</name></trkpt>
<trkpt lat="53.232694" lon="-1.818657"><ele>425</ele><time>2019-08-30T11:41:47Z</time><name>PT6162</name></trkpt>
<trkpt lat="53.232702" lon="-1.818642"><ele>425</ele><time>2019-08-30T11:41:48Z</time><name>PT6163</name></trkpt>
<trkpt lat="53.232709" lon="-1.818629"><ele>424</ele><time>2019-08-30T11:41:49Z</time><name>PT6164</name></trkpt>
<trkpt lat="53.232714" lon="-1.818610"><ele>424</ele><time>2019-08-30T11:41:50Z</time><name>PT6165</name></trkpt>
<trkpt lat="53.232719" lon="-1.818592"><ele>425</ele><time>2019-08-30T11:41:51Z</time><name>PT6166</name></trkpt>
<trkpt lat="53.232724" lon="-1.818572"><ele>424</ele><time>2019-08-30T11:41:52Z</time><name>PT6167</name></trkpt>
<trkpt lat="53.232729" lon="-1.818553"><ele>424</ele><time>2019-08-30T11:41:53Z</time><name>PT6168</name></trkpt>
<trkpt lat="53.232735" lon="-1.818535"><ele>424</ele><time>2019-08-30T11:41:54Z</time><name>PT6169</name></trkpt>
<trkpt lat="53.232743" lon="-1.818514"><ele>424</ele><time>2019-08-30T11:41:55Z</time><name>PT6170</name></trkpt>
<trkpt lat="53.232748" lon="-1.818494"><ele>425</ele><time>2019-08-30T11:41:56Z</time><name>PT6171</name></trkpt>
<trkpt lat="53.232752" lon="-1.818474"><ele>425</ele><time>2019-08-30T11:41:57Z</time><name>PT6172</name></trkpt>
<trkpt lat="53.232757" lon="-1.818452"><ele>425</ele><time>2019-08-30T11:41:58Z</time><name>PT6173</name></trkpt>
<trkpt lat="53.232763" lon="-1.818432"><ele>425</ele><time>2019-08-30T11:41:59Z</time><name>PT6174</name></trkpt>
<trkpt lat="53.232770" lon="-1.818416"><ele>425</ele><time>2019-08-30T11:42:00Z</time><name>PT6175</name></trkpt>
<trkpt lat="53.232779" lon="-1.818394"><ele>424</ele><time>2019-08-30T11:42:01Z</time><name>PT6176</name></trkpt>
<trkpt lat="53.232785" lon="-1.818374"><ele>425</ele><time>2019-08-30T11:42:02Z</time><name>PT6177</name></trkpt>
<trkpt lat="53.232789" lon="-1.818358"><ele>425</ele><time>2019-08-30T11:42:03Z</time><name>PT6178</name></trkpt>
<trkpt lat="53.232796" lon="-1.818338"><ele>425</ele><time>2019-08-30T11:42:04Z</time><name>PT6179</name></trkpt>
<trkpt lat="53.232802" lon="-1.818320"><ele>425</ele><time>2019-08-30T11:42:05Z</time><name>PT6180</name></trkpt>
<trkpt lat="53.232810" lon="-1.818303"><ele>425</ele><time>2019-08-30T11:42:06Z</time><name>PT6181</name></trkpt>
<trkpt lat="53.232819" lon="-1.818282"><ele>425</ele><time>2019-08-30T11:42:07Z</time><name>PT6182</name></trkpt>
<trkpt lat="53.232823" lon="-1.818262"><ele>425</ele><time>2019-08-30T11:42:08Z</time><name>PT6183</name></trkpt>
<trkpt lat="53.232827" lon="-1.818243"><ele>426</ele><time>2019-08-30T11:42:09Z</time><name>PT6184</name></trkpt>
<trkpt lat="53.232834" lon="-1.818221"><ele>426</ele><time>2019-08-30T11:42:10Z</time><name>PT6185</name></trkpt>
<trkpt lat="53.232839" lon="-1.818202"><ele>426</ele><time>2019-08-30T11:42:11Z</time><name>PT6186</name></trkpt>
<trkpt lat="53.232844" lon="-1.818183"><ele>426</ele><time>2019-08-30T11:42:12Z</time><name>PT6187</name></trkpt>
<trkpt lat="53.232853" lon="-1.818164"><ele>426</ele><time>2019-08-30T11:42:13Z</time><name>PT6188</name></trkpt>
<trkpt lat="53.232858" lon="-1.818146"><ele>426</ele><time>2019-08-30T11:42:14Z</time><name>PT6189</name></trkpt>
<trkpt lat="53.232862" lon="-1.818127"><ele>426</ele><time>2019-08-30T11:42:15Z</time><name>PT6190</name></trkpt>
<trkpt lat="53.232869" lon="-1.818110"><ele>426</ele><time>2019-08-30T11:42:17Z</time><name>PT6191</name></trkpt>
<trkpt lat="53.232876" lon="-1.818095"><ele>425</ele><time>2019-08-30T11:42:17Z</time><name>PT6192</name></trkpt>
<trkpt lat="53.232882" lon="-1.818075"><ele>425</ele><time>2019-08-30T11:42:18Z</time><name>PT6193</name></trkpt>
<trkpt lat="53.232890" lon="-1.818056"><ele>425</ele><time>2019-08-30T11:42:19Z</time><name>PT6194</name></trkpt>
<trkpt lat="53.232896" lon="-1.818038"><ele>425</ele><time>2019-08-30T11:42:20Z</time><name>PT6195</name></trkpt>
<trkpt lat="53.232901" lon="-1.818019"><ele>425</ele><time>2019-08-30T11:42:21Z</time><name>PT6196</name></trkpt>
<trkpt lat="53.232907" lon="-1.818000"><ele>426</ele><time>2019-08-30T11:42:22Z</time><name>PT6197</name></trkpt>
<trkpt lat="53.232913" lon="-1.817983"><ele>426</ele><time>2019-08-30T11:42:23Z</time><name>PT6198</name></trkpt>
<trkpt lat="53.232920" lon="-1.817962"><ele>425</ele><time>2019-08-30T11:42:24Z</time><name>PT6199</name></trkpt>
<trkpt lat="53.232924" lon="-1.817942"><ele>425</ele><time>2019-08-30T11:42:25Z</time><name>PT6200</name></trkpt>
<trkpt lat="53.232928" lon="-1.817925"><ele>425</ele><time>2019-08-30T11:42:26Z</time><name>PT6201</name></trkpt>
<trkpt lat="53.232935" lon="-1.817906"><ele>425</ele><time>2019-08-30T11:42:27Z</time><name>PT6202</name></trkpt>
<trkpt lat="53.232941" lon="-1.817898"><ele>424</ele><time>2019-08-30T11:42:28Z</time><name>PT6203</name></trkpt>
<trkpt lat="53.232948" lon="-1.817885"><ele>424</ele><time>2019-08-30T11:42:29Z</time><name>PT6204</name></trkpt>
<trkpt lat="53.232955" lon="-1.817866"><ele>423</ele><time>2019-08-30T11:42:30Z</time><name>PT6205</name></trkpt>
<trkpt lat="53.232961" lon="-1.817848"><ele>423</ele><time>2019-08-30T11:42:31Z</time><name>PT6206</name></trkpt>
<trkpt lat="53.232965" lon="-1.817829"><ele>424</ele><time>2019-08-30T11:42:32Z</time><name>PT6207</name></trkpt>
<trkpt lat="53.232968" lon="-1.817806"><ele>424</ele><time>2019-08-30T11:42:33Z</time><name>PT6208</name></trkpt>
<trkpt lat="53.232974" lon="-1.817788"><ele>424</ele><time>2019-08-30T11:42:34Z</time><name>PT6209</name></trkpt>
<trkpt lat="53.232979" lon="-1.817767"><ele>424</ele><time>2019-08-30T11:42:35Z</time><name>PT6210</name></trkpt>
<trkpt lat="53.232986" lon="-1.817745"><ele>424</ele><time>2019-08-30T11:42:36Z</time><name>PT6211</name></trkpt>
<trkpt lat="53.232992" lon="-1.817727"><ele>424</ele><time>2019-08-30T11:42:37Z</time><name>PT6212</name></trkpt>
<trkpt lat="53.232997" lon="-1.817706"><ele>425</ele><time>2019-08-30T11:42:38Z</time><name>PT6213</name></trkpt>
<trkpt lat="53.233002" lon="-1.817684"><ele>425</ele><time>2019-08-30T11:42:39Z</time><name>PT6214</name></trkpt>
<trkpt lat="53.233009" lon="-1.817669"><ele>425</ele><time>2019-08-30T11:42:40Z</time><name>PT6215</name></trkpt>
<trkpt lat="53.233015" lon="-1.817650"><ele>425</ele><time>2019-08-30T11:42:41Z</time><name>PT6216</name></trkpt>
<trkpt lat="53.233021" lon="-1.817629"><ele>425</ele><time>2019-08-30T11:42:42Z</time><name>PT6217</name></trkpt>
<trkpt lat="53.233027" lon="-1.817611"><ele>425</ele><time>2019-08-30T11:42:43Z</time><name>PT6218</name></trkpt>
<trkpt lat="53.233034" lon="-1.817591"><ele>425</ele><time>2019-08-30T11:42:44Z</time><name>PT6219</name></trkpt>
<trkpt lat="53.233039" lon="-1.817573"><ele>425</ele><time>2019-08-30T11:42:45Z</time><name>PT6220</name></trkpt>
<trkpt lat="53.233047" lon="-1.817556"><ele>425</ele><time>2019-08-30T11:42:46Z</time><name>PT6221</name></trkpt>
<trkpt lat="53.233055" lon="-1.817537"><ele>424</ele><time>2019-08-30T11:42:47Z</time><name>PT6222</name></trkpt>
<trkpt lat="53.233059" lon="-1.817519"><ele>424</ele><time>2019-08-30T11:42:48Z</time><name>PT6223</name></trkpt>
<trkpt lat="53.233064" lon="-1.817500"><ele>425</ele><time>2019-08-30T11:42:49Z</time><name>PT6224</name></trkpt>
<trkpt lat="53.233070" lon="-1.817486"><ele>424</ele><time>2019-08-30T11:42:50Z</time><name>PT6225</name></trkpt>
<trkpt lat="53.233077" lon="-1.817470"><ele>425</ele><time>2019-08-30T11:42:51Z</time><name>PT6226</name></trkpt>
<trkpt lat="53.233084" lon="-1.817453"><ele>424</ele><time>2019-08-30T11:42:52Z</time><name>PT6227</name></trkpt>
<trkpt lat="53.233089" lon="-1.817434"><ele>424</ele><time>2019-08-30T11:42:53Z</time><name>PT6228</name></trkpt>
<trkpt lat="53.233094" lon="-1.817413"><ele>425</ele><time>2019-08-30T11:42:54Z</time><name>PT6229</name></trkpt>
<trkpt lat="53.233102" lon="-1.817393"><ele>424</ele><time>2019-08-30T11:42:55Z</time><name>PT6230</name></trkpt>
<trkpt lat="53.233108" lon="-1.817378"><ele>424</ele><time>2019-08-30T11:42:56Z</time><name>PT6231</name></trkpt>
<trkpt lat="53.233115" lon="-1.817362"><ele>424</ele><time>2019-08-30T11:42:57Z</time><name>PT6232</name></trkpt>
<trkpt lat="53.233121" lon="-1.817341"><ele>423</ele><time>2019-08-30T11:42:58Z</time><name>PT6233</name></trkpt>
<trkpt lat="53.233126" lon="-1.817321"><ele>424</ele><time>2019-08-30T11:42:59Z</time><name>PT6234</name></trkpt>
<trkpt lat="53.233130" lon="-1.817299"><ele>424</ele><time>2019-08-30T11:43:00Z</time><name>PT6235</name></trkpt>
<trkpt lat="53.233137" lon="-1.817284"><ele>424</ele><time>2019-08-30T11:43:01Z</time><name>PT6236</name></trkpt>
<trkpt lat="53.233145" lon="-1.817269"><ele>423</ele><time>2019-08-30T11:43:02Z</time><name>PT6237</name></trkpt>
<trkpt lat="53.233153" lon="-1.817250"><ele>423</ele><time>2019-08-30T11:43:03Z</time><name>PT6238</name></trkpt>
<trkpt lat="53.233172" lon="-1.817235"><ele>420</ele><time>2019-08-30T11:43:04Z</time><name>PT6239</name></trkpt>
<trkpt lat="53.233183" lon="-1.817218"><ele>420</ele><time>2019-08-30T11:43:05Z</time><name>PT6240</name></trkpt>
<trkpt lat="53.233187" lon="-1.817204"><ele>420</ele><time>2019-08-30T11:43:06Z</time><name>PT6241</name></trkpt>
<trkpt lat="53.233192" lon="-1.817183"><ele>420</ele><time>2019-08-30T11:43:07Z</time><name>PT6242</name></trkpt>
<trkpt lat="53.233198" lon="-1.817167"><ele>420</ele><time>2019-08-30T11:43:08Z</time><name>PT6243</name></trkpt>
<trkpt lat="53.233205" lon="-1.817155"><ele>420</ele><time>2019-08-30T11:43:09Z</time><name>PT6244</name></trkpt>
<trkpt lat="53.233212" lon="-1.817139"><ele>420</ele><time>2019-08-30T11:43:10Z</time><name>PT6245</name></trkpt>
<trkpt lat="53.233219" lon="-1.817121"><ele>419</ele><time>2019-08-30T11:43:11Z</time><name>PT6246</name></trkpt>
<trkpt lat="53.233224" lon="-1.817102"><ele>419</ele><time>2019-08-30T11:43:12Z</time><name>PT6247</name></trkpt>
<trkpt lat="53.233228" lon="-1.817080"><ele>420</ele><time>2019-08-30T11:43:13Z</time><name>PT6248</name></trkpt>
<trkpt lat="53.233233" lon="-1.817058"><ele>421</ele><time>2019-08-30T11:43:14Z</time><name>PT6249</name></trkpt>
<trkpt lat="53.233238" lon="-1.817040"><ele>421</ele><time>2019-08-30T11:43:15Z</time><name>PT6250</name></trkpt>
<trkpt lat="53.233245" lon="-1.817022"><ele>421</ele><time>2019-08-30T11:43:16Z</time><name>PT6251</name></trkpt>
<trkpt lat="53.233253" lon="-1.817006"><ele>420</ele><time>2019-08-30T11:43:17Z</time><name>PT6252</name></trkpt>
<trkpt lat="53.233259" lon="-1.816989"><ele>420</ele><time>2019-08-30T11:43:18Z</time><name>PT6253</name></trkpt>
<trkpt lat="53.233263" lon="-1.816965"><ele>421</ele><time>2019-08-30T11:43:19Z</time><name>PT6254</name></trkpt>
<trkpt lat="53.233270" lon="-1.816942"><ele>422</ele><time>2019-08-30T11:43:20Z</time><name>PT6255</name></trkpt>
<trkpt lat="53.233277" lon="-1.816928"><ele>422</ele><time>2019-08-30T11:43:21Z</time><name>PT6256</name></trkpt>
<trkpt lat="53.233283" lon="-1.816911"><ele>422</ele><time>2019-08-30T11:43:22Z</time><name>PT6257</name></trkpt>
<trkpt lat="53.233290" lon="-1.816884"><ele>422</ele><time>2019-08-30T11:43:23Z</time><name>PT6258</name></trkpt>
<trkpt lat="53.233297" lon="-1.816862"><ele>423</ele><time>2019-08-30T11:43:24Z</time><name>PT6259</name></trkpt>
<trkpt lat="53.233302" lon="-1.816846"><ele>423</ele><time>2019-08-30T11:43:25Z</time><name>PT6260</name></trkpt>
<trkpt lat="53.233307" lon="-1.816823"><ele>423</ele><time>2019-08-30T11:43:26Z</time><name>PT6261</name></trkpt>
<trkpt lat="53.233313" lon="-1.816802"><ele>423</ele><time>2019-08-30T11:43:27Z</time><name>PT6262</name></trkpt>
<trkpt lat="53.233319" lon="-1.816779"><ele>423</ele><time>2019-08-30T11:43:28Z</time><name>PT6263</name></trkpt>
<trkpt lat="53.233327" lon="-1.816761"><ele>423</ele><time>2019-08-30T11:43:30Z</time><name>PT6264</name></trkpt>
<trkpt lat="53.233333" lon="-1.816737"><ele>423</ele><time>2019-08-30T11:43:30Z</time><name>PT6265</name></trkpt>
<trkpt lat="53.233337" lon="-1.816717"><ele>424</ele><time>2019-08-30T11:43:31Z</time><name>PT6266</name></trkpt>
<trkpt lat="53.233340" lon="-1.816697"><ele>424</ele><time>2019-08-30T11:43:32Z</time><name>PT6267</name></trkpt>
<trkpt lat="53.233345" lon="-1.816678"><ele>424</ele><time>2019-08-30T11:43:33Z</time><name>PT6268</name></trkpt>
<trkpt lat="53.233351" lon="-1.816659"><ele>424</ele><time>2019-08-30T11:43:34Z</time><name>PT6269</name></trkpt>
<trkpt lat="53.233357" lon="-1.816639"><ele>424</ele><time>2019-08-30T11:43:36Z</time><name>PT6270</name></trkpt>
<trkpt lat="53.233363" lon="-1.816615"><ele>425</ele><time>2019-08-30T11:43:36Z</time><name>PT6271</name></trkpt>
<trkpt lat="53.233368" lon="-1.816593"><ele>425</ele><time>2019-08-30T11:43:37Z</time><name>PT6272</name></trkpt>
<trkpt lat="53.233372" lon="-1.816575"><ele>425</ele><time>2019-08-30T11:43:38Z</time><name>PT6273</name></trkpt>
<trkpt lat="53.233376" lon="-1.816551"><ele>425</ele><time>2019-08-30T11:43:39Z</time><name>PT6274</name></trkpt>
<trkpt lat="53.233382" lon="-1.816532"><ele>425</ele><time>2019-08-30T11:43:40Z</time><name>PT6275</name></trkpt>
<trkpt lat="53.233388" lon="-1.816513"><ele>425</ele><time>2019-08-30T11:43:41Z</time><name>PT6276</name></trkpt>
<trkpt lat="53.233397" lon="-1.816486"><ele>425</ele><time>2019-08-30T11:43:42Z</time><name>PT6277</name></trkpt>
<trkpt lat="53.233401" lon="-1.816460"><ele>426</ele><time>2019-08-30T11:43:43Z</time><name>PT6278</name></trkpt>
<trkpt lat="53.233405" lon="-1.816441"><ele>426</ele><time>2019-08-30T11:43:44Z</time><name>PT6279</name></trkpt>
<trkpt lat="53.233411" lon="-1.816415"><ele>426</ele><time>2019-08-30T11:43:45Z</time><name>PT6280</name></trkpt>
<trkpt lat="53.233416" lon="-1.816395"><ele>426</ele><time>2019-08-30T11:43:46Z</time><name>PT6281</name></trkpt>
<trkpt lat="53.233421" lon="-1.816378"><ele>426</ele><time>2019-08-30T11:43:47Z</time><name>PT6282</name></trkpt>
<trkpt lat="53.233425" lon="-1.816357"><ele>426</ele><time>2019-08-30T11:43:48Z</time><name>PT6283</name></trkpt>
<trkpt lat="53.233430" lon="-1.816334"><ele>426</ele><time>2019-08-30T11:43:49Z</time><name>PT6284</name></trkpt>
<trkpt lat="53.233433" lon="-1.816316"><ele>426</ele><time>2019-08-30T11:43:50Z</time><name>PT6285</name></trkpt>
<trkpt lat="53.233436" lon="-1.816294"><ele>427</ele><time>2019-08-30T11:43:51Z</time><name>PT6286</name></trkpt>
<trkpt lat="53.233439" lon="-1.816272"><ele>427</ele><time>2019-08-30T11:43:52Z</time><name>PT6287</name></trkpt>
<trkpt lat="53.233440" lon="-1.816247"><ele>427</ele><time>2019-08-30T11:43:53Z</time><name>PT6288</name></trkpt>
<trkpt lat="53.233438" lon="-1.816230"><ele>426</ele><time>2019-08-30T11:43:54Z</time><name>PT6289</name></trkpt>
<trkpt lat="53.233440" lon="-1.816211"><ele>426</ele><time>2019-08-30T11:43:55Z</time><name>PT6290</name></trkpt>
<trkpt lat="53.233435" lon="-1.816196"><ele>426</ele><time>2019-08-30T11:43:56Z</time><name>PT6291</name></trkpt>
<trkpt lat="53.233430" lon="-1.816185"><ele>427</ele><time>2019-08-30T11:43:57Z</time><name>PT6292</name></trkpt>
<trkpt lat="53.233422" lon="-1.816171"><ele>427</ele><time>2019-08-30T11:43:58Z</time><name>PT6293</name></trkpt>
<trkpt lat="53.233417" lon="-1.816146"><ele>427</ele><time>2019-08-30T11:43:59Z</time><name>PT6294</name></trkpt>
<trkpt lat="53.233418" lon="-1.816127"><ele>427</ele><time>2019-08-30T11:44:00Z</time><name>PT6295</name></trkpt>
<trkpt lat="53.233416" lon="-1.816103"><ele>428</ele><time>2019-08-30T11:44:01Z</time><name>PT6296</name></trkpt>
<trkpt lat="53.233419" lon="-1.816080"><ele>428</ele><time>2019-08-30T11:44:02Z</time><name>PT6297</name></trkpt>
<trkpt lat="53.233421" lon="-1.816062"><ele>428</ele><time>2019-08-30T11:44:03Z</time><name>PT6298</name></trkpt>
<trkpt lat="53.233423" lon="-1.816046"><ele>428</ele><time>2019-08-30T11:44:04Z</time><name>PT6299</name></trkpt>
<trkpt lat="53.233420" lon="-1.816030"><ele>427</ele><time>2019-08-30T11:44:05Z</time><name>PT6300</name></trkpt>
<trkpt lat="53.233421" lon="-1.816013"><ele>428</ele><time>2019-08-30T11:44:06Z</time><name>PT6301</name></trkpt>
<trkpt lat="53.233423" lon="-1.815986"><ele>428</ele><time>2019-08-30T11:44:07Z</time><name>PT6302</name></trkpt>
<trkpt lat="53.233426" lon="-1.815962"><ele>427</ele><time>2019-08-30T11:44:08Z</time><name>PT6303</name></trkpt>
<trkpt lat="53.233428" lon="-1.815945"><ele>427</ele><time>2019-08-30T11:44:09Z</time><name>PT6304</name></trkpt>
<trkpt lat="53.233433" lon="-1.815934"><ele>426</ele><time>2019-08-30T11:44:10Z</time><name>PT6305</name></trkpt>
<trkpt lat="53.233434" lon="-1.815915"><ele>426</ele><time>2019-08-30T11:44:11Z</time><name>PT6306</name></trkpt>
<trkpt lat="53.233436" lon="-1.815894"><ele>426</ele><time>2019-08-30T11:44:12Z</time><name>PT6307</name></trkpt>
<trkpt lat="53.233437" lon="-1.815879"><ele>425</ele><time>2019-08-30T11:44:13Z</time><name>PT6308</name></trkpt>
<trkpt lat="53.233436" lon="-1.815858"><ele>425</ele><time>2019-08-30T11:44:14Z</time><name>PT6309</name></trkpt>
<trkpt lat="53.233437" lon="-1.815835"><ele>425</ele><time>2019-08-30T11:44:15Z</time><name>PT6310</name></trkpt>
<trkpt lat="53.233441" lon="-1.815817"><ele>425</ele><time>2019-08-30T11:44:16Z</time><name>PT6311</name></trkpt>
<trkpt lat="53.233443" lon="-1.815801"><ele>425</ele><time>2019-08-30T11:44:17Z</time><name>PT6312</name></trkpt>
<trkpt lat="53.233444" lon="-1.815786"><ele>424</ele><time>2019-08-30T11:44:18Z</time><name>PT6313</name></trkpt>
<trkpt lat="53.233446" lon="-1.815766"><ele>424</ele><time>2019-08-30T11:44:19Z</time><name>PT6314</name></trkpt>
<trkpt lat="53.233450" lon="-1.815751"><ele>424</ele><time>2019-08-30T11:44:20Z</time><name>PT6315</name></trkpt>
<trkpt lat="53.233454" lon="-1.815746"><ele>423</ele><time>2019-08-30T11:44:22Z</time><name>PT6316</name></trkpt>
<trkpt lat="53.233458" lon="-1.815729"><ele>423</ele><time>2019-08-30T11:44:22Z</time><name>PT6317</name></trkpt>
<trkpt lat="53.233461" lon="-1.815704"><ele>423</ele><time>2019-08-30T11:44:23Z</time><name>PT6318</name></trkpt>
<trkpt lat="53.233463" lon="-1.815682"><ele>423</ele><time>2019-08-30T11:44:24Z</time><name>PT6319</name></trkpt>
<trkpt lat="53.233468" lon="-1.815665"><ele>423</ele><time>2019-08-30T11:44:25Z</time><name>PT6320</name></trkpt>
<trkpt lat="53.233472" lon="-1.815648"><ele>423</ele><time>2019-08-30T11:44:26Z</time><name>PT6321</name></trkpt>
<trkpt lat="53.233476" lon="-1.815630"><ele>423</ele><time>2019-08-30T11:44:27Z</time><name>PT6322</name></trkpt>
<trkpt lat="53.233482" lon="-1.815609"><ele>424</ele><time>2019-08-30T11:44:28Z</time><name>PT6323</name></trkpt>
<trkpt lat="53.233490" lon="-1.815581"><ele>424</ele><time>2019-08-30T11:44:29Z</time><name>PT6324</name></trkpt>
<trkpt lat="53.233498" lon="-1.815552"><ele>425</ele><time>2019-08-30T11:44:30Z</time><name>PT6325</name></trkpt>
<trkpt lat="53.233501" lon="-1.815543"><ele>425</ele><time>2019-08-30T11:44:31Z</time><name>PT6326</name></trkpt>
<trkpt lat="53.233503" lon="-1.815526"><ele>425</ele><time>2019-08-30T11:44:32Z</time><name>PT6327</name></trkpt>
<trkpt lat="53.233509" lon="-1.815500"><ele>425</ele><time>2019-08-30T11:44:33Z</time><name>PT6328</name></trkpt>
<trkpt lat="53.233513" lon="-1.815478"><ele>425</ele><time>2019-08-30T11:44:34Z</time><name>PT6329</name></trkpt>
<trkpt lat="53.233520" lon="-1.815463"><ele>425</ele><time>2019-08-30T11:44:35Z</time><name>PT6330</name></trkpt>
<trkpt lat="53.233526" lon="-1.815451"><ele>424</ele><time>2019-08-30T11:44:36Z</time><name>PT6331</name></trkpt>
<trkpt lat="53.233531" lon="-1.815433"><ele>424</ele><time>2019-08-30T11:44:37Z</time><name>PT6332</name></trkpt>
<trkpt lat="53.233533" lon="-1.815414"><ele>424</ele><time>2019-08-30T11:44:38Z</time><name>PT6333</name></trkpt>
<trkpt lat="53.233536" lon="-1.815393"><ele>424</ele><time>2019-08-30T11:44:39Z</time><name>PT6334</name></trkpt>
<trkpt lat="53.233538" lon="-1.815370"><ele>423</ele><time>2019-08-30T11:44:40Z</time><name>PT6335</name></trkpt>
<trkpt lat="53.233541" lon="-1.815354"><ele>423</ele><time>2019-08-30T11:44:41Z</time><name>PT6336</name></trkpt>
<trkpt lat="53.233547" lon="-1.815343"><ele>422</ele><time>2019-08-30T11:44:42Z</time><name>PT6337</name></trkpt>
<trkpt lat="53.233550" lon="-1.815314"><ele>422</ele><time>2019-08-30T11:44:43Z</time><name>PT6338</name></trkpt>
<trkpt lat="53.233557" lon="-1.815294"><ele>421</ele><time>2019-08-30T11:44:44Z</time><name>PT6339</name></trkpt>
<trkpt lat="53.233562" lon="-1.815278"><ele>421</ele><time>2019-08-30T11:44:45Z</time><name>PT6340</name></trkpt>
<trkpt lat="53.233566" lon="-1.815267"><ele>420</ele><time>2019-08-30T11:44:46Z</time><name>PT6341</name></trkpt>
<trkpt lat="53.233573" lon="-1.815249"><ele>420</ele><time>2019-08-30T11:44:47Z</time><name>PT6342</name></trkpt>
<trkpt lat="53.233579" lon="-1.815231"><ele>419</ele><time>2019-08-30T11:44:48Z</time><name>PT6343</name></trkpt>
<trkpt lat="53.233585" lon="-1.815214"><ele>419</ele><time>2019-08-30T11:44:49Z</time><name>PT6344</name></trkpt>
<trkpt lat="53.233591" lon="-1.815194"><ele>420</ele><time>2019-08-30T11:44:50Z</time><name>PT6345</name></trkpt>
<trkpt lat="53.233599" lon="-1.815168"><ele>421</ele><time>2019-08-30T11:44:51Z</time><name>PT6346</name></trkpt>
<trkpt lat="53.233604" lon="-1.815152"><ele>420</ele><time>2019-08-30T11:44:52Z</time><name>PT6347</name></trkpt>
<trkpt lat="53.233608" lon="-1.815138"><ele>420</ele><time>2019-08-30T11:44:53Z</time><name>PT6348</name></trkpt>
<trkpt lat="53.233613" lon="-1.815113"><ele>420</ele><time>2019-08-30T11:44:54Z</time><name>PT6349</name></trkpt>
<trkpt lat="53.233617" lon="-1.815097"><ele>420</ele><time>2019-08-30T11:44:55Z</time><name>PT6350</name></trkpt>
<trkpt lat="53.233625" lon="-1.815082"><ele>419</ele><time>2019-08-30T11:44:56Z</time><name>PT6351</name></trkpt>
<trkpt lat="53.233632" lon="-1.815062"><ele>419</ele><time>2019-08-30T11:44:57Z</time><name>PT6352</name></trkpt>
<trkpt lat="53.233637" lon="-1.815042"><ele>419</ele><time>2019-08-30T11:44:58Z</time><name>PT6353</name></trkpt>
<trkpt lat="53.233640" lon="-1.815028"><ele>419</ele><time>2019-08-30T11:44:59Z</time><name>PT6354</name></trkpt>
<trkpt lat="53.233645" lon="-1.815015"><ele>418</ele><time>2019-08-30T11:45:00Z</time><name>PT6355</name></trkpt>
<trkpt lat="53.233650" lon="-1.815003"><ele>418</ele><time>2019-08-30T11:45:01Z</time><name>PT6356</name></trkpt>
<trkpt lat="53.233654" lon="-1.814991"><ele>418</ele><time>2019-08-30T11:45:02Z</time><name>PT6357</name></trkpt>
<trkpt lat="53.233661" lon="-1.814966"><ele>419</ele><time>2019-08-30T11:45:03Z</time><name>PT6358</name></trkpt>
<trkpt lat="53.233666" lon="-1.814936"><ele>420</ele><time>2019-08-30T11:45:04Z</time><name>PT6359</name></trkpt>
<trkpt lat="53.233671" lon="-1.814914"><ele>420</ele><time>2019-08-30T11:45:05Z</time><name>PT6360</name></trkpt>
<trkpt lat="53.233677" lon="-1.814896"><ele>420</ele><time>2019-08-30T11:45:06Z</time><name>PT6361</name></trkpt>
<trkpt lat="53.233680" lon="-1.814876"><ele>420</ele><time>2019-08-30T11:45:07Z</time><name>PT6362</name></trkpt>
<trkpt lat="53.233685" lon="-1.814858"><ele>420</ele><time>2019-08-30T11:45:08Z</time><name>PT6363</name></trkpt>
<trkpt lat="53.233691" lon="-1.814839"><ele>419</ele><time>2019-08-30T11:45:09Z</time><name>PT6364</name></trkpt>
<trkpt lat="53.233697" lon="-1.814816"><ele>420</ele><time>2019-08-30T11:45:10Z</time><name>PT6365</name></trkpt>
<trkpt lat="53.233701" lon="-1.814795"><ele>419</ele><time>2019-08-30T11:45:11Z</time><name>PT6366</name></trkpt>
<trkpt lat="53.233705" lon="-1.814770"><ele>420</ele><time>2019-08-30T11:45:13Z</time><name>PT6367</name></trkpt>
<trkpt lat="53.233708" lon="-1.814749"><ele>420</ele><time>2019-08-30T11:45:13Z</time><name>PT6368</name></trkpt>
<trkpt lat="53.233713" lon="-1.814726"><ele>420</ele><time>2019-08-30T11:45:14Z</time><name>PT6369</name></trkpt>
<trkpt lat="53.233718" lon="-1.814705"><ele>420</ele><time>2019-08-30T11:45:15Z</time><name>PT6370</name></trkpt>
<trkpt lat="53.233725" lon="-1.814693"><ele>420</ele><time>2019-08-30T11:45:16Z</time><name>PT6371</name></trkpt>
<trkpt lat="53.233734" lon="-1.814670"><ele>420</ele><time>2019-08-30T11:45:17Z</time><name>PT6372</name></trkpt>
<trkpt lat="53.233744" lon="-1.814646"><ele>420</ele><time>2019-08-30T11:45:18Z</time><name>PT6373</name></trkpt>
<trkpt lat="53.233750" lon="-1.814620"><ele>421</ele><time>2019-08-30T11:45:19Z</time><name>PT6374</name></trkpt>
<trkpt lat="53.233754" lon="-1.814597"><ele>421</ele><time>2019-08-30T11:45:20Z</time><name>PT6375</name></trkpt>
<trkpt lat="53.233761" lon="-1.814578"><ele>421</ele><time>2019-08-30T11:45:21Z</time><name>PT6376</name></trkpt>
<trkpt lat="53.233770" lon="-1.814559"><ele>421</ele><time>2019-08-30T11:45:22Z</time><name>PT6377</name></trkpt>
<trkpt lat="53.233781" lon="-1.814541"><ele>421</ele><time>2019-08-30T11:45:23Z</time><name>PT6378</name></trkpt>
<trkpt lat="53.233792" lon="-1.814519"><ele>422</ele><time>2019-08-30T11:45:24Z</time><name>PT6379</name></trkpt>
<trkpt lat="53.233803" lon="-1.814505"><ele>421</ele><time>2019-08-30T11:45:25Z</time><name>PT6380</name></trkpt>
<trkpt lat="53.233809" lon="-1.814477"><ele>422</ele><time>2019-08-30T11:45:26Z</time><name>PT6381</name></trkpt>
<trkpt lat="53.233815" lon="-1.814459"><ele>422</ele><time>2019-08-30T11:45:27Z</time><name>PT6382</name></trkpt>
<trkpt lat="53.233823" lon="-1.814438"><ele>421</ele><time>2019-08-30T11:45:28Z</time><name>PT6383</name></trkpt>
<trkpt lat="53.233831" lon="-1.814421"><ele>421</ele><time>2019-08-30T11:45:29Z</time><name>PT6384</name></trkpt>
<trkpt lat="53.233839" lon="-1.814402"><ele>421</ele><time>2019-08-30T11:45:30Z</time><name>PT6385</name></trkpt>
<trkpt lat="53.233847" lon="-1.814367"><ele>422</ele><time>2019-08-30T11:45:31Z</time><name>PT6386</name></trkpt>
<trkpt lat="53.233854" lon="-1.814334"><ele>423</ele><time>2019-08-30T11:45:32Z</time><name>PT6387</name></trkpt>
<trkpt lat="53.233862" lon="-1.814310"><ele>423</ele><time>2019-08-30T11:45:33Z</time><name>PT6388</name></trkpt>
<trkpt lat="53.233873" lon="-1.814284"><ele>423</ele><time>2019-08-30T11:45:34Z</time><name>PT6389</name></trkpt>
<trkpt lat="53.233878" lon="-1.814256"><ele>424</ele><time>2019-08-30T11:45:35Z</time><name>PT6390</name></trkpt>
<trkpt lat="53.233885" lon="-1.814225"><ele>424</ele><time>2019-08-30T11:45:36Z</time><name>PT6391</name></trkpt>
<trkpt lat="53.233894" lon="-1.814191"><ele>425</ele><time>2019-08-30T11:45:37Z</time><name>PT6392</name></trkpt>
<trkpt lat="53.233905" lon="-1.814160"><ele>426</ele><time>2019-08-30T11:45:38Z</time><name>PT6393</name></trkpt>
<trkpt lat="53.233916" lon="-1.814137"><ele>427</ele><time>2019-08-30T11:45:39Z</time><name>PT6394</name></trkpt>
<trkpt lat="53.233926" lon="-1.814119"><ele>427</ele><time>2019-08-30T11:45:40Z</time><name>PT6395</name></trkpt>
<trkpt lat="53.233936" lon="-1.814105"><ele>427</ele><time>2019-08-30T11:45:41Z</time><name>PT6396</name></trkpt>
<trkpt lat="53.233947" lon="-1.814090"><ele>427</ele><time>2019-08-30T11:45:42Z</time><name>PT6397</name></trkpt>
<trkpt lat="53.233958" lon="-1.814073"><ele>427</ele><time>2019-08-30T11:45:43Z</time><name>PT6398</name></trkpt>
<trkpt lat="53.233968" lon="-1.814060"><ele>427</ele><time>2019-08-30T11:45:44Z</time><name>PT6399</name></trkpt>
<trkpt lat="53.233976" lon="-1.814047"><ele>427</ele><time>2019-08-30T11:45:45Z</time><name>PT6400</name></trkpt>
<trkpt lat="53.233986" lon="-1.814029"><ele>428</ele><time>2019-08-30T11:45:46Z</time><name>PT6401</name></trkpt>
<trkpt lat="53.233997" lon="-1.814018"><ele>428</ele><time>2019-08-30T11:45:47Z</time><name>PT6402</name></trkpt>
<trkpt lat="53.234006" lon="-1.814005"><ele>428</ele><time>2019-08-30T11:45:48Z</time><name>PT6403</name></trkpt>
<trkpt lat="53.234015" lon="-1.813989"><ele>428</ele><time>2019-08-30T11:45:49Z</time><name>PT6404</name></trkpt>
<trkpt lat="53.234025" lon="-1.813970"><ele>428</ele><time>2019-08-30T11:45:50Z</time><name>PT6405</name></trkpt>
<trkpt lat="53.234034" lon="-1.813954"><ele>428</ele><time>2019-08-30T11:45:51Z</time><name>PT6406</name></trkpt>
<trkpt lat="53.234044" lon="-1.813941"><ele>428</ele><time>2019-08-30T11:45:52Z</time><name>PT6407</name></trkpt>
<trkpt lat="53.234054" lon="-1.813930"><ele>427</ele><time>2019-08-30T11:45:53Z</time><name>PT6408</name></trkpt>
<trkpt lat="53.234064" lon="-1.813912"><ele>428</ele><time>2019-08-30T11:45:54Z</time><name>PT6409</name></trkpt>
<trkpt lat="53.234074" lon="-1.813896"><ele>428</ele><time>2019-08-30T11:45:55Z</time><name>PT6410</name></trkpt>
<trkpt lat="53.234083" lon="-1.813882"><ele>428</ele><time>2019-08-30T11:45:56Z</time><name>PT6411</name></trkpt>
<trkpt lat="53.234092" lon="-1.813866"><ele>428</ele><time>2019-08-30T11:45:57Z</time><name>PT6412</name></trkpt>
<trkpt lat="53.234102" lon="-1.813848"><ele>428</ele><time>2019-08-30T11:45:58Z</time><name>PT6413</name></trkpt>
<trkpt lat="53.234111" lon="-1.813834"><ele>428</ele><time>2019-08-30T11:45:59Z</time><name>PT6414</name></trkpt>
<trkpt lat="53.234122" lon="-1.813819"><ele>428</ele><time>2019-08-30T11:46:00Z</time><name>PT6415</name></trkpt>
<trkpt lat="53.234135" lon="-1.813804"><ele>428</ele><time>2019-08-30T11:46:01Z</time><name>PT6416</name></trkpt>
<trkpt lat="53.234145" lon="-1.813780"><ele>428</ele><time>2019-08-30T11:46:02Z</time><name>PT6417</name></trkpt>
<trkpt lat="53.234153" lon="-1.813762"><ele>428</ele><time>2019-08-30T11:46:03Z</time><name>PT6418</name></trkpt>
<trkpt lat="53.234161" lon="-1.813746"><ele>428</ele><time>2019-08-30T11:46:04Z</time><name>PT6419</name></trkpt>
<trkpt lat="53.234170" lon="-1.813729"><ele>428</ele><time>2019-08-30T11:46:05Z</time><name>PT6420</name></trkpt>
<trkpt lat="53.234178" lon="-1.813712"><ele>428</ele><time>2019-08-30T11:46:06Z</time><name>PT6421</name></trkpt>
<trkpt lat="53.234186" lon="-1.813700"><ele>428</ele><time>2019-08-30T11:46:07Z</time><name>PT6422</name></trkpt>
<trkpt lat="53.234196" lon="-1.813684"><ele>428</ele><time>2019-08-30T11:46:08Z</time><name>PT6423</name></trkpt>
<trkpt lat="53.234206" lon="-1.813667"><ele>428</ele><time>2019-08-30T11:46:09Z</time><name>PT6424</name></trkpt>
<trkpt lat="53.234213" lon="-1.813653"><ele>428</ele><time>2019-08-30T11:46:10Z</time><name>PT6425</name></trkpt>
<trkpt lat="53.234221" lon="-1.813637"><ele>429</ele><time>2019-08-30T11:46:11Z</time><name>PT6426</name></trkpt>
<trkpt lat="53.234229" lon="-1.813616"><ele>429</ele><time>2019-08-30T11:46:12Z</time><name>PT6427</name></trkpt>
<trkpt lat="53.234237" lon="-1.813599"><ele>429</ele><time>2019-08-30T11:46:13Z</time><name>PT6428</name></trkpt>
<trkpt lat="53.234246" lon="-1.813584"><ele>429</ele><time>2019-08-30T11:46:14Z</time><name>PT6429</name></trkpt>
<trkpt lat="53.234259" lon="-1.813567"><ele>428</ele><time>2019-08-30T11:46:15Z</time><name>PT6430</name></trkpt>
<trkpt lat="53.234269" lon="-1.813551"><ele>428</ele><time>2019-08-30T11:46:16Z</time><name>PT6431</name></trkpt>
<trkpt lat="53.234274" lon="-1.813535"><ele>428</ele><time>2019-08-30T11:46:17Z</time><name>PT6432</name></trkpt>
<trkpt lat="53.234281" lon="-1.813516"><ele>428</ele><time>2019-08-30T11:46:18Z</time><name>PT6433</name></trkpt>
<trkpt lat="53.234290" lon="-1.813499"><ele>428</ele><time>2019-08-30T11:46:19Z</time><name>PT6434</name></trkpt>
<trkpt lat="53.234296" lon="-1.813484"><ele>428</ele><time>2019-08-30T11:46:20Z</time><name>PT6435</name></trkpt>
<trkpt lat="53.234304" lon="-1.813468"><ele>428</ele><time>2019-08-30T11:46:21Z</time><name>PT6436</name></trkpt>
<trkpt lat="53.234311" lon="-1.813448"><ele>428</ele><time>2019-08-30T11:46:22Z</time><name>PT6437</name></trkpt>
<trkpt lat="53.234323" lon="-1.813422"><ele>428</ele><time>2019-08-30T11:46:23Z</time><name>PT6438</name></trkpt>
<trkpt lat="53.234333" lon="-1.813395"><ele>429</ele><time>2019-08-30T11:46:24Z</time><name>PT6439</name></trkpt>
<trkpt lat="53.234340" lon="-1.813374"><ele>429</ele><time>2019-08-30T11:46:25Z</time><name>PT6440</name></trkpt>
<trkpt lat="53.234347" lon="-1.813356"><ele>428</ele><time>2019-08-30T11:46:26Z</time><name>PT6441</name></trkpt>
<trkpt lat="53.234354" lon="-1.813334"><ele>428</ele><time>2019-08-30T11:46:27Z</time><name>PT6442</name></trkpt>
<trkpt lat="53.234361" lon="-1.813313"><ele>428</ele><time>2019-08-30T11:46:28Z</time><name>PT6443</name></trkpt>
<trkpt lat="53.234367" lon="-1.813293"><ele>428</ele><time>2019-08-30T11:46:29Z</time><name>PT6444</name></trkpt>
<trkpt lat="53.234375" lon="-1.813273"><ele>428</ele><time>2019-08-30T11:46:30Z</time><name>PT6445</name></trkpt>
<trkpt lat="53.234382" lon="-1.813257"><ele>428</ele><time>2019-08-30T11:46:31Z</time><name>PT6446</name></trkpt>
<trkpt lat="53.234389" lon="-1.813241"><ele>428</ele><time>2019-08-30T11:46:32Z</time><name>PT6447</name></trkpt>
<trkpt lat="53.234398" lon="-1.813224"><ele>428</ele><time>2019-08-30T11:46:33Z</time><name>PT6448</name></trkpt>
<trkpt lat="53.234405" lon="-1.813206"><ele>428</ele><time>2019-08-30T11:46:34Z</time><name>PT6449</name></trkpt>
<trkpt lat="53.234413" lon="-1.813187"><ele>428</ele><time>2019-08-30T11:46:35Z</time><name>PT6450</name></trkpt>
<trkpt lat="53.234421" lon="-1.813169"><ele>428</ele><time>2019-08-30T11:46:36Z</time><name>PT6451</name></trkpt>
<trkpt lat="53.234429" lon="-1.813151"><ele>428</ele><time>2019-08-30T11:46:37Z</time><name>PT6452</name></trkpt>
<trkpt lat="53.234437" lon="-1.813135"><ele>427</ele><time>2019-08-30T11:46:38Z</time><name>PT6453</name></trkpt>
<trkpt lat="53.234445" lon="-1.813119"><ele>427</ele><time>2019-08-30T11:46:39Z</time><name>PT6454</name></trkpt>
<trkpt lat="53.234453" lon="-1.813103"><ele>427</ele><time>2019-08-30T11:46:40Z</time><name>PT6455</name></trkpt>
<trkpt lat="53.234461" lon="-1.813086"><ele>428</ele><time>2019-08-30T11:46:41Z</time><name>PT6456</name></trkpt>
<trkpt lat="53.234468" lon="-1.813069"><ele>427</ele><time>2019-08-30T11:46:42Z</time><name>PT6457</name></trkpt>
<trkpt lat="53.234474" lon="-1.813052"><ele>427</ele><time>2019-08-30T11:46:43Z</time><name>PT6458</name></trkpt>
<trkpt lat="53.234480" lon="-1.813036"><ele>427</ele><time>2019-08-30T11:46:44Z</time><name>PT6459</name></trkpt>
<trkpt lat="53.234487" lon="-1.813019"><ele>427</ele><time>2019-08-30T11:46:45Z</time><name>PT6460</name></trkpt>
<trkpt lat="53.234493" lon="-1.813004"><ele>427</ele><time>2019-08-30T11:46:46Z</time><name>PT6461</name></trkpt>
<trkpt lat="53.234495" lon="-1.812988"><ele>426</ele><time>2019-08-30T11:46:47Z</time><name>PT6462</name></trkpt>
<trkpt lat="53.234502" lon="-1.812970"><ele>426</ele><time>2019-08-30T11:46:48Z</time><name>PT6463</name></trkpt>
<trkpt lat="53.234507" lon="-1.812945"><ele>426</ele><time>2019-08-30T11:46:49Z</time><name>PT6464</name></trkpt>
<trkpt lat="53.234512" lon="-1.812927"><ele>426</ele><time>2019-08-30T11:46:50Z</time><name>PT6465</name></trkpt>
<trkpt lat="53.234518" lon="-1.812911"><ele>426</ele><time>2019-08-30T11:46:51Z</time><name>PT6466</name></trkpt>
<trkpt lat="53.234523" lon="-1.812891"><ele>426</ele><time>2019-08-30T11:46:52Z</time><name>PT6467</name></trkpt>
<trkpt lat="53.234529" lon="-1.812871"><ele>425</ele><time>2019-08-30T11:46:53Z</time><name>PT6468</name></trkpt>
<trkpt lat="53.234531" lon="-1.812850"><ele>425</ele><time>2019-08-30T11:46:54Z</time><name>PT6469</name></trkpt>
<trkpt lat="53.234533" lon="-1.812830"><ele>425</ele><time>2019-08-30T11:46:55Z</time><name>PT6470</name></trkpt>
<trkpt lat="53.234536" lon="-1.812809"><ele>425</ele><time>2019-08-30T11:46:56Z</time><name>PT6471</name></trkpt>
<trkpt lat="53.234541" lon="-1.812785"><ele>425</ele><time>2019-08-30T11:46:57Z</time><name>PT6472</name></trkpt>
<trkpt lat="53.234545" lon="-1.812768"><ele>424</ele><time>2019-08-30T11:46:58Z</time><name>PT6473</name></trkpt>
<trkpt lat="53.234547" lon="-1.812748"><ele>424</ele><time>2019-08-30T11:46:59Z</time><name>PT6474</name></trkpt>
<trkpt lat="53.234552" lon="-1.812728"><ele>424</ele><time>2019-08-30T11:47:00Z</time><name>PT6475</name></trkpt>
<trkpt lat="53.234553" lon="-1.812707"><ele>424</ele><time>2019-08-30T11:47:01Z</time><name>PT6476</name></trkpt>
<trkpt lat="53.234553" lon="-1.812685"><ele>425</ele><time>2019-08-30T11:47:02Z</time><name>PT6477</name></trkpt>
<trkpt lat="53.234554" lon="-1.812661"><ele>425</ele><time>2019-08-30T11:47:03Z</time><name>PT6478</name></trkpt>
<trkpt lat="53.234557" lon="-1.812640"><ele>425</ele><time>2019-08-30T11:47:04Z</time><name>PT6479</name></trkpt>
<trkpt lat="53.234562" lon="-1.812623"><ele>425</ele><time>2019-08-30T11:47:05Z</time><name>PT6480</name></trkpt>
<trkpt lat="53.234565" lon="-1.812601"><ele>425</ele><time>2019-08-30T11:47:06Z</time><name>PT6481</name></trkpt>
<trkpt lat="53.234567" lon="-1.812579"><ele>424</ele><time>2019-08-30T11:47:07Z</time><name>PT6482</name></trkpt>
<trkpt lat="53.234569" lon="-1.812560"><ele>424</ele><time>2019-08-30T11:47:08Z</time><name>PT6483</name></trkpt>
<trkpt lat="53.234570" lon="-1.812538"><ele>425</ele><time>2019-08-30T11:47:09Z</time><name>PT6484</name></trkpt>
<trkpt lat="53.234576" lon="-1.812517"><ele>425</ele><time>2019-08-30T11:47:10Z</time><name>PT6485</name></trkpt>
<trkpt lat="53.234580" lon="-1.812497"><ele>424</ele><time>2019-08-30T11:47:11Z</time><name>PT6486</name></trkpt>
<trkpt lat="53.234584" lon="-1.812476"><ele>424</ele><time>2019-08-30T11:47:12Z</time><name>PT6487</name></trkpt>
<trkpt lat="53.234589" lon="-1.812455"><ele>424</ele><time>2019-08-30T11:47:13Z</time><name>PT6488</name></trkpt>
<trkpt lat="53.234593" lon="-1.812434"><ele>424</ele><time>2019-08-30T11:47:14Z</time><name>PT6489</name></trkpt>
<trkpt lat="53.234594" lon="-1.812413"><ele>424</ele><time>2019-08-30T11:47:15Z</time><name>PT6490</name></trkpt>
<trkpt lat="53.234595" lon="-1.812393"><ele>424</ele><time>2019-08-30T11:47:16Z</time><name>PT6491</name></trkpt>
<trkpt lat="53.234602" lon="-1.812368"><ele>424</ele><time>2019-08-30T11:47:17Z</time><name>PT6492</name></trkpt>
<trkpt lat="53.234608" lon="-1.812344"><ele>424</ele><time>2019-08-30T11:47:18Z</time><name>PT6493</name></trkpt>
<trkpt lat="53.234606" lon="-1.812312"><ele>425</ele><time>2019-08-30T11:47:19Z</time><name>PT6494</name></trkpt>
<trkpt lat="53.234609" lon="-1.812290"><ele>425</ele><time>2019-08-30T11:47:20Z</time><name>PT6495</name></trkpt>
<trkpt lat="53.234616" lon="-1.812268"><ele>424</ele><time>2019-08-30T11:47:21Z</time><name>PT6496</name></trkpt>
<trkpt lat="53.234622" lon="-1.812248"><ele>424</ele><time>2019-08-30T11:47:22Z</time><name>PT6497</name></trkpt>
<trkpt lat="53.234628" lon="-1.812228"><ele>424</ele><time>2019-08-30T11:47:23Z</time><name>PT6498</name></trkpt>
<trkpt lat="53.234633" lon="-1.812207"><ele>425</ele><time>2019-08-30T11:47:24Z</time><name>PT6499</name></trkpt>
<trkpt lat="53.234637" lon="-1.812185"><ele>424</ele><time>2019-08-30T11:47:25Z</time><name>PT6500</name></trkpt>
<trkpt lat="53.234639" lon="-1.812161"><ele>425</ele><time>2019-08-30T11:47:26Z</time><name>PT6501</name></trkpt>
<trkpt lat="53.234642" lon="-1.812139"><ele>425</ele><time>2019-08-30T11:47:27Z</time><name>PT6502</name></trkpt>
<trkpt lat="53.234644" lon="-1.812114"><ele>425</ele><time>2019-08-30T11:47:28Z</time><name>PT6503</name></trkpt>
<trkpt lat="53.234648" lon="-1.812091"><ele>425</ele><time>2019-08-30T11:47:29Z</time><name>PT6504</name></trkpt>
<trkpt lat="53.234654" lon="-1.812069"><ele>425</ele><time>2019-08-30T11:47:30Z</time><name>PT6505</name></trkpt>
<trkpt lat="53.234659" lon="-1.812047"><ele>425</ele><time>2019-08-30T11:47:31Z</time><name>PT6506</name></trkpt>
<trkpt lat="53.234664" lon="-1.812027"><ele>425</ele><time>2019-08-30T11:47:32Z</time><name>PT6507</name></trkpt>
<trkpt lat="53.234666" lon="-1.812009"><ele>425</ele><time>2019-08-30T11:47:33Z</time><name>PT6508</name></trkpt>
<trkpt lat="53.234670" lon="-1.811991"><ele>425</ele><time>2019-08-30T11:47:34Z</time><name>PT6509</name></trkpt>
<trkpt lat="53.234672" lon="-1.811970"><ele>425</ele><time>2019-08-30T11:47:35Z</time><name>PT6510</name></trkpt>
<trkpt lat="53.234675" lon="-1.811952"><ele>425</ele><time>2019-08-30T11:47:36Z</time><name>PT6511</name></trkpt>
<trkpt lat="53.234681" lon="-1.811935"><ele>424</ele><time>2019-08-30T11:47:37Z</time><name>PT6512</name></trkpt>
<trkpt lat="53.234685" lon="-1.811918"><ele>425</ele><time>2019-08-30T11:47:38Z</time><name>PT6513</name></trkpt>
<trkpt lat="53.234693" lon="-1.811900"><ele>424</ele><time>2019-08-30T11:47:39Z</time><name>PT6514</name></trkpt>
<trkpt lat="53.234701" lon="-1.811886"><ele>423</ele><time>2019-08-30T11:47:40Z</time><name>PT6515</name></trkpt>
<trkpt lat="53.234711" lon="-1.811872"><ele>423</ele><time>2019-08-30T11:47:41Z</time><name>PT6516</name></trkpt>
<trkpt lat="53.234723" lon="-1.811852"><ele>423</ele><time>2019-08-30T11:47:42Z</time><name>PT6517</name></trkpt>
<trkpt lat="53.234733" lon="-1.811833"><ele>424</ele><time>2019-08-30T11:47:43Z</time><name>PT6518</name></trkpt>
<trkpt lat="53.234739" lon="-1.811813"><ele>424</ele><time>2019-08-30T11:47:44Z</time><name>PT6519</name></trkpt>
<trkpt lat="53.234747" lon="-1.811788"><ele>425</ele><time>2019-08-30T11:47:45Z</time><name>PT6520</name></trkpt>
<trkpt lat="53.234757" lon="-1.811775"><ele>425</ele><time>2019-08-30T11:47:46Z</time><name>PT6521</name></trkpt>
<trkpt lat="53.234767" lon="-1.811761"><ele>425</ele><time>2019-08-30T11:47:47Z</time><name>PT6522</name></trkpt>
<trkpt lat="53.234777" lon="-1.811750"><ele>425</ele><time>2019-08-30T11:47:48Z</time><name>PT6523</name></trkpt>
<trkpt lat="53.234789" lon="-1.811740"><ele>425</ele><time>2019-08-30T11:47:49Z</time><name>PT6524</name></trkpt>
<trkpt lat="53.234799" lon="-1.811729"><ele>425</ele><time>2019-08-30T11:47:50Z</time><name>PT6525</name></trkpt>
<trkpt lat="53.234808" lon="-1.811718"><ele>425</ele><time>2019-08-30T11:47:51Z</time><name>PT6526</name></trkpt>
<trkpt lat="53.234815" lon="-1.811699"><ele>426</ele><time>2019-08-30T11:47:52Z</time><name>PT6527</name></trkpt>
<trkpt lat="53.234824" lon="-1.811673"><ele>426</ele><time>2019-08-30T11:47:53Z</time><name>PT6528</name></trkpt>
<trkpt lat="53.234836" lon="-1.811658"><ele>426</ele><time>2019-08-30T11:47:54Z</time><name>PT6529</name></trkpt>
<trkpt lat="53.234846" lon="-1.811647"><ele>426</ele><time>2019-08-30T11:47:55Z</time><name>PT6530</name></trkpt>
<trkpt lat="53.234855" lon="-1.811638"><ele>427</ele><time>2019-08-30T11:47:56Z</time><name>PT6531</name></trkpt>
<trkpt lat="53.234867" lon="-1.811627"><ele>426</ele><time>2019-08-30T11:47:57Z</time><name>PT6532</name></trkpt>
<trkpt lat="53.234877" lon="-1.811617"><ele>427</ele><time>2019-08-30T11:47:58Z</time><name>PT6533</name></trkpt>
<trkpt lat="53.234886" lon="-1.811601"><ele>427</ele><time>2019-08-30T11:47:59Z</time><name>PT6534</name></trkpt>
<trkpt lat="53.234895" lon="-1.811587"><ele>427</ele><time>2019-08-30T11:48:00Z</time><name>PT6535</name></trkpt>
<trkpt lat="53.234903" lon="-1.811579"><ele>426</ele><time>2019-08-30T11:48:01Z</time><name>PT6536</name></trkpt>
<trkpt lat="53.234912" lon="-1.811570"><ele>426</ele><time>2019-08-30T11:48:02Z</time><name>PT6537</name></trkpt>
<trkpt lat="53.234918" lon="-1.811558"><ele>425</ele><time>2019-08-30T11:48:03Z</time><name>PT6538</name></trkpt>
<trkpt lat="53.234927" lon="-1.811540"><ele>426</ele><time>2019-08-30T11:48:04Z</time><name>PT6539</name></trkpt>
<trkpt lat="53.234935" lon="-1.811524"><ele>426</ele><time>2019-08-30T11:48:05Z</time><name>PT6540</name></trkpt>
<trkpt lat="53.234944" lon="-1.811510"><ele>426</ele><time>2019-08-30T11:48:06Z</time><name>PT6541</name></trkpt>
<trkpt lat="53.234954" lon="-1.811494"><ele>426</ele><time>2019-08-30T11:48:07Z</time><name>PT6542</name></trkpt>
<trkpt lat="53.234962" lon="-1.811480"><ele>426</ele><time>2019-08-30T11:48:08Z</time><name>PT6543</name></trkpt>
<trkpt lat="53.234970" lon="-1.811463"><ele>427</ele><time>2019-08-30T11:48:09Z</time><name>PT6544</name></trkpt>
<trkpt lat="53.234980" lon="-1.811444"><ele>427</ele><time>2019-08-30T11:48:10Z</time><name>PT6545</name></trkpt>
<trkpt lat="53.234989" lon="-1.811429"><ele>427</ele><time>2019-08-30T11:48:11Z</time><name>PT6546</name></trkpt>
<trkpt lat="53.235003" lon="-1.811415"><ele>428</ele><time>2019-08-30T11:48:12Z</time><name>PT6547</name></trkpt>
<trkpt lat="53.235013" lon="-1.811400"><ele>429</ele><time>2019-08-30T11:48:13Z</time><name>PT6548</name></trkpt>
<trkpt lat="53.235021" lon="-1.811384"><ele>429</ele><time>2019-08-30T11:48:14Z</time><name>PT6549</name></trkpt>
<trkpt lat="53.235031" lon="-1.811370"><ele>429</ele><time>2019-08-30T11:48:15Z</time><name>PT6550</name></trkpt>
<trkpt lat="53.235040" lon="-1.811360"><ele>428</ele><time>2019-08-30T11:48:16Z</time><name>PT6551</name></trkpt>
<trkpt lat="53.235052" lon="-1.811353"><ele>429</ele><time>2019-08-30T11:48:17Z</time><name>PT6552</name></trkpt>
<trkpt lat="53.235062" lon="-1.811343"><ele>428</ele><time>2019-08-30T11:48:18Z</time><name>PT6553</name></trkpt>
<trkpt lat="53.235069" lon="-1.811328"><ele>428</ele><time>2019-08-30T11:48:19Z</time><name>PT6554</name></trkpt>
<trkpt lat="53.235077" lon="-1.811312"><ele>428</ele><time>2019-08-30T11:48:20Z</time><name>PT6555</name></trkpt>
<trkpt lat="53.235086" lon="-1.811298"><ele>428</ele><time>2019-08-30T11:48:21Z</time><name>PT6556</name></trkpt>
<trkpt lat="53.235096" lon="-1.811285"><ele>427</ele><time>2019-08-30T11:48:22Z</time><name>PT6557</name></trkpt>
<trkpt lat="53.235105" lon="-1.811270"><ele>427</ele><time>2019-08-30T11:48:23Z</time><name>PT6558</name></trkpt>
<trkpt lat="53.235113" lon="-1.811255"><ele>427</ele><time>2019-08-30T11:48:24Z</time><name>PT6559</name></trkpt>
<trkpt lat="53.235122" lon="-1.811239"><ele>427</ele><time>2019-08-30T11:48:25Z</time><name>PT6560</name></trkpt>
<trkpt lat="53.235131" lon="-1.811225"><ele>427</ele><time>2019-08-30T11:48:26Z</time><name>PT6561</name></trkpt>
<trkpt lat="53.235144" lon="-1.811209"><ele>427</ele><time>2019-08-30T11:48:27Z</time><name>PT6562</name></trkpt>
<trkpt lat="53.235151" lon="-1.811194"><ele>427</ele><time>2019-08-30T11:48:28Z</time><name>PT6563</name></trkpt>
<trkpt lat="53.235157" lon="-1.811175"><ele>428</ele><time>2019-08-30T11:48:29Z</time><name>PT6564</name></trkpt>
<trkpt lat="53.235166" lon="-1.811159"><ele>428</ele><time>2019-08-30T11:48:30Z</time><name>PT6565</name></trkpt>
<trkpt lat="53.235176" lon="-1.811144"><ele>429</ele><time>2019-08-30T11:48:31Z</time><name>PT6566</name></trkpt>
<trkpt lat="53.235187" lon="-1.811129"><ele>429</ele><time>2019-08-30T11:48:32Z</time><name>PT6567</name></trkpt>
<trkpt lat="53.235196" lon="-1.811115"><ele>429</ele><time>2019-08-30T11:48:33Z</time><name>PT6568</name></trkpt>
<trkpt lat="53.235203" lon="-1.811101"><ele>429</ele><time>2019-08-30T11:48:34Z</time><name>PT6569</name></trkpt>
<trkpt lat="53.235213" lon="-1.811086"><ele>429</ele><time>2019-08-30T11:48:35Z</time><name>PT6570</name></trkpt>
<trkpt lat="53.235223" lon="-1.811075"><ele>429</ele><time>2019-08-30T11:48:36Z</time><name>PT6571</name></trkpt>
<trkpt lat="53.235230" lon="-1.811061"><ele>429</ele><time>2019-08-30T11:48:37Z</time><name>PT6572</name></trkpt>
<trkpt lat="53.235238" lon="-1.811046"><ele>429</ele><time>2019-08-30T11:48:38Z</time><name>PT6573</name></trkpt>
<trkpt lat="53.235244" lon="-1.811032"><ele>429</ele><time>2019-08-30T11:48:39Z</time><name>PT6574</name></trkpt>
<trkpt lat="53.235251" lon="-1.811017"><ele>428</ele><time>2019-08-30T11:48:40Z</time><name>PT6575</name></trkpt>
<trkpt lat="53.235258" lon="-1.811001"><ele>428</ele><time>2019-08-30T11:48:41Z</time><name>PT6576</name></trkpt>
<trkpt lat="53.235266" lon="-1.810985"><ele>428</ele><time>2019-08-30T11:48:42Z</time><name>PT6577</name></trkpt>
<trkpt lat="53.235273" lon="-1.810968"><ele>428</ele><time>2019-08-30T11:48:43Z</time><name>PT6578</name></trkpt>
<trkpt lat="53.235282" lon="-1.810946"><ele>428</ele><time>2019-08-30T11:48:44Z</time><name>PT6579</name></trkpt>
<trkpt lat="53.235294" lon="-1.810926"><ele>428</ele><time>2019-08-30T11:48:45Z</time><name>PT6580</name></trkpt>
<trkpt lat="53.235303" lon="-1.810908"><ele>428</ele><time>2019-08-30T11:48:46Z</time><name>PT6581</name></trkpt>
<trkpt lat="53.235310" lon="-1.810887"><ele>428</ele><time>2019-08-30T11:48:47Z</time><name>PT6582</name></trkpt>
<trkpt lat="53.235315" lon="-1.810866"><ele>428</ele><time>2019-08-30T11:48:48Z</time><name>PT6583</name></trkpt>
<trkpt lat="53.235320" lon="-1.810847"><ele>428</ele><time>2019-08-30T11:48:49Z</time><name>PT6584</name></trkpt>
<trkpt lat="53.235326" lon="-1.810828"><ele>428</ele><time>2019-08-30T11:48:50Z</time><name>PT6585</name></trkpt>
<trkpt lat="53.235332" lon="-1.810810"><ele>428</ele><time>2019-08-30T11:48:51Z</time><name>PT6586</name></trkpt>
<trkpt lat="53.235338" lon="-1.810789"><ele>428</ele><time>2019-08-30T11:48:52Z</time><name>PT6587</name></trkpt>
<trkpt lat="53.235343" lon="-1.810770"><ele>428</ele><time>2019-08-30T11:48:53Z</time><name>PT6588</name></trkpt>
<trkpt lat="53.235349" lon="-1.810751"><ele>428</ele><time>2019-08-30T11:48:54Z</time><name>PT6589</name></trkpt>
<trkpt lat="53.235354" lon="-1.810732"><ele>428</ele><time>2019-08-30T11:48:55Z</time><name>PT6590</name></trkpt>
<trkpt lat="53.235358" lon="-1.810714"><ele>428</ele><time>2019-08-30T11:48:56Z</time><name>PT6591</name></trkpt>
<trkpt lat="53.235362" lon="-1.810695"><ele>428</ele><time>2019-08-30T11:48:57Z</time><name>PT6592</name></trkpt>
<trkpt lat="53.235365" lon="-1.810675"><ele>428</ele><time>2019-08-30T11:48:58Z</time><name>PT6593</name></trkpt>
<trkpt lat="53.235367" lon="-1.810656"><ele>428</ele><time>2019-08-30T11:48:59Z</time><name>PT6594</name></trkpt>
<trkpt lat="53.235369" lon="-1.810639"><ele>428</ele><time>2019-08-30T11:49:00Z</time><name>PT6595</name></trkpt>
<trkpt lat="53.235370" lon="-1.810618"><ele>428</ele><time>2019-08-30T11:49:01Z</time><name>PT6596</name></trkpt>
<trkpt lat="53.235377" lon="-1.810603"><ele>428</ele><time>2019-08-30T11:49:02Z</time><name>PT6597</name></trkpt>
<trkpt lat="53.235383" lon="-1.810592"><ele>428</ele><time>2019-08-30T11:49:03Z</time><name>PT6598</name></trkpt>
<trkpt lat="53.235388" lon="-1.810584"><ele>428</ele><time>2019-08-30T11:49:04Z</time><name>PT6599</name></trkpt>
<trkpt lat="53.235392" lon="-1.810571"><ele>427</ele><time>2019-08-30T11:49:05Z</time><name>PT6600</name></trkpt>
<trkpt lat="53.235394" lon="-1.810561"><ele>427</ele><time>2019-08-30T11:49:06Z</time><name>PT6601</name></trkpt>
<trkpt lat="53.235401" lon="-1.810542"><ele>427</ele><time>2019-08-30T11:49:07Z</time><name>PT6602</name></trkpt>
<trkpt lat="53.235409" lon="-1.810510"><ele>427</ele><time>2019-08-30T11:49:08Z</time><name>PT6603</name></trkpt>
<trkpt lat="53.235413" lon="-1.810494"><ele>427</ele><time>2019-08-30T11:49:09Z</time><name>PT6604</name></trkpt>
<trkpt lat="53.235419" lon="-1.810482"><ele>426</ele><time>2019-08-30T11:49:10Z</time><name>PT6605</name></trkpt>
<trkpt lat="53.235425" lon="-1.810471"><ele>426</ele><time>2019-08-30T11:49:11Z</time><name>PT6606</name></trkpt>
<trkpt lat="53.235432" lon="-1.810457"><ele>426</ele><time>2019-08-30T11:49:12Z</time><name>PT6607</name></trkpt>
<trkpt lat="53.235435" lon="-1.810457"><ele>426</ele><time>2019-08-30T11:49:13Z</time><name>PT6608</name></trkpt>
<trkpt lat="53.235435" lon="-1.810456"><ele>426</ele><time>2019-08-30T11:49:14Z</time><name>PT6609</name></trkpt>
<trkpt lat="53.235439" lon="-1.810453"><ele>426</ele><time>2019-08-30T11:49:15Z</time><name>PT6610</name></trkpt>
<trkpt lat="53.235444" lon="-1.810445"><ele>426</ele><time>2019-08-30T11:49:16Z</time><name>PT6611</name></trkpt>
<trkpt lat="53.235449" lon="-1.810430"><ele>426</ele><time>2019-08-30T11:49:17Z</time><name>PT6612</name></trkpt>
<trkpt lat="53.235453" lon="-1.810416"><ele>426</ele><time>2019-08-30T11:49:18Z</time><name>PT6613</name></trkpt>
<trkpt lat="53.235457" lon="-1.810403"><ele>426</ele><time>2019-08-30T11:49:19Z</time><name>PT6614</name></trkpt>
<trkpt lat="53.235461" lon="-1.810396"><ele>426</ele><time>2019-08-30T11:49:20Z</time><name>PT6615</name></trkpt>
<trkpt lat="53.235463" lon="-1.810393"><ele>426</ele><time>2019-08-30T11:49:21Z</time><name>PT6616</name></trkpt>
<trkpt lat="53.235465" lon="-1.810395"><ele>426</ele><time>2019-08-30T11:49:22Z</time><name>PT6617</name></trkpt>
<trkpt lat="53.235463" lon="-1.810394"><ele>426</ele><time>2019-08-30T11:49:23Z</time><name>PT6618</name></trkpt>
<trkpt lat="53.235464" lon="-1.810394"><ele>426</ele><time>2019-08-30T11:49:24Z</time><name>PT6619</name></trkpt>
<trkpt lat="53.235463" lon="-1.810392"><ele>426</ele><time>2019-08-30T11:49:25Z</time><name>PT6620</name></trkpt>
<trkpt lat="53.235460" lon="-1.810395"><ele>426</ele><time>2019-08-30T11:49:26Z</time><name>PT6621</name></trkpt>
<trkpt lat="53.235459" lon="-1.810398"><ele>426</ele><time>2019-08-30T11:49:27Z</time><name>PT6622</name></trkpt>
<trkpt lat="53.235455" lon="-1.810405"><ele>425</ele><time>2019-08-30T11:49:28Z</time><name>PT6623</name></trkpt>
<trkpt lat="53.235452" lon="-1.810406"><ele>425</ele><time>2019-08-30T11:49:29Z</time><name>PT6624</name></trkpt>
<trkpt lat="53.235451" lon="-1.810407"><ele>425</ele><time>2019-08-30T11:49:30Z</time><name>PT6625</name></trkpt>
<trkpt lat="53.235450" lon="-1.810408"><ele>425</ele><time>2019-08-30T11:49:31Z</time><name>PT6626</name></trkpt>
<trkpt lat="53.235450" lon="-1.810408"><ele>424</ele><time>2019-08-30T11:49:32Z</time><name>PT6627</name></trkpt>
<trkpt lat="53.235456" lon="-1.810401"><ele>424</ele><time>2019-08-30T11:49:54Z</time><name>PT6628</name></trkpt>
<trkpt lat="53.235462" lon="-1.810395"><ele>424</ele><time>2019-08-30T11:49:55Z</time><name>PT6629</name></trkpt>
<trkpt lat="53.235469" lon="-1.810391"><ele>424</ele><time>2019-08-30T11:49:56Z</time><name>PT6630</name></trkpt>
<trkpt lat="53.235477" lon="-1.810386"><ele>425</ele><time>2019-08-30T11:49:57Z</time><name>PT6631</name></trkpt>
<trkpt lat="53.235482" lon="-1.810380"><ele>425</ele><time>2019-08-30T11:49:58Z</time><name>PT6632</name></trkpt>
<trkpt lat="53.235493" lon="-1.810370"><ele>425</ele><time>2019-08-30T11:49:59Z</time><name>PT6633</name></trkpt>
<trkpt lat="53.235505" lon="-1.810358"><ele>425</ele><time>2019-08-30T11:50:00Z</time><name>PT6634</name></trkpt>
<trkpt lat="53.235516" lon="-1.810350"><ele>425</ele><time>2019-08-30T11:50:01Z</time><name>PT6635</name></trkpt>
<trkpt lat="53.235527" lon="-1.810338"><ele>425</ele><time>2019-08-30T11:50:03Z</time><name>PT6636</name></trkpt>
<trkpt lat="53.235538" lon="-1.810326"><ele>425</ele><time>2019-08-30T11:50:03Z</time><name>PT6637</name></trkpt>
<trkpt lat="53.235549" lon="-1.810315"><ele>425</ele><time>2019-08-30T11:50:04Z</time><name>PT6638</name></trkpt>
<trkpt lat="53.235560" lon="-1.810307"><ele>425</ele><time>2019-08-30T11:50:05Z</time><name>PT6639</name></trkpt>
<trkpt lat="53.235569" lon="-1.810295"><ele>425</ele><time>2019-08-30T11:50:06Z</time><name>PT6640</name></trkpt>
<trkpt lat="53.235577" lon="-1.810284"><ele>425</ele><time>2019-08-30T11:50:07Z</time><name>PT6641</name></trkpt>
<trkpt lat="53.235588" lon="-1.810266"><ele>425</ele><time>2019-08-30T11:50:08Z</time><name>PT6642</name></trkpt>
<trkpt lat="53.235599" lon="-1.810257"><ele>425</ele><time>2019-08-30T11:50:09Z</time><name>PT6643</name></trkpt>
<trkpt lat="53.235611" lon="-1.810251"><ele>425</ele><time>2019-08-30T11:50:10Z</time><name>PT6644</name></trkpt>
<trkpt lat="53.235622" lon="-1.810246"><ele>424</ele><time>2019-08-30T11:50:11Z</time><name>PT6645</name></trkpt>
<trkpt lat="53.235630" lon="-1.810224"><ele>425</ele><time>2019-08-30T11:50:12Z</time><name>PT6646</name></trkpt>
<trkpt lat="53.235639" lon="-1.810214"><ele>425</ele><time>2019-08-30T11:50:13Z</time><name>PT6647</name></trkpt>
<trkpt lat="53.235649" lon="-1.810203"><ele>425</ele><time>2019-08-30T11:50:14Z</time><name>PT6648</name></trkpt>
<trkpt lat="53.235656" lon="-1.810195"><ele>425</ele><time>2019-08-30T11:50:15Z</time><name>PT6649</name></trkpt>
<trkpt lat="53.235667" lon="-1.810183"><ele>425</ele><time>2019-08-30T11:50:16Z</time><name>PT6650</name></trkpt>
<trkpt lat="53.235679" lon="-1.810175"><ele>425</ele><time>2019-08-30T11:50:17Z</time><name>PT6651</name></trkpt>
<trkpt lat="53.235690" lon="-1.810164"><ele>425</ele><time>2019-08-30T11:50:18Z</time><name>PT6652</name></trkpt>
<trkpt lat="53.235702" lon="-1.810159"><ele>424</ele><time>2019-08-30T11:50:19Z</time><name>PT6653</name></trkpt>
<trkpt lat="53.235711" lon="-1.810151"><ele>424</ele><time>2019-08-30T11:50:20Z</time><name>PT6654</name></trkpt>
<trkpt lat="53.235722" lon="-1.810144"><ele>424</ele><time>2019-08-30T11:50:21Z</time><name>PT6655</name></trkpt>
<trkpt lat="53.235731" lon="-1.810134"><ele>424</ele><time>2019-08-30T11:50:22Z</time><name>PT6656</name></trkpt>
<trkpt lat="53.235742" lon="-1.810119"><ele>424</ele><time>2019-08-30T11:50:23Z</time><name>PT6657</name></trkpt>
<trkpt lat="53.235751" lon="-1.810109"><ele>424</ele><time>2019-08-30T11:50:24Z</time><name>PT6658</name></trkpt>
<trkpt lat="53.235761" lon="-1.810100"><ele>424</ele><time>2019-08-30T11:50:25Z</time><name>PT6659</name></trkpt>
<trkpt lat="53.235772" lon="-1.810085"><ele>424</ele><time>2019-08-30T11:50:26Z</time><name>PT6660</name></trkpt>
<trkpt lat="53.235781" lon="-1.810071"><ele>424</ele><time>2019-08-30T11:50:27Z</time><name>PT6661</name></trkpt>
<trkpt lat="53.235791" lon="-1.810056"><ele>424</ele><time>2019-08-30T11:50:28Z</time><name>PT6662</name></trkpt>
<trkpt lat="53.235802" lon="-1.810046"><ele>424</ele><time>2019-08-30T11:50:29Z</time><name>PT6663</name></trkpt>
<trkpt lat="53.235811" lon="-1.810030"><ele>424</ele><time>2019-08-30T11:50:30Z</time><name>PT6664</name></trkpt>
<trkpt lat="53.235815" lon="-1.810020"><ele>424</ele><time>2019-08-30T11:50:31Z</time><name>PT6665</name></trkpt>
<trkpt lat="53.235814" lon="-1.810008"><ele>424</ele><time>2019-08-30T11:50:32Z</time><name>PT6666</name></trkpt>
<trkpt lat="53.235813" lon="-1.810006"><ele>424</ele><time>2019-08-30T11:50:33Z</time><name>PT6667</name></trkpt>
<trkpt lat="53.235812" lon="-1.810005"><ele>424</ele><time>2019-08-30T11:50:34Z</time><name>PT6668</name></trkpt>
<trkpt lat="53.235810" lon="-1.810006"><ele>424</ele><time>2019-08-30T11:50:45Z</time><name>PT6669</name></trkpt>
<trkpt lat="53.235809" lon="-1.810005"><ele>424</ele><time>2019-08-30T11:50:46Z</time><name>PT6670</name></trkpt>
<trkpt lat="53.235808" lon="-1.810007"><ele>424</ele><time>2019-08-30T11:50:47Z</time><name>PT6671</name></trkpt>
<trkpt lat="53.235810" lon="-1.810008"><ele>424</ele><time>2019-08-30T11:50:59Z</time><name>PT6672</name></trkpt>
<trkpt lat="53.235810" lon="-1.810010"><ele>424</ele><time>2019-08-30T11:51:00Z</time><name>PT6673</name></trkpt>
<trkpt lat="53.235811" lon="-1.810013"><ele>424</ele><time>2019-08-30T11:51:01Z</time><name>PT6674</name></trkpt>
<trkpt lat="53.235813" lon="-1.810008"><ele>424</ele><time>2019-08-30T11:51:03Z</time><name>PT6675</name></trkpt>
<trkpt lat="53.235820" lon="-1.810001"><ele>424</ele><time>2019-08-30T11:51:04Z</time><name>PT6676</name></trkpt>
<trkpt lat="53.235824" lon="-1.809995"><ele>424</ele><time>2019-08-30T11:51:05Z</time><name>PT6677</name></trkpt>
<trkpt lat="53.235830" lon="-1.809990"><ele>424</ele><time>2019-08-30T11:51:06Z</time><name>PT6678</name></trkpt>
<trkpt lat="53.235835" lon="-1.809987"><ele>424</ele><time>2019-08-30T11:51:07Z</time><name>PT6679</name></trkpt>
<trkpt lat="53.235837" lon="-1.809977"><ele>424</ele><time>2019-08-30T11:51:08Z</time><name>PT6680</name></trkpt>
<trkpt lat="53.235841" lon="-1.809975"><ele>424</ele><time>2019-08-30T11:51:09Z</time><name>PT6681</name></trkpt>
<trkpt lat="53.235846" lon="-1.809975"><ele>424</ele><time>2019-08-30T11:51:10Z</time><name>PT6682</name></trkpt>
<trkpt lat="53.235850" lon="-1.809966"><ele>424</ele><time>2019-08-30T11:51:11Z</time><name>PT6683</name></trkpt>
<trkpt lat="53.235858" lon="-1.809961"><ele>424</ele><time>2019-08-30T11:51:12Z</time><name>PT6684</name></trkpt>
<trkpt lat="53.235865" lon="-1.809950"><ele>424</ele><time>2019-08-30T11:51:13Z</time><name>PT6685</name></trkpt>
<trkpt lat="53.235874" lon="-1.809937"><ele>424</ele><time>2019-08-30T11:51:14Z</time><name>PT6686</name></trkpt>
<trkpt lat="53.235883" lon="-1.809925"><ele>425</ele><time>2019-08-30T11:51:15Z</time><name>PT6687</name></trkpt>
<trkpt lat="53.235889" lon="-1.809914"><ele>425</ele><time>2019-08-30T11:51:16Z</time><name>PT6688</name></trkpt>
<trkpt lat="53.235897" lon="-1.809904"><ele>425</ele><time>2019-08-30T11:51:17Z</time><name>PT6689</name></trkpt>
<trkpt lat="53.235904" lon="-1.809893"><ele>426</ele><time>2019-08-30T11:51:18Z</time><name>PT6690</name></trkpt>
<trkpt lat="53.235911" lon="-1.809885"><ele>426</ele><time>2019-08-30T11:51:19Z</time><name>PT6691</name></trkpt>
<trkpt lat="53.235919" lon="-1.809876"><ele>426</ele><time>2019-08-30T11:51:20Z</time><name>PT6692</name></trkpt>
<trkpt lat="53.235927" lon="-1.809865"><ele>426</ele><time>2019-08-30T11:51:21Z</time><name>PT6693</name></trkpt>
<trkpt lat="53.235937" lon="-1.809854"><ele>426</ele><time>2019-08-30T11:51:22Z</time><name>PT6694</name></trkpt>
<trkpt lat="53.235948" lon="-1.809841"><ele>425</ele><time>2019-08-30T11:51:23Z</time><name>PT6695</name></trkpt>
<trkpt lat="53.235957" lon="-1.809828"><ele>426</ele><time>2019-08-30T11:51:24Z</time><name>PT6696</name></trkpt>
<trkpt lat="53.235967" lon="-1.809820"><ele>426</ele><time>2019-08-30T11:51:25Z</time><name>PT6697</name></trkpt>
<trkpt lat="53.235977" lon="-1.809812"><ele>426</ele><time>2019-08-30T11:51:26Z</time><name>PT6698</name></trkpt>
<trkpt lat="53.235985" lon="-1.809803"><ele>426</ele><time>2019-08-30T11:51:27Z</time><name>PT6699</name></trkpt>
<trkpt lat="53.235996" lon="-1.809791"><ele>425</ele><time>2019-08-30T11:51:28Z</time><name>PT6700</name></trkpt>
<trkpt lat="53.236006" lon="-1.809780"><ele>425</ele><time>2019-08-30T11:51:29Z</time><name>PT6701</name></trkpt>
<trkpt lat="53.236016" lon="-1.809769"><ele>425</ele><time>2019-08-30T11:51:30Z</time><name>PT6702</name></trkpt>
<trkpt lat="53.236026" lon="-1.809757"><ele>425</ele><time>2019-08-30T11:51:31Z</time><name>PT6703</name></trkpt>
<trkpt lat="53.236034" lon="-1.809747"><ele>425</ele><time>2019-08-30T11:51:32Z</time><name>PT6704</name></trkpt>
<trkpt lat="53.236043" lon="-1.809737"><ele>425</ele><time>2019-08-30T11:51:33Z</time><name>PT6705</name></trkpt>
<trkpt lat="53.236053" lon="-1.809726"><ele>424</ele><time>2019-08-30T11:51:34Z</time><name>PT6706</name></trkpt>
<trkpt lat="53.236062" lon="-1.809717"><ele>424</ele><time>2019-08-30T11:51:35Z</time><name>PT6707</name></trkpt>
<trkpt lat="53.236072" lon="-1.809707"><ele>424</ele><time>2019-08-30T11:51:36Z</time><name>PT6708</name></trkpt>
<trkpt lat="53.236081" lon="-1.809694"><ele>424</ele><time>2019-08-30T11:51:37Z</time><name>PT6709</name></trkpt>
<trkpt lat="53.236090" lon="-1.809684"><ele>423</ele><time>2019-08-30T11:51:38Z</time><name>PT6710</name></trkpt>
<trkpt lat="53.236098" lon="-1.809670"><ele>423</ele><time>2019-08-30T11:51:39Z</time><name>PT6711</name></trkpt>
<trkpt lat="53.236111" lon="-1.809645"><ele>423</ele><time>2019-08-30T11:51:40Z</time><name>PT6712</name></trkpt>
<trkpt lat="53.236120" lon="-1.809631"><ele>424</ele><time>2019-08-30T11:51:41Z</time><name>PT6713</name></trkpt>
<trkpt lat="53.236132" lon="-1.809616"><ele>424</ele><time>2019-08-30T11:51:42Z</time><name>PT6714</name></trkpt>
<trkpt lat="53.236142" lon="-1.809602"><ele>424</ele><time>2019-08-30T11:51:43Z</time><name>PT6715</name></trkpt>
<trkpt lat="53.236154" lon="-1.809587"><ele>424</ele><time>2019-08-30T11:51:44Z</time><name>PT6716</name></trkpt>
<trkpt lat="53.236163" lon="-1.809575"><ele>424</ele><time>2019-08-30T11:51:45Z</time><name>PT6717</name></trkpt>
<trkpt lat="53.236172" lon="-1.809562"><ele>423</ele><time>2019-08-30T11:51:46Z</time><name>PT6718</name></trkpt>
<trkpt lat="53.236180" lon="-1.809549"><ele>423</ele><time>2019-08-30T11:51:47Z</time><name>PT6719</name></trkpt>
<trkpt lat="53.236189" lon="-1.809534"><ele>423</ele><time>2019-08-30T11:51:48Z</time><name>PT6720</name></trkpt>
<trkpt lat="53.236198" lon="-1.809520"><ele>423</ele><time>2019-08-30T11:51:49Z</time><name>PT6721</name></trkpt>
<trkpt lat="53.236205" lon="-1.809507"><ele>423</ele><time>2019-08-30T11:51:50Z</time><name>PT6722</name></trkpt>
<trkpt lat="53.236210" lon="-1.809495"><ele>423</ele><time>2019-08-30T11:51:51Z</time><name>PT6723</name></trkpt>
<trkpt lat="53.236217" lon="-1.809480"><ele>423</ele><time>2019-08-30T11:51:52Z</time><name>PT6724</name></trkpt>
<trkpt lat="53.236227" lon="-1.809466"><ele>423</ele><time>2019-08-30T11:51:53Z</time><name>PT6725</name></trkpt>
<trkpt lat="53.236236" lon="-1.809453"><ele>423</ele><time>2019-08-30T11:51:54Z</time><name>PT6726</name></trkpt>
<trkpt lat="53.236244" lon="-1.809437"><ele>423</ele><time>2019-08-30T11:51:55Z</time><name>PT6727</name></trkpt>
<trkpt lat="53.236250" lon="-1.809421"><ele>422</ele><time>2019-08-30T11:51:56Z</time><name>PT6728</name></trkpt>
<trkpt lat="53.236257" lon="-1.809406"><ele>422</ele><time>2019-08-30T11:51:57Z</time><name>PT6729</name></trkpt>
<trkpt lat="53.236264" lon="-1.809391"><ele>422</ele><time>2019-08-30T11:51:58Z</time><name>PT6730</name></trkpt>
<trkpt lat="53.236270" lon="-1.809374"><ele>422</ele><time>2019-08-30T11:51:59Z</time><name>PT6731</name></trkpt>
<trkpt lat="53.236278" lon="-1.809355"><ele>422</ele><time>2019-08-30T11:52:00Z</time><name>PT6732</name></trkpt>
<trkpt lat="53.236285" lon="-1.809337"><ele>422</ele><time>2019-08-30T11:52:01Z</time><name>PT6733</name></trkpt>
<trkpt lat="53.236287" lon="-1.809320"><ele>421</ele><time>2019-08-30T11:52:02Z</time><name>PT6734</name></trkpt>
<trkpt lat="53.236291" lon="-1.809302"><ele>421</ele><time>2019-08-30T11:52:03Z</time><name>PT6735</name></trkpt>
<trkpt lat="53.236295" lon="-1.809286"><ele>421</ele><time>2019-08-30T11:52:04Z</time><name>PT6736</name></trkpt>
<trkpt lat="53.236301" lon="-1.809269"><ele>421</ele><time>2019-08-30T11:52:05Z</time><name>PT6737</name></trkpt>
<trkpt lat="53.236306" lon="-1.809253"><ele>421</ele><time>2019-08-30T11:52:06Z</time><name>PT6738</name></trkpt>
<trkpt lat="53.236309" lon="-1.809238"><ele>421</ele><time>2019-08-30T11:52:07Z</time><name>PT6739</name></trkpt>
<trkpt lat="53.236309" lon="-1.809220"><ele>421</ele><time>2019-08-30T11:52:08Z</time><name>PT6740</name></trkpt>
<trkpt lat="53.236305" lon="-1.809206"><ele>421</ele><time>2019-08-30T11:52:09Z</time><name>PT6741</name></trkpt>
<trkpt lat="53.236300" lon="-1.809193"><ele>420</ele><time>2019-08-30T11:52:10Z</time><name>PT6742</name></trkpt>
<trkpt lat="53.236296" lon="-1.809181"><ele>420</ele><time>2019-08-30T11:52:11Z</time><name>PT6743</name></trkpt>
<trkpt lat="53.236290" lon="-1.809171"><ele>419</ele><time>2019-08-30T11:52:12Z</time><name>PT6744</name></trkpt>
<trkpt lat="53.236282" lon="-1.809157"><ele>419</ele><time>2019-08-30T11:52:13Z</time><name>PT6745</name></trkpt>
<trkpt lat="53.236275" lon="-1.809143"><ele>419</ele><time>2019-08-30T11:52:14Z</time><name>PT6746</name></trkpt>
<trkpt lat="53.236264" lon="-1.809126"><ele>418</ele><time>2019-08-30T11:52:15Z</time><name>PT6747</name></trkpt>
<trkpt lat="53.236257" lon="-1.809110"><ele>418</ele><time>2019-08-30T11:52:16Z</time><name>PT6748</name></trkpt>
<trkpt lat="53.236251" lon="-1.809095"><ele>419</ele><time>2019-08-30T11:52:17Z</time><name>PT6749</name></trkpt>
<trkpt lat="53.236246" lon="-1.809081"><ele>418</ele><time>2019-08-30T11:52:18Z</time><name>PT6750</name></trkpt>
<trkpt lat="53.236242" lon="-1.809065"><ele>418</ele><time>2019-08-30T11:52:19Z</time><name>PT6751</name></trkpt>
<trkpt lat="53.236240" lon="-1.809060"><ele>418</ele><time>2019-08-30T11:52:20Z</time><name>PT6752</name></trkpt>
<trkpt lat="53.236239" lon="-1.809056"><ele>418</ele><time>2019-08-30T11:52:21Z</time><name>PT6753</name></trkpt>
<trkpt lat="53.236240" lon="-1.809047"><ele>417</ele><time>2019-08-30T11:52:22Z</time><name>PT6754</name></trkpt>
<trkpt lat="53.236238" lon="-1.809044"><ele>417</ele><time>2019-08-30T11:52:23Z</time><name>PT6755</name></trkpt>
<trkpt lat="53.236236" lon="-1.809040"><ele>417</ele><time>2019-08-30T11:52:24Z</time><name>PT6756</name></trkpt>
<trkpt lat="53.236232" lon="-1.809026"><ele>417</ele><time>2019-08-30T11:52:25Z</time><name>PT6757</name></trkpt>
<trkpt lat="53.236230" lon="-1.809014"><ele>416</ele><time>2019-08-30T11:52:26Z</time><name>PT6758</name></trkpt>
<trkpt lat="53.236235" lon="-1.809004"><ele>416</ele><time>2019-08-30T11:52:27Z</time><name>PT6759</name></trkpt>
<trkpt lat="53.236238" lon="-1.808990"><ele>416</ele><time>2019-08-30T11:52:28Z</time><name>PT6760</name></trkpt>
<trkpt lat="53.236242" lon="-1.808976"><ele>416</ele><time>2019-08-30T11:52:29Z</time><name>PT6761</name></trkpt>
<trkpt lat="53.236240" lon="-1.808958"><ele>417</ele><time>2019-08-30T11:52:30Z</time><name>PT6762</name></trkpt>
<trkpt lat="53.236236" lon="-1.808934"><ele>418</ele><time>2019-08-30T11:52:31Z</time><name>PT6763</name></trkpt>
<trkpt lat="53.236237" lon="-1.808921"><ele>417</ele><time>2019-08-30T11:52:32Z</time><name>PT6764</name></trkpt>
<trkpt lat="53.236238" lon="-1.808909"><ele>417</ele><time>2019-08-30T11:52:33Z</time><name>PT6765</name></trkpt>
<trkpt lat="53.236240" lon="-1.808899"><ele>417</ele><time>2019-08-30T11:52:34Z</time><name>PT6766</name></trkpt>
<trkpt lat="53.236245" lon="-1.808887"><ele>417</ele><time>2019-08-30T11:52:35Z</time><name>PT6767</name></trkpt>
<trkpt lat="53.236252" lon="-1.808874"><ele>417</ele><time>2019-08-30T11:52:36Z</time><name>PT6768</name></trkpt>
<trkpt lat="53.236259" lon="-1.808862"><ele>417</ele><time>2019-08-30T11:52:37Z</time><name>PT6769</name></trkpt>
<trkpt lat="53.236267" lon="-1.808849"><ele>416</ele><time>2019-08-30T11:52:38Z</time><name>PT6770</name></trkpt>
<trkpt lat="53.236274" lon="-1.808832"><ele>416</ele><time>2019-08-30T11:52:39Z</time><name>PT6771</name></trkpt>
<trkpt lat="53.236280" lon="-1.808820"><ele>416</ele><time>2019-08-30T11:52:40Z</time><name>PT6772</name></trkpt>
<trkpt lat="53.236287" lon="-1.808810"><ele>415</ele><time>2019-08-30T11:52:41Z</time><name>PT6773</name></trkpt>
<trkpt lat="53.236294" lon="-1.808798"><ele>415</ele><time>2019-08-30T11:52:42Z</time><name>PT6774</name></trkpt>
<trkpt lat="53.236301" lon="-1.808783"><ele>415</ele><time>2019-08-30T11:52:43Z</time><name>PT6775</name></trkpt>
<trkpt lat="53.236311" lon="-1.808768"><ele>414</ele><time>2019-08-30T11:52:44Z</time><name>PT6776</name></trkpt>
<trkpt lat="53.236320" lon="-1.808756"><ele>414</ele><time>2019-08-30T11:52:45Z</time><name>PT6777</name></trkpt>
<trkpt lat="53.236329" lon="-1.808744"><ele>414</ele><time>2019-08-30T11:52:46Z</time><name>PT6778</name></trkpt>
<trkpt lat="53.236342" lon="-1.808728"><ele>413</ele><time>2019-08-30T11:52:47Z</time><name>PT6779</name></trkpt>
<trkpt lat="53.236353" lon="-1.808718"><ele>413</ele><time>2019-08-30T11:52:48Z</time><name>PT6780</name></trkpt>
<trkpt lat="53.236363" lon="-1.808707"><ele>414</ele><time>2019-08-30T11:52:49Z</time><name>PT6781</name></trkpt>
<trkpt lat="53.236372" lon="-1.808698"><ele>413</ele><time>2019-08-30T11:52:50Z</time><name>PT6782</name></trkpt>
<trkpt lat="53.236382" lon="-1.808694"><ele>412</ele><time>2019-08-30T11:52:51Z</time><name>PT6783</name></trkpt>
<trkpt lat="53.236394" lon="-1.808689"><ele>412</ele><time>2019-08-30T11:52:52Z</time><name>PT6784</name></trkpt>
<trkpt lat="53.236408" lon="-1.808688"><ele>413</ele><time>2019-08-30T11:52:53Z</time><name>PT6785</name></trkpt>
<trkpt lat="53.236423" lon="-1.808688"><ele>413</ele><time>2019-08-30T11:52:54Z</time><name>PT6786</name></trkpt>
<trkpt lat="53.236435" lon="-1.808686"><ele>413</ele><time>2019-08-30T11:52:55Z</time><name>PT6787</name></trkpt>
<trkpt lat="53.236446" lon="-1.808683"><ele>413</ele><time>2019-08-30T11:52:56Z</time><name>PT6788</name></trkpt>
<trkpt lat="53.236460" lon="-1.808683"><ele>413</ele><time>2019-08-30T11:52:57Z</time><name>PT6789</name></trkpt>
<trkpt lat="53.236472" lon="-1.808683"><ele>413</ele><time>2019-08-30T11:52:58Z</time><name>PT6790</name></trkpt>
<trkpt lat="53.236484" lon="-1.808685"><ele>413</ele><time>2019-08-30T11:52:59Z</time><name>PT6791</name></trkpt>
<trkpt lat="53.236496" lon="-1.808690"><ele>413</ele><time>2019-08-30T11:53:00Z</time><name>PT6792</name></trkpt>
<trkpt lat="53.236508" lon="-1.808694"><ele>413</ele><time>2019-08-30T11:53:01Z</time><name>PT6793</name></trkpt>
<trkpt lat="53.236519" lon="-1.808695"><ele>413</ele><time>2019-08-30T11:53:02Z</time><name>PT6794</name></trkpt>
<trkpt lat="53.236531" lon="-1.808691"><ele>413</ele><time>2019-08-30T11:53:03Z</time><name>PT6795</name></trkpt>
<trkpt lat="53.236543" lon="-1.808691"><ele>413</ele><time>2019-08-30T11:53:04Z</time><name>PT6796</name></trkpt>
<trkpt lat="53.236554" lon="-1.808693"><ele>412</ele><time>2019-08-30T11:53:05Z</time><name>PT6797</name></trkpt>
<trkpt lat="53.236566" lon="-1.808696"><ele>412</ele><time>2019-08-30T11:53:06Z</time><name>PT6798</name></trkpt>
<trkpt lat="53.236579" lon="-1.808700"><ele>412</ele><time>2019-08-30T11:53:07Z</time><name>PT6799</name></trkpt>
<trkpt lat="53.236591" lon="-1.808705"><ele>412</ele><time>2019-08-30T11:53:08Z</time><name>PT6800</name></trkpt>
<trkpt lat="53.236602" lon="-1.808707"><ele>412</ele><time>2019-08-30T11:53:09Z</time><name>PT6801</name></trkpt>
<trkpt lat="53.236616" lon="-1.808707"><ele>411</ele><time>2019-08-30T11:53:10Z</time><name>PT6802</name></trkpt>
<trkpt lat="53.236630" lon="-1.808710"><ele>411</ele><time>2019-08-30T11:53:11Z</time><name>PT6803</name></trkpt>
<trkpt lat="53.236641" lon="-1.808713"><ele>411</ele><time>2019-08-30T11:53:12Z</time><name>PT6804</name></trkpt>
<trkpt lat="53.236648" lon="-1.808720"><ele>411</ele><time>2019-08-30T11:53:13Z</time><name>PT6805</name></trkpt>
<trkpt lat="53.236659" lon="-1.808720"><ele>411</ele><time>2019-08-30T11:53:14Z</time><name>PT6806</name></trkpt>
<trkpt lat="53.236675" lon="-1.808719"><ele>411</ele><time>2019-08-30T11:53:15Z</time><name>PT6807</name></trkpt>
<trkpt lat="53.236686" lon="-1.808723"><ele>411</ele><time>2019-08-30T11:53:16Z</time><name>PT6808</name></trkpt>
<trkpt lat="53.236702" lon="-1.808727"><ele>411</ele><time>2019-08-30T11:53:17Z</time><name>PT6809</name></trkpt>
<trkpt lat="53.236717" lon="-1.808727"><ele>411</ele><time>2019-08-30T11:53:18Z</time><name>PT6810</name></trkpt>
<trkpt lat="53.236730" lon="-1.808730"><ele>411</ele><time>2019-08-30T11:53:19Z</time><name>PT6811</name></trkpt>
<trkpt lat="53.236742" lon="-1.808734"><ele>411</ele><time>2019-08-30T11:53:20Z</time><name>PT6812</name></trkpt>
<trkpt lat="53.236757" lon="-1.808738"><ele>411</ele><time>2019-08-30T11:53:21Z</time><name>PT6813</name></trkpt>
<trkpt lat="53.236771" lon="-1.808745"><ele>411</ele><time>2019-08-30T11:53:22Z</time><name>PT6814</name></trkpt>
<trkpt lat="53.236784" lon="-1.808751"><ele>411</ele><time>2019-08-30T11:53:23Z</time><name>PT6815</name></trkpt>
<trkpt lat="53.236796" lon="-1.808757"><ele>411</ele><time>2019-08-30T11:53:24Z</time><name>PT6816</name></trkpt>
<trkpt lat="53.236807" lon="-1.808764"><ele>411</ele><time>2019-08-30T11:53:25Z</time><name>PT6817</name></trkpt>
<trkpt lat="53.236817" lon="-1.808773"><ele>411</ele><time>2019-08-30T11:53:26Z</time><name>PT6818</name></trkpt>
<trkpt lat="53.236829" lon="-1.808782"><ele>411</ele><time>2019-08-30T11:53:27Z</time><name>PT6819</name></trkpt>
<trkpt lat="53.236842" lon="-1.808792"><ele>411</ele><time>2019-08-30T11:53:28Z</time><name>PT6820</name></trkpt>
<trkpt lat="53.236852" lon="-1.808800"><ele>411</ele><time>2019-08-30T11:53:29Z</time><name>PT6821</name></trkpt>
<trkpt lat="53.236861" lon="-1.808809"><ele>411</ele><time>2019-08-30T11:53:30Z</time><name>PT6822</name></trkpt>
<trkpt lat="53.236870" lon="-1.808817"><ele>411</ele><time>2019-08-30T11:53:31Z</time><name>PT6823</name></trkpt>
<trkpt lat="53.236874" lon="-1.808824"><ele>411</ele><time>2019-08-30T11:53:32Z</time><name>PT6824</name></trkpt>
<trkpt lat="53.236876" lon="-1.808826"><ele>411</ele><time>2019-08-30T11:53:33Z</time><name>PT6825</name></trkpt>
<trkpt lat="53.236876" lon="-1.808826"><ele>411</ele><time>2019-08-30T11:53:34Z</time><name>PT6826</name></trkpt>
<trkpt lat="53.236877" lon="-1.808827"><ele>411</ele><time>2019-08-30T11:53:35Z</time><name>PT6827</name></trkpt>
<trkpt lat="53.236881" lon="-1.808834"><ele>411</ele><time>2019-08-30T11:53:41Z</time><name>PT6828</name></trkpt>
<trkpt lat="53.236893" lon="-1.808843"><ele>411</ele><time>2019-08-30T11:53:42Z</time><name>PT6829</name></trkpt>
<trkpt lat="53.236904" lon="-1.808854"><ele>411</ele><time>2019-08-30T11:53:43Z</time><name>PT6830</name></trkpt>
<trkpt lat="53.236916" lon="-1.808867"><ele>411</ele><time>2019-08-30T11:53:44Z</time><name>PT6831</name></trkpt>
<trkpt lat="53.236928" lon="-1.808881"><ele>410</ele><time>2019-08-30T11:53:45Z</time><name>PT6832</name></trkpt>
<trkpt lat="53.236940" lon="-1.808894"><ele>410</ele><time>2019-08-30T11:53:46Z</time><name>PT6833</name></trkpt>
<trkpt lat="53.236952" lon="-1.808908"><ele>410</ele><time>2019-08-30T11:53:47Z</time><name>PT6834</name></trkpt>
<trkpt lat="53.236961" lon="-1.808921"><ele>410</ele><time>2019-08-30T11:53:48Z</time><name>PT6835</name></trkpt>
<trkpt lat="53.236969" lon="-1.808932"><ele>410</ele><time>2019-08-30T11:53:49Z</time><name>PT6836</name></trkpt>
<trkpt lat="53.236980" lon="-1.808941"><ele>410</ele><time>2019-08-30T11:53:50Z</time><name>PT6837</name></trkpt>
<trkpt lat="53.236992" lon="-1.808950"><ele>410</ele><time>2019-08-30T11:53:51Z</time><name>PT6838</name></trkpt>
<trkpt lat="53.237003" lon="-1.808961"><ele>410</ele><time>2019-08-30T11:53:52Z</time><name>PT6839</name></trkpt>
<trkpt lat="53.237013" lon="-1.808974"><ele>410</ele><time>2019-08-30T11:53:53Z</time><name>PT6840</name></trkpt>
<trkpt lat="53.237024" lon="-1.808986"><ele>410</ele><time>2019-08-30T11:53:54Z</time><name>PT6841</name></trkpt>
<trkpt lat="53.237033" lon="-1.808999"><ele>410</ele><time>2019-08-30T11:53:55Z</time><name>PT6842</name></trkpt>
<trkpt lat="53.237043" lon="-1.809012"><ele>410</ele><time>2019-08-30T11:53:56Z</time><name>PT6843</name></trkpt>
<trkpt lat="53.237053" lon="-1.809023"><ele>410</ele><time>2019-08-30T11:53:57Z</time><name>PT6844</name></trkpt>
<trkpt lat="53.237063" lon="-1.809036"><ele>409</ele><time>2019-08-30T11:53:58Z</time><name>PT6845</name></trkpt>
<trkpt lat="53.237073" lon="-1.809046"><ele>409</ele><time>2019-08-30T11:53:59Z</time><name>PT6846</name></trkpt>
<trkpt lat="53.237082" lon="-1.809052"><ele>409</ele><time>2019-08-30T11:54:00Z</time><name>PT6847</name></trkpt>
<trkpt lat="53.237088" lon="-1.809057"><ele>409</ele><time>2019-08-30T11:54:01Z</time><name>PT6848</name></trkpt>
<trkpt lat="53.237095" lon="-1.809062"><ele>409</ele><time>2019-08-30T11:54:02Z</time><name>PT6849</name></trkpt>
<trkpt lat="53.237106" lon="-1.809064"><ele>408</ele><time>2019-08-30T11:54:03Z</time><name>PT6850</name></trkpt>
<trkpt lat="53.237116" lon="-1.809062"><ele>408</ele><time>2019-08-30T11:54:04Z</time><name>PT6851</name></trkpt>
<trkpt lat="53.237127" lon="-1.809061"><ele>408</ele><time>2019-08-30T11:54:05Z</time><name>PT6852</name></trkpt>
<trkpt lat="53.237136" lon="-1.809052"><ele>408</ele><time>2019-08-30T11:54:06Z</time><name>PT6853</name></trkpt>
<trkpt lat="53.237145" lon="-1.809036"><ele>408</ele><time>2019-08-30T11:54:07Z</time><name>PT6854</name></trkpt>
<trkpt lat="53.237148" lon="-1.809021"><ele>407</ele><time>2019-08-30T11:54:08Z</time><name>PT6855</name></trkpt>
<trkpt lat="53.237149" lon="-1.809015"><ele>406</ele><time>2019-08-30T11:54:09Z</time><name>PT6856</name></trkpt>
<trkpt lat="53.237148" lon="-1.808999"><ele>406</ele><time>2019-08-30T11:54:10Z</time><name>PT6857</name></trkpt>
<trkpt lat="53.237144" lon="-1.808979"><ele>406</ele><time>2019-08-30T11:54:11Z</time><name>PT6858</name></trkpt>
<trkpt lat="53.237142" lon="-1.808963"><ele>406</ele><time>2019-08-30T11:54:12Z</time><name>PT6859</name></trkpt>
<trkpt lat="53.237140" lon="-1.808945"><ele>405</ele><time>2019-08-30T11:54:13Z</time><name>PT6860</name></trkpt>
<trkpt lat="53.237140" lon="-1.808935"><ele>405</ele><time>2019-08-30T11:54:14Z</time><name>PT6861</name></trkpt>
<trkpt lat="53.237141" lon="-1.808923"><ele>404</ele><time>2019-08-30T11:54:15Z</time><name>PT6862</name></trkpt>
<trkpt lat="53.237137" lon="-1.808911"><ele>404</ele><time>2019-08-30T11:54:16Z</time><name>PT6863</name></trkpt>
<trkpt lat="53.237134" lon="-1.808897"><ele>404</ele><time>2019-08-30T11:54:17Z</time><name>PT6864</name></trkpt>
<trkpt lat="53.237131" lon="-1.808887"><ele>404</ele><time>2019-08-30T11:54:19Z</time><name>PT6865</name></trkpt>
<trkpt lat="53.237129" lon="-1.808865"><ele>404</ele><time>2019-08-30T11:54:19Z</time><name>PT6866</name></trkpt>
<trkpt lat="53.237124" lon="-1.808845"><ele>404</ele><time>2019-08-30T11:54:20Z</time><name>PT6867</name></trkpt>
<trkpt lat="53.237120" lon="-1.808822"><ele>404</ele><time>2019-08-30T11:54:21Z</time><name>PT6868</name></trkpt>
<trkpt lat="53.237115" lon="-1.808801"><ele>404</ele><time>2019-08-30T11:54:22Z</time><name>PT6869</name></trkpt>
<trkpt lat="53.237111" lon="-1.808780"><ele>404</ele><time>2019-08-30T11:54:23Z</time><name>PT6870</name></trkpt>
<trkpt lat="53.237105" lon="-1.808762"><ele>404</ele><time>2019-08-30T11:54:24Z</time><name>PT6871</name></trkpt>
<trkpt lat="53.237100" lon="-1.808743"><ele>404</ele><time>2019-08-30T11:54:25Z</time><name>PT6872</name></trkpt>
<trkpt lat="53.237095" lon="-1.808728"><ele>404</ele><time>2019-08-30T11:54:26Z</time><name>PT6873</name></trkpt>
<trkpt lat="53.237089" lon="-1.808711"><ele>403</ele><time>2019-08-30T11:54:27Z</time><name>PT6874</name></trkpt>
<trkpt lat="53.237084" lon="-1.808695"><ele>403</ele><time>2019-08-30T11:54:28Z</time><name>PT6875</name></trkpt>
<trkpt lat="53.237079" lon="-1.808677"><ele>403</ele><time>2019-08-30T11:54:29Z</time><name>PT6876</name></trkpt>
<trkpt lat="53.237075" lon="-1.808660"><ele>403</ele><time>2019-08-30T11:54:30Z</time><name>PT6877</name></trkpt>
<trkpt lat="53.237071" lon="-1.808644"><ele>403</ele><time>2019-08-30T11:54:31Z</time><name>PT6878</name></trkpt>
<trkpt lat="53.237066" lon="-1.808626"><ele>403</ele><time>2019-08-30T11:54:32Z</time><name>PT6879</name></trkpt>
<trkpt lat="53.237063" lon="-1.808614"><ele>402</ele><time>2019-08-30T11:54:34Z</time><name>PT6880</name></trkpt>
<trkpt lat="53.237059" lon="-1.808599"><ele>402</ele><time>2019-08-30T11:54:34Z</time><name>PT6881</name></trkpt>
<trkpt lat="53.237055" lon="-1.808584"><ele>402</ele><time>2019-08-30T11:54:35Z</time><name>PT6882</name></trkpt>
<trkpt lat="53.237050" lon="-1.808571"><ele>402</ele><time>2019-08-30T11:54:36Z</time><name>PT6883</name></trkpt>
<trkpt lat="53.237045" lon="-1.808556"><ele>402</ele><time>2019-08-30T11:54:37Z</time><name>PT6884</name></trkpt>
<trkpt lat="53.237039" lon="-1.808543"><ele>401</ele><time>2019-08-30T11:54:38Z</time><name>PT6885</name></trkpt>
<trkpt lat="53.237033" lon="-1.808529"><ele>401</ele><time>2019-08-30T11:54:39Z</time><name>PT6886</name></trkpt>
<trkpt lat="53.237026" lon="-1.808515"><ele>401</ele><time>2019-08-30T11:54:40Z</time><name>PT6887</name></trkpt>
<trkpt lat="53.237020" lon="-1.808500"><ele>401</ele><time>2019-08-30T11:54:41Z</time><name>PT6888</name></trkpt>
<trkpt lat="53.237017" lon="-1.808485"><ele>400</ele><time>2019-08-30T11:54:42Z</time><name>PT6889</name></trkpt>
<trkpt lat="53.237014" lon="-1.808470"><ele>400</ele><time>2019-08-30T11:54:43Z</time><name>PT6890</name></trkpt>
<trkpt lat="53.237011" lon="-1.808460"><ele>399</ele><time>2019-08-30T11:54:44Z</time><name>PT6891</name></trkpt>
<trkpt lat="53.237008" lon="-1.808449"><ele>399</ele><time>2019-08-30T11:54:45Z</time><name>PT6892</name></trkpt>
<trkpt lat="53.237006" lon="-1.808440"><ele>398</ele><time>2019-08-30T11:54:46Z</time><name>PT6893</name></trkpt>
<trkpt lat="53.237005" lon="-1.808433"><ele>397</ele><time>2019-08-30T11:54:47Z</time><name>PT6894</name></trkpt>
<trkpt lat="53.236998" lon="-1.808424"><ele>397</ele><time>2019-08-30T11:54:48Z</time><name>PT6895</name></trkpt>
<trkpt lat="53.236992" lon="-1.808420"><ele>396</ele><time>2019-08-30T11:54:49Z</time><name>PT6896</name></trkpt>
<trkpt lat="53.236985" lon="-1.808413"><ele>395</ele><time>2019-08-30T11:54:50Z</time><name>PT6897</name></trkpt>
<trkpt lat="53.236979" lon="-1.808402"><ele>395</ele><time>2019-08-30T11:54:51Z</time><name>PT6898</name></trkpt>
<trkpt lat="53.236975" lon="-1.808389"><ele>395</ele><time>2019-08-30T11:54:52Z</time><name>PT6899</name></trkpt>
<trkpt lat="53.236966" lon="-1.808374"><ele>396</ele><time>2019-08-30T11:54:53Z</time><name>PT6900</name></trkpt>
<trkpt lat="53.236960" lon="-1.808365"><ele>396</ele><time>2019-08-30T11:54:55Z</time><name>PT6901</name></trkpt>
<trkpt lat="53.236956" lon="-1.808358"><ele>396</ele><time>2019-08-30T11:54:55Z</time><name>PT6902</name></trkpt>
<trkpt lat="53.236944" lon="-1.808337"><ele>396</ele><time>2019-08-30T11:54:56Z</time><name>PT6903</name></trkpt>
<trkpt lat="53.236938" lon="-1.808318"><ele>396</ele><time>2019-08-30T11:54:57Z</time><name>PT6904</name></trkpt>
<trkpt lat="53.236933" lon="-1.808305"><ele>396</ele><time>2019-08-30T11:54:58Z</time><name>PT6905</name></trkpt>
<trkpt lat="53.236929" lon="-1.808295"><ele>395</ele><time>2019-08-30T11:54:59Z</time><name>PT6906</name></trkpt>
<trkpt lat="53.236932" lon="-1.808276"><ele>395</ele><time>2019-08-30T11:55:00Z</time><name>PT6907</name></trkpt>
<trkpt lat="53.236930" lon="-1.808256"><ele>396</ele><time>2019-08-30T11:55:01Z</time><name>PT6908</name></trkpt>
<trkpt lat="53.236924" lon="-1.808244"><ele>395</ele><time>2019-08-30T11:55:02Z</time><name>PT6909</name></trkpt>
<trkpt lat="53.236918" lon="-1.808229"><ele>396</ele><time>2019-08-30T11:55:03Z</time><name>PT6910</name></trkpt>
<trkpt lat="53.236906" lon="-1.808218"><ele>396</ele><time>2019-08-30T11:55:04Z</time><name>PT6911</name></trkpt>
<trkpt lat="53.236902" lon="-1.808210"><ele>396</ele><time>2019-08-30T11:55:05Z</time><name>PT6912</name></trkpt>
<trkpt lat="53.236900" lon="-1.808203"><ele>396</ele><time>2019-08-30T11:55:06Z</time><name>PT6913</name></trkpt>
<trkpt lat="53.236894" lon="-1.808200"><ele>396</ele><time>2019-08-30T11:55:07Z</time><name>PT6914</name></trkpt>
<trkpt lat="53.236889" lon="-1.808192"><ele>396</ele><time>2019-08-30T11:55:08Z</time><name>PT6915</name></trkpt>
<trkpt lat="53.236883" lon="-1.808188"><ele>396</ele><time>2019-08-30T11:55:09Z</time><name>PT6916</name></trkpt>
<trkpt lat="53.236883" lon="-1.808188"><ele>396</ele><time>2019-08-30T11:55:10Z</time><name>PT6917</name></trkpt>
<trkpt lat="53.236878" lon="-1.808185"><ele>396</ele><time>2019-08-30T11:55:11Z</time><name>PT6918</name></trkpt>
<trkpt lat="53.236876" lon="-1.808181"><ele>396</ele><time>2019-08-30T11:55:12Z</time><name>PT6919</name></trkpt>
<trkpt lat="53.236877" lon="-1.808182"><ele>397</ele><time>2019-08-30T11:55:13Z</time><name>PT6920</name></trkpt>
<trkpt lat="53.236874" lon="-1.808178"><ele>397</ele><time>2019-08-30T11:55:14Z</time><name>PT6921</name></trkpt>
<trkpt lat="53.236871" lon="-1.808173"><ele>397</ele><time>2019-08-30T11:55:15Z</time><name>PT6922</name></trkpt>
<trkpt lat="53.236869" lon="-1.808167"><ele>395</ele><time>2019-08-30T11:55:16Z</time><name>PT6923</name></trkpt>
<trkpt lat="53.236869" lon="-1.808154"><ele>395</ele><time>2019-08-30T11:55:17Z</time><name>PT6924</name></trkpt>
<trkpt lat="53.236864" lon="-1.808140"><ele>394</ele><time>2019-08-30T11:55:18Z</time><name>PT6925</name></trkpt>
<trkpt lat="53.236862" lon="-1.808135"><ele>393</ele><time>2019-08-30T11:55:19Z</time><name>PT6926</name></trkpt>
<trkpt lat="53.236858" lon="-1.808129"><ele>393</ele><time>2019-08-30T11:55:20Z</time><name>PT6927</name></trkpt>
<trkpt lat="53.236856" lon="-1.808115"><ele>393</ele><time>2019-08-30T11:55:21Z</time><name>PT6928</name></trkpt>
<trkpt lat="53.236852" lon="-1.808100"><ele>393</ele><time>2019-08-30T11:55:22Z</time><name>PT6929</name></trkpt>
<trkpt lat="53.236850" lon="-1.808093"><ele>393</ele><time>2019-08-30T11:55:23Z</time><name>PT6930</name></trkpt>
<trkpt lat="53.236849" lon="-1.808082"><ele>393</ele><time>2019-08-30T11:55:25Z</time><name>PT6931</name></trkpt>
<trkpt lat="53.236844" lon="-1.808070"><ele>392</ele><time>2019-08-30T11:55:25Z</time><name>PT6932</name></trkpt>
<trkpt lat="53.236844" lon="-1.808059"><ele>391</ele><time>2019-08-30T11:55:26Z</time><name>PT6933</name></trkpt>
<trkpt lat="53.236845" lon="-1.808035"><ele>390</ele><time>2019-08-30T11:55:27Z</time><name>PT6934</name></trkpt>
<trkpt lat="53.236842" lon="-1.808023"><ele>390</ele><time>2019-08-30T11:55:28Z</time><name>PT6935</name></trkpt>
<trkpt lat="53.236839" lon="-1.808009"><ele>390</ele><time>2019-08-30T11:55:29Z</time><name>PT6936</name></trkpt>
<trkpt lat="53.236838" lon="-1.807997"><ele>389</ele><time>2019-08-30T11:55:30Z</time><name>PT6937</name></trkpt>
<trkpt lat="53.236834" lon="-1.807979"><ele>388</ele><time>2019-08-30T11:55:31Z</time><name>PT6938</name></trkpt>
<trkpt lat="53.236834" lon="-1.807968"><ele>388</ele><time>2019-08-30T11:55:32Z</time><name>PT6939</name></trkpt>
<trkpt lat="53.236833" lon="-1.807977"><ele>386</ele><time>2019-08-30T11:55:33Z</time><name>PT6940</name></trkpt>
<trkpt lat="53.236833" lon="-1.807959"><ele>386</ele><time>2019-08-30T11:55:34Z</time><name>PT6941</name></trkpt>
<trkpt lat="53.236836" lon="-1.807947"><ele>386</ele><time>2019-08-30T11:55:35Z</time><name>PT6942</name></trkpt>
<trkpt lat="53.236835" lon="-1.807933"><ele>385</ele><time>2019-08-30T11:55:36Z</time><name>PT6943</name></trkpt>
<trkpt lat="53.236837" lon="-1.807924"><ele>385</ele><time>2019-08-30T11:55:37Z</time><name>PT6944</name></trkpt>
<trkpt lat="53.236838" lon="-1.807910"><ele>386</ele><time>2019-08-30T11:55:38Z</time><name>PT6945</name></trkpt>
<trkpt lat="53.236834" lon="-1.807900"><ele>385</ele><time>2019-08-30T11:55:39Z</time><name>PT6946</name></trkpt>
<trkpt lat="53.236831" lon="-1.807890"><ele>385</ele><time>2019-08-30T11:55:40Z</time><name>PT6947</name></trkpt>
<trkpt lat="53.236834" lon="-1.807883"><ele>384</ele><time>2019-08-30T11:55:41Z</time><name>PT6948</name></trkpt>
<trkpt lat="53.236835" lon="-1.807869"><ele>384</ele><time>2019-08-30T11:55:42Z</time><name>PT6949</name></trkpt>
<trkpt lat="53.236833" lon="-1.807853"><ele>384</ele><time>2019-08-30T11:55:43Z</time><name>PT6950</name></trkpt>
<trkpt lat="53.236830" lon="-1.807817"><ele>385</ele><time>2019-08-30T11:55:44Z</time><name>PT6951</name></trkpt>
<trkpt lat="53.236828" lon="-1.807796"><ele>385</ele><time>2019-08-30T11:55:45Z</time><name>PT6952</name></trkpt>
<trkpt lat="53.236827" lon="-1.807776"><ele>385</ele><time>2019-08-30T11:55:46Z</time><name>PT6953</name></trkpt>
<trkpt lat="53.236823" lon="-1.807764"><ele>383</ele><time>2019-08-30T11:55:47Z</time><name>PT6954</name></trkpt>
<trkpt lat="53.236812" lon="-1.807751"><ele>381</ele><time>2019-08-30T11:55:48Z</time><name>PT6955</name></trkpt>
<trkpt lat="53.236805" lon="-1.807733"><ele>381</ele><time>2019-08-30T11:55:49Z</time><name>PT6956</name></trkpt>
<trkpt lat="53.236806" lon="-1.807711"><ele>382</ele><time>2019-08-30T11:55:50Z</time><name>PT6957</name></trkpt>
<trkpt lat="53.236803" lon="-1.807692"><ele>381</ele><time>2019-08-30T11:55:51Z</time><name>PT6958</name></trkpt>
<trkpt lat="53.236806" lon="-1.807660"><ele>383</ele><time>2019-08-30T11:55:52Z</time><name>PT6959</name></trkpt>
<trkpt lat="53.236811" lon="-1.807637"><ele>383</ele><time>2019-08-30T11:55:53Z</time><name>PT6960</name></trkpt>
<trkpt lat="53.236810" lon="-1.807622"><ele>382</ele><time>2019-08-30T11:55:54Z</time><name>PT6961</name></trkpt>
<trkpt lat="53.236810" lon="-1.807593"><ele>383</ele><time>2019-08-30T11:55:55Z</time><name>PT6962</name></trkpt>
<trkpt lat="53.236808" lon="-1.807569"><ele>384</ele><time>2019-08-30T11:55:56Z</time><name>PT6963</name></trkpt>
<trkpt lat="53.236802" lon="-1.807549"><ele>383</ele><time>2019-08-30T11:55:58Z</time><name>PT6964</name></trkpt>
<trkpt lat="53.236794" lon="-1.807536"><ele>383</ele><time>2019-08-30T11:55:58Z</time><name>PT6965</name></trkpt>
<trkpt lat="53.236793" lon="-1.807512"><ele>384</ele><time>2019-08-30T11:55:59Z</time><name>PT6966</name></trkpt>
<trkpt lat="53.236796" lon="-1.807499"><ele>383</ele><time>2019-08-30T11:56:00Z</time><name>PT6967</name></trkpt>
<trkpt lat="53.236796" lon="-1.807487"><ele>383</ele><time>2019-08-30T11:56:01Z</time><name>PT6968</name></trkpt>
<trkpt lat="53.236794" lon="-1.807484"><ele>383</ele><time>2019-08-30T11:56:02Z</time><name>PT6969</name></trkpt>
<trkpt lat="53.236795" lon="-1.807471"><ele>383</ele><time>2019-08-30T11:56:03Z</time><name>PT6970</name></trkpt>
<trkpt lat="53.236794" lon="-1.807462"><ele>383</ele><time>2019-08-30T11:56:04Z</time><name>PT6971</name></trkpt>
<trkpt lat="53.236791" lon="-1.807454"><ele>382</ele><time>2019-08-30T11:56:05Z</time><name>PT6972</name></trkpt>
<trkpt lat="53.236790" lon="-1.807445"><ele>383</ele><time>2019-08-30T11:56:06Z</time><name>PT6973</name></trkpt>
<trkpt lat="53.236799" lon="-1.807421"><ele>385</ele><time>2019-08-30T11:56:07Z</time><name>PT6974</name></trkpt>
<trkpt lat="53.236802" lon="-1.807400"><ele>385</ele><time>2019-08-30T11:56:08Z</time><name>PT6975</name></trkpt>
<trkpt lat="53.236804" lon="-1.807381"><ele>386</ele><time>2019-08-30T11:56:09Z</time><name>PT6976</name></trkpt>
<trkpt lat="53.236806" lon="-1.807364"><ele>386</ele><time>2019-08-30T11:56:10Z</time><name>PT6977</name></trkpt>
<trkpt lat="53.236809" lon="-1.807353"><ele>386</ele><time>2019-08-30T11:56:11Z</time><name>PT6978</name></trkpt>
<trkpt lat="53.236817" lon="-1.807311"><ele>388</ele><time>2019-08-30T11:56:12Z</time><name>PT6979</name></trkpt>
<trkpt lat="53.236815" lon="-1.807291"><ele>389</ele><time>2019-08-30T11:56:13Z</time><name>PT6980</name></trkpt>
<trkpt lat="53.236812" lon="-1.807267"><ele>390</ele><time>2019-08-30T11:56:14Z</time><name>PT6981</name></trkpt>
<trkpt lat="53.236822" lon="-1.807226"><ele>391</ele><time>2019-08-30T11:56:15Z</time><name>PT6982</name></trkpt>
<trkpt lat="53.236828" lon="-1.807204"><ele>391</ele><time>2019-08-30T11:56:16Z</time><name>PT6983</name></trkpt>
<trkpt lat="53.236838" lon="-1.807173"><ele>392</ele><time>2019-08-30T11:56:17Z</time><name>PT6984</name></trkpt>
<trkpt lat="53.236845" lon="-1.807138"><ele>393</ele><time>2019-08-30T11:56:18Z</time><name>PT6985</name></trkpt>
<trkpt lat="53.236849" lon="-1.807115"><ele>393</ele><time>2019-08-30T11:56:19Z</time><name>PT6986</name></trkpt>
<trkpt lat="53.236855" lon="-1.807097"><ele>394</ele><time>2019-08-30T11:56:20Z</time><name>PT6987</name></trkpt>
<trkpt lat="53.236866" lon="-1.807073"><ele>394</ele><time>2019-08-30T11:56:21Z</time><name>PT6988</name></trkpt>
<trkpt lat="53.236876" lon="-1.807052"><ele>395</ele><time>2019-08-30T11:56:22Z</time><name>PT6989</name></trkpt>
<trkpt lat="53.236881" lon="-1.807036"><ele>395</ele><time>2019-08-30T11:56:23Z</time><name>PT6990</name></trkpt>
<trkpt lat="53.236891" lon="-1.807021"><ele>395</ele><time>2019-08-30T11:56:24Z</time><name>PT6991</name></trkpt>
<trkpt lat="53.236899" lon="-1.806996"><ele>396</ele><time>2019-08-30T11:56:25Z</time><name>PT6992</name></trkpt>
<trkpt lat="53.236911" lon="-1.806980"><ele>396</ele><time>2019-08-30T11:56:26Z</time><name>PT6993</name></trkpt>
<trkpt lat="53.236917" lon="-1.806959"><ele>395</ele><time>2019-08-30T11:56:27Z</time><name>PT6994</name></trkpt>
<trkpt lat="53.236924" lon="-1.806939"><ele>395</ele><time>2019-08-30T11:56:28Z</time><name>PT6995</name></trkpt>
<trkpt lat="53.236931" lon="-1.806927"><ele>395</ele><time>2019-08-30T11:56:29Z</time><name>PT6996</name></trkpt>
<trkpt lat="53.236942" lon="-1.806910"><ele>395</ele><time>2019-08-30T11:56:30Z</time><name>PT6997</name></trkpt>
<trkpt lat="53.236953" lon="-1.806898"><ele>395</ele><time>2019-08-30T11:56:31Z</time><name>PT6998</name></trkpt>
<trkpt lat="53.236963" lon="-1.806885"><ele>395</ele><time>2019-08-30T11:56:32Z</time><name>PT6999</name></trkpt>
<trkpt lat="53.236971" lon="-1.806872"><ele>395</ele><time>2019-08-30T11:56:33Z</time><name>PT7000</name></trkpt>
<trkpt lat="53.236983" lon="-1.806855"><ele>396</ele><time>2019-08-30T11:56:34Z</time><name>PT7001</name></trkpt>
<trkpt lat="53.236993" lon="-1.806839"><ele>396</ele><time>2019-08-30T11:56:35Z</time><name>PT7002</name></trkpt>
<trkpt lat="53.237004" lon="-1.806826"><ele>396</ele><time>2019-08-30T11:56:36Z</time><name>PT7003</name></trkpt>
<trkpt lat="53.237014" lon="-1.806816"><ele>396</ele><time>2019-08-30T11:56:37Z</time><name>PT7004</name></trkpt>
<trkpt lat="53.237021" lon="-1.806805"><ele>395</ele><time>2019-08-30T11:56:38Z</time><name>PT7005</name></trkpt>
<trkpt lat="53.237024" lon="-1.806794"><ele>394</ele><time>2019-08-30T11:56:39Z</time><name>PT7006</name></trkpt>
<trkpt lat="53.237037" lon="-1.806784"><ele>395</ele><time>2019-08-30T11:56:40Z</time><name>PT7007</name></trkpt>
<trkpt lat="53.237048" lon="-1.806776"><ele>395</ele><time>2019-08-30T11:56:41Z</time><name>PT7008</name></trkpt>
<trkpt lat="53.237049" lon="-1.806773"><ele>395</ele><time>2019-08-30T11:56:42Z</time><name>PT7009</name></trkpt>
<trkpt lat="53.237056" lon="-1.806767"><ele>395</ele><time>2019-08-30T11:56:43Z</time><name>PT7010</name></trkpt>
<trkpt lat="53.237066" lon="-1.806757"><ele>395</ele><time>2019-08-30T11:56:44Z</time><name>PT7011</name></trkpt>
<trkpt lat="53.237076" lon="-1.806748"><ele>395</ele><time>2019-08-30T11:56:45Z</time><name>PT7012</name></trkpt>
<trkpt lat="53.237084" lon="-1.806737"><ele>394</ele><time>2019-08-30T11:56:46Z</time><name>PT7013</name></trkpt>
<trkpt lat="53.237088" lon="-1.806732"><ele>394</ele><time>2019-08-30T11:56:47Z</time><name>PT7014</name></trkpt>
<trkpt lat="53.237095" lon="-1.806721"><ele>394</ele><time>2019-08-30T11:56:48Z</time><name>PT7015</name></trkpt>
<trkpt lat="53.237105" lon="-1.806711"><ele>394</ele><time>2019-08-30T11:56:49Z</time><name>PT7016</name></trkpt>
<trkpt lat="53.237127" lon="-1.806702"><ele>395</ele><time>2019-08-30T11:56:50Z</time><name>PT7017</name></trkpt>
<trkpt lat="53.237136" lon="-1.806693"><ele>395</ele><time>2019-08-30T11:56:51Z</time><name>PT7018</name></trkpt>
<trkpt lat="53.237145" lon="-1.806680"><ele>395</ele><time>2019-08-30T11:56:52Z</time><name>PT7019</name></trkpt>
<trkpt lat="53.237158" lon="-1.806666"><ele>395</ele><time>2019-08-30T11:56:53Z</time><name>PT7020</name></trkpt>
<trkpt lat="53.237166" lon="-1.806654"><ele>395</ele><time>2019-08-30T11:56:54Z</time><name>PT7021</name></trkpt>
<trkpt lat="53.237175" lon="-1.806641"><ele>395</ele><time>2019-08-30T11:56:55Z</time><name>PT7022</name></trkpt>
<trkpt lat="53.237186" lon="-1.806628"><ele>394</ele><time>2019-08-30T11:56:56Z</time><name>PT7023</name></trkpt>
<trkpt lat="53.237194" lon="-1.806618"><ele>394</ele><time>2019-08-30T11:56:57Z</time><name>PT7024</name></trkpt>
<trkpt lat="53.237200" lon="-1.806606"><ele>393</ele><time>2019-08-30T11:56:58Z</time><name>PT7025</name></trkpt>
<trkpt lat="53.237214" lon="-1.806589"><ele>392</ele><time>2019-08-30T11:56:59Z</time><name>PT7026</name></trkpt>
<trkpt lat="53.237224" lon="-1.806578"><ele>392</ele><time>2019-08-30T11:57:00Z</time><name>PT7027</name></trkpt>
<trkpt lat="53.237235" lon="-1.806569"><ele>391</ele><time>2019-08-30T11:57:01Z</time><name>PT7028</name></trkpt>
<trkpt lat="53.237247" lon="-1.806557"><ele>391</ele><time>2019-08-30T11:57:02Z</time><name>PT7029</name></trkpt>
<trkpt lat="53.237256" lon="-1.806548"><ele>391</ele><time>2019-08-30T11:57:03Z</time><name>PT7030</name></trkpt>
<trkpt lat="53.237263" lon="-1.806538"><ele>391</ele><time>2019-08-30T11:57:04Z</time><name>PT7031</name></trkpt>
<trkpt lat="53.237273" lon="-1.806524"><ele>391</ele><time>2019-08-30T11:57:05Z</time><name>PT7032</name></trkpt>
<trkpt lat="53.237282" lon="-1.806516"><ele>390</ele><time>2019-08-30T11:57:06Z</time><name>PT7033</name></trkpt>
<trkpt lat="53.237292" lon="-1.806505"><ele>390</ele><time>2019-08-30T11:57:07Z</time><name>PT7034</name></trkpt>
<trkpt lat="53.237303" lon="-1.806491"><ele>390</ele><time>2019-08-30T11:57:08Z</time><name>PT7035</name></trkpt>
<trkpt lat="53.237311" lon="-1.806477"><ele>389</ele><time>2019-08-30T11:57:09Z</time><name>PT7036</name></trkpt>
<trkpt lat="53.237316" lon="-1.806466"><ele>389</ele><time>2019-08-30T11:57:10Z</time><name>PT7037</name></trkpt>
<trkpt lat="53.237325" lon="-1.806453"><ele>389</ele><time>2019-08-30T11:57:11Z</time><name>PT7038</name></trkpt>
<trkpt lat="53.237335" lon="-1.806439"><ele>389</ele><time>2019-08-30T11:57:12Z</time><name>PT7039</name></trkpt>
<trkpt lat="53.237343" lon="-1.806429"><ele>389</ele><time>2019-08-30T11:57:13Z</time><name>PT7040</name></trkpt>
<trkpt lat="53.237354" lon="-1.806417"><ele>388</ele><time>2019-08-30T11:57:14Z</time><name>PT7041</name></trkpt>
<trkpt lat="53.237362" lon="-1.806406"><ele>388</ele><time>2019-08-30T11:57:15Z</time><name>PT7042</name></trkpt>
<trkpt lat="53.237363" lon="-1.806397"><ele>387</ele><time>2019-08-30T11:57:16Z</time><name>PT7043</name></trkpt>
<trkpt lat="53.237369" lon="-1.806382"><ele>387</ele><time>2019-08-30T11:57:17Z</time><name>PT7044</name></trkpt>
<trkpt lat="53.237378" lon="-1.806368"><ele>387</ele><time>2019-08-30T11:57:18Z</time><name>PT7045</name></trkpt>
<trkpt lat="53.237384" lon="-1.806358"><ele>386</ele><time>2019-08-30T11:57:19Z</time><name>PT7046</name></trkpt>
<trkpt lat="53.237400" lon="-1.806337"><ele>385</ele><time>2019-08-30T11:57:20Z</time><name>PT7047</name></trkpt>
<trkpt lat="53.237410" lon="-1.806314"><ele>385</ele><time>2019-08-30T11:57:21Z</time><name>PT7048</name></trkpt>
<trkpt lat="53.237411" lon="-1.806307"><ele>384</ele><time>2019-08-30T11:57:22Z</time><name>PT7049</name></trkpt>
<trkpt lat="53.237422" lon="-1.806294"><ele>383</ele><time>2019-08-30T11:57:23Z</time><name>PT7050</name></trkpt>
<trkpt lat="53.237428" lon="-1.806287"><ele>382</ele><time>2019-08-30T11:57:25Z</time><name>PT7051</name></trkpt>
<trkpt lat="53.237436" lon="-1.806276"><ele>381</ele><time>2019-08-30T11:57:25Z</time><name>PT7052</name></trkpt>
<trkpt lat="53.237443" lon="-1.806260"><ele>381</ele><time>2019-08-30T11:57:26Z</time><name>PT7053</name></trkpt>
<trkpt lat="53.237448" lon="-1.806242"><ele>381</ele><time>2019-08-30T11:57:27Z</time><name>PT7054</name></trkpt>
<trkpt lat="53.237456" lon="-1.806226"><ele>380</ele><time>2019-08-30T11:57:28Z</time><name>PT7055</name></trkpt>
<trkpt lat="53.237464" lon="-1.806212"><ele>380</ele><time>2019-08-30T11:57:29Z</time><name>PT7056</name></trkpt>
<trkpt lat="53.237468" lon="-1.806202"><ele>379</ele><time>2019-08-30T11:57:30Z</time><name>PT7057</name></trkpt>
<trkpt lat="53.237471" lon="-1.806188"><ele>379</ele><time>2019-08-30T11:57:31Z</time><name>PT7058</name></trkpt>
<trkpt lat="53.237476" lon="-1.806189"><ele>379</ele><time>2019-08-30T11:57:32Z</time><name>PT7059</name></trkpt>
<trkpt lat="53.237483" lon="-1.806178"><ele>379</ele><time>2019-08-30T11:57:33Z</time><name>PT7060</name></trkpt>
<trkpt lat="53.237494" lon="-1.806161"><ele>379</ele><time>2019-08-30T11:57:34Z</time><name>PT7061</name></trkpt>
<trkpt lat="53.237502" lon="-1.806142"><ele>379</ele><time>2019-08-30T11:57:35Z</time><name>PT7062</name></trkpt>
<trkpt lat="53.237509" lon="-1.806128"><ele>379</ele><time>2019-08-30T11:57:36Z</time><name>PT7063</name></trkpt>
<trkpt lat="53.237516" lon="-1.806110"><ele>378</ele><time>2019-08-30T11:57:37Z</time><name>PT7064</name></trkpt>
<trkpt lat="53.237524" lon="-1.806093"><ele>378</ele><time>2019-08-30T11:57:38Z</time><name>PT7065</name></trkpt>
<trkpt lat="53.237526" lon="-1.806086"><ele>378</ele><time>2019-08-30T11:57:39Z</time><name>PT7066</name></trkpt>
<trkpt lat="53.237531" lon="-1.806073"><ele>378</ele><time>2019-08-30T11:57:40Z</time><name>PT7067</name></trkpt>
<trkpt lat="53.237538" lon="-1.806061"><ele>378</ele><time>2019-08-30T11:57:41Z</time><name>PT7068</name></trkpt>
<trkpt lat="53.237544" lon="-1.806047"><ele>378</ele><time>2019-08-30T11:57:42Z</time><name>PT7069</name></trkpt>
<trkpt lat="53.237549" lon="-1.806031"><ele>378</ele><time>2019-08-30T11:57:43Z</time><name>PT7070</name></trkpt>
<trkpt lat="53.237552" lon="-1.806016"><ele>378</ele><time>2019-08-30T11:57:44Z</time><name>PT7071</name></trkpt>
<trkpt lat="53.237561" lon="-1.805995"><ele>378</ele><time>2019-08-30T11:57:45Z</time><name>PT7072</name></trkpt>
<trkpt lat="53.237568" lon="-1.805983"><ele>377</ele><time>2019-08-30T11:57:46Z</time><name>PT7073</name></trkpt>
<trkpt lat="53.237571" lon="-1.805961"><ele>377</ele><time>2019-08-30T11:57:47Z</time><name>PT7074</name></trkpt>
<trkpt lat="53.237578" lon="-1.805946"><ele>377</ele><time>2019-08-30T11:57:48Z</time><name>PT7075</name></trkpt>
<trkpt lat="53.237587" lon="-1.805926"><ele>377</ele><time>2019-08-30T11:57:49Z</time><name>PT7076</name></trkpt>
<trkpt lat="53.237596" lon="-1.805914"><ele>377</ele><time>2019-08-30T11:57:50Z</time><name>PT7077</name></trkpt>
<trkpt lat="53.237601" lon="-1.805903"><ele>376</ele><time>2019-08-30T11:57:51Z</time><name>PT7078</name></trkpt>
<trkpt lat="53.237608" lon="-1.805887"><ele>376</ele><time>2019-08-30T11:57:52Z</time><name>PT7079</name></trkpt>
<trkpt lat="53.237611" lon="-1.805878"><ele>375</ele><time>2019-08-30T11:57:53Z</time><name>PT7080</name></trkpt>
<trkpt lat="53.237617" lon="-1.805871"><ele>374</ele><time>2019-08-30T11:57:54Z</time><name>PT7081</name></trkpt>
<trkpt lat="53.237621" lon="-1.805859"><ele>373</ele><time>2019-08-30T11:57:55Z</time><name>PT7082</name></trkpt>
<trkpt lat="53.237625" lon="-1.805832"><ele>373</ele><time>2019-08-30T11:57:56Z</time><name>PT7083</name></trkpt>
<trkpt lat="53.237628" lon="-1.805819"><ele>372</ele><time>2019-08-30T11:57:57Z</time><name>PT7084</name></trkpt>
<trkpt lat="53.237631" lon="-1.805803"><ele>372</ele><time>2019-08-30T11:57:58Z</time><name>PT7085</name></trkpt>
<trkpt lat="53.237630" lon="-1.805784"><ele>372</ele><time>2019-08-30T11:57:59Z</time><name>PT7086</name></trkpt>
<trkpt lat="53.237633" lon="-1.805774"><ele>371</ele><time>2019-08-30T11:58:00Z</time><name>PT7087</name></trkpt>
<trkpt lat="53.237638" lon="-1.805764"><ele>371</ele><time>2019-08-30T11:58:01Z</time><name>PT7088</name></trkpt>
<trkpt lat="53.237644" lon="-1.805754"><ele>370</ele><time>2019-08-30T11:58:02Z</time><name>PT7089</name></trkpt>
<trkpt lat="53.237650" lon="-1.805736"><ele>369</ele><time>2019-08-30T11:58:03Z</time><name>PT7090</name></trkpt>
<trkpt lat="53.237651" lon="-1.805731"><ele>368</ele><time>2019-08-30T11:58:04Z</time><name>PT7091</name></trkpt>
<trkpt lat="53.237655" lon="-1.805718"><ele>368</ele><time>2019-08-30T11:58:05Z</time><name>PT7092</name></trkpt>
<trkpt lat="53.237660" lon="-1.805704"><ele>368</ele><time>2019-08-30T11:58:06Z</time><name>PT7093</name></trkpt>
<trkpt lat="53.237668" lon="-1.805688"><ele>368</ele><time>2019-08-30T11:58:07Z</time><name>PT7094</name></trkpt>
<trkpt lat="53.237676" lon="-1.805659"><ele>368</ele><time>2019-08-30T11:58:08Z</time><name>PT7095</name></trkpt>
<trkpt lat="53.237689" lon="-1.805633"><ele>368</ele><time>2019-08-30T11:58:09Z</time><name>PT7096</name></trkpt>
<trkpt lat="53.237693" lon="-1.805618"><ele>368</ele><time>2019-08-30T11:58:10Z</time><name>PT7097</name></trkpt>
<trkpt lat="53.237697" lon="-1.805606"><ele>368</ele><time>2019-08-30T11:58:11Z</time><name>PT7098</name></trkpt>
<trkpt lat="53.237703" lon="-1.805581"><ele>369</ele><time>2019-08-30T11:58:12Z</time><name>PT7099</name></trkpt>
<trkpt lat="53.237707" lon="-1.805562"><ele>369</ele><time>2019-08-30T11:58:13Z</time><name>PT7100</name></trkpt>
<trkpt lat="53.237710" lon="-1.805541"><ele>369</ele><time>2019-08-30T11:58:14Z</time><name>PT7101</name></trkpt>
<trkpt lat="53.237715" lon="-1.805523"><ele>368</ele><time>2019-08-30T11:58:15Z</time><name>PT7102</name></trkpt>
<trkpt lat="53.237721" lon="-1.805504"><ele>368</ele><time>2019-08-30T11:58:16Z</time><name>PT7103</name></trkpt>
<trkpt lat="53.237727" lon="-1.805487"><ele>368</ele><time>2019-08-30T11:58:17Z</time><name>PT7104</name></trkpt>
<trkpt lat="53.237738" lon="-1.805424"><ele>368</ele><time>2019-08-30T11:58:18Z</time><name>PT7105</name></trkpt>
<trkpt lat="53.237742" lon="-1.805390"><ele>369</ele><time>2019-08-30T11:58:19Z</time><name>PT7106</name></trkpt>
<trkpt lat="53.237744" lon="-1.805379"><ele>370</ele><time>2019-08-30T11:58:20Z</time><name>PT7107</name></trkpt>
<trkpt lat="53.237748" lon="-1.805359"><ele>369</ele><time>2019-08-30T11:58:21Z</time><name>PT7108</name></trkpt>
<trkpt lat="53.237754" lon="-1.805338"><ele>370</ele><time>2019-08-30T11:58:22Z</time><name>PT7109</name></trkpt>
<trkpt lat="53.237764" lon="-1.805332"><ele>370</ele><time>2019-08-30T11:58:23Z</time><name>PT7110</name></trkpt>
<trkpt lat="53.237770" lon="-1.805308"><ele>370</ele><time>2019-08-30T11:58:24Z</time><name>PT7111</name></trkpt>
<trkpt lat="53.237778" lon="-1.805281"><ele>371</ele><time>2019-08-30T11:58:25Z</time><name>PT7112</name></trkpt>
<trkpt lat="53.237788" lon="-1.805259"><ele>372</ele><time>2019-08-30T11:58:26Z</time><name>PT7113</name></trkpt>
<trkpt lat="53.237801" lon="-1.805229"><ele>374</ele><time>2019-08-30T11:58:27Z</time><name>PT7114</name></trkpt>
<trkpt lat="53.237804" lon="-1.805217"><ele>374</ele><time>2019-08-30T11:58:28Z</time><name>PT7115</name></trkpt>
<trkpt lat="53.237807" lon="-1.805208"><ele>372</ele><time>2019-08-30T11:58:29Z</time><name>PT7116</name></trkpt>
<trkpt lat="53.237812" lon="-1.805200"><ele>371</ele><time>2019-08-30T11:58:30Z</time><name>PT7117</name></trkpt>
<trkpt lat="53.237822" lon="-1.805179"><ele>372</ele><time>2019-08-30T11:58:31Z</time><name>PT7118</name></trkpt>
<trkpt lat="53.237828" lon="-1.805176"><ele>371</ele><time>2019-08-30T11:58:32Z</time><name>PT7119</name></trkpt>
<trkpt lat="53.237834" lon="-1.805173"><ele>369</ele><time>2019-08-30T11:58:33Z</time><name>PT7120</name></trkpt>
<trkpt lat="53.237841" lon="-1.805134"><ele>371</ele><time>2019-08-30T11:58:34Z</time><name>PT7121</name></trkpt>
<trkpt lat="53.237845" lon="-1.805110"><ele>371</ele><time>2019-08-30T11:58:35Z</time><name>PT7122</name></trkpt>
<trkpt lat="53.237853" lon="-1.805084"><ele>371</ele><time>2019-08-30T11:58:36Z</time><name>PT7123</name></trkpt>
<trkpt lat="53.237859" lon="-1.805062"><ele>371</ele><time>2019-08-30T11:58:37Z</time><name>PT7124</name></trkpt>
<trkpt lat="53.237863" lon="-1.805047"><ele>370</ele><time>2019-08-30T11:58:38Z</time><name>PT7125</name></trkpt>
<trkpt lat="53.237872" lon="-1.805019"><ele>371</ele><time>2019-08-30T11:58:39Z</time><name>PT7126</name></trkpt>
<trkpt lat="53.237877" lon="-1.805002"><ele>371</ele><time>2019-08-30T11:58:40Z</time><name>PT7127</name></trkpt>
<trkpt lat="53.237877" lon="-1.804991"><ele>371</ele><time>2019-08-30T11:58:41Z</time><name>PT7128</name></trkpt>
<trkpt lat="53.237880" lon="-1.804981"><ele>370</ele><time>2019-08-30T11:58:42Z</time><name>PT7129</name></trkpt>
<trkpt lat="53.237890" lon="-1.804967"><ele>370</ele><time>2019-08-30T11:58:43Z</time><name>PT7130</name></trkpt>
<trkpt lat="53.237900" lon="-1.804951"><ele>370</ele><time>2019-08-30T11:58:44Z</time><name>PT7131</name></trkpt>
<trkpt lat="53.237907" lon="-1.804935"><ele>370</ele><time>2019-08-30T11:58:45Z</time><name>PT7132</name></trkpt>
<trkpt lat="53.237913" lon="-1.804915"><ele>371</ele><time>2019-08-30T11:58:46Z</time><name>PT7133</name></trkpt>
<trkpt lat="53.237919" lon="-1.804900"><ele>371</ele><time>2019-08-30T11:58:47Z</time><name>PT7134</name></trkpt>
<trkpt lat="53.237928" lon="-1.804888"><ele>371</ele><time>2019-08-30T11:58:48Z</time><name>PT7135</name></trkpt>
<trkpt lat="53.237940" lon="-1.804867"><ele>371</ele><time>2019-08-30T11:58:49Z</time><name>PT7136</name></trkpt>
<trkpt lat="53.237948" lon="-1.804848"><ele>371</ele><time>2019-08-30T11:58:50Z</time><name>PT7137</name></trkpt>
<trkpt lat="53.237966" lon="-1.804827"><ele>371</ele><time>2019-08-30T11:58:51Z</time><name>PT7138</name></trkpt>
<trkpt lat="53.237977" lon="-1.804812"><ele>371</ele><time>2019-08-30T11:58:52Z</time><name>PT7139</name></trkpt>
<trkpt lat="53.237990" lon="-1.804799"><ele>371</ele><time>2019-08-30T11:58:53Z</time><name>PT7140</name></trkpt>
<trkpt lat="53.237997" lon="-1.804789"><ele>372</ele><time>2019-08-30T11:58:54Z</time><name>PT7141</name></trkpt>
<trkpt lat="53.238007" lon="-1.804781"><ele>372</ele><time>2019-08-30T11:58:55Z</time><name>PT7142</name></trkpt>
<trkpt lat="53.238013" lon="-1.804769"><ele>371</ele><time>2019-08-30T11:58:56Z</time><name>PT7143</name></trkpt>
<trkpt lat="53.238018" lon="-1.804741"><ele>372</ele><time>2019-08-30T11:58:57Z</time><name>PT7144</name></trkpt>
<trkpt lat="53.238031" lon="-1.804720"><ele>373</ele><time>2019-08-30T11:58:58Z</time><name>PT7145</name></trkpt>
<trkpt lat="53.238038" lon="-1.804704"><ele>373</ele><time>2019-08-30T11:58:59Z</time><name>PT7146</name></trkpt>
<trkpt lat="53.238044" lon="-1.804688"><ele>373</ele><time>2019-08-30T11:59:00Z</time><name>PT7147</name></trkpt>
<trkpt lat="53.238053" lon="-1.804673"><ele>373</ele><time>2019-08-30T11:59:01Z</time><name>PT7148</name></trkpt>
<trkpt lat="53.238065" lon="-1.804656"><ele>372</ele><time>2019-08-30T11:59:02Z</time><name>PT7149</name></trkpt>
<trkpt lat="53.238074" lon="-1.804646"><ele>372</ele><time>2019-08-30T11:59:03Z</time><name>PT7150</name></trkpt>
<trkpt lat="53.238088" lon="-1.804621"><ele>373</ele><time>2019-08-30T11:59:04Z</time><name>PT7151</name></trkpt>
<trkpt lat="53.238099" lon="-1.804603"><ele>373</ele><time>2019-08-30T11:59:05Z</time><name>PT7152</name></trkpt>
<trkpt lat="53.238111" lon="-1.804589"><ele>373</ele><time>2019-08-30T11:59:06Z</time><name>PT7153</name></trkpt>
<trkpt lat="53.238118" lon="-1.804584"><ele>372</ele><time>2019-08-30T11:59:07Z</time><name>PT7154</name></trkpt>
<trkpt lat="53.238127" lon="-1.804571"><ele>371</ele><time>2019-08-30T11:59:08Z</time><name>PT7155</name></trkpt>
<trkpt lat="53.238135" lon="-1.804561"><ele>372</ele><time>2019-08-30T11:59:09Z</time><name>PT7156</name></trkpt>
<trkpt lat="53.238142" lon="-1.804545"><ele>372</ele><time>2019-08-30T11:59:10Z</time><name>PT7157</name></trkpt>
<trkpt lat="53.238154" lon="-1.804525"><ele>372</ele><time>2019-08-30T11:59:11Z</time><name>PT7158</name></trkpt>
<trkpt lat="53.238162" lon="-1.804513"><ele>372</ele><time>2019-08-30T11:59:12Z</time><name>PT7159</name></trkpt>
<trkpt lat="53.238175" lon="-1.804499"><ele>373</ele><time>2019-08-30T11:59:13Z</time><name>PT7160</name></trkpt>
<trkpt lat="53.238185" lon="-1.804480"><ele>372</ele><time>2019-08-30T11:59:14Z</time><name>PT7161</name></trkpt>
<trkpt lat="53.238190" lon="-1.804466"><ele>372</ele><time>2019-08-30T11:59:15Z</time><name>PT7162</name></trkpt>
<trkpt lat="53.238196" lon="-1.804450"><ele>372</ele><time>2019-08-30T11:59:16Z</time><name>PT7163</name></trkpt>
<trkpt lat="53.238209" lon="-1.804436"><ele>373</ele><time>2019-08-30T11:59:17Z</time><name>PT7164</name></trkpt>
<trkpt lat="53.238220" lon="-1.804426"><ele>373</ele><time>2019-08-30T11:59:18Z</time><name>PT7165</name></trkpt>
<trkpt lat="53.238231" lon="-1.804410"><ele>373</ele><time>2019-08-30T11:59:19Z</time><name>PT7166</name></trkpt>
<trkpt lat="53.238238" lon="-1.804397"><ele>373</ele><time>2019-08-30T11:59:20Z</time><name>PT7167</name></trkpt>
<trkpt lat="53.238248" lon="-1.804374"><ele>373</ele><time>2019-08-30T11:59:21Z</time><name>PT7168</name></trkpt>
<trkpt lat="53.238259" lon="-1.804350"><ele>373</ele><time>2019-08-30T11:59:22Z</time><name>PT7169</name></trkpt>
<trkpt lat="53.238269" lon="-1.804337"><ele>373</ele><time>2019-08-30T11:59:23Z</time><name>PT7170</name></trkpt>
<trkpt lat="53.238280" lon="-1.804328"><ele>373</ele><time>2019-08-30T11:59:24Z</time><name>PT7171</name></trkpt>
<trkpt lat="53.238291" lon="-1.804319"><ele>373</ele><time>2019-08-30T11:59:25Z</time><name>PT7172</name></trkpt>
<trkpt lat="53.238305" lon="-1.804305"><ele>374</ele><time>2019-08-30T11:59:26Z</time><name>PT7173</name></trkpt>
<trkpt lat="53.238316" lon="-1.804295"><ele>374</ele><time>2019-08-30T11:59:27Z</time><name>PT7174</name></trkpt>
<trkpt lat="53.238329" lon="-1.804287"><ele>374</ele><time>2019-08-30T11:59:28Z</time><name>PT7175</name></trkpt>
<trkpt lat="53.238342" lon="-1.804266"><ele>375</ele><time>2019-08-30T11:59:29Z</time><name>PT7176</name></trkpt>
<trkpt lat="53.238356" lon="-1.804255"><ele>374</ele><time>2019-08-30T11:59:30Z</time><name>PT7177</name></trkpt>
<trkpt lat="53.238367" lon="-1.804243"><ele>375</ele><time>2019-08-30T11:59:31Z</time><name>PT7178</name></trkpt>
<trkpt lat="53.238379" lon="-1.804236"><ele>375</ele><time>2019-08-30T11:59:32Z</time><name>PT7179</name></trkpt>
<trkpt lat="53.238393" lon="-1.804225"><ele>375</ele><time>2019-08-30T11:59:33Z</time><name>PT7180</name></trkpt>
<trkpt lat="53.238402" lon="-1.804222"><ele>375</ele><time>2019-08-30T11:59:34Z</time><name>PT7181</name></trkpt>
<trkpt lat="53.238412" lon="-1.804212"><ele>375</ele><time>2019-08-30T11:59:35Z</time><name>PT7182</name></trkpt>
<trkpt lat="53.238419" lon="-1.804200"><ele>375</ele><time>2019-08-30T11:59:36Z</time><name>PT7183</name></trkpt>
<trkpt lat="53.238429" lon="-1.804190"><ele>375</ele><time>2019-08-30T11:59:37Z</time><name>PT7184</name></trkpt>
<trkpt lat="53.238442" lon="-1.804183"><ele>376</ele><time>2019-08-30T11:59:38Z</time><name>PT7185</name></trkpt>
<trkpt lat="53.238455" lon="-1.804176"><ele>376</ele><time>2019-08-30T11:59:39Z</time><name>PT7186</name></trkpt>
<trkpt lat="53.238466" lon="-1.804169"><ele>376</ele><time>2019-08-30T11:59:40Z</time><name>PT7187</name></trkpt>
<trkpt lat="53.238476" lon="-1.804163"><ele>375</ele><time>2019-08-30T11:59:41Z</time><name>PT7188</name></trkpt>
<trkpt lat="53.238486" lon="-1.804148"><ele>375</ele><time>2019-08-30T11:59:42Z</time><name>PT7189</name></trkpt>
<trkpt lat="53.238496" lon="-1.804139"><ele>374</ele><time>2019-08-30T11:59:43Z</time><name>PT7190</name></trkpt>
<trkpt lat="53.238504" lon="-1.804136"><ele>374</ele><time>2019-08-30T11:59:44Z</time><name>PT7191</name></trkpt>
<trkpt lat="53.238512" lon="-1.804129"><ele>373</ele><time>2019-08-30T11:59:45Z</time><name>PT7192</name></trkpt>
<trkpt lat="53.238517" lon="-1.804122"><ele>372</ele><time>2019-08-30T11:59:46Z</time><name>PT7193</name></trkpt>
<trkpt lat="53.238526" lon="-1.804109"><ele>373</ele><time>2019-08-30T11:59:47Z</time><name>PT7194</name></trkpt>
<trkpt lat="53.238538" lon="-1.804101"><ele>372</ele><time>2019-08-30T11:59:48Z</time><name>PT7195</name></trkpt>
<trkpt lat="53.238550" lon="-1.804094"><ele>373</ele><time>2019-08-30T11:59:49Z</time><name>PT7196</name></trkpt>
<trkpt lat="53.238559" lon="-1.804080"><ele>373</ele><time>2019-08-30T11:59:50Z</time><name>PT7197</name></trkpt>
<trkpt lat="53.238570" lon="-1.804072"><ele>373</ele><time>2019-08-30T11:59:51Z</time><name>PT7198</name></trkpt>
<trkpt lat="53.238574" lon="-1.804059"><ele>372</ele><time>2019-08-30T11:59:52Z</time><name>PT7199</name></trkpt>
<trkpt lat="53.238587" lon="-1.804043"><ele>373</ele><time>2019-08-30T11:59:53Z</time><name>PT7200</name></trkpt>
<trkpt lat="53.238599" lon="-1.804032"><ele>372</ele><time>2019-08-30T11:59:54Z</time><name>PT7201</name></trkpt>
<trkpt lat="53.238610" lon="-1.804024"><ele>372</ele><time>2019-08-30T11:59:55Z</time><name>PT7202</name></trkpt>
<trkpt lat="53.238623" lon="-1.804016"><ele>372</ele><time>2019-08-30T11:59:56Z</time><name>PT7203</name></trkpt>
<trkpt lat="53.238633" lon="-1.804013"><ele>372</ele><time>2019-08-30T11:59:57Z</time><name>PT7204</name></trkpt>
<trkpt lat="53.238643" lon="-1.804007"><ele>372</ele><time>2019-08-30T11:59:58Z</time><name>PT7205</name></trkpt>
<trkpt lat="53.238653" lon="-1.803996"><ele>371</ele><time>2019-08-30T11:59:59Z</time><name>PT7206</name></trkpt>
<trkpt lat="53.238665" lon="-1.803987"><ele>371</ele><time>2019-08-30T12:00:00Z</time><name>PT7207</name></trkpt>
<trkpt lat="53.238671" lon="-1.803983"><ele>371</ele><time>2019-08-30T12:00:01Z</time><name>PT7208</name></trkpt>
<trkpt lat="53.238676" lon="-1.803979"><ele>371</ele><time>2019-08-30T12:00:02Z</time><name>PT7209</name></trkpt>
<trkpt lat="53.238683" lon="-1.803976"><ele>370</ele><time>2019-08-30T12:00:03Z</time><name>PT7210</name></trkpt>
<trkpt lat="53.238687" lon="-1.803973"><ele>370</ele><time>2019-08-30T12:00:04Z</time><name>PT7211</name></trkpt>
<trkpt lat="53.238693" lon="-1.803967"><ele>370</ele><time>2019-08-30T12:00:05Z</time><name>PT7212</name></trkpt>
<trkpt lat="53.238704" lon="-1.803965"><ele>371</ele><time>2019-08-30T12:00:06Z</time><name>PT7213</name></trkpt>
<trkpt lat="53.238716" lon="-1.803940"><ele>371</ele><time>2019-08-30T12:00:10Z</time><name>PT7214</name></trkpt>
<trkpt lat="53.238723" lon="-1.803931"><ele>371</ele><time>2019-08-30T12:00:11Z</time><name>PT7215</name></trkpt>
<trkpt lat="53.238726" lon="-1.803928"><ele>371</ele><time>2019-08-30T12:00:12Z</time><name>PT7216</name></trkpt>
<trkpt lat="53.238729" lon="-1.803924"><ele>371</ele><time>2019-08-30T12:00:13Z</time><name>PT7217</name></trkpt>
<trkpt lat="53.238733" lon="-1.803927"><ele>370</ele><time>2019-08-30T12:00:14Z</time><name>PT7218</name></trkpt>
<trkpt lat="53.238736" lon="-1.803927"><ele>370</ele><time>2019-08-30T12:00:15Z</time><name>PT7219</name></trkpt>
<trkpt lat="53.238736" lon="-1.803937"><ele>370</ele><time>2019-08-30T12:00:16Z</time><name>PT7220</name></trkpt>
<trkpt lat="53.238735" lon="-1.803945"><ele>370</ele><time>2019-08-30T12:00:17Z</time><name>PT7221</name></trkpt>
<trkpt lat="53.238737" lon="-1.803955"><ele>370</ele><time>2019-08-30T12:00:18Z</time><name>PT7222</name></trkpt>
<trkpt lat="53.238742" lon="-1.803965"><ele>369</ele><time>2019-08-30T12:00:19Z</time><name>PT7223</name></trkpt>
<trkpt lat="53.238742" lon="-1.803966"><ele>370</ele><time>2019-08-30T12:00:20Z</time><name>PT7224</name></trkpt>
<trkpt lat="53.238744" lon="-1.803953"><ele>370</ele><time>2019-08-30T12:00:40Z</time><name>PT7225</name></trkpt>
<trkpt lat="53.238748" lon="-1.803946"><ele>370</ele><time>2019-08-30T12:00:41Z</time><name>PT7226</name></trkpt>
<trkpt lat="53.238751" lon="-1.803947"><ele>370</ele><time>2019-08-30T12:00:43Z</time><name>PT7227</name></trkpt>
<trkpt lat="53.238751" lon="-1.803946"><ele>369</ele><time>2019-08-30T12:00:43Z</time><name>PT7228</name></trkpt>
<trkpt lat="53.238753" lon="-1.803941"><ele>370</ele><time>2019-08-30T12:00:44Z</time><name>PT7229</name></trkpt>
<trkpt lat="53.238752" lon="-1.803938"><ele>370</ele><time>2019-08-30T12:00:45Z</time><name>PT7230</name></trkpt>
<trkpt lat="53.238765" lon="-1.803925"><ele>370</ele><time>2019-08-30T12:01:24Z</time><name>PT7231</name></trkpt>
<trkpt lat="53.238775" lon="-1.803925"><ele>370</ele><time>2019-08-30T12:01:25Z</time><name>PT7232</name></trkpt>
<trkpt lat="53.238787" lon="-1.803916"><ele>370</ele><time>2019-08-30T12:01:26Z</time><name>PT7233</name></trkpt>
<trkpt lat="53.238797" lon="-1.803909"><ele>370</ele><time>2019-08-30T12:01:27Z</time><name>PT7234</name></trkpt>
<trkpt lat="53.238808" lon="-1.803902"><ele>370</ele><time>2019-08-30T12:01:28Z</time><name>PT7235</name></trkpt>
<trkpt lat="53.238818" lon="-1.803897"><ele>371</ele><time>2019-08-30T12:01:29Z</time><name>PT7236</name></trkpt>
<trkpt lat="53.238830" lon="-1.803891"><ele>370</ele><time>2019-08-30T12:01:30Z</time><name>PT7237</name></trkpt>
<trkpt lat="53.238839" lon="-1.803884"><ele>370</ele><time>2019-08-30T12:01:31Z</time><name>PT7238</name></trkpt>
<trkpt lat="53.238849" lon="-1.803882"><ele>371</ele><time>2019-08-30T12:01:32Z</time><name>PT7239</name></trkpt>
<trkpt lat="53.238863" lon="-1.803883"><ele>371</ele><time>2019-08-30T12:01:33Z</time><name>PT7240</name></trkpt>
<trkpt lat="53.238872" lon="-1.803881"><ele>371</ele><time>2019-08-30T12:01:34Z</time><name>PT7241</name></trkpt>
<trkpt lat="53.238883" lon="-1.803877"><ele>371</ele><time>2019-08-30T12:01:35Z</time><name>PT7242</name></trkpt>
<trkpt lat="53.238893" lon="-1.803871"><ele>371</ele><time>2019-08-30T12:01:36Z</time><name>PT7243</name></trkpt>
<trkpt lat="53.238900" lon="-1.803867"><ele>371</ele><time>2019-08-30T12:01:37Z</time><name>PT7244</name></trkpt>
<trkpt lat="53.238913" lon="-1.803859"><ele>371</ele><time>2019-08-30T12:01:38Z</time><name>PT7245</name></trkpt>
<trkpt lat="53.238924" lon="-1.803851"><ele>371</ele><time>2019-08-30T12:01:39Z</time><name>PT7246</name></trkpt>
<trkpt lat="53.238935" lon="-1.803842"><ele>372</ele><time>2019-08-30T12:01:40Z</time><name>PT7247</name></trkpt>
<trkpt lat="53.238949" lon="-1.803835"><ele>372</ele><time>2019-08-30T12:01:41Z</time><name>PT7248</name></trkpt>
<trkpt lat="53.238959" lon="-1.803829"><ele>371</ele><time>2019-08-30T12:01:42Z</time><name>PT7249</name></trkpt>
<trkpt lat="53.238970" lon="-1.803820"><ele>371</ele><time>2019-08-30T12:01:43Z</time><name>PT7250</name></trkpt>
<trkpt lat="53.238980" lon="-1.803812"><ele>371</ele><time>2019-08-30T12:01:44Z</time><name>PT7251</name></trkpt>
<trkpt lat="53.238988" lon="-1.803807"><ele>371</ele><time>2019-08-30T12:01:45Z</time><name>PT7252</name></trkpt>
<trkpt lat="53.238997" lon="-1.803801"><ele>371</ele><time>2019-08-30T12:01:46Z</time><name>PT7253</name></trkpt>
<trkpt lat="53.239005" lon="-1.803794"><ele>371</ele><time>2019-08-30T12:01:47Z</time><name>PT7254</name></trkpt>
<trkpt lat="53.239013" lon="-1.803788"><ele>371</ele><time>2019-08-30T12:01:48Z</time><name>PT7255</name></trkpt>
<trkpt lat="53.239020" lon="-1.803783"><ele>371</ele><time>2019-08-30T12:01:49Z</time><name>PT7256</name></trkpt>
<trkpt lat="53.239027" lon="-1.803777"><ele>371</ele><time>2019-08-30T12:01:50Z</time><name>PT7257</name></trkpt>
<trkpt lat="53.239035" lon="-1.803772"><ele>371</ele><time>2019-08-30T12:01:51Z</time><name>PT7258</name></trkpt>
<trkpt lat="53.239042" lon="-1.803765"><ele>371</ele><time>2019-08-30T12:01:52Z</time><name>PT7259</name></trkpt>
<trkpt lat="53.239051" lon="-1.803760"><ele>370</ele><time>2019-08-30T12:01:53Z</time><name>PT7260</name></trkpt>
<trkpt lat="53.239060" lon="-1.803756"><ele>370</ele><time>2019-08-30T12:01:54Z</time><name>PT7261</name></trkpt>
<trkpt lat="53.239072" lon="-1.803750"><ele>370</ele><time>2019-08-30T12:01:55Z</time><name>PT7262</name></trkpt>
<trkpt lat="53.239084" lon="-1.803746"><ele>370</ele><time>2019-08-30T12:01:56Z</time><name>PT7263</name></trkpt>
<trkpt lat="53.239094" lon="-1.803743"><ele>370</ele><time>2019-08-30T12:01:57Z</time><name>PT7264</name></trkpt>
<trkpt lat="53.239103" lon="-1.803738"><ele>370</ele><time>2019-08-30T12:01:58Z</time><name>PT7265</name></trkpt>
<trkpt lat="53.239113" lon="-1.803733"><ele>370</ele><time>2019-08-30T12:01:59Z</time><name>PT7266</name></trkpt>
<trkpt lat="53.239125" lon="-1.803725"><ele>370</ele><time>2019-08-30T12:02:00Z</time><name>PT7267</name></trkpt>
<trkpt lat="53.239136" lon="-1.803720"><ele>370</ele><time>2019-08-30T12:02:01Z</time><name>PT7268</name></trkpt>
<trkpt lat="53.239148" lon="-1.803714"><ele>370</ele><time>2019-08-30T12:02:02Z</time><name>PT7269</name></trkpt>
<trkpt lat="53.239158" lon="-1.803709"><ele>370</ele><time>2019-08-30T12:02:03Z</time><name>PT7270</name></trkpt>
<trkpt lat="53.239167" lon="-1.803704"><ele>370</ele><time>2019-08-30T12:02:04Z</time><name>PT7271</name></trkpt>
<trkpt lat="53.239176" lon="-1.803700"><ele>371</ele><time>2019-08-30T12:02:05Z</time><name>PT7272</name></trkpt>
<trkpt lat="53.239185" lon="-1.803696"><ele>371</ele><time>2019-08-30T12:02:06Z</time><name>PT7273</name></trkpt>
<trkpt lat="53.239195" lon="-1.803695"><ele>370</ele><time>2019-08-30T12:02:07Z</time><name>PT7274</name></trkpt>
<trkpt lat="53.239203" lon="-1.803691"><ele>370</ele><time>2019-08-30T12:02:08Z</time><name>PT7275</name></trkpt>
<trkpt lat="53.239216" lon="-1.803686"><ele>370</ele><time>2019-08-30T12:02:09Z</time><name>PT7276</name></trkpt>
<trkpt lat="53.239227" lon="-1.803682"><ele>371</ele><time>2019-08-30T12:02:10Z</time><name>PT7277</name></trkpt>
<trkpt lat="53.239236" lon="-1.803677"><ele>371</ele><time>2019-08-30T12:02:11Z</time><name>PT7278</name></trkpt>
<trkpt lat="53.239247" lon="-1.803672"><ele>371</ele><time>2019-08-30T12:02:12Z</time><name>PT7279</name></trkpt>
<trkpt lat="53.239255" lon="-1.803672"><ele>371</ele><time>2019-08-30T12:02:13Z</time><name>PT7280</name></trkpt>
<trkpt lat="53.239262" lon="-1.803670"><ele>370</ele><time>2019-08-30T12:02:14Z</time><name>PT7281</name></trkpt>
<trkpt lat="53.239271" lon="-1.803664"><ele>370</ele><time>2019-08-30T12:02:15Z</time><name>PT7282</name></trkpt>
<trkpt lat="53.239280" lon="-1.803657"><ele>369</ele><time>2019-08-30T12:02:16Z</time><name>PT7283</name></trkpt>
<trkpt lat="53.239293" lon="-1.803648"><ele>369</ele><time>2019-08-30T12:02:17Z</time><name>PT7284</name></trkpt>
<trkpt lat="53.239304" lon="-1.803642"><ele>369</ele><time>2019-08-30T12:02:18Z</time><name>PT7285</name></trkpt>
<trkpt lat="53.239312" lon="-1.803633"><ele>369</ele><time>2019-08-30T12:02:19Z</time><name>PT7286</name></trkpt>
<trkpt lat="53.239320" lon="-1.803619"><ele>369</ele><time>2019-08-30T12:02:20Z</time><name>PT7287</name></trkpt>
<trkpt lat="53.239330" lon="-1.803610"><ele>368</ele><time>2019-08-30T12:02:21Z</time><name>PT7288</name></trkpt>
<trkpt lat="53.239337" lon="-1.803604"><ele>367</ele><time>2019-08-30T12:02:22Z</time><name>PT7289</name></trkpt>
<trkpt lat="53.239345" lon="-1.803601"><ele>366</ele><time>2019-08-30T12:02:23Z</time><name>PT7290</name></trkpt>
<trkpt lat="53.239362" lon="-1.803594"><ele>366</ele><time>2019-08-30T12:02:24Z</time><name>PT7291</name></trkpt>
<trkpt lat="53.239376" lon="-1.803591"><ele>366</ele><time>2019-08-30T12:02:25Z</time><name>PT7292</name></trkpt>
<trkpt lat="53.239389" lon="-1.803584"><ele>366</ele><time>2019-08-30T12:02:26Z</time><name>PT7293</name></trkpt>
<trkpt lat="53.239400" lon="-1.803572"><ele>366</ele><time>2019-08-30T12:02:27Z</time><name>PT7294</name></trkpt>
<trkpt lat="53.239409" lon="-1.803572"><ele>366</ele><time>2019-08-30T12:02:28Z</time><name>PT7295</name></trkpt>
<trkpt lat="53.239418" lon="-1.803572"><ele>365</ele><time>2019-08-30T12:02:29Z</time><name>PT7296</name></trkpt>
<trkpt lat="53.239429" lon="-1.803574"><ele>365</ele><time>2019-08-30T12:02:30Z</time><name>PT7297</name></trkpt>
<trkpt lat="53.239437" lon="-1.803568"><ele>365</ele><time>2019-08-30T12:02:31Z</time><name>PT7298</name></trkpt>
<trkpt lat="53.239445" lon="-1.803555"><ele>366</ele><time>2019-08-30T12:02:32Z</time><name>PT7299</name></trkpt>
<trkpt lat="53.239450" lon="-1.803555"><ele>365</ele><time>2019-08-30T12:02:33Z</time><name>PT7300</name></trkpt>
<trkpt lat="53.239454" lon="-1.803551"><ele>366</ele><time>2019-08-30T12:02:34Z</time><name>PT7301</name></trkpt>
<trkpt lat="53.239457" lon="-1.803546"><ele>366</ele><time>2019-08-30T12:02:35Z</time><name>PT7302</name></trkpt>
<trkpt lat="53.239459" lon="-1.803540"><ele>366</ele><time>2019-08-30T12:02:36Z</time><name>PT7303</name></trkpt>
<trkpt lat="53.239457" lon="-1.803541"><ele>366</ele><time>2019-08-30T12:02:43Z</time><name>PT7304</name></trkpt>
<trkpt lat="53.239466" lon="-1.803534"><ele>366</ele><time>2019-08-30T12:02:44Z</time><name>PT7305</name></trkpt>
<trkpt lat="53.239473" lon="-1.803529"><ele>366</ele><time>2019-08-30T12:02:45Z</time><name>PT7306</name></trkpt>
<trkpt lat="53.239484" lon="-1.803515"><ele>366</ele><time>2019-08-30T12:02:46Z</time><name>PT7307</name></trkpt>
<trkpt lat="53.239501" lon="-1.803510"><ele>366</ele><time>2019-08-30T12:02:47Z</time><name>PT7308</name></trkpt>
<trkpt lat="53.239517" lon="-1.803502"><ele>367</ele><time>2019-08-30T12:02:48Z</time><name>PT7309</name></trkpt>
<trkpt lat="53.239532" lon="-1.803496"><ele>367</ele><time>2019-08-30T12:02:49Z</time><name>PT7310</name></trkpt>
<trkpt lat="53.239551" lon="-1.803499"><ele>367</ele><time>2019-08-30T12:02:50Z</time><name>PT7311</name></trkpt>
<trkpt lat="53.239559" lon="-1.803496"><ele>367</ele><time>2019-08-30T12:02:51Z</time><name>PT7312</name></trkpt>
<trkpt lat="53.239575" lon="-1.803487"><ele>367</ele><time>2019-08-30T12:02:52Z</time><name>PT7313</name></trkpt>
<trkpt lat="53.239589" lon="-1.803482"><ele>367</ele><time>2019-08-30T12:02:53Z</time><name>PT7314</name></trkpt>
<trkpt lat="53.239598" lon="-1.803478"><ele>367</ele><time>2019-08-30T12:02:54Z</time><name>PT7315</name></trkpt>
<trkpt lat="53.239609" lon="-1.803477"><ele>367</ele><time>2019-08-30T12:02:55Z</time><name>PT7316</name></trkpt>
<trkpt lat="53.239620" lon="-1.803472"><ele>367</ele><time>2019-08-30T12:02:56Z</time><name>PT7317</name></trkpt>
<trkpt lat="53.239630" lon="-1.803465"><ele>367</ele><time>2019-08-30T12:02:57Z</time><name>PT7318</name></trkpt>
<trkpt lat="53.239640" lon="-1.803462"><ele>367</ele><time>2019-08-30T12:02:58Z</time><name>PT7319</name></trkpt>
<trkpt lat="53.239653" lon="-1.803461"><ele>367</ele><time>2019-08-30T12:02:59Z</time><name>PT7320</name></trkpt>
<trkpt lat="53.239664" lon="-1.803462"><ele>368</ele><time>2019-08-30T12:03:00Z</time><name>PT7321</name></trkpt>
<trkpt lat="53.239677" lon="-1.803460"><ele>368</ele><time>2019-08-30T12:03:01Z</time><name>PT7322</name></trkpt>
<trkpt lat="53.239691" lon="-1.803457"><ele>368</ele><time>2019-08-30T12:03:02Z</time><name>PT7323</name></trkpt>
<trkpt lat="53.239702" lon="-1.803452"><ele>368</ele><time>2019-08-30T12:03:03Z</time><name>PT7324</name></trkpt>
<trkpt lat="53.239712" lon="-1.803444"><ele>368</ele><time>2019-08-30T12:03:04Z</time><name>PT7325</name></trkpt>
<trkpt lat="53.239720" lon="-1.803439"><ele>368</ele><time>2019-08-30T12:03:05Z</time><name>PT7326</name></trkpt>
<trkpt lat="53.239729" lon="-1.803436"><ele>368</ele><time>2019-08-30T12:03:06Z</time><name>PT7327</name></trkpt>
<trkpt lat="53.239739" lon="-1.803432"><ele>368</ele><time>2019-08-30T12:03:07Z</time><name>PT7328</name></trkpt>
<trkpt lat="53.239752" lon="-1.803433"><ele>368</ele><time>2019-08-30T12:03:08Z</time><name>PT7329</name></trkpt>
<trkpt lat="53.239764" lon="-1.803427"><ele>368</ele><time>2019-08-30T12:03:09Z</time><name>PT7330</name></trkpt>
<trkpt lat="53.239773" lon="-1.803425"><ele>368</ele><time>2019-08-30T12:03:10Z</time><name>PT7331</name></trkpt>
<trkpt lat="53.239782" lon="-1.803423"><ele>368</ele><time>2019-08-30T12:03:11Z</time><name>PT7332</name></trkpt>
<trkpt lat="53.239794" lon="-1.803420"><ele>369</ele><time>2019-08-30T12:03:12Z</time><name>PT7333</name></trkpt>
<trkpt lat="53.239805" lon="-1.803414"><ele>369</ele><time>2019-08-30T12:03:13Z</time><name>PT7334</name></trkpt>
<trkpt lat="53.239816" lon="-1.803408"><ele>369</ele><time>2019-08-30T12:03:14Z</time><name>PT7335</name></trkpt>
<trkpt lat="53.239824" lon="-1.803404"><ele>369</ele><time>2019-08-30T12:03:15Z</time><name>PT7336</name></trkpt>
<trkpt lat="53.239831" lon="-1.803404"><ele>368</ele><time>2019-08-30T12:03:16Z</time><name>PT7337</name></trkpt>
<trkpt lat="53.239840" lon="-1.803398"><ele>368</ele><time>2019-08-30T12:03:17Z</time><name>PT7338</name></trkpt>
<trkpt lat="53.239845" lon="-1.803392"><ele>367</ele><time>2019-08-30T12:03:18Z</time><name>PT7339</name></trkpt>
<trkpt lat="53.239854" lon="-1.803390"><ele>367</ele><time>2019-08-30T12:03:19Z</time><name>PT7340</name></trkpt>
<trkpt lat="53.239862" lon="-1.803387"><ele>367</ele><time>2019-08-30T12:03:20Z</time><name>PT7341</name></trkpt>
<trkpt lat="53.239873" lon="-1.803383"><ele>367</ele><time>2019-08-30T12:03:21Z</time><name>PT7342</name></trkpt>
<trkpt lat="53.239885" lon="-1.803378"><ele>367</ele><time>2019-08-30T12:03:22Z</time><name>PT7343</name></trkpt>
<trkpt lat="53.239895" lon="-1.803373"><ele>367</ele><time>2019-08-30T12:03:23Z</time><name>PT7344</name></trkpt>
<trkpt lat="53.239902" lon="-1.803366"><ele>366</ele><time>2019-08-30T12:03:24Z</time><name>PT7345</name></trkpt>
<trkpt lat="53.239913" lon="-1.803359"><ele>367</ele><time>2019-08-30T12:03:25Z</time><name>PT7346</name></trkpt>
<trkpt lat="53.239923" lon="-1.803355"><ele>366</ele><time>2019-08-30T12:03:26Z</time><name>PT7347</name></trkpt>
<trkpt lat="53.239934" lon="-1.803351"><ele>366</ele><time>2019-08-30T12:03:27Z</time><name>PT7348</name></trkpt>
<trkpt lat="53.239946" lon="-1.803349"><ele>365</ele><time>2019-08-30T12:03:28Z</time><name>PT7349</name></trkpt>
<trkpt lat="53.239958" lon="-1.803343"><ele>366</ele><time>2019-08-30T12:03:29Z</time><name>PT7350</name></trkpt>
<trkpt lat="53.239971" lon="-1.803336"><ele>366</ele><time>2019-08-30T12:03:30Z</time><name>PT7351</name></trkpt>
<trkpt lat="53.239982" lon="-1.803328"><ele>366</ele><time>2019-08-30T12:03:31Z</time><name>PT7352</name></trkpt>
<trkpt lat="53.239990" lon="-1.803324"><ele>366</ele><time>2019-08-30T12:03:32Z</time><name>PT7353</name></trkpt>
<trkpt lat="53.240002" lon="-1.803322"><ele>366</ele><time>2019-08-30T12:03:33Z</time><name>PT7354</name></trkpt>
<trkpt lat="53.240015" lon="-1.803316"><ele>366</ele><time>2019-08-30T12:03:34Z</time><name>PT7355</name></trkpt>
<trkpt lat="53.240028" lon="-1.803309"><ele>366</ele><time>2019-08-30T12:03:35Z</time><name>PT7356</name></trkpt>
<trkpt lat="53.240040" lon="-1.803304"><ele>366</ele><time>2019-08-30T12:03:36Z</time><name>PT7357</name></trkpt>
<trkpt lat="53.240051" lon="-1.803302"><ele>367</ele><time>2019-08-30T12:03:37Z</time><name>PT7358</name></trkpt>
<trkpt lat="53.240061" lon="-1.803302"><ele>367</ele><time>2019-08-30T12:03:38Z</time><name>PT7359</name></trkpt>
<trkpt lat="53.240071" lon="-1.803299"><ele>367</ele><time>2019-08-30T12:03:39Z</time><name>PT7360</name></trkpt>
<trkpt lat="53.240080" lon="-1.803296"><ele>366</ele><time>2019-08-30T12:03:40Z</time><name>PT7361</name></trkpt>
<trkpt lat="53.240090" lon="-1.803294"><ele>367</ele><time>2019-08-30T12:03:41Z</time><name>PT7362</name></trkpt>
<trkpt lat="53.240101" lon="-1.803294"><ele>367</ele><time>2019-08-30T12:03:42Z</time><name>PT7363</name></trkpt>
<trkpt lat="53.240113" lon="-1.803291"><ele>367</ele><time>2019-08-30T12:03:43Z</time><name>PT7364</name></trkpt>
<trkpt lat="53.240120" lon="-1.803291"><ele>367</ele><time>2019-08-30T12:03:44Z</time><name>PT7365</name></trkpt>
<trkpt lat="53.240131" lon="-1.803291"><ele>367</ele><time>2019-08-30T12:03:46Z</time><name>PT7366</name></trkpt>
<trkpt lat="53.240144" lon="-1.803288"><ele>367</ele><time>2019-08-30T12:03:46Z</time><name>PT7367</name></trkpt>
<trkpt lat="53.240154" lon="-1.803283"><ele>367</ele><time>2019-08-30T12:03:47Z</time><name>PT7368</name></trkpt>
<trkpt lat="53.240165" lon="-1.803281"><ele>367</ele><time>2019-08-30T12:03:48Z</time><name>PT7369</name></trkpt>
<trkpt lat="53.240172" lon="-1.803279"><ele>367</ele><time>2019-08-30T12:03:49Z</time><name>PT7370</name></trkpt>
<trkpt lat="53.240183" lon="-1.803278"><ele>367</ele><time>2019-08-30T12:03:50Z</time><name>PT7371</name></trkpt>
<trkpt lat="53.240188" lon="-1.803283"><ele>367</ele><time>2019-08-30T12:03:51Z</time><name>PT7372</name></trkpt>
<trkpt lat="53.240197" lon="-1.803291"><ele>366</ele><time>2019-08-30T12:03:52Z</time><name>PT7373</name></trkpt>
<trkpt lat="53.240203" lon="-1.803292"><ele>365</ele><time>2019-08-30T12:03:53Z</time><name>PT7374</name></trkpt>
<trkpt lat="53.240209" lon="-1.803291"><ele>365</ele><time>2019-08-30T12:03:54Z</time><name>PT7375</name></trkpt>
<trkpt lat="53.240220" lon="-1.803286"><ele>366</ele><time>2019-08-30T12:03:55Z</time><name>PT7376</name></trkpt>
<trkpt lat="53.240235" lon="-1.803278"><ele>364</ele><time>2019-08-30T12:03:56Z</time><name>PT7377</name></trkpt>
<trkpt lat="53.240250" lon="-1.803270"><ele>364</ele><time>2019-08-30T12:03:57Z</time><name>PT7378</name></trkpt>
<trkpt lat="53.240258" lon="-1.803272"><ele>364</ele><time>2019-08-30T12:03:58Z</time><name>PT7379</name></trkpt>
<trkpt lat="53.240267" lon="-1.803274"><ele>365</ele><time>2019-08-30T12:03:59Z</time><name>PT7380</name></trkpt>
<trkpt lat="53.240282" lon="-1.803269"><ele>364</ele><time>2019-08-30T12:04:00Z</time><name>PT7381</name></trkpt>
<trkpt lat="53.240294" lon="-1.803264"><ele>364</ele><time>2019-08-30T12:04:01Z</time><name>PT7382</name></trkpt>
<trkpt lat="53.240306" lon="-1.803259"><ele>364</ele><time>2019-08-30T12:04:02Z</time><name>PT7383</name></trkpt>
<trkpt lat="53.240315" lon="-1.803252"><ele>364</ele><time>2019-08-30T12:04:03Z</time><name>PT7384</name></trkpt>
<trkpt lat="53.240332" lon="-1.803235"><ele>362</ele><time>2019-08-30T12:04:04Z</time><name>PT7385</name></trkpt>
<trkpt lat="53.240344" lon="-1.803224"><ele>362</ele><time>2019-08-30T12:04:05Z</time><name>PT7386</name></trkpt>
<trkpt lat="53.240357" lon="-1.803215"><ele>363</ele><time>2019-08-30T12:04:06Z</time><name>PT7387</name></trkpt>
<trkpt lat="53.240373" lon="-1.803208"><ele>364</ele><time>2019-08-30T12:04:07Z</time><name>PT7388</name></trkpt>
<trkpt lat="53.240389" lon="-1.803199"><ele>364</ele><time>2019-08-30T12:04:08Z</time><name>PT7389</name></trkpt>
<trkpt lat="53.240403" lon="-1.803190"><ele>363</ele><time>2019-08-30T12:04:09Z</time><name>PT7390</name></trkpt>
<trkpt lat="53.240414" lon="-1.803177"><ele>363</ele><time>2019-08-30T12:04:10Z</time><name>PT7391</name></trkpt>
<trkpt lat="53.240421" lon="-1.803166"><ele>363</ele><time>2019-08-30T12:04:11Z</time><name>PT7392</name></trkpt>
<trkpt lat="53.240437" lon="-1.803150"><ele>362</ele><time>2019-08-30T12:04:12Z</time><name>PT7393</name></trkpt>
<trkpt lat="53.240449" lon="-1.803135"><ele>362</ele><time>2019-08-30T12:04:13Z</time><name>PT7394</name></trkpt>
<trkpt lat="53.240463" lon="-1.803119"><ele>363</ele><time>2019-08-30T12:04:14Z</time><name>PT7395</name></trkpt>
<trkpt lat="53.240483" lon="-1.803115"><ele>364</ele><time>2019-08-30T12:04:15Z</time><name>PT7396</name></trkpt>
<trkpt lat="53.240513" lon="-1.803106"><ele>365</ele><time>2019-08-30T12:04:16Z</time><name>PT7397</name></trkpt>
<trkpt lat="53.240535" lon="-1.803094"><ele>366</ele><time>2019-08-30T12:04:17Z</time><name>PT7398</name></trkpt>
<trkpt lat="53.240549" lon="-1.803081"><ele>367</ele><time>2019-08-30T12:04:18Z</time><name>PT7399</name></trkpt>
<trkpt lat="53.240565" lon="-1.803075"><ele>367</ele><time>2019-08-30T12:04:19Z</time><name>PT7400</name></trkpt>
<trkpt lat="53.240582" lon="-1.803059"><ele>367</ele><time>2019-08-30T12:04:20Z</time><name>PT7401</name></trkpt>
<trkpt lat="53.240598" lon="-1.803042"><ele>366</ele><time>2019-08-30T12:04:21Z</time><name>PT7402</name></trkpt>
<trkpt lat="53.240609" lon="-1.803033"><ele>366</ele><time>2019-08-30T12:04:22Z</time><name>PT7403</name></trkpt>
<trkpt lat="53.240628" lon="-1.803018"><ele>366</ele><time>2019-08-30T12:04:23Z</time><name>PT7404</name></trkpt>
<trkpt lat="53.240637" lon="-1.803012"><ele>365</ele><time>2019-08-30T12:04:24Z</time><name>PT7405</name></trkpt>
<trkpt lat="53.240649" lon="-1.803001"><ele>365</ele><time>2019-08-30T12:04:25Z</time><name>PT7406</name></trkpt>
<trkpt lat="53.240663" lon="-1.802989"><ele>365</ele><time>2019-08-30T12:04:26Z</time><name>PT7407</name></trkpt>
<trkpt lat="53.240678" lon="-1.802970"><ele>365</ele><time>2019-08-30T12:04:27Z</time><name>PT7408</name></trkpt>
<trkpt lat="53.240691" lon="-1.802954"><ele>364</ele><time>2019-08-30T12:04:28Z</time><name>PT7409</name></trkpt>
<trkpt lat="53.240700" lon="-1.802943"><ele>364</ele><time>2019-08-30T12:04:29Z</time><name>PT7410</name></trkpt>
<trkpt lat="53.240713" lon="-1.802930"><ele>364</ele><time>2019-08-30T12:04:30Z</time><name>PT7411</name></trkpt>
<trkpt lat="53.240724" lon="-1.802920"><ele>364</ele><time>2019-08-30T12:04:31Z</time><name>PT7412</name></trkpt>
<trkpt lat="53.240736" lon="-1.802908"><ele>364</ele><time>2019-08-30T12:04:32Z</time><name>PT7413</name></trkpt>
<trkpt lat="53.240746" lon="-1.802895"><ele>364</ele><time>2019-08-30T12:04:33Z</time><name>PT7414</name></trkpt>
<trkpt lat="53.240758" lon="-1.802876"><ele>364</ele><time>2019-08-30T12:04:34Z</time><name>PT7415</name></trkpt>
<trkpt lat="53.240770" lon="-1.802861"><ele>364</ele><time>2019-08-30T12:04:35Z</time><name>PT7416</name></trkpt>
<trkpt lat="53.240779" lon="-1.802846"><ele>364</ele><time>2019-08-30T12:04:36Z</time><name>PT7417</name></trkpt>
<trkpt lat="53.240791" lon="-1.802828"><ele>364</ele><time>2019-08-30T12:04:37Z</time><name>PT7418</name></trkpt>
<trkpt lat="53.240804" lon="-1.802812"><ele>364</ele><time>2019-08-30T12:04:38Z</time><name>PT7419</name></trkpt>
<trkpt lat="53.240812" lon="-1.802807"><ele>363</ele><time>2019-08-30T12:04:39Z</time><name>PT7420</name></trkpt>
<trkpt lat="53.240823" lon="-1.802793"><ele>363</ele><time>2019-08-30T12:04:40Z</time><name>PT7421</name></trkpt>
<trkpt lat="53.240835" lon="-1.802777"><ele>362</ele><time>2019-08-30T12:04:41Z</time><name>PT7422</name></trkpt>
<trkpt lat="53.240843" lon="-1.802767"><ele>362</ele><time>2019-08-30T12:04:42Z</time><name>PT7423</name></trkpt>
<trkpt lat="53.240852" lon="-1.802754"><ele>362</ele><time>2019-08-30T12:04:43Z</time><name>PT7424</name></trkpt>
<trkpt lat="53.240861" lon="-1.802742"><ele>362</ele><time>2019-08-30T12:04:44Z</time><name>PT7425</name></trkpt>
<trkpt lat="53.240870" lon="-1.802734"><ele>361</ele><time>2019-08-30T12:04:45Z</time><name>PT7426</name></trkpt>
<trkpt lat="53.240881" lon="-1.802724"><ele>361</ele><time>2019-08-30T12:04:46Z</time><name>PT7427</name></trkpt>
<trkpt lat="53.240892" lon="-1.802714"><ele>361</ele><time>2019-08-30T12:04:47Z</time><name>PT7428</name></trkpt>
<trkpt lat="53.240899" lon="-1.802702"><ele>361</ele><time>2019-08-30T12:04:48Z</time><name>PT7429</name></trkpt>
<trkpt lat="53.240907" lon="-1.802685"><ele>361</ele><time>2019-08-30T12:04:49Z</time><name>PT7430</name></trkpt>
<trkpt lat="53.240914" lon="-1.802670"><ele>361</ele><time>2019-08-30T12:04:50Z</time><name>PT7431</name></trkpt>
<trkpt lat="53.240923" lon="-1.802654"><ele>362</ele><time>2019-08-30T12:04:51Z</time><name>PT7432</name></trkpt>
<trkpt lat="53.240928" lon="-1.802645"><ele>360</ele><time>2019-08-30T12:04:52Z</time><name>PT7433</name></trkpt>
<trkpt lat="53.240936" lon="-1.802637"><ele>359</ele><time>2019-08-30T12:04:53Z</time><name>PT7434</name></trkpt>
<trkpt lat="53.240945" lon="-1.802625"><ele>359</ele><time>2019-08-30T12:04:54Z</time><name>PT7435</name></trkpt>
<trkpt lat="53.240954" lon="-1.802608"><ele>359</ele><time>2019-08-30T12:04:55Z</time><name>PT7436</name></trkpt>
<trkpt lat="53.240966" lon="-1.802591"><ele>359</ele><time>2019-08-30T12:04:56Z</time><name>PT7437</name></trkpt>
<trkpt lat="53.240977" lon="-1.802571"><ele>360</ele><time>2019-08-30T12:04:57Z</time><name>PT7438</name></trkpt>
<trkpt lat="53.240989" lon="-1.802552"><ele>359</ele><time>2019-08-30T12:04:58Z</time><name>PT7439</name></trkpt>
<trkpt lat="53.240999" lon="-1.802537"><ele>359</ele><time>2019-08-30T12:04:59Z</time><name>PT7440</name></trkpt>
<trkpt lat="53.241005" lon="-1.802524"><ele>359</ele><time>2019-08-30T12:05:00Z</time><name>PT7441</name></trkpt>
<trkpt lat="53.241016" lon="-1.802501"><ele>360</ele><time>2019-08-30T12:05:01Z</time><name>PT7442</name></trkpt>
<trkpt lat="53.241028" lon="-1.802483"><ele>359</ele><time>2019-08-30T12:05:02Z</time><name>PT7443</name></trkpt>
<trkpt lat="53.241036" lon="-1.802469"><ele>359</ele><time>2019-08-30T12:05:03Z</time><name>PT7444</name></trkpt>
<trkpt lat="53.241042" lon="-1.802455"><ele>358</ele><time>2019-08-30T12:05:04Z</time><name>PT7445</name></trkpt>
<trkpt lat="53.241049" lon="-1.802443"><ele>358</ele><time>2019-08-30T12:05:05Z</time><name>PT7446</name></trkpt>
<trkpt lat="53.241057" lon="-1.802421"><ele>358</ele><time>2019-08-30T12:05:06Z</time><name>PT7447</name></trkpt>
<trkpt lat="53.241066" lon="-1.802401"><ele>358</ele><time>2019-08-30T12:05:07Z</time><name>PT7448</name></trkpt>
<trkpt lat="53.241073" lon="-1.802385"><ele>357</ele><time>2019-08-30T12:05:08Z</time><name>PT7449</name></trkpt>
<trkpt lat="53.241079" lon="-1.802365"><ele>358</ele><time>2019-08-30T12:05:09Z</time><name>PT7450</name></trkpt>
<trkpt lat="53.241076" lon="-1.802358"><ele>357</ele><time>2019-08-30T12:05:10Z</time><name>PT7451</name></trkpt>
<trkpt lat="53.241077" lon="-1.802338"><ele>357</ele><time>2019-08-30T12:05:11Z</time><name>PT7452</name></trkpt>
<trkpt lat="53.241083" lon="-1.802323"><ele>356</ele><time>2019-08-30T12:05:12Z</time><name>PT7453</name></trkpt>
<trkpt lat="53.241090" lon="-1.802307"><ele>356</ele><time>2019-08-30T12:05:13Z</time><name>PT7454</name></trkpt>
<trkpt lat="53.241102" lon="-1.802280"><ele>357</ele><time>2019-08-30T12:05:14Z</time><name>PT7455</name></trkpt>
<trkpt lat="53.241110" lon="-1.802259"><ele>357</ele><time>2019-08-30T12:05:15Z</time><name>PT7456</name></trkpt>
<trkpt lat="53.241116" lon="-1.802243"><ele>357</ele><time>2019-08-30T12:05:16Z</time><name>PT7457</name></trkpt>
<trkpt lat="53.241121" lon="-1.802219"><ele>357</ele><time>2019-08-30T12:05:17Z</time><name>PT7458</name></trkpt>
<trkpt lat="53.241127" lon="-1.802196"><ele>357</ele><time>2019-08-30T12:05:18Z</time><name>PT7459</name></trkpt>
<trkpt lat="53.241136" lon="-1.802174"><ele>357</ele><time>2019-08-30T12:05:19Z</time><name>PT7460</name></trkpt>
<trkpt lat="53.241145" lon="-1.802155"><ele>357</ele><time>2019-08-30T12:05:20Z</time><name>PT7461</name></trkpt>
<trkpt lat="53.241156" lon="-1.802136"><ele>356</ele><time>2019-08-30T12:05:21Z</time><name>PT7462</name></trkpt>
<trkpt lat="53.241167" lon="-1.802120"><ele>356</ele><time>2019-08-30T12:05:22Z</time><name>PT7463</name></trkpt>
<trkpt lat="53.241175" lon="-1.802103"><ele>356</ele><time>2019-08-30T12:05:23Z</time><name>PT7464</name></trkpt>
<trkpt lat="53.241180" lon="-1.802090"><ele>356</ele><time>2019-08-30T12:05:24Z</time><name>PT7465</name></trkpt>
<trkpt lat="53.241185" lon="-1.802070"><ele>356</ele><time>2019-08-30T12:05:25Z</time><name>PT7466</name></trkpt>
<trkpt lat="53.241189" lon="-1.802057"><ele>356</ele><time>2019-08-30T12:05:26Z</time><name>PT7467</name></trkpt>
<trkpt lat="53.241195" lon="-1.802037"><ele>356</ele><time>2019-08-30T12:05:27Z</time><name>PT7468</name></trkpt>
<trkpt lat="53.241202" lon="-1.802022"><ele>355</ele><time>2019-08-30T12:05:28Z</time><name>PT7469</name></trkpt>
<trkpt lat="53.241211" lon="-1.801999"><ele>355</ele><time>2019-08-30T12:05:29Z</time><name>PT7470</name></trkpt>
<trkpt lat="53.241219" lon="-1.801979"><ele>355</ele><time>2019-08-30T12:05:30Z</time><name>PT7471</name></trkpt>
<trkpt lat="53.241224" lon="-1.801960"><ele>355</ele><time>2019-08-30T12:05:31Z</time><name>PT7472</name></trkpt>
<trkpt lat="53.241229" lon="-1.801940"><ele>355</ele><time>2019-08-30T12:05:32Z</time><name>PT7473</name></trkpt>
<trkpt lat="53.241238" lon="-1.801925"><ele>355</ele><time>2019-08-30T12:05:33Z</time><name>PT7474</name></trkpt>
<trkpt lat="53.241246" lon="-1.801904"><ele>354</ele><time>2019-08-30T12:05:34Z</time><name>PT7475</name></trkpt>
<trkpt lat="53.241254" lon="-1.801890"><ele>354</ele><time>2019-08-30T12:05:35Z</time><name>PT7476</name></trkpt>
<trkpt lat="53.241260" lon="-1.801876"><ele>354</ele><time>2019-08-30T12:05:36Z</time><name>PT7477</name></trkpt>
<trkpt lat="53.241269" lon="-1.801856"><ele>354</ele><time>2019-08-30T12:05:37Z</time><name>PT7478</name></trkpt>
<trkpt lat="53.241279" lon="-1.801818"><ele>355</ele><time>2019-08-30T12:05:38Z</time><name>PT7479</name></trkpt>
<trkpt lat="53.241288" lon="-1.801799"><ele>354</ele><time>2019-08-30T12:05:39Z</time><name>PT7480</name></trkpt>
<trkpt lat="53.241298" lon="-1.801781"><ele>354</ele><time>2019-08-30T12:05:40Z</time><name>PT7481</name></trkpt>
<trkpt lat="53.241307" lon="-1.801761"><ele>354</ele><time>2019-08-30T12:05:41Z</time><name>PT7482</name></trkpt>
<trkpt lat="53.241312" lon="-1.801736"><ele>354</ele><time>2019-08-30T12:05:42Z</time><name>PT7483</name></trkpt>
<trkpt lat="53.241315" lon="-1.801721"><ele>354</ele><time>2019-08-30T12:05:43Z</time><name>PT7484</name></trkpt>
<trkpt lat="53.241322" lon="-1.801704"><ele>354</ele><time>2019-08-30T12:05:44Z</time><name>PT7485</name></trkpt>
<trkpt lat="53.241333" lon="-1.801687"><ele>354</ele><time>2019-08-30T12:05:45Z</time><name>PT7486</name></trkpt>
<trkpt lat="53.241337" lon="-1.801673"><ele>354</ele><time>2019-08-30T12:05:46Z</time><name>PT7487</name></trkpt>
<trkpt lat="53.241341" lon="-1.801659"><ele>354</ele><time>2019-08-30T12:05:47Z</time><name>PT7488</name></trkpt>
<trkpt lat="53.241346" lon="-1.801639"><ele>354</ele><time>2019-08-30T12:05:48Z</time><name>PT7489</name></trkpt>
<trkpt lat="53.241346" lon="-1.801621"><ele>354</ele><time>2019-08-30T12:05:49Z</time><name>PT7490</name></trkpt>
<trkpt lat="53.241348" lon="-1.801607"><ele>354</ele><time>2019-08-30T12:05:50Z</time><name>PT7491</name></trkpt>
<trkpt lat="53.241351" lon="-1.801592"><ele>354</ele><time>2019-08-30T12:05:51Z</time><name>PT7492</name></trkpt>
<trkpt lat="53.241354" lon="-1.801575"><ele>353</ele><time>2019-08-30T12:05:52Z</time><name>PT7493</name></trkpt>
<trkpt lat="53.241355" lon="-1.801563"><ele>352</ele><time>2019-08-30T12:05:53Z</time><name>PT7494</name></trkpt>
<trkpt lat="53.241354" lon="-1.801551"><ele>352</ele><time>2019-08-30T12:05:54Z</time><name>PT7495</name></trkpt>
<trkpt lat="53.241353" lon="-1.801542"><ele>351</ele><time>2019-08-30T12:05:55Z</time><name>PT7496</name></trkpt>
<trkpt lat="53.241359" lon="-1.801526"><ele>351</ele><time>2019-08-30T12:05:56Z</time><name>PT7497</name></trkpt>
<trkpt lat="53.241363" lon="-1.801520"><ele>349</ele><time>2019-08-30T12:05:57Z</time><name>PT7498</name></trkpt>
<trkpt lat="53.241368" lon="-1.801513"><ele>349</ele><time>2019-08-30T12:05:58Z</time><name>PT7499</name></trkpt>
<trkpt lat="53.241374" lon="-1.801502"><ele>348</ele><time>2019-08-30T12:05:59Z</time><name>PT7500</name></trkpt>
<trkpt lat="53.241382" lon="-1.801487"><ele>347</ele><time>2019-08-30T12:06:00Z</time><name>PT7501</name></trkpt>
<trkpt lat="53.241388" lon="-1.801468"><ele>347</ele><time>2019-08-30T12:06:01Z</time><name>PT7502</name></trkpt>
<trkpt lat="53.241396" lon="-1.801453"><ele>347</ele><time>2019-08-30T12:06:02Z</time><name>PT7503</name></trkpt>
<trkpt lat="53.241403" lon="-1.801434"><ele>346</ele><time>2019-08-30T12:06:03Z</time><name>PT7504</name></trkpt>
<trkpt lat="53.241409" lon="-1.801402"><ele>347</ele><time>2019-08-30T12:06:04Z</time><name>PT7505</name></trkpt>
<trkpt lat="53.241413" lon="-1.801385"><ele>346</ele><time>2019-08-30T12:06:05Z</time><name>PT7506</name></trkpt>
<trkpt lat="53.241419" lon="-1.801364"><ele>347</ele><time>2019-08-30T12:06:06Z</time><name>PT7507</name></trkpt>
<trkpt lat="53.241424" lon="-1.801336"><ele>347</ele><time>2019-08-30T12:06:07Z</time><name>PT7508</name></trkpt>
<trkpt lat="53.241429" lon="-1.801280"><ele>349</ele><time>2019-08-30T12:06:08Z</time><name>PT7509</name></trkpt>
<trkpt lat="53.241436" lon="-1.801236"><ele>351</ele><time>2019-08-30T12:06:09Z</time><name>PT7510</name></trkpt>
<trkpt lat="53.241440" lon="-1.801208"><ele>351</ele><time>2019-08-30T12:06:10Z</time><name>PT7511</name></trkpt>
<trkpt lat="53.241443" lon="-1.801189"><ele>351</ele><time>2019-08-30T12:06:11Z</time><name>PT7512</name></trkpt>
<trkpt lat="53.241447" lon="-1.801160"><ele>352</ele><time>2019-08-30T12:06:12Z</time><name>PT7513</name></trkpt>
<trkpt lat="53.241446" lon="-1.801131"><ele>353</ele><time>2019-08-30T12:06:13Z</time><name>PT7514</name></trkpt>
<trkpt lat="53.241445" lon="-1.801102"><ele>354</ele><time>2019-08-30T12:06:14Z</time><name>PT7515</name></trkpt>
<trkpt lat="53.241447" lon="-1.801081"><ele>355</ele><time>2019-08-30T12:06:15Z</time><name>PT7516</name></trkpt>
<trkpt lat="53.241452" lon="-1.801061"><ele>355</ele><time>2019-08-30T12:06:16Z</time><name>PT7517</name></trkpt>
<trkpt lat="53.241462" lon="-1.801032"><ele>355</ele><time>2019-08-30T12:06:17Z</time><name>PT7518</name></trkpt>
<trkpt lat="53.241465" lon="-1.801008"><ele>356</ele><time>2019-08-30T12:06:18Z</time><name>PT7519</name></trkpt>
<trkpt lat="53.241469" lon="-1.800996"><ele>355</ele><time>2019-08-30T12:06:19Z</time><name>PT7520</name></trkpt>
<trkpt lat="53.241474" lon="-1.800972"><ele>354</ele><time>2019-08-30T12:06:20Z</time><name>PT7521</name></trkpt>
<trkpt lat="53.241478" lon="-1.800962"><ele>353</ele><time>2019-08-30T12:06:21Z</time><name>PT7522</name></trkpt>
<trkpt lat="53.241480" lon="-1.800941"><ele>353</ele><time>2019-08-30T12:06:22Z</time><name>PT7523</name></trkpt>
<trkpt lat="53.241488" lon="-1.800919"><ele>353</ele><time>2019-08-30T12:06:23Z</time><name>PT7524</name></trkpt>
<trkpt lat="53.241493" lon="-1.800897"><ele>352</ele><time>2019-08-30T12:06:24Z</time><name>PT7525</name></trkpt>
<trkpt lat="53.241496" lon="-1.800888"><ele>352</ele><time>2019-08-30T12:06:25Z</time><name>PT7526</name></trkpt>
<trkpt lat="53.241502" lon="-1.800872"><ele>351</ele><time>2019-08-30T12:06:26Z</time><name>PT7527</name></trkpt>
<trkpt lat="53.241507" lon="-1.800851"><ele>351</ele><time>2019-08-30T12:06:27Z</time><name>PT7528</name></trkpt>
<trkpt lat="53.241512" lon="-1.800832"><ele>350</ele><time>2019-08-30T12:06:28Z</time><name>PT7529</name></trkpt>
<trkpt lat="53.241518" lon="-1.800813"><ele>350</ele><time>2019-08-30T12:06:29Z</time><name>PT7530</name></trkpt>
<trkpt lat="53.241524" lon="-1.800803"><ele>349</ele><time>2019-08-30T12:06:30Z</time><name>PT7531</name></trkpt>
<trkpt lat="53.241529" lon="-1.800778"><ele>349</ele><time>2019-08-30T12:06:31Z</time><name>PT7532</name></trkpt>
<trkpt lat="53.241533" lon="-1.800755"><ele>349</ele><time>2019-08-30T12:06:32Z</time><name>PT7533</name></trkpt>
<trkpt lat="53.241540" lon="-1.800724"><ele>350</ele><time>2019-08-30T12:06:33Z</time><name>PT7534</name></trkpt>
<trkpt lat="53.241543" lon="-1.800707"><ele>350</ele><time>2019-08-30T12:06:34Z</time><name>PT7535</name></trkpt>
<trkpt lat="53.241549" lon="-1.800686"><ele>349</ele><time>2019-08-30T12:06:35Z</time><name>PT7536</name></trkpt>
<trkpt lat="53.241554" lon="-1.800665"><ele>349</ele><time>2019-08-30T12:06:36Z</time><name>PT7537</name></trkpt>
<trkpt lat="53.241562" lon="-1.800627"><ele>350</ele><time>2019-08-30T12:06:37Z</time><name>PT7538</name></trkpt>
<trkpt lat="53.241568" lon="-1.800607"><ele>350</ele><time>2019-08-30T12:06:38Z</time><name>PT7539</name></trkpt>
<trkpt lat="53.241574" lon="-1.800583"><ele>351</ele><time>2019-08-30T12:06:39Z</time><name>PT7540</name></trkpt>
<trkpt lat="53.241581" lon="-1.800534"><ele>353</ele><time>2019-08-30T12:06:40Z</time><name>PT7541</name></trkpt>
<trkpt lat="53.241585" lon="-1.800517"><ele>352</ele><time>2019-08-30T12:06:41Z</time><name>PT7542</name></trkpt>
<trkpt lat="53.241587" lon="-1.800493"><ele>353</ele><time>2019-08-30T12:06:42Z</time><name>PT7543</name></trkpt>
<trkpt lat="53.241590" lon="-1.800460"><ele>353</ele><time>2019-08-30T12:06:43Z</time><name>PT7544</name></trkpt>
<trkpt lat="53.241594" lon="-1.800430"><ele>353</ele><time>2019-08-30T12:06:44Z</time><name>PT7545</name></trkpt>
<trkpt lat="53.241600" lon="-1.800403"><ele>353</ele><time>2019-08-30T12:06:45Z</time><name>PT7546</name></trkpt>
<trkpt lat="53.241607" lon="-1.800382"><ele>353</ele><time>2019-08-30T12:06:46Z</time><name>PT7547</name></trkpt>
<trkpt lat="53.241613" lon="-1.800353"><ele>353</ele><time>2019-08-30T12:06:47Z</time><name>PT7548</name></trkpt>
<trkpt lat="53.241617" lon="-1.800324"><ele>354</ele><time>2019-08-30T12:06:48Z</time><name>PT7549</name></trkpt>
<trkpt lat="53.241619" lon="-1.800297"><ele>354</ele><time>2019-08-30T12:06:49Z</time><name>PT7550</name></trkpt>
<trkpt lat="53.241623" lon="-1.800268"><ele>354</ele><time>2019-08-30T12:06:50Z</time><name>PT7551</name></trkpt>
<trkpt lat="53.241629" lon="-1.800241"><ele>354</ele><time>2019-08-30T12:06:51Z</time><name>PT7552</name></trkpt>
<trkpt lat="53.241634" lon="-1.800216"><ele>355</ele><time>2019-08-30T12:06:52Z</time><name>PT7553</name></trkpt>
<trkpt lat="53.241638" lon="-1.800196"><ele>354</ele><time>2019-08-30T12:06:53Z</time><name>PT7554</name></trkpt>
<trkpt lat="53.241642" lon="-1.800173"><ele>354</ele><time>2019-08-30T12:06:54Z</time><name>PT7555</name></trkpt>
<trkpt lat="53.241645" lon="-1.800150"><ele>354</ele><time>2019-08-30T12:06:55Z</time><name>PT7556</name></trkpt>
<trkpt lat="53.241649" lon="-1.800126"><ele>354</ele><time>2019-08-30T12:06:56Z</time><name>PT7557</name></trkpt>
<trkpt lat="53.241653" lon="-1.800103"><ele>354</ele><time>2019-08-30T12:06:57Z</time><name>PT7558</name></trkpt>
<trkpt lat="53.241654" lon="-1.800078"><ele>355</ele><time>2019-08-30T12:06:58Z</time><name>PT7559</name></trkpt>
<trkpt lat="53.241657" lon="-1.800061"><ele>354</ele><time>2019-08-30T12:06:59Z</time><name>PT7560</name></trkpt>
<trkpt lat="53.241662" lon="-1.800040"><ele>354</ele><time>2019-08-30T12:07:00Z</time><name>PT7561</name></trkpt>
<trkpt lat="53.241668" lon="-1.800019"><ele>354</ele><time>2019-08-30T12:07:01Z</time><name>PT7562</name></trkpt>
<trkpt lat="53.241673" lon="-1.799997"><ele>354</ele><time>2019-08-30T12:07:02Z</time><name>PT7563</name></trkpt>
<trkpt lat="53.241675" lon="-1.799979"><ele>353</ele><time>2019-08-30T12:07:03Z</time><name>PT7564</name></trkpt>
<trkpt lat="53.241680" lon="-1.799959"><ele>353</ele><time>2019-08-30T12:07:04Z</time><name>PT7565</name></trkpt>
<trkpt lat="53.241685" lon="-1.799938"><ele>353</ele><time>2019-08-30T12:07:05Z</time><name>PT7566</name></trkpt>
<trkpt lat="53.241692" lon="-1.799922"><ele>352</ele><time>2019-08-30T12:07:06Z</time><name>PT7567</name></trkpt>
<trkpt lat="53.241696" lon="-1.799911"><ele>352</ele><time>2019-08-30T12:07:07Z</time><name>PT7568</name></trkpt>
<trkpt lat="53.241701" lon="-1.799895"><ele>352</ele><time>2019-08-30T12:07:08Z</time><name>PT7569</name></trkpt>
<trkpt lat="53.241708" lon="-1.799877"><ele>352</ele><time>2019-08-30T12:07:09Z</time><name>PT7570</name></trkpt>
<trkpt lat="53.241710" lon="-1.799851"><ele>353</ele><time>2019-08-30T12:07:10Z</time><name>PT7571</name></trkpt>
<trkpt lat="53.241715" lon="-1.799830"><ele>353</ele><time>2019-08-30T12:07:11Z</time><name>PT7572</name></trkpt>
<trkpt lat="53.241721" lon="-1.799809"><ele>353</ele><time>2019-08-30T12:07:12Z</time><name>PT7573</name></trkpt>
<trkpt lat="53.241728" lon="-1.799789"><ele>353</ele><time>2019-08-30T12:07:13Z</time><name>PT7574</name></trkpt>
<trkpt lat="53.241733" lon="-1.799772"><ele>352</ele><time>2019-08-30T12:07:14Z</time><name>PT7575</name></trkpt>
<trkpt lat="53.241741" lon="-1.799757"><ele>352</ele><time>2019-08-30T12:07:15Z</time><name>PT7576</name></trkpt>
<trkpt lat="53.241747" lon="-1.799740"><ele>352</ele><time>2019-08-30T12:07:16Z</time><name>PT7577</name></trkpt>
<trkpt lat="53.241752" lon="-1.799722"><ele>352</ele><time>2019-08-30T12:07:17Z</time><name>PT7578</name></trkpt>
<trkpt lat="53.241757" lon="-1.799704"><ele>351</ele><time>2019-08-30T12:07:18Z</time><name>PT7579</name></trkpt>
<trkpt lat="53.241760" lon="-1.799687"><ele>351</ele><time>2019-08-30T12:07:19Z</time><name>PT7580</name></trkpt>
<trkpt lat="53.241764" lon="-1.799668"><ele>351</ele><time>2019-08-30T12:07:20Z</time><name>PT7581</name></trkpt>
<trkpt lat="53.241768" lon="-1.799647"><ele>351</ele><time>2019-08-30T12:07:21Z</time><name>PT7582</name></trkpt>
<trkpt lat="53.241773" lon="-1.799627"><ele>352</ele><time>2019-08-30T12:07:22Z</time><name>PT7583</name></trkpt>
<trkpt lat="53.241773" lon="-1.799589"><ele>353</ele><time>2019-08-30T12:07:23Z</time><name>PT7584</name></trkpt>
<trkpt lat="53.241777" lon="-1.799552"><ele>353</ele><time>2019-08-30T12:07:24Z</time><name>PT7585</name></trkpt>
<trkpt lat="53.241778" lon="-1.799518"><ele>353</ele><time>2019-08-30T12:07:25Z</time><name>PT7586</name></trkpt>
<trkpt lat="53.241783" lon="-1.799497"><ele>352</ele><time>2019-08-30T12:07:26Z</time><name>PT7587</name></trkpt>
<trkpt lat="53.241787" lon="-1.799473"><ele>353</ele><time>2019-08-30T12:07:27Z</time><name>PT7588</name></trkpt>
<trkpt lat="53.241789" lon="-1.799450"><ele>352</ele><time>2019-08-30T12:07:28Z</time><name>PT7589</name></trkpt>
<trkpt lat="53.241794" lon="-1.799432"><ele>352</ele><time>2019-08-30T12:07:29Z</time><name>PT7590</name></trkpt>
<trkpt lat="53.241795" lon="-1.799407"><ele>352</ele><time>2019-08-30T12:07:30Z</time><name>PT7591</name></trkpt>
<trkpt lat="53.241796" lon="-1.799383"><ele>352</ele><time>2019-08-30T12:07:31Z</time><name>PT7592</name></trkpt>
<trkpt lat="53.241800" lon="-1.799367"><ele>352</ele><time>2019-08-30T12:07:32Z</time><name>PT7593</name></trkpt>
<trkpt lat="53.241806" lon="-1.799348"><ele>352</ele><time>2019-08-30T12:07:33Z</time><name>PT7594</name></trkpt>
<trkpt lat="53.241813" lon="-1.799334"><ele>352</ele><time>2019-08-30T12:07:34Z</time><name>PT7595</name></trkpt>
<trkpt lat="53.241819" lon="-1.799319"><ele>352</ele><time>2019-08-30T12:07:35Z</time><name>PT7596</name></trkpt>
<trkpt lat="53.241823" lon="-1.799304"><ele>351</ele><time>2019-08-30T12:07:36Z</time><name>PT7597</name></trkpt>
<trkpt lat="53.241827" lon="-1.799291"><ele>351</ele><time>2019-08-30T12:07:37Z</time><name>PT7598</name></trkpt>
<trkpt lat="53.241828" lon="-1.799280"><ele>350</ele><time>2019-08-30T12:07:38Z</time><name>PT7599</name></trkpt>
<trkpt lat="53.241832" lon="-1.799268"><ele>350</ele><time>2019-08-30T12:07:39Z</time><name>PT7600</name></trkpt>
<trkpt lat="53.241836" lon="-1.799256"><ele>350</ele><time>2019-08-30T12:07:40Z</time><name>PT7601</name></trkpt>
<trkpt lat="53.241839" lon="-1.799242"><ele>350</ele><time>2019-08-30T12:07:41Z</time><name>PT7602</name></trkpt>
<trkpt lat="53.241841" lon="-1.799225"><ele>350</ele><time>2019-08-30T12:07:42Z</time><name>PT7603</name></trkpt>
<trkpt lat="53.241843" lon="-1.799208"><ele>349</ele><time>2019-08-30T12:07:43Z</time><name>PT7604</name></trkpt>
<trkpt lat="53.241846" lon="-1.799189"><ele>349</ele><time>2019-08-30T12:07:44Z</time><name>PT7605</name></trkpt>
<trkpt lat="53.241850" lon="-1.799166"><ele>349</ele><time>2019-08-30T12:07:45Z</time><name>PT7606</name></trkpt>
<trkpt lat="53.241853" lon="-1.799145"><ele>349</ele><time>2019-08-30T12:07:46Z</time><name>PT7607</name></trkpt>
<trkpt lat="53.241857" lon="-1.799120"><ele>349</ele><time>2019-08-30T12:07:47Z</time><name>PT7608</name></trkpt>
<trkpt lat="53.241863" lon="-1.799094"><ele>349</ele><time>2019-08-30T12:07:48Z</time><name>PT7609</name></trkpt>
<trkpt lat="53.241868" lon="-1.799079"><ele>348</ele><time>2019-08-30T12:07:49Z</time><name>PT7610</name></trkpt>
<trkpt lat="53.241871" lon="-1.799062"><ele>349</ele><time>2019-08-30T12:07:50Z</time><name>PT7611</name></trkpt>
<trkpt lat="53.241874" lon="-1.799042"><ele>349</ele><time>2019-08-30T12:07:51Z</time><name>PT7612</name></trkpt>
<trkpt lat="53.241879" lon="-1.799026"><ele>348</ele><time>2019-08-30T12:07:52Z</time><name>PT7613</name></trkpt>
<trkpt lat="53.241883" lon="-1.799007"><ele>348</ele><time>2019-08-30T12:07:53Z</time><name>PT7614</name></trkpt>
<trkpt lat="53.241889" lon="-1.798991"><ele>348</ele><time>2019-08-30T12:07:54Z</time><name>PT7615</name></trkpt>
<trkpt lat="53.241894" lon="-1.798969"><ele>348</ele><time>2019-08-30T12:07:55Z</time><name>PT7616</name></trkpt>
<trkpt lat="53.241903" lon="-1.798952"><ele>348</ele><time>2019-08-30T12:07:56Z</time><name>PT7617</name></trkpt>
<trkpt lat="53.241910" lon="-1.798929"><ele>348</ele><time>2019-08-30T12:07:57Z</time><name>PT7618</name></trkpt>
<trkpt lat="53.241915" lon="-1.798902"><ele>348</ele><time>2019-08-30T12:07:58Z</time><name>PT7619</name></trkpt>
<trkpt lat="53.241920" lon="-1.798877"><ele>348</ele><time>2019-08-30T12:07:59Z</time><name>PT7620</name></trkpt>
<trkpt lat="53.241926" lon="-1.798860"><ele>348</ele><time>2019-08-30T12:08:00Z</time><name>PT7621</name></trkpt>
<trkpt lat="53.241934" lon="-1.798843"><ele>348</ele><time>2019-08-30T12:08:01Z</time><name>PT7622</name></trkpt>
<trkpt lat="53.241940" lon="-1.798824"><ele>348</ele><time>2019-08-30T12:08:02Z</time><name>PT7623</name></trkpt>
<trkpt lat="53.241949" lon="-1.798810"><ele>348</ele><time>2019-08-30T12:08:03Z</time><name>PT7624</name></trkpt>
<trkpt lat="53.241959" lon="-1.798790"><ele>348</ele><time>2019-08-30T12:08:04Z</time><name>PT7625</name></trkpt>
<trkpt lat="53.241966" lon="-1.798766"><ele>349</ele><time>2019-08-30T12:08:05Z</time><name>PT7626</name></trkpt>
<trkpt lat="53.241973" lon="-1.798744"><ele>350</ele><time>2019-08-30T12:08:06Z</time><name>PT7627</name></trkpt>
<trkpt lat="53.241981" lon="-1.798724"><ele>350</ele><time>2019-08-30T12:08:07Z</time><name>PT7628</name></trkpt>
<trkpt lat="53.241990" lon="-1.798708"><ele>350</ele><time>2019-08-30T12:08:08Z</time><name>PT7629</name></trkpt>
<trkpt lat="53.241999" lon="-1.798692"><ele>350</ele><time>2019-08-30T12:08:09Z</time><name>PT7630</name></trkpt>
<trkpt lat="53.242011" lon="-1.798676"><ele>350</ele><time>2019-08-30T12:08:10Z</time><name>PT7631</name></trkpt>
<trkpt lat="53.242021" lon="-1.798668"><ele>350</ele><time>2019-08-30T12:08:11Z</time><name>PT7632</name></trkpt>
<trkpt lat="53.242031" lon="-1.798655"><ele>350</ele><time>2019-08-30T12:08:12Z</time><name>PT7633</name></trkpt>
<trkpt lat="53.242041" lon="-1.798645"><ele>350</ele><time>2019-08-30T12:08:13Z</time><name>PT7634</name></trkpt>
<trkpt lat="53.242053" lon="-1.798631"><ele>350</ele><time>2019-08-30T12:08:14Z</time><name>PT7635</name></trkpt>
<trkpt lat="53.242061" lon="-1.798622"><ele>350</ele><time>2019-08-30T12:08:15Z</time><name>PT7636</name></trkpt>
<trkpt lat="53.242069" lon="-1.798617"><ele>349</ele><time>2019-08-30T12:08:16Z</time><name>PT7637</name></trkpt>
<trkpt lat="53.242078" lon="-1.798604"><ele>349</ele><time>2019-08-30T12:08:17Z</time><name>PT7638</name></trkpt>
<trkpt lat="53.242087" lon="-1.798587"><ele>350</ele><time>2019-08-30T12:08:18Z</time><name>PT7639</name></trkpt>
<trkpt lat="53.242094" lon="-1.798572"><ele>350</ele><time>2019-08-30T12:08:19Z</time><name>PT7640</name></trkpt>
<trkpt lat="53.242104" lon="-1.798538"><ele>351</ele><time>2019-08-30T12:08:20Z</time><name>PT7641</name></trkpt>
<trkpt lat="53.242117" lon="-1.798522"><ele>351</ele><time>2019-08-30T12:08:21Z</time><name>PT7642</name></trkpt>
<trkpt lat="53.242128" lon="-1.798512"><ele>351</ele><time>2019-08-30T12:08:22Z</time><name>PT7643</name></trkpt>
<trkpt lat="53.242140" lon="-1.798503"><ele>351</ele><time>2019-08-30T12:08:23Z</time><name>PT7644</name></trkpt>
<trkpt lat="53.242150" lon="-1.798501"><ele>350</ele><time>2019-08-30T12:08:24Z</time><name>PT7645</name></trkpt>
<trkpt lat="53.242162" lon="-1.798494"><ele>350</ele><time>2019-08-30T12:08:25Z</time><name>PT7646</name></trkpt>
<trkpt lat="53.242171" lon="-1.798485"><ele>349</ele><time>2019-08-30T12:08:26Z</time><name>PT7647</name></trkpt>
<trkpt lat="53.242181" lon="-1.798479"><ele>349</ele><time>2019-08-30T12:08:27Z</time><name>PT7648</name></trkpt>
<trkpt lat="53.242192" lon="-1.798470"><ele>349</ele><time>2019-08-30T12:08:28Z</time><name>PT7649</name></trkpt>
<trkpt lat="53.242205" lon="-1.798459"><ele>349</ele><time>2019-08-30T12:08:29Z</time><name>PT7650</name></trkpt>
<trkpt lat="53.242216" lon="-1.798453"><ele>348</ele><time>2019-08-30T12:08:30Z</time><name>PT7651</name></trkpt>
<trkpt lat="53.242227" lon="-1.798445"><ele>350</ele><time>2019-08-30T12:08:31Z</time><name>PT7652</name></trkpt>
<trkpt lat="53.242241" lon="-1.798432"><ele>351</ele><time>2019-08-30T12:08:32Z</time><name>PT7653</name></trkpt>
<trkpt lat="53.242253" lon="-1.798417"><ele>351</ele><time>2019-08-30T12:08:33Z</time><name>PT7654</name></trkpt>
<trkpt lat="53.242262" lon="-1.798409"><ele>351</ele><time>2019-08-30T12:08:34Z</time><name>PT7655</name></trkpt>
<trkpt lat="53.242272" lon="-1.798403"><ele>351</ele><time>2019-08-30T12:08:35Z</time><name>PT7656</name></trkpt>
<trkpt lat="53.242284" lon="-1.798385"><ele>351</ele><time>2019-08-30T12:08:36Z</time><name>PT7657</name></trkpt>
<trkpt lat="53.242298" lon="-1.798364"><ele>351</ele><time>2019-08-30T12:08:37Z</time><name>PT7658</name></trkpt>
<trkpt lat="53.242308" lon="-1.798353"><ele>351</ele><time>2019-08-30T12:08:38Z</time><name>PT7659</name></trkpt>
<trkpt lat="53.242319" lon="-1.798343"><ele>351</ele><time>2019-08-30T12:08:39Z</time><name>PT7660</name></trkpt>
<trkpt lat="53.242332" lon="-1.798333"><ele>350</ele><time>2019-08-30T12:08:40Z</time><name>PT7661</name></trkpt>
<trkpt lat="53.242345" lon="-1.798325"><ele>350</ele><time>2019-08-30T12:08:41Z</time><name>PT7662</name></trkpt>
<trkpt lat="53.242355" lon="-1.798312"><ele>350</ele><time>2019-08-30T12:08:42Z</time><name>PT7663</name></trkpt>
<trkpt lat="53.242366" lon="-1.798297"><ele>350</ele><time>2019-08-30T12:08:43Z</time><name>PT7664</name></trkpt>
<trkpt lat="53.242379" lon="-1.798272"><ele>350</ele><time>2019-08-30T12:08:44Z</time><name>PT7665</name></trkpt>
<trkpt lat="53.242394" lon="-1.798254"><ele>350</ele><time>2019-08-30T12:08:45Z</time><name>PT7666</name></trkpt>
<trkpt lat="53.242409" lon="-1.798239"><ele>350</ele><time>2019-08-30T12:08:46Z</time><name>PT7667</name></trkpt>
<trkpt lat="53.242419" lon="-1.798231"><ele>349</ele><time>2019-08-30T12:08:47Z</time><name>PT7668</name></trkpt>
<trkpt lat="53.242432" lon="-1.798221"><ele>349</ele><time>2019-08-30T12:08:48Z</time><name>PT7669</name></trkpt>
<trkpt lat="53.242443" lon="-1.798207"><ele>349</ele><time>2019-08-30T12:08:49Z</time><name>PT7670</name></trkpt>
<trkpt lat="53.242453" lon="-1.798196"><ele>348</ele><time>2019-08-30T12:08:50Z</time><name>PT7671</name></trkpt>
<trkpt lat="53.242464" lon="-1.798180"><ele>349</ele><time>2019-08-30T12:08:51Z</time><name>PT7672</name></trkpt>
<trkpt lat="53.242476" lon="-1.798164"><ele>349</ele><time>2019-08-30T12:08:52Z</time><name>PT7673</name></trkpt>
<trkpt lat="53.242490" lon="-1.798152"><ele>349</ele><time>2019-08-30T12:08:53Z</time><name>PT7674</name></trkpt>
<trkpt lat="53.242501" lon="-1.798141"><ele>349</ele><time>2019-08-30T12:08:54Z</time><name>PT7675</name></trkpt>
<trkpt lat="53.242513" lon="-1.798130"><ele>349</ele><time>2019-08-30T12:08:55Z</time><name>PT7676</name></trkpt>
<trkpt lat="53.242526" lon="-1.798119"><ele>349</ele><time>2019-08-30T12:08:56Z</time><name>PT7677</name></trkpt>
<trkpt lat="53.242536" lon="-1.798108"><ele>348</ele><time>2019-08-30T12:08:57Z</time><name>PT7678</name></trkpt>
<trkpt lat="53.242547" lon="-1.798090"><ele>349</ele><time>2019-08-30T12:08:58Z</time><name>PT7679</name></trkpt>
<trkpt lat="53.242561" lon="-1.798069"><ele>349</ele><time>2019-08-30T12:08:59Z</time><name>PT7680</name></trkpt>
<trkpt lat="53.242572" lon="-1.798054"><ele>349</ele><time>2019-08-30T12:09:00Z</time><name>PT7681</name></trkpt>
<trkpt lat="53.242582" lon="-1.798044"><ele>349</ele><time>2019-08-30T12:09:01Z</time><name>PT7682</name></trkpt>
<trkpt lat="53.242596" lon="-1.798031"><ele>349</ele><time>2019-08-30T12:09:02Z</time><name>PT7683</name></trkpt>
<trkpt lat="53.242607" lon="-1.798016"><ele>349</ele><time>2019-08-30T12:09:03Z</time><name>PT7684</name></trkpt>
<trkpt lat="53.242616" lon="-1.798000"><ele>349</ele><time>2019-08-30T12:09:04Z</time><name>PT7685</name></trkpt>
<trkpt lat="53.242627" lon="-1.797983"><ele>349</ele><time>2019-08-30T12:09:05Z</time><name>PT7686</name></trkpt>
<trkpt lat="53.242638" lon="-1.797968"><ele>349</ele><time>2019-08-30T12:09:06Z</time><name>PT7687</name></trkpt>
<trkpt lat="53.242648" lon="-1.797954"><ele>349</ele><time>2019-08-30T12:09:07Z</time><name>PT7688</name></trkpt>
<trkpt lat="53.242659" lon="-1.797942"><ele>348</ele><time>2019-08-30T12:09:08Z</time><name>PT7689</name></trkpt>
<trkpt lat="53.242671" lon="-1.797927"><ele>348</ele><time>2019-08-30T12:09:09Z</time><name>PT7690</name></trkpt>
<trkpt lat="53.242680" lon="-1.797910"><ele>348</ele><time>2019-08-30T12:09:10Z</time><name>PT7691</name></trkpt>
<trkpt lat="53.242689" lon="-1.797893"><ele>348</ele><time>2019-08-30T12:09:11Z</time><name>PT7692</name></trkpt>
<trkpt lat="53.242699" lon="-1.797872"><ele>348</ele><time>2019-08-30T12:09:12Z</time><name>PT7693</name></trkpt>
<trkpt lat="53.242709" lon="-1.797858"><ele>348</ele><time>2019-08-30T12:09:13Z</time><name>PT7694</name></trkpt>
<trkpt lat="53.242718" lon="-1.797845"><ele>348</ele><time>2019-08-30T12:09:14Z</time><name>PT7695</name></trkpt>
<trkpt lat="53.242727" lon="-1.797827"><ele>348</ele><time>2019-08-30T12:09:15Z</time><name>PT7696</name></trkpt>
<trkpt lat="53.242736" lon="-1.797813"><ele>347</ele><time>2019-08-30T12:09:16Z</time><name>PT7697</name></trkpt>
<trkpt lat="53.242742" lon="-1.797799"><ele>347</ele><time>2019-08-30T12:09:17Z</time><name>PT7698</name></trkpt>
<trkpt lat="53.242750" lon="-1.797777"><ele>348</ele><time>2019-08-30T12:09:18Z</time><name>PT7699</name></trkpt>
<trkpt lat="53.242759" lon="-1.797758"><ele>348</ele><time>2019-08-30T12:09:19Z</time><name>PT7700</name></trkpt>
<trkpt lat="53.242769" lon="-1.797741"><ele>348</ele><time>2019-08-30T12:09:20Z</time><name>PT7701</name></trkpt>
<trkpt lat="53.242777" lon="-1.797723"><ele>348</ele><time>2019-08-30T12:09:21Z</time><name>PT7702</name></trkpt>
<trkpt lat="53.242786" lon="-1.797705"><ele>348</ele><time>2019-08-30T12:09:22Z</time><name>PT7703</name></trkpt>
<trkpt lat="53.242795" lon="-1.797688"><ele>348</ele><time>2019-08-30T12:09:23Z</time><name>PT7704</name></trkpt>
<trkpt lat="53.242801" lon="-1.797677"><ele>348</ele><time>2019-08-30T12:09:24Z</time><name>PT7705</name></trkpt>
<trkpt lat="53.242807" lon="-1.797665"><ele>348</ele><time>2019-08-30T12:09:25Z</time><name>PT7706</name></trkpt>
<trkpt lat="53.242815" lon="-1.797652"><ele>348</ele><time>2019-08-30T12:09:26Z</time><name>PT7707</name></trkpt>
<trkpt lat="53.242823" lon="-1.797638"><ele>347</ele><time>2019-08-30T12:09:27Z</time><name>PT7708</name></trkpt>
<trkpt lat="53.242829" lon="-1.797629"><ele>347</ele><time>2019-08-30T12:09:28Z</time><name>PT7709</name></trkpt>
<trkpt lat="53.242839" lon="-1.797615"><ele>347</ele><time>2019-08-30T12:09:29Z</time><name>PT7710</name></trkpt>
<trkpt lat="53.242846" lon="-1.797599"><ele>347</ele><time>2019-08-30T12:09:30Z</time><name>PT7711</name></trkpt>
<trkpt lat="53.242851" lon="-1.797583"><ele>346</ele><time>2019-08-30T12:09:31Z</time><name>PT7712</name></trkpt>
<trkpt lat="53.242858" lon="-1.797566"><ele>346</ele><time>2019-08-30T12:09:32Z</time><name>PT7713</name></trkpt>
<trkpt lat="53.242865" lon="-1.797530"><ele>347</ele><time>2019-08-30T12:09:33Z</time><name>PT7714</name></trkpt>
<trkpt lat="53.242872" lon="-1.797512"><ele>347</ele><time>2019-08-30T12:09:34Z</time><name>PT7715</name></trkpt>
<trkpt lat="53.242880" lon="-1.797499"><ele>347</ele><time>2019-08-30T12:09:35Z</time><name>PT7716</name></trkpt>
<trkpt lat="53.242886" lon="-1.797479"><ele>347</ele><time>2019-08-30T12:09:36Z</time><name>PT7717</name></trkpt>
<trkpt lat="53.242894" lon="-1.797462"><ele>347</ele><time>2019-08-30T12:09:37Z</time><name>PT7718</name></trkpt>
<trkpt lat="53.242899" lon="-1.797453"><ele>346</ele><time>2019-08-30T12:09:38Z</time><name>PT7719</name></trkpt>
<trkpt lat="53.242904" lon="-1.797435"><ele>346</ele><time>2019-08-30T12:09:39Z</time><name>PT7720</name></trkpt>
<trkpt lat="53.242908" lon="-1.797418"><ele>345</ele><time>2019-08-30T12:09:40Z</time><name>PT7721</name></trkpt>
<trkpt lat="53.242912" lon="-1.797402"><ele>345</ele><time>2019-08-30T12:09:41Z</time><name>PT7722</name></trkpt>
<trkpt lat="53.242913" lon="-1.797397"><ele>344</ele><time>2019-08-30T12:09:42Z</time><name>PT7723</name></trkpt>
<trkpt lat="53.242915" lon="-1.797386"><ele>345</ele><time>2019-08-30T12:09:43Z</time><name>PT7724</name></trkpt>
<trkpt lat="53.242918" lon="-1.797379"><ele>345</ele><time>2019-08-30T12:09:44Z</time><name>PT7725</name></trkpt>
<trkpt lat="53.242923" lon="-1.797373"><ele>345</ele><time>2019-08-30T12:09:45Z</time><name>PT7726</name></trkpt>
<trkpt lat="53.242927" lon="-1.797363"><ele>345</ele><time>2019-08-30T12:09:46Z</time><name>PT7727</name></trkpt>
<trkpt lat="53.242932" lon="-1.797352"><ele>345</ele><time>2019-08-30T12:09:47Z</time><name>PT7728</name></trkpt>
<trkpt lat="53.242939" lon="-1.797344"><ele>345</ele><time>2019-08-30T12:09:48Z</time><name>PT7729</name></trkpt>
<trkpt lat="53.242947" lon="-1.797330"><ele>346</ele><time>2019-08-30T12:09:49Z</time><name>PT7730</name></trkpt>
<trkpt lat="53.242953" lon="-1.797318"><ele>345</ele><time>2019-08-30T12:09:50Z</time><name>PT7731</name></trkpt>
<trkpt lat="53.242962" lon="-1.797301"><ele>345</ele><time>2019-08-30T12:09:51Z</time><name>PT7732</name></trkpt>
<trkpt lat="53.242970" lon="-1.797287"><ele>345</ele><time>2019-08-30T12:09:52Z</time><name>PT7733</name></trkpt>
<trkpt lat="53.242979" lon="-1.797271"><ele>345</ele><time>2019-08-30T12:09:53Z</time><name>PT7734</name></trkpt>
<trkpt lat="53.242987" lon="-1.797262"><ele>345</ele><time>2019-08-30T12:09:54Z</time><name>PT7735</name></trkpt>
<trkpt lat="53.242997" lon="-1.797251"><ele>345</ele><time>2019-08-30T12:09:55Z</time><name>PT7736</name></trkpt>
<trkpt lat="53.243010" lon="-1.797239"><ele>345</ele><time>2019-08-30T12:09:56Z</time><name>PT7737</name></trkpt>
<trkpt lat="53.243022" lon="-1.797221"><ele>346</ele><time>2019-08-30T12:09:57Z</time><name>PT7738</name></trkpt>
<trkpt lat="53.243031" lon="-1.797213"><ele>346</ele><time>2019-08-30T12:09:58Z</time><name>PT7739</name></trkpt>
<trkpt lat="53.243042" lon="-1.797200"><ele>345</ele><time>2019-08-30T12:09:59Z</time><name>PT7740</name></trkpt>
<trkpt lat="53.243050" lon="-1.797188"><ele>345</ele><time>2019-08-30T12:10:00Z</time><name>PT7741</name></trkpt>
<trkpt lat="53.243059" lon="-1.797176"><ele>345</ele><time>2019-08-30T12:10:01Z</time><name>PT7742</name></trkpt>
<trkpt lat="53.243069" lon="-1.797162"><ele>344</ele><time>2019-08-30T12:10:02Z</time><name>PT7743</name></trkpt>
<trkpt lat="53.243076" lon="-1.797149"><ele>344</ele><time>2019-08-30T12:10:03Z</time><name>PT7744</name></trkpt>
<trkpt lat="53.243084" lon="-1.797140"><ele>344</ele><time>2019-08-30T12:10:04Z</time><name>PT7745</name></trkpt>
<trkpt lat="53.243095" lon="-1.797127"><ele>344</ele><time>2019-08-30T12:10:05Z</time><name>PT7746</name></trkpt>
<trkpt lat="53.243105" lon="-1.797115"><ele>344</ele><time>2019-08-30T12:10:06Z</time><name>PT7747</name></trkpt>
<trkpt lat="53.243115" lon="-1.797105"><ele>344</ele><time>2019-08-30T12:10:07Z</time><name>PT7748</name></trkpt>
<trkpt lat="53.243125" lon="-1.797092"><ele>344</ele><time>2019-08-30T12:10:08Z</time><name>PT7749</name></trkpt>
<trkpt lat="53.243136" lon="-1.797080"><ele>344</ele><time>2019-08-30T12:10:09Z</time><name>PT7750</name></trkpt>
<trkpt lat="53.243146" lon="-1.797062"><ele>345</ele><time>2019-08-30T12:10:10Z</time><name>PT7751</name></trkpt>
<trkpt lat="53.243154" lon="-1.797046"><ele>345</ele><time>2019-08-30T12:10:11Z</time><name>PT7752</name></trkpt>
<trkpt lat="53.243166" lon="-1.797032"><ele>345</ele><time>2019-08-30T12:10:13Z</time><name>PT7753</name></trkpt>
<trkpt lat="53.243173" lon="-1.797028"><ele>344</ele><time>2019-08-30T12:10:13Z</time><name>PT7754</name></trkpt>
<trkpt lat="53.243182" lon="-1.797017"><ele>344</ele><time>2019-08-30T12:10:14Z</time><name>PT7755</name></trkpt>
<trkpt lat="53.243189" lon="-1.796999"><ele>344</ele><time>2019-08-30T12:10:15Z</time><name>PT7756</name></trkpt>
<trkpt lat="53.243200" lon="-1.796982"><ele>344</ele><time>2019-08-30T12:10:16Z</time><name>PT7757</name></trkpt>
<trkpt lat="53.243210" lon="-1.796969"><ele>344</ele><time>2019-08-30T12:10:17Z</time><name>PT7758</name></trkpt>
<trkpt lat="53.243219" lon="-1.796955"><ele>344</ele><time>2019-08-30T12:10:18Z</time><name>PT7759</name></trkpt>
<trkpt lat="53.243230" lon="-1.796938"><ele>345</ele><time>2019-08-30T12:10:19Z</time><name>PT7760</name></trkpt>
<trkpt lat="53.243239" lon="-1.796921"><ele>344</ele><time>2019-08-30T12:10:20Z</time><name>PT7761</name></trkpt>
<trkpt lat="53.243250" lon="-1.796904"><ele>344</ele><time>2019-08-30T12:10:21Z</time><name>PT7762</name></trkpt>
<trkpt lat="53.243260" lon="-1.796895"><ele>344</ele><time>2019-08-30T12:10:22Z</time><name>PT7763</name></trkpt>
<trkpt lat="53.243272" lon="-1.796887"><ele>344</ele><time>2019-08-30T12:10:23Z</time><name>PT7764</name></trkpt>
<trkpt lat="53.243283" lon="-1.796877"><ele>344</ele><time>2019-08-30T12:10:24Z</time><name>PT7765</name></trkpt>
<trkpt lat="53.243292" lon="-1.796863"><ele>344</ele><time>2019-08-30T12:10:25Z</time><name>PT7766</name></trkpt>
<trkpt lat="53.243303" lon="-1.796851"><ele>344</ele><time>2019-08-30T12:10:26Z</time><name>PT7767</name></trkpt>
<trkpt lat="53.243316" lon="-1.796836"><ele>344</ele><time>2019-08-30T12:10:27Z</time><name>PT7768</name></trkpt>
<trkpt lat="53.243327" lon="-1.796825"><ele>344</ele><time>2019-08-30T12:10:28Z</time><name>PT7769</name></trkpt>
<trkpt lat="53.243337" lon="-1.796814"><ele>344</ele><time>2019-08-30T12:10:29Z</time><name>PT7770</name></trkpt>
<trkpt lat="53.243347" lon="-1.796801"><ele>344</ele><time>2019-08-30T12:10:30Z</time><name>PT7771</name></trkpt>
<trkpt lat="53.243359" lon="-1.796783"><ele>343</ele><time>2019-08-30T12:10:31Z</time><name>PT7772</name></trkpt>
<trkpt lat="53.243372" lon="-1.796767"><ele>344</ele><time>2019-08-30T12:10:32Z</time><name>PT7773</name></trkpt>
<trkpt lat="53.243380" lon="-1.796753"><ele>344</ele><time>2019-08-30T12:10:33Z</time><name>PT7774</name></trkpt>
<trkpt lat="53.243389" lon="-1.796738"><ele>344</ele><time>2019-08-30T12:10:34Z</time><name>PT7775</name></trkpt>
<trkpt lat="53.243401" lon="-1.796715"><ele>345</ele><time>2019-08-30T12:10:35Z</time><name>PT7776</name></trkpt>
<trkpt lat="53.243413" lon="-1.796697"><ele>345</ele><time>2019-08-30T12:10:36Z</time><name>PT7777</name></trkpt>
<trkpt lat="53.243424" lon="-1.796681"><ele>346</ele><time>2019-08-30T12:10:37Z</time><name>PT7778</name></trkpt>
<trkpt lat="53.243433" lon="-1.796667"><ele>346</ele><time>2019-08-30T12:10:38Z</time><name>PT7779</name></trkpt>
<trkpt lat="53.243446" lon="-1.796649"><ele>346</ele><time>2019-08-30T12:10:39Z</time><name>PT7780</name></trkpt>
<trkpt lat="53.243461" lon="-1.796626"><ele>346</ele><time>2019-08-30T12:10:40Z</time><name>PT7781</name></trkpt>
<trkpt lat="53.243473" lon="-1.796604"><ele>347</ele><time>2019-08-30T12:10:41Z</time><name>PT7782</name></trkpt>
<trkpt lat="53.243485" lon="-1.796587"><ele>347</ele><time>2019-08-30T12:10:42Z</time><name>PT7783</name></trkpt>
<trkpt lat="53.243499" lon="-1.796571"><ele>347</ele><time>2019-08-30T12:10:43Z</time><name>PT7784</name></trkpt>
<trkpt lat="53.243512" lon="-1.796551"><ele>347</ele><time>2019-08-30T12:10:44Z</time><name>PT7785</name></trkpt>
<trkpt lat="53.243524" lon="-1.796536"><ele>347</ele><time>2019-08-30T12:10:45Z</time><name>PT7786</name></trkpt>
<trkpt lat="53.243536" lon="-1.796523"><ele>347</ele><time>2019-08-30T12:10:46Z</time><name>PT7787</name></trkpt>
<trkpt lat="53.243550" lon="-1.796505"><ele>347</ele><time>2019-08-30T12:10:47Z</time><name>PT7788</name></trkpt>
<trkpt lat="53.243562" lon="-1.796488"><ele>348</ele><time>2019-08-30T12:10:48Z</time><name>PT7789</name></trkpt>
<trkpt lat="53.243572" lon="-1.796471"><ele>348</ele><time>2019-08-30T12:10:49Z</time><name>PT7790</name></trkpt>
<trkpt lat="53.243583" lon="-1.796453"><ele>348</ele><time>2019-08-30T12:10:50Z</time><name>PT7791</name></trkpt>
<trkpt lat="53.243594" lon="-1.796438"><ele>348</ele><time>2019-08-30T12:10:51Z</time><name>PT7792</name></trkpt>
<trkpt lat="53.243606" lon="-1.796426"><ele>348</ele><time>2019-08-30T12:10:52Z</time><name>PT7793</name></trkpt>
<trkpt lat="53.243617" lon="-1.796412"><ele>348</ele><time>2019-08-30T12:10:53Z</time><name>PT7794</name></trkpt>
<trkpt lat="53.243630" lon="-1.796401"><ele>348</ele><time>2019-08-30T12:10:54Z</time><name>PT7795</name></trkpt>
<trkpt lat="53.243646" lon="-1.796385"><ele>347</ele><time>2019-08-30T12:10:55Z</time><name>PT7796</name></trkpt>
<trkpt lat="53.243658" lon="-1.796371"><ele>347</ele><time>2019-08-30T12:10:56Z</time><name>PT7797</name></trkpt>
<trkpt lat="53.243670" lon="-1.796354"><ele>348</ele><time>2019-08-30T12:10:57Z</time><name>PT7798</name></trkpt>
<trkpt lat="53.243680" lon="-1.796333"><ele>348</ele><time>2019-08-30T12:10:58Z</time><name>PT7799</name></trkpt>
<trkpt lat="53.243691" lon="-1.796320"><ele>348</ele><time>2019-08-30T12:10:59Z</time><name>PT7800</name></trkpt>
<trkpt lat="53.243702" lon="-1.796313"><ele>347</ele><time>2019-08-30T12:11:00Z</time><name>PT7801</name></trkpt>
<trkpt lat="53.243714" lon="-1.796302"><ele>347</ele><time>2019-08-30T12:11:01Z</time><name>PT7802</name></trkpt>
<trkpt lat="53.243728" lon="-1.796287"><ele>348</ele><time>2019-08-30T12:11:02Z</time><name>PT7803</name></trkpt>
<trkpt lat="53.243741" lon="-1.796275"><ele>347</ele><time>2019-08-30T12:11:03Z</time><name>PT7804</name></trkpt>
<trkpt lat="53.243751" lon="-1.796263"><ele>347</ele><time>2019-08-30T12:11:04Z</time><name>PT7805</name></trkpt>
<trkpt lat="53.243761" lon="-1.796251"><ele>347</ele><time>2019-08-30T12:11:05Z</time><name>PT7806</name></trkpt>
<trkpt lat="53.243771" lon="-1.796238"><ele>347</ele><time>2019-08-30T12:11:06Z</time><name>PT7807</name></trkpt>
<trkpt lat="53.243781" lon="-1.796230"><ele>346</ele><time>2019-08-30T12:11:07Z</time><name>PT7808</name></trkpt>
<trkpt lat="53.243790" lon="-1.796219"><ele>346</ele><time>2019-08-30T12:11:08Z</time><name>PT7809</name></trkpt>
<trkpt lat="53.243801" lon="-1.796208"><ele>346</ele><time>2019-08-30T12:11:09Z</time><name>PT7810</name></trkpt>
<trkpt lat="53.243813" lon="-1.796197"><ele>345</ele><time>2019-08-30T12:11:10Z</time><name>PT7811</name></trkpt>
<trkpt lat="53.243825" lon="-1.796184"><ele>345</ele><time>2019-08-30T12:11:11Z</time><name>PT7812</name></trkpt>
<trkpt lat="53.243836" lon="-1.796177"><ele>344</ele><time>2019-08-30T12:11:12Z</time><name>PT7813</name></trkpt>
<trkpt lat="53.243850" lon="-1.796161"><ele>344</ele><time>2019-08-30T12:11:13Z</time><name>PT7814</name></trkpt>
<trkpt lat="53.243862" lon="-1.796151"><ele>344</ele><time>2019-08-30T12:11:14Z</time><name>PT7815</name></trkpt>
<trkpt lat="53.243874" lon="-1.796141"><ele>343</ele><time>2019-08-30T12:11:15Z</time><name>PT7816</name></trkpt>
<trkpt lat="53.243882" lon="-1.796135"><ele>343</ele><time>2019-08-30T12:11:16Z</time><name>PT7817</name></trkpt>
<trkpt lat="53.243893" lon="-1.796129"><ele>342</ele><time>2019-08-30T12:11:17Z</time><name>PT7818</name></trkpt>
<trkpt lat="53.243908" lon="-1.796118"><ele>341</ele><time>2019-08-30T12:11:18Z</time><name>PT7819</name></trkpt>
<trkpt lat="53.243920" lon="-1.796110"><ele>341</ele><time>2019-08-30T12:11:19Z</time><name>PT7820</name></trkpt>
<trkpt lat="53.243930" lon="-1.796098"><ele>341</ele><time>2019-08-30T12:11:20Z</time><name>PT7821</name></trkpt>
<trkpt lat="53.243943" lon="-1.796088"><ele>340</ele><time>2019-08-30T12:11:21Z</time><name>PT7822</name></trkpt>
<trkpt lat="53.243956" lon="-1.796073"><ele>340</ele><time>2019-08-30T12:11:22Z</time><name>PT7823</name></trkpt>
<trkpt lat="53.243965" lon="-1.796059"><ele>340</ele><time>2019-08-30T12:11:23Z</time><name>PT7824</name></trkpt>
<trkpt lat="53.243981" lon="-1.796041"><ele>341</ele><time>2019-08-30T12:11:24Z</time><name>PT7825</name></trkpt>
<trkpt lat="53.243994" lon="-1.796028"><ele>341</ele><time>2019-08-30T12:11:25Z</time><name>PT7826</name></trkpt>
<trkpt lat="53.244006" lon="-1.796026"><ele>340</ele><time>2019-08-30T12:11:26Z</time><name>PT7827</name></trkpt>
<trkpt lat="53.244016" lon="-1.796014"><ele>340</ele><time>2019-08-30T12:11:27Z</time><name>PT7828</name></trkpt>
<trkpt lat="53.244027" lon="-1.795998"><ele>340</ele><time>2019-08-30T12:11:28Z</time><name>PT7829</name></trkpt>
<trkpt lat="53.244037" lon="-1.795980"><ele>341</ele><time>2019-08-30T12:11:29Z</time><name>PT7830</name></trkpt>
<trkpt lat="53.244049" lon="-1.795965"><ele>341</ele><time>2019-08-30T12:11:30Z</time><name>PT7831</name></trkpt>
<trkpt lat="53.244061" lon="-1.795952"><ele>341</ele><time>2019-08-30T12:11:31Z</time><name>PT7832</name></trkpt>
<trkpt lat="53.244072" lon="-1.795938"><ele>341</ele><time>2019-08-30T12:11:32Z</time><name>PT7833</name></trkpt>
<trkpt lat="53.244084" lon="-1.795923"><ele>341</ele><time>2019-08-30T12:11:33Z</time><name>PT7834</name></trkpt>
<trkpt lat="53.244097" lon="-1.795912"><ele>341</ele><time>2019-08-30T12:11:34Z</time><name>PT7835</name></trkpt>
<trkpt lat="53.244106" lon="-1.795904"><ele>341</ele><time>2019-08-30T12:11:35Z</time><name>PT7836</name></trkpt>
<trkpt lat="53.244116" lon="-1.795890"><ele>341</ele><time>2019-08-30T12:11:36Z</time><name>PT7837</name></trkpt>
<trkpt lat="53.244126" lon="-1.795879"><ele>341</ele><time>2019-08-30T12:11:37Z</time><name>PT7838</name></trkpt>
<trkpt lat="53.244138" lon="-1.795864"><ele>341</ele><time>2019-08-30T12:11:38Z</time><name>PT7839</name></trkpt>
<trkpt lat="53.244150" lon="-1.795853"><ele>341</ele><time>2019-08-30T12:11:39Z</time><name>PT7840</name></trkpt>
<trkpt lat="53.244162" lon="-1.795838"><ele>342</ele><time>2019-08-30T12:11:40Z</time><name>PT7841</name></trkpt>
<trkpt lat="53.244174" lon="-1.795827"><ele>342</ele><time>2019-08-30T12:11:41Z</time><name>PT7842</name></trkpt>
<trkpt lat="53.244187" lon="-1.795815"><ele>341</ele><time>2019-08-30T12:11:42Z</time><name>PT7843</name></trkpt>
<trkpt lat="53.244197" lon="-1.795802"><ele>341</ele><time>2019-08-30T12:11:43Z</time><name>PT7844</name></trkpt>
<trkpt lat="53.244208" lon="-1.795789"><ele>341</ele><time>2019-08-30T12:11:44Z</time><name>PT7845</name></trkpt>
<trkpt lat="53.244219" lon="-1.795774"><ele>341</ele><time>2019-08-30T12:11:45Z</time><name>PT7846</name></trkpt>
<trkpt lat="53.244229" lon="-1.795761"><ele>341</ele><time>2019-08-30T12:11:46Z</time><name>PT7847</name></trkpt>
<trkpt lat="53.244237" lon="-1.795755"><ele>341</ele><time>2019-08-30T12:11:47Z</time><name>PT7848</name></trkpt>
<trkpt lat="53.244248" lon="-1.795743"><ele>341</ele><time>2019-08-30T12:11:48Z</time><name>PT7849</name></trkpt>
<trkpt lat="53.244260" lon="-1.795731"><ele>341</ele><time>2019-08-30T12:11:49Z</time><name>PT7850</name></trkpt>
<trkpt lat="53.244271" lon="-1.795720"><ele>341</ele><time>2019-08-30T12:11:50Z</time><name>PT7851</name></trkpt>
<trkpt lat="53.244277" lon="-1.795712"><ele>341</ele><time>2019-08-30T12:11:51Z</time><name>PT7852</name></trkpt>
<trkpt lat="53.244286" lon="-1.795706"><ele>340</ele><time>2019-08-30T12:11:52Z</time><name>PT7853</name></trkpt>
<trkpt lat="53.244295" lon="-1.795694"><ele>340</ele><time>2019-08-30T12:11:53Z</time><name>PT7854</name></trkpt>
<trkpt lat="53.244303" lon="-1.795686"><ele>340</ele><time>2019-08-30T12:11:54Z</time><name>PT7855</name></trkpt>
<trkpt lat="53.244313" lon="-1.795676"><ele>340</ele><time>2019-08-30T12:11:55Z</time><name>PT7856</name></trkpt>
<trkpt lat="53.244323" lon="-1.795667"><ele>340</ele><time>2019-08-30T12:11:56Z</time><name>PT7857</name></trkpt>
<trkpt lat="53.244334" lon="-1.795652"><ele>341</ele><time>2019-08-30T12:11:57Z</time><name>PT7858</name></trkpt>
<trkpt lat="53.244344" lon="-1.795642"><ele>340</ele><time>2019-08-30T12:11:58Z</time><name>PT7859</name></trkpt>
<trkpt lat="53.244354" lon="-1.795623"><ele>341</ele><time>2019-08-30T12:11:59Z</time><name>PT7860</name></trkpt>
<trkpt lat="53.244362" lon="-1.795612"><ele>342</ele><time>2019-08-30T12:12:00Z</time><name>PT7861</name></trkpt>
<trkpt lat="53.244371" lon="-1.795599"><ele>341</ele><time>2019-08-30T12:12:01Z</time><name>PT7862</name></trkpt>
<trkpt lat="53.244379" lon="-1.795587"><ele>341</ele><time>2019-08-30T12:12:02Z</time><name>PT7863</name></trkpt>
<trkpt lat="53.244388" lon="-1.795579"><ele>341</ele><time>2019-08-30T12:12:03Z</time><name>PT7864</name></trkpt>
<trkpt lat="53.244401" lon="-1.795564"><ele>341</ele><time>2019-08-30T12:12:04Z</time><name>PT7865</name></trkpt>
<trkpt lat="53.244411" lon="-1.795546"><ele>341</ele><time>2019-08-30T12:12:05Z</time><name>PT7866</name></trkpt>
<trkpt lat="53.244419" lon="-1.795533"><ele>341</ele><time>2019-08-30T12:12:06Z</time><name>PT7867</name></trkpt>
<trkpt lat="53.244427" lon="-1.795527"><ele>341</ele><time>2019-08-30T12:12:07Z</time><name>PT7868</name></trkpt>
<trkpt lat="53.244434" lon="-1.795518"><ele>340</ele><time>2019-08-30T12:12:08Z</time><name>PT7869</name></trkpt>
<trkpt lat="53.244443" lon="-1.795510"><ele>340</ele><time>2019-08-30T12:12:09Z</time><name>PT7870</name></trkpt>
<trkpt lat="53.244453" lon="-1.795503"><ele>340</ele><time>2019-08-30T12:12:10Z</time><name>PT7871</name></trkpt>
<trkpt lat="53.244463" lon="-1.795482"><ele>340</ele><time>2019-08-30T12:12:11Z</time><name>PT7872</name></trkpt>
<trkpt lat="53.244469" lon="-1.795468"><ele>340</ele><time>2019-08-30T12:12:12Z</time><name>PT7873</name></trkpt>
<trkpt lat="53.244474" lon="-1.795456"><ele>339</ele><time>2019-08-30T12:12:13Z</time><name>PT7874</name></trkpt>
<trkpt lat="53.244484" lon="-1.795447"><ele>339</ele><time>2019-08-30T12:12:14Z</time><name>PT7875</name></trkpt>
<trkpt lat="53.244490" lon="-1.795434"><ele>338</ele><time>2019-08-30T12:12:15Z</time><name>PT7876</name></trkpt>
<trkpt lat="53.244499" lon="-1.795425"><ele>338</ele><time>2019-08-30T12:12:16Z</time><name>PT7877</name></trkpt>
<trkpt lat="53.244509" lon="-1.795420"><ele>337</ele><time>2019-08-30T12:12:17Z</time><name>PT7878</name></trkpt>
<trkpt lat="53.244521" lon="-1.795401"><ele>338</ele><time>2019-08-30T12:12:19Z</time><name>PT7879</name></trkpt>
<trkpt lat="53.244533" lon="-1.795381"><ele>337</ele><time>2019-08-30T12:12:19Z</time><name>PT7880</name></trkpt>
<trkpt lat="53.244541" lon="-1.795370"><ele>337</ele><time>2019-08-30T12:12:20Z</time><name>PT7881</name></trkpt>
<trkpt lat="53.244554" lon="-1.795350"><ele>337</ele><time>2019-08-30T12:12:21Z</time><name>PT7882</name></trkpt>
<trkpt lat="53.244568" lon="-1.795332"><ele>337</ele><time>2019-08-30T12:12:22Z</time><name>PT7883</name></trkpt>
<trkpt lat="53.244578" lon="-1.795314"><ele>337</ele><time>2019-08-30T12:12:23Z</time><name>PT7884</name></trkpt>
<trkpt lat="53.244586" lon="-1.795301"><ele>337</ele><time>2019-08-30T12:12:24Z</time><name>PT7885</name></trkpt>
<trkpt lat="53.244597" lon="-1.795277"><ele>337</ele><time>2019-08-30T12:12:25Z</time><name>PT7886</name></trkpt>
<trkpt lat="53.244607" lon="-1.795257"><ele>337</ele><time>2019-08-30T12:12:26Z</time><name>PT7887</name></trkpt>
<trkpt lat="53.244617" lon="-1.795238"><ele>337</ele><time>2019-08-30T12:12:27Z</time><name>PT7888</name></trkpt>
<trkpt lat="53.244624" lon="-1.795228"><ele>338</ele><time>2019-08-30T12:12:28Z</time><name>PT7889</name></trkpt>
<trkpt lat="53.244632" lon="-1.795211"><ele>338</ele><time>2019-08-30T12:12:29Z</time><name>PT7890</name></trkpt>
<trkpt lat="53.244636" lon="-1.795190"><ele>338</ele><time>2019-08-30T12:12:30Z</time><name>PT7891</name></trkpt>
<trkpt lat="53.244644" lon="-1.795164"><ele>338</ele><time>2019-08-30T12:12:31Z</time><name>PT7892</name></trkpt>
<trkpt lat="53.244652" lon="-1.795145"><ele>338</ele><time>2019-08-30T12:12:32Z</time><name>PT7893</name></trkpt>
<trkpt lat="53.244663" lon="-1.795122"><ele>339</ele><time>2019-08-30T12:12:34Z</time><name>PT7894</name></trkpt>
<trkpt lat="53.244675" lon="-1.795106"><ele>339</ele><time>2019-08-30T12:12:34Z</time><name>PT7895</name></trkpt>
<trkpt lat="53.244687" lon="-1.795083"><ele>339</ele><time>2019-08-30T12:12:35Z</time><name>PT7896</name></trkpt>
<trkpt lat="53.244695" lon="-1.795064"><ele>340</ele><time>2019-08-30T12:12:36Z</time><name>PT7897</name></trkpt>
<trkpt lat="53.244704" lon="-1.795043"><ele>340</ele><time>2019-08-30T12:12:37Z</time><name>PT7898</name></trkpt>
<trkpt lat="53.244712" lon="-1.795024"><ele>340</ele><time>2019-08-30T12:12:38Z</time><name>PT7899</name></trkpt>
<trkpt lat="53.244720" lon="-1.795007"><ele>339</ele><time>2019-08-30T12:12:39Z</time><name>PT7900</name></trkpt>
<trkpt lat="53.244728" lon="-1.794989"><ele>339</ele><time>2019-08-30T12:12:40Z</time><name>PT7901</name></trkpt>
<trkpt lat="53.244737" lon="-1.794973"><ele>339</ele><time>2019-08-30T12:12:41Z</time><name>PT7902</name></trkpt>
<trkpt lat="53.244751" lon="-1.794952"><ele>340</ele><time>2019-08-30T12:12:42Z</time><name>PT7903</name></trkpt>
<trkpt lat="53.244762" lon="-1.794935"><ele>340</ele><time>2019-08-30T12:12:43Z</time><name>PT7904</name></trkpt>
<trkpt lat="53.244770" lon="-1.794918"><ele>340</ele><time>2019-08-30T12:12:44Z</time><name>PT7905</name></trkpt>
<trkpt lat="53.244777" lon="-1.794901"><ele>339</ele><time>2019-08-30T12:12:45Z</time><name>PT7906</name></trkpt>
<trkpt lat="53.244784" lon="-1.794884"><ele>339</ele><time>2019-08-30T12:12:46Z</time><name>PT7907</name></trkpt>
<trkpt lat="53.244790" lon="-1.794864"><ele>338</ele><time>2019-08-30T12:12:47Z</time><name>PT7908</name></trkpt>
<trkpt lat="53.244796" lon="-1.794845"><ele>338</ele><time>2019-08-30T12:12:48Z</time><name>PT7909</name></trkpt>
<trkpt lat="53.244804" lon="-1.794830"><ele>338</ele><time>2019-08-30T12:12:49Z</time><name>PT7910</name></trkpt>
<trkpt lat="53.244815" lon="-1.794812"><ele>338</ele><time>2019-08-30T12:12:50Z</time><name>PT7911</name></trkpt>
<trkpt lat="53.244824" lon="-1.794794"><ele>337</ele><time>2019-08-30T12:12:51Z</time><name>PT7912</name></trkpt>
<trkpt lat="53.244831" lon="-1.794778"><ele>337</ele><time>2019-08-30T12:12:52Z</time><name>PT7913</name></trkpt>
<trkpt lat="53.244839" lon="-1.794761"><ele>337</ele><time>2019-08-30T12:12:53Z</time><name>PT7914</name></trkpt>
<trkpt lat="53.244847" lon="-1.794741"><ele>337</ele><time>2019-08-30T12:12:54Z</time><name>PT7915</name></trkpt>
<trkpt lat="53.244857" lon="-1.794722"><ele>336</ele><time>2019-08-30T12:12:55Z</time><name>PT7916</name></trkpt>
<trkpt lat="53.244864" lon="-1.794708"><ele>335</ele><time>2019-08-30T12:12:56Z</time><name>PT7917</name></trkpt>
<trkpt lat="53.244870" lon="-1.794692"><ele>335</ele><time>2019-08-30T12:12:57Z</time><name>PT7918</name></trkpt>
<trkpt lat="53.244879" lon="-1.794671"><ele>335</ele><time>2019-08-30T12:12:58Z</time><name>PT7919</name></trkpt>
<trkpt lat="53.244888" lon="-1.794657"><ele>334</ele><time>2019-08-30T12:12:59Z</time><name>PT7920</name></trkpt>
<trkpt lat="53.244895" lon="-1.794637"><ele>334</ele><time>2019-08-30T12:13:00Z</time><name>PT7921</name></trkpt>
<trkpt lat="53.244899" lon="-1.794617"><ele>334</ele><time>2019-08-30T12:13:01Z</time><name>PT7922</name></trkpt>
<trkpt lat="53.244904" lon="-1.794594"><ele>334</ele><time>2019-08-30T12:13:02Z</time><name>PT7923</name></trkpt>
<trkpt lat="53.244912" lon="-1.794574"><ele>334</ele><time>2019-08-30T12:13:03Z</time><name>PT7924</name></trkpt>
<trkpt lat="53.244918" lon="-1.794555"><ele>334</ele><time>2019-08-30T12:13:04Z</time><name>PT7925</name></trkpt>
<trkpt lat="53.244928" lon="-1.794537"><ele>334</ele><time>2019-08-30T12:13:05Z</time><name>PT7926</name></trkpt>
<trkpt lat="53.244941" lon="-1.794511"><ele>335</ele><time>2019-08-30T12:13:06Z</time><name>PT7927</name></trkpt>
<trkpt lat="53.244952" lon="-1.794487"><ele>335</ele><time>2019-08-30T12:13:07Z</time><name>PT7928</name></trkpt>
<trkpt lat="53.244958" lon="-1.794467"><ele>335</ele><time>2019-08-30T12:13:08Z</time><name>PT7929</name></trkpt>
<trkpt lat="53.244963" lon="-1.794451"><ele>334</ele><time>2019-08-30T12:13:09Z</time><name>PT7930</name></trkpt>
<trkpt lat="53.244970" lon="-1.794431"><ele>334</ele><time>2019-08-30T12:13:10Z</time><name>PT7931</name></trkpt>
<trkpt lat="53.244977" lon="-1.794409"><ele>334</ele><time>2019-08-30T12:13:11Z</time><name>PT7932</name></trkpt>
<trkpt lat="53.244984" lon="-1.794391"><ele>334</ele><time>2019-08-30T12:13:12Z</time><name>PT7933</name></trkpt>
<trkpt lat="53.244991" lon="-1.794373"><ele>334</ele><time>2019-08-30T12:13:13Z</time><name>PT7934</name></trkpt>
<trkpt lat="53.244999" lon="-1.794353"><ele>334</ele><time>2019-08-30T12:13:14Z</time><name>PT7935</name></trkpt>
<trkpt lat="53.245004" lon="-1.794338"><ele>334</ele><time>2019-08-30T12:13:15Z</time><name>PT7936</name></trkpt>
<trkpt lat="53.245009" lon="-1.794318"><ele>334</ele><time>2019-08-30T12:13:16Z</time><name>PT7937</name></trkpt>
<trkpt lat="53.245010" lon="-1.794303"><ele>334</ele><time>2019-08-30T12:13:17Z</time><name>PT7938</name></trkpt>
<trkpt lat="53.245014" lon="-1.794286"><ele>334</ele><time>2019-08-30T12:13:18Z</time><name>PT7939</name></trkpt>
<trkpt lat="53.245026" lon="-1.794265"><ele>335</ele><time>2019-08-30T12:13:19Z</time><name>PT7940</name></trkpt>
<trkpt lat="53.245036" lon="-1.794245"><ele>335</ele><time>2019-08-30T12:13:20Z</time><name>PT7941</name></trkpt>
<trkpt lat="53.245044" lon="-1.794223"><ele>336</ele><time>2019-08-30T12:13:21Z</time><name>PT7942</name></trkpt>
<trkpt lat="53.245052" lon="-1.794202"><ele>336</ele><time>2019-08-30T12:13:22Z</time><name>PT7943</name></trkpt>
<trkpt lat="53.245058" lon="-1.794184"><ele>336</ele><time>2019-08-30T12:13:23Z</time><name>PT7944</name></trkpt>
<trkpt lat="53.245063" lon="-1.794170"><ele>336</ele><time>2019-08-30T12:13:24Z</time><name>PT7945</name></trkpt>
<trkpt lat="53.245070" lon="-1.794152"><ele>335</ele><time>2019-08-30T12:13:25Z</time><name>PT7946</name></trkpt>
<trkpt lat="53.245073" lon="-1.794133"><ele>335</ele><time>2019-08-30T12:13:26Z</time><name>PT7947</name></trkpt>
<trkpt lat="53.245080" lon="-1.794119"><ele>335</ele><time>2019-08-30T12:13:27Z</time><name>PT7948</name></trkpt>
<trkpt lat="53.245086" lon="-1.794100"><ele>335</ele><time>2019-08-30T12:13:28Z</time><name>PT7949</name></trkpt>
<trkpt lat="53.245091" lon="-1.794076"><ele>334</ele><time>2019-08-30T12:13:29Z</time><name>PT7950</name></trkpt>
<trkpt lat="53.245100" lon="-1.794058"><ele>334</ele><time>2019-08-30T12:13:30Z</time><name>PT7951</name></trkpt>
<trkpt lat="53.245109" lon="-1.794041"><ele>334</ele><time>2019-08-30T12:13:31Z</time><name>PT7952</name></trkpt>
<trkpt lat="53.245115" lon="-1.794027"><ele>333</ele><time>2019-08-30T12:13:32Z</time><name>PT7953</name></trkpt>
<trkpt lat="53.245120" lon="-1.794005"><ele>333</ele><time>2019-08-30T12:13:34Z</time><name>PT7954</name></trkpt>
<trkpt lat="53.245127" lon="-1.793986"><ele>333</ele><time>2019-08-30T12:13:34Z</time><name>PT7955</name></trkpt>
<trkpt lat="53.245133" lon="-1.793966"><ele>333</ele><time>2019-08-30T12:13:35Z</time><name>PT7956</name></trkpt>
<trkpt lat="53.245137" lon="-1.793945"><ele>333</ele><time>2019-08-30T12:13:36Z</time><name>PT7957</name></trkpt>
<trkpt lat="53.245144" lon="-1.793923"><ele>333</ele><time>2019-08-30T12:13:37Z</time><name>PT7958</name></trkpt>
<trkpt lat="53.245151" lon="-1.793900"><ele>333</ele><time>2019-08-30T12:13:38Z</time><name>PT7959</name></trkpt>
<trkpt lat="53.245155" lon="-1.793882"><ele>333</ele><time>2019-08-30T12:13:39Z</time><name>PT7960</name></trkpt>
<trkpt lat="53.245159" lon="-1.793862"><ele>333</ele><time>2019-08-30T12:13:40Z</time><name>PT7961</name></trkpt>
<trkpt lat="53.245163" lon="-1.793838"><ele>333</ele><time>2019-08-30T12:13:41Z</time><name>PT7962</name></trkpt>
<trkpt lat="53.245167" lon="-1.793819"><ele>332</ele><time>2019-08-30T12:13:42Z</time><name>PT7963</name></trkpt>
<trkpt lat="53.245172" lon="-1.793796"><ele>332</ele><time>2019-08-30T12:13:43Z</time><name>PT7964</name></trkpt>
<trkpt lat="53.245181" lon="-1.793758"><ele>334</ele><time>2019-08-30T12:13:44Z</time><name>PT7965</name></trkpt>
<trkpt lat="53.245190" lon="-1.793729"><ele>334</ele><time>2019-08-30T12:13:45Z</time><name>PT7966</name></trkpt>
<trkpt lat="53.245194" lon="-1.793706"><ele>335</ele><time>2019-08-30T12:13:46Z</time><name>PT7967</name></trkpt>
<trkpt lat="53.245197" lon="-1.793682"><ele>335</ele><time>2019-08-30T12:13:47Z</time><name>PT7968</name></trkpt>
<trkpt lat="53.245199" lon="-1.793655"><ele>335</ele><time>2019-08-30T12:13:48Z</time><name>PT7969</name></trkpt>
<trkpt lat="53.245202" lon="-1.793635"><ele>335</ele><time>2019-08-30T12:13:49Z</time><name>PT7970</name></trkpt>
<trkpt lat="53.245206" lon="-1.793613"><ele>335</ele><time>2019-08-30T12:13:50Z</time><name>PT7971</name></trkpt>
<trkpt lat="53.245212" lon="-1.793586"><ele>335</ele><time>2019-08-30T12:13:51Z</time><name>PT7972</name></trkpt>
<trkpt lat="53.245218" lon="-1.793566"><ele>335</ele><time>2019-08-30T12:13:52Z</time><name>PT7973</name></trkpt>
<trkpt lat="53.245221" lon="-1.793547"><ele>335</ele><time>2019-08-30T12:13:53Z</time><name>PT7974</name></trkpt>
<trkpt lat="53.245224" lon="-1.793526"><ele>335</ele><time>2019-08-30T12:13:54Z</time><name>PT7975</name></trkpt>
<trkpt lat="53.245228" lon="-1.793505"><ele>334</ele><time>2019-08-30T12:13:55Z</time><name>PT7976</name></trkpt>
<trkpt lat="53.245233" lon="-1.793487"><ele>334</ele><time>2019-08-30T12:13:56Z</time><name>PT7977</name></trkpt>
<trkpt lat="53.245236" lon="-1.793471"><ele>334</ele><time>2019-08-30T12:13:57Z</time><name>PT7978</name></trkpt>
<trkpt lat="53.245239" lon="-1.793452"><ele>334</ele><time>2019-08-30T12:13:58Z</time><name>PT7979</name></trkpt>
<trkpt lat="53.245246" lon="-1.793436"><ele>333</ele><time>2019-08-30T12:13:59Z</time><name>PT7980</name></trkpt>
<trkpt lat="53.245250" lon="-1.793420"><ele>333</ele><time>2019-08-30T12:14:00Z</time><name>PT7981</name></trkpt>
<trkpt lat="53.245253" lon="-1.793403"><ele>333</ele><time>2019-08-30T12:14:01Z</time><name>PT7982</name></trkpt>
<trkpt lat="53.245256" lon="-1.793384"><ele>332</ele><time>2019-08-30T12:14:02Z</time><name>PT7983</name></trkpt>
<trkpt lat="53.245261" lon="-1.793365"><ele>331</ele><time>2019-08-30T12:14:03Z</time><name>PT7984</name></trkpt>
<trkpt lat="53.245266" lon="-1.793343"><ele>332</ele><time>2019-08-30T12:14:04Z</time><name>PT7985</name></trkpt>
<trkpt lat="53.245271" lon="-1.793317"><ele>332</ele><time>2019-08-30T12:14:05Z</time><name>PT7986</name></trkpt>
<trkpt lat="53.245277" lon="-1.793291"><ele>332</ele><time>2019-08-30T12:14:06Z</time><name>PT7987</name></trkpt>
<trkpt lat="53.245282" lon="-1.793277"><ele>331</ele><time>2019-08-30T12:14:07Z</time><name>PT7988</name></trkpt>
<trkpt lat="53.245283" lon="-1.793265"><ele>331</ele><time>2019-08-30T12:14:08Z</time><name>PT7989</name></trkpt>
<trkpt lat="53.245285" lon="-1.793244"><ele>331</ele><time>2019-08-30T12:14:09Z</time><name>PT7990</name></trkpt>
<trkpt lat="53.245288" lon="-1.793226"><ele>330</ele><time>2019-08-30T12:14:10Z</time><name>PT7991</name></trkpt>
<trkpt lat="53.245291" lon="-1.793209"><ele>329</ele><time>2019-08-30T12:14:11Z</time><name>PT7992</name></trkpt>
<trkpt lat="53.245295" lon="-1.793190"><ele>329</ele><time>2019-08-30T12:14:12Z</time><name>PT7993</name></trkpt>
<trkpt lat="53.245300" lon="-1.793170"><ele>329</ele><time>2019-08-30T12:14:13Z</time><name>PT7994</name></trkpt>
<trkpt lat="53.245304" lon="-1.793142"><ele>329</ele><time>2019-08-30T12:14:14Z</time><name>PT7995</name></trkpt>
<trkpt lat="53.245308" lon="-1.793119"><ele>329</ele><time>2019-08-30T12:14:15Z</time><name>PT7996</name></trkpt>
<trkpt lat="53.245309" lon="-1.793093"><ele>329</ele><time>2019-08-30T12:14:16Z</time><name>PT7997</name></trkpt>
<trkpt lat="53.245310" lon="-1.793059"><ele>329</ele><time>2019-08-30T12:14:17Z</time><name>PT7998</name></trkpt>
<trkpt lat="53.245313" lon="-1.793034"><ele>329</ele><time>2019-08-30T12:14:18Z</time><name>PT7999</name></trkpt>
<trkpt lat="53.245317" lon="-1.793011"><ele>329</ele><time>2019-08-30T12:14:19Z</time><name>PT8000</name></trkpt>
<trkpt lat="53.245322" lon="-1.792985"><ele>329</ele><time>2019-08-30T12:14:20Z</time><name>PT8001</name></trkpt>
<trkpt lat="53.245328" lon="-1.792964"><ele>328</ele><time>2019-08-30T12:14:21Z</time><name>PT8002</name></trkpt>
<trkpt lat="53.245333" lon="-1.792942"><ele>327</ele><time>2019-08-30T12:14:22Z</time><name>PT8003</name></trkpt>
<trkpt lat="53.245335" lon="-1.792924"><ele>327</ele><time>2019-08-30T12:14:23Z</time><name>PT8004</name></trkpt>
<trkpt lat="53.245335" lon="-1.792905"><ele>327</ele><time>2019-08-30T12:14:24Z</time><name>PT8005</name></trkpt>
<trkpt lat="53.245337" lon="-1.792890"><ele>328</ele><time>2019-08-30T12:14:25Z</time><name>PT8006</name></trkpt>
<trkpt lat="53.245340" lon="-1.792873"><ele>327</ele><time>2019-08-30T12:14:26Z</time><name>PT8007</name></trkpt>
<trkpt lat="53.245344" lon="-1.792852"><ele>328</ele><time>2019-08-30T12:14:27Z</time><name>PT8008</name></trkpt>
<trkpt lat="53.245349" lon="-1.792831"><ele>328</ele><time>2019-08-30T12:14:28Z</time><name>PT8009</name></trkpt>
<trkpt lat="53.245355" lon="-1.792807"><ele>328</ele><time>2019-08-30T12:14:29Z</time><name>PT8010</name></trkpt>
<trkpt lat="53.245359" lon="-1.792789"><ele>328</ele><time>2019-08-30T12:14:30Z</time><name>PT8011</name></trkpt>
<trkpt lat="53.245362" lon="-1.792773"><ele>328</ele><time>2019-08-30T12:14:31Z</time><name>PT8012</name></trkpt>
<trkpt lat="53.245364" lon="-1.792754"><ele>328</ele><time>2019-08-30T12:14:32Z</time><name>PT8013</name></trkpt>
<trkpt lat="53.245367" lon="-1.792735"><ele>328</ele><time>2019-08-30T12:14:33Z</time><name>PT8014</name></trkpt>
<trkpt lat="53.245369" lon="-1.792718"><ele>328</ele><time>2019-08-30T12:14:34Z</time><name>PT8015</name></trkpt>
<trkpt lat="53.245373" lon="-1.792697"><ele>328</ele><time>2019-08-30T12:14:35Z</time><name>PT8016</name></trkpt>
<trkpt lat="53.245379" lon="-1.792674"><ele>328</ele><time>2019-08-30T12:14:36Z</time><name>PT8017</name></trkpt>
<trkpt lat="53.245380" lon="-1.792653"><ele>328</ele><time>2019-08-30T12:14:37Z</time><name>PT8018</name></trkpt>
<trkpt lat="53.245382" lon="-1.792633"><ele>328</ele><time>2019-08-30T12:14:38Z</time><name>PT8019</name></trkpt>
<trkpt lat="53.245386" lon="-1.792615"><ele>328</ele><time>2019-08-30T12:14:39Z</time><name>PT8020</name></trkpt>
<trkpt lat="53.245390" lon="-1.792601"><ele>328</ele><time>2019-08-30T12:14:40Z</time><name>PT8021</name></trkpt>
<trkpt lat="53.245394" lon="-1.792588"><ele>328</ele><time>2019-08-30T12:14:41Z</time><name>PT8022</name></trkpt>
<trkpt lat="53.245396" lon="-1.792572"><ele>328</ele><time>2019-08-30T12:14:42Z</time><name>PT8023</name></trkpt>
<trkpt lat="53.245400" lon="-1.792563"><ele>328</ele><time>2019-08-30T12:14:43Z</time><name>PT8024</name></trkpt>
<trkpt lat="53.245403" lon="-1.792556"><ele>328</ele><time>2019-08-30T12:14:44Z</time><name>PT8025</name></trkpt>
<trkpt lat="53.245401" lon="-1.792532"><ele>329</ele><time>2019-08-30T12:14:45Z</time><name>PT8026</name></trkpt>
<trkpt lat="53.245405" lon="-1.792509"><ele>329</ele><time>2019-08-30T12:14:46Z</time><name>PT8027</name></trkpt>
<trkpt lat="53.245406" lon="-1.792497"><ele>329</ele><time>2019-08-30T12:14:47Z</time><name>PT8028</name></trkpt>
<trkpt lat="53.245407" lon="-1.792489"><ele>330</ele><time>2019-08-30T12:14:48Z</time><name>PT8029</name></trkpt>
<trkpt lat="53.245409" lon="-1.792487"><ele>330</ele><time>2019-08-30T12:14:49Z</time><name>PT8030</name></trkpt>
<trkpt lat="53.245414" lon="-1.792484"><ele>330</ele><time>2019-08-30T12:14:50Z</time><name>PT8031</name></trkpt>
<trkpt lat="53.245422" lon="-1.792473"><ele>330</ele><time>2019-08-30T12:14:51Z</time><name>PT8032</name></trkpt>
<trkpt lat="53.245433" lon="-1.792460"><ele>330</ele><time>2019-08-30T12:14:52Z</time><name>PT8033</name></trkpt>
<trkpt lat="53.245441" lon="-1.792451"><ele>330</ele><time>2019-08-30T12:14:53Z</time><name>PT8034</name></trkpt>
<trkpt lat="53.245450" lon="-1.792450"><ele>330</ele><time>2019-08-30T12:14:54Z</time><name>PT8035</name></trkpt>
<trkpt lat="53.245458" lon="-1.792443"><ele>331</ele><time>2019-08-30T12:14:55Z</time><name>PT8036</name></trkpt>
<trkpt lat="53.245462" lon="-1.792431"><ele>331</ele><time>2019-08-30T12:14:56Z</time><name>PT8037</name></trkpt>
<trkpt lat="53.245466" lon="-1.792425"><ele>331</ele><time>2019-08-30T12:14:57Z</time><name>PT8038</name></trkpt>
<trkpt lat="53.245467" lon="-1.792423"><ele>331</ele><time>2019-08-30T12:14:58Z</time><name>PT8039</name></trkpt>
<trkpt lat="53.245469" lon="-1.792421"><ele>330</ele><time>2019-08-30T12:14:59Z</time><name>PT8040</name></trkpt>
<trkpt lat="53.245468" lon="-1.792418"><ele>330</ele><time>2019-08-30T12:15:00Z</time><name>PT8041</name></trkpt>
<trkpt lat="53.245474" lon="-1.792414"><ele>330</ele><time>2019-08-30T12:15:01Z</time><name>PT8042</name></trkpt>
<trkpt lat="53.245479" lon="-1.792404"><ele>329</ele><time>2019-08-30T12:15:02Z</time><name>PT8043</name></trkpt>
<trkpt lat="53.245488" lon="-1.792388"><ele>329</ele><time>2019-08-30T12:15:03Z</time><name>PT8044</name></trkpt>
<trkpt lat="53.245497" lon="-1.792374"><ele>329</ele><time>2019-08-30T12:15:04Z</time><name>PT8045</name></trkpt>
<trkpt lat="53.245508" lon="-1.792359"><ele>329</ele><time>2019-08-30T12:15:05Z</time><name>PT8046</name></trkpt>
<trkpt lat="53.245518" lon="-1.792348"><ele>330</ele><time>2019-08-30T12:15:06Z</time><name>PT8047</name></trkpt>
<trkpt lat="53.245526" lon="-1.792337"><ele>330</ele><time>2019-08-30T12:15:07Z</time><name>PT8048</name></trkpt>
<trkpt lat="53.245534" lon="-1.792326"><ele>331</ele><time>2019-08-30T12:15:08Z</time><name>PT8049</name></trkpt>
<trkpt lat="53.245547" lon="-1.792311"><ele>331</ele><time>2019-08-30T12:15:09Z</time><name>PT8050</name></trkpt>
<trkpt lat="53.245555" lon="-1.792299"><ele>331</ele><time>2019-08-30T12:15:10Z</time><name>PT8051</name></trkpt>
<trkpt lat="53.245559" lon="-1.792288"><ele>330</ele><time>2019-08-30T12:15:11Z</time><name>PT8052</name></trkpt>
<trkpt lat="53.245563" lon="-1.792280"><ele>329</ele><time>2019-08-30T12:15:12Z</time><name>PT8053</name></trkpt>
<trkpt lat="53.245570" lon="-1.792271"><ele>328</ele><time>2019-08-30T12:15:13Z</time><name>PT8054</name></trkpt>
<trkpt lat="53.245581" lon="-1.792263"><ele>327</ele><time>2019-08-30T12:15:14Z</time><name>PT8055</name></trkpt>
<trkpt lat="53.245588" lon="-1.792255"><ele>326</ele><time>2019-08-30T12:15:15Z</time><name>PT8056</name></trkpt>
<trkpt lat="53.245593" lon="-1.792242"><ele>326</ele><time>2019-08-30T12:15:16Z</time><name>PT8057</name></trkpt>
<trkpt lat="53.245603" lon="-1.792235"><ele>325</ele><time>2019-08-30T12:15:17Z</time><name>PT8058</name></trkpt>
<trkpt lat="53.245615" lon="-1.792227"><ele>325</ele><time>2019-08-30T12:15:18Z</time><name>PT8059</name></trkpt>
<trkpt lat="53.245626" lon="-1.792213"><ele>325</ele><time>2019-08-30T12:15:19Z</time><name>PT8060</name></trkpt>
<trkpt lat="53.245635" lon="-1.792207"><ele>323</ele><time>2019-08-30T12:15:20Z</time><name>PT8061</name></trkpt>
<trkpt lat="53.245642" lon="-1.792191"><ele>323</ele><time>2019-08-30T12:15:21Z</time><name>PT8062</name></trkpt>
<trkpt lat="53.245647" lon="-1.792168"><ele>323</ele><time>2019-08-30T12:15:22Z</time><name>PT8063</name></trkpt>
<trkpt lat="53.245658" lon="-1.792151"><ele>323</ele><time>2019-08-30T12:15:23Z</time><name>PT8064</name></trkpt>
<trkpt lat="53.245672" lon="-1.792142"><ele>324</ele><time>2019-08-30T12:15:24Z</time><name>PT8065</name></trkpt>
<trkpt lat="53.245690" lon="-1.792134"><ele>326</ele><time>2019-08-30T12:15:25Z</time><name>PT8066</name></trkpt>
<trkpt lat="53.245703" lon="-1.792131"><ele>326</ele><time>2019-08-30T12:15:26Z</time><name>PT8067</name></trkpt>
<trkpt lat="53.245713" lon="-1.792121"><ele>326</ele><time>2019-08-30T12:15:27Z</time><name>PT8068</name></trkpt>
<trkpt lat="53.245721" lon="-1.792111"><ele>325</ele><time>2019-08-30T12:15:28Z</time><name>PT8069</name></trkpt>
<trkpt lat="53.245732" lon="-1.792097"><ele>326</ele><time>2019-08-30T12:15:29Z</time><name>PT8070</name></trkpt>
<trkpt lat="53.245738" lon="-1.792086"><ele>326</ele><time>2019-08-30T12:15:30Z</time><name>PT8071</name></trkpt>
<trkpt lat="53.245746" lon="-1.792070"><ele>326</ele><time>2019-08-30T12:15:31Z</time><name>PT8072</name></trkpt>
<trkpt lat="53.245754" lon="-1.792058"><ele>326</ele><time>2019-08-30T12:15:32Z</time><name>PT8073</name></trkpt>
<trkpt lat="53.245761" lon="-1.792051"><ele>326</ele><time>2019-08-30T12:15:33Z</time><name>PT8074</name></trkpt>
<trkpt lat="53.245766" lon="-1.792036"><ele>326</ele><time>2019-08-30T12:15:34Z</time><name>PT8075</name></trkpt>
<trkpt lat="53.245777" lon="-1.792010"><ele>327</ele><time>2019-08-30T12:15:35Z</time><name>PT8076</name></trkpt>
<trkpt lat="53.245790" lon="-1.791961"><ele>328</ele><time>2019-08-30T12:15:36Z</time><name>PT8077</name></trkpt>
<trkpt lat="53.245797" lon="-1.791933"><ele>328</ele><time>2019-08-30T12:15:37Z</time><name>PT8078</name></trkpt>
<trkpt lat="53.245806" lon="-1.791906"><ele>328</ele><time>2019-08-30T12:15:38Z</time><name>PT8079</name></trkpt>
<trkpt lat="53.245813" lon="-1.791876"><ele>328</ele><time>2019-08-30T12:15:39Z</time><name>PT8080</name></trkpt>
<trkpt lat="53.245817" lon="-1.791852"><ele>328</ele><time>2019-08-30T12:15:40Z</time><name>PT8081</name></trkpt>
<trkpt lat="53.245822" lon="-1.791835"><ele>328</ele><time>2019-08-30T12:15:41Z</time><name>PT8082</name></trkpt>
<trkpt lat="53.245828" lon="-1.791813"><ele>328</ele><time>2019-08-30T12:15:42Z</time><name>PT8083</name></trkpt>
<trkpt lat="53.245833" lon="-1.791791"><ele>328</ele><time>2019-08-30T12:15:43Z</time><name>PT8084</name></trkpt>
<trkpt lat="53.245839" lon="-1.791769"><ele>328</ele><time>2019-08-30T12:15:44Z</time><name>PT8085</name></trkpt>
<trkpt lat="53.245843" lon="-1.791749"><ele>327</ele><time>2019-08-30T12:15:45Z</time><name>PT8086</name></trkpt>
<trkpt lat="53.245848" lon="-1.791727"><ele>327</ele><time>2019-08-30T12:15:46Z</time><name>PT8087</name></trkpt>
<trkpt lat="53.245854" lon="-1.791709"><ele>327</ele><time>2019-08-30T12:15:47Z</time><name>PT8088</name></trkpt>
<trkpt lat="53.245861" lon="-1.791691"><ele>327</ele><time>2019-08-30T12:15:48Z</time><name>PT8089</name></trkpt>
<trkpt lat="53.245868" lon="-1.791672"><ele>327</ele><time>2019-08-30T12:15:49Z</time><name>PT8090</name></trkpt>
<trkpt lat="53.245873" lon="-1.791653"><ele>327</ele><time>2019-08-30T12:15:50Z</time><name>PT8091</name></trkpt>
<trkpt lat="53.245879" lon="-1.791633"><ele>327</ele><time>2019-08-30T12:15:51Z</time><name>PT8092</name></trkpt>
<trkpt lat="53.245886" lon="-1.791613"><ele>327</ele><time>2019-08-30T12:15:52Z</time><name>PT8093</name></trkpt>
<trkpt lat="53.245896" lon="-1.791595"><ele>327</ele><time>2019-08-30T12:15:53Z</time><name>PT8094</name></trkpt>
<trkpt lat="53.245905" lon="-1.791579"><ele>327</ele><time>2019-08-30T12:15:54Z</time><name>PT8095</name></trkpt>
<trkpt lat="53.245911" lon="-1.791564"><ele>327</ele><time>2019-08-30T12:15:55Z</time><name>PT8096</name></trkpt>
<trkpt lat="53.245918" lon="-1.791546"><ele>327</ele><time>2019-08-30T12:15:56Z</time><name>PT8097</name></trkpt>
<trkpt lat="53.245926" lon="-1.791527"><ele>327</ele><time>2019-08-30T12:15:57Z</time><name>PT8098</name></trkpt>
<trkpt lat="53.245932" lon="-1.791510"><ele>327</ele><time>2019-08-30T12:15:58Z</time><name>PT8099</name></trkpt>
<trkpt lat="53.245940" lon="-1.791491"><ele>327</ele><time>2019-08-30T12:15:59Z</time><name>PT8100</name></trkpt>
<trkpt lat="53.245949" lon="-1.791471"><ele>326</ele><time>2019-08-30T12:16:00Z</time><name>PT8101</name></trkpt>
<trkpt lat="53.245957" lon="-1.791454"><ele>326</ele><time>2019-08-30T12:16:01Z</time><name>PT8102</name></trkpt>
<trkpt lat="53.245965" lon="-1.791438"><ele>326</ele><time>2019-08-30T12:16:02Z</time><name>PT8103</name></trkpt>
<trkpt lat="53.245973" lon="-1.791423"><ele>326</ele><time>2019-08-30T12:16:03Z</time><name>PT8104</name></trkpt>
<trkpt lat="53.245980" lon="-1.791407"><ele>326</ele><time>2019-08-30T12:16:04Z</time><name>PT8105</name></trkpt>
<trkpt lat="53.245987" lon="-1.791387"><ele>327</ele><time>2019-08-30T12:16:05Z</time><name>PT8106</name></trkpt>
<trkpt lat="53.245994" lon="-1.791369"><ele>326</ele><time>2019-08-30T12:16:06Z</time><name>PT8107</name></trkpt>
<trkpt lat="53.246002" lon="-1.791354"><ele>326</ele><time>2019-08-30T12:16:07Z</time><name>PT8108</name></trkpt>
<trkpt lat="53.246009" lon="-1.791339"><ele>326</ele><time>2019-08-30T12:16:08Z</time><name>PT8109</name></trkpt>
<trkpt lat="53.246016" lon="-1.791322"><ele>326</ele><time>2019-08-30T12:16:09Z</time><name>PT8110</name></trkpt>
<trkpt lat="53.246022" lon="-1.791306"><ele>326</ele><time>2019-08-30T12:16:10Z</time><name>PT8111</name></trkpt>
<trkpt lat="53.246027" lon="-1.791287"><ele>326</ele><time>2019-08-30T12:16:11Z</time><name>PT8112</name></trkpt>
<trkpt lat="53.246032" lon="-1.791268"><ele>326</ele><time>2019-08-30T12:16:12Z</time><name>PT8113</name></trkpt>
<trkpt lat="53.246036" lon="-1.791249"><ele>326</ele><time>2019-08-30T12:16:13Z</time><name>PT8114</name></trkpt>
<trkpt lat="53.246040" lon="-1.791227"><ele>326</ele><time>2019-08-30T12:16:14Z</time><name>PT8115</name></trkpt>
<trkpt lat="53.246042" lon="-1.791212"><ele>326</ele><time>2019-08-30T12:16:15Z</time><name>PT8116</name></trkpt>
<trkpt lat="53.246046" lon="-1.791200"><ele>325</ele><time>2019-08-30T12:16:16Z</time><name>PT8117</name></trkpt>
<trkpt lat="53.246050" lon="-1.791190"><ele>325</ele><time>2019-08-30T12:16:17Z</time><name>PT8118</name></trkpt>
<trkpt lat="53.246053" lon="-1.791185"><ele>324</ele><time>2019-08-30T12:16:18Z</time><name>PT8119</name></trkpt>
<trkpt lat="53.246059" lon="-1.791175"><ele>325</ele><time>2019-08-30T12:16:19Z</time><name>PT8120</name></trkpt>
<trkpt lat="53.246062" lon="-1.791164"><ele>324</ele><time>2019-08-30T12:16:20Z</time><name>PT8121</name></trkpt>
<trkpt lat="53.246063" lon="-1.791156"><ele>324</ele><time>2019-08-30T12:16:21Z</time><name>PT8122</name></trkpt>
<trkpt lat="53.246066" lon="-1.791144"><ele>324</ele><time>2019-08-30T12:16:22Z</time><name>PT8123</name></trkpt>
<trkpt lat="53.246071" lon="-1.791134"><ele>323</ele><time>2019-08-30T12:16:23Z</time><name>PT8124</name></trkpt>
<trkpt lat="53.246073" lon="-1.791127"><ele>322</ele><time>2019-08-30T12:16:24Z</time><name>PT8125</name></trkpt>
<trkpt lat="53.246076" lon="-1.791116"><ele>322</ele><time>2019-08-30T12:16:25Z</time><name>PT8126</name></trkpt>
<trkpt lat="53.246080" lon="-1.791108"><ele>321</ele><time>2019-08-30T12:16:26Z</time><name>PT8127</name></trkpt>
<trkpt lat="53.246083" lon="-1.791103"><ele>321</ele><time>2019-08-30T12:16:27Z</time><name>PT8128</name></trkpt>
<trkpt lat="53.246084" lon="-1.791095"><ele>320</ele><time>2019-08-30T12:16:28Z</time><name>PT8129</name></trkpt>
<trkpt lat="53.246087" lon="-1.791078"><ele>319</ele><time>2019-08-30T12:16:29Z</time><name>PT8130</name></trkpt>
<trkpt lat="53.246091" lon="-1.791061"><ele>319</ele><time>2019-08-30T12:16:30Z</time><name>PT8131</name></trkpt>
<trkpt lat="53.246098" lon="-1.791054"><ele>318</ele><time>2019-08-30T12:16:31Z</time><name>PT8132</name></trkpt>
<trkpt lat="53.246102" lon="-1.791042"><ele>317</ele><time>2019-08-30T12:16:32Z</time><name>PT8133</name></trkpt>
<trkpt lat="53.246107" lon="-1.791017"><ele>318</ele><time>2019-08-30T12:16:33Z</time><name>PT8134</name></trkpt>
<trkpt lat="53.246107" lon="-1.791006"><ele>317</ele><time>2019-08-30T12:16:34Z</time><name>PT8135</name></trkpt>
<trkpt lat="53.246110" lon="-1.790991"><ele>317</ele><time>2019-08-30T12:16:35Z</time><name>PT8136</name></trkpt>
<trkpt lat="53.246115" lon="-1.790975"><ele>317</ele><time>2019-08-30T12:16:36Z</time><name>PT8137</name></trkpt>
<trkpt lat="53.246121" lon="-1.790957"><ele>317</ele><time>2019-08-30T12:16:37Z</time><name>PT8138</name></trkpt>
<trkpt lat="53.246129" lon="-1.790937"><ele>317</ele><time>2019-08-30T12:16:38Z</time><name>PT8139</name></trkpt>
<trkpt lat="53.246137" lon="-1.790914"><ele>318</ele><time>2019-08-30T12:16:40Z</time><name>PT8140</name></trkpt>
<trkpt lat="53.246141" lon="-1.790903"><ele>318</ele><time>2019-08-30T12:16:40Z</time><name>PT8141</name></trkpt>
<trkpt lat="53.246146" lon="-1.790890"><ele>318</ele><time>2019-08-30T12:16:41Z</time><name>PT8142</name></trkpt>
<trkpt lat="53.246150" lon="-1.790871"><ele>317</ele><time>2019-08-30T12:16:42Z</time><name>PT8143</name></trkpt>
<trkpt lat="53.246156" lon="-1.790851"><ele>317</ele><time>2019-08-30T12:16:43Z</time><name>PT8144</name></trkpt>
<trkpt lat="53.246161" lon="-1.790831"><ele>317</ele><time>2019-08-30T12:16:44Z</time><name>PT8145</name></trkpt>
<trkpt lat="53.246165" lon="-1.790805"><ele>317</ele><time>2019-08-30T12:16:45Z</time><name>PT8146</name></trkpt>
<trkpt lat="53.246168" lon="-1.790785"><ele>317</ele><time>2019-08-30T12:16:46Z</time><name>PT8147</name></trkpt>
<trkpt lat="53.246173" lon="-1.790774"><ele>317</ele><time>2019-08-30T12:16:47Z</time><name>PT8148</name></trkpt>
<trkpt lat="53.246181" lon="-1.790760"><ele>318</ele><time>2019-08-30T12:16:48Z</time><name>PT8149</name></trkpt>
<trkpt lat="53.246186" lon="-1.790730"><ele>317</ele><time>2019-08-30T12:16:49Z</time><name>PT8150</name></trkpt>
<trkpt lat="53.246187" lon="-1.790710"><ele>317</ele><time>2019-08-30T12:16:50Z</time><name>PT8151</name></trkpt>
<trkpt lat="53.246191" lon="-1.790688"><ele>317</ele><time>2019-08-30T12:16:51Z</time><name>PT8152</name></trkpt>
<trkpt lat="53.246198" lon="-1.790666"><ele>317</ele><time>2019-08-30T12:16:52Z</time><name>PT8153</name></trkpt>
<trkpt lat="53.246204" lon="-1.790652"><ele>316</ele><time>2019-08-30T12:16:53Z</time><name>PT8154</name></trkpt>
<trkpt lat="53.246208" lon="-1.790640"><ele>316</ele><time>2019-08-30T12:16:54Z</time><name>PT8155</name></trkpt>
<trkpt lat="53.246213" lon="-1.790625"><ele>316</ele><time>2019-08-30T12:16:55Z</time><name>PT8156</name></trkpt>
<trkpt lat="53.246221" lon="-1.790617"><ele>316</ele><time>2019-08-30T12:16:56Z</time><name>PT8157</name></trkpt>
<trkpt lat="53.246224" lon="-1.790610"><ele>315</ele><time>2019-08-30T12:16:57Z</time><name>PT8158</name></trkpt>
<trkpt lat="53.246239" lon="-1.790572"><ele>317</ele><time>2019-08-30T12:16:58Z</time><name>PT8159</name></trkpt>
<trkpt lat="53.246246" lon="-1.790549"><ele>317</ele><time>2019-08-30T12:16:59Z</time><name>PT8160</name></trkpt>
<trkpt lat="53.246250" lon="-1.790529"><ele>316</ele><time>2019-08-30T12:17:00Z</time><name>PT8161</name></trkpt>
<trkpt lat="53.246252" lon="-1.790511"><ele>316</ele><time>2019-08-30T12:17:01Z</time><name>PT8162</name></trkpt>
<trkpt lat="53.246258" lon="-1.790492"><ele>316</ele><time>2019-08-30T12:17:02Z</time><name>PT8163</name></trkpt>
<trkpt lat="53.246264" lon="-1.790477"><ele>316</ele><time>2019-08-30T12:17:03Z</time><name>PT8164</name></trkpt>
<trkpt lat="53.246269" lon="-1.790467"><ele>316</ele><time>2019-08-30T12:17:04Z</time><name>PT8165</name></trkpt>
<trkpt lat="53.246277" lon="-1.790435"><ele>317</ele><time>2019-08-30T12:17:05Z</time><name>PT8166</name></trkpt>
<trkpt lat="53.246282" lon="-1.790405"><ele>318</ele><time>2019-08-30T12:17:06Z</time><name>PT8167</name></trkpt>
<trkpt lat="53.246285" lon="-1.790386"><ele>318</ele><time>2019-08-30T12:17:07Z</time><name>PT8168</name></trkpt>
<trkpt lat="53.246287" lon="-1.790366"><ele>318</ele><time>2019-08-30T12:17:08Z</time><name>PT8169</name></trkpt>
<trkpt lat="53.246288" lon="-1.790351"><ele>317</ele><time>2019-08-30T12:17:09Z</time><name>PT8170</name></trkpt>
<trkpt lat="53.246292" lon="-1.790335"><ele>317</ele><time>2019-08-30T12:17:10Z</time><name>PT8171</name></trkpt>
<trkpt lat="53.246295" lon="-1.790327"><ele>316</ele><time>2019-08-30T12:17:11Z</time><name>PT8172</name></trkpt>
<trkpt lat="53.246298" lon="-1.790314"><ele>316</ele><time>2019-08-30T12:17:12Z</time><name>PT8173</name></trkpt>
<trkpt lat="53.246303" lon="-1.790301"><ele>315</ele><time>2019-08-30T12:17:13Z</time><name>PT8174</name></trkpt>
<trkpt lat="53.246308" lon="-1.790287"><ele>314</ele><time>2019-08-30T12:17:14Z</time><name>PT8175</name></trkpt>
<trkpt lat="53.246311" lon="-1.790265"><ele>314</ele><time>2019-08-30T12:17:15Z</time><name>PT8176</name></trkpt>
<trkpt lat="53.246315" lon="-1.790250"><ele>314</ele><time>2019-08-30T12:17:16Z</time><name>PT8177</name></trkpt>
<trkpt lat="53.246319" lon="-1.790237"><ele>313</ele><time>2019-08-30T12:17:17Z</time><name>PT8178</name></trkpt>
<trkpt lat="53.246324" lon="-1.790213"><ele>313</ele><time>2019-08-30T12:17:18Z</time><name>PT8179</name></trkpt>
<trkpt lat="53.246328" lon="-1.790193"><ele>313</ele><time>2019-08-30T12:17:19Z</time><name>PT8180</name></trkpt>
<trkpt lat="53.246336" lon="-1.790171"><ele>314</ele><time>2019-08-30T12:17:20Z</time><name>PT8181</name></trkpt>
<trkpt lat="53.246342" lon="-1.790147"><ele>314</ele><time>2019-08-30T12:17:21Z</time><name>PT8182</name></trkpt>
<trkpt lat="53.246347" lon="-1.790120"><ele>314</ele><time>2019-08-30T12:17:22Z</time><name>PT8183</name></trkpt>
<trkpt lat="53.246348" lon="-1.790102"><ele>314</ele><time>2019-08-30T12:17:23Z</time><name>PT8184</name></trkpt>
<trkpt lat="53.246349" lon="-1.790086"><ele>313</ele><time>2019-08-30T12:17:24Z</time><name>PT8185</name></trkpt>
<trkpt lat="53.246350" lon="-1.790072"><ele>312</ele><time>2019-08-30T12:17:25Z</time><name>PT8186</name></trkpt>
<trkpt lat="53.246358" lon="-1.790083"><ele>310</ele><time>2019-08-30T12:17:26Z</time><name>PT8187</name></trkpt>
<trkpt lat="53.246364" lon="-1.790065"><ele>310</ele><time>2019-08-30T12:17:27Z</time><name>PT8188</name></trkpt>
<trkpt lat="53.246368" lon="-1.790040"><ele>310</ele><time>2019-08-30T12:17:28Z</time><name>PT8189</name></trkpt>
<trkpt lat="53.246372" lon="-1.790020"><ele>309</ele><time>2019-08-30T12:17:29Z</time><name>PT8190</name></trkpt>
<trkpt lat="53.246376" lon="-1.790000"><ele>309</ele><time>2019-08-30T12:17:30Z</time><name>PT8191</name></trkpt>
<trkpt lat="53.246384" lon="-1.789976"><ele>308</ele><time>2019-08-30T12:17:31Z</time><name>PT8192</name></trkpt>
<trkpt lat="53.246393" lon="-1.789962"><ele>307</ele><time>2019-08-30T12:17:32Z</time><name>PT8193</name></trkpt>
<trkpt lat="53.246400" lon="-1.789945"><ele>307</ele><time>2019-08-30T12:17:33Z</time><name>PT8194</name></trkpt>
<trkpt lat="53.246406" lon="-1.789926"><ele>307</ele><time>2019-08-30T12:17:34Z</time><name>PT8195</name></trkpt>
<trkpt lat="53.246412" lon="-1.789912"><ele>307</ele><time>2019-08-30T12:17:35Z</time><name>PT8196</name></trkpt>
<trkpt lat="53.246416" lon="-1.789895"><ele>307</ele><time>2019-08-30T12:17:36Z</time><name>PT8197</name></trkpt>
<trkpt lat="53.246422" lon="-1.789884"><ele>306</ele><time>2019-08-30T12:17:37Z</time><name>PT8198</name></trkpt>
<trkpt lat="53.246430" lon="-1.789871"><ele>306</ele><time>2019-08-30T12:17:38Z</time><name>PT8199</name></trkpt>
<trkpt lat="53.246437" lon="-1.789855"><ele>305</ele><time>2019-08-30T12:17:39Z</time><name>PT8200</name></trkpt>
<trkpt lat="53.246439" lon="-1.789838"><ele>305</ele><time>2019-08-30T12:17:40Z</time><name>PT8201</name></trkpt>
<trkpt lat="53.246444" lon="-1.789815"><ele>305</ele><time>2019-08-30T12:17:41Z</time><name>PT8202</name></trkpt>
<trkpt lat="53.246450" lon="-1.789796"><ele>306</ele><time>2019-08-30T12:17:42Z</time><name>PT8203</name></trkpt>
<trkpt lat="53.246455" lon="-1.789786"><ele>306</ele><time>2019-08-30T12:17:43Z</time><name>PT8204</name></trkpt>
<trkpt lat="53.246461" lon="-1.789770"><ele>306</ele><time>2019-08-30T12:17:44Z</time><name>PT8205</name></trkpt>
<trkpt lat="53.246468" lon="-1.789746"><ele>306</ele><time>2019-08-30T12:17:45Z</time><name>PT8206</name></trkpt>
<trkpt lat="53.246475" lon="-1.789726"><ele>306</ele><time>2019-08-30T12:17:46Z</time><name>PT8207</name></trkpt>
<trkpt lat="53.246482" lon="-1.789703"><ele>306</ele><time>2019-08-30T12:17:47Z</time><name>PT8208</name></trkpt>
<trkpt lat="53.246487" lon="-1.789691"><ele>306</ele><time>2019-08-30T12:17:48Z</time><name>PT8209</name></trkpt>
<trkpt lat="53.246494" lon="-1.789693"><ele>305</ele><time>2019-08-30T12:17:49Z</time><name>PT8210</name></trkpt>
<trkpt lat="53.246499" lon="-1.789686"><ele>305</ele><time>2019-08-30T12:17:50Z</time><name>PT8211</name></trkpt>
<trkpt lat="53.246503" lon="-1.789674"><ele>305</ele><time>2019-08-30T12:17:51Z</time><name>PT8212</name></trkpt>
<trkpt lat="53.246513" lon="-1.789650"><ele>306</ele><time>2019-08-30T12:17:52Z</time><name>PT8213</name></trkpt>
<trkpt lat="53.246524" lon="-1.789634"><ele>305</ele><time>2019-08-30T12:17:53Z</time><name>PT8214</name></trkpt>
<trkpt lat="53.246532" lon="-1.789613"><ele>306</ele><time>2019-08-30T12:17:54Z</time><name>PT8215</name></trkpt>
<trkpt lat="53.246537" lon="-1.789591"><ele>305</ele><time>2019-08-30T12:17:55Z</time><name>PT8216</name></trkpt>
<trkpt lat="53.246544" lon="-1.789565"><ele>305</ele><time>2019-08-30T12:17:56Z</time><name>PT8217</name></trkpt>
<trkpt lat="53.246552" lon="-1.789542"><ele>305</ele><time>2019-08-30T12:17:57Z</time><name>PT8218</name></trkpt>
<trkpt lat="53.246561" lon="-1.789531"><ele>305</ele><time>2019-08-30T12:17:58Z</time><name>PT8219</name></trkpt>
<trkpt lat="53.246568" lon="-1.789508"><ele>306</ele><time>2019-08-30T12:17:59Z</time><name>PT8220</name></trkpt>
<trkpt lat="53.246578" lon="-1.789490"><ele>306</ele><time>2019-08-30T12:18:00Z</time><name>PT8221</name></trkpt>
<trkpt lat="53.246587" lon="-1.789482"><ele>305</ele><time>2019-08-30T12:18:01Z</time><name>PT8222</name></trkpt>
<trkpt lat="53.246596" lon="-1.789471"><ele>305</ele><time>2019-08-30T12:18:02Z</time><name>PT8223</name></trkpt>
<trkpt lat="53.246602" lon="-1.789462"><ele>302</ele><time>2019-08-30T12:18:03Z</time><name>PT8224</name></trkpt>
<trkpt lat="53.246611" lon="-1.789453"><ele>302</ele><time>2019-08-30T12:18:04Z</time><name>PT8225</name></trkpt>
<trkpt lat="53.246617" lon="-1.789446"><ele>302</ele><time>2019-08-30T12:18:05Z</time><name>PT8226</name></trkpt>
<trkpt lat="53.246624" lon="-1.789431"><ele>302</ele><time>2019-08-30T12:18:06Z</time><name>PT8227</name></trkpt>
<trkpt lat="53.246630" lon="-1.789416"><ele>302</ele><time>2019-08-30T12:18:07Z</time><name>PT8228</name></trkpt>
<trkpt lat="53.246639" lon="-1.789406"><ele>302</ele><time>2019-08-30T12:18:08Z</time><name>PT8229</name></trkpt>
<trkpt lat="53.246650" lon="-1.789401"><ele>301</ele><time>2019-08-30T12:18:09Z</time><name>PT8230</name></trkpt>
<trkpt lat="53.246662" lon="-1.789385"><ele>300</ele><time>2019-08-30T12:18:10Z</time><name>PT8231</name></trkpt>
<trkpt lat="53.246674" lon="-1.789360"><ele>300</ele><time>2019-08-30T12:18:11Z</time><name>PT8232</name></trkpt>
<trkpt lat="53.246682" lon="-1.789347"><ele>299</ele><time>2019-08-30T12:18:12Z</time><name>PT8233</name></trkpt>
<trkpt lat="53.246692" lon="-1.789328"><ele>301</ele><time>2019-08-30T12:18:13Z</time><name>PT8234</name></trkpt>
<trkpt lat="53.246703" lon="-1.789317"><ele>301</ele><time>2019-08-30T12:18:14Z</time><name>PT8235</name></trkpt>
<trkpt lat="53.246712" lon="-1.789306"><ele>301</ele><time>2019-08-30T12:18:15Z</time><name>PT8236</name></trkpt>
<trkpt lat="53.246723" lon="-1.789299"><ele>301</ele><time>2019-08-30T12:18:16Z</time><name>PT8237</name></trkpt>
<trkpt lat="53.246732" lon="-1.789291"><ele>301</ele><time>2019-08-30T12:18:17Z</time><name>PT8238</name></trkpt>
<trkpt lat="53.246741" lon="-1.789282"><ele>300</ele><time>2019-08-30T12:18:18Z</time><name>PT8239</name></trkpt>
<trkpt lat="53.246752" lon="-1.789278"><ele>299</ele><time>2019-08-30T12:18:19Z</time><name>PT8240</name></trkpt>
<trkpt lat="53.246760" lon="-1.789269"><ele>299</ele><time>2019-08-30T12:18:20Z</time><name>PT8241</name></trkpt>
<trkpt lat="53.246770" lon="-1.789256"><ele>299</ele><time>2019-08-30T12:18:21Z</time><name>PT8242</name></trkpt>
<trkpt lat="53.246780" lon="-1.789230"><ele>298</ele><time>2019-08-30T12:18:22Z</time><name>PT8243</name></trkpt>
<trkpt lat="53.246790" lon="-1.789223"><ele>299</ele><time>2019-08-30T12:18:23Z</time><name>PT8244</name></trkpt>
<trkpt lat="53.246796" lon="-1.789197"><ele>299</ele><time>2019-08-30T12:18:24Z</time><name>PT8245</name></trkpt>
<trkpt lat="53.246802" lon="-1.789178"><ele>299</ele><time>2019-08-30T12:18:25Z</time><name>PT8246</name></trkpt>
<trkpt lat="53.246810" lon="-1.789161"><ele>299</ele><time>2019-08-30T12:18:26Z</time><name>PT8247</name></trkpt>
<trkpt lat="53.246815" lon="-1.789143"><ele>299</ele><time>2019-08-30T12:18:27Z</time><name>PT8248</name></trkpt>
<trkpt lat="53.246820" lon="-1.789126"><ele>298</ele><time>2019-08-30T12:18:28Z</time><name>PT8249</name></trkpt>
<trkpt lat="53.246830" lon="-1.789102"><ele>298</ele><time>2019-08-30T12:18:29Z</time><name>PT8250</name></trkpt>
<trkpt lat="53.246839" lon="-1.789088"><ele>297</ele><time>2019-08-30T12:18:30Z</time><name>PT8251</name></trkpt>
<trkpt lat="53.246848" lon="-1.789071"><ele>296</ele><time>2019-08-30T12:18:31Z</time><name>PT8252</name></trkpt>
<trkpt lat="53.246856" lon="-1.789056"><ele>296</ele><time>2019-08-30T12:18:32Z</time><name>PT8253</name></trkpt>
<trkpt lat="53.246862" lon="-1.789039"><ele>296</ele><time>2019-08-30T12:18:33Z</time><name>PT8254</name></trkpt>
<trkpt lat="53.246866" lon="-1.789030"><ele>296</ele><time>2019-08-30T12:18:34Z</time><name>PT8255</name></trkpt>
<trkpt lat="53.246875" lon="-1.789008"><ele>296</ele><time>2019-08-30T12:18:35Z</time><name>PT8256</name></trkpt>
<trkpt lat="53.246884" lon="-1.788994"><ele>295</ele><time>2019-08-30T12:18:36Z</time><name>PT8257</name></trkpt>
<trkpt lat="53.246892" lon="-1.788982"><ele>295</ele><time>2019-08-30T12:18:37Z</time><name>PT8258</name></trkpt>
<trkpt lat="53.246899" lon="-1.788973"><ele>294</ele><time>2019-08-30T12:18:38Z</time><name>PT8259</name></trkpt>
<trkpt lat="53.246909" lon="-1.788964"><ele>294</ele><time>2019-08-30T12:18:39Z</time><name>PT8260</name></trkpt>
<trkpt lat="53.246918" lon="-1.788956"><ele>293</ele><time>2019-08-30T12:18:40Z</time><name>PT8261</name></trkpt>
<trkpt lat="53.246926" lon="-1.788940"><ele>293</ele><time>2019-08-30T12:18:41Z</time><name>PT8262</name></trkpt>
<trkpt lat="53.246934" lon="-1.788919"><ele>294</ele><time>2019-08-30T12:18:42Z</time><name>PT8263</name></trkpt>
<trkpt lat="53.246941" lon="-1.788904"><ele>294</ele><time>2019-08-30T12:18:43Z</time><name>PT8264</name></trkpt>
<trkpt lat="53.246948" lon="-1.788887"><ele>294</ele><time>2019-08-30T12:18:44Z</time><name>PT8265</name></trkpt>
<trkpt lat="53.246956" lon="-1.788864"><ele>294</ele><time>2019-08-30T12:18:45Z</time><name>PT8266</name></trkpt>
<trkpt lat="53.246964" lon="-1.788838"><ele>294</ele><time>2019-08-30T12:18:46Z</time><name>PT8267</name></trkpt>
<trkpt lat="53.246973" lon="-1.788824"><ele>294</ele><time>2019-08-30T12:18:47Z</time><name>PT8268</name></trkpt>
<trkpt lat="53.246977" lon="-1.788812"><ele>294</ele><time>2019-08-30T12:18:48Z</time><name>PT8269</name></trkpt>
<trkpt lat="53.246983" lon="-1.788774"><ele>296</ele><time>2019-08-30T12:18:49Z</time><name>PT8270</name></trkpt>
<trkpt lat="53.246988" lon="-1.788751"><ele>296</ele><time>2019-08-30T12:18:50Z</time><name>PT8271</name></trkpt>
<trkpt lat="53.246995" lon="-1.788741"><ele>296</ele><time>2019-08-30T12:18:51Z</time><name>PT8272</name></trkpt>
<trkpt lat="53.247003" lon="-1.788732"><ele>295</ele><time>2019-08-30T12:18:52Z</time><name>PT8273</name></trkpt>
<trkpt lat="53.247011" lon="-1.788708"><ele>296</ele><time>2019-08-30T12:18:53Z</time><name>PT8274</name></trkpt>
<trkpt lat="53.247018" lon="-1.788689"><ele>295</ele><time>2019-08-30T12:18:54Z</time><name>PT8275</name></trkpt>
<trkpt lat="53.247026" lon="-1.788648"><ele>296</ele><time>2019-08-30T12:18:55Z</time><name>PT8276</name></trkpt>
<trkpt lat="53.247032" lon="-1.788620"><ele>297</ele><time>2019-08-30T12:18:56Z</time><name>PT8277</name></trkpt>
<trkpt lat="53.247038" lon="-1.788598"><ele>297</ele><time>2019-08-30T12:18:57Z</time><name>PT8278</name></trkpt>
<trkpt lat="53.247046" lon="-1.788580"><ele>297</ele><time>2019-08-30T12:18:58Z</time><name>PT8279</name></trkpt>
<trkpt lat="53.247052" lon="-1.788550"><ele>298</ele><time>2019-08-30T12:18:59Z</time><name>PT8280</name></trkpt>
<trkpt lat="53.247056" lon="-1.788526"><ele>299</ele><time>2019-08-30T12:19:00Z</time><name>PT8281</name></trkpt>
<trkpt lat="53.247065" lon="-1.788509"><ele>299</ele><time>2019-08-30T12:19:01Z</time><name>PT8282</name></trkpt>
<trkpt lat="53.247072" lon="-1.788499"><ele>299</ele><time>2019-08-30T12:19:02Z</time><name>PT8283</name></trkpt>
<trkpt lat="53.247077" lon="-1.788479"><ele>300</ele><time>2019-08-30T12:19:03Z</time><name>PT8284</name></trkpt>
<trkpt lat="53.247083" lon="-1.788459"><ele>300</ele><time>2019-08-30T12:19:04Z</time><name>PT8285</name></trkpt>
<trkpt lat="53.247094" lon="-1.788434"><ele>300</ele><time>2019-08-30T12:19:05Z</time><name>PT8286</name></trkpt>
<trkpt lat="53.247102" lon="-1.788421"><ele>300</ele><time>2019-08-30T12:19:06Z</time><name>PT8287</name></trkpt>
<trkpt lat="53.247106" lon="-1.788419"><ele>300</ele><time>2019-08-30T12:19:07Z</time><name>PT8288</name></trkpt>
<trkpt lat="53.247109" lon="-1.788402"><ele>300</ele><time>2019-08-30T12:19:08Z</time><name>PT8289</name></trkpt>
<trkpt lat="53.247116" lon="-1.788386"><ele>300</ele><time>2019-08-30T12:19:09Z</time><name>PT8290</name></trkpt>
<trkpt lat="53.247119" lon="-1.788377"><ele>300</ele><time>2019-08-30T12:19:10Z</time><name>PT8291</name></trkpt>
<trkpt lat="53.247124" lon="-1.788363"><ele>299</ele><time>2019-08-30T12:19:11Z</time><name>PT8292</name></trkpt>
<trkpt lat="53.247132" lon="-1.788331"><ele>299</ele><time>2019-08-30T12:19:12Z</time><name>PT8293</name></trkpt>
<trkpt lat="53.247138" lon="-1.788315"><ele>298</ele><time>2019-08-30T12:19:13Z</time><name>PT8294</name></trkpt>
<trkpt lat="53.247144" lon="-1.788302"><ele>298</ele><time>2019-08-30T12:19:14Z</time><name>PT8295</name></trkpt>
<trkpt lat="53.247153" lon="-1.788288"><ele>297</ele><time>2019-08-30T12:19:15Z</time><name>PT8296</name></trkpt>
<trkpt lat="53.247162" lon="-1.788265"><ele>297</ele><time>2019-08-30T12:19:16Z</time><name>PT8297</name></trkpt>
<trkpt lat="53.247170" lon="-1.788247"><ele>297</ele><time>2019-08-30T12:19:17Z</time><name>PT8298</name></trkpt>
<trkpt lat="53.247180" lon="-1.788229"><ele>297</ele><time>2019-08-30T12:19:18Z</time><name>PT8299</name></trkpt>
<trkpt lat="53.247192" lon="-1.788235"><ele>296</ele><time>2019-08-30T12:19:19Z</time><name>PT8300</name></trkpt>
<trkpt lat="53.247199" lon="-1.788218"><ele>296</ele><time>2019-08-30T12:19:20Z</time><name>PT8301</name></trkpt>
<trkpt lat="53.247208" lon="-1.788193"><ele>296</ele><time>2019-08-30T12:19:21Z</time><name>PT8302</name></trkpt>
<trkpt lat="53.247225" lon="-1.788155"><ele>297</ele><time>2019-08-30T12:19:22Z</time><name>PT8303</name></trkpt>
<trkpt lat="53.247240" lon="-1.788133"><ele>297</ele><time>2019-08-30T12:19:23Z</time><name>PT8304</name></trkpt>
<trkpt lat="53.247250" lon="-1.788102"><ele>297</ele><time>2019-08-30T12:19:24Z</time><name>PT8305</name></trkpt>
<trkpt lat="53.247256" lon="-1.788082"><ele>297</ele><time>2019-08-30T12:19:25Z</time><name>PT8306</name></trkpt>
<trkpt lat="53.247263" lon="-1.788062"><ele>296</ele><time>2019-08-30T12:19:26Z</time><name>PT8307</name></trkpt>
<trkpt lat="53.247267" lon="-1.788050"><ele>296</ele><time>2019-08-30T12:19:27Z</time><name>PT8308</name></trkpt>
<trkpt lat="53.247276" lon="-1.788035"><ele>295</ele><time>2019-08-30T12:19:28Z</time><name>PT8309</name></trkpt>
<trkpt lat="53.247283" lon="-1.788017"><ele>295</ele><time>2019-08-30T12:19:29Z</time><name>PT8310</name></trkpt>
<trkpt lat="53.247292" lon="-1.787994"><ele>295</ele><time>2019-08-30T12:19:30Z</time><name>PT8311</name></trkpt>
<trkpt lat="53.247297" lon="-1.787974"><ele>295</ele><time>2019-08-30T12:19:31Z</time><name>PT8312</name></trkpt>
<trkpt lat="53.247304" lon="-1.787948"><ele>296</ele><time>2019-08-30T12:19:32Z</time><name>PT8313</name></trkpt>
<trkpt lat="53.247313" lon="-1.787923"><ele>296</ele><time>2019-08-30T12:19:33Z</time><name>PT8314</name></trkpt>
<trkpt lat="53.247321" lon="-1.787904"><ele>296</ele><time>2019-08-30T12:19:34Z</time><name>PT8315</name></trkpt>
<trkpt lat="53.247332" lon="-1.787884"><ele>297</ele><time>2019-08-30T12:19:35Z</time><name>PT8316</name></trkpt>
<trkpt lat="53.247344" lon="-1.787862"><ele>297</ele><time>2019-08-30T12:19:36Z</time><name>PT8317</name></trkpt>
<trkpt lat="53.247355" lon="-1.787848"><ele>296</ele><time>2019-08-30T12:19:37Z</time><name>PT8318</name></trkpt>
<trkpt lat="53.247364" lon="-1.787827"><ele>297</ele><time>2019-08-30T12:19:38Z</time><name>PT8319</name></trkpt>
<trkpt lat="53.247371" lon="-1.787800"><ele>297</ele><time>2019-08-30T12:19:39Z</time><name>PT8320</name></trkpt>
<trkpt lat="53.247379" lon="-1.787775"><ele>297</ele><time>2019-08-30T12:19:40Z</time><name>PT8321</name></trkpt>
<trkpt lat="53.247386" lon="-1.787752"><ele>297</ele><time>2019-08-30T12:19:41Z</time><name>PT8322</name></trkpt>
<trkpt lat="53.247394" lon="-1.787733"><ele>297</ele><time>2019-08-30T12:19:42Z</time><name>PT8323</name></trkpt>
<trkpt lat="53.247403" lon="-1.787704"><ele>297</ele><time>2019-08-30T12:19:43Z</time><name>PT8324</name></trkpt>
<trkpt lat="53.247411" lon="-1.787679"><ele>298</ele><time>2019-08-30T12:19:44Z</time><name>PT8325</name></trkpt>
<trkpt lat="53.247417" lon="-1.787658"><ele>297</ele><time>2019-08-30T12:19:45Z</time><name>PT8326</name></trkpt>
<trkpt lat="53.247424" lon="-1.787637"><ele>297</ele><time>2019-08-30T12:19:46Z</time><name>PT8327</name></trkpt>
<trkpt lat="53.247432" lon="-1.787618"><ele>297</ele><time>2019-08-30T12:19:47Z</time><name>PT8328</name></trkpt>
<trkpt lat="53.247441" lon="-1.787598"><ele>297</ele><time>2019-08-30T12:19:48Z</time><name>PT8329</name></trkpt>
<trkpt lat="53.247447" lon="-1.787577"><ele>297</ele><time>2019-08-30T12:19:49Z</time><name>PT8330</name></trkpt>
<trkpt lat="53.247452" lon="-1.787561"><ele>297</ele><time>2019-08-30T12:19:50Z</time><name>PT8331</name></trkpt>
<trkpt lat="53.247460" lon="-1.787539"><ele>297</ele><time>2019-08-30T12:19:51Z</time><name>PT8332</name></trkpt>
<trkpt lat="53.247469" lon="-1.787519"><ele>297</ele><time>2019-08-30T12:19:52Z</time><name>PT8333</name></trkpt>
<trkpt lat="53.247477" lon="-1.787498"><ele>297</ele><time>2019-08-30T12:19:53Z</time><name>PT8334</name></trkpt>
<trkpt lat="53.247484" lon="-1.787484"><ele>297</ele><time>2019-08-30T12:19:54Z</time><name>PT8335</name></trkpt>
<trkpt lat="53.247492" lon="-1.787467"><ele>297</ele><time>2019-08-30T12:19:55Z</time><name>PT8336</name></trkpt>
<trkpt lat="53.247500" lon="-1.787443"><ele>297</ele><time>2019-08-30T12:19:56Z</time><name>PT8337</name></trkpt>
<trkpt lat="53.247508" lon="-1.787429"><ele>297</ele><time>2019-08-30T12:19:57Z</time><name>PT8338</name></trkpt>
<trkpt lat="53.247516" lon="-1.787414"><ele>297</ele><time>2019-08-30T12:19:58Z</time><name>PT8339</name></trkpt>
<trkpt lat="53.247525" lon="-1.787392"><ele>297</ele><time>2019-08-30T12:19:59Z</time><name>PT8340</name></trkpt>
<trkpt lat="53.247530" lon="-1.787379"><ele>297</ele><time>2019-08-30T12:20:00Z</time><name>PT8341</name></trkpt>
<trkpt lat="53.247538" lon="-1.787361"><ele>297</ele><time>2019-08-30T12:20:01Z</time><name>PT8342</name></trkpt>
<trkpt lat="53.247545" lon="-1.787341"><ele>297</ele><time>2019-08-30T12:20:02Z</time><name>PT8343</name></trkpt>
<trkpt lat="53.247552" lon="-1.787326"><ele>296</ele><time>2019-08-30T12:20:03Z</time><name>PT8344</name></trkpt>
<trkpt lat="53.247560" lon="-1.787311"><ele>296</ele><time>2019-08-30T12:20:04Z</time><name>PT8345</name></trkpt>
<trkpt lat="53.247568" lon="-1.787297"><ele>296</ele><time>2019-08-30T12:20:05Z</time><name>PT8346</name></trkpt>
<trkpt lat="53.247577" lon="-1.787289"><ele>296</ele><time>2019-08-30T12:20:06Z</time><name>PT8347</name></trkpt>
<trkpt lat="53.247585" lon="-1.787272"><ele>296</ele><time>2019-08-30T12:20:07Z</time><name>PT8348</name></trkpt>
<trkpt lat="53.247594" lon="-1.787250"><ele>297</ele><time>2019-08-30T12:20:08Z</time><name>PT8349</name></trkpt>
<trkpt lat="53.247602" lon="-1.787226"><ele>296</ele><time>2019-08-30T12:20:09Z</time><name>PT8350</name></trkpt>
<trkpt lat="53.247611" lon="-1.787211"><ele>296</ele><time>2019-08-30T12:20:10Z</time><name>PT8351</name></trkpt>
<trkpt lat="53.247616" lon="-1.787193"><ele>296</ele><time>2019-08-30T12:20:11Z</time><name>PT8352</name></trkpt>
<trkpt lat="53.247622" lon="-1.787160"><ele>296</ele><time>2019-08-30T12:20:12Z</time><name>PT8353</name></trkpt>
<trkpt lat="53.247631" lon="-1.787142"><ele>296</ele><time>2019-08-30T12:20:13Z</time><name>PT8354</name></trkpt>
<trkpt lat="53.247639" lon="-1.787130"><ele>296</ele><time>2019-08-30T12:20:14Z</time><name>PT8355</name></trkpt>
<trkpt lat="53.247646" lon="-1.787121"><ele>296</ele><time>2019-08-30T12:20:15Z</time><name>PT8356</name></trkpt>
<trkpt lat="53.247653" lon="-1.787105"><ele>295</ele><time>2019-08-30T12:20:16Z</time><name>PT8357</name></trkpt>
<trkpt lat="53.247662" lon="-1.787088"><ele>295</ele><time>2019-08-30T12:20:17Z</time><name>PT8358</name></trkpt>
<trkpt lat="53.247669" lon="-1.787071"><ele>295</ele><time>2019-08-30T12:20:18Z</time><name>PT8359</name></trkpt>
<trkpt lat="53.247676" lon="-1.787055"><ele>294</ele><time>2019-08-30T12:20:19Z</time><name>PT8360</name></trkpt>
<trkpt lat="53.247685" lon="-1.787035"><ele>294</ele><time>2019-08-30T12:20:20Z</time><name>PT8361</name></trkpt>
<trkpt lat="53.247695" lon="-1.787012"><ele>295</ele><time>2019-08-30T12:20:21Z</time><name>PT8362</name></trkpt>
<trkpt lat="53.247703" lon="-1.786994"><ele>295</ele><time>2019-08-30T12:20:22Z</time><name>PT8363</name></trkpt>
<trkpt lat="53.247711" lon="-1.786981"><ele>295</ele><time>2019-08-30T12:20:23Z</time><name>PT8364</name></trkpt>
<trkpt lat="53.247718" lon="-1.786960"><ele>294</ele><time>2019-08-30T12:20:24Z</time><name>PT8365</name></trkpt>
<trkpt lat="53.247726" lon="-1.786938"><ele>294</ele><time>2019-08-30T12:20:25Z</time><name>PT8366</name></trkpt>
<trkpt lat="53.247730" lon="-1.786920"><ele>293</ele><time>2019-08-30T12:20:26Z</time><name>PT8367</name></trkpt>
<trkpt lat="53.247740" lon="-1.786896"><ele>293</ele><time>2019-08-30T12:20:27Z</time><name>PT8368</name></trkpt>
<trkpt lat="53.247751" lon="-1.786870"><ele>294</ele><time>2019-08-30T12:20:28Z</time><name>PT8369</name></trkpt>
<trkpt lat="53.247758" lon="-1.786851"><ele>294</ele><time>2019-08-30T12:20:29Z</time><name>PT8370</name></trkpt>
<trkpt lat="53.247766" lon="-1.786827"><ele>295</ele><time>2019-08-30T12:20:30Z</time><name>PT8371</name></trkpt>
<trkpt lat="53.247776" lon="-1.786805"><ele>294</ele><time>2019-08-30T12:20:31Z</time><name>PT8372</name></trkpt>
<trkpt lat="53.247784" lon="-1.786780"><ele>294</ele><time>2019-08-30T12:20:32Z</time><name>PT8373</name></trkpt>
<trkpt lat="53.247795" lon="-1.786753"><ele>295</ele><time>2019-08-30T12:20:33Z</time><name>PT8374</name></trkpt>
<trkpt lat="53.247805" lon="-1.786722"><ele>296</ele><time>2019-08-30T12:20:34Z</time><name>PT8375</name></trkpt>
<trkpt lat="53.247817" lon="-1.786692"><ele>296</ele><time>2019-08-30T12:20:35Z</time><name>PT8376</name></trkpt>
<trkpt lat="53.247826" lon="-1.786664"><ele>297</ele><time>2019-08-30T12:20:36Z</time><name>PT8377</name></trkpt>
<trkpt lat="53.247838" lon="-1.786635"><ele>298</ele><time>2019-08-30T12:20:37Z</time><name>PT8378</name></trkpt>
<trkpt lat="53.247848" lon="-1.786601"><ele>298</ele><time>2019-08-30T12:20:38Z</time><name>PT8379</name></trkpt>
<trkpt lat="53.247857" lon="-1.786581"><ele>298</ele><time>2019-08-30T12:20:39Z</time><name>PT8380</name></trkpt>
<trkpt lat="53.247869" lon="-1.786551"><ele>298</ele><time>2019-08-30T12:20:40Z</time><name>PT8381</name></trkpt>
<trkpt lat="53.247878" lon="-1.786524"><ele>298</ele><time>2019-08-30T12:20:41Z</time><name>PT8382</name></trkpt>
<trkpt lat="53.247887" lon="-1.786504"><ele>298</ele><time>2019-08-30T12:20:42Z</time><name>PT8383</name></trkpt>
<trkpt lat="53.247896" lon="-1.786492"><ele>298</ele><time>2019-08-30T12:20:43Z</time><name>PT8384</name></trkpt>
<trkpt lat="53.247907" lon="-1.786468"><ele>298</ele><time>2019-08-30T12:20:44Z</time><name>PT8385</name></trkpt>
<trkpt lat="53.247918" lon="-1.786446"><ele>298</ele><time>2019-08-30T12:20:46Z</time><name>PT8386</name></trkpt>
<trkpt lat="53.247928" lon="-1.786429"><ele>298</ele><time>2019-08-30T12:20:46Z</time><name>PT8387</name></trkpt>
<trkpt lat="53.247942" lon="-1.786410"><ele>298</ele><time>2019-08-30T12:20:47Z</time><name>PT8388</name></trkpt>
<trkpt lat="53.247951" lon="-1.786392"><ele>298</ele><time>2019-08-30T12:20:48Z</time><name>PT8389</name></trkpt>
<trkpt lat="53.247958" lon="-1.786375"><ele>298</ele><time>2019-08-30T12:20:49Z</time><name>PT8390</name></trkpt>
<trkpt lat="53.247967" lon="-1.786354"><ele>298</ele><time>2019-08-30T12:20:50Z</time><name>PT8391</name></trkpt>
<trkpt lat="53.247975" lon="-1.786331"><ele>298</ele><time>2019-08-30T12:20:51Z</time><name>PT8392</name></trkpt>
<trkpt lat="53.247984" lon="-1.786312"><ele>298</ele><time>2019-08-30T12:20:52Z</time><name>PT8393</name></trkpt>
<trkpt lat="53.247995" lon="-1.786289"><ele>298</ele><time>2019-08-30T12:20:53Z</time><name>PT8394</name></trkpt>
<trkpt lat="53.248007" lon="-1.786271"><ele>298</ele><time>2019-08-30T12:20:54Z</time><name>PT8395</name></trkpt>
<trkpt lat="53.248018" lon="-1.786250"><ele>298</ele><time>2019-08-30T12:20:55Z</time><name>PT8396</name></trkpt>
<trkpt lat="53.248027" lon="-1.786232"><ele>298</ele><time>2019-08-30T12:20:56Z</time><name>PT8397</name></trkpt>
<trkpt lat="53.248036" lon="-1.786207"><ele>298</ele><time>2019-08-30T12:20:57Z</time><name>PT8398</name></trkpt>
<trkpt lat="53.248045" lon="-1.786194"><ele>298</ele><time>2019-08-30T12:20:58Z</time><name>PT8399</name></trkpt>
<trkpt lat="53.248052" lon="-1.786171"><ele>299</ele><time>2019-08-30T12:20:59Z</time><name>PT8400</name></trkpt>
<trkpt lat="53.248064" lon="-1.786159"><ele>298</ele><time>2019-08-30T12:21:01Z</time><name>PT8401</name></trkpt>
<trkpt lat="53.248077" lon="-1.786143"><ele>299</ele><time>2019-08-30T12:21:01Z</time><name>PT8402</name></trkpt>
<trkpt lat="53.248086" lon="-1.786124"><ele>299</ele><time>2019-08-30T12:21:02Z</time><name>PT8403</name></trkpt>
<trkpt lat="53.248093" lon="-1.786108"><ele>299</ele><time>2019-08-30T12:21:03Z</time><name>PT8404</name></trkpt>
<trkpt lat="53.248103" lon="-1.786090"><ele>300</ele><time>2019-08-30T12:21:04Z</time><name>PT8405</name></trkpt>
<trkpt lat="53.248112" lon="-1.786072"><ele>299</ele><time>2019-08-30T12:21:05Z</time><name>PT8406</name></trkpt>
<trkpt lat="53.248119" lon="-1.786055"><ele>300</ele><time>2019-08-30T12:21:06Z</time><name>PT8407</name></trkpt>
<trkpt lat="53.248129" lon="-1.786038"><ele>300</ele><time>2019-08-30T12:21:07Z</time><name>PT8408</name></trkpt>
<trkpt lat="53.248139" lon="-1.786021"><ele>300</ele><time>2019-08-30T12:21:08Z</time><name>PT8409</name></trkpt>
<trkpt lat="53.248145" lon="-1.786003"><ele>300</ele><time>2019-08-30T12:21:09Z</time><name>PT8410</name></trkpt>
<trkpt lat="53.248150" lon="-1.785983"><ele>300</ele><time>2019-08-30T12:21:10Z</time><name>PT8411</name></trkpt>
<trkpt lat="53.248158" lon="-1.785963"><ele>300</ele><time>2019-08-30T12:21:11Z</time><name>PT8412</name></trkpt>
<trkpt lat="53.248165" lon="-1.785943"><ele>300</ele><time>2019-08-30T12:21:12Z</time><name>PT8413</name></trkpt>
<trkpt lat="53.248172" lon="-1.785923"><ele>300</ele><time>2019-08-30T12:21:13Z</time><name>PT8414</name></trkpt>
<trkpt lat="53.248181" lon="-1.785908"><ele>300</ele><time>2019-08-30T12:21:14Z</time><name>PT8415</name></trkpt>
<trkpt lat="53.248186" lon="-1.785892"><ele>300</ele><time>2019-08-30T12:21:15Z</time><name>PT8416</name></trkpt>
<trkpt lat="53.248193" lon="-1.785878"><ele>300</ele><time>2019-08-30T12:21:16Z</time><name>PT8417</name></trkpt>
<trkpt lat="53.248202" lon="-1.785864"><ele>300</ele><time>2019-08-30T12:21:17Z</time><name>PT8418</name></trkpt>
<trkpt lat="53.248209" lon="-1.785849"><ele>300</ele><time>2019-08-30T12:21:18Z</time><name>PT8419</name></trkpt>
<trkpt lat="53.248217" lon="-1.785836"><ele>300</ele><time>2019-08-30T12:21:19Z</time><name>PT8420</name></trkpt>
<trkpt lat="53.248225" lon="-1.785818"><ele>300</ele><time>2019-08-30T12:21:20Z</time><name>PT8421</name></trkpt>
<trkpt lat="53.248234" lon="-1.785800"><ele>300</ele><time>2019-08-30T12:21:21Z</time><name>PT8422</name></trkpt>
<trkpt lat="53.248242" lon="-1.785783"><ele>301</ele><time>2019-08-30T12:21:22Z</time><name>PT8423</name></trkpt>
<trkpt lat="53.248250" lon="-1.785770"><ele>300</ele><time>2019-08-30T12:21:23Z</time><name>PT8424</name></trkpt>
<trkpt lat="53.248259" lon="-1.785756"><ele>300</ele><time>2019-08-30T12:21:24Z</time><name>PT8425</name></trkpt>
<trkpt lat="53.248266" lon="-1.785741"><ele>300</ele><time>2019-08-30T12:21:25Z</time><name>PT8426</name></trkpt>
<trkpt lat="53.248273" lon="-1.785729"><ele>299</ele><time>2019-08-30T12:21:26Z</time><name>PT8427</name></trkpt>
<trkpt lat="53.248280" lon="-1.785713"><ele>300</ele><time>2019-08-30T12:21:27Z</time><name>PT8428</name></trkpt>
<trkpt lat="53.248287" lon="-1.785700"><ele>299</ele><time>2019-08-30T12:21:28Z</time><name>PT8429</name></trkpt>
<trkpt lat="53.248296" lon="-1.785688"><ele>299</ele><time>2019-08-30T12:21:29Z</time><name>PT8430</name></trkpt>
<trkpt lat="53.248305" lon="-1.785675"><ele>299</ele><time>2019-08-30T12:21:30Z</time><name>PT8431</name></trkpt>
<trkpt lat="53.248315" lon="-1.785659"><ele>299</ele><time>2019-08-30T12:21:31Z</time><name>PT8432</name></trkpt>
<trkpt lat="53.248322" lon="-1.785645"><ele>299</ele><time>2019-08-30T12:21:32Z</time><name>PT8433</name></trkpt>
<trkpt lat="53.248328" lon="-1.785624"><ele>300</ele><time>2019-08-30T12:21:33Z</time><name>PT8434</name></trkpt>
<trkpt lat="53.248336" lon="-1.785609"><ele>300</ele><time>2019-08-30T12:21:34Z</time><name>PT8435</name></trkpt>
<trkpt lat="53.248342" lon="-1.785592"><ele>299</ele><time>2019-08-30T12:21:35Z</time><name>PT8436</name></trkpt>
<trkpt lat="53.248348" lon="-1.785575"><ele>300</ele><time>2019-08-30T12:21:36Z</time><name>PT8437</name></trkpt>
<trkpt lat="53.248357" lon="-1.785558"><ele>300</ele><time>2019-08-30T12:21:37Z</time><name>PT8438</name></trkpt>
<trkpt lat="53.248365" lon="-1.785543"><ele>300</ele><time>2019-08-30T12:21:38Z</time><name>PT8439</name></trkpt>
<trkpt lat="53.248370" lon="-1.785528"><ele>300</ele><time>2019-08-30T12:21:39Z</time><name>PT8440</name></trkpt>
<trkpt lat="53.248374" lon="-1.785519"><ele>300</ele><time>2019-08-30T12:21:40Z</time><name>PT8441</name></trkpt>
<trkpt lat="53.248382" lon="-1.785501"><ele>300</ele><time>2019-08-30T12:21:41Z</time><name>PT8442</name></trkpt>
<trkpt lat="53.248391" lon="-1.785480"><ele>300</ele><time>2019-08-30T12:21:42Z</time><name>PT8443</name></trkpt>
<trkpt lat="53.248400" lon="-1.785462"><ele>301</ele><time>2019-08-30T12:21:43Z</time><name>PT8444</name></trkpt>
<trkpt lat="53.248407" lon="-1.785449"><ele>300</ele><time>2019-08-30T12:21:44Z</time><name>PT8445</name></trkpt>
<trkpt lat="53.248415" lon="-1.785432"><ele>300</ele><time>2019-08-30T12:21:45Z</time><name>PT8446</name></trkpt>
<trkpt lat="53.248424" lon="-1.785412"><ele>300</ele><time>2019-08-30T12:21:46Z</time><name>PT8447</name></trkpt>
<trkpt lat="53.248434" lon="-1.785397"><ele>301</ele><time>2019-08-30T12:21:47Z</time><name>PT8448</name></trkpt>
<trkpt lat="53.248443" lon="-1.785384"><ele>301</ele><time>2019-08-30T12:21:48Z</time><name>PT8449</name></trkpt>
<trkpt lat="53.248452" lon="-1.785370"><ele>301</ele><time>2019-08-30T12:21:49Z</time><name>PT8450</name></trkpt>
<trkpt lat="53.248459" lon="-1.785352"><ele>301</ele><time>2019-08-30T12:21:50Z</time><name>PT8451</name></trkpt>
<trkpt lat="53.248465" lon="-1.785333"><ele>301</ele><time>2019-08-30T12:21:51Z</time><name>PT8452</name></trkpt>
<trkpt lat="53.248472" lon="-1.785315"><ele>302</ele><time>2019-08-30T12:21:52Z</time><name>PT8453</name></trkpt>
<trkpt lat="53.248475" lon="-1.785298"><ele>302</ele><time>2019-08-30T12:21:53Z</time><name>PT8454</name></trkpt>
<trkpt lat="53.248474" lon="-1.785291"><ele>302</ele><time>2019-08-30T12:21:54Z</time><name>PT8455</name></trkpt>
<trkpt lat="53.248475" lon="-1.785278"><ele>302</ele><time>2019-08-30T12:21:55Z</time><name>PT8456</name></trkpt>
<trkpt lat="53.248476" lon="-1.785269"><ele>302</ele><time>2019-08-30T12:21:56Z</time><name>PT8457</name></trkpt>
<trkpt lat="53.248477" lon="-1.785261"><ele>303</ele><time>2019-08-30T12:21:57Z</time><name>PT8458</name></trkpt>
<trkpt lat="53.248481" lon="-1.785253"><ele>303</ele><time>2019-08-30T12:22:04Z</time><name>PT8459</name></trkpt>
<trkpt lat="53.248488" lon="-1.785241"><ele>302</ele><time>2019-08-30T12:22:05Z</time><name>PT8460</name></trkpt>
<trkpt lat="53.248496" lon="-1.785224"><ele>302</ele><time>2019-08-30T12:22:06Z</time><name>PT8461</name></trkpt>
<trkpt lat="53.248504" lon="-1.785212"><ele>302</ele><time>2019-08-30T12:22:07Z</time><name>PT8462</name></trkpt>
<trkpt lat="53.248515" lon="-1.785198"><ele>302</ele><time>2019-08-30T12:22:08Z</time><name>PT8463</name></trkpt>
<trkpt lat="53.248521" lon="-1.785179"><ele>302</ele><time>2019-08-30T12:22:09Z</time><name>PT8464</name></trkpt>
<trkpt lat="53.248527" lon="-1.785163"><ele>301</ele><time>2019-08-30T12:22:10Z</time><name>PT8465</name></trkpt>
<trkpt lat="53.248535" lon="-1.785145"><ele>302</ele><time>2019-08-30T12:22:11Z</time><name>PT8466</name></trkpt>
<trkpt lat="53.248543" lon="-1.785129"><ele>302</ele><time>2019-08-30T12:22:12Z</time><name>PT8467</name></trkpt>
<trkpt lat="53.248552" lon="-1.785113"><ele>302</ele><time>2019-08-30T12:22:13Z</time><name>PT8468</name></trkpt>
<trkpt lat="53.248561" lon="-1.785097"><ele>301</ele><time>2019-08-30T12:22:14Z</time><name>PT8469</name></trkpt>
<trkpt lat="53.248570" lon="-1.785082"><ele>301</ele><time>2019-08-30T12:22:15Z</time><name>PT8470</name></trkpt>
<trkpt lat="53.248579" lon="-1.785069"><ele>300</ele><time>2019-08-30T12:22:16Z</time><name>PT8471</name></trkpt>
<trkpt lat="53.248589" lon="-1.785058"><ele>300</ele><time>2019-08-30T12:22:17Z</time><name>PT8472</name></trkpt>
<trkpt lat="53.248597" lon="-1.785041"><ele>299</ele><time>2019-08-30T12:22:18Z</time><name>PT8473</name></trkpt>
<trkpt lat="53.248600" lon="-1.785024"><ele>300</ele><time>2019-08-30T12:22:19Z</time><name>PT8474</name></trkpt>
<trkpt lat="53.248604" lon="-1.785008"><ele>300</ele><time>2019-08-30T12:22:20Z</time><name>PT8475</name></trkpt>
<trkpt lat="53.248613" lon="-1.784991"><ele>299</ele><time>2019-08-30T12:22:21Z</time><name>PT8476</name></trkpt>
<trkpt lat="53.248621" lon="-1.784974"><ele>299</ele><time>2019-08-30T12:22:22Z</time><name>PT8477</name></trkpt>
<trkpt lat="53.248629" lon="-1.784958"><ele>298</ele><time>2019-08-30T12:22:23Z</time><name>PT8478</name></trkpt>
<trkpt lat="53.248640" lon="-1.784934"><ele>298</ele><time>2019-08-30T12:22:24Z</time><name>PT8479</name></trkpt>
<trkpt lat="53.248653" lon="-1.784905"><ele>299</ele><time>2019-08-30T12:22:25Z</time><name>PT8480</name></trkpt>
<trkpt lat="53.248660" lon="-1.784882"><ele>299</ele><time>2019-08-30T12:22:26Z</time><name>PT8481</name></trkpt>
<trkpt lat="53.248665" lon="-1.784866"><ele>299</ele><time>2019-08-30T12:22:27Z</time><name>PT8482</name></trkpt>
<trkpt lat="53.248671" lon="-1.784848"><ele>299</ele><time>2019-08-30T12:22:28Z</time><name>PT8483</name></trkpt>
<trkpt lat="53.248680" lon="-1.784828"><ele>299</ele><time>2019-08-30T12:22:29Z</time><name>PT8484</name></trkpt>
<trkpt lat="53.248690" lon="-1.784807"><ele>300</ele><time>2019-08-30T12:22:30Z</time><name>PT8485</name></trkpt>
<trkpt lat="53.248698" lon="-1.784788"><ele>300</ele><time>2019-08-30T12:22:31Z</time><name>PT8486</name></trkpt>
<trkpt lat="53.248704" lon="-1.784768"><ele>300</ele><time>2019-08-30T12:22:32Z</time><name>PT8487</name></trkpt>
<trkpt lat="53.248712" lon="-1.784750"><ele>300</ele><time>2019-08-30T12:22:33Z</time><name>PT8488</name></trkpt>
<trkpt lat="53.248720" lon="-1.784734"><ele>299</ele><time>2019-08-30T12:22:34Z</time><name>PT8489</name></trkpt>
<trkpt lat="53.248728" lon="-1.784713"><ele>299</ele><time>2019-08-30T12:22:35Z</time><name>PT8490</name></trkpt>
<trkpt lat="53.248738" lon="-1.784693"><ele>300</ele><time>2019-08-30T12:22:36Z</time><name>PT8491</name></trkpt>
<trkpt lat="53.248746" lon="-1.784672"><ele>300</ele><time>2019-08-30T12:22:37Z</time><name>PT8492</name></trkpt>
<trkpt lat="53.248750" lon="-1.784654"><ele>300</ele><time>2019-08-30T12:22:38Z</time><name>PT8493</name></trkpt>
<trkpt lat="53.248757" lon="-1.784639"><ele>300</ele><time>2019-08-30T12:22:39Z</time><name>PT8494</name></trkpt>
<trkpt lat="53.248765" lon="-1.784620"><ele>300</ele><time>2019-08-30T12:22:40Z</time><name>PT8495</name></trkpt>
<trkpt lat="53.248776" lon="-1.784604"><ele>300</ele><time>2019-08-30T12:22:41Z</time><name>PT8496</name></trkpt>
<trkpt lat="53.248784" lon="-1.784588"><ele>300</ele><time>2019-08-30T12:22:42Z</time><name>PT8497</name></trkpt>
<trkpt lat="53.248795" lon="-1.784571"><ele>299</ele><time>2019-08-30T12:22:43Z</time><name>PT8498</name></trkpt>
<trkpt lat="53.248801" lon="-1.784560"><ele>298</ele><time>2019-08-30T12:22:44Z</time><name>PT8499</name></trkpt>
<trkpt lat="53.248809" lon="-1.784542"><ele>298</ele><time>2019-08-30T12:22:45Z</time><name>PT8500</name></trkpt>
<trkpt lat="53.248817" lon="-1.784527"><ele>298</ele><time>2019-08-30T12:22:46Z</time><name>PT8501</name></trkpt>
<trkpt lat="53.248826" lon="-1.784513"><ele>298</ele><time>2019-08-30T12:22:47Z</time><name>PT8502</name></trkpt>
<trkpt lat="53.248836" lon="-1.784504"><ele>299</ele><time>2019-08-30T12:22:48Z</time><name>PT8503</name></trkpt>
<trkpt lat="53.248843" lon="-1.784489"><ele>300</ele><time>2019-08-30T12:22:49Z</time><name>PT8504</name></trkpt>
<trkpt lat="53.248854" lon="-1.784471"><ele>300</ele><time>2019-08-30T12:22:50Z</time><name>PT8505</name></trkpt>
<trkpt lat="53.248865" lon="-1.784454"><ele>300</ele><time>2019-08-30T12:22:51Z</time><name>PT8506</name></trkpt>
<trkpt lat="53.248874" lon="-1.784440"><ele>300</ele><time>2019-08-30T12:22:52Z</time><name>PT8507</name></trkpt>
<trkpt lat="53.248882" lon="-1.784425"><ele>301</ele><time>2019-08-30T12:22:53Z</time><name>PT8508</name></trkpt>
<trkpt lat="53.248890" lon="-1.784411"><ele>301</ele><time>2019-08-30T12:22:54Z</time><name>PT8509</name></trkpt>
<trkpt lat="53.248898" lon="-1.784394"><ele>301</ele><time>2019-08-30T12:22:55Z</time><name>PT8510</name></trkpt>
<trkpt lat="53.248907" lon="-1.784380"><ele>300</ele><time>2019-08-30T12:22:56Z</time><name>PT8511</name></trkpt>
<trkpt lat="53.248916" lon="-1.784367"><ele>300</ele><time>2019-08-30T12:22:57Z</time><name>PT8512</name></trkpt>
<trkpt lat="53.248926" lon="-1.784355"><ele>300</ele><time>2019-08-30T12:22:58Z</time><name>PT8513</name></trkpt>
<trkpt lat="53.248934" lon="-1.784337"><ele>300</ele><time>2019-08-30T12:22:59Z</time><name>PT8514</name></trkpt>
<trkpt lat="53.248943" lon="-1.784320"><ele>301</ele><time>2019-08-30T12:23:00Z</time><name>PT8515</name></trkpt>
<trkpt lat="53.248952" lon="-1.784304"><ele>301</ele><time>2019-08-30T12:23:01Z</time><name>PT8516</name></trkpt>
<trkpt lat="53.248961" lon="-1.784291"><ele>301</ele><time>2019-08-30T12:23:02Z</time><name>PT8517</name></trkpt>
<trkpt lat="53.248967" lon="-1.784277"><ele>300</ele><time>2019-08-30T12:23:03Z</time><name>PT8518</name></trkpt>
<trkpt lat="53.248974" lon="-1.784261"><ele>300</ele><time>2019-08-30T12:23:04Z</time><name>PT8519</name></trkpt>
<trkpt lat="53.248982" lon="-1.784245"><ele>300</ele><time>2019-08-30T12:23:05Z</time><name>PT8520</name></trkpt>
<trkpt lat="53.248991" lon="-1.784228"><ele>300</ele><time>2019-08-30T12:23:06Z</time><name>PT8521</name></trkpt>
<trkpt lat="53.248999" lon="-1.784211"><ele>300</ele><time>2019-08-30T12:23:07Z</time><name>PT8522</name></trkpt>
<trkpt lat="53.249007" lon="-1.784194"><ele>300</ele><time>2019-08-30T12:23:08Z</time><name>PT8523</name></trkpt>
<trkpt lat="53.249016" lon="-1.784182"><ele>300</ele><time>2019-08-30T12:23:09Z</time><name>PT8524</name></trkpt>
<trkpt lat="53.249025" lon="-1.784165"><ele>300</ele><time>2019-08-30T12:23:10Z</time><name>PT8525</name></trkpt>
<trkpt lat="53.249034" lon="-1.784146"><ele>300</ele><time>2019-08-30T12:23:11Z</time><name>PT8526</name></trkpt>
<trkpt lat="53.249042" lon="-1.784133"><ele>300</ele><time>2019-08-30T12:23:12Z</time><name>PT8527</name></trkpt>
<trkpt lat="53.249049" lon="-1.784118"><ele>301</ele><time>2019-08-30T12:23:13Z</time><name>PT8528</name></trkpt>
<trkpt lat="53.249056" lon="-1.784107"><ele>301</ele><time>2019-08-30T12:23:14Z</time><name>PT8529</name></trkpt>
<trkpt lat="53.249065" lon="-1.784093"><ele>301</ele><time>2019-08-30T12:23:15Z</time><name>PT8530</name></trkpt>
<trkpt lat="53.249074" lon="-1.784075"><ele>301</ele><time>2019-08-30T12:23:16Z</time><name>PT8531</name></trkpt>
<trkpt lat="53.249080" lon="-1.784066"><ele>300</ele><time>2019-08-30T12:23:17Z</time><name>PT8532</name></trkpt>
<trkpt lat="53.249090" lon="-1.784052"><ele>300</ele><time>2019-08-30T12:23:18Z</time><name>PT8533</name></trkpt>
<trkpt lat="53.249101" lon="-1.784031"><ele>302</ele><time>2019-08-30T12:23:19Z</time><name>PT8534</name></trkpt>
<trkpt lat="53.249113" lon="-1.784016"><ele>303</ele><time>2019-08-30T12:23:20Z</time><name>PT8535</name></trkpt>
<trkpt lat="53.249121" lon="-1.784000"><ele>303</ele><time>2019-08-30T12:23:21Z</time><name>PT8536</name></trkpt>
<trkpt lat="53.249131" lon="-1.783985"><ele>304</ele><time>2019-08-30T12:23:22Z</time><name>PT8537</name></trkpt>
<trkpt lat="53.249139" lon="-1.783971"><ele>304</ele><time>2019-08-30T12:23:23Z</time><name>PT8538</name></trkpt>
<trkpt lat="53.249147" lon="-1.783958"><ele>304</ele><time>2019-08-30T12:23:24Z</time><name>PT8539</name></trkpt>
<trkpt lat="53.249155" lon="-1.783938"><ele>304</ele><time>2019-08-30T12:23:25Z</time><name>PT8540</name></trkpt>
<trkpt lat="53.249164" lon="-1.783923"><ele>304</ele><time>2019-08-30T12:23:26Z</time><name>PT8541</name></trkpt>
<trkpt lat="53.249171" lon="-1.783909"><ele>305</ele><time>2019-08-30T12:23:27Z</time><name>PT8542</name></trkpt>
<trkpt lat="53.249181" lon="-1.783896"><ele>305</ele><time>2019-08-30T12:23:28Z</time><name>PT8543</name></trkpt>
<trkpt lat="53.249190" lon="-1.783883"><ele>306</ele><time>2019-08-30T12:23:29Z</time><name>PT8544</name></trkpt>
<trkpt lat="53.249194" lon="-1.783861"><ele>305</ele><time>2019-08-30T12:23:30Z</time><name>PT8545</name></trkpt>
<trkpt lat="53.249206" lon="-1.783848"><ele>305</ele><time>2019-08-30T12:23:31Z</time><name>PT8546</name></trkpt>
<trkpt lat="53.249218" lon="-1.783839"><ele>305</ele><time>2019-08-30T12:23:32Z</time><name>PT8547</name></trkpt>
<trkpt lat="53.249229" lon="-1.783830"><ele>305</ele><time>2019-08-30T12:23:33Z</time><name>PT8548</name></trkpt>
<trkpt lat="53.249238" lon="-1.783821"><ele>306</ele><time>2019-08-30T12:23:34Z</time><name>PT8549</name></trkpt>
<trkpt lat="53.249248" lon="-1.783807"><ele>306</ele><time>2019-08-30T12:23:35Z</time><name>PT8550</name></trkpt>
<trkpt lat="53.249257" lon="-1.783793"><ele>305</ele><time>2019-08-30T12:23:36Z</time><name>PT8551</name></trkpt>
<trkpt lat="53.249269" lon="-1.783785"><ele>305</ele><time>2019-08-30T12:23:37Z</time><name>PT8552</name></trkpt>
<trkpt lat="53.249280" lon="-1.783777"><ele>305</ele><time>2019-08-30T12:23:38Z</time><name>PT8553</name></trkpt>
<trkpt lat="53.249289" lon="-1.783768"><ele>305</ele><time>2019-08-30T12:23:39Z</time><name>PT8554</name></trkpt>
<trkpt lat="53.249303" lon="-1.783754"><ele>305</ele><time>2019-08-30T12:23:40Z</time><name>PT8555</name></trkpt>
<trkpt lat="53.249315" lon="-1.783746"><ele>305</ele><time>2019-08-30T12:23:41Z</time><name>PT8556</name></trkpt>
<trkpt lat="53.249325" lon="-1.783733"><ele>305</ele><time>2019-08-30T12:23:42Z</time><name>PT8557</name></trkpt>
<trkpt lat="53.249336" lon="-1.783721"><ele>304</ele><time>2019-08-30T12:23:43Z</time><name>PT8558</name></trkpt>
<trkpt lat="53.249343" lon="-1.783715"><ele>304</ele><time>2019-08-30T12:23:44Z</time><name>PT8559</name></trkpt>
<trkpt lat="53.249349" lon="-1.783703"><ele>302</ele><time>2019-08-30T12:23:45Z</time><name>PT8560</name></trkpt>
<trkpt lat="53.249359" lon="-1.783695"><ele>301</ele><time>2019-08-30T12:23:46Z</time><name>PT8561</name></trkpt>
<trkpt lat="53.249370" lon="-1.783690"><ele>301</ele><time>2019-08-30T12:23:47Z</time><name>PT8562</name></trkpt>
<trkpt lat="53.249380" lon="-1.783682"><ele>303</ele><time>2019-08-30T12:23:48Z</time><name>PT8563</name></trkpt>
<trkpt lat="53.249387" lon="-1.783676"><ele>303</ele><time>2019-08-30T12:23:49Z</time><name>PT8564</name></trkpt>
<trkpt lat="53.249394" lon="-1.783672"><ele>303</ele><time>2019-08-30T12:23:50Z</time><name>PT8565</name></trkpt>
<trkpt lat="53.249404" lon="-1.783667"><ele>303</ele><time>2019-08-30T12:23:51Z</time><name>PT8566</name></trkpt>
<trkpt lat="53.249415" lon="-1.783662"><ele>303</ele><time>2019-08-30T12:23:52Z</time><name>PT8567</name></trkpt>
<trkpt lat="53.249430" lon="-1.783658"><ele>303</ele><time>2019-08-30T12:23:53Z</time><name>PT8568</name></trkpt>
<trkpt lat="53.249437" lon="-1.783649"><ele>303</ele><time>2019-08-30T12:23:54Z</time><name>PT8569</name></trkpt>
<trkpt lat="53.249449" lon="-1.783636"><ele>304</ele><time>2019-08-30T12:23:55Z</time><name>PT8570</name></trkpt>
<trkpt lat="53.249459" lon="-1.783627"><ele>305</ele><time>2019-08-30T12:23:56Z</time><name>PT8571</name></trkpt>
<trkpt lat="53.249469" lon="-1.783618"><ele>306</ele><time>2019-08-30T12:23:57Z</time><name>PT8572</name></trkpt>
<trkpt lat="53.249479" lon="-1.783612"><ele>305</ele><time>2019-08-30T12:23:58Z</time><name>PT8573</name></trkpt>
<trkpt lat="53.249488" lon="-1.783605"><ele>304</ele><time>2019-08-30T12:23:59Z</time><name>PT8574</name></trkpt>
<trkpt lat="53.249498" lon="-1.783596"><ele>305</ele><time>2019-08-30T12:24:00Z</time><name>PT8575</name></trkpt>
<trkpt lat="53.249509" lon="-1.783591"><ele>305</ele><time>2019-08-30T12:24:01Z</time><name>PT8576</name></trkpt>
<trkpt lat="53.249521" lon="-1.783583"><ele>304</ele><time>2019-08-30T12:24:02Z</time><name>PT8577</name></trkpt>
<trkpt lat="53.249533" lon="-1.783576"><ele>304</ele><time>2019-08-30T12:24:03Z</time><name>PT8578</name></trkpt>
<trkpt lat="53.249544" lon="-1.783568"><ele>303</ele><time>2019-08-30T12:24:04Z</time><name>PT8579</name></trkpt>
<trkpt lat="53.249551" lon="-1.783561"><ele>303</ele><time>2019-08-30T12:24:05Z</time><name>PT8580</name></trkpt>
<trkpt lat="53.249560" lon="-1.783556"><ele>304</ele><time>2019-08-30T12:24:06Z</time><name>PT8581</name></trkpt>
<trkpt lat="53.249571" lon="-1.783549"><ele>304</ele><time>2019-08-30T12:24:07Z</time><name>PT8582</name></trkpt>
<trkpt lat="53.249577" lon="-1.783534"><ele>304</ele><time>2019-08-30T12:24:08Z</time><name>PT8583</name></trkpt>
<trkpt lat="53.249584" lon="-1.783523"><ele>304</ele><time>2019-08-30T12:24:09Z</time><name>PT8584</name></trkpt>
<trkpt lat="53.249605" lon="-1.783503"><ele>306</ele><time>2019-08-30T12:24:10Z</time><name>PT8585</name></trkpt>
<trkpt lat="53.249621" lon="-1.783482"><ele>307</ele><time>2019-08-30T12:24:11Z</time><name>PT8586</name></trkpt>
<trkpt lat="53.249634" lon="-1.783471"><ele>307</ele><time>2019-08-30T12:24:12Z</time><name>PT8587</name></trkpt>
<trkpt lat="53.249645" lon="-1.783453"><ele>308</ele><time>2019-08-30T12:24:13Z</time><name>PT8588</name></trkpt>
<trkpt lat="53.249656" lon="-1.783437"><ele>308</ele><time>2019-08-30T12:24:14Z</time><name>PT8589</name></trkpt>
<trkpt lat="53.249667" lon="-1.783427"><ele>309</ele><time>2019-08-30T12:24:15Z</time><name>PT8590</name></trkpt>
<trkpt lat="53.249676" lon="-1.783417"><ele>309</ele><time>2019-08-30T12:24:16Z</time><name>PT8591</name></trkpt>
<trkpt lat="53.249686" lon="-1.783410"><ele>309</ele><time>2019-08-30T12:24:17Z</time><name>PT8592</name></trkpt>
<trkpt lat="53.249694" lon="-1.783399"><ele>309</ele><time>2019-08-30T12:24:18Z</time><name>PT8593</name></trkpt>
<trkpt lat="53.249705" lon="-1.783390"><ele>309</ele><time>2019-08-30T12:24:19Z</time><name>PT8594</name></trkpt>
<trkpt lat="53.249721" lon="-1.783379"><ele>309</ele><time>2019-08-30T12:24:20Z</time><name>PT8595</name></trkpt>
<trkpt lat="53.249735" lon="-1.783369"><ele>309</ele><time>2019-08-30T12:24:21Z</time><name>PT8596</name></trkpt>
<trkpt lat="53.249747" lon="-1.783361"><ele>309</ele><time>2019-08-30T12:24:22Z</time><name>PT8597</name></trkpt>
<trkpt lat="53.249760" lon="-1.783352"><ele>309</ele><time>2019-08-30T12:24:23Z</time><name>PT8598</name></trkpt>
<trkpt lat="53.249770" lon="-1.783341"><ele>310</ele><time>2019-08-30T12:24:24Z</time><name>PT8599</name></trkpt>
<trkpt lat="53.249782" lon="-1.783334"><ele>310</ele><time>2019-08-30T12:24:25Z</time><name>PT8600</name></trkpt>
<trkpt lat="53.249792" lon="-1.783325"><ele>311</ele><time>2019-08-30T12:24:26Z</time><name>PT8601</name></trkpt>
<trkpt lat="53.249802" lon="-1.783315"><ele>311</ele><time>2019-08-30T12:24:27Z</time><name>PT8602</name></trkpt>
<trkpt lat="53.249813" lon="-1.783306"><ele>311</ele><time>2019-08-30T12:24:28Z</time><name>PT8603</name></trkpt>
<trkpt lat="53.249825" lon="-1.783297"><ele>312</ele><time>2019-08-30T12:24:29Z</time><name>PT8604</name></trkpt>
<trkpt lat="53.249837" lon="-1.783287"><ele>312</ele><time>2019-08-30T12:24:30Z</time><name>PT8605</name></trkpt>
<trkpt lat="53.249847" lon="-1.783278"><ele>311</ele><time>2019-08-30T12:24:31Z</time><name>PT8606</name></trkpt>
<trkpt lat="53.249857" lon="-1.783269"><ele>312</ele><time>2019-08-30T12:24:32Z</time><name>PT8607</name></trkpt>
<trkpt lat="53.249868" lon="-1.783261"><ele>311</ele><time>2019-08-30T12:24:33Z</time><name>PT8608</name></trkpt>
<trkpt lat="53.249879" lon="-1.783253"><ele>311</ele><time>2019-08-30T12:24:34Z</time><name>PT8609</name></trkpt>
<trkpt lat="53.249891" lon="-1.783244"><ele>311</ele><time>2019-08-30T12:24:35Z</time><name>PT8610</name></trkpt>
<trkpt lat="53.249903" lon="-1.783230"><ele>311</ele><time>2019-08-30T12:24:36Z</time><name>PT8611</name></trkpt>
<trkpt lat="53.249914" lon="-1.783220"><ele>310</ele><time>2019-08-30T12:24:37Z</time><name>PT8612</name></trkpt>
<trkpt lat="53.249924" lon="-1.783209"><ele>311</ele><time>2019-08-30T12:24:38Z</time><name>PT8613</name></trkpt>
<trkpt lat="53.249935" lon="-1.783200"><ele>311</ele><time>2019-08-30T12:24:39Z</time><name>PT8614</name></trkpt>
<trkpt lat="53.249947" lon="-1.783192"><ele>311</ele><time>2019-08-30T12:24:40Z</time><name>PT8615</name></trkpt>
<trkpt lat="53.249960" lon="-1.783180"><ele>312</ele><time>2019-08-30T12:24:41Z</time><name>PT8616</name></trkpt>
<trkpt lat="53.249969" lon="-1.783168"><ele>312</ele><time>2019-08-30T12:24:42Z</time><name>PT8617</name></trkpt>
<trkpt lat="53.249983" lon="-1.783160"><ele>312</ele><time>2019-08-30T12:24:43Z</time><name>PT8618</name></trkpt>
<trkpt lat="53.249999" lon="-1.783149"><ele>312</ele><time>2019-08-30T12:24:44Z</time><name>PT8619</name></trkpt>
<trkpt lat="53.250011" lon="-1.783138"><ele>312</ele><time>2019-08-30T12:24:45Z</time><name>PT8620</name></trkpt>
<trkpt lat="53.250024" lon="-1.783129"><ele>312</ele><time>2019-08-30T12:24:46Z</time><name>PT8621</name></trkpt>
<trkpt lat="53.250037" lon="-1.783118"><ele>312</ele><time>2019-08-30T12:24:47Z</time><name>PT8622</name></trkpt>
<trkpt lat="53.250050" lon="-1.783107"><ele>313</ele><time>2019-08-30T12:24:48Z</time><name>PT8623</name></trkpt>
<trkpt lat="53.250058" lon="-1.783099"><ele>313</ele><time>2019-08-30T12:24:49Z</time><name>PT8624</name></trkpt>
<trkpt lat="53.250070" lon="-1.783089"><ele>313</ele><time>2019-08-30T12:24:50Z</time><name>PT8625</name></trkpt>
<trkpt lat="53.250082" lon="-1.783078"><ele>312</ele><time>2019-08-30T12:24:51Z</time><name>PT8626</name></trkpt>
<trkpt lat="53.250098" lon="-1.783069"><ele>313</ele><time>2019-08-30T12:24:52Z</time><name>PT8627</name></trkpt>
<trkpt lat="53.250112" lon="-1.783060"><ele>314</ele><time>2019-08-30T12:24:53Z</time><name>PT8628</name></trkpt>
<trkpt lat="53.250122" lon="-1.783052"><ele>314</ele><time>2019-08-30T12:24:54Z</time><name>PT8629</name></trkpt>
<trkpt lat="53.250132" lon="-1.783049"><ele>314</ele><time>2019-08-30T12:24:55Z</time><name>PT8630</name></trkpt>
<trkpt lat="53.250142" lon="-1.783043"><ele>314</ele><time>2019-08-30T12:24:56Z</time><name>PT8631</name></trkpt>
<trkpt lat="53.250153" lon="-1.783035"><ele>313</ele><time>2019-08-30T12:24:57Z</time><name>PT8632</name></trkpt>
<trkpt lat="53.250166" lon="-1.783032"><ele>313</ele><time>2019-08-30T12:24:58Z</time><name>PT8633</name></trkpt>
<trkpt lat="53.250179" lon="-1.783021"><ele>313</ele><time>2019-08-30T12:24:59Z</time><name>PT8634</name></trkpt>
<trkpt lat="53.250193" lon="-1.783016"><ele>312</ele><time>2019-08-30T12:25:00Z</time><name>PT8635</name></trkpt>
<trkpt lat="53.250207" lon="-1.783009"><ele>313</ele><time>2019-08-30T12:25:01Z</time><name>PT8636</name></trkpt>
<trkpt lat="53.250223" lon="-1.782993"><ele>313</ele><time>2019-08-30T12:25:02Z</time><name>PT8637</name></trkpt>
<trkpt lat="53.250236" lon="-1.782980"><ele>312</ele><time>2019-08-30T12:25:03Z</time><name>PT8638</name></trkpt>
<trkpt lat="53.250248" lon="-1.782964"><ele>311</ele><time>2019-08-30T12:25:04Z</time><name>PT8639</name></trkpt>
<trkpt lat="53.250257" lon="-1.782952"><ele>312</ele><time>2019-08-30T12:25:05Z</time><name>PT8640</name></trkpt>
<trkpt lat="53.250268" lon="-1.782943"><ele>312</ele><time>2019-08-30T12:25:06Z</time><name>PT8641</name></trkpt>
<trkpt lat="53.250276" lon="-1.782932"><ele>312</ele><time>2019-08-30T12:25:07Z</time><name>PT8642</name></trkpt>
<trkpt lat="53.250285" lon="-1.782923"><ele>312</ele><time>2019-08-30T12:25:08Z</time><name>PT8643</name></trkpt>
<trkpt lat="53.250296" lon="-1.782918"><ele>311</ele><time>2019-08-30T12:25:09Z</time><name>PT8644</name></trkpt>
<trkpt lat="53.250306" lon="-1.782911"><ele>312</ele><time>2019-08-30T12:25:10Z</time><name>PT8645</name></trkpt>
<trkpt lat="53.250317" lon="-1.782903"><ele>312</ele><time>2019-08-30T12:25:11Z</time><name>PT8646</name></trkpt>
<trkpt lat="53.250328" lon="-1.782895"><ele>312</ele><time>2019-08-30T12:25:12Z</time><name>PT8647</name></trkpt>
<trkpt lat="53.250337" lon="-1.782884"><ele>313</ele><time>2019-08-30T12:25:13Z</time><name>PT8648</name></trkpt>
<trkpt lat="53.250350" lon="-1.782872"><ele>312</ele><time>2019-08-30T12:25:14Z</time><name>PT8649</name></trkpt>
<trkpt lat="53.250361" lon="-1.782865"><ele>313</ele><time>2019-08-30T12:25:15Z</time><name>PT8650</name></trkpt>
<trkpt lat="53.250372" lon="-1.782854"><ele>314</ele><time>2019-08-30T12:25:16Z</time><name>PT8651</name></trkpt>
<trkpt lat="53.250385" lon="-1.782844"><ele>314</ele><time>2019-08-30T12:25:17Z</time><name>PT8652</name></trkpt>
<trkpt lat="53.250399" lon="-1.782839"><ele>314</ele><time>2019-08-30T12:25:18Z</time><name>PT8653</name></trkpt>
<trkpt lat="53.250410" lon="-1.782835"><ele>314</ele><time>2019-08-30T12:25:19Z</time><name>PT8654</name></trkpt>
<trkpt lat="53.250422" lon="-1.782829"><ele>315</ele><time>2019-08-30T12:25:20Z</time><name>PT8655</name></trkpt>
<trkpt lat="53.250435" lon="-1.782820"><ele>314</ele><time>2019-08-30T12:25:21Z</time><name>PT8656</name></trkpt>
<trkpt lat="53.250448" lon="-1.782814"><ele>314</ele><time>2019-08-30T12:25:22Z</time><name>PT8657</name></trkpt>
<trkpt lat="53.250460" lon="-1.782811"><ele>313</ele><time>2019-08-30T12:25:23Z</time><name>PT8658</name></trkpt>
<trkpt lat="53.250469" lon="-1.782803"><ele>314</ele><time>2019-08-30T12:25:24Z</time><name>PT8659</name></trkpt>
<trkpt lat="53.250478" lon="-1.782792"><ele>314</ele><time>2019-08-30T12:25:25Z</time><name>PT8660</name></trkpt>
<trkpt lat="53.250491" lon="-1.782781"><ele>314</ele><time>2019-08-30T12:25:26Z</time><name>PT8661</name></trkpt>
<trkpt lat="53.250503" lon="-1.782771"><ele>314</ele><time>2019-08-30T12:25:27Z</time><name>PT8662</name></trkpt>
<trkpt lat="53.250516" lon="-1.782762"><ele>314</ele><time>2019-08-30T12:25:28Z</time><name>PT8663</name></trkpt>
<trkpt lat="53.250530" lon="-1.782754"><ele>314</ele><time>2019-08-30T12:25:29Z</time><name>PT8664</name></trkpt>
<trkpt lat="53.250542" lon="-1.782752"><ele>314</ele><time>2019-08-30T12:25:30Z</time><name>PT8665</name></trkpt>
<trkpt lat="53.250551" lon="-1.782747"><ele>314</ele><time>2019-08-30T12:25:31Z</time><name>PT8666</name></trkpt>
<trkpt lat="53.250561" lon="-1.782743"><ele>314</ele><time>2019-08-30T12:25:32Z</time><name>PT8667</name></trkpt>
<trkpt lat="53.250574" lon="-1.782735"><ele>314</ele><time>2019-08-30T12:25:33Z</time><name>PT8668</name></trkpt>
<trkpt lat="53.250587" lon="-1.782727"><ele>314</ele><time>2019-08-30T12:25:34Z</time><name>PT8669</name></trkpt>
<trkpt lat="53.250602" lon="-1.782720"><ele>315</ele><time>2019-08-30T12:25:35Z</time><name>PT8670</name></trkpt>
<trkpt lat="53.250614" lon="-1.782713"><ele>315</ele><time>2019-08-30T12:25:36Z</time><name>PT8671</name></trkpt>
<trkpt lat="53.250624" lon="-1.782705"><ele>316</ele><time>2019-08-30T12:25:37Z</time><name>PT8672</name></trkpt>
<trkpt lat="53.250635" lon="-1.782695"><ele>317</ele><time>2019-08-30T12:25:38Z</time><name>PT8673</name></trkpt>
<trkpt lat="53.250647" lon="-1.782690"><ele>318</ele><time>2019-08-30T12:25:39Z</time><name>PT8674</name></trkpt>
<trkpt lat="53.250661" lon="-1.782682"><ele>318</ele><time>2019-08-30T12:25:40Z</time><name>PT8675</name></trkpt>
<trkpt lat="53.250673" lon="-1.782669"><ele>318</ele><time>2019-08-30T12:25:41Z</time><name>PT8676</name></trkpt>
<trkpt lat="53.250682" lon="-1.782663"><ele>319</ele><time>2019-08-30T12:25:42Z</time><name>PT8677</name></trkpt>
<trkpt lat="53.250689" lon="-1.782658"><ele>318</ele><time>2019-08-30T12:25:43Z</time><name>PT8678</name></trkpt>
<trkpt lat="53.250701" lon="-1.782651"><ele>318</ele><time>2019-08-30T12:25:44Z</time><name>PT8679</name></trkpt>
<trkpt lat="53.250714" lon="-1.782645"><ele>318</ele><time>2019-08-30T12:25:45Z</time><name>PT8680</name></trkpt>
<trkpt lat="53.250728" lon="-1.782637"><ele>318</ele><time>2019-08-30T12:25:46Z</time><name>PT8681</name></trkpt>
<trkpt lat="53.250739" lon="-1.782630"><ele>319</ele><time>2019-08-30T12:25:47Z</time><name>PT8682</name></trkpt>
<trkpt lat="53.250747" lon="-1.782622"><ele>319</ele><time>2019-08-30T12:25:48Z</time><name>PT8683</name></trkpt>
<trkpt lat="53.250755" lon="-1.782615"><ele>319</ele><time>2019-08-30T12:25:49Z</time><name>PT8684</name></trkpt>
<trkpt lat="53.250765" lon="-1.782611"><ele>319</ele><time>2019-08-30T12:25:50Z</time><name>PT8685</name></trkpt>
<trkpt lat="53.250777" lon="-1.782607"><ele>319</ele><time>2019-08-30T12:25:51Z</time><name>PT8686</name></trkpt>
<trkpt lat="53.250788" lon="-1.782601"><ele>319</ele><time>2019-08-30T12:25:52Z</time><name>PT8687</name></trkpt>
<trkpt lat="53.250794" lon="-1.782596"><ele>318</ele><time>2019-08-30T12:25:53Z</time><name>PT8688</name></trkpt>
<trkpt lat="53.250799" lon="-1.782597"><ele>318</ele><time>2019-08-30T12:25:54Z</time><name>PT8689</name></trkpt>
<trkpt lat="53.250800" lon="-1.782605"><ele>318</ele><time>2019-08-30T12:25:55Z</time><name>PT8690</name></trkpt>
<trkpt lat="53.250806" lon="-1.782609"><ele>318</ele><time>2019-08-30T12:25:56Z</time><name>PT8691</name></trkpt>
<trkpt lat="53.250810" lon="-1.782610"><ele>317</ele><time>2019-08-30T12:25:57Z</time><name>PT8692</name></trkpt>
<trkpt lat="53.250817" lon="-1.782604"><ele>317</ele><time>2019-08-30T12:25:58Z</time><name>PT8693</name></trkpt>
<trkpt lat="53.250828" lon="-1.782599"><ele>316</ele><time>2019-08-30T12:25:59Z</time><name>PT8694</name></trkpt>
<trkpt lat="53.250838" lon="-1.782592"><ele>316</ele><time>2019-08-30T12:26:00Z</time><name>PT8695</name></trkpt>
<trkpt lat="53.250847" lon="-1.782583"><ele>315</ele><time>2019-08-30T12:26:01Z</time><name>PT8696</name></trkpt>
<trkpt lat="53.250855" lon="-1.782576"><ele>314</ele><time>2019-08-30T12:26:02Z</time><name>PT8697</name></trkpt>
<trkpt lat="53.250865" lon="-1.782570"><ele>314</ele><time>2019-08-30T12:26:03Z</time><name>PT8698</name></trkpt>
<trkpt lat="53.250875" lon="-1.782564"><ele>315</ele><time>2019-08-30T12:26:04Z</time><name>PT8699</name></trkpt>
<trkpt lat="53.250882" lon="-1.782555"><ele>315</ele><time>2019-08-30T12:26:05Z</time><name>PT8700</name></trkpt>
<trkpt lat="53.250889" lon="-1.782547"><ele>315</ele><time>2019-08-30T12:26:06Z</time><name>PT8701</name></trkpt>
<trkpt lat="53.250899" lon="-1.782542"><ele>315</ele><time>2019-08-30T12:26:07Z</time><name>PT8702</name></trkpt>
<trkpt lat="53.250910" lon="-1.782537"><ele>316</ele><time>2019-08-30T12:26:08Z</time><name>PT8703</name></trkpt>
<trkpt lat="53.250948" lon="-1.782505"><ele>317</ele><time>2019-08-30T12:26:09Z</time><name>PT8704</name></trkpt>
<trkpt lat="53.250965" lon="-1.782490"><ele>318</ele><time>2019-08-30T12:26:10Z</time><name>PT8705</name></trkpt>
<trkpt lat="53.250976" lon="-1.782481"><ele>318</ele><time>2019-08-30T12:26:11Z</time><name>PT8706</name></trkpt>
<trkpt lat="53.251003" lon="-1.782471"><ele>318</ele><time>2019-08-30T12:26:12Z</time><name>PT8707</name></trkpt>
<trkpt lat="53.251014" lon="-1.782466"><ele>319</ele><time>2019-08-30T12:26:13Z</time><name>PT8708</name></trkpt>
<trkpt lat="53.251024" lon="-1.782455"><ele>319</ele><time>2019-08-30T12:26:14Z</time><name>PT8709</name></trkpt>
<trkpt lat="53.251035" lon="-1.782449"><ele>319</ele><time>2019-08-30T12:26:15Z</time><name>PT8710</name></trkpt>
<trkpt lat="53.251048" lon="-1.782444"><ele>320</ele><time>2019-08-30T12:26:16Z</time><name>PT8711</name></trkpt>
<trkpt lat="53.251060" lon="-1.782436"><ele>321</ele><time>2019-08-30T12:26:17Z</time><name>PT8712</name></trkpt>
<trkpt lat="53.251070" lon="-1.782424"><ele>322</ele><time>2019-08-30T12:26:18Z</time><name>PT8713</name></trkpt>
<trkpt lat="53.251081" lon="-1.782417"><ele>322</ele><time>2019-08-30T12:26:19Z</time><name>PT8714</name></trkpt>
<trkpt lat="53.251086" lon="-1.782415"><ele>322</ele><time>2019-08-30T12:26:20Z</time><name>PT8715</name></trkpt>
<trkpt lat="53.251095" lon="-1.782412"><ele>323</ele><time>2019-08-30T12:26:21Z</time><name>PT8716</name></trkpt>
<trkpt lat="53.251108" lon="-1.782406"><ele>322</ele><time>2019-08-30T12:26:22Z</time><name>PT8717</name></trkpt>
<trkpt lat="53.251121" lon="-1.782398"><ele>322</ele><time>2019-08-30T12:26:23Z</time><name>PT8718</name></trkpt>
<trkpt lat="53.251133" lon="-1.782394"><ele>322</ele><time>2019-08-30T12:26:24Z</time><name>PT8719</name></trkpt>
<trkpt lat="53.251144" lon="-1.782388"><ele>322</ele><time>2019-08-30T12:26:25Z</time><name>PT8720</name></trkpt>
<trkpt lat="53.251156" lon="-1.782377"><ele>322</ele><time>2019-08-30T12:26:26Z</time><name>PT8721</name></trkpt>
<trkpt lat="53.251170" lon="-1.782369"><ele>322</ele><time>2019-08-30T12:26:27Z</time><name>PT8722</name></trkpt>
<trkpt lat="53.251183" lon="-1.782363"><ele>322</ele><time>2019-08-30T12:26:28Z</time><name>PT8723</name></trkpt>
<trkpt lat="53.251198" lon="-1.782352"><ele>321</ele><time>2019-08-30T12:26:29Z</time><name>PT8724</name></trkpt>
<trkpt lat="53.251210" lon="-1.782342"><ele>321</ele><time>2019-08-30T12:26:30Z</time><name>PT8725</name></trkpt>
<trkpt lat="53.251219" lon="-1.782332"><ele>321</ele><time>2019-08-30T12:26:31Z</time><name>PT8726</name></trkpt>
<trkpt lat="53.251231" lon="-1.782323"><ele>322</ele><time>2019-08-30T12:26:32Z</time><name>PT8727</name></trkpt>
<trkpt lat="53.251239" lon="-1.782315"><ele>322</ele><time>2019-08-30T12:26:33Z</time><name>PT8728</name></trkpt>
<trkpt lat="53.251254" lon="-1.782306"><ele>322</ele><time>2019-08-30T12:26:34Z</time><name>PT8729</name></trkpt>
<trkpt lat="53.251268" lon="-1.782295"><ele>322</ele><time>2019-08-30T12:26:35Z</time><name>PT8730</name></trkpt>
<trkpt lat="53.251281" lon="-1.782283"><ele>322</ele><time>2019-08-30T12:26:36Z</time><name>PT8731</name></trkpt>
<trkpt lat="53.251294" lon="-1.782273"><ele>322</ele><time>2019-08-30T12:26:37Z</time><name>PT8732</name></trkpt>
<trkpt lat="53.251305" lon="-1.782263"><ele>322</ele><time>2019-08-30T12:26:38Z</time><name>PT8733</name></trkpt>
<trkpt lat="53.251313" lon="-1.782252"><ele>322</ele><time>2019-08-30T12:26:39Z</time><name>PT8734</name></trkpt>
<trkpt lat="53.251321" lon="-1.782241"><ele>322</ele><time>2019-08-30T12:26:40Z</time><name>PT8735</name></trkpt>
<trkpt lat="53.251332" lon="-1.782235"><ele>321</ele><time>2019-08-30T12:26:41Z</time><name>PT8736</name></trkpt>
<trkpt lat="53.251343" lon="-1.782229"><ele>321</ele><time>2019-08-30T12:26:42Z</time><name>PT8737</name></trkpt>
<trkpt lat="53.251356" lon="-1.782219"><ele>321</ele><time>2019-08-30T12:26:43Z</time><name>PT8738</name></trkpt>
<trkpt lat="53.251369" lon="-1.782209"><ele>320</ele><time>2019-08-30T12:26:44Z</time><name>PT8739</name></trkpt>
<trkpt lat="53.251383" lon="-1.782198"><ele>320</ele><time>2019-08-30T12:26:45Z</time><name>PT8740</name></trkpt>
<trkpt lat="53.251397" lon="-1.782185"><ele>320</ele><time>2019-08-30T12:26:46Z</time><name>PT8741</name></trkpt>
<trkpt lat="53.251412" lon="-1.782179"><ele>321</ele><time>2019-08-30T12:26:47Z</time><name>PT8742</name></trkpt>
<trkpt lat="53.251424" lon="-1.782172"><ele>322</ele><time>2019-08-30T12:26:48Z</time><name>PT8743</name></trkpt>
<trkpt lat="53.251438" lon="-1.782164"><ele>322</ele><time>2019-08-30T12:26:49Z</time><name>PT8744</name></trkpt>
<trkpt lat="53.251447" lon="-1.782155"><ele>322</ele><time>2019-08-30T12:26:50Z</time><name>PT8745</name></trkpt>
<trkpt lat="53.251461" lon="-1.782141"><ele>323</ele><time>2019-08-30T12:26:51Z</time><name>PT8746</name></trkpt>
<trkpt lat="53.251473" lon="-1.782136"><ele>323</ele><time>2019-08-30T12:26:52Z</time><name>PT8747</name></trkpt>
<trkpt lat="53.251483" lon="-1.782130"><ele>322</ele><time>2019-08-30T12:26:53Z</time><name>PT8748</name></trkpt>
<trkpt lat="53.251495" lon="-1.782121"><ele>323</ele><time>2019-08-30T12:26:54Z</time><name>PT8749</name></trkpt>
<trkpt lat="53.251506" lon="-1.782115"><ele>322</ele><time>2019-08-30T12:26:55Z</time><name>PT8750</name></trkpt>
<trkpt lat="53.251516" lon="-1.782108"><ele>322</ele><time>2019-08-30T12:26:56Z</time><name>PT8751</name></trkpt>
<trkpt lat="53.251527" lon="-1.782102"><ele>322</ele><time>2019-08-30T12:26:57Z</time><name>PT8752</name></trkpt>
<trkpt lat="53.251532" lon="-1.782098"><ele>322</ele><time>2019-08-30T12:26:58Z</time><name>PT8753</name></trkpt>
<trkpt lat="53.251540" lon="-1.782090"><ele>322</ele><time>2019-08-30T12:26:59Z</time><name>PT8754</name></trkpt>
<trkpt lat="53.251549" lon="-1.782085"><ele>321</ele><time>2019-08-30T12:27:00Z</time><name>PT8755</name></trkpt>
<trkpt lat="53.251559" lon="-1.782083"><ele>321</ele><time>2019-08-30T12:27:01Z</time><name>PT8756</name></trkpt>
<trkpt lat="53.251565" lon="-1.782078"><ele>321</ele><time>2019-08-30T12:27:02Z</time><name>PT8757</name></trkpt>
<trkpt lat="53.251574" lon="-1.782069"><ele>321</ele><time>2019-08-30T12:27:03Z</time><name>PT8758</name></trkpt>
<trkpt lat="53.251590" lon="-1.782063"><ele>319</ele><time>2019-08-30T12:27:04Z</time><name>PT8759</name></trkpt>
<trkpt lat="53.251604" lon="-1.782056"><ele>321</ele><time>2019-08-30T12:27:05Z</time><name>PT8760</name></trkpt>
<trkpt lat="53.251621" lon="-1.782048"><ele>321</ele><time>2019-08-30T12:27:06Z</time><name>PT8761</name></trkpt>
<trkpt lat="53.251633" lon="-1.782039"><ele>321</ele><time>2019-08-30T12:27:07Z</time><name>PT8762</name></trkpt>
<trkpt lat="53.251644" lon="-1.782026"><ele>322</ele><time>2019-08-30T12:27:08Z</time><name>PT8763</name></trkpt>
<trkpt lat="53.251653" lon="-1.782021"><ele>322</ele><time>2019-08-30T12:27:09Z</time><name>PT8764</name></trkpt>
<trkpt lat="53.251666" lon="-1.782015"><ele>322</ele><time>2019-08-30T12:27:10Z</time><name>PT8765</name></trkpt>
<trkpt lat="53.251677" lon="-1.782011"><ele>323</ele><time>2019-08-30T12:27:11Z</time><name>PT8766</name></trkpt>
<trkpt lat="53.251685" lon="-1.782001"><ele>323</ele><time>2019-08-30T12:27:12Z</time><name>PT8767</name></trkpt>
<trkpt lat="53.251696" lon="-1.781985"><ele>324</ele><time>2019-08-30T12:27:13Z</time><name>PT8768</name></trkpt>
<trkpt lat="53.251703" lon="-1.781973"><ele>324</ele><time>2019-08-30T12:27:14Z</time><name>PT8769</name></trkpt>
<trkpt lat="53.251709" lon="-1.781959"><ele>324</ele><time>2019-08-30T12:27:15Z</time><name>PT8770</name></trkpt>
<trkpt lat="53.251715" lon="-1.781940"><ele>325</ele><time>2019-08-30T12:27:16Z</time><name>PT8771</name></trkpt>
<trkpt lat="53.251724" lon="-1.781927"><ele>324</ele><time>2019-08-30T12:27:17Z</time><name>PT8772</name></trkpt>
<trkpt lat="53.251726" lon="-1.781913"><ele>324</ele><time>2019-08-30T12:27:18Z</time><name>PT8773</name></trkpt>
<trkpt lat="53.251732" lon="-1.781903"><ele>325</ele><time>2019-08-30T12:27:19Z</time><name>PT8774</name></trkpt>
<trkpt lat="53.251740" lon="-1.781885"><ele>325</ele><time>2019-08-30T12:27:20Z</time><name>PT8775</name></trkpt>
<trkpt lat="53.251746" lon="-1.781863"><ele>326</ele><time>2019-08-30T12:27:21Z</time><name>PT8776</name></trkpt>
<trkpt lat="53.251751" lon="-1.781845"><ele>327</ele><time>2019-08-30T12:27:22Z</time><name>PT8777</name></trkpt>
<trkpt lat="53.251756" lon="-1.781823"><ele>326</ele><time>2019-08-30T12:27:23Z</time><name>PT8778</name></trkpt>
<trkpt lat="53.251769" lon="-1.781793"><ele>327</ele><time>2019-08-30T12:27:24Z</time><name>PT8779</name></trkpt>
<trkpt lat="53.251786" lon="-1.781766"><ele>328</ele><time>2019-08-30T12:27:25Z</time><name>PT8780</name></trkpt>
<trkpt lat="53.251794" lon="-1.781735"><ele>329</ele><time>2019-08-30T12:27:26Z</time><name>PT8781</name></trkpt>
<trkpt lat="53.251800" lon="-1.781708"><ele>329</ele><time>2019-08-30T12:27:27Z</time><name>PT8782</name></trkpt>
<trkpt lat="53.251806" lon="-1.781681"><ele>330</ele><time>2019-08-30T12:27:28Z</time><name>PT8783</name></trkpt>
<trkpt lat="53.251810" lon="-1.781658"><ele>330</ele><time>2019-08-30T12:27:29Z</time><name>PT8784</name></trkpt>
<trkpt lat="53.251816" lon="-1.781638"><ele>330</ele><time>2019-08-30T12:27:30Z</time><name>PT8785</name></trkpt>
<trkpt lat="53.251818" lon="-1.781618"><ele>330</ele><time>2019-08-30T12:27:31Z</time><name>PT8786</name></trkpt>
<trkpt lat="53.251823" lon="-1.781599"><ele>331</ele><time>2019-08-30T12:27:32Z</time><name>PT8787</name></trkpt>
<trkpt lat="53.251828" lon="-1.781579"><ele>331</ele><time>2019-08-30T12:27:33Z</time><name>PT8788</name></trkpt>
<trkpt lat="53.251834" lon="-1.781561"><ele>331</ele><time>2019-08-30T12:27:34Z</time><name>PT8789</name></trkpt>
<trkpt lat="53.251841" lon="-1.781546"><ele>331</ele><time>2019-08-30T12:27:35Z</time><name>PT8790</name></trkpt>
<trkpt lat="53.251847" lon="-1.781532"><ele>331</ele><time>2019-08-30T12:27:36Z</time><name>PT8791</name></trkpt>
<trkpt lat="53.251852" lon="-1.781517"><ele>331</ele><time>2019-08-30T12:27:37Z</time><name>PT8792</name></trkpt>
<trkpt lat="53.251858" lon="-1.781503"><ele>332</ele><time>2019-08-30T12:27:38Z</time><name>PT8793</name></trkpt>
<trkpt lat="53.251865" lon="-1.781483"><ele>332</ele><time>2019-08-30T12:27:39Z</time><name>PT8794</name></trkpt>
<trkpt lat="53.251872" lon="-1.781462"><ele>332</ele><time>2019-08-30T12:27:40Z</time><name>PT8795</name></trkpt>
<trkpt lat="53.251878" lon="-1.781440"><ele>333</ele><time>2019-08-30T12:27:41Z</time><name>PT8796</name></trkpt>
<trkpt lat="53.251883" lon="-1.781414"><ele>332</ele><time>2019-08-30T12:27:42Z</time><name>PT8797</name></trkpt>
<trkpt lat="53.251889" lon="-1.781391"><ele>332</ele><time>2019-08-30T12:27:43Z</time><name>PT8798</name></trkpt>
<trkpt lat="53.251894" lon="-1.781365"><ele>333</ele><time>2019-08-30T12:27:44Z</time><name>PT8799</name></trkpt>
<trkpt lat="53.251900" lon="-1.781345"><ele>333</ele><time>2019-08-30T12:27:45Z</time><name>PT8800</name></trkpt>
<trkpt lat="53.251907" lon="-1.781330"><ele>333</ele><time>2019-08-30T12:27:46Z</time><name>PT8801</name></trkpt>
<trkpt lat="53.251912" lon="-1.781314"><ele>333</ele><time>2019-08-30T12:27:47Z</time><name>PT8802</name></trkpt>
<trkpt lat="53.251915" lon="-1.781295"><ele>333</ele><time>2019-08-30T12:27:48Z</time><name>PT8803</name></trkpt>
<trkpt lat="53.251921" lon="-1.781279"><ele>333</ele><time>2019-08-30T12:27:49Z</time><name>PT8804</name></trkpt>
<trkpt lat="53.251928" lon="-1.781259"><ele>332</ele><time>2019-08-30T12:27:50Z</time><name>PT8805</name></trkpt>
<trkpt lat="53.251934" lon="-1.781236"><ele>332</ele><time>2019-08-30T12:27:51Z</time><name>PT8806</name></trkpt>
<trkpt lat="53.251940" lon="-1.781220"><ele>332</ele><time>2019-08-30T12:27:52Z</time><name>PT8807</name></trkpt>
<trkpt lat="53.251948" lon="-1.781200"><ele>332</ele><time>2019-08-30T12:27:53Z</time><name>PT8808</name></trkpt>
<trkpt lat="53.251955" lon="-1.781182"><ele>332</ele><time>2019-08-30T12:27:54Z</time><name>PT8809</name></trkpt>
<trkpt lat="53.251961" lon="-1.781167"><ele>331</ele><time>2019-08-30T12:27:55Z</time><name>PT8810</name></trkpt>
<trkpt lat="53.251970" lon="-1.781147"><ele>331</ele><time>2019-08-30T12:27:56Z</time><name>PT8811</name></trkpt>
<trkpt lat="53.251979" lon="-1.781130"><ele>331</ele><time>2019-08-30T12:27:57Z</time><name>PT8812</name></trkpt>
<trkpt lat="53.251988" lon="-1.781113"><ele>332</ele><time>2019-08-30T12:27:58Z</time><name>PT8813</name></trkpt>
<trkpt lat="53.251997" lon="-1.781096"><ele>332</ele><time>2019-08-30T12:27:59Z</time><name>PT8814</name></trkpt>
<trkpt lat="53.252006" lon="-1.781079"><ele>332</ele><time>2019-08-30T12:28:00Z</time><name>PT8815</name></trkpt>
<trkpt lat="53.252014" lon="-1.781064"><ele>332</ele><time>2019-08-30T12:28:01Z</time><name>PT8816</name></trkpt>
<trkpt lat="53.252025" lon="-1.781050"><ele>332</ele><time>2019-08-30T12:28:02Z</time><name>PT8817</name></trkpt>
<trkpt lat="53.252038" lon="-1.781037"><ele>332</ele><time>2019-08-30T12:28:03Z</time><name>PT8818</name></trkpt>
<trkpt lat="53.252048" lon="-1.781022"><ele>333</ele><time>2019-08-30T12:28:04Z</time><name>PT8819</name></trkpt>
<trkpt lat="53.252057" lon="-1.781013"><ele>333</ele><time>2019-08-30T12:28:05Z</time><name>PT8820</name></trkpt>
<trkpt lat="53.252067" lon="-1.781005"><ele>333</ele><time>2019-08-30T12:28:06Z</time><name>PT8821</name></trkpt>
<trkpt lat="53.252080" lon="-1.780998"><ele>333</ele><time>2019-08-30T12:28:07Z</time><name>PT8822</name></trkpt>
<trkpt lat="53.252093" lon="-1.780994"><ele>333</ele><time>2019-08-30T12:28:08Z</time><name>PT8823</name></trkpt>
<trkpt lat="53.252107" lon="-1.780984"><ele>333</ele><time>2019-08-30T12:28:09Z</time><name>PT8824</name></trkpt>
<trkpt lat="53.252119" lon="-1.780978"><ele>332</ele><time>2019-08-30T12:28:10Z</time><name>PT8825</name></trkpt>
<trkpt lat="53.252128" lon="-1.780972"><ele>333</ele><time>2019-08-30T12:28:11Z</time><name>PT8826</name></trkpt>
<trkpt lat="53.252136" lon="-1.780962"><ele>333</ele><time>2019-08-30T12:28:12Z</time><name>PT8827</name></trkpt>
<trkpt lat="53.252147" lon="-1.780955"><ele>332</ele><time>2019-08-30T12:28:13Z</time><name>PT8828</name></trkpt>
<trkpt lat="53.252159" lon="-1.780949"><ele>333</ele><time>2019-08-30T12:28:14Z</time><name>PT8829</name></trkpt>
<trkpt lat="53.252174" lon="-1.780942"><ele>333</ele><time>2019-08-30T12:28:15Z</time><name>PT8830</name></trkpt>
<trkpt lat="53.252188" lon="-1.780934"><ele>333</ele><time>2019-08-30T12:28:16Z</time><name>PT8831</name></trkpt>
<trkpt lat="53.252198" lon="-1.780929"><ele>332</ele><time>2019-08-30T12:28:17Z</time><name>PT8832</name></trkpt>
<trkpt lat="53.252204" lon="-1.780926"><ele>332</ele><time>2019-08-30T12:28:18Z</time><name>PT8833</name></trkpt>
<trkpt lat="53.252216" lon="-1.780918"><ele>332</ele><time>2019-08-30T12:28:19Z</time><name>PT8834</name></trkpt>
<trkpt lat="53.252232" lon="-1.780907"><ele>332</ele><time>2019-08-30T12:28:20Z</time><name>PT8835</name></trkpt>
<trkpt lat="53.252247" lon="-1.780898"><ele>332</ele><time>2019-08-30T12:28:21Z</time><name>PT8836</name></trkpt>
<trkpt lat="53.252257" lon="-1.780884"><ele>332</ele><time>2019-08-30T12:28:22Z</time><name>PT8837</name></trkpt>
<trkpt lat="53.252267" lon="-1.780874"><ele>333</ele><time>2019-08-30T12:28:23Z</time><name>PT8838</name></trkpt>
<trkpt lat="53.252278" lon="-1.780866"><ele>333</ele><time>2019-08-30T12:28:24Z</time><name>PT8839</name></trkpt>
<trkpt lat="53.252287" lon="-1.780857"><ele>333</ele><time>2019-08-30T12:28:25Z</time><name>PT8840</name></trkpt>
<trkpt lat="53.252302" lon="-1.780852"><ele>333</ele><time>2019-08-30T12:28:26Z</time><name>PT8841</name></trkpt>
<trkpt lat="53.252315" lon="-1.780845"><ele>332</ele><time>2019-08-30T12:28:27Z</time><name>PT8842</name></trkpt>
<trkpt lat="53.252326" lon="-1.780838"><ele>332</ele><time>2019-08-30T12:28:28Z</time><name>PT8843</name></trkpt>
<trkpt lat="53.252335" lon="-1.780830"><ele>333</ele><time>2019-08-30T12:28:29Z</time><name>PT8844</name></trkpt>
<trkpt lat="53.252346" lon="-1.780822"><ele>333</ele><time>2019-08-30T12:28:30Z</time><name>PT8845</name></trkpt>
<trkpt lat="53.252357" lon="-1.780813"><ele>333</ele><time>2019-08-30T12:28:31Z</time><name>PT8846</name></trkpt>
<trkpt lat="53.252372" lon="-1.780807"><ele>333</ele><time>2019-08-30T12:28:32Z</time><name>PT8847</name></trkpt>
<trkpt lat="53.252385" lon="-1.780796"><ele>334</ele><time>2019-08-30T12:28:33Z</time><name>PT8848</name></trkpt>
<trkpt lat="53.252397" lon="-1.780788"><ele>334</ele><time>2019-08-30T12:28:34Z</time><name>PT8849</name></trkpt>
<trkpt lat="53.252406" lon="-1.780782"><ele>334</ele><time>2019-08-30T12:28:35Z</time><name>PT8850</name></trkpt>
<trkpt lat="53.252416" lon="-1.780771"><ele>335</ele><time>2019-08-30T12:28:36Z</time><name>PT8851</name></trkpt>
<trkpt lat="53.252426" lon="-1.780764"><ele>335</ele><time>2019-08-30T12:28:37Z</time><name>PT8852</name></trkpt>
<trkpt lat="53.252440" lon="-1.780751"><ele>336</ele><time>2019-08-30T12:28:38Z</time><name>PT8853</name></trkpt>
<trkpt lat="53.252453" lon="-1.780741"><ele>336</ele><time>2019-08-30T12:28:39Z</time><name>PT8854</name></trkpt>
<trkpt lat="53.252463" lon="-1.780736"><ele>336</ele><time>2019-08-30T12:28:40Z</time><name>PT8855</name></trkpt>
<trkpt lat="53.252474" lon="-1.780728"><ele>337</ele><time>2019-08-30T12:28:41Z</time><name>PT8856</name></trkpt>
<trkpt lat="53.252485" lon="-1.780721"><ele>337</ele><time>2019-08-30T12:28:42Z</time><name>PT8857</name></trkpt>
<trkpt lat="53.252498" lon="-1.780709"><ele>337</ele><time>2019-08-30T12:28:43Z</time><name>PT8858</name></trkpt>
<trkpt lat="53.252512" lon="-1.780699"><ele>337</ele><time>2019-08-30T12:28:44Z</time><name>PT8859</name></trkpt>
<trkpt lat="53.252523" lon="-1.780691"><ele>337</ele><time>2019-08-30T12:28:45Z</time><name>PT8860</name></trkpt>
<trkpt lat="53.252534" lon="-1.780682"><ele>338</ele><time>2019-08-30T12:28:46Z</time><name>PT8861</name></trkpt>
<trkpt lat="53.252545" lon="-1.780674"><ele>338</ele><time>2019-08-30T12:28:47Z</time><name>PT8862</name></trkpt>
<trkpt lat="53.252558" lon="-1.780665"><ele>338</ele><time>2019-08-30T12:28:48Z</time><name>PT8863</name></trkpt>
<trkpt lat="53.252572" lon="-1.780655"><ele>338</ele><time>2019-08-30T12:28:49Z</time><name>PT8864</name></trkpt>
<trkpt lat="53.252587" lon="-1.780649"><ele>338</ele><time>2019-08-30T12:28:50Z</time><name>PT8865</name></trkpt>
<trkpt lat="53.252599" lon="-1.780644"><ele>338</ele><time>2019-08-30T12:28:51Z</time><name>PT8866</name></trkpt>
<trkpt lat="53.252610" lon="-1.780634"><ele>338</ele><time>2019-08-30T12:28:52Z</time><name>PT8867</name></trkpt>
<trkpt lat="53.252621" lon="-1.780627"><ele>338</ele><time>2019-08-30T12:28:53Z</time><name>PT8868</name></trkpt>
<trkpt lat="53.252635" lon="-1.780632"><ele>337</ele><time>2019-08-30T12:28:54Z</time><name>PT8869</name></trkpt>
<trkpt lat="53.252648" lon="-1.780629"><ele>337</ele><time>2019-08-30T12:28:55Z</time><name>PT8870</name></trkpt>
<trkpt lat="53.252660" lon="-1.780619"><ele>337</ele><time>2019-08-30T12:28:56Z</time><name>PT8871</name></trkpt>
<trkpt lat="53.252671" lon="-1.780609"><ele>337</ele><time>2019-08-30T12:28:57Z</time><name>PT8872</name></trkpt>
<trkpt lat="53.252677" lon="-1.780597"><ele>337</ele><time>2019-08-30T12:28:58Z</time><name>PT8873</name></trkpt>
<trkpt lat="53.252686" lon="-1.780583"><ele>337</ele><time>2019-08-30T12:28:59Z</time><name>PT8874</name></trkpt>
<trkpt lat="53.252693" lon="-1.780569"><ele>337</ele><time>2019-08-30T12:29:00Z</time><name>PT8875</name></trkpt>
<trkpt lat="53.252700" lon="-1.780550"><ele>338</ele><time>2019-08-30T12:29:01Z</time><name>PT8876</name></trkpt>
<trkpt lat="53.252708" lon="-1.780538"><ele>337</ele><time>2019-08-30T12:29:02Z</time><name>PT8877</name></trkpt>
<trkpt lat="53.252715" lon="-1.780525"><ele>337</ele><time>2019-08-30T12:29:03Z</time><name>PT8878</name></trkpt>
<trkpt lat="53.252725" lon="-1.780496"><ele>339</ele><time>2019-08-30T12:29:04Z</time><name>PT8879</name></trkpt>
<trkpt lat="53.252731" lon="-1.780485"><ele>339</ele><time>2019-08-30T12:29:05Z</time><name>PT8880</name></trkpt>
<trkpt lat="53.252738" lon="-1.780468"><ele>339</ele><time>2019-08-30T12:29:06Z</time><name>PT8881</name></trkpt>
<trkpt lat="53.252750" lon="-1.780458"><ele>339</ele><time>2019-08-30T12:29:07Z</time><name>PT8882</name></trkpt>
<trkpt lat="53.252754" lon="-1.780448"><ele>338</ele><time>2019-08-30T12:29:08Z</time><name>PT8883</name></trkpt>
<trkpt lat="53.252753" lon="-1.780442"><ele>339</ele><time>2019-08-30T12:29:09Z</time><name>PT8884</name></trkpt>
<trkpt lat="53.252753" lon="-1.780450"><ele>338</ele><time>2019-08-30T12:29:10Z</time><name>PT8885</name></trkpt>
<trkpt lat="53.252752" lon="-1.780440"><ele>338</ele><time>2019-08-30T12:29:11Z</time><name>PT8886</name></trkpt>
<trkpt lat="53.252753" lon="-1.780430"><ele>338</ele><time>2019-08-30T12:29:13Z</time><name>PT8887</name></trkpt>
<trkpt lat="53.252757" lon="-1.780422"><ele>338</ele><time>2019-08-30T12:29:13Z</time><name>PT8888</name></trkpt>
<trkpt lat="53.252762" lon="-1.780406"><ele>338</ele><time>2019-08-30T12:29:14Z</time><name>PT8889</name></trkpt>
<trkpt lat="53.252767" lon="-1.780394"><ele>339</ele><time>2019-08-30T12:29:15Z</time><name>PT8890</name></trkpt>
<trkpt lat="53.252770" lon="-1.780382"><ele>338</ele><time>2019-08-30T12:29:16Z</time><name>PT8891</name></trkpt>
<trkpt lat="53.252772" lon="-1.780370"><ele>338</ele><time>2019-08-30T12:29:17Z</time><name>PT8892</name></trkpt>
<trkpt lat="53.252775" lon="-1.780359"><ele>338</ele><time>2019-08-30T12:29:18Z</time><name>PT8893</name></trkpt>
<trkpt lat="53.252780" lon="-1.780351"><ele>338</ele><time>2019-08-30T12:29:19Z</time><name>PT8894</name></trkpt>
<trkpt lat="53.252786" lon="-1.780337"><ele>338</ele><time>2019-08-30T12:29:20Z</time><name>PT8895</name></trkpt>
<trkpt lat="53.252793" lon="-1.780324"><ele>338</ele><time>2019-08-30T12:29:21Z</time><name>PT8896</name></trkpt>
<trkpt lat="53.252798" lon="-1.780307"><ele>339</ele><time>2019-08-30T12:29:22Z</time><name>PT8897</name></trkpt>
<trkpt lat="53.252802" lon="-1.780294"><ele>338</ele><time>2019-08-30T12:29:23Z</time><name>PT8898</name></trkpt>
<trkpt lat="53.252812" lon="-1.780282"><ele>338</ele><time>2019-08-30T12:29:24Z</time><name>PT8899</name></trkpt>
<trkpt lat="53.252819" lon="-1.780269"><ele>339</ele><time>2019-08-30T12:29:25Z</time><name>PT8900</name></trkpt>
<trkpt lat="53.252830" lon="-1.780266"><ele>339</ele><time>2019-08-30T12:29:26Z</time><name>PT8901</name></trkpt>
<trkpt lat="53.252840" lon="-1.780257"><ele>338</ele><time>2019-08-30T12:29:28Z</time><name>PT8902</name></trkpt>
<trkpt lat="53.252848" lon="-1.780245"><ele>338</ele><time>2019-08-30T12:29:28Z</time><name>PT8903</name></trkpt>
<trkpt lat="53.252857" lon="-1.780234"><ele>338</ele><time>2019-08-30T12:29:29Z</time><name>PT8904</name></trkpt>
<trkpt lat="53.252865" lon="-1.780223"><ele>338</ele><time>2019-08-30T12:29:30Z</time><name>PT8905</name></trkpt>
<trkpt lat="53.252875" lon="-1.780220"><ele>337</ele><time>2019-08-30T12:29:31Z</time><name>PT8906</name></trkpt>
<trkpt lat="53.252881" lon="-1.780211"><ele>337</ele><time>2019-08-30T12:29:32Z</time><name>PT8907</name></trkpt>
<trkpt lat="53.252885" lon="-1.780199"><ele>337</ele><time>2019-08-30T12:29:33Z</time><name>PT8908</name></trkpt>
<trkpt lat="53.252887" lon="-1.780186"><ele>337</ele><time>2019-08-30T12:29:34Z</time><name>PT8909</name></trkpt>
<trkpt lat="53.252891" lon="-1.780172"><ele>337</ele><time>2019-08-30T12:29:35Z</time><name>PT8910</name></trkpt>
<trkpt lat="53.252893" lon="-1.780160"><ele>337</ele><time>2019-08-30T12:29:36Z</time><name>PT8911</name></trkpt>
<trkpt lat="53.252893" lon="-1.780148"><ele>337</ele><time>2019-08-30T12:29:37Z</time><name>PT8912</name></trkpt>
<trkpt lat="53.252896" lon="-1.780137"><ele>337</ele><time>2019-08-30T12:29:38Z</time><name>PT8913</name></trkpt>
<trkpt lat="53.252903" lon="-1.780130"><ele>337</ele><time>2019-08-30T12:29:39Z</time><name>PT8914</name></trkpt>
<trkpt lat="53.252906" lon="-1.780122"><ele>337</ele><time>2019-08-30T12:29:40Z</time><name>PT8915</name></trkpt>
<trkpt lat="53.252905" lon="-1.780113"><ele>337</ele><time>2019-08-30T12:29:41Z</time><name>PT8916</name></trkpt>
<trkpt lat="53.252908" lon="-1.780107"><ele>337</ele><time>2019-08-30T12:29:42Z</time><name>PT8917</name></trkpt>
<trkpt lat="53.252910" lon="-1.780100"><ele>337</ele><time>2019-08-30T12:29:43Z</time><name>PT8918</name></trkpt>
<trkpt lat="53.252912" lon="-1.780099"><ele>337</ele><time>2019-08-30T12:29:44Z</time><name>PT8919</name></trkpt>
<trkpt lat="53.252912" lon="-1.780099"><ele>337</ele><time>2019-08-30T12:29:45Z</time><name>PT8920</name></trkpt>
<trkpt lat="53.252911" lon="-1.780098"><ele>337</ele><time>2019-08-30T12:29:46Z</time><name>PT8921</name></trkpt>
<trkpt lat="53.252909" lon="-1.780098"><ele>337</ele><time>2019-08-30T12:29:47Z</time><name>PT8922</name></trkpt>
<trkpt lat="53.252908" lon="-1.780087"><ele>337</ele><time>2019-08-30T12:29:49Z</time><name>PT8923</name></trkpt>
<trkpt lat="53.252900" lon="-1.780072"><ele>337</ele><time>2019-08-30T12:29:50Z</time><name>PT8924</name></trkpt>
<trkpt lat="53.252892" lon="-1.780056"><ele>337</ele><time>2019-08-30T12:29:51Z</time><name>PT8925</name></trkpt>
<trkpt lat="53.252889" lon="-1.780050"><ele>337</ele><time>2019-08-30T12:29:52Z</time><name>PT8926</name></trkpt>
<trkpt lat="53.252890" lon="-1.780053"><ele>337</ele><time>2019-08-30T12:29:53Z</time><name>PT8927</name></trkpt>
<trkpt lat="53.252892" lon="-1.780052"><ele>338</ele><time>2019-08-30T12:29:54Z</time><name>PT8928</name></trkpt>
<trkpt lat="53.252892" lon="-1.780063"><ele>337</ele><time>2019-08-30T12:29:55Z</time><name>PT8929</name></trkpt>
<trkpt lat="53.252891" lon="-1.780074"><ele>337</ele><time>2019-08-30T12:29:56Z</time><name>PT8930</name></trkpt>
<trkpt lat="53.252900" lon="-1.780085"><ele>338</ele><time>2019-08-30T12:29:57Z</time><name>PT8931</name></trkpt>
<trkpt lat="53.252905" lon="-1.780103"><ele>338</ele><time>2019-08-30T12:29:58Z</time><name>PT8932</name></trkpt>
<trkpt lat="53.252911" lon="-1.780109"><ele>338</ele><time>2019-08-30T12:29:59Z</time><name>PT8933</name></trkpt>
<trkpt lat="53.252917" lon="-1.780112"><ele>338</ele><time>2019-08-30T12:30:00Z</time><name>PT8934</name></trkpt>
<trkpt lat="53.252921" lon="-1.780114"><ele>338</ele><time>2019-08-30T12:30:01Z</time><name>PT8935</name></trkpt>
<trkpt lat="53.252919" lon="-1.780115"><ele>338</ele><time>2019-08-30T12:30:03Z</time><name>PT8936</name></trkpt>
<trkpt lat="53.252923" lon="-1.780129"><ele>337</ele><time>2019-08-30T12:30:04Z</time><name>PT8937</name></trkpt>
<trkpt lat="53.252930" lon="-1.780147"><ele>336</ele><time>2019-08-30T12:30:05Z</time><name>PT8938</name></trkpt>
<trkpt lat="53.252935" lon="-1.780162"><ele>336</ele><time>2019-08-30T12:30:06Z</time><name>PT8939</name></trkpt>
<trkpt lat="53.252939" lon="-1.780190"><ele>336</ele><time>2019-08-30T12:30:07Z</time><name>PT8940</name></trkpt>
<trkpt lat="53.252945" lon="-1.780210"><ele>336</ele><time>2019-08-30T12:30:08Z</time><name>PT8941</name></trkpt>
<trkpt lat="53.252958" lon="-1.780224"><ele>336</ele><time>2019-08-30T12:30:09Z</time><name>PT8942</name></trkpt>
<trkpt lat="53.252964" lon="-1.780233"><ele>336</ele><time>2019-08-30T12:30:10Z</time><name>PT8943</name></trkpt>
<trkpt lat="53.252972" lon="-1.780248"><ele>336</ele><time>2019-08-30T12:30:11Z</time><name>PT8944</name></trkpt>
<trkpt lat="53.252975" lon="-1.780260"><ele>336</ele><time>2019-08-30T12:30:12Z</time><name>PT8945</name></trkpt>
<trkpt lat="53.252978" lon="-1.780268"><ele>337</ele><time>2019-08-30T12:30:13Z</time><name>PT8946</name></trkpt>
<trkpt lat="53.252976" lon="-1.780288"><ele>336</ele><time>2019-08-30T12:30:14Z</time><name>PT8947</name></trkpt>
<trkpt lat="53.252978" lon="-1.780305"><ele>336</ele><time>2019-08-30T12:30:15Z</time><name>PT8948</name></trkpt>
<trkpt lat="53.252982" lon="-1.780316"><ele>336</ele><time>2019-08-30T12:30:16Z</time><name>PT8949</name></trkpt>
<trkpt lat="53.252987" lon="-1.780327"><ele>336</ele><time>2019-08-30T12:30:17Z</time><name>PT8950</name></trkpt>
<trkpt lat="53.252989" lon="-1.780332"><ele>335</ele><time>2019-08-30T12:30:18Z</time><name>PT8951</name></trkpt>
<trkpt lat="53.252988" lon="-1.780333"><ele>335</ele><time>2019-08-30T12:30:19Z</time><name>PT8952</name></trkpt>
<trkpt lat="53.252991" lon="-1.780330"><ele>335</ele><time>2019-08-30T12:30:20Z</time><name>PT8953</name></trkpt>
<trkpt lat="53.252988" lon="-1.780317"><ele>335</ele><time>2019-08-30T12:30:21Z</time><name>PT8954</name></trkpt>
<trkpt lat="53.252981" lon="-1.780303"><ele>335</ele><time>2019-08-30T12:30:22Z</time><name>PT8955</name></trkpt>
<trkpt lat="53.252979" lon="-1.780293"><ele>336</ele><time>2019-08-30T12:30:23Z</time><name>PT8956</name></trkpt>
<trkpt lat="53.252973" lon="-1.780281"><ele>336</ele><time>2019-08-30T12:30:24Z</time><name>PT8957</name></trkpt>
<trkpt lat="53.252963" lon="-1.780272"><ele>336</ele><time>2019-08-30T12:30:25Z</time><name>PT8958</name></trkpt>
<trkpt lat="53.252957" lon="-1.780267"><ele>336</ele><time>2019-08-30T12:30:26Z</time><name>PT8959</name></trkpt>
<trkpt lat="53.252952" lon="-1.780264"><ele>336</ele><time>2019-08-30T12:30:27Z</time><name>PT8960</name></trkpt>
<trkpt lat="53.252943" lon="-1.780257"><ele>335</ele><time>2019-08-30T12:30:28Z</time><name>PT8961</name></trkpt>
<trkpt lat="53.252934" lon="-1.780254"><ele>336</ele><time>2019-08-30T12:30:29Z</time><name>PT8962</name></trkpt>
<trkpt lat="53.252922" lon="-1.780263"><ele>336</ele><time>2019-08-30T12:30:30Z</time><name>PT8963</name></trkpt>
<trkpt lat="53.252910" lon="-1.780262"><ele>336</ele><time>2019-08-30T12:30:31Z</time><name>PT8964</name></trkpt>
<trkpt lat="53.252897" lon="-1.780269"><ele>336</ele><time>2019-08-30T12:30:32Z</time><name>PT8965</name></trkpt>
<trkpt lat="53.252886" lon="-1.780283"><ele>335</ele><time>2019-08-30T12:30:33Z</time><name>PT8966</name></trkpt>
<trkpt lat="53.252873" lon="-1.780297"><ele>335</ele><time>2019-08-30T12:30:34Z</time><name>PT8967</name></trkpt>
<trkpt lat="53.252862" lon="-1.780307"><ele>336</ele><time>2019-08-30T12:30:35Z</time><name>PT8968</name></trkpt>
<trkpt lat="53.252850" lon="-1.780317"><ele>336</ele><time>2019-08-30T12:30:36Z</time><name>PT8969</name></trkpt>
<trkpt lat="53.252840" lon="-1.780327"><ele>336</ele><time>2019-08-30T12:30:37Z</time><name>PT8970</name></trkpt>
<trkpt lat="53.252827" lon="-1.780336"><ele>336</ele><time>2019-08-30T12:30:38Z</time><name>PT8971</name></trkpt>
<trkpt lat="53.252814" lon="-1.780351"><ele>337</ele><time>2019-08-30T12:30:39Z</time><name>PT8972</name></trkpt>
<trkpt lat="53.252809" lon="-1.780369"><ele>338</ele><time>2019-08-30T12:30:40Z</time><name>PT8973</name></trkpt>
<trkpt lat="53.252802" lon="-1.780388"><ele>339</ele><time>2019-08-30T12:30:41Z</time><name>PT8974</name></trkpt>
<trkpt lat="53.252794" lon="-1.780406"><ele>338</ele><time>2019-08-30T12:30:42Z</time><name>PT8975</name></trkpt>
<trkpt lat="53.252784" lon="-1.780420"><ele>338</ele><time>2019-08-30T12:30:43Z</time><name>PT8976</name></trkpt>
<trkpt lat="53.252774" lon="-1.780434"><ele>338</ele><time>2019-08-30T12:30:44Z</time><name>PT8977</name></trkpt>
<trkpt lat="53.252765" lon="-1.780443"><ele>338</ele><time>2019-08-30T12:30:45Z</time><name>PT8978</name></trkpt>
<trkpt lat="53.252758" lon="-1.780451"><ele>339</ele><time>2019-08-30T12:30:46Z</time><name>PT8979</name></trkpt>
<trkpt lat="53.252753" lon="-1.780456"><ele>338</ele><time>2019-08-30T12:30:47Z</time><name>PT8980</name></trkpt>
<trkpt lat="53.252751" lon="-1.780464"><ele>338</ele><time>2019-08-30T12:30:48Z</time><name>PT8981</name></trkpt>
<trkpt lat="53.252753" lon="-1.780467"><ele>337</ele><time>2019-08-30T12:30:49Z</time><name>PT8982</name></trkpt>
<trkpt lat="53.252753" lon="-1.780472"><ele>338</ele><time>2019-08-30T12:30:50Z</time><name>PT8983</name></trkpt>
<trkpt lat="53.252752" lon="-1.780487"><ele>338</ele><time>2019-08-30T12:30:51Z</time><name>PT8984</name></trkpt>
<trkpt lat="53.252752" lon="-1.780505"><ele>338</ele><time>2019-08-30T12:30:52Z</time><name>PT8985</name></trkpt>
<trkpt lat="53.252754" lon="-1.780516"><ele>337</ele><time>2019-08-30T12:30:53Z</time><name>PT8986</name></trkpt>
<trkpt lat="53.252759" lon="-1.780531"><ele>337</ele><time>2019-08-30T12:30:54Z</time><name>PT8987</name></trkpt>
<trkpt lat="53.252764" lon="-1.780545"><ele>337</ele><time>2019-08-30T12:30:55Z</time><name>PT8988</name></trkpt>
<trkpt lat="53.252764" lon="-1.780556"><ele>337</ele><time>2019-08-30T12:30:56Z</time><name>PT8989</name></trkpt>
<trkpt lat="53.252766" lon="-1.780564"><ele>337</ele><time>2019-08-30T12:30:57Z</time><name>PT8990</name></trkpt>
<trkpt lat="53.252768" lon="-1.780566"><ele>338</ele><time>2019-08-30T12:30:58Z</time><name>PT8991</name></trkpt>
<trkpt lat="53.252760" lon="-1.780567"><ele>337</ele><time>2019-08-30T12:30:59Z</time><name>PT8992</name></trkpt>
<trkpt lat="53.252759" lon="-1.780564"><ele>337</ele><time>2019-08-30T12:31:00Z</time><name>PT8993</name></trkpt>
<trkpt lat="53.252760" lon="-1.780566"><ele>337</ele><time>2019-08-30T12:31:01Z</time><name>PT8994</name></trkpt>
<trkpt lat="53.252772" lon="-1.780570"><ele>337</ele><time>2019-08-30T12:31:02Z</time><name>PT8995</name></trkpt>
<trkpt lat="53.252784" lon="-1.780569"><ele>337</ele><time>2019-08-30T12:31:03Z</time><name>PT8996</name></trkpt>
<trkpt lat="53.252798" lon="-1.780566"><ele>337</ele><time>2019-08-30T12:31:04Z</time><name>PT8997</name></trkpt>
<trkpt lat="53.252812" lon="-1.780563"><ele>337</ele><time>2019-08-30T12:31:05Z</time><name>PT8998</name></trkpt>
<trkpt lat="53.252831" lon="-1.780559"><ele>337</ele><time>2019-08-30T12:31:06Z</time><name>PT8999</name></trkpt>
<trkpt lat="53.252847" lon="-1.780556"><ele>337</ele><time>2019-08-30T12:31:07Z</time><name>PT9000</name></trkpt>
<trkpt lat="53.252862" lon="-1.780552"><ele>337</ele><time>2019-08-30T12:31:08Z</time><name>PT9001</name></trkpt>
<trkpt lat="53.252873" lon="-1.780549"><ele>337</ele><time>2019-08-30T12:31:09Z</time><name>PT9002</name></trkpt>
<trkpt lat="53.252887" lon="-1.780541"><ele>337</ele><time>2019-08-30T12:31:10Z</time><name>PT9003</name></trkpt>
<trkpt lat="53.252896" lon="-1.780532"><ele>337</ele><time>2019-08-30T12:31:11Z</time><name>PT9004</name></trkpt>
<trkpt lat="53.252905" lon="-1.780529"><ele>337</ele><time>2019-08-30T12:31:12Z</time><name>PT9005</name></trkpt>
<trkpt lat="53.252917" lon="-1.780525"><ele>337</ele><time>2019-08-30T12:31:13Z</time><name>PT9006</name></trkpt>
<trkpt lat="53.252928" lon="-1.780521"><ele>336</ele><time>2019-08-30T12:31:14Z</time><name>PT9007</name></trkpt>
<trkpt lat="53.252938" lon="-1.780512"><ele>336</ele><time>2019-08-30T12:31:15Z</time><name>PT9008</name></trkpt>
<trkpt lat="53.252947" lon="-1.780504"><ele>336</ele><time>2019-08-30T12:31:16Z</time><name>PT9009</name></trkpt>
<trkpt lat="53.252959" lon="-1.780500"><ele>336</ele><time>2019-08-30T12:31:17Z</time><name>PT9010</name></trkpt>
<trkpt lat="53.252968" lon="-1.780492"><ele>337</ele><time>2019-08-30T12:31:18Z</time><name>PT9011</name></trkpt>
<trkpt lat="53.252979" lon="-1.780482"><ele>337</ele><time>2019-08-30T12:31:19Z</time><name>PT9012</name></trkpt>
<trkpt lat="53.252989" lon="-1.780472"><ele>337</ele><time>2019-08-30T12:31:20Z</time><name>PT9013</name></trkpt>
<trkpt lat="53.252997" lon="-1.780459"><ele>337</ele><time>2019-08-30T12:31:21Z</time><name>PT9014</name></trkpt>
<trkpt lat="53.253007" lon="-1.780445"><ele>336</ele><time>2019-08-30T12:31:22Z</time><name>PT9015</name></trkpt>
<trkpt lat="53.253014" lon="-1.780432"><ele>336</ele><time>2019-08-30T12:31:23Z</time><name>PT9016</name></trkpt>
<trkpt lat="53.253019" lon="-1.780418"><ele>336</ele><time>2019-08-30T12:31:24Z</time><name>PT9017</name></trkpt>
<trkpt lat="53.253024" lon="-1.780406"><ele>336</ele><time>2019-08-30T12:31:25Z</time><name>PT9018</name></trkpt>
<trkpt lat="53.253028" lon="-1.780394"><ele>336</ele><time>2019-08-30T12:31:26Z</time><name>PT9019</name></trkpt>
<trkpt lat="53.253032" lon="-1.780383"><ele>336</ele><time>2019-08-30T12:31:27Z</time><name>PT9020</name></trkpt>
<trkpt lat="53.253037" lon="-1.780371"><ele>336</ele><time>2019-08-30T12:31:28Z</time><name>PT9021</name></trkpt>
<trkpt lat="53.253039" lon="-1.780360"><ele>336</ele><time>2019-08-30T12:31:29Z</time><name>PT9022</name></trkpt>
<trkpt lat="53.253042" lon="-1.780347"><ele>335</ele><time>2019-08-30T12:31:30Z</time><name>PT9023</name></trkpt>
<trkpt lat="53.253044" lon="-1.780333"><ele>335</ele><time>2019-08-30T12:31:31Z</time><name>PT9024</name></trkpt>
<trkpt lat="53.253045" lon="-1.780322"><ele>335</ele><time>2019-08-30T12:31:32Z</time><name>PT9025</name></trkpt>
<trkpt lat="53.253045" lon="-1.780312"><ele>335</ele><time>2019-08-30T12:31:33Z</time><name>PT9026</name></trkpt>
<trkpt lat="53.253044" lon="-1.780299"><ele>335</ele><time>2019-08-30T12:31:34Z</time><name>PT9027</name></trkpt>
<trkpt lat="53.253042" lon="-1.780284"><ele>335</ele><time>2019-08-30T12:31:35Z</time><name>PT9028</name></trkpt>
<trkpt lat="53.253040" lon="-1.780269"><ele>335</ele><time>2019-08-30T12:31:36Z</time><name>PT9029</name></trkpt>
<trkpt lat="53.253039" lon="-1.780254"><ele>335</ele><time>2019-08-30T12:31:37Z</time><name>PT9030</name></trkpt>
<trkpt lat="53.253037" lon="-1.780241"><ele>335</ele><time>2019-08-30T12:31:38Z</time><name>PT9031</name></trkpt>
<trkpt lat="53.253039" lon="-1.780233"><ele>335</ele><time>2019-08-30T12:31:39Z</time><name>PT9032</name></trkpt>
<trkpt lat="53.253039" lon="-1.780230"><ele>335</ele><time>2019-08-30T12:31:40Z</time><name>PT9033</name></trkpt>
<trkpt lat="53.253040" lon="-1.780229"><ele>335</ele><time>2019-08-30T12:31:41Z</time><name>PT9034</name></trkpt>
<trkpt lat="53.253040" lon="-1.780230"><ele>335</ele><time>2019-08-30T12:31:42Z</time><name>PT9035</name></trkpt>
<trkpt lat="53.253038" lon="-1.780226"><ele>335</ele><time>2019-08-30T12:31:49Z</time><name>PT9036</name></trkpt>
<trkpt lat="53.253037" lon="-1.780212"><ele>335</ele><time>2019-08-30T12:31:50Z</time><name>PT9037</name></trkpt>
<trkpt lat="53.253035" lon="-1.780198"><ele>335</ele><time>2019-08-30T12:31:51Z</time><name>PT9038</name></trkpt>
<trkpt lat="53.253034" lon="-1.780186"><ele>335</ele><time>2019-08-30T12:31:52Z</time><name>PT9039</name></trkpt>
<trkpt lat="53.253032" lon="-1.780175"><ele>335</ele><time>2019-08-30T12:31:53Z</time><name>PT9040</name></trkpt>
<trkpt lat="53.253030" lon="-1.780162"><ele>335</ele><time>2019-08-30T12:31:54Z</time><name>PT9041</name></trkpt>
<trkpt lat="53.253027" lon="-1.780147"><ele>335</ele><time>2019-08-30T12:31:55Z</time><name>PT9042</name></trkpt>
<trkpt lat="53.253023" lon="-1.780137"><ele>334</ele><time>2019-08-30T12:31:56Z</time><name>PT9043</name></trkpt>
<trkpt lat="53.253024" lon="-1.780123"><ele>334</ele><time>2019-08-30T12:31:57Z</time><name>PT9044</name></trkpt>
<trkpt lat="53.253025" lon="-1.780109"><ele>334</ele><time>2019-08-30T12:31:58Z</time><name>PT9045</name></trkpt>
<trkpt lat="53.253025" lon="-1.780099"><ele>334</ele><time>2019-08-30T12:31:59Z</time><name>PT9046</name></trkpt>
<trkpt lat="53.253025" lon="-1.780087"><ele>334</ele><time>2019-08-30T12:32:00Z</time><name>PT9047</name></trkpt>
<trkpt lat="53.253026" lon="-1.780078"><ele>334</ele><time>2019-08-30T12:32:01Z</time><name>PT9048</name></trkpt>
<trkpt lat="53.253026" lon="-1.780064"><ele>333</ele><time>2019-08-30T12:32:02Z</time><name>PT9049</name></trkpt>
<trkpt lat="53.253027" lon="-1.780051"><ele>333</ele><time>2019-08-30T12:32:03Z</time><name>PT9050</name></trkpt>
<trkpt lat="53.253025" lon="-1.780038"><ele>333</ele><time>2019-08-30T12:32:04Z</time><name>PT9051</name></trkpt>
<trkpt lat="53.253027" lon="-1.780025"><ele>333</ele><time>2019-08-30T12:32:05Z</time><name>PT9052</name></trkpt>
<trkpt lat="53.253031" lon="-1.780011"><ele>332</ele><time>2019-08-30T12:32:06Z</time><name>PT9053</name></trkpt>
<trkpt lat="53.253034" lon="-1.780003"><ele>332</ele><time>2019-08-30T12:32:07Z</time><name>PT9054</name></trkpt>
<trkpt lat="53.253036" lon="-1.779999"><ele>332</ele><time>2019-08-30T12:32:08Z</time><name>PT9055</name></trkpt>
<trkpt lat="53.253037" lon="-1.779993"><ele>332</ele><time>2019-08-30T12:32:09Z</time><name>PT9056</name></trkpt>
<trkpt lat="53.253038" lon="-1.779981"><ele>332</ele><time>2019-08-30T12:32:10Z</time><name>PT9057</name></trkpt>
<trkpt lat="53.253040" lon="-1.779973"><ele>332</ele><time>2019-08-30T12:32:11Z</time><name>PT9058</name></trkpt>
<trkpt lat="53.253047" lon="-1.779966"><ele>332</ele><time>2019-08-30T12:32:12Z</time><name>PT9059</name></trkpt>
<trkpt lat="53.253049" lon="-1.779959"><ele>331</ele><time>2019-08-30T12:32:13Z</time><name>PT9060</name></trkpt>
<trkpt lat="53.253053" lon="-1.779953"><ele>331</ele><time>2019-08-30T12:32:14Z</time><name>PT9061</name></trkpt>
<trkpt lat="53.253059" lon="-1.779947"><ele>331</ele><time>2019-08-30T12:32:15Z</time><name>PT9062</name></trkpt>
<trkpt lat="53.253061" lon="-1.779938"><ele>331</ele><time>2019-08-30T12:32:16Z</time><name>PT9063</name></trkpt>
<trkpt lat="53.253061" lon="-1.779928"><ele>331</ele><time>2019-08-30T12:32:17Z</time><name>PT9064</name></trkpt>
<trkpt lat="53.253060" lon="-1.779917"><ele>331</ele><time>2019-08-30T12:32:18Z</time><name>PT9065</name></trkpt>
<trkpt lat="53.253062" lon="-1.779905"><ele>330</ele><time>2019-08-30T12:32:19Z</time><name>PT9066</name></trkpt>
<trkpt lat="53.253065" lon="-1.779896"><ele>330</ele><time>2019-08-30T12:32:20Z</time><name>PT9067</name></trkpt>
<trkpt lat="53.253065" lon="-1.779892"><ele>330</ele><time>2019-08-30T12:32:21Z</time><name>PT9068</name></trkpt>
<trkpt lat="53.253067" lon="-1.779885"><ele>329</ele><time>2019-08-30T12:32:22Z</time><name>PT9069</name></trkpt>
<trkpt lat="53.253068" lon="-1.779876"><ele>329</ele><time>2019-08-30T12:32:23Z</time><name>PT9070</name></trkpt>
<trkpt lat="53.253069" lon="-1.779864"><ele>329</ele><time>2019-08-30T12:32:24Z</time><name>PT9071</name></trkpt>
<trkpt lat="53.253067" lon="-1.779849"><ele>329</ele><time>2019-08-30T12:32:25Z</time><name>PT9072</name></trkpt>
<trkpt lat="53.253068" lon="-1.779833"><ele>329</ele><time>2019-08-30T12:32:26Z</time><name>PT9073</name></trkpt>
<trkpt lat="53.253070" lon="-1.779821"><ele>328</ele><time>2019-08-30T12:32:27Z</time><name>PT9074</name></trkpt>
<trkpt lat="53.253074" lon="-1.779812"><ele>328</ele><time>2019-08-30T12:32:28Z</time><name>PT9075</name></trkpt>
<trkpt lat="53.253076" lon="-1.779801"><ele>328</ele><time>2019-08-30T12:32:29Z</time><name>PT9076</name></trkpt>
<trkpt lat="53.253074" lon="-1.779789"><ele>328</ele><time>2019-08-30T12:32:30Z</time><name>PT9077</name></trkpt>
<trkpt lat="53.253074" lon="-1.779775"><ele>327</ele><time>2019-08-30T12:32:31Z</time><name>PT9078</name></trkpt>
<trkpt lat="53.253075" lon="-1.779759"><ele>327</ele><time>2019-08-30T12:32:32Z</time><name>PT9079</name></trkpt>
<trkpt lat="53.253077" lon="-1.779745"><ele>327</ele><time>2019-08-30T12:32:33Z</time><name>PT9080</name></trkpt>
<trkpt lat="53.253079" lon="-1.779735"><ele>327</ele><time>2019-08-30T12:32:34Z</time><name>PT9081</name></trkpt>
<trkpt lat="53.253082" lon="-1.779730"><ele>327</ele><time>2019-08-30T12:32:35Z</time><name>PT9082</name></trkpt>
<trkpt lat="53.253082" lon="-1.779722"><ele>327</ele><time>2019-08-30T12:32:36Z</time><name>PT9083</name></trkpt>
<trkpt lat="53.253081" lon="-1.779707"><ele>326</ele><time>2019-08-30T12:32:37Z</time><name>PT9084</name></trkpt>
<trkpt lat="53.253081" lon="-1.779691"><ele>326</ele><time>2019-08-30T12:32:38Z</time><name>PT9085</name></trkpt>
<trkpt lat="53.253083" lon="-1.779677"><ele>326</ele><time>2019-08-30T12:32:39Z</time><name>PT9086</name></trkpt>
<trkpt lat="53.253086" lon="-1.779665"><ele>325</ele><time>2019-08-30T12:32:40Z</time><name>PT9087</name></trkpt>
<trkpt lat="53.253090" lon="-1.779654"><ele>325</ele><time>2019-08-30T12:32:41Z</time><name>PT9088</name></trkpt>
<trkpt lat="53.253091" lon="-1.779642"><ele>325</ele><time>2019-08-30T12:32:42Z</time><name>PT9089</name></trkpt>
<trkpt lat="53.253095" lon="-1.779629"><ele>325</ele><time>2019-08-30T12:32:43Z</time><name>PT9090</name></trkpt>
<trkpt lat="53.253097" lon="-1.779618"><ele>324</ele><time>2019-08-30T12:32:44Z</time><name>PT9091</name></trkpt>
<trkpt lat="53.253097" lon="-1.779606"><ele>324</ele><time>2019-08-30T12:32:45Z</time><name>PT9092</name></trkpt>
<trkpt lat="53.253097" lon="-1.779593"><ele>324</ele><time>2019-08-30T12:32:46Z</time><name>PT9093</name></trkpt>
<trkpt lat="53.253098" lon="-1.779580"><ele>324</ele><time>2019-08-30T12:32:47Z</time><name>PT9094</name></trkpt>
<trkpt lat="53.253097" lon="-1.779563"><ele>324</ele><time>2019-08-30T12:32:48Z</time><name>PT9095</name></trkpt>
<trkpt lat="53.253101" lon="-1.779551"><ele>324</ele><time>2019-08-30T12:32:49Z</time><name>PT9096</name></trkpt>
<trkpt lat="53.253104" lon="-1.779542"><ele>324</ele><time>2019-08-30T12:32:50Z</time><name>PT9097</name></trkpt>
<trkpt lat="53.253111" lon="-1.779533"><ele>323</ele><time>2019-08-30T12:32:51Z</time><name>PT9098</name></trkpt>
<trkpt lat="53.253117" lon="-1.779523"><ele>323</ele><time>2019-08-30T12:32:52Z</time><name>PT9099</name></trkpt>
<trkpt lat="53.253122" lon="-1.779510"><ele>322</ele><time>2019-08-30T12:32:53Z</time><name>PT9100</name></trkpt>
<trkpt lat="53.253127" lon="-1.779499"><ele>322</ele><time>2019-08-30T12:32:54Z</time><name>PT9101</name></trkpt>
<trkpt lat="53.253133" lon="-1.779492"><ele>322</ele><time>2019-08-30T12:32:55Z</time><name>PT9102</name></trkpt>
<trkpt lat="53.253136" lon="-1.779485"><ele>321</ele><time>2019-08-30T12:32:56Z</time><name>PT9103</name></trkpt>
<trkpt lat="53.253138" lon="-1.779476"><ele>321</ele><time>2019-08-30T12:32:57Z</time><name>PT9104</name></trkpt>
<trkpt lat="53.253142" lon="-1.779466"><ele>321</ele><time>2019-08-30T12:32:58Z</time><name>PT9105</name></trkpt>
<trkpt lat="53.253145" lon="-1.779455"><ele>321</ele><time>2019-08-30T12:32:59Z</time><name>PT9106</name></trkpt>
<trkpt lat="53.253148" lon="-1.779442"><ele>321</ele><time>2019-08-30T12:33:00Z</time><name>PT9107</name></trkpt>
<trkpt lat="53.253150" lon="-1.779428"><ele>320</ele><time>2019-08-30T12:33:01Z</time><name>PT9108</name></trkpt>
<trkpt lat="53.253154" lon="-1.779419"><ele>320</ele><time>2019-08-30T12:33:02Z</time><name>PT9109</name></trkpt>
<trkpt lat="53.253156" lon="-1.779410"><ele>320</ele><time>2019-08-30T12:33:03Z</time><name>PT9110</name></trkpt>
<trkpt lat="53.253158" lon="-1.779400"><ele>320</ele><time>2019-08-30T12:33:04Z</time><name>PT9111</name></trkpt>
<trkpt lat="53.253162" lon="-1.779393"><ele>319</ele><time>2019-08-30T12:33:05Z</time><name>PT9112</name></trkpt>
<trkpt lat="53.253166" lon="-1.779385"><ele>319</ele><time>2019-08-30T12:33:06Z</time><name>PT9113</name></trkpt>
<trkpt lat="53.253170" lon="-1.779373"><ele>319</ele><time>2019-08-30T12:33:07Z</time><name>PT9114</name></trkpt>
<trkpt lat="53.253177" lon="-1.779362"><ele>319</ele><time>2019-08-30T12:33:08Z</time><name>PT9115</name></trkpt>
<trkpt lat="53.253181" lon="-1.779351"><ele>318</ele><time>2019-08-30T12:33:09Z</time><name>PT9116</name></trkpt>
<trkpt lat="53.253183" lon="-1.779339"><ele>318</ele><time>2019-08-30T12:33:10Z</time><name>PT9117</name></trkpt>
<trkpt lat="53.253187" lon="-1.779318"><ele>318</ele><time>2019-08-30T12:33:11Z</time><name>PT9118</name></trkpt>
<trkpt lat="53.253191" lon="-1.779301"><ele>318</ele><time>2019-08-30T12:33:12Z</time><name>PT9119</name></trkpt>
<trkpt lat="53.253193" lon="-1.779296"><ele>317</ele><time>2019-08-30T12:33:13Z</time><name>PT9120</name></trkpt>
<trkpt lat="53.253197" lon="-1.779284"><ele>317</ele><time>2019-08-30T12:33:14Z</time><name>PT9121</name></trkpt>
<trkpt lat="53.253202" lon="-1.779271"><ele>316</ele><time>2019-08-30T12:33:15Z</time><name>PT9122</name></trkpt>
<trkpt lat="53.253205" lon="-1.779257"><ele>316</ele><time>2019-08-30T12:33:16Z</time><name>PT9123</name></trkpt>
<trkpt lat="53.253205" lon="-1.779245"><ele>316</ele><time>2019-08-30T12:33:17Z</time><name>PT9124</name></trkpt>
<trkpt lat="53.253206" lon="-1.779231"><ele>316</ele><time>2019-08-30T12:33:18Z</time><name>PT9125</name></trkpt>
<trkpt lat="53.253206" lon="-1.779219"><ele>315</ele><time>2019-08-30T12:33:19Z</time><name>PT9126</name></trkpt>
<trkpt lat="53.253207" lon="-1.779204"><ele>315</ele><time>2019-08-30T12:33:20Z</time><name>PT9127</name></trkpt>
<trkpt lat="53.253208" lon="-1.779188"><ele>314</ele><time>2019-08-30T12:33:21Z</time><name>PT9128</name></trkpt>
<trkpt lat="53.253211" lon="-1.779171"><ele>314</ele><time>2019-08-30T12:33:22Z</time><name>PT9129</name></trkpt>
<trkpt lat="53.253212" lon="-1.779156"><ele>314</ele><time>2019-08-30T12:33:23Z</time><name>PT9130</name></trkpt>
<trkpt lat="53.253215" lon="-1.779144"><ele>314</ele><time>2019-08-30T12:33:24Z</time><name>PT9131</name></trkpt>
<trkpt lat="53.253217" lon="-1.779131"><ele>314</ele><time>2019-08-30T12:33:25Z</time><name>PT9132</name></trkpt>
<trkpt lat="53.253215" lon="-1.779126"><ele>314</ele><time>2019-08-30T12:33:26Z</time><name>PT9133</name></trkpt>
<trkpt lat="53.253215" lon="-1.779116"><ele>314</ele><time>2019-08-30T12:33:27Z</time><name>PT9134</name></trkpt>
<trkpt lat="53.253218" lon="-1.779102"><ele>314</ele><time>2019-08-30T12:33:28Z</time><name>PT9135</name></trkpt>
<trkpt lat="53.253222" lon="-1.779093"><ele>314</ele><time>2019-08-30T12:33:29Z</time><name>PT9136</name></trkpt>
<trkpt lat="53.253224" lon="-1.779088"><ele>314</ele><time>2019-08-30T12:33:30Z</time><name>PT9137</name></trkpt>
<trkpt lat="53.253223" lon="-1.779084"><ele>313</ele><time>2019-08-30T12:33:31Z</time><name>PT9138</name></trkpt>
<trkpt lat="53.253225" lon="-1.779074"><ele>313</ele><time>2019-08-30T12:33:32Z</time><name>PT9139</name></trkpt>
<trkpt lat="53.253228" lon="-1.779061"><ele>313</ele><time>2019-08-30T12:33:33Z</time><name>PT9140</name></trkpt>
<trkpt lat="53.253232" lon="-1.779048"><ele>312</ele><time>2019-08-30T12:33:34Z</time><name>PT9141</name></trkpt>
<trkpt lat="53.253237" lon="-1.779037"><ele>312</ele><time>2019-08-30T12:33:35Z</time><name>PT9142</name></trkpt>
<trkpt lat="53.253242" lon="-1.779029"><ele>312</ele><time>2019-08-30T12:33:36Z</time><name>PT9143</name></trkpt>
<trkpt lat="53.253245" lon="-1.779021"><ele>312</ele><time>2019-08-30T12:33:37Z</time><name>PT9144</name></trkpt>
<trkpt lat="53.253247" lon="-1.779015"><ele>312</ele><time>2019-08-30T12:33:38Z</time><name>PT9145</name></trkpt>
<trkpt lat="53.253249" lon="-1.779011"><ele>312</ele><time>2019-08-30T12:33:41Z</time><name>PT9146</name></trkpt>
<trkpt lat="53.253256" lon="-1.779004"><ele>312</ele><time>2019-08-30T12:33:42Z</time><name>PT9147</name></trkpt>
<trkpt lat="53.253260" lon="-1.778997"><ele>312</ele><time>2019-08-30T12:33:43Z</time><name>PT9148</name></trkpt>
<trkpt lat="53.253262" lon="-1.778987"><ele>312</ele><time>2019-08-30T12:33:44Z</time><name>PT9149</name></trkpt>
<trkpt lat="53.253268" lon="-1.778977"><ele>311</ele><time>2019-08-30T12:33:45Z</time><name>PT9150</name></trkpt>
<trkpt lat="53.253273" lon="-1.778965"><ele>311</ele><time>2019-08-30T12:33:46Z</time><name>PT9151</name></trkpt>
<trkpt lat="53.253277" lon="-1.778953"><ele>311</ele><time>2019-08-30T12:33:47Z</time><name>PT9152</name></trkpt>
<trkpt lat="53.253281" lon="-1.778945"><ele>311</ele><time>2019-08-30T12:33:48Z</time><name>PT9153</name></trkpt>
<trkpt lat="53.253284" lon="-1.778942"><ele>311</ele><time>2019-08-30T12:33:49Z</time><name>PT9154</name></trkpt>
<trkpt lat="53.253283" lon="-1.778939"><ele>311</ele><time>2019-08-30T12:33:50Z</time><name>PT9155</name></trkpt>
<trkpt lat="53.253283" lon="-1.778939"><ele>311</ele><time>2019-08-30T12:33:51Z</time><name>PT9156</name></trkpt>
<trkpt lat="53.253283" lon="-1.778939"><ele>311</ele><time>2019-08-30T12:33:52Z</time><name>PT9157</name></trkpt>
<trkpt lat="53.253283" lon="-1.778940"><ele>311</ele><time>2019-08-30T12:33:53Z</time><name>PT9158</name></trkpt>
<trkpt lat="53.253285" lon="-1.778937"><ele>311</ele><time>2019-08-30T12:33:57Z</time><name>PT9159</name></trkpt>
<trkpt lat="53.253290" lon="-1.778931"><ele>311</ele><time>2019-08-30T12:33:58Z</time><name>PT9160</name></trkpt>
<trkpt lat="53.253286" lon="-1.778932"><ele>310</ele><time>2019-08-30T12:33:59Z</time><name>PT9161</name></trkpt>
<trkpt lat="53.253291" lon="-1.778930"><ele>311</ele><time>2019-08-30T12:34:04Z</time><name>PT9162</name></trkpt>
<trkpt lat="53.253296" lon="-1.778928"><ele>310</ele><time>2019-08-30T12:34:05Z</time><name>PT9163</name></trkpt>
<trkpt lat="53.253299" lon="-1.778922"><ele>310</ele><time>2019-08-30T12:34:06Z</time><name>PT9164</name></trkpt>
<trkpt lat="53.253306" lon="-1.778915"><ele>310</ele><time>2019-08-30T12:34:07Z</time><name>PT9165</name></trkpt>
<trkpt lat="53.253311" lon="-1.778915"><ele>310</ele><time>2019-08-30T12:34:08Z</time><name>PT9166</name></trkpt>
<trkpt lat="53.253312" lon="-1.778921"><ele>310</ele><time>2019-08-30T12:34:09Z</time><name>PT9167</name></trkpt>
<trkpt lat="53.253308" lon="-1.778928"><ele>310</ele><time>2019-08-30T12:34:10Z</time><name>PT9168</name></trkpt>
<trkpt lat="53.253309" lon="-1.778932"><ele>310</ele><time>2019-08-30T12:34:11Z</time><name>PT9169</name></trkpt>
<trkpt lat="53.253311" lon="-1.778931"><ele>309</ele><time>2019-08-30T12:34:12Z</time><name>PT9170</name></trkpt>
<trkpt lat="53.253313" lon="-1.778930"><ele>309</ele><time>2019-08-30T12:34:13Z</time><name>PT9171</name></trkpt>
<trkpt lat="53.253314" lon="-1.778930"><ele>309</ele><time>2019-08-30T12:34:14Z</time><name>PT9172</name></trkpt>
<trkpt lat="53.253317" lon="-1.778934"><ele>309</ele><time>2019-08-30T12:34:29Z</time><name>PT9173</name></trkpt>
<trkpt lat="53.253318" lon="-1.778941"><ele>309</ele><time>2019-08-30T12:34:30Z</time><name>PT9174</name></trkpt>
<trkpt lat="53.253321" lon="-1.778940"><ele>308</ele><time>2019-08-30T12:34:31Z</time><name>PT9175</name></trkpt>
<trkpt lat="53.253321" lon="-1.778940"><ele>308</ele><time>2019-08-30T12:34:32Z</time><name>PT9176</name></trkpt>
<trkpt lat="53.253318" lon="-1.778937"><ele>308</ele><time>2019-08-30T12:34:33Z</time><name>PT9177</name></trkpt>
<trkpt lat="53.253319" lon="-1.778936"><ele>308</ele><time>2019-08-30T12:34:34Z</time><name>PT9178</name></trkpt>
<trkpt lat="53.253318" lon="-1.778938"><ele>307</ele><time>2019-08-30T12:34:35Z</time><name>PT9179</name></trkpt>
<trkpt lat="53.253318" lon="-1.778932"><ele>308</ele><time>2019-08-30T12:34:36Z</time><name>PT9180</name></trkpt>
<trkpt lat="53.253318" lon="-1.778932"><ele>308</ele><time>2019-08-30T12:34:37Z</time><name>PT9181</name></trkpt>
<trkpt lat="53.253317" lon="-1.778929"><ele>308</ele><time>2019-08-30T12:34:38Z</time><name>PT9182</name></trkpt>
<trkpt lat="53.253314" lon="-1.778927"><ele>308</ele><time>2019-08-30T12:34:39Z</time><name>PT9183</name></trkpt>
<trkpt lat="53.253314" lon="-1.778925"><ele>308</ele><time>2019-08-30T12:34:40Z</time><name>PT9184</name></trkpt>
<trkpt lat="53.253314" lon="-1.778926"><ele>308</ele><time>2019-08-30T12:34:41Z</time><name>PT9185</name></trkpt>
<trkpt lat="53.253313" lon="-1.778928"><ele>309</ele><time>2019-08-30T12:34:42Z</time><name>PT9186</name></trkpt>
<trkpt lat="53.253312" lon="-1.778926"><ele>309</ele><time>2019-08-30T12:34:47Z</time><name>PT9187</name></trkpt>
<trkpt lat="53.253312" lon="-1.778926"><ele>309</ele><time>2019-08-30T12:34:48Z</time><name>PT9188</name></trkpt>
<trkpt lat="53.253311" lon="-1.778924"><ele>309</ele><time>2019-08-30T12:34:49Z</time><name>PT9189</name></trkpt>
<trkpt lat="53.253312" lon="-1.778921"><ele>309</ele><time>2019-08-30T12:34:53Z</time><name>PT9190</name></trkpt>
<trkpt lat="53.253311" lon="-1.778923"><ele>309</ele><time>2019-08-30T12:34:54Z</time><name>PT9191</name></trkpt>
<trkpt lat="53.253312" lon="-1.778923"><ele>309</ele><time>2019-08-30T12:34:55Z</time><name>PT9192</name></trkpt>
<trkpt lat="53.253312" lon="-1.778932"><ele>308</ele><time>2019-08-30T12:45:25Z</time><name>PT9193</name></trkpt>
<trkpt lat="53.253309" lon="-1.778935"><ele>308</ele><time>2019-08-30T12:45:26Z</time><name>PT9194</name></trkpt>
<trkpt lat="53.253308" lon="-1.778937"><ele>308</ele><time>2019-08-30T12:45:27Z</time><name>PT9195</name></trkpt>
<trkpt lat="53.253305" lon="-1.778941"><ele>307</ele><time>2019-08-30T12:51:28Z</time><name>PT9196</name></trkpt>
<trkpt lat="53.253306" lon="-1.778941"><ele>307</ele><time>2019-08-30T12:51:29Z</time><name>PT9197</name></trkpt>
<trkpt lat="53.253307" lon="-1.778943"><ele>307</ele><time>2019-08-30T12:51:30Z</time><name>PT9198</name></trkpt>
<trkpt lat="53.253307" lon="-1.778942"><ele>307</ele><time>2019-08-30T12:51:31Z</time><name>PT9199</name></trkpt>
<trkpt lat="53.253308" lon="-1.778944"><ele>307</ele><time>2019-08-30T12:51:32Z</time><name>PT9200</name></trkpt>
<trkpt lat="53.253308" lon="-1.778943"><ele>306</ele><time>2019-08-30T12:51:33Z</time><name>PT9201</name></trkpt>
<trkpt lat="53.253307" lon="-1.778935"><ele>306</ele><time>2019-08-30T12:51:34Z</time><name>PT9202</name></trkpt>
<trkpt lat="53.253306" lon="-1.778925"><ele>307</ele><time>2019-08-30T12:51:35Z</time><name>PT9203</name></trkpt>
<trkpt lat="53.253307" lon="-1.778919"><ele>307</ele><time>2019-08-30T12:51:36Z</time><name>PT9204</name></trkpt>
<trkpt lat="53.253307" lon="-1.778919"><ele>307</ele><time>2019-08-30T12:51:37Z</time><name>PT9205</name></trkpt>
<trkpt lat="53.253313" lon="-1.778916"><ele>306</ele><time>2019-08-30T12:51:38Z</time><name>PT9206</name></trkpt>
<trkpt lat="53.253313" lon="-1.778914"><ele>307</ele><time>2019-08-30T12:51:39Z</time><name>PT9207</name></trkpt>
<trkpt lat="53.253315" lon="-1.778900"><ele>307</ele><time>2019-08-30T12:52:08Z</time><name>PT9208</name></trkpt>
<trkpt lat="53.253320" lon="-1.778890"><ele>307</ele><time>2019-08-30T12:52:09Z</time><name>PT9209</name></trkpt>
<trkpt lat="53.253320" lon="-1.778885"><ele>307</ele><time>2019-08-30T12:52:10Z</time><name>PT9210</name></trkpt>
<trkpt lat="53.253318" lon="-1.778882"><ele>307</ele><time>2019-08-30T12:52:11Z</time><name>PT9211</name></trkpt>
<trkpt lat="53.253318" lon="-1.778881"><ele>307</ele><time>2019-08-30T12:52:12Z</time><name>PT9212</name></trkpt>
<trkpt lat="53.253320" lon="-1.778881"><ele>307</ele><time>2019-08-30T12:52:13Z</time><name>PT9213</name></trkpt>
<trkpt lat="53.253321" lon="-1.778881"><ele>307</ele><time>2019-08-30T12:52:14Z</time><name>PT9214</name></trkpt>
<trkpt lat="53.253321" lon="-1.778878"><ele>307</ele><time>2019-08-30T12:52:15Z</time><name>PT9215</name></trkpt>
<trkpt lat="53.253320" lon="-1.778875"><ele>307</ele><time>2019-08-30T12:52:16Z</time><name>PT9216</name></trkpt>
<trkpt lat="53.253332" lon="-1.778818"><ele>308</ele><time>2019-08-30T12:53:21Z</time><name>PT9217</name></trkpt>
<trkpt lat="53.253334" lon="-1.778787"><ele>307</ele><time>2019-08-30T12:53:22Z</time><name>PT9218</name></trkpt>
<trkpt lat="53.253340" lon="-1.778767"><ele>307</ele><time>2019-08-30T12:53:23Z</time><name>PT9219</name></trkpt>
<trkpt lat="53.253341" lon="-1.778745"><ele>307</ele><time>2019-08-30T12:53:24Z</time><name>PT9220</name></trkpt>
<trkpt lat="53.253344" lon="-1.778731"><ele>306</ele><time>2019-08-30T12:53:25Z</time><name>PT9221</name></trkpt>
<trkpt lat="53.253343" lon="-1.778717"><ele>306</ele><time>2019-08-30T12:53:26Z</time><name>PT9222</name></trkpt>
<trkpt lat="53.253345" lon="-1.778697"><ele>306</ele><time>2019-08-30T12:53:27Z</time><name>PT9223</name></trkpt>
<trkpt lat="53.253348" lon="-1.778669"><ele>306</ele><time>2019-08-30T12:53:28Z</time><name>PT9224</name></trkpt>
<trkpt lat="53.253349" lon="-1.778646"><ele>306</ele><time>2019-08-30T12:53:29Z</time><name>PT9225</name></trkpt>
<trkpt lat="53.253351" lon="-1.778629"><ele>305</ele><time>2019-08-30T12:53:30Z</time><name>PT9226</name></trkpt>
<trkpt lat="53.253352" lon="-1.778615"><ele>304</ele><time>2019-08-30T12:53:31Z</time><name>PT9227</name></trkpt>
<trkpt lat="53.253350" lon="-1.778597"><ele>305</ele><time>2019-08-30T12:53:32Z</time><name>PT9228</name></trkpt>
<trkpt lat="53.253348" lon="-1.778583"><ele>304</ele><time>2019-08-30T12:53:33Z</time><name>PT9229</name></trkpt>
<trkpt lat="53.253349" lon="-1.778571"><ele>304</ele><time>2019-08-30T12:53:34Z</time><name>PT9230</name></trkpt>
<trkpt lat="53.253349" lon="-1.778561"><ele>304</ele><time>2019-08-30T12:53:35Z</time><name>PT9231</name></trkpt>
<trkpt lat="53.253349" lon="-1.778550"><ele>304</ele><time>2019-08-30T12:53:36Z</time><name>PT9232</name></trkpt>
<trkpt lat="53.253351" lon="-1.778539"><ele>304</ele><time>2019-08-30T12:53:37Z</time><name>PT9233</name></trkpt>
<trkpt lat="53.253354" lon="-1.778527"><ele>304</ele><time>2019-08-30T12:53:38Z</time><name>PT9234</name></trkpt>
<trkpt lat="53.253357" lon="-1.778512"><ele>304</ele><time>2019-08-30T12:53:39Z</time><name>PT9235</name></trkpt>
<trkpt lat="53.253359" lon="-1.778496"><ele>304</ele><time>2019-08-30T12:53:40Z</time><name>PT9236</name></trkpt>
<trkpt lat="53.253359" lon="-1.778484"><ele>304</ele><time>2019-08-30T12:53:41Z</time><name>PT9237</name></trkpt>
<trkpt lat="53.253360" lon="-1.778472"><ele>304</ele><time>2019-08-30T12:53:42Z</time><name>PT9238</name></trkpt>
<trkpt lat="53.253361" lon="-1.778458"><ele>304</ele><time>2019-08-30T12:53:43Z</time><name>PT9239</name></trkpt>
<trkpt lat="53.253362" lon="-1.778448"><ele>303</ele><time>2019-08-30T12:53:44Z</time><name>PT9240</name></trkpt>
<trkpt lat="53.253365" lon="-1.778435"><ele>303</ele><time>2019-08-30T12:53:45Z</time><name>PT9241</name></trkpt>
<trkpt lat="53.253365" lon="-1.778423"><ele>303</ele><time>2019-08-30T12:53:46Z</time><name>PT9242</name></trkpt>
<trkpt lat="53.253366" lon="-1.778412"><ele>303</ele><time>2019-08-30T12:53:47Z</time><name>PT9243</name></trkpt>
<trkpt lat="53.253368" lon="-1.778402"><ele>303</ele><time>2019-08-30T12:53:48Z</time><name>PT9244</name></trkpt>
<trkpt lat="53.253369" lon="-1.778389"><ele>303</ele><time>2019-08-30T12:53:49Z</time><name>PT9245</name></trkpt>
<trkpt lat="53.253369" lon="-1.778382"><ele>302</ele><time>2019-08-30T12:53:50Z</time><name>PT9246</name></trkpt>
<trkpt lat="53.253372" lon="-1.778373"><ele>301</ele><time>2019-08-30T12:53:51Z</time><name>PT9247</name></trkpt>
<trkpt lat="53.253374" lon="-1.778360"><ele>301</ele><time>2019-08-30T12:53:52Z</time><name>PT9248</name></trkpt>
<trkpt lat="53.253376" lon="-1.778350"><ele>301</ele><time>2019-08-30T12:53:53Z</time><name>PT9249</name></trkpt>
<trkpt lat="53.253377" lon="-1.778335"><ele>301</ele><time>2019-08-30T12:53:54Z</time><name>PT9250</name></trkpt>
<trkpt lat="53.253378" lon="-1.778322"><ele>300</ele><time>2019-08-30T12:53:55Z</time><name>PT9251</name></trkpt>
<trkpt lat="53.253378" lon="-1.778311"><ele>300</ele><time>2019-08-30T12:53:56Z</time><name>PT9252</name></trkpt>
<trkpt lat="53.253377" lon="-1.778303"><ele>300</ele><time>2019-08-30T12:53:57Z</time><name>PT9253</name></trkpt>
<trkpt lat="53.253375" lon="-1.778293"><ele>300</ele><time>2019-08-30T12:53:58Z</time><name>PT9254</name></trkpt>
<trkpt lat="53.253372" lon="-1.778280"><ele>300</ele><time>2019-08-30T12:53:59Z</time><name>PT9255</name></trkpt>
<trkpt lat="53.253372" lon="-1.778264"><ele>300</ele><time>2019-08-30T12:54:00Z</time><name>PT9256</name></trkpt>
<trkpt lat="53.253374" lon="-1.778253"><ele>300</ele><time>2019-08-30T12:54:01Z</time><name>PT9257</name></trkpt>
<trkpt lat="53.253376" lon="-1.778242"><ele>299</ele><time>2019-08-30T12:54:02Z</time><name>PT9258</name></trkpt>
<trkpt lat="53.253378" lon="-1.778231"><ele>299</ele><time>2019-08-30T12:54:03Z</time><name>PT9259</name></trkpt>
<trkpt lat="53.253380" lon="-1.778219"><ele>298</ele><time>2019-08-30T12:54:04Z</time><name>PT9260</name></trkpt>
<trkpt lat="53.253382" lon="-1.778210"><ele>298</ele><time>2019-08-30T12:54:05Z</time><name>PT9261</name></trkpt>
<trkpt lat="53.253386" lon="-1.778203"><ele>297</ele><time>2019-08-30T12:54:06Z</time><name>PT9262</name></trkpt>
<trkpt lat="53.253385" lon="-1.778189"><ele>297</ele><time>2019-08-30T12:54:07Z</time><name>PT9263</name></trkpt>
<trkpt lat="53.253385" lon="-1.778178"><ele>297</ele><time>2019-08-30T12:54:08Z</time><name>PT9264</name></trkpt>
<trkpt lat="53.253383" lon="-1.778165"><ele>297</ele><time>2019-08-30T12:54:09Z</time><name>PT9265</name></trkpt>
<trkpt lat="53.253382" lon="-1.778149"><ele>297</ele><time>2019-08-30T12:54:10Z</time><name>PT9266</name></trkpt>
<trkpt lat="53.253381" lon="-1.778137"><ele>296</ele><time>2019-08-30T12:54:11Z</time><name>PT9267</name></trkpt>
<trkpt lat="53.253380" lon="-1.778123"><ele>296</ele><time>2019-08-30T12:54:12Z</time><name>PT9268</name></trkpt>
<trkpt lat="53.253382" lon="-1.778113"><ele>296</ele><time>2019-08-30T12:54:13Z</time><name>PT9269</name></trkpt>
<trkpt lat="53.253384" lon="-1.778100"><ele>295</ele><time>2019-08-30T12:54:14Z</time><name>PT9270</name></trkpt>
<trkpt lat="53.253385" lon="-1.778085"><ele>296</ele><time>2019-08-30T12:54:15Z</time><name>PT9271</name></trkpt>
<trkpt lat="53.253387" lon="-1.778076"><ele>295</ele><time>2019-08-30T12:54:16Z</time><name>PT9272</name></trkpt>
<trkpt lat="53.253388" lon="-1.778067"><ele>295</ele><time>2019-08-30T12:54:17Z</time><name>PT9273</name></trkpt>
<trkpt lat="53.253389" lon="-1.778056"><ele>295</ele><time>2019-08-30T12:54:18Z</time><name>PT9274</name></trkpt>
<trkpt lat="53.253392" lon="-1.778034"><ele>295</ele><time>2019-08-30T12:54:19Z</time><name>PT9275</name></trkpt>
<trkpt lat="53.253393" lon="-1.778019"><ele>295</ele><time>2019-08-30T12:54:20Z</time><name>PT9276</name></trkpt>
<trkpt lat="53.253394" lon="-1.778004"><ele>294</ele><time>2019-08-30T12:54:21Z</time><name>PT9277</name></trkpt>
<trkpt lat="53.253394" lon="-1.777992"><ele>294</ele><time>2019-08-30T12:54:22Z</time><name>PT9278</name></trkpt>
<trkpt lat="53.253396" lon="-1.777981"><ele>294</ele><time>2019-08-30T12:54:23Z</time><name>PT9279</name></trkpt>
<trkpt lat="53.253399" lon="-1.777973"><ele>294</ele><time>2019-08-30T12:54:24Z</time><name>PT9280</name></trkpt>
<trkpt lat="53.253399" lon="-1.777965"><ele>294</ele><time>2019-08-30T12:54:25Z</time><name>PT9281</name></trkpt>
<trkpt lat="53.253401" lon="-1.777953"><ele>294</ele><time>2019-08-30T12:54:26Z</time><name>PT9282</name></trkpt>
<trkpt lat="53.253402" lon="-1.777944"><ele>294</ele><time>2019-08-30T12:54:27Z</time><name>PT9283</name></trkpt>
<trkpt lat="53.253404" lon="-1.777934"><ele>293</ele><time>2019-08-30T12:54:28Z</time><name>PT9284</name></trkpt>
<trkpt lat="53.253404" lon="-1.777919"><ele>293</ele><time>2019-08-30T12:54:29Z</time><name>PT9285</name></trkpt>
<trkpt lat="53.253406" lon="-1.777891"><ele>294</ele><time>2019-08-30T12:54:30Z</time><name>PT9286</name></trkpt>
<trkpt lat="53.253406" lon="-1.777870"><ele>294</ele><time>2019-08-30T12:54:31Z</time><name>PT9287</name></trkpt>
<trkpt lat="53.253403" lon="-1.777849"><ele>294</ele><time>2019-08-30T12:54:32Z</time><name>PT9288</name></trkpt>
<trkpt lat="53.253406" lon="-1.777835"><ele>293</ele><time>2019-08-30T12:54:33Z</time><name>PT9289</name></trkpt>
<trkpt lat="53.253410" lon="-1.777821"><ele>293</ele><time>2019-08-30T12:54:34Z</time><name>PT9290</name></trkpt>
<trkpt lat="53.253412" lon="-1.777808"><ele>293</ele><time>2019-08-30T12:54:35Z</time><name>PT9291</name></trkpt>
<trkpt lat="53.253413" lon="-1.777791"><ele>294</ele><time>2019-08-30T12:54:36Z</time><name>PT9292</name></trkpt>
<trkpt lat="53.253413" lon="-1.777780"><ele>294</ele><time>2019-08-30T12:54:37Z</time><name>PT9293</name></trkpt>
<trkpt lat="53.253415" lon="-1.777766"><ele>293</ele><time>2019-08-30T12:54:38Z</time><name>PT9294</name></trkpt>
<trkpt lat="53.253414" lon="-1.777749"><ele>293</ele><time>2019-08-30T12:54:39Z</time><name>PT9295</name></trkpt>
<trkpt lat="53.253414" lon="-1.777735"><ele>293</ele><time>2019-08-30T12:54:40Z</time><name>PT9296</name></trkpt>
<trkpt lat="53.253409" lon="-1.777720"><ele>292</ele><time>2019-08-30T12:54:41Z</time><name>PT9297</name></trkpt>
<trkpt lat="53.253406" lon="-1.777709"><ele>292</ele><time>2019-08-30T12:54:42Z</time><name>PT9298</name></trkpt>
<trkpt lat="53.253406" lon="-1.777699"><ele>291</ele><time>2019-08-30T12:54:43Z</time><name>PT9299</name></trkpt>
<trkpt lat="53.253400" lon="-1.777690"><ele>290</ele><time>2019-08-30T12:54:44Z</time><name>PT9300</name></trkpt>
<trkpt lat="53.253399" lon="-1.777675"><ele>289</ele><time>2019-08-30T12:54:45Z</time><name>PT9301</name></trkpt>
<trkpt lat="53.253400" lon="-1.777658"><ele>289</ele><time>2019-08-30T12:54:46Z</time><name>PT9302</name></trkpt>
<trkpt lat="53.253402" lon="-1.777644"><ele>288</ele><time>2019-08-30T12:54:47Z</time><name>PT9303</name></trkpt>
<trkpt lat="53.253403" lon="-1.777631"><ele>288</ele><time>2019-08-30T12:54:48Z</time><name>PT9304</name></trkpt>
<trkpt lat="53.253405" lon="-1.777620"><ele>287</ele><time>2019-08-30T12:54:49Z</time><name>PT9305</name></trkpt>
<trkpt lat="53.253405" lon="-1.777606"><ele>286</ele><time>2019-08-30T12:54:50Z</time><name>PT9306</name></trkpt>
<trkpt lat="53.253402" lon="-1.777597"><ele>284</ele><time>2019-08-30T12:54:51Z</time><name>PT9307</name></trkpt>
<trkpt lat="53.253404" lon="-1.777585"><ele>285</ele><time>2019-08-30T12:54:52Z</time><name>PT9308</name></trkpt>
<trkpt lat="53.253406" lon="-1.777576"><ele>285</ele><time>2019-08-30T12:54:53Z</time><name>PT9309</name></trkpt>
<trkpt lat="53.253406" lon="-1.777565"><ele>284</ele><time>2019-08-30T12:54:54Z</time><name>PT9310</name></trkpt>
<trkpt lat="53.253408" lon="-1.777549"><ele>284</ele><time>2019-08-30T12:54:55Z</time><name>PT9311</name></trkpt>
<trkpt lat="53.253408" lon="-1.777535"><ele>284</ele><time>2019-08-30T12:54:56Z</time><name>PT9312</name></trkpt>
<trkpt lat="53.253408" lon="-1.777524"><ele>284</ele><time>2019-08-30T12:54:57Z</time><name>PT9313</name></trkpt>
<trkpt lat="53.253409" lon="-1.777513"><ele>284</ele><time>2019-08-30T12:54:58Z</time><name>PT9314</name></trkpt>
<trkpt lat="53.253409" lon="-1.777506"><ele>283</ele><time>2019-08-30T12:54:59Z</time><name>PT9315</name></trkpt>
<trkpt lat="53.253406" lon="-1.777497"><ele>282</ele><time>2019-08-30T12:55:00Z</time><name>PT9316</name></trkpt>
<trkpt lat="53.253403" lon="-1.777483"><ele>282</ele><time>2019-08-30T12:55:01Z</time><name>PT9317</name></trkpt>
<trkpt lat="53.253402" lon="-1.777472"><ele>281</ele><time>2019-08-30T12:55:02Z</time><name>PT9318</name></trkpt>
<trkpt lat="53.253401" lon="-1.777459"><ele>281</ele><time>2019-08-30T12:55:03Z</time><name>PT9319</name></trkpt>
<trkpt lat="53.253406" lon="-1.777446"><ele>280</ele><time>2019-08-30T12:55:04Z</time><name>PT9320</name></trkpt>
<trkpt lat="53.253406" lon="-1.777426"><ele>280</ele><time>2019-08-30T12:55:05Z</time><name>PT9321</name></trkpt>
<trkpt lat="53.253408" lon="-1.777415"><ele>279</ele><time>2019-08-30T12:55:06Z</time><name>PT9322</name></trkpt>
<trkpt lat="53.253409" lon="-1.777402"><ele>279</ele><time>2019-08-30T12:55:07Z</time><name>PT9323</name></trkpt>
<trkpt lat="53.253408" lon="-1.777387"><ele>278</ele><time>2019-08-30T12:55:08Z</time><name>PT9324</name></trkpt>
<trkpt lat="53.253410" lon="-1.777377"><ele>279</ele><time>2019-08-30T12:55:09Z</time><name>PT9325</name></trkpt>
<trkpt lat="53.253408" lon="-1.777366"><ele>278</ele><time>2019-08-30T12:55:10Z</time><name>PT9326</name></trkpt>
<trkpt lat="53.253408" lon="-1.777356"><ele>277</ele><time>2019-08-30T12:55:11Z</time><name>PT9327</name></trkpt>
<trkpt lat="53.253413" lon="-1.777338"><ele>278</ele><time>2019-08-30T12:55:12Z</time><name>PT9328</name></trkpt>
<trkpt lat="53.253413" lon="-1.777329"><ele>278</ele><time>2019-08-30T12:55:13Z</time><name>PT9329</name></trkpt>
<trkpt lat="53.253410" lon="-1.777317"><ele>277</ele><time>2019-08-30T12:55:14Z</time><name>PT9330</name></trkpt>
<trkpt lat="53.253407" lon="-1.777305"><ele>277</ele><time>2019-08-30T12:55:15Z</time><name>PT9331</name></trkpt>
<trkpt lat="53.253402" lon="-1.777290"><ele>277</ele><time>2019-08-30T12:55:16Z</time><name>PT9332</name></trkpt>
<trkpt lat="53.253402" lon="-1.777264"><ele>276</ele><time>2019-08-30T12:55:17Z</time><name>PT9333</name></trkpt>
<trkpt lat="53.253400" lon="-1.777252"><ele>275</ele><time>2019-08-30T12:55:18Z</time><name>PT9334</name></trkpt>
<trkpt lat="53.253401" lon="-1.777242"><ele>274</ele><time>2019-08-30T12:55:19Z</time><name>PT9335</name></trkpt>
<trkpt lat="53.253403" lon="-1.777230"><ele>274</ele><time>2019-08-30T12:55:20Z</time><name>PT9336</name></trkpt>
<trkpt lat="53.253404" lon="-1.777223"><ele>273</ele><time>2019-08-30T12:55:21Z</time><name>PT9337</name></trkpt>
<trkpt lat="53.253405" lon="-1.777219"><ele>273</ele><time>2019-08-30T12:55:22Z</time><name>PT9338</name></trkpt>
<trkpt lat="53.253406" lon="-1.777216"><ele>273</ele><time>2019-08-30T12:55:23Z</time><name>PT9339</name></trkpt>
<trkpt lat="53.253403" lon="-1.777216"><ele>272</ele><time>2019-08-30T12:55:24Z</time><name>PT9340</name></trkpt>
<trkpt lat="53.253402" lon="-1.777212"><ele>272</ele><time>2019-08-30T12:55:25Z</time><name>PT9341</name></trkpt>
<trkpt lat="53.253401" lon="-1.777202"><ele>272</ele><time>2019-08-30T12:55:26Z</time><name>PT9342</name></trkpt>
<trkpt lat="53.253399" lon="-1.777171"><ele>273</ele><time>2019-08-30T12:55:27Z</time><name>PT9343</name></trkpt>
<trkpt lat="53.253403" lon="-1.777156"><ele>273</ele><time>2019-08-30T12:55:28Z</time><name>PT9344</name></trkpt>
<trkpt lat="53.253404" lon="-1.777142"><ele>272</ele><time>2019-08-30T12:55:29Z</time><name>PT9345</name></trkpt>
<trkpt lat="53.253402" lon="-1.777127"><ele>271</ele><time>2019-08-30T12:55:30Z</time><name>PT9346</name></trkpt>
<trkpt lat="53.253401" lon="-1.777117"><ele>271</ele><time>2019-08-30T12:55:31Z</time><name>PT9347</name></trkpt>
<trkpt lat="53.253399" lon="-1.777100"><ele>270</ele><time>2019-08-30T12:55:32Z</time><name>PT9348</name></trkpt>
<trkpt lat="53.253397" lon="-1.777087"><ele>269</ele><time>2019-08-30T12:55:33Z</time><name>PT9349</name></trkpt>
<trkpt lat="53.253394" lon="-1.777074"><ele>269</ele><time>2019-08-30T12:55:34Z</time><name>PT9350</name></trkpt>
<trkpt lat="53.253397" lon="-1.777051"><ele>270</ele><time>2019-08-30T12:55:35Z</time><name>PT9351</name></trkpt>
<trkpt lat="53.253399" lon="-1.777035"><ele>271</ele><time>2019-08-30T12:55:36Z</time><name>PT9352</name></trkpt>
<trkpt lat="53.253404" lon="-1.777024"><ele>269</ele><time>2019-08-30T12:55:37Z</time><name>PT9353</name></trkpt>
<trkpt lat="53.253405" lon="-1.777016"><ele>269</ele><time>2019-08-30T12:55:38Z</time><name>PT9354</name></trkpt>
<trkpt lat="53.253407" lon="-1.776998"><ele>270</ele><time>2019-08-30T12:55:39Z</time><name>PT9355</name></trkpt>
<trkpt lat="53.253406" lon="-1.776978"><ele>270</ele><time>2019-08-30T12:55:40Z</time><name>PT9356</name></trkpt>
<trkpt lat="53.253401" lon="-1.776964"><ele>270</ele><time>2019-08-30T12:55:41Z</time><name>PT9357</name></trkpt>
<trkpt lat="53.253408" lon="-1.776949"><ele>269</ele><time>2019-08-30T12:55:42Z</time><name>PT9358</name></trkpt>
<trkpt lat="53.253414" lon="-1.776929"><ele>269</ele><time>2019-08-30T12:55:43Z</time><name>PT9359</name></trkpt>
<trkpt lat="53.253415" lon="-1.776914"><ele>269</ele><time>2019-08-30T12:55:44Z</time><name>PT9360</name></trkpt>
<trkpt lat="53.253415" lon="-1.776898"><ele>268</ele><time>2019-08-30T12:55:45Z</time><name>PT9361</name></trkpt>
<trkpt lat="53.253414" lon="-1.776870"><ele>267</ele><time>2019-08-30T12:55:46Z</time><name>PT9362</name></trkpt>
<trkpt lat="53.253417" lon="-1.776853"><ele>267</ele><time>2019-08-30T12:55:47Z</time><name>PT9363</name></trkpt>
<trkpt lat="53.253416" lon="-1.776836"><ele>267</ele><time>2019-08-30T12:55:48Z</time><name>PT9364</name></trkpt>
<trkpt lat="53.253420" lon="-1.776813"><ele>268</ele><time>2019-08-30T12:55:49Z</time><name>PT9365</name></trkpt>
<trkpt lat="53.253420" lon="-1.776790"><ele>268</ele><time>2019-08-30T12:55:50Z</time><name>PT9366</name></trkpt>
<trkpt lat="53.253425" lon="-1.776769"><ele>268</ele><time>2019-08-30T12:55:51Z</time><name>PT9367</name></trkpt>
<trkpt lat="53.253427" lon="-1.776749"><ele>268</ele><time>2019-08-30T12:55:52Z</time><name>PT9368</name></trkpt>
<trkpt lat="53.253429" lon="-1.776731"><ele>268</ele><time>2019-08-30T12:55:53Z</time><name>PT9369</name></trkpt>
<trkpt lat="53.253427" lon="-1.776718"><ele>267</ele><time>2019-08-30T12:55:54Z</time><name>PT9370</name></trkpt>
<trkpt lat="53.253426" lon="-1.776703"><ele>267</ele><time>2019-08-30T12:55:55Z</time><name>PT9371</name></trkpt>
<trkpt lat="53.253435" lon="-1.776696"><ele>268</ele><time>2019-08-30T12:55:56Z</time><name>PT9372</name></trkpt>
<trkpt lat="53.253437" lon="-1.776691"><ele>268</ele><time>2019-08-30T12:55:57Z</time><name>PT9373</name></trkpt>
<trkpt lat="53.253434" lon="-1.776673"><ele>268</ele><time>2019-08-30T12:55:58Z</time><name>PT9374</name></trkpt>
<trkpt lat="53.253433" lon="-1.776661"><ele>268</ele><time>2019-08-30T12:55:59Z</time><name>PT9375</name></trkpt>
<trkpt lat="53.253441" lon="-1.776652"><ele>268</ele><time>2019-08-30T12:56:00Z</time><name>PT9376</name></trkpt>
<trkpt lat="53.253443" lon="-1.776633"><ele>268</ele><time>2019-08-30T12:56:01Z</time><name>PT9377</name></trkpt>
<trkpt lat="53.253442" lon="-1.776625"><ele>268</ele><time>2019-08-30T12:56:02Z</time><name>PT9378</name></trkpt>
<trkpt lat="53.253446" lon="-1.776612"><ele>268</ele><time>2019-08-30T12:56:03Z</time><name>PT9379</name></trkpt>
<trkpt lat="53.253447" lon="-1.776597"><ele>269</ele><time>2019-08-30T12:56:04Z</time><name>PT9380</name></trkpt>
<trkpt lat="53.253445" lon="-1.776579"><ele>268</ele><time>2019-08-30T12:56:05Z</time><name>PT9381</name></trkpt>
<trkpt lat="53.253445" lon="-1.776565"><ele>268</ele><time>2019-08-30T12:56:06Z</time><name>PT9382</name></trkpt>
<trkpt lat="53.253445" lon="-1.776551"><ele>267</ele><time>2019-08-30T12:56:07Z</time><name>PT9383</name></trkpt>
<trkpt lat="53.253445" lon="-1.776527"><ele>268</ele><time>2019-08-30T12:56:08Z</time><name>PT9384</name></trkpt>
<trkpt lat="53.253448" lon="-1.776510"><ele>268</ele><time>2019-08-30T12:56:09Z</time><name>PT9385</name></trkpt>
<trkpt lat="53.253450" lon="-1.776493"><ele>268</ele><time>2019-08-30T12:56:10Z</time><name>PT9386</name></trkpt>
<trkpt lat="53.253447" lon="-1.776469"><ele>268</ele><time>2019-08-30T12:56:11Z</time><name>PT9387</name></trkpt>
<trkpt lat="53.253448" lon="-1.776443"><ele>269</ele><time>2019-08-30T12:56:12Z</time><name>PT9388</name></trkpt>
<trkpt lat="53.253451" lon="-1.776420"><ele>269</ele><time>2019-08-30T12:56:13Z</time><name>PT9389</name></trkpt>
<trkpt lat="53.253449" lon="-1.776403"><ele>269</ele><time>2019-08-30T12:56:14Z</time><name>PT9390</name></trkpt>
<trkpt lat="53.253442" lon="-1.776388"><ele>269</ele><time>2019-08-30T12:56:15Z</time><name>PT9391</name></trkpt>
<trkpt lat="53.253437" lon="-1.776369"><ele>267</ele><time>2019-08-30T12:56:16Z</time><name>PT9392</name></trkpt>
<trkpt lat="53.253435" lon="-1.776345"><ele>266</ele><time>2019-08-30T12:56:17Z</time><name>PT9393</name></trkpt>
<trkpt lat="53.253438" lon="-1.776332"><ele>266</ele><time>2019-08-30T12:56:18Z</time><name>PT9394</name></trkpt>
<trkpt lat="53.253443" lon="-1.776316"><ele>266</ele><time>2019-08-30T12:56:19Z</time><name>PT9395</name></trkpt>
<trkpt lat="53.253448" lon="-1.776300"><ele>265</ele><time>2019-08-30T12:56:20Z</time><name>PT9396</name></trkpt>
<trkpt lat="53.253453" lon="-1.776283"><ele>265</ele><time>2019-08-30T12:56:21Z</time><name>PT9397</name></trkpt>
<trkpt lat="53.253451" lon="-1.776278"><ele>264</ele><time>2019-08-30T12:56:22Z</time><name>PT9398</name></trkpt>
<trkpt lat="53.253448" lon="-1.776259"><ele>263</ele><time>2019-08-30T12:56:23Z</time><name>PT9399</name></trkpt>
<trkpt lat="53.253452" lon="-1.776236"><ele>262</ele><time>2019-08-30T12:56:24Z</time><name>PT9400</name></trkpt>
<trkpt lat="53.253452" lon="-1.776220"><ele>261</ele><time>2019-08-30T12:56:25Z</time><name>PT9401</name></trkpt>
<trkpt lat="53.253456" lon="-1.776201"><ele>261</ele><time>2019-08-30T12:56:26Z</time><name>PT9402</name></trkpt>
<trkpt lat="53.253458" lon="-1.776183"><ele>261</ele><time>2019-08-30T12:56:27Z</time><name>PT9403</name></trkpt>
<trkpt lat="53.253457" lon="-1.776169"><ele>260</ele><time>2019-08-30T12:56:28Z</time><name>PT9404</name></trkpt>
<trkpt lat="53.253456" lon="-1.776149"><ele>260</ele><time>2019-08-30T12:56:29Z</time><name>PT9405</name></trkpt>
<trkpt lat="53.253463" lon="-1.776131"><ele>261</ele><time>2019-08-30T12:56:30Z</time><name>PT9406</name></trkpt>
<trkpt lat="53.253466" lon="-1.776119"><ele>261</ele><time>2019-08-30T12:56:31Z</time><name>PT9407</name></trkpt>
<trkpt lat="53.253467" lon="-1.776102"><ele>261</ele><time>2019-08-30T12:56:32Z</time><name>PT9408</name></trkpt>
<trkpt lat="53.253463" lon="-1.776081"><ele>261</ele><time>2019-08-30T12:56:33Z</time><name>PT9409</name></trkpt>
<trkpt lat="53.253458" lon="-1.776061"><ele>260</ele><time>2019-08-30T12:56:34Z</time><name>PT9410</name></trkpt>
<trkpt lat="53.253457" lon="-1.776046"><ele>260</ele><time>2019-08-30T12:56:35Z</time><name>PT9411</name></trkpt>
<trkpt lat="53.253451" lon="-1.776037"><ele>259</ele><time>2019-08-30T12:56:36Z</time><name>PT9412</name></trkpt>
<trkpt lat="53.253449" lon="-1.776023"><ele>259</ele><time>2019-08-30T12:56:37Z</time><name>PT9413</name></trkpt>
<trkpt lat="53.253453" lon="-1.776000"><ele>259</ele><time>2019-08-30T12:56:38Z</time><name>PT9414</name></trkpt>
<trkpt lat="53.253448" lon="-1.775985"><ele>258</ele><time>2019-08-30T12:56:39Z</time><name>PT9415</name></trkpt>
<trkpt lat="53.253438" lon="-1.775954"><ele>258</ele><time>2019-08-30T12:56:40Z</time><name>PT9416</name></trkpt>
<trkpt lat="53.253436" lon="-1.775935"><ele>256</ele><time>2019-08-30T12:56:41Z</time><name>PT9417</name></trkpt>
<trkpt lat="53.253434" lon="-1.775907"><ele>256</ele><time>2019-08-30T12:56:42Z</time><name>PT9418</name></trkpt>
<trkpt lat="53.253435" lon="-1.775896"><ele>255</ele><time>2019-08-30T12:56:43Z</time><name>PT9419</name></trkpt>
<trkpt lat="53.253434" lon="-1.775879"><ele>255</ele><time>2019-08-30T12:56:44Z</time><name>PT9420</name></trkpt>
<trkpt lat="53.253439" lon="-1.775861"><ele>256</ele><time>2019-08-30T12:56:45Z</time><name>PT9421</name></trkpt>
<trkpt lat="53.253443" lon="-1.775848"><ele>257</ele><time>2019-08-30T12:56:46Z</time><name>PT9422</name></trkpt>
<trkpt lat="53.253448" lon="-1.775833"><ele>257</ele><time>2019-08-30T12:56:47Z</time><name>PT9423</name></trkpt>
<trkpt lat="53.253452" lon="-1.775818"><ele>258</ele><time>2019-08-30T12:56:48Z</time><name>PT9424</name></trkpt>
<trkpt lat="53.253456" lon="-1.775794"><ele>259</ele><time>2019-08-30T12:56:49Z</time><name>PT9425</name></trkpt>
<trkpt lat="53.253456" lon="-1.775773"><ele>258</ele><time>2019-08-30T12:56:50Z</time><name>PT9426</name></trkpt>
<trkpt lat="53.253457" lon="-1.775754"><ele>259</ele><time>2019-08-30T12:56:51Z</time><name>PT9427</name></trkpt>
<trkpt lat="53.253458" lon="-1.775740"><ele>259</ele><time>2019-08-30T12:56:52Z</time><name>PT9428</name></trkpt>
<trkpt lat="53.253457" lon="-1.775726"><ele>259</ele><time>2019-08-30T12:56:53Z</time><name>PT9429</name></trkpt>
<trkpt lat="53.253464" lon="-1.775710"><ele>258</ele><time>2019-08-30T12:56:54Z</time><name>PT9430</name></trkpt>
<trkpt lat="53.253466" lon="-1.775698"><ele>257</ele><time>2019-08-30T12:56:55Z</time><name>PT9431</name></trkpt>
<trkpt lat="53.253465" lon="-1.775686"><ele>257</ele><time>2019-08-30T12:56:56Z</time><name>PT9432</name></trkpt>
<trkpt lat="53.253468" lon="-1.775667"><ele>257</ele><time>2019-08-30T12:56:57Z</time><name>PT9433</name></trkpt>
<trkpt lat="53.253474" lon="-1.775645"><ele>257</ele><time>2019-08-30T12:56:58Z</time><name>PT9434</name></trkpt>
<trkpt lat="53.253479" lon="-1.775621"><ele>258</ele><time>2019-08-30T12:56:59Z</time><name>PT9435</name></trkpt>
<trkpt lat="53.253479" lon="-1.775602"><ele>257</ele><time>2019-08-30T12:57:00Z</time><name>PT9436</name></trkpt>
<trkpt lat="53.253479" lon="-1.775588"><ele>258</ele><time>2019-08-30T12:57:01Z</time><name>PT9437</name></trkpt>
<trkpt lat="53.253478" lon="-1.775567"><ele>258</ele><time>2019-08-30T12:57:02Z</time><name>PT9438</name></trkpt>
<trkpt lat="53.253471" lon="-1.775553"><ele>258</ele><time>2019-08-30T12:57:03Z</time><name>PT9439</name></trkpt>
<trkpt lat="53.253468" lon="-1.775536"><ele>258</ele><time>2019-08-30T12:57:04Z</time><name>PT9440</name></trkpt>
<trkpt lat="53.253466" lon="-1.775520"><ele>258</ele><time>2019-08-30T12:57:05Z</time><name>PT9441</name></trkpt>
<trkpt lat="53.253466" lon="-1.775501"><ele>258</ele><time>2019-08-30T12:57:06Z</time><name>PT9442</name></trkpt>
<trkpt lat="53.253463" lon="-1.775486"><ele>258</ele><time>2019-08-30T12:57:07Z</time><name>PT9443</name></trkpt>
<trkpt lat="53.253463" lon="-1.775463"><ele>257</ele><time>2019-08-30T12:57:08Z</time><name>PT9444</name></trkpt>
<trkpt lat="53.253461" lon="-1.775446"><ele>257</ele><time>2019-08-30T12:57:09Z</time><name>PT9445</name></trkpt>
<trkpt lat="53.253456" lon="-1.775427"><ele>256</ele><time>2019-08-30T12:57:10Z</time><name>PT9446</name></trkpt>
<trkpt lat="53.253461" lon="-1.775404"><ele>256</ele><time>2019-08-30T12:57:11Z</time><name>PT9447</name></trkpt>
<trkpt lat="53.253460" lon="-1.775384"><ele>257</ele><time>2019-08-30T12:57:12Z</time><name>PT9448</name></trkpt>
<trkpt lat="53.253458" lon="-1.775369"><ele>256</ele><time>2019-08-30T12:57:13Z</time><name>PT9449</name></trkpt>
<trkpt lat="53.253451" lon="-1.775360"><ele>256</ele><time>2019-08-30T12:57:14Z</time><name>PT9450</name></trkpt>
<trkpt lat="53.253450" lon="-1.775357"><ele>255</ele><time>2019-08-30T12:57:15Z</time><name>PT9451</name></trkpt>
<trkpt lat="53.253449" lon="-1.775346"><ele>254</ele><time>2019-08-30T12:57:16Z</time><name>PT9452</name></trkpt>
<trkpt lat="53.253441" lon="-1.775339"><ele>253</ele><time>2019-08-30T12:57:17Z</time><name>PT9453</name></trkpt>
<trkpt lat="53.253440" lon="-1.775328"><ele>252</ele><time>2019-08-30T12:57:18Z</time><name>PT9454</name></trkpt>
<trkpt lat="53.253438" lon="-1.775319"><ele>251</ele><time>2019-08-30T12:57:19Z</time><name>PT9455</name></trkpt>
<trkpt lat="53.253441" lon="-1.775308"><ele>251</ele><time>2019-08-30T12:57:20Z</time><name>PT9456</name></trkpt>
<trkpt lat="53.253443" lon="-1.775303"><ele>250</ele><time>2019-08-30T12:57:21Z</time><name>PT9457</name></trkpt>
<trkpt lat="53.253449" lon="-1.775293"><ele>250</ele><time>2019-08-30T12:57:22Z</time><name>PT9458</name></trkpt>
<trkpt lat="53.253455" lon="-1.775287"><ele>251</ele><time>2019-08-30T12:57:23Z</time><name>PT9459</name></trkpt>
<trkpt lat="53.253459" lon="-1.775286"><ele>250</ele><time>2019-08-30T12:57:24Z</time><name>PT9460</name></trkpt>
<trkpt lat="53.253462" lon="-1.775280"><ele>250</ele><time>2019-08-30T12:57:25Z</time><name>PT9461</name></trkpt>
<trkpt lat="53.253469" lon="-1.775272"><ele>249</ele><time>2019-08-30T12:57:26Z</time><name>PT9462</name></trkpt>
<trkpt lat="53.253477" lon="-1.775262"><ele>249</ele><time>2019-08-30T12:57:27Z</time><name>PT9463</name></trkpt>
<trkpt lat="53.253480" lon="-1.775253"><ele>248</ele><time>2019-08-30T12:57:28Z</time><name>PT9464</name></trkpt>
<trkpt lat="53.253483" lon="-1.775244"><ele>248</ele><time>2019-08-30T12:57:29Z</time><name>PT9465</name></trkpt>
<trkpt lat="53.253486" lon="-1.775237"><ele>248</ele><time>2019-08-30T12:57:30Z</time><name>PT9466</name></trkpt>
<trkpt lat="53.253487" lon="-1.775229"><ele>248</ele><time>2019-08-30T12:57:31Z</time><name>PT9467</name></trkpt>
<trkpt lat="53.253490" lon="-1.775214"><ele>248</ele><time>2019-08-30T12:57:32Z</time><name>PT9468</name></trkpt>
<trkpt lat="53.253488" lon="-1.775200"><ele>247</ele><time>2019-08-30T12:57:33Z</time><name>PT9469</name></trkpt>
<trkpt lat="53.253491" lon="-1.775183"><ele>247</ele><time>2019-08-30T12:57:34Z</time><name>PT9470</name></trkpt>
<trkpt lat="53.253492" lon="-1.775175"><ele>247</ele><time>2019-08-30T12:57:35Z</time><name>PT9471</name></trkpt>
<trkpt lat="53.253494" lon="-1.775166"><ele>247</ele><time>2019-08-30T12:57:36Z</time><name>PT9472</name></trkpt>
<trkpt lat="53.253500" lon="-1.775155"><ele>246</ele><time>2019-08-30T12:57:37Z</time><name>PT9473</name></trkpt>
<trkpt lat="53.253503" lon="-1.775144"><ele>246</ele><time>2019-08-30T12:57:38Z</time><name>PT9474</name></trkpt>
<trkpt lat="53.253505" lon="-1.775133"><ele>247</ele><time>2019-08-30T12:57:39Z</time><name>PT9475</name></trkpt>
<trkpt lat="53.253508" lon="-1.775118"><ele>247</ele><time>2019-08-30T12:57:40Z</time><name>PT9476</name></trkpt>
<trkpt lat="53.253510" lon="-1.775099"><ele>247</ele><time>2019-08-30T12:57:41Z</time><name>PT9477</name></trkpt>
<trkpt lat="53.253508" lon="-1.775096"><ele>247</ele><time>2019-08-30T12:57:42Z</time><name>PT9478</name></trkpt>
<trkpt lat="53.253508" lon="-1.775085"><ele>247</ele><time>2019-08-30T12:57:43Z</time><name>PT9479</name></trkpt>
<trkpt lat="53.253509" lon="-1.775075"><ele>247</ele><time>2019-08-30T12:57:44Z</time><name>PT9480</name></trkpt>
<trkpt lat="53.253512" lon="-1.775064"><ele>247</ele><time>2019-08-30T12:57:45Z</time><name>PT9481</name></trkpt>
<trkpt lat="53.253516" lon="-1.775053"><ele>247</ele><time>2019-08-30T12:57:46Z</time><name>PT9482</name></trkpt>
<trkpt lat="53.253516" lon="-1.775040"><ele>245</ele><time>2019-08-30T12:57:47Z</time><name>PT9483</name></trkpt>
<trkpt lat="53.253525" lon="-1.775035"><ele>245</ele><time>2019-08-30T12:57:48Z</time><name>PT9484</name></trkpt>
<trkpt lat="53.253529" lon="-1.775032"><ele>245</ele><time>2019-08-30T12:57:49Z</time><name>PT9485</name></trkpt>
<trkpt lat="53.253531" lon="-1.775042"><ele>243</ele><time>2019-08-30T12:57:50Z</time><name>PT9486</name></trkpt>
<trkpt lat="53.253534" lon="-1.775040"><ele>244</ele><time>2019-08-30T12:57:51Z</time><name>PT9487</name></trkpt>
<trkpt lat="53.253536" lon="-1.775045"><ele>243</ele><time>2019-08-30T12:57:52Z</time><name>PT9488</name></trkpt>
<trkpt lat="53.253539" lon="-1.775050"><ele>243</ele><time>2019-08-30T12:57:53Z</time><name>PT9489</name></trkpt>
<trkpt lat="53.253542" lon="-1.775052"><ele>242</ele><time>2019-08-30T12:57:54Z</time><name>PT9490</name></trkpt>
<trkpt lat="53.253546" lon="-1.775052"><ele>242</ele><time>2019-08-30T12:57:55Z</time><name>PT9491</name></trkpt>
<trkpt lat="53.253558" lon="-1.775048"><ele>242</ele><time>2019-08-30T12:57:56Z</time><name>PT9492</name></trkpt>
<trkpt lat="53.253563" lon="-1.775048"><ele>242</ele><time>2019-08-30T12:57:57Z</time><name>PT9493</name></trkpt>
<trkpt lat="53.253570" lon="-1.775043"><ele>242</ele><time>2019-08-30T12:57:58Z</time><name>PT9494</name></trkpt>
<trkpt lat="53.253577" lon="-1.775034"><ele>242</ele><time>2019-08-30T12:57:59Z</time><name>PT9495</name></trkpt>
<trkpt lat="53.253581" lon="-1.775029"><ele>242</ele><time>2019-08-30T12:58:00Z</time><name>PT9496</name></trkpt>
<trkpt lat="53.253587" lon="-1.775016"><ele>241</ele><time>2019-08-30T12:58:01Z</time><name>PT9497</name></trkpt>
<trkpt lat="53.253593" lon="-1.775011"><ele>242</ele><time>2019-08-30T12:58:02Z</time><name>PT9498</name></trkpt>
<trkpt lat="53.253599" lon="-1.775002"><ele>241</ele><time>2019-08-30T12:58:03Z</time><name>PT9499</name></trkpt>
<trkpt lat="53.253603" lon="-1.774996"><ele>241</ele><time>2019-08-30T12:58:04Z</time><name>PT9500</name></trkpt>
<trkpt lat="53.253611" lon="-1.774983"><ele>241</ele><time>2019-08-30T12:58:05Z</time><name>PT9501</name></trkpt>
<trkpt lat="53.253617" lon="-1.774972"><ele>242</ele><time>2019-08-30T12:58:06Z</time><name>PT9502</name></trkpt>
<trkpt lat="53.253619" lon="-1.774968"><ele>241</ele><time>2019-08-30T12:58:07Z</time><name>PT9503</name></trkpt>
<trkpt lat="53.253620" lon="-1.774964"><ele>241</ele><time>2019-08-30T12:58:08Z</time><name>PT9504</name></trkpt>
<trkpt lat="53.253628" lon="-1.774956"><ele>240</ele><time>2019-08-30T12:58:09Z</time><name>PT9505</name></trkpt>
<trkpt lat="53.253636" lon="-1.774949"><ele>239</ele><time>2019-08-30T12:58:10Z</time><name>PT9506</name></trkpt>
<trkpt lat="53.253640" lon="-1.774941"><ele>239</ele><time>2019-08-30T12:58:11Z</time><name>PT9507</name></trkpt>
<trkpt lat="53.253640" lon="-1.774930"><ele>239</ele><time>2019-08-30T12:58:12Z</time><name>PT9508</name></trkpt>
<trkpt lat="53.253642" lon="-1.774924"><ele>238</ele><time>2019-08-30T12:58:13Z</time><name>PT9509</name></trkpt>
<trkpt lat="53.253644" lon="-1.774918"><ele>239</ele><time>2019-08-30T12:58:14Z</time><name>PT9510</name></trkpt>
<trkpt lat="53.253649" lon="-1.774921"><ele>239</ele><time>2019-08-30T12:58:15Z</time><name>PT9511</name></trkpt>
<trkpt lat="53.253651" lon="-1.774923"><ele>239</ele><time>2019-08-30T12:58:16Z</time><name>PT9512</name></trkpt>
<trkpt lat="53.253652" lon="-1.774921"><ele>239</ele><time>2019-08-30T12:58:17Z</time><name>PT9513</name></trkpt>
<trkpt lat="53.253656" lon="-1.774914"><ele>240</ele><time>2019-08-30T12:58:18Z</time><name>PT9514</name></trkpt>
<trkpt lat="53.253659" lon="-1.774910"><ele>240</ele><time>2019-08-30T12:58:19Z</time><name>PT9515</name></trkpt>
<trkpt lat="53.253671" lon="-1.774900"><ele>238</ele><time>2019-08-30T12:58:21Z</time><name>PT9516</name></trkpt>
<trkpt lat="53.253671" lon="-1.774929"><ele>239</ele><time>2019-08-30T12:58:22Z</time><name>PT9517</name></trkpt>
<trkpt lat="53.253673" lon="-1.774935"><ele>239</ele><time>2019-08-30T12:58:23Z</time><name>PT9518</name></trkpt>
<trkpt lat="53.253680" lon="-1.774933"><ele>240</ele><time>2019-08-30T12:58:24Z</time><name>PT9519</name></trkpt>
<trkpt lat="53.253682" lon="-1.774941"><ele>239</ele><time>2019-08-30T12:58:25Z</time><name>PT9520</name></trkpt>
<trkpt lat="53.253686" lon="-1.774947"><ele>239</ele><time>2019-08-30T12:58:26Z</time><name>PT9521</name></trkpt>
<trkpt lat="53.253688" lon="-1.774949"><ele>239</ele><time>2019-08-30T12:58:27Z</time><name>PT9522</name></trkpt>
<trkpt lat="53.253690" lon="-1.774949"><ele>238</ele><time>2019-08-30T12:58:28Z</time><name>PT9523</name></trkpt>
<trkpt lat="53.253700" lon="-1.774943"><ele>238</ele><time>2019-08-30T12:58:29Z</time><name>PT9524</name></trkpt>
<trkpt lat="53.253699" lon="-1.774944"><ele>238</ele><time>2019-08-30T12:58:30Z</time><name>PT9525</name></trkpt>
<trkpt lat="53.253701" lon="-1.774946"><ele>238</ele><time>2019-08-30T12:58:31Z</time><name>PT9526</name></trkpt>
<trkpt lat="53.253703" lon="-1.774945"><ele>238</ele><time>2019-08-30T12:58:32Z</time><name>PT9527</name></trkpt>
<trkpt lat="53.253703" lon="-1.774960"><ele>238</ele><time>2019-08-30T12:58:33Z</time><name>PT9528</name></trkpt>
<trkpt lat="53.253700" lon="-1.774961"><ele>237</ele><time>2019-08-30T12:58:34Z</time><name>PT9529</name></trkpt>
<trkpt lat="53.253703" lon="-1.774965"><ele>236</ele><time>2019-08-30T12:58:35Z</time><name>PT9530</name></trkpt>
<trkpt lat="53.253706" lon="-1.774967"><ele>236</ele><time>2019-08-30T12:58:36Z</time><name>PT9531</name></trkpt>
<trkpt lat="53.253710" lon="-1.774966"><ele>236</ele><time>2019-08-30T12:58:37Z</time><name>PT9532</name></trkpt>
<trkpt lat="53.253714" lon="-1.774960"><ele>236</ele><time>2019-08-30T12:58:38Z</time><name>PT9533</name></trkpt>
<trkpt lat="53.253715" lon="-1.774955"><ele>236</ele><time>2019-08-30T12:58:39Z</time><name>PT9534</name></trkpt>
<trkpt lat="53.253719" lon="-1.774944"><ele>236</ele><time>2019-08-30T12:58:40Z</time><name>PT9535</name></trkpt>
<trkpt lat="53.253719" lon="-1.774939"><ele>235</ele><time>2019-08-30T12:58:41Z</time><name>PT9536</name></trkpt>
<trkpt lat="53.253719" lon="-1.774930"><ele>234</ele><time>2019-08-30T12:58:42Z</time><name>PT9537</name></trkpt>
<trkpt lat="53.253725" lon="-1.774924"><ele>234</ele><time>2019-08-30T12:58:43Z</time><name>PT9538</name></trkpt>
<trkpt lat="53.253730" lon="-1.774914"><ele>234</ele><time>2019-08-30T12:58:44Z</time><name>PT9539</name></trkpt>
<trkpt lat="53.253733" lon="-1.774901"><ele>233</ele><time>2019-08-30T12:58:45Z</time><name>PT9540</name></trkpt>
<trkpt lat="53.253738" lon="-1.774888"><ele>233</ele><time>2019-08-30T12:58:46Z</time><name>PT9541</name></trkpt>
<trkpt lat="53.253745" lon="-1.774879"><ele>234</ele><time>2019-08-30T12:58:47Z</time><name>PT9542</name></trkpt>
<trkpt lat="53.253753" lon="-1.774867"><ele>235</ele><time>2019-08-30T12:58:48Z</time><name>PT9543</name></trkpt>
<trkpt lat="53.253758" lon="-1.774860"><ele>234</ele><time>2019-08-30T12:58:49Z</time><name>PT9544</name></trkpt>
<trkpt lat="53.253765" lon="-1.774850"><ele>235</ele><time>2019-08-30T12:58:50Z</time><name>PT9545</name></trkpt>
<trkpt lat="53.253770" lon="-1.774841"><ele>235</ele><time>2019-08-30T12:58:51Z</time><name>PT9546</name></trkpt>
<trkpt lat="53.253782" lon="-1.774831"><ele>235</ele><time>2019-08-30T12:58:52Z</time><name>PT9547</name></trkpt>
<trkpt lat="53.253794" lon="-1.774820"><ele>235</ele><time>2019-08-30T12:58:53Z</time><name>PT9548</name></trkpt>
<trkpt lat="53.253804" lon="-1.774813"><ele>234</ele><time>2019-08-30T12:58:54Z</time><name>PT9549</name></trkpt>
<trkpt lat="53.253811" lon="-1.774809"><ele>234</ele><time>2019-08-30T12:58:55Z</time><name>PT9550</name></trkpt>
<trkpt lat="53.253817" lon="-1.774807"><ele>234</ele><time>2019-08-30T12:58:56Z</time><name>PT9551</name></trkpt>
<trkpt lat="53.253827" lon="-1.774797"><ele>234</ele><time>2019-08-30T12:58:57Z</time><name>PT9552</name></trkpt>
<trkpt lat="53.253838" lon="-1.774791"><ele>235</ele><time>2019-08-30T12:58:58Z</time><name>PT9553</name></trkpt>
<trkpt lat="53.253851" lon="-1.774787"><ele>235</ele><time>2019-08-30T12:58:59Z</time><name>PT9554</name></trkpt>
<trkpt lat="53.253860" lon="-1.774785"><ele>234</ele><time>2019-08-30T12:59:00Z</time><name>PT9555</name></trkpt>
<trkpt lat="53.253867" lon="-1.774787"><ele>234</ele><time>2019-08-30T12:59:01Z</time><name>PT9556</name></trkpt>
<trkpt lat="53.253872" lon="-1.774790"><ele>234</ele><time>2019-08-30T12:59:02Z</time><name>PT9557</name></trkpt>
<trkpt lat="53.253876" lon="-1.774787"><ele>233</ele><time>2019-08-30T12:59:03Z</time><name>PT9558</name></trkpt>
<trkpt lat="53.253880" lon="-1.774778"><ele>233</ele><time>2019-08-30T12:59:04Z</time><name>PT9559</name></trkpt>
<trkpt lat="53.253884" lon="-1.774769"><ele>233</ele><time>2019-08-30T12:59:05Z</time><name>PT9560</name></trkpt>
<trkpt lat="53.253883" lon="-1.774766"><ele>231</ele><time>2019-08-30T12:59:06Z</time><name>PT9561</name></trkpt>
<trkpt lat="53.253879" lon="-1.774765"><ele>230</ele><time>2019-08-30T12:59:07Z</time><name>PT9562</name></trkpt>
<trkpt lat="53.253880" lon="-1.774751"><ele>229</ele><time>2019-08-30T12:59:08Z</time><name>PT9563</name></trkpt>
<trkpt lat="53.253881" lon="-1.774744"><ele>229</ele><time>2019-08-30T12:59:09Z</time><name>PT9564</name></trkpt>
<trkpt lat="53.253876" lon="-1.774742"><ele>227</ele><time>2019-08-30T12:59:10Z</time><name>PT9565</name></trkpt>
<trkpt lat="53.253880" lon="-1.774736"><ele>226</ele><time>2019-08-30T12:59:11Z</time><name>PT9566</name></trkpt>
<trkpt lat="53.253883" lon="-1.774728"><ele>226</ele><time>2019-08-30T12:59:12Z</time><name>PT9567</name></trkpt>
<trkpt lat="53.253888" lon="-1.774723"><ele>226</ele><time>2019-08-30T12:59:13Z</time><name>PT9568</name></trkpt>
<trkpt lat="53.253893" lon="-1.774718"><ele>226</ele><time>2019-08-30T12:59:14Z</time><name>PT9569</name></trkpt>
<trkpt lat="53.253898" lon="-1.774711"><ele>226</ele><time>2019-08-30T12:59:15Z</time><name>PT9570</name></trkpt>
<trkpt lat="53.253902" lon="-1.774706"><ele>226</ele><time>2019-08-30T12:59:16Z</time><name>PT9571</name></trkpt>
<trkpt lat="53.253905" lon="-1.774703"><ele>226</ele><time>2019-08-30T12:59:17Z</time><name>PT9572</name></trkpt>
<trkpt lat="53.253915" lon="-1.774697"><ele>225</ele><time>2019-08-30T12:59:18Z</time><name>PT9573</name></trkpt>
<trkpt lat="53.253921" lon="-1.774691"><ele>225</ele><time>2019-08-30T12:59:19Z</time><name>PT9574</name></trkpt>
<trkpt lat="53.253930" lon="-1.774681"><ele>225</ele><time>2019-08-30T12:59:20Z</time><name>PT9575</name></trkpt>
<trkpt lat="53.253937" lon="-1.774675"><ele>226</ele><time>2019-08-30T12:59:21Z</time><name>PT9576</name></trkpt>
<trkpt lat="53.253943" lon="-1.774667"><ele>225</ele><time>2019-08-30T12:59:22Z</time><name>PT9577</name></trkpt>
<trkpt lat="53.253949" lon="-1.774661"><ele>226</ele><time>2019-08-30T12:59:23Z</time><name>PT9578</name></trkpt>
<trkpt lat="53.253952" lon="-1.774658"><ele>227</ele><time>2019-08-30T12:59:24Z</time><name>PT9579</name></trkpt>
<trkpt lat="53.253956" lon="-1.774654"><ele>227</ele><time>2019-08-30T12:59:25Z</time><name>PT9580</name></trkpt>
<trkpt lat="53.253963" lon="-1.774647"><ele>227</ele><time>2019-08-30T12:59:26Z</time><name>PT9581</name></trkpt>
<trkpt lat="53.253970" lon="-1.774638"><ele>227</ele><time>2019-08-30T12:59:27Z</time><name>PT9582</name></trkpt>
<trkpt lat="53.253972" lon="-1.774633"><ele>227</ele><time>2019-08-30T12:59:28Z</time><name>PT9583</name></trkpt>
<trkpt lat="53.253980" lon="-1.774625"><ele>227</ele><time>2019-08-30T12:59:29Z</time><name>PT9584</name></trkpt>
<trkpt lat="53.253986" lon="-1.774621"><ele>226</ele><time>2019-08-30T12:59:30Z</time><name>PT9585</name></trkpt>
<trkpt lat="53.253992" lon="-1.774619"><ele>226</ele><time>2019-08-30T12:59:31Z</time><name>PT9586</name></trkpt>
<trkpt lat="53.254001" lon="-1.774613"><ele>226</ele><time>2019-08-30T12:59:32Z</time><name>PT9587</name></trkpt>
<trkpt lat="53.254007" lon="-1.774612"><ele>225</ele><time>2019-08-30T12:59:33Z</time><name>PT9588</name></trkpt>
<trkpt lat="53.254014" lon="-1.774610"><ele>225</ele><time>2019-08-30T12:59:34Z</time><name>PT9589</name></trkpt>
<trkpt lat="53.254019" lon="-1.774609"><ele>225</ele><time>2019-08-30T12:59:35Z</time><name>PT9590</name></trkpt>
<trkpt lat="53.254023" lon="-1.774603"><ele>227</ele><time>2019-08-30T12:59:36Z</time><name>PT9591</name></trkpt>
<trkpt lat="53.254025" lon="-1.774601"><ele>226</ele><time>2019-08-30T12:59:37Z</time><name>PT9592</name></trkpt>
<trkpt lat="53.254028" lon="-1.774600"><ele>226</ele><time>2019-08-30T12:59:38Z</time><name>PT9593</name></trkpt>
<trkpt lat="53.254029" lon="-1.774596"><ele>226</ele><time>2019-08-30T12:59:39Z</time><name>PT9594</name></trkpt>
<trkpt lat="53.254030" lon="-1.774595"><ele>226</ele><time>2019-08-30T12:59:40Z</time><name>PT9595</name></trkpt>
<trkpt lat="53.254036" lon="-1.774593"><ele>225</ele><time>2019-08-30T12:59:41Z</time><name>PT9596</name></trkpt>
<trkpt lat="53.254050" lon="-1.774588"><ele>224</ele><time>2019-08-30T12:59:42Z</time><name>PT9597</name></trkpt>
<trkpt lat="53.254057" lon="-1.774587"><ele>224</ele><time>2019-08-30T12:59:43Z</time><name>PT9598</name></trkpt>
<trkpt lat="53.254063" lon="-1.774578"><ele>225</ele><time>2019-08-30T12:59:44Z</time><name>PT9599</name></trkpt>
<trkpt lat="53.254070" lon="-1.774570"><ele>224</ele><time>2019-08-30T12:59:45Z</time><name>PT9600</name></trkpt>
<trkpt lat="53.254073" lon="-1.774565"><ele>223</ele><time>2019-08-30T12:59:46Z</time><name>PT9601</name></trkpt>
<trkpt lat="53.254078" lon="-1.774560"><ele>223</ele><time>2019-08-30T12:59:47Z</time><name>PT9602</name></trkpt>
<trkpt lat="53.254087" lon="-1.774559"><ele>222</ele><time>2019-08-30T12:59:48Z</time><name>PT9603</name></trkpt>
<trkpt lat="53.254090" lon="-1.774562"><ele>221</ele><time>2019-08-30T12:59:49Z</time><name>PT9604</name></trkpt>
<trkpt lat="53.254098" lon="-1.774564"><ele>220</ele><time>2019-08-30T12:59:50Z</time><name>PT9605</name></trkpt>
<trkpt lat="53.254106" lon="-1.774556"><ele>220</ele><time>2019-08-30T12:59:51Z</time><name>PT9606</name></trkpt>
<trkpt lat="53.254109" lon="-1.774552"><ele>219</ele><time>2019-08-30T12:59:52Z</time><name>PT9607</name></trkpt>
<trkpt lat="53.254117" lon="-1.774554"><ele>220</ele><time>2019-08-30T12:59:53Z</time><name>PT9608</name></trkpt>
<trkpt lat="53.254123" lon="-1.774553"><ele>219</ele><time>2019-08-30T12:59:54Z</time><name>PT9609</name></trkpt>
<trkpt lat="53.254131" lon="-1.774582"><ele>220</ele><time>2019-08-30T12:59:59Z</time><name>PT9610</name></trkpt>
<trkpt lat="53.254134" lon="-1.774579"><ele>220</ele><time>2019-08-30T13:00:00Z</time><name>PT9611</name></trkpt>
<trkpt lat="53.254139" lon="-1.774581"><ele>220</ele><time>2019-08-30T13:00:01Z</time><name>PT9612</name></trkpt>
<trkpt lat="53.254143" lon="-1.774584"><ele>219</ele><time>2019-08-30T13:00:02Z</time><name>PT9613</name></trkpt>
<trkpt lat="53.254150" lon="-1.774603"><ele>220</ele><time>2019-08-30T13:00:03Z</time><name>PT9614</name></trkpt>
<trkpt lat="53.254155" lon="-1.774615"><ele>220</ele><time>2019-08-30T13:00:04Z</time><name>PT9615</name></trkpt>
<trkpt lat="53.254159" lon="-1.774621"><ele>218</ele><time>2019-08-30T13:00:05Z</time><name>PT9616</name></trkpt>
<trkpt lat="53.254166" lon="-1.774626"><ele>219</ele><time>2019-08-30T13:00:06Z</time><name>PT9617</name></trkpt>
<trkpt lat="53.254162" lon="-1.774640"><ele>219</ele><time>2019-08-30T13:00:07Z</time><name>PT9618</name></trkpt>
<trkpt lat="53.254162" lon="-1.774649"><ele>219</ele><time>2019-08-30T13:00:08Z</time><name>PT9619</name></trkpt>
<trkpt lat="53.254168" lon="-1.774657"><ele>220</ele><time>2019-08-30T13:00:09Z</time><name>PT9620</name></trkpt>
<trkpt lat="53.254173" lon="-1.774656"><ele>220</ele><time>2019-08-30T13:00:10Z</time><name>PT9621</name></trkpt>
<trkpt lat="53.254183" lon="-1.774660"><ele>220</ele><time>2019-08-30T13:00:11Z</time><name>PT9622</name></trkpt>
<trkpt lat="53.254190" lon="-1.774662"><ele>220</ele><time>2019-08-30T13:00:12Z</time><name>PT9623</name></trkpt>
<trkpt lat="53.254195" lon="-1.774672"><ele>221</ele><time>2019-08-30T13:00:13Z</time><name>PT9624</name></trkpt>
<trkpt lat="53.254199" lon="-1.774684"><ele>221</ele><time>2019-08-30T13:00:14Z</time><name>PT9625</name></trkpt>
<trkpt lat="53.254203" lon="-1.774699"><ele>221</ele><time>2019-08-30T13:00:15Z</time><name>PT9626</name></trkpt>
<trkpt lat="53.254216" lon="-1.774719"><ele>222</ele><time>2019-08-30T13:00:16Z</time><name>PT9627</name></trkpt>
<trkpt lat="53.254228" lon="-1.774730"><ele>223</ele><time>2019-08-30T13:00:17Z</time><name>PT9628</name></trkpt>
<trkpt lat="53.254229" lon="-1.774743"><ele>223</ele><time>2019-08-30T13:00:18Z</time><name>PT9629</name></trkpt>
<trkpt lat="53.254234" lon="-1.774756"><ele>223</ele><time>2019-08-30T13:00:19Z</time><name>PT9630</name></trkpt>
<trkpt lat="53.254241" lon="-1.774771"><ele>223</ele><time>2019-08-30T13:00:20Z</time><name>PT9631</name></trkpt>
<trkpt lat="53.254244" lon="-1.774785"><ele>223</ele><time>2019-08-30T13:00:21Z</time><name>PT9632</name></trkpt>
<trkpt lat="53.254248" lon="-1.774798"><ele>223</ele><time>2019-08-30T13:00:22Z</time><name>PT9633</name></trkpt>
<trkpt lat="53.254252" lon="-1.774817"><ele>223</ele><time>2019-08-30T13:00:23Z</time><name>PT9634</name></trkpt>
<trkpt lat="53.254253" lon="-1.774830"><ele>223</ele><time>2019-08-30T13:00:24Z</time><name>PT9635</name></trkpt>
<trkpt lat="53.254258" lon="-1.774842"><ele>223</ele><time>2019-08-30T13:00:25Z</time><name>PT9636</name></trkpt>
<trkpt lat="53.254267" lon="-1.774859"><ele>223</ele><time>2019-08-30T13:00:26Z</time><name>PT9637</name></trkpt>
<trkpt lat="53.254269" lon="-1.774873"><ele>223</ele><time>2019-08-30T13:00:27Z</time><name>PT9638</name></trkpt>
<trkpt lat="53.254274" lon="-1.774886"><ele>224</ele><time>2019-08-30T13:00:28Z</time><name>PT9639</name></trkpt>
<trkpt lat="53.254278" lon="-1.774904"><ele>224</ele><time>2019-08-30T13:00:29Z</time><name>PT9640</name></trkpt>
<trkpt lat="53.254286" lon="-1.774922"><ele>224</ele><time>2019-08-30T13:00:30Z</time><name>PT9641</name></trkpt>
<trkpt lat="53.254285" lon="-1.774940"><ele>224</ele><time>2019-08-30T13:00:31Z</time><name>PT9642</name></trkpt>
<trkpt lat="53.254286" lon="-1.774956"><ele>224</ele><time>2019-08-30T13:00:32Z</time><name>PT9643</name></trkpt>
<trkpt lat="53.254290" lon="-1.774971"><ele>224</ele><time>2019-08-30T13:00:33Z</time><name>PT9644</name></trkpt>
<trkpt lat="53.254293" lon="-1.774989"><ele>223</ele><time>2019-08-30T13:00:34Z</time><name>PT9645</name></trkpt>
<trkpt lat="53.254292" lon="-1.775007"><ele>224</ele><time>2019-08-30T13:00:35Z</time><name>PT9646</name></trkpt>
<trkpt lat="53.254290" lon="-1.775027"><ele>223</ele><time>2019-08-30T13:00:36Z</time><name>PT9647</name></trkpt>
<trkpt lat="53.254296" lon="-1.775047"><ele>223</ele><time>2019-08-30T13:00:37Z</time><name>PT9648</name></trkpt>
<trkpt lat="53.254303" lon="-1.775068"><ele>223</ele><time>2019-08-30T13:00:38Z</time><name>PT9649</name></trkpt>
<trkpt lat="53.254311" lon="-1.775084"><ele>223</ele><time>2019-08-30T13:00:39Z</time><name>PT9650</name></trkpt>
<trkpt lat="53.254314" lon="-1.775098"><ele>223</ele><time>2019-08-30T13:00:40Z</time><name>PT9651</name></trkpt>
<trkpt lat="53.254317" lon="-1.775119"><ele>223</ele><time>2019-08-30T13:00:41Z</time><name>PT9652</name></trkpt>
<trkpt lat="53.254327" lon="-1.775140"><ele>224</ele><time>2019-08-30T13:00:42Z</time><name>PT9653</name></trkpt>
<trkpt lat="53.254336" lon="-1.775160"><ele>224</ele><time>2019-08-30T13:00:43Z</time><name>PT9654</name></trkpt>
<trkpt lat="53.254343" lon="-1.775172"><ele>225</ele><time>2019-08-30T13:00:44Z</time><name>PT9655</name></trkpt>
<trkpt lat="53.254347" lon="-1.775184"><ele>224</ele><time>2019-08-30T13:00:45Z</time><name>PT9656</name></trkpt>
<trkpt lat="53.254360" lon="-1.775195"><ele>225</ele><time>2019-08-30T13:00:46Z</time><name>PT9657</name></trkpt>
<trkpt lat="53.254364" lon="-1.775217"><ele>225</ele><time>2019-08-30T13:00:47Z</time><name>PT9658</name></trkpt>
<trkpt lat="53.254369" lon="-1.775233"><ele>225</ele><time>2019-08-30T13:00:48Z</time><name>PT9659</name></trkpt>
<trkpt lat="53.254373" lon="-1.775244"><ele>224</ele><time>2019-08-30T13:00:49Z</time><name>PT9660</name></trkpt>
<trkpt lat="53.254377" lon="-1.775257"><ele>224</ele><time>2019-08-30T13:00:50Z</time><name>PT9661</name></trkpt>
<trkpt lat="53.254385" lon="-1.775278"><ele>224</ele><time>2019-08-30T13:00:51Z</time><name>PT9662</name></trkpt>
<trkpt lat="53.254394" lon="-1.775292"><ele>225</ele><time>2019-08-30T13:00:52Z</time><name>PT9663</name></trkpt>
<trkpt lat="53.254393" lon="-1.775305"><ele>224</ele><time>2019-08-30T13:00:53Z</time><name>PT9664</name></trkpt>
<trkpt lat="53.254393" lon="-1.775320"><ele>223</ele><time>2019-08-30T13:00:54Z</time><name>PT9665</name></trkpt>
<trkpt lat="53.254400" lon="-1.775339"><ele>223</ele><time>2019-08-30T13:00:55Z</time><name>PT9666</name></trkpt>
<trkpt lat="53.254407" lon="-1.775354"><ele>224</ele><time>2019-08-30T13:00:56Z</time><name>PT9667</name></trkpt>
<trkpt lat="53.254411" lon="-1.775364"><ele>224</ele><time>2019-08-30T13:00:57Z</time><name>PT9668</name></trkpt>
<trkpt lat="53.254413" lon="-1.775375"><ele>223</ele><time>2019-08-30T13:00:58Z</time><name>PT9669</name></trkpt>
<trkpt lat="53.254417" lon="-1.775400"><ele>224</ele><time>2019-08-30T13:00:59Z</time><name>PT9670</name></trkpt>
<trkpt lat="53.254423" lon="-1.775416"><ele>224</ele><time>2019-08-30T13:01:00Z</time><name>PT9671</name></trkpt>
<trkpt lat="53.254424" lon="-1.775434"><ele>224</ele><time>2019-08-30T13:01:01Z</time><name>PT9672</name></trkpt>
<trkpt lat="53.254425" lon="-1.775451"><ele>223</ele><time>2019-08-30T13:01:02Z</time><name>PT9673</name></trkpt>
<trkpt lat="53.254432" lon="-1.775474"><ele>223</ele><time>2019-08-30T13:01:03Z</time><name>PT9674</name></trkpt>
<trkpt lat="53.254431" lon="-1.775494"><ele>222</ele><time>2019-08-30T13:01:04Z</time><name>PT9675</name></trkpt>
<trkpt lat="53.254427" lon="-1.775510"><ele>221</ele><time>2019-08-30T13:01:05Z</time><name>PT9676</name></trkpt>
<trkpt lat="53.254426" lon="-1.775525"><ele>221</ele><time>2019-08-30T13:01:06Z</time><name>PT9677</name></trkpt>
<trkpt lat="53.254432" lon="-1.775540"><ele>221</ele><time>2019-08-30T13:01:07Z</time><name>PT9678</name></trkpt>
<trkpt lat="53.254439" lon="-1.775558"><ele>222</ele><time>2019-08-30T13:01:08Z</time><name>PT9679</name></trkpt>
<trkpt lat="53.254438" lon="-1.775575"><ele>221</ele><time>2019-08-30T13:01:09Z</time><name>PT9680</name></trkpt>
<trkpt lat="53.254438" lon="-1.775587"><ele>221</ele><time>2019-08-30T13:01:10Z</time><name>PT9681</name></trkpt>
<trkpt lat="53.254446" lon="-1.775601"><ele>221</ele><time>2019-08-30T13:01:11Z</time><name>PT9682</name></trkpt>
<trkpt lat="53.254456" lon="-1.775616"><ele>221</ele><time>2019-08-30T13:01:12Z</time><name>PT9683</name></trkpt>
<trkpt lat="53.254459" lon="-1.775631"><ele>221</ele><time>2019-08-30T13:01:13Z</time><name>PT9684</name></trkpt>
<trkpt lat="53.254458" lon="-1.775644"><ele>220</ele><time>2019-08-30T13:01:14Z</time><name>PT9685</name></trkpt>
<trkpt lat="53.254458" lon="-1.775651"><ele>219</ele><time>2019-08-30T13:01:15Z</time><name>PT9686</name></trkpt>
<trkpt lat="53.254469" lon="-1.775660"><ele>219</ele><time>2019-08-30T13:01:16Z</time><name>PT9687</name></trkpt>
<trkpt lat="53.254473" lon="-1.775671"><ele>220</ele><time>2019-08-30T13:01:17Z</time><name>PT9688</name></trkpt>
<trkpt lat="53.254478" lon="-1.775681"><ele>220</ele><time>2019-08-30T13:01:18Z</time><name>PT9689</name></trkpt>
<trkpt lat="53.254485" lon="-1.775698"><ele>221</ele><time>2019-08-30T13:01:19Z</time><name>PT9690</name></trkpt>
<trkpt lat="53.254497" lon="-1.775712"><ele>221</ele><time>2019-08-30T13:01:20Z</time><name>PT9691</name></trkpt>
<trkpt lat="53.254502" lon="-1.775732"><ele>221</ele><time>2019-08-30T13:01:21Z</time><name>PT9692</name></trkpt>
<trkpt lat="53.254512" lon="-1.775740"><ele>220</ele><time>2019-08-30T13:01:22Z</time><name>PT9693</name></trkpt>
<trkpt lat="53.254518" lon="-1.775751"><ele>218</ele><time>2019-08-30T13:01:23Z</time><name>PT9694</name></trkpt>
<trkpt lat="53.254527" lon="-1.775766"><ele>217</ele><time>2019-08-30T13:01:24Z</time><name>PT9695</name></trkpt>
<trkpt lat="53.254538" lon="-1.775778"><ele>217</ele><time>2019-08-30T13:01:25Z</time><name>PT9696</name></trkpt>
<trkpt lat="53.254549" lon="-1.775783"><ele>216</ele><time>2019-08-30T13:01:26Z</time><name>PT9697</name></trkpt>
<trkpt lat="53.254557" lon="-1.775789"><ele>216</ele><time>2019-08-30T13:01:27Z</time><name>PT9698</name></trkpt>
<trkpt lat="53.254560" lon="-1.775801"><ele>215</ele><time>2019-08-30T13:01:28Z</time><name>PT9699</name></trkpt>
<trkpt lat="53.254578" lon="-1.775819"><ele>216</ele><time>2019-08-30T13:01:29Z</time><name>PT9700</name></trkpt>
<trkpt lat="53.254589" lon="-1.775839"><ele>217</ele><time>2019-08-30T13:01:30Z</time><name>PT9701</name></trkpt>
<trkpt lat="53.254593" lon="-1.775849"><ele>216</ele><time>2019-08-30T13:01:31Z</time><name>PT9702</name></trkpt>
<trkpt lat="53.254597" lon="-1.775865"><ele>216</ele><time>2019-08-30T13:01:32Z</time><name>PT9703</name></trkpt>
<trkpt lat="53.254613" lon="-1.775877"><ele>216</ele><time>2019-08-30T13:01:33Z</time><name>PT9704</name></trkpt>
<trkpt lat="53.254623" lon="-1.775895"><ele>216</ele><time>2019-08-30T13:01:34Z</time><name>PT9705</name></trkpt>
<trkpt lat="53.254630" lon="-1.775906"><ele>216</ele><time>2019-08-30T13:01:35Z</time><name>PT9706</name></trkpt>
<trkpt lat="53.254630" lon="-1.775919"><ele>216</ele><time>2019-08-30T13:01:36Z</time><name>PT9707</name></trkpt>
<trkpt lat="53.254634" lon="-1.775934"><ele>215</ele><time>2019-08-30T13:01:37Z</time><name>PT9708</name></trkpt>
<trkpt lat="53.254642" lon="-1.775951"><ele>215</ele><time>2019-08-30T13:01:38Z</time><name>PT9709</name></trkpt>
<trkpt lat="53.254653" lon="-1.775972"><ele>217</ele><time>2019-08-30T13:01:39Z</time><name>PT9710</name></trkpt>
<trkpt lat="53.254646" lon="-1.775990"><ele>217</ele><time>2019-08-30T13:01:40Z</time><name>PT9711</name></trkpt>
<trkpt lat="53.254641" lon="-1.776023"><ele>216</ele><time>2019-08-30T13:01:41Z</time><name>PT9712</name></trkpt>
<trkpt lat="53.254651" lon="-1.776035"><ele>216</ele><time>2019-08-30T13:01:42Z</time><name>PT9713</name></trkpt>
<trkpt lat="53.254659" lon="-1.776050"><ele>216</ele><time>2019-08-30T13:01:43Z</time><name>PT9714</name></trkpt>
<trkpt lat="53.254658" lon="-1.776066"><ele>216</ele><time>2019-08-30T13:01:44Z</time><name>PT9715</name></trkpt>
<trkpt lat="53.254656" lon="-1.776086"><ele>215</ele><time>2019-08-30T13:01:45Z</time><name>PT9716</name></trkpt>
<trkpt lat="53.254659" lon="-1.776109"><ele>215</ele><time>2019-08-30T13:01:46Z</time><name>PT9717</name></trkpt>
<trkpt lat="53.254665" lon="-1.776136"><ele>216</ele><time>2019-08-30T13:01:47Z</time><name>PT9718</name></trkpt>
<trkpt lat="53.254679" lon="-1.776164"><ele>218</ele><time>2019-08-30T13:01:48Z</time><name>PT9719</name></trkpt>
<trkpt lat="53.254680" lon="-1.776183"><ele>218</ele><time>2019-08-30T13:01:49Z</time><name>PT9720</name></trkpt>
<trkpt lat="53.254688" lon="-1.776198"><ele>218</ele><time>2019-08-30T13:01:50Z</time><name>PT9721</name></trkpt>
<trkpt lat="53.254709" lon="-1.776218"><ele>219</ele><time>2019-08-30T13:01:51Z</time><name>PT9722</name></trkpt>
<trkpt lat="53.254719" lon="-1.776240"><ele>219</ele><time>2019-08-30T13:01:52Z</time><name>PT9723</name></trkpt>
<trkpt lat="53.254725" lon="-1.776260"><ele>220</ele><time>2019-08-30T13:01:53Z</time><name>PT9724</name></trkpt>
<trkpt lat="53.254735" lon="-1.776283"><ele>220</ele><time>2019-08-30T13:01:54Z</time><name>PT9725</name></trkpt>
<trkpt lat="53.254753" lon="-1.776304"><ele>222</ele><time>2019-08-30T13:01:55Z</time><name>PT9726</name></trkpt>
<trkpt lat="53.254764" lon="-1.776329"><ele>222</ele><time>2019-08-30T13:01:56Z</time><name>PT9727</name></trkpt>
<trkpt lat="53.254775" lon="-1.776346"><ele>223</ele><time>2019-08-30T13:01:57Z</time><name>PT9728</name></trkpt>
<trkpt lat="53.254783" lon="-1.776356"><ele>223</ele><time>2019-08-30T13:01:58Z</time><name>PT9729</name></trkpt>
<trkpt lat="53.254787" lon="-1.776375"><ele>223</ele><time>2019-08-30T13:01:59Z</time><name>PT9730</name></trkpt>
<trkpt lat="53.254793" lon="-1.776395"><ele>225</ele><time>2019-08-30T13:02:00Z</time><name>PT9731</name></trkpt>
<trkpt lat="53.254801" lon="-1.776414"><ele>225</ele><time>2019-08-30T13:02:01Z</time><name>PT9732</name></trkpt>
<trkpt lat="53.254811" lon="-1.776430"><ele>225</ele><time>2019-08-30T13:02:02Z</time><name>PT9733</name></trkpt>
<trkpt lat="53.254812" lon="-1.776446"><ele>224</ele><time>2019-08-30T13:02:03Z</time><name>PT9734</name></trkpt>
<trkpt lat="53.254816" lon="-1.776465"><ele>224</ele><time>2019-08-30T13:02:04Z</time><name>PT9735</name></trkpt>
<trkpt lat="53.254826" lon="-1.776487"><ele>224</ele><time>2019-08-30T13:02:05Z</time><name>PT9736</name></trkpt>
<trkpt lat="53.254830" lon="-1.776520"><ele>224</ele><time>2019-08-30T13:02:06Z</time><name>PT9737</name></trkpt>
<trkpt lat="53.254835" lon="-1.776536"><ele>224</ele><time>2019-08-30T13:02:07Z</time><name>PT9738</name></trkpt>
<trkpt lat="53.254842" lon="-1.776549"><ele>224</ele><time>2019-08-30T13:02:08Z</time><name>PT9739</name></trkpt>
<trkpt lat="53.254851" lon="-1.776565"><ele>224</ele><time>2019-08-30T13:02:09Z</time><name>PT9740</name></trkpt>
<trkpt lat="53.254857" lon="-1.776589"><ele>225</ele><time>2019-08-30T13:02:10Z</time><name>PT9741</name></trkpt>
<trkpt lat="53.254862" lon="-1.776613"><ele>224</ele><time>2019-08-30T13:02:11Z</time><name>PT9742</name></trkpt>
<trkpt lat="53.254871" lon="-1.776629"><ele>225</ele><time>2019-08-30T13:02:12Z</time><name>PT9743</name></trkpt>
<trkpt lat="53.254879" lon="-1.776633"><ele>223</ele><time>2019-08-30T13:02:13Z</time><name>PT9744</name></trkpt>
<trkpt lat="53.254887" lon="-1.776647"><ele>223</ele><time>2019-08-30T13:02:14Z</time><name>PT9745</name></trkpt>
<trkpt lat="53.254898" lon="-1.776660"><ele>222</ele><time>2019-08-30T13:02:15Z</time><name>PT9746</name></trkpt>
<trkpt lat="53.254908" lon="-1.776681"><ele>221</ele><time>2019-08-30T13:02:16Z</time><name>PT9747</name></trkpt>
<trkpt lat="53.254912" lon="-1.776703"><ele>221</ele><time>2019-08-30T13:02:17Z</time><name>PT9748</name></trkpt>
<trkpt lat="53.254924" lon="-1.776709"><ele>220</ele><time>2019-08-30T13:02:18Z</time><name>PT9749</name></trkpt>
<trkpt lat="53.254932" lon="-1.776720"><ele>220</ele><time>2019-08-30T13:02:19Z</time><name>PT9750</name></trkpt>
<trkpt lat="53.254948" lon="-1.776736"><ele>221</ele><time>2019-08-30T13:02:20Z</time><name>PT9751</name></trkpt>
<trkpt lat="53.254957" lon="-1.776759"><ele>220</ele><time>2019-08-30T13:02:21Z</time><name>PT9752</name></trkpt>
<trkpt lat="53.254965" lon="-1.776775"><ele>220</ele><time>2019-08-30T13:02:22Z</time><name>PT9753</name></trkpt>
<trkpt lat="53.254973" lon="-1.776788"><ele>220</ele><time>2019-08-30T13:02:23Z</time><name>PT9754</name></trkpt>
<trkpt lat="53.254978" lon="-1.776803"><ele>220</ele><time>2019-08-30T13:02:24Z</time><name>PT9755</name></trkpt>
<trkpt lat="53.254997" lon="-1.776818"><ele>220</ele><time>2019-08-30T13:02:25Z</time><name>PT9756</name></trkpt>
<trkpt lat="53.254998" lon="-1.776842"><ele>219</ele><time>2019-08-30T13:02:26Z</time><name>PT9757</name></trkpt>
<trkpt lat="53.254995" lon="-1.776861"><ele>219</ele><time>2019-08-30T13:02:27Z</time><name>PT9758</name></trkpt>
<trkpt lat="53.254994" lon="-1.776880"><ele>218</ele><time>2019-08-30T13:02:28Z</time><name>PT9759</name></trkpt>
<trkpt lat="53.255000" lon="-1.776898"><ele>218</ele><time>2019-08-30T13:02:29Z</time><name>PT9760</name></trkpt>
<trkpt lat="53.255002" lon="-1.776919"><ele>218</ele><time>2019-08-30T13:02:30Z</time><name>PT9761</name></trkpt>
<trkpt lat="53.255003" lon="-1.776937"><ele>217</ele><time>2019-08-30T13:02:31Z</time><name>PT9762</name></trkpt>
<trkpt lat="53.254994" lon="-1.776959"><ele>216</ele><time>2019-08-30T13:02:32Z</time><name>PT9763</name></trkpt>
<trkpt lat="53.254990" lon="-1.776977"><ele>216</ele><time>2019-08-30T13:02:33Z</time><name>PT9764</name></trkpt>
<trkpt lat="53.254989" lon="-1.776998"><ele>216</ele><time>2019-08-30T13:02:34Z</time><name>PT9765</name></trkpt>
<trkpt lat="53.254999" lon="-1.777025"><ele>217</ele><time>2019-08-30T13:02:35Z</time><name>PT9766</name></trkpt>
<trkpt lat="53.255007" lon="-1.777039"><ele>217</ele><time>2019-08-30T13:02:36Z</time><name>PT9767</name></trkpt>
<trkpt lat="53.255001" lon="-1.777058"><ele>215</ele><time>2019-08-30T13:02:37Z</time><name>PT9768</name></trkpt>
<trkpt lat="53.255005" lon="-1.777077"><ele>216</ele><time>2019-08-30T13:02:38Z</time><name>PT9769</name></trkpt>
<trkpt lat="53.255017" lon="-1.777095"><ele>216</ele><time>2019-08-30T13:02:39Z</time><name>PT9770</name></trkpt>
<trkpt lat="53.255025" lon="-1.777119"><ele>216</ele><time>2019-08-30T13:02:40Z</time><name>PT9771</name></trkpt>
<trkpt lat="53.255022" lon="-1.777135"><ele>215</ele><time>2019-08-30T13:02:41Z</time><name>PT9772</name></trkpt>
<trkpt lat="53.255024" lon="-1.777140"><ele>214</ele><time>2019-08-30T13:02:42Z</time><name>PT9773</name></trkpt>
<trkpt lat="53.255030" lon="-1.777152"><ele>214</ele><time>2019-08-30T13:02:43Z</time><name>PT9774</name></trkpt>
<trkpt lat="53.255032" lon="-1.777169"><ele>213</ele><time>2019-08-30T13:02:44Z</time><name>PT9775</name></trkpt>
<trkpt lat="53.255037" lon="-1.777192"><ele>213</ele><time>2019-08-30T13:02:45Z</time><name>PT9776</name></trkpt>
<trkpt lat="53.255058" lon="-1.777206"><ele>215</ele><time>2019-08-30T13:02:46Z</time><name>PT9777</name></trkpt>
<trkpt lat="53.255069" lon="-1.777217"><ele>215</ele><time>2019-08-30T13:02:47Z</time><name>PT9778</name></trkpt>
<trkpt lat="53.255068" lon="-1.777232"><ele>215</ele><time>2019-08-30T13:02:48Z</time><name>PT9779</name></trkpt>
<trkpt lat="53.255072" lon="-1.777247"><ele>215</ele><time>2019-08-30T13:02:49Z</time><name>PT9780</name></trkpt>
<trkpt lat="53.255084" lon="-1.777265"><ele>215</ele><time>2019-08-30T13:02:50Z</time><name>PT9781</name></trkpt>
<trkpt lat="53.255096" lon="-1.777271"><ele>214</ele><time>2019-08-30T13:02:51Z</time><name>PT9782</name></trkpt>
<trkpt lat="53.255101" lon="-1.777283"><ele>214</ele><time>2019-08-30T13:02:52Z</time><name>PT9783</name></trkpt>
<trkpt lat="53.255106" lon="-1.777297"><ele>214</ele><time>2019-08-30T13:02:53Z</time><name>PT9784</name></trkpt>
<trkpt lat="53.255112" lon="-1.777324"><ele>214</ele><time>2019-08-30T13:02:54Z</time><name>PT9785</name></trkpt>
<trkpt lat="53.255123" lon="-1.777346"><ele>215</ele><time>2019-08-30T13:02:55Z</time><name>PT9786</name></trkpt>
<trkpt lat="53.255130" lon="-1.777369"><ele>216</ele><time>2019-08-30T13:02:56Z</time><name>PT9787</name></trkpt>
<trkpt lat="53.255133" lon="-1.777383"><ele>216</ele><time>2019-08-30T13:02:57Z</time><name>PT9788</name></trkpt>
<trkpt lat="53.255141" lon="-1.777399"><ele>216</ele><time>2019-08-30T13:02:58Z</time><name>PT9789</name></trkpt>
<trkpt lat="53.255153" lon="-1.777415"><ele>216</ele><time>2019-08-30T13:02:59Z</time><name>PT9790</name></trkpt>
<trkpt lat="53.255170" lon="-1.777438"><ele>217</ele><time>2019-08-30T13:03:00Z</time><name>PT9791</name></trkpt>
<trkpt lat="53.255180" lon="-1.777460"><ele>218</ele><time>2019-08-30T13:03:01Z</time><name>PT9792</name></trkpt>
<trkpt lat="53.255188" lon="-1.777472"><ele>218</ele><time>2019-08-30T13:03:02Z</time><name>PT9793</name></trkpt>
<trkpt lat="53.255194" lon="-1.777489"><ele>218</ele><time>2019-08-30T13:03:03Z</time><name>PT9794</name></trkpt>
<trkpt lat="53.255199" lon="-1.777506"><ele>218</ele><time>2019-08-30T13:03:04Z</time><name>PT9795</name></trkpt>
<trkpt lat="53.255203" lon="-1.777533"><ele>218</ele><time>2019-08-30T13:03:05Z</time><name>PT9796</name></trkpt>
<trkpt lat="53.255209" lon="-1.777553"><ele>219</ele><time>2019-08-30T13:03:06Z</time><name>PT9797</name></trkpt>
<trkpt lat="53.255219" lon="-1.777564"><ele>219</ele><time>2019-08-30T13:03:07Z</time><name>PT9798</name></trkpt>
<trkpt lat="53.255225" lon="-1.777572"><ele>218</ele><time>2019-08-30T13:03:08Z</time><name>PT9799</name></trkpt>
<trkpt lat="53.255232" lon="-1.777585"><ele>218</ele><time>2019-08-30T13:03:09Z</time><name>PT9800</name></trkpt>
<trkpt lat="53.255240" lon="-1.777606"><ele>218</ele><time>2019-08-30T13:03:10Z</time><name>PT9801</name></trkpt>
<trkpt lat="53.255248" lon="-1.777627"><ele>218</ele><time>2019-08-30T13:03:11Z</time><name>PT9802</name></trkpt>
<trkpt lat="53.255251" lon="-1.777642"><ele>218</ele><time>2019-08-30T13:03:12Z</time><name>PT9803</name></trkpt>
<trkpt lat="53.255256" lon="-1.777652"><ele>218</ele><time>2019-08-30T13:03:13Z</time><name>PT9804</name></trkpt>
<trkpt lat="53.255262" lon="-1.777669"><ele>217</ele><time>2019-08-30T13:03:14Z</time><name>PT9805</name></trkpt>
<trkpt lat="53.255263" lon="-1.777697"><ele>218</ele><time>2019-08-30T13:03:15Z</time><name>PT9806</name></trkpt>
<trkpt lat="53.255266" lon="-1.777726"><ele>219</ele><time>2019-08-30T13:03:16Z</time><name>PT9807</name></trkpt>
<trkpt lat="53.255273" lon="-1.777745"><ele>220</ele><time>2019-08-30T13:03:17Z</time><name>PT9808</name></trkpt>
<trkpt lat="53.255279" lon="-1.777756"><ele>220</ele><time>2019-08-30T13:03:18Z</time><name>PT9809</name></trkpt>
<trkpt lat="53.255284" lon="-1.777772"><ele>219</ele><time>2019-08-30T13:03:19Z</time><name>PT9810</name></trkpt>
<trkpt lat="53.255315" lon="-1.777778"><ele>221</ele><time>2019-08-30T13:03:20Z</time><name>PT9811</name></trkpt>
<trkpt lat="53.255325" lon="-1.777801"><ele>220</ele><time>2019-08-30T13:03:21Z</time><name>PT9812</name></trkpt>
<trkpt lat="53.255331" lon="-1.777819"><ele>221</ele><time>2019-08-30T13:03:22Z</time><name>PT9813</name></trkpt>
<trkpt lat="53.255334" lon="-1.777835"><ele>221</ele><time>2019-08-30T13:03:23Z</time><name>PT9814</name></trkpt>
<trkpt lat="53.255338" lon="-1.777854"><ele>220</ele><time>2019-08-30T13:03:24Z</time><name>PT9815</name></trkpt>
<trkpt lat="53.255343" lon="-1.777871"><ele>220</ele><time>2019-08-30T13:03:25Z</time><name>PT9816</name></trkpt>
<trkpt lat="53.255354" lon="-1.777893"><ele>220</ele><time>2019-08-30T13:03:26Z</time><name>PT9817</name></trkpt>
<trkpt lat="53.255363" lon="-1.777912"><ele>220</ele><time>2019-08-30T13:03:27Z</time><name>PT9818</name></trkpt>
<trkpt lat="53.255366" lon="-1.777929"><ele>220</ele><time>2019-08-30T13:03:28Z</time><name>PT9819</name></trkpt>
<trkpt lat="53.255370" lon="-1.777946"><ele>220</ele><time>2019-08-30T13:03:29Z</time><name>PT9820</name></trkpt>
<trkpt lat="53.255373" lon="-1.777961"><ele>219</ele><time>2019-08-30T13:03:30Z</time><name>PT9821</name></trkpt>
<trkpt lat="53.255383" lon="-1.777983"><ele>220</ele><time>2019-08-30T13:03:31Z</time><name>PT9822</name></trkpt>
<trkpt lat="53.255395" lon="-1.778007"><ele>220</ele><time>2019-08-30T13:03:32Z</time><name>PT9823</name></trkpt>
<trkpt lat="53.255404" lon="-1.778022"><ele>221</ele><time>2019-08-30T13:03:33Z</time><name>PT9824</name></trkpt>
<trkpt lat="53.255411" lon="-1.778036"><ele>221</ele><time>2019-08-30T13:03:34Z</time><name>PT9825</name></trkpt>
<trkpt lat="53.255420" lon="-1.778051"><ele>221</ele><time>2019-08-30T13:03:35Z</time><name>PT9826</name></trkpt>
<trkpt lat="53.255429" lon="-1.778070"><ele>220</ele><time>2019-08-30T13:03:36Z</time><name>PT9827</name></trkpt>
<trkpt lat="53.255438" lon="-1.778092"><ele>220</ele><time>2019-08-30T13:03:37Z</time><name>PT9828</name></trkpt>
<trkpt lat="53.255446" lon="-1.778115"><ele>221</ele><time>2019-08-30T13:03:38Z</time><name>PT9829</name></trkpt>
<trkpt lat="53.255449" lon="-1.778134"><ele>221</ele><time>2019-08-30T13:03:39Z</time><name>PT9830</name></trkpt>
<trkpt lat="53.255453" lon="-1.778154"><ele>220</ele><time>2019-08-30T13:03:40Z</time><name>PT9831</name></trkpt>
<trkpt lat="53.255455" lon="-1.778169"><ele>220</ele><time>2019-08-30T13:03:41Z</time><name>PT9832</name></trkpt>
<trkpt lat="53.255457" lon="-1.778194"><ele>220</ele><time>2019-08-30T13:03:42Z</time><name>PT9833</name></trkpt>
<trkpt lat="53.255462" lon="-1.778221"><ele>220</ele><time>2019-08-30T13:03:43Z</time><name>PT9834</name></trkpt>
<trkpt lat="53.255453" lon="-1.778239"><ele>218</ele><time>2019-08-30T13:03:44Z</time><name>PT9835</name></trkpt>
<trkpt lat="53.255451" lon="-1.778252"><ele>217</ele><time>2019-08-30T13:03:45Z</time><name>PT9836</name></trkpt>
<trkpt lat="53.255454" lon="-1.778271"><ele>217</ele><time>2019-08-30T13:03:46Z</time><name>PT9837</name></trkpt>
<trkpt lat="53.255458" lon="-1.778293"><ele>217</ele><time>2019-08-30T13:03:47Z</time><name>PT9838</name></trkpt>
<trkpt lat="53.255465" lon="-1.778321"><ele>217</ele><time>2019-08-30T13:03:48Z</time><name>PT9839</name></trkpt>
<trkpt lat="53.255471" lon="-1.778345"><ele>217</ele><time>2019-08-30T13:03:49Z</time><name>PT9840</name></trkpt>
<trkpt lat="53.255485" lon="-1.778356"><ele>218</ele><time>2019-08-30T13:03:50Z</time><name>PT9841</name></trkpt>
<trkpt lat="53.255493" lon="-1.778369"><ele>218</ele><time>2019-08-30T13:03:51Z</time><name>PT9842</name></trkpt>
<trkpt lat="53.255495" lon="-1.778390"><ele>219</ele><time>2019-08-30T13:03:52Z</time><name>PT9843</name></trkpt>
<trkpt lat="53.255499" lon="-1.778418"><ele>219</ele><time>2019-08-30T13:03:53Z</time><name>PT9844</name></trkpt>
<trkpt lat="53.255506" lon="-1.778442"><ele>220</ele><time>2019-08-30T13:03:54Z</time><name>PT9845</name></trkpt>
<trkpt lat="53.255499" lon="-1.778463"><ele>219</ele><time>2019-08-30T13:03:55Z</time><name>PT9846</name></trkpt>
<trkpt lat="53.255501" lon="-1.778480"><ele>218</ele><time>2019-08-30T13:03:56Z</time><name>PT9847</name></trkpt>
<trkpt lat="53.255506" lon="-1.778499"><ele>218</ele><time>2019-08-30T13:03:57Z</time><name>PT9848</name></trkpt>
<trkpt lat="53.255500" lon="-1.778527"><ele>218</ele><time>2019-08-30T13:03:58Z</time><name>PT9849</name></trkpt>
<trkpt lat="53.255501" lon="-1.778549"><ele>219</ele><time>2019-08-30T13:03:59Z</time><name>PT9850</name></trkpt>
<trkpt lat="53.255508" lon="-1.778563"><ele>219</ele><time>2019-08-30T13:04:00Z</time><name>PT9851</name></trkpt>
<trkpt lat="53.255513" lon="-1.778579"><ele>218</ele><time>2019-08-30T13:04:01Z</time><name>PT9852</name></trkpt>
<trkpt lat="53.255525" lon="-1.778592"><ele>218</ele><time>2019-08-30T13:04:02Z</time><name>PT9853</name></trkpt>
<trkpt lat="53.255537" lon="-1.778612"><ele>218</ele><time>2019-08-30T13:04:03Z</time><name>PT9854</name></trkpt>
<trkpt lat="53.255537" lon="-1.778633"><ele>218</ele><time>2019-08-30T13:04:04Z</time><name>PT9855</name></trkpt>
<trkpt lat="53.255539" lon="-1.778644"><ele>218</ele><time>2019-08-30T13:04:05Z</time><name>PT9856</name></trkpt>
<trkpt lat="53.255540" lon="-1.778658"><ele>217</ele><time>2019-08-30T13:04:06Z</time><name>PT9857</name></trkpt>
<trkpt lat="53.255542" lon="-1.778676"><ele>217</ele><time>2019-08-30T13:04:07Z</time><name>PT9858</name></trkpt>
<trkpt lat="53.255549" lon="-1.778691"><ele>217</ele><time>2019-08-30T13:04:08Z</time><name>PT9859</name></trkpt>
<trkpt lat="53.255554" lon="-1.778710"><ele>217</ele><time>2019-08-30T13:04:09Z</time><name>PT9860</name></trkpt>
<trkpt lat="53.255558" lon="-1.778731"><ele>218</ele><time>2019-08-30T13:04:10Z</time><name>PT9861</name></trkpt>
<trkpt lat="53.255562" lon="-1.778750"><ele>218</ele><time>2019-08-30T13:04:11Z</time><name>PT9862</name></trkpt>
<trkpt lat="53.255578" lon="-1.778766"><ele>218</ele><time>2019-08-30T13:04:12Z</time><name>PT9863</name></trkpt>
<trkpt lat="53.255590" lon="-1.778787"><ele>218</ele><time>2019-08-30T13:04:13Z</time><name>PT9864</name></trkpt>
<trkpt lat="53.255598" lon="-1.778811"><ele>219</ele><time>2019-08-30T13:04:14Z</time><name>PT9865</name></trkpt>
<trkpt lat="53.255602" lon="-1.778826"><ele>220</ele><time>2019-08-30T13:04:15Z</time><name>PT9866</name></trkpt>
<trkpt lat="53.255608" lon="-1.778839"><ele>220</ele><time>2019-08-30T13:04:16Z</time><name>PT9867</name></trkpt>
<trkpt lat="53.255617" lon="-1.778854"><ele>220</ele><time>2019-08-30T13:04:17Z</time><name>PT9868</name></trkpt>
<trkpt lat="53.255618" lon="-1.778877"><ele>220</ele><time>2019-08-30T13:04:18Z</time><name>PT9869</name></trkpt>
<trkpt lat="53.255624" lon="-1.778898"><ele>220</ele><time>2019-08-30T13:04:19Z</time><name>PT9870</name></trkpt>
<trkpt lat="53.255630" lon="-1.778923"><ele>222</ele><time>2019-08-30T13:04:20Z</time><name>PT9871</name></trkpt>
<trkpt lat="53.255634" lon="-1.778942"><ele>221</ele><time>2019-08-30T13:04:21Z</time><name>PT9872</name></trkpt>
<trkpt lat="53.255642" lon="-1.778956"><ele>221</ele><time>2019-08-30T13:04:22Z</time><name>PT9873</name></trkpt>
<trkpt lat="53.255644" lon="-1.778983"><ele>222</ele><time>2019-08-30T13:04:23Z</time><name>PT9874</name></trkpt>
<trkpt lat="53.255643" lon="-1.779012"><ele>222</ele><time>2019-08-30T13:04:24Z</time><name>PT9875</name></trkpt>
<trkpt lat="53.255649" lon="-1.779023"><ele>222</ele><time>2019-08-30T13:04:25Z</time><name>PT9876</name></trkpt>
<trkpt lat="53.255651" lon="-1.779039"><ele>221</ele><time>2019-08-30T13:04:26Z</time><name>PT9877</name></trkpt>
<trkpt lat="53.255658" lon="-1.779053"><ele>221</ele><time>2019-08-30T13:04:27Z</time><name>PT9878</name></trkpt>
<trkpt lat="53.255665" lon="-1.779076"><ele>222</ele><time>2019-08-30T13:04:28Z</time><name>PT9879</name></trkpt>
<trkpt lat="53.255677" lon="-1.779094"><ele>222</ele><time>2019-08-30T13:04:29Z</time><name>PT9880</name></trkpt>
<trkpt lat="53.255682" lon="-1.779109"><ele>222</ele><time>2019-08-30T13:04:30Z</time><name>PT9881</name></trkpt>
<trkpt lat="53.255686" lon="-1.779121"><ele>221</ele><time>2019-08-30T13:04:31Z</time><name>PT9882</name></trkpt>
<trkpt lat="53.255688" lon="-1.779138"><ele>221</ele><time>2019-08-30T13:04:32Z</time><name>PT9883</name></trkpt>
<trkpt lat="53.255696" lon="-1.779158"><ele>221</ele><time>2019-08-30T13:04:33Z</time><name>PT9884</name></trkpt>
<trkpt lat="53.255706" lon="-1.779183"><ele>222</ele><time>2019-08-30T13:04:34Z</time><name>PT9885</name></trkpt>
<trkpt lat="53.255701" lon="-1.779201"><ele>221</ele><time>2019-08-30T13:04:35Z</time><name>PT9886</name></trkpt>
<trkpt lat="53.255704" lon="-1.779210"><ele>221</ele><time>2019-08-30T13:04:36Z</time><name>PT9887</name></trkpt>
<trkpt lat="53.255712" lon="-1.779219"><ele>220</ele><time>2019-08-30T13:04:37Z</time><name>PT9888</name></trkpt>
<trkpt lat="53.255718" lon="-1.779238"><ele>220</ele><time>2019-08-30T13:04:38Z</time><name>PT9889</name></trkpt>
<trkpt lat="53.255721" lon="-1.779264"><ele>220</ele><time>2019-08-30T13:04:39Z</time><name>PT9890</name></trkpt>
<trkpt lat="53.255728" lon="-1.779285"><ele>220</ele><time>2019-08-30T13:04:40Z</time><name>PT9891</name></trkpt>
<trkpt lat="53.255729" lon="-1.779309"><ele>221</ele><time>2019-08-30T13:04:41Z</time><name>PT9892</name></trkpt>
<trkpt lat="53.255735" lon="-1.779325"><ele>221</ele><time>2019-08-30T13:04:42Z</time><name>PT9893</name></trkpt>
<trkpt lat="53.255744" lon="-1.779341"><ele>221</ele><time>2019-08-30T13:04:43Z</time><name>PT9894</name></trkpt>
<trkpt lat="53.255747" lon="-1.779371"><ele>225</ele><time>2019-08-30T13:04:44Z</time><name>PT9895</name></trkpt>
<trkpt lat="53.255747" lon="-1.779386"><ele>225</ele><time>2019-08-30T13:04:45Z</time><name>PT9896</name></trkpt>
<trkpt lat="53.255750" lon="-1.779402"><ele>225</ele><time>2019-08-30T13:04:46Z</time><name>PT9897</name></trkpt>
<trkpt lat="53.255754" lon="-1.779423"><ele>225</ele><time>2019-08-30T13:04:47Z</time><name>PT9898</name></trkpt>
<trkpt lat="53.255757" lon="-1.779443"><ele>225</ele><time>2019-08-30T13:04:48Z</time><name>PT9899</name></trkpt>
<trkpt lat="53.255764" lon="-1.779464"><ele>226</ele><time>2019-08-30T13:04:49Z</time><name>PT9900</name></trkpt>
<trkpt lat="53.255765" lon="-1.779483"><ele>227</ele><time>2019-08-30T13:04:50Z</time><name>PT9901</name></trkpt>
<trkpt lat="53.255760" lon="-1.779501"><ele>226</ele><time>2019-08-30T13:04:51Z</time><name>PT9902</name></trkpt>
<trkpt lat="53.255764" lon="-1.779516"><ele>226</ele><time>2019-08-30T13:04:52Z</time><name>PT9903</name></trkpt>
<trkpt lat="53.255766" lon="-1.779541"><ele>226</ele><time>2019-08-30T13:04:53Z</time><name>PT9904</name></trkpt>
<trkpt lat="53.255775" lon="-1.779566"><ele>226</ele><time>2019-08-30T13:04:54Z</time><name>PT9905</name></trkpt>
<trkpt lat="53.255773" lon="-1.779584"><ele>226</ele><time>2019-08-30T13:04:55Z</time><name>PT9906</name></trkpt>
<trkpt lat="53.255779" lon="-1.779594"><ele>225</ele><time>2019-08-30T13:04:56Z</time><name>PT9907</name></trkpt>
<trkpt lat="53.255787" lon="-1.779609"><ele>224</ele><time>2019-08-30T13:04:57Z</time><name>PT9908</name></trkpt>
<trkpt lat="53.255790" lon="-1.779630"><ele>223</ele><time>2019-08-30T13:04:58Z</time><name>PT9909</name></trkpt>
<trkpt lat="53.255780" lon="-1.779656"><ele>223</ele><time>2019-08-30T13:04:59Z</time><name>PT9910</name></trkpt>
<trkpt lat="53.255787" lon="-1.779662"><ele>223</ele><time>2019-08-30T13:05:00Z</time><name>PT9911</name></trkpt>
<trkpt lat="53.255783" lon="-1.779675"><ele>221</ele><time>2019-08-30T13:05:01Z</time><name>PT9912</name></trkpt>
<trkpt lat="53.255783" lon="-1.779691"><ele>221</ele><time>2019-08-30T13:05:02Z</time><name>PT9913</name></trkpt>
<trkpt lat="53.255787" lon="-1.779710"><ele>221</ele><time>2019-08-30T13:05:03Z</time><name>PT9914</name></trkpt>
<trkpt lat="53.255789" lon="-1.779724"><ele>220</ele><time>2019-08-30T13:05:04Z</time><name>PT9915</name></trkpt>
<trkpt lat="53.255795" lon="-1.779734"><ele>220</ele><time>2019-08-30T13:05:05Z</time><name>PT9916</name></trkpt>
<trkpt lat="53.255798" lon="-1.779747"><ele>219</ele><time>2019-08-30T13:05:06Z</time><name>PT9917</name></trkpt>
<trkpt lat="53.255807" lon="-1.779763"><ele>218</ele><time>2019-08-30T13:05:07Z</time><name>PT9918</name></trkpt>
<trkpt lat="53.255810" lon="-1.779792"><ele>218</ele><time>2019-08-30T13:05:08Z</time><name>PT9919</name></trkpt>
<trkpt lat="53.255798" lon="-1.779807"><ele>218</ele><time>2019-08-30T13:05:09Z</time><name>PT9920</name></trkpt>
<trkpt lat="53.255809" lon="-1.779818"><ele>218</ele><time>2019-08-30T13:05:10Z</time><name>PT9921</name></trkpt>
<trkpt lat="53.255816" lon="-1.779837"><ele>219</ele><time>2019-08-30T13:05:11Z</time><name>PT9922</name></trkpt>
<trkpt lat="53.255820" lon="-1.779857"><ele>219</ele><time>2019-08-30T13:05:12Z</time><name>PT9923</name></trkpt>
<trkpt lat="53.255834" lon="-1.779872"><ele>220</ele><time>2019-08-30T13:05:13Z</time><name>PT9924</name></trkpt>
<trkpt lat="53.255846" lon="-1.779883"><ele>221</ele><time>2019-08-30T13:05:14Z</time><name>PT9925</name></trkpt>
<trkpt lat="53.255852" lon="-1.779900"><ele>221</ele><time>2019-08-30T13:05:15Z</time><name>PT9926</name></trkpt>
<trkpt lat="53.255857" lon="-1.779924"><ele>221</ele><time>2019-08-30T13:05:16Z</time><name>PT9927</name></trkpt>
<trkpt lat="53.255861" lon="-1.779948"><ele>221</ele><time>2019-08-30T13:05:17Z</time><name>PT9928</name></trkpt>
<trkpt lat="53.255865" lon="-1.779977"><ele>222</ele><time>2019-08-30T13:05:18Z</time><name>PT9929</name></trkpt>
<trkpt lat="53.255866" lon="-1.779990"><ele>222</ele><time>2019-08-30T13:05:19Z</time><name>PT9930</name></trkpt>
<trkpt lat="53.255866" lon="-1.780010"><ele>221</ele><time>2019-08-30T13:05:20Z</time><name>PT9931</name></trkpt>
<trkpt lat="53.255875" lon="-1.780030"><ele>221</ele><time>2019-08-30T13:05:21Z</time><name>PT9932</name></trkpt>
<trkpt lat="53.255878" lon="-1.780054"><ele>222</ele><time>2019-08-30T13:05:22Z</time><name>PT9933</name></trkpt>
<trkpt lat="53.255879" lon="-1.780076"><ele>222</ele><time>2019-08-30T13:05:23Z</time><name>PT9934</name></trkpt>
<trkpt lat="53.255888" lon="-1.780094"><ele>223</ele><time>2019-08-30T13:05:24Z</time><name>PT9935</name></trkpt>
<trkpt lat="53.255894" lon="-1.780106"><ele>223</ele><time>2019-08-30T13:05:25Z</time><name>PT9936</name></trkpt>
<trkpt lat="53.255902" lon="-1.780119"><ele>223</ele><time>2019-08-30T13:05:26Z</time><name>PT9937</name></trkpt>
<trkpt lat="53.255909" lon="-1.780141"><ele>223</ele><time>2019-08-30T13:05:27Z</time><name>PT9938</name></trkpt>
<trkpt lat="53.255911" lon="-1.780153"><ele>223</ele><time>2019-08-30T13:05:28Z</time><name>PT9939</name></trkpt>
<trkpt lat="53.255908" lon="-1.780170"><ele>223</ele><time>2019-08-30T13:05:29Z</time><name>PT9940</name></trkpt>
<trkpt lat="53.255909" lon="-1.780186"><ele>222</ele><time>2019-08-30T13:05:30Z</time><name>PT9941</name></trkpt>
<trkpt lat="53.255909" lon="-1.780210"><ele>222</ele><time>2019-08-30T13:05:31Z</time><name>PT9942</name></trkpt>
<trkpt lat="53.255916" lon="-1.780226"><ele>221</ele><time>2019-08-30T13:05:32Z</time><name>PT9943</name></trkpt>
<trkpt lat="53.255931" lon="-1.780240"><ele>222</ele><time>2019-08-30T13:05:33Z</time><name>PT9944</name></trkpt>
<trkpt lat="53.255930" lon="-1.780255"><ele>222</ele><time>2019-08-30T13:05:34Z</time><name>PT9945</name></trkpt>
<trkpt lat="53.255939" lon="-1.780263"><ele>222</ele><time>2019-08-30T13:05:35Z</time><name>PT9946</name></trkpt>
<trkpt lat="53.255948" lon="-1.780274"><ele>223</ele><time>2019-08-30T13:05:36Z</time><name>PT9947</name></trkpt>
<trkpt lat="53.255948" lon="-1.780299"><ele>223</ele><time>2019-08-30T13:05:37Z</time><name>PT9948</name></trkpt>
<trkpt lat="53.255951" lon="-1.780334"><ele>224</ele><time>2019-08-30T13:05:38Z</time><name>PT9949</name></trkpt>
<trkpt lat="53.255955" lon="-1.780360"><ele>225</ele><time>2019-08-30T13:05:39Z</time><name>PT9950</name></trkpt>
<trkpt lat="53.255956" lon="-1.780379"><ele>225</ele><time>2019-08-30T13:05:40Z</time><name>PT9951</name></trkpt>
<trkpt lat="53.255958" lon="-1.780395"><ele>224</ele><time>2019-08-30T13:05:41Z</time><name>PT9952</name></trkpt>
<trkpt lat="53.255957" lon="-1.780417"><ele>224</ele><time>2019-08-30T13:05:42Z</time><name>PT9953</name></trkpt>
<trkpt lat="53.255953" lon="-1.780446"><ele>223</ele><time>2019-08-30T13:05:43Z</time><name>PT9954</name></trkpt>
<trkpt lat="53.255960" lon="-1.780463"><ele>223</ele><time>2019-08-30T13:05:44Z</time><name>PT9955</name></trkpt>
<trkpt lat="53.255960" lon="-1.780476"><ele>223</ele><time>2019-08-30T13:05:45Z</time><name>PT9956</name></trkpt>
<trkpt lat="53.255958" lon="-1.780487"><ele>222</ele><time>2019-08-30T13:05:46Z</time><name>PT9957</name></trkpt>
<trkpt lat="53.255961" lon="-1.780504"><ele>221</ele><time>2019-08-30T13:05:47Z</time><name>PT9958</name></trkpt>
<trkpt lat="53.255962" lon="-1.780528"><ele>221</ele><time>2019-08-30T13:05:48Z</time><name>PT9959</name></trkpt>
<trkpt lat="53.255959" lon="-1.780562"><ele>221</ele><time>2019-08-30T13:05:49Z</time><name>PT9960</name></trkpt>
<trkpt lat="53.255964" lon="-1.780586"><ele>222</ele><time>2019-08-30T13:05:50Z</time><name>PT9961</name></trkpt>
<trkpt lat="53.255970" lon="-1.780597"><ele>222</ele><time>2019-08-30T13:05:51Z</time><name>PT9962</name></trkpt>
<trkpt lat="53.255970" lon="-1.780616"><ele>221</ele><time>2019-08-30T13:05:52Z</time><name>PT9963</name></trkpt>
<trkpt lat="53.255973" lon="-1.780644"><ele>222</ele><time>2019-08-30T13:05:53Z</time><name>PT9964</name></trkpt>
<trkpt lat="53.255973" lon="-1.780668"><ele>222</ele><time>2019-08-30T13:05:54Z</time><name>PT9965</name></trkpt>
<trkpt lat="53.255977" lon="-1.780697"><ele>222</ele><time>2019-08-30T13:05:55Z</time><name>PT9966</name></trkpt>
<trkpt lat="53.255990" lon="-1.780719"><ele>223</ele><time>2019-08-30T13:05:56Z</time><name>PT9967</name></trkpt>
<trkpt lat="53.255993" lon="-1.780739"><ele>224</ele><time>2019-08-30T13:05:57Z</time><name>PT9968</name></trkpt>
<trkpt lat="53.255988" lon="-1.780761"><ele>224</ele><time>2019-08-30T13:05:58Z</time><name>PT9969</name></trkpt>
<trkpt lat="53.255984" lon="-1.780782"><ele>223</ele><time>2019-08-30T13:05:59Z</time><name>PT9970</name></trkpt>
<trkpt lat="53.255984" lon="-1.780809"><ele>223</ele><time>2019-08-30T13:06:00Z</time><name>PT9971</name></trkpt>
<trkpt lat="53.255983" lon="-1.780829"><ele>222</ele><time>2019-08-30T13:06:01Z</time><name>PT9972</name></trkpt>
<trkpt lat="53.255975" lon="-1.780855"><ele>221</ele><time>2019-08-30T13:06:02Z</time><name>PT9973</name></trkpt>
<trkpt lat="53.255975" lon="-1.780874"><ele>221</ele><time>2019-08-30T13:06:03Z</time><name>PT9974</name></trkpt>
<trkpt lat="53.255978" lon="-1.780895"><ele>220</ele><time>2019-08-30T13:06:04Z</time><name>PT9975</name></trkpt>
<trkpt lat="53.255979" lon="-1.780916"><ele>220</ele><time>2019-08-30T13:06:05Z</time><name>PT9976</name></trkpt>
<trkpt lat="53.255979" lon="-1.780946"><ele>221</ele><time>2019-08-30T13:06:06Z</time><name>PT9977</name></trkpt>
<trkpt lat="53.255977" lon="-1.780974"><ele>222</ele><time>2019-08-30T13:06:07Z</time><name>PT9978</name></trkpt>
<trkpt lat="53.255977" lon="-1.780992"><ele>222</ele><time>2019-08-30T13:06:08Z</time><name>PT9979</name></trkpt>
<trkpt lat="53.255981" lon="-1.781006"><ele>222</ele><time>2019-08-30T13:06:09Z</time><name>PT9980</name></trkpt>
<trkpt lat="53.255985" lon="-1.781016"><ele>221</ele><time>2019-08-30T13:06:10Z</time><name>PT9981</name></trkpt>
<trkpt lat="53.255984" lon="-1.781037"><ele>222</ele><time>2019-08-30T13:06:11Z</time><name>PT9982</name></trkpt>
<trkpt lat="53.255990" lon="-1.781058"><ele>223</ele><time>2019-08-30T13:06:12Z</time><name>PT9983</name></trkpt>
<trkpt lat="53.255989" lon="-1.781075"><ele>222</ele><time>2019-08-30T13:06:13Z</time><name>PT9984</name></trkpt>
<trkpt lat="53.255993" lon="-1.781092"><ele>222</ele><time>2019-08-30T13:06:14Z</time><name>PT9985</name></trkpt>
<trkpt lat="53.255995" lon="-1.781110"><ele>222</ele><time>2019-08-30T13:06:15Z</time><name>PT9986</name></trkpt>
<trkpt lat="53.256000" lon="-1.781135"><ele>223</ele><time>2019-08-30T13:06:16Z</time><name>PT9987</name></trkpt>
<trkpt lat="53.256008" lon="-1.781157"><ele>224</ele><time>2019-08-30T13:06:17Z</time><name>PT9988</name></trkpt>
<trkpt lat="53.256013" lon="-1.781176"><ele>225</ele><time>2019-08-30T13:06:18Z</time><name>PT9989</name></trkpt>
<trkpt lat="53.256014" lon="-1.781196"><ele>225</ele><time>2019-08-30T13:06:19Z</time><name>PT9990</name></trkpt>
<trkpt lat="53.256015" lon="-1.781213"><ele>225</ele><time>2019-08-30T13:06:20Z</time><name>PT9991</name></trkpt>
<trkpt lat="53.256016" lon="-1.781221"><ele>224</ele><time>2019-08-30T13:06:21Z</time><name>PT9992</name></trkpt>
<trkpt lat="53.256016" lon="-1.781236"><ele>223</ele><time>2019-08-30T13:06:22Z</time><name>PT9993</name></trkpt>
<trkpt lat="53.256022" lon="-1.781256"><ele>224</ele><time>2019-08-30T13:06:23Z</time><name>PT9994</name></trkpt>
<trkpt lat="53.256030" lon="-1.781270"><ele>224</ele><time>2019-08-30T13:06:24Z</time><name>PT9995</name></trkpt>
<trkpt lat="53.256028" lon="-1.781286"><ele>223</ele><time>2019-08-30T13:06:25Z</time><name>PT9996</name></trkpt>
<trkpt lat="53.256031" lon="-1.781299"><ele>222</ele><time>2019-08-30T13:06:26Z</time><name>PT9997</name></trkpt>
<trkpt lat="53.256031" lon="-1.781320"><ele>222</ele><time>2019-08-30T13:06:27Z</time><name>PT9998</name></trkpt>
<trkpt lat="53.256031" lon="-1.781344"><ele>222</ele><time>2019-08-30T13:06:28Z</time><name>PT9999</name></trkpt>
<trkpt lat="53.256032" lon="-1.781363"><ele>223</ele><time>2019-08-30T13:06:29Z</time><name>PT10000</name></trkpt>
<trkpt lat="53.256033" lon="-1.781375"><ele>223</ele><time>2019-08-30T13:06:30Z</time><name>PT10001</name></trkpt>
<trkpt lat="53.256036" lon="-1.781384"><ele>223</ele><time>2019-08-30T13:06:31Z</time><name>PT10002</name></trkpt>
<trkpt lat="53.256039" lon="-1.781399"><ele>223</ele><time>2019-08-30T13:06:32Z</time><name>PT10003</name></trkpt>
<trkpt lat="53.256042" lon="-1.781427"><ele>223</ele><time>2019-08-30T13:06:33Z</time><name>PT10004</name></trkpt>
<trkpt lat="53.256046" lon="-1.781457"><ele>224</ele><time>2019-08-30T13:06:34Z</time><name>PT10005</name></trkpt>
<trkpt lat="53.256054" lon="-1.781480"><ele>224</ele><time>2019-08-30T13:06:35Z</time><name>PT10006</name></trkpt>
<trkpt lat="53.256059" lon="-1.781491"><ele>224</ele><time>2019-08-30T13:06:36Z</time><name>PT10007</name></trkpt>
<trkpt lat="53.256057" lon="-1.781508"><ele>224</ele><time>2019-08-30T13:06:37Z</time><name>PT10008</name></trkpt>
<trkpt lat="53.256059" lon="-1.781526"><ele>224</ele><time>2019-08-30T13:06:38Z</time><name>PT10009</name></trkpt>
<trkpt lat="53.256059" lon="-1.781551"><ele>225</ele><time>2019-08-30T13:06:39Z</time><name>PT10010</name></trkpt>
<trkpt lat="53.256060" lon="-1.781582"><ele>224</ele><time>2019-08-30T13:06:40Z</time><name>PT10011</name></trkpt>
<trkpt lat="53.256062" lon="-1.781593"><ele>223</ele><time>2019-08-30T13:06:41Z</time><name>PT10012</name></trkpt>
<trkpt lat="53.256058" lon="-1.781609"><ele>223</ele><time>2019-08-30T13:06:42Z</time><name>PT10013</name></trkpt>
<trkpt lat="53.256066" lon="-1.781622"><ele>223</ele><time>2019-08-30T13:06:43Z</time><name>PT10014</name></trkpt>
<trkpt lat="53.256073" lon="-1.781642"><ele>222</ele><time>2019-08-30T13:06:44Z</time><name>PT10015</name></trkpt>
<trkpt lat="53.256078" lon="-1.781661"><ele>220</ele><time>2019-08-30T13:06:45Z</time><name>PT10016</name></trkpt>
<trkpt lat="53.256074" lon="-1.781676"><ele>219</ele><time>2019-08-30T13:06:46Z</time><name>PT10017</name></trkpt>
<trkpt lat="53.256082" lon="-1.781692"><ele>218</ele><time>2019-08-30T13:06:47Z</time><name>PT10018</name></trkpt>
<trkpt lat="53.256087" lon="-1.781711"><ele>218</ele><time>2019-08-30T13:06:48Z</time><name>PT10019</name></trkpt>
<trkpt lat="53.256085" lon="-1.781732"><ele>218</ele><time>2019-08-30T13:06:49Z</time><name>PT10020</name></trkpt>
<trkpt lat="53.256083" lon="-1.781762"><ele>218</ele><time>2019-08-30T13:06:50Z</time><name>PT10021</name></trkpt>
<trkpt lat="53.256086" lon="-1.781786"><ele>219</ele><time>2019-08-30T13:06:51Z</time><name>PT10022</name></trkpt>
<trkpt lat="53.256088" lon="-1.781806"><ele>220</ele><time>2019-08-30T13:06:52Z</time><name>PT10023</name></trkpt>
<trkpt lat="53.256093" lon="-1.781828"><ele>221</ele><time>2019-08-30T13:06:53Z</time><name>PT10024</name></trkpt>
<trkpt lat="53.256097" lon="-1.781848"><ele>221</ele><time>2019-08-30T13:06:54Z</time><name>PT10025</name></trkpt>
<trkpt lat="53.256097" lon="-1.781872"><ele>222</ele><time>2019-08-30T13:06:55Z</time><name>PT10026</name></trkpt>
<trkpt lat="53.256100" lon="-1.781900"><ele>222</ele><time>2019-08-30T13:06:56Z</time><name>PT10027</name></trkpt>
<trkpt lat="53.256101" lon="-1.781922"><ele>223</ele><time>2019-08-30T13:06:57Z</time><name>PT10028</name></trkpt>
<trkpt lat="53.256104" lon="-1.781941"><ele>223</ele><time>2019-08-30T13:06:58Z</time><name>PT10029</name></trkpt>
<trkpt lat="53.256099" lon="-1.781962"><ele>223</ele><time>2019-08-30T13:06:59Z</time><name>PT10030</name></trkpt>
<trkpt lat="53.256100" lon="-1.781980"><ele>223</ele><time>2019-08-30T13:07:00Z</time><name>PT10031</name></trkpt>
<trkpt lat="53.256109" lon="-1.782010"><ele>224</ele><time>2019-08-30T13:07:01Z</time><name>PT10032</name></trkpt>
<trkpt lat="53.256118" lon="-1.782035"><ele>225</ele><time>2019-08-30T13:07:02Z</time><name>PT10033</name></trkpt>
<trkpt lat="53.256124" lon="-1.782052"><ele>226</ele><time>2019-08-30T13:07:03Z</time><name>PT10034</name></trkpt>
<trkpt lat="53.256133" lon="-1.782073"><ele>226</ele><time>2019-08-30T13:07:04Z</time><name>PT10035</name></trkpt>
<trkpt lat="53.256140" lon="-1.782093"><ele>227</ele><time>2019-08-30T13:07:05Z</time><name>PT10036</name></trkpt>
<trkpt lat="53.256148" lon="-1.782112"><ele>227</ele><time>2019-08-30T13:07:06Z</time><name>PT10037</name></trkpt>
<trkpt lat="53.256156" lon="-1.782137"><ele>227</ele><time>2019-08-30T13:07:07Z</time><name>PT10038</name></trkpt>
<trkpt lat="53.256164" lon="-1.782158"><ele>228</ele><time>2019-08-30T13:07:08Z</time><name>PT10039</name></trkpt>
<trkpt lat="53.256164" lon="-1.782175"><ele>228</ele><time>2019-08-30T13:07:09Z</time><name>PT10040</name></trkpt>
<trkpt lat="53.256162" lon="-1.782190"><ele>228</ele><time>2019-08-30T13:07:10Z</time><name>PT10041</name></trkpt>
<trkpt lat="53.256166" lon="-1.782205"><ele>228</ele><time>2019-08-30T13:07:11Z</time><name>PT10042</name></trkpt>
<trkpt lat="53.256172" lon="-1.782229"><ele>229</ele><time>2019-08-30T13:07:12Z</time><name>PT10043</name></trkpt>
<trkpt lat="53.256178" lon="-1.782256"><ele>230</ele><time>2019-08-30T13:07:13Z</time><name>PT10044</name></trkpt>
<trkpt lat="53.256179" lon="-1.782277"><ele>229</ele><time>2019-08-30T13:07:14Z</time><name>PT10045</name></trkpt>
<trkpt lat="53.256184" lon="-1.782291"><ele>230</ele><time>2019-08-30T13:07:15Z</time><name>PT10046</name></trkpt>
<trkpt lat="53.256191" lon="-1.782312"><ele>230</ele><time>2019-08-30T13:07:16Z</time><name>PT10047</name></trkpt>
<trkpt lat="53.256199" lon="-1.782335"><ele>231</ele><time>2019-08-30T13:07:17Z</time><name>PT10048</name></trkpt>
<trkpt lat="53.256200" lon="-1.782361"><ele>231</ele><time>2019-08-30T13:07:18Z</time><name>PT10049</name></trkpt>
<trkpt lat="53.256199" lon="-1.782386"><ele>232</ele><time>2019-08-30T13:07:19Z</time><name>PT10050</name></trkpt>
<trkpt lat="53.256197" lon="-1.782404"><ele>231</ele><time>2019-08-30T13:07:20Z</time><name>PT10051</name></trkpt>
<trkpt lat="53.256201" lon="-1.782420"><ele>230</ele><time>2019-08-30T13:07:21Z</time><name>PT10052</name></trkpt>
<trkpt lat="53.256206" lon="-1.782439"><ele>230</ele><time>2019-08-30T13:07:22Z</time><name>PT10053</name></trkpt>
<trkpt lat="53.256204" lon="-1.782465"><ele>231</ele><time>2019-08-30T13:07:23Z</time><name>PT10054</name></trkpt>
<trkpt lat="53.256210" lon="-1.782491"><ele>231</ele><time>2019-08-30T13:07:24Z</time><name>PT10055</name></trkpt>
<trkpt lat="53.256215" lon="-1.782508"><ele>231</ele><time>2019-08-30T13:07:25Z</time><name>PT10056</name></trkpt>
<trkpt lat="53.256225" lon="-1.782520"><ele>231</ele><time>2019-08-30T13:07:26Z</time><name>PT10057</name></trkpt>
<trkpt lat="53.256234" lon="-1.782538"><ele>231</ele><time>2019-08-30T13:07:27Z</time><name>PT10058</name></trkpt>
<trkpt lat="53.256235" lon="-1.782559"><ele>232</ele><time>2019-08-30T13:07:28Z</time><name>PT10059</name></trkpt>
<trkpt lat="53.256235" lon="-1.782588"><ele>233</ele><time>2019-08-30T13:07:29Z</time><name>PT10060</name></trkpt>
<trkpt lat="53.256239" lon="-1.782614"><ele>232</ele><time>2019-08-30T13:07:30Z</time><name>PT10061</name></trkpt>
<trkpt lat="53.256240" lon="-1.782631"><ele>233</ele><time>2019-08-30T13:07:31Z</time><name>PT10062</name></trkpt>
<trkpt lat="53.256237" lon="-1.782652"><ele>233</ele><time>2019-08-30T13:07:32Z</time><name>PT10063</name></trkpt>
<trkpt lat="53.256242" lon="-1.782669"><ele>233</ele><time>2019-08-30T13:07:33Z</time><name>PT10064</name></trkpt>
<trkpt lat="53.256247" lon="-1.782697"><ele>233</ele><time>2019-08-30T13:07:34Z</time><name>PT10065</name></trkpt>
<trkpt lat="53.256245" lon="-1.782717"><ele>232</ele><time>2019-08-30T13:07:35Z</time><name>PT10066</name></trkpt>
<trkpt lat="53.256248" lon="-1.782744"><ele>232</ele><time>2019-08-30T13:07:36Z</time><name>PT10067</name></trkpt>
<trkpt lat="53.256251" lon="-1.782769"><ele>232</ele><time>2019-08-30T13:07:37Z</time><name>PT10068</name></trkpt>
<trkpt lat="53.256253" lon="-1.782783"><ele>231</ele><time>2019-08-30T13:07:38Z</time><name>PT10069</name></trkpt>
<trkpt lat="53.256254" lon="-1.782800"><ele>230</ele><time>2019-08-30T13:07:39Z</time><name>PT10070</name></trkpt>
<trkpt lat="53.256253" lon="-1.782818"><ele>230</ele><time>2019-08-30T13:07:40Z</time><name>PT10071</name></trkpt>
<trkpt lat="53.256250" lon="-1.782841"><ele>231</ele><time>2019-08-30T13:07:41Z</time><name>PT10072</name></trkpt>
<trkpt lat="53.256248" lon="-1.782867"><ele>232</ele><time>2019-08-30T13:07:42Z</time><name>PT10073</name></trkpt>
<trkpt lat="53.256237" lon="-1.782899"><ele>233</ele><time>2019-08-30T13:07:43Z</time><name>PT10074</name></trkpt>
<trkpt lat="53.256238" lon="-1.782917"><ele>232</ele><time>2019-08-30T13:07:44Z</time><name>PT10075</name></trkpt>
<trkpt lat="53.256234" lon="-1.782940"><ele>232</ele><time>2019-08-30T13:07:45Z</time><name>PT10076</name></trkpt>
<trkpt lat="53.256234" lon="-1.782964"><ele>231</ele><time>2019-08-30T13:07:46Z</time><name>PT10077</name></trkpt>
<trkpt lat="53.256236" lon="-1.782996"><ele>232</ele><time>2019-08-30T13:07:47Z</time><name>PT10078</name></trkpt>
<trkpt lat="53.256237" lon="-1.783022"><ele>233</ele><time>2019-08-30T13:07:48Z</time><name>PT10079</name></trkpt>
<trkpt lat="53.256240" lon="-1.783034"><ele>232</ele><time>2019-08-30T13:07:49Z</time><name>PT10080</name></trkpt>
<trkpt lat="53.256247" lon="-1.783044"><ele>232</ele><time>2019-08-30T13:07:50Z</time><name>PT10081</name></trkpt>
<trkpt lat="53.256251" lon="-1.783063"><ele>232</ele><time>2019-08-30T13:07:51Z</time><name>PT10082</name></trkpt>
<trkpt lat="53.256252" lon="-1.783085"><ele>232</ele><time>2019-08-30T13:07:52Z</time><name>PT10083</name></trkpt>
<trkpt lat="53.256251" lon="-1.783114"><ele>233</ele><time>2019-08-30T13:07:53Z</time><name>PT10084</name></trkpt>
<trkpt lat="53.256251" lon="-1.783133"><ele>233</ele><time>2019-08-30T13:07:54Z</time><name>PT10085</name></trkpt>
<trkpt lat="53.256252" lon="-1.783152"><ele>232</ele><time>2019-08-30T13:07:55Z</time><name>PT10086</name></trkpt>
<trkpt lat="53.256249" lon="-1.783171"><ele>231</ele><time>2019-08-30T13:07:56Z</time><name>PT10087</name></trkpt>
<trkpt lat="53.256248" lon="-1.783188"><ele>231</ele><time>2019-08-30T13:07:57Z</time><name>PT10088</name></trkpt>
<trkpt lat="53.256248" lon="-1.783208"><ele>231</ele><time>2019-08-30T13:07:58Z</time><name>PT10089</name></trkpt>
<trkpt lat="53.256246" lon="-1.783232"><ele>231</ele><time>2019-08-30T13:07:59Z</time><name>PT10090</name></trkpt>
<trkpt lat="53.256244" lon="-1.783247"><ele>231</ele><time>2019-08-30T13:08:00Z</time><name>PT10091</name></trkpt>
<trkpt lat="53.256239" lon="-1.783264"><ele>232</ele><time>2019-08-30T13:08:01Z</time><name>PT10092</name></trkpt>
<trkpt lat="53.256239" lon="-1.783281"><ele>231</ele><time>2019-08-30T13:08:02Z</time><name>PT10093</name></trkpt>
<trkpt lat="53.256245" lon="-1.783302"><ele>232</ele><time>2019-08-30T13:08:03Z</time><name>PT10094</name></trkpt>
<trkpt lat="53.256253" lon="-1.783320"><ele>231</ele><time>2019-08-30T13:08:04Z</time><name>PT10095</name></trkpt>
<trkpt lat="53.256259" lon="-1.783339"><ele>231</ele><time>2019-08-30T13:08:05Z</time><name>PT10096</name></trkpt>
<trkpt lat="53.256266" lon="-1.783358"><ele>232</ele><time>2019-08-30T13:08:06Z</time><name>PT10097</name></trkpt>
<trkpt lat="53.256270" lon="-1.783373"><ele>232</ele><time>2019-08-30T13:08:07Z</time><name>PT10098</name></trkpt>
<trkpt lat="53.256276" lon="-1.783387"><ele>231</ele><time>2019-08-30T13:08:08Z</time><name>PT10099</name></trkpt>
<trkpt lat="53.256279" lon="-1.783401"><ele>232</ele><time>2019-08-30T13:08:09Z</time><name>PT10100</name></trkpt>
<trkpt lat="53.256281" lon="-1.783423"><ele>232</ele><time>2019-08-30T13:08:10Z</time><name>PT10101</name></trkpt>
<trkpt lat="53.256279" lon="-1.783443"><ele>232</ele><time>2019-08-30T13:08:11Z</time><name>PT10102</name></trkpt>
<trkpt lat="53.256285" lon="-1.783463"><ele>233</ele><time>2019-08-30T13:08:12Z</time><name>PT10103</name></trkpt>
<trkpt lat="53.256287" lon="-1.783479"><ele>232</ele><time>2019-08-30T13:08:13Z</time><name>PT10104</name></trkpt>
<trkpt lat="53.256286" lon="-1.783492"><ele>231</ele><time>2019-08-30T13:08:14Z</time><name>PT10105</name></trkpt>
<trkpt lat="53.256288" lon="-1.783502"><ele>229</ele><time>2019-08-30T13:08:15Z</time><name>PT10106</name></trkpt>
<trkpt lat="53.256288" lon="-1.783520"><ele>229</ele><time>2019-08-30T13:08:16Z</time><name>PT10107</name></trkpt>
<trkpt lat="53.256282" lon="-1.783545"><ele>230</ele><time>2019-08-30T13:08:17Z</time><name>PT10108</name></trkpt>
<trkpt lat="53.256281" lon="-1.783570"><ele>231</ele><time>2019-08-30T13:08:18Z</time><name>PT10109</name></trkpt>
<trkpt lat="53.256276" lon="-1.783592"><ele>231</ele><time>2019-08-30T13:08:19Z</time><name>PT10110</name></trkpt>
<trkpt lat="53.256275" lon="-1.783605"><ele>230</ele><time>2019-08-30T13:08:20Z</time><name>PT10111</name></trkpt>
<trkpt lat="53.256284" lon="-1.783620"><ele>230</ele><time>2019-08-30T13:08:21Z</time><name>PT10112</name></trkpt>
<trkpt lat="53.256287" lon="-1.783642"><ele>229</ele><time>2019-08-30T13:08:22Z</time><name>PT10113</name></trkpt>
<trkpt lat="53.256288" lon="-1.783673"><ele>229</ele><time>2019-08-30T13:08:23Z</time><name>PT10114</name></trkpt>
<trkpt lat="53.256296" lon="-1.783694"><ele>230</ele><time>2019-08-30T13:08:24Z</time><name>PT10115</name></trkpt>
<trkpt lat="53.256296" lon="-1.783706"><ele>231</ele><time>2019-08-30T13:08:25Z</time><name>PT10116</name></trkpt>
<trkpt lat="53.256292" lon="-1.783723"><ele>229</ele><time>2019-08-30T13:08:26Z</time><name>PT10117</name></trkpt>
<trkpt lat="53.256296" lon="-1.783735"><ele>229</ele><time>2019-08-30T13:08:27Z</time><name>PT10118</name></trkpt>
<trkpt lat="53.256301" lon="-1.783758"><ele>229</ele><time>2019-08-30T13:08:28Z</time><name>PT10119</name></trkpt>
<trkpt lat="53.256306" lon="-1.783788"><ele>230</ele><time>2019-08-30T13:08:29Z</time><name>PT10120</name></trkpt>
<trkpt lat="53.256309" lon="-1.783818"><ele>231</ele><time>2019-08-30T13:08:30Z</time><name>PT10121</name></trkpt>
<trkpt lat="53.256310" lon="-1.783835"><ele>230</ele><time>2019-08-30T13:08:31Z</time><name>PT10122</name></trkpt>
<trkpt lat="53.256312" lon="-1.783850"><ele>229</ele><time>2019-08-30T13:08:32Z</time><name>PT10123</name></trkpt>
<trkpt lat="53.256312" lon="-1.783875"><ele>229</ele><time>2019-08-30T13:08:33Z</time><name>PT10124</name></trkpt>
<trkpt lat="53.256319" lon="-1.783904"><ele>230</ele><time>2019-08-30T13:08:34Z</time><name>PT10125</name></trkpt>
<trkpt lat="53.256324" lon="-1.783928"><ele>231</ele><time>2019-08-30T13:08:35Z</time><name>PT10126</name></trkpt>
<trkpt lat="53.256324" lon="-1.783951"><ele>231</ele><time>2019-08-30T13:08:36Z</time><name>PT10127</name></trkpt>
<trkpt lat="53.256321" lon="-1.783969"><ele>230</ele><time>2019-08-30T13:08:37Z</time><name>PT10128</name></trkpt>
<trkpt lat="53.256325" lon="-1.783984"><ele>231</ele><time>2019-08-30T13:08:38Z</time><name>PT10129</name></trkpt>
<trkpt lat="53.256326" lon="-1.784000"><ele>231</ele><time>2019-08-30T13:08:39Z</time><name>PT10130</name></trkpt>
<trkpt lat="53.256327" lon="-1.784015"><ele>230</ele><time>2019-08-30T13:08:40Z</time><name>PT10131</name></trkpt>
<trkpt lat="53.256323" lon="-1.784041"><ele>231</ele><time>2019-08-30T13:08:41Z</time><name>PT10132</name></trkpt>
<trkpt lat="53.256325" lon="-1.784059"><ele>232</ele><time>2019-08-30T13:08:42Z</time><name>PT10133</name></trkpt>
<trkpt lat="53.256331" lon="-1.784068"><ele>231</ele><time>2019-08-30T13:08:43Z</time><name>PT10134</name></trkpt>
<trkpt lat="53.256330" lon="-1.784089"><ele>231</ele><time>2019-08-30T13:08:44Z</time><name>PT10135</name></trkpt>
<trkpt lat="53.256337" lon="-1.784105"><ele>231</ele><time>2019-08-30T13:08:45Z</time><name>PT10136</name></trkpt>
<trkpt lat="53.256336" lon="-1.784134"><ele>232</ele><time>2019-08-30T13:08:46Z</time><name>PT10137</name></trkpt>
<trkpt lat="53.256337" lon="-1.784154"><ele>234</ele><time>2019-08-30T13:08:47Z</time><name>PT10138</name></trkpt>
<trkpt lat="53.256334" lon="-1.784174"><ele>234</ele><time>2019-08-30T13:08:48Z</time><name>PT10139</name></trkpt>
<trkpt lat="53.256337" lon="-1.784184"><ele>233</ele><time>2019-08-30T13:08:49Z</time><name>PT10140</name></trkpt>
<trkpt lat="53.256341" lon="-1.784196"><ele>232</ele><time>2019-08-30T13:08:50Z</time><name>PT10141</name></trkpt>
<trkpt lat="53.256343" lon="-1.784211"><ele>233</ele><time>2019-08-30T13:08:51Z</time><name>PT10142</name></trkpt>
<trkpt lat="53.256335" lon="-1.784247"><ele>232</ele><time>2019-08-30T13:08:52Z</time><name>PT10143</name></trkpt>
<trkpt lat="53.256332" lon="-1.784284"><ele>233</ele><time>2019-08-30T13:08:53Z</time><name>PT10144</name></trkpt>
<trkpt lat="53.256331" lon="-1.784315"><ele>233</ele><time>2019-08-30T13:08:54Z</time><name>PT10145</name></trkpt>
<trkpt lat="53.256323" lon="-1.784349"><ele>236</ele><time>2019-08-30T13:08:55Z</time><name>PT10146</name></trkpt>
<trkpt lat="53.256324" lon="-1.784371"><ele>235</ele><time>2019-08-30T13:08:56Z</time><name>PT10147</name></trkpt>
<trkpt lat="53.256325" lon="-1.784392"><ele>234</ele><time>2019-08-30T13:08:57Z</time><name>PT10148</name></trkpt>
<trkpt lat="53.256332" lon="-1.784416"><ele>235</ele><time>2019-08-30T13:08:58Z</time><name>PT10149</name></trkpt>
<trkpt lat="53.256334" lon="-1.784442"><ele>235</ele><time>2019-08-30T13:08:59Z</time><name>PT10150</name></trkpt>
<trkpt lat="53.256335" lon="-1.784464"><ele>236</ele><time>2019-08-30T13:09:00Z</time><name>PT10151</name></trkpt>
<trkpt lat="53.256338" lon="-1.784482"><ele>237</ele><time>2019-08-30T13:09:01Z</time><name>PT10152</name></trkpt>
<trkpt lat="53.256340" lon="-1.784506"><ele>237</ele><time>2019-08-30T13:09:02Z</time><name>PT10153</name></trkpt>
<trkpt lat="53.256336" lon="-1.784532"><ele>235</ele><time>2019-08-30T13:09:03Z</time><name>PT10154</name></trkpt>
<trkpt lat="53.256334" lon="-1.784555"><ele>235</ele><time>2019-08-30T13:09:04Z</time><name>PT10155</name></trkpt>
<trkpt lat="53.256339" lon="-1.784580"><ele>236</ele><time>2019-08-30T13:09:05Z</time><name>PT10156</name></trkpt>
<trkpt lat="53.256340" lon="-1.784599"><ele>236</ele><time>2019-08-30T13:09:06Z</time><name>PT10157</name></trkpt>
<trkpt lat="53.256343" lon="-1.784613"><ele>236</ele><time>2019-08-30T13:09:07Z</time><name>PT10158</name></trkpt>
<trkpt lat="53.256338" lon="-1.784636"><ele>234</ele><time>2019-08-30T13:09:08Z</time><name>PT10159</name></trkpt>
<trkpt lat="53.256339" lon="-1.784657"><ele>234</ele><time>2019-08-30T13:09:09Z</time><name>PT10160</name></trkpt>
<trkpt lat="53.256342" lon="-1.784677"><ele>234</ele><time>2019-08-30T13:09:10Z</time><name>PT10161</name></trkpt>
<trkpt lat="53.256343" lon="-1.784702"><ele>233</ele><time>2019-08-30T13:09:11Z</time><name>PT10162</name></trkpt>
<trkpt lat="53.256352" lon="-1.784718"><ele>232</ele><time>2019-08-30T13:09:12Z</time><name>PT10163</name></trkpt>
<trkpt lat="53.256356" lon="-1.784730"><ele>232</ele><time>2019-08-30T13:09:13Z</time><name>PT10164</name></trkpt>
<trkpt lat="53.256376" lon="-1.784738"><ele>232</ele><time>2019-08-30T13:09:14Z</time><name>PT10165</name></trkpt>
<trkpt lat="53.256376" lon="-1.784755"><ele>232</ele><time>2019-08-30T13:09:15Z</time><name>PT10166</name></trkpt>
<trkpt lat="53.256377" lon="-1.784781"><ele>231</ele><time>2019-08-30T13:09:16Z</time><name>PT10167</name></trkpt>
<trkpt lat="53.256372" lon="-1.784821"><ele>230</ele><time>2019-08-30T13:09:17Z</time><name>PT10168</name></trkpt>
<trkpt lat="53.256367" lon="-1.784850"><ele>231</ele><time>2019-08-30T13:09:18Z</time><name>PT10169</name></trkpt>
<trkpt lat="53.256364" lon="-1.784867"><ele>231</ele><time>2019-08-30T13:09:19Z</time><name>PT10170</name></trkpt>
<trkpt lat="53.256362" lon="-1.784891"><ele>229</ele><time>2019-08-30T13:09:20Z</time><name>PT10171</name></trkpt>
<trkpt lat="53.256362" lon="-1.784919"><ele>229</ele><time>2019-08-30T13:09:21Z</time><name>PT10172</name></trkpt>
<trkpt lat="53.256366" lon="-1.784940"><ele>228</ele><time>2019-08-30T13:09:22Z</time><name>PT10173</name></trkpt>
<trkpt lat="53.256360" lon="-1.784967"><ele>228</ele><time>2019-08-30T13:09:23Z</time><name>PT10174</name></trkpt>
<trkpt lat="53.256357" lon="-1.784988"><ele>228</ele><time>2019-08-30T13:09:24Z</time><name>PT10175</name></trkpt>
<trkpt lat="53.256354" lon="-1.785000"><ele>227</ele><time>2019-08-30T13:09:25Z</time><name>PT10176</name></trkpt>
<trkpt lat="53.256354" lon="-1.785019"><ele>227</ele><time>2019-08-30T13:09:26Z</time><name>PT10177</name></trkpt>
<trkpt lat="53.256353" lon="-1.785038"><ele>227</ele><time>2019-08-30T13:09:27Z</time><name>PT10178</name></trkpt>
<trkpt lat="53.256352" lon="-1.785064"><ele>227</ele><time>2019-08-30T13:09:28Z</time><name>PT10179</name></trkpt>
<trkpt lat="53.256352" lon="-1.785086"><ele>227</ele><time>2019-08-30T13:09:29Z</time><name>PT10180</name></trkpt>
<trkpt lat="53.256343" lon="-1.785126"><ele>228</ele><time>2019-08-30T13:09:30Z</time><name>PT10181</name></trkpt>
<trkpt lat="53.256344" lon="-1.785140"><ele>227</ele><time>2019-08-30T13:09:31Z</time><name>PT10182</name></trkpt>
<trkpt lat="53.256345" lon="-1.785152"><ele>227</ele><time>2019-08-30T13:09:32Z</time><name>PT10183</name></trkpt>
<trkpt lat="53.256349" lon="-1.785172"><ele>227</ele><time>2019-08-30T13:09:33Z</time><name>PT10184</name></trkpt>
<trkpt lat="53.256347" lon="-1.785198"><ele>228</ele><time>2019-08-30T13:09:34Z</time><name>PT10185</name></trkpt>
<trkpt lat="53.256344" lon="-1.785222"><ele>228</ele><time>2019-08-30T13:09:35Z</time><name>PT10186</name></trkpt>
<trkpt lat="53.256350" lon="-1.785233"><ele>227</ele><time>2019-08-30T13:09:36Z</time><name>PT10187</name></trkpt>
<trkpt lat="53.256354" lon="-1.785245"><ele>228</ele><time>2019-08-30T13:09:37Z</time><name>PT10188</name></trkpt>
<trkpt lat="53.256359" lon="-1.785260"><ele>228</ele><time>2019-08-30T13:09:38Z</time><name>PT10189</name></trkpt>
<trkpt lat="53.256360" lon="-1.785281"><ele>227</ele><time>2019-08-30T13:09:39Z</time><name>PT10190</name></trkpt>
<trkpt lat="53.256363" lon="-1.785310"><ele>228</ele><time>2019-08-30T13:09:40Z</time><name>PT10191</name></trkpt>
<trkpt lat="53.256362" lon="-1.785321"><ele>228</ele><time>2019-08-30T13:09:41Z</time><name>PT10192</name></trkpt>
<trkpt lat="53.256358" lon="-1.785331"><ele>227</ele><time>2019-08-30T13:09:42Z</time><name>PT10193</name></trkpt>
<trkpt lat="53.256357" lon="-1.785343"><ele>226</ele><time>2019-08-30T13:09:43Z</time><name>PT10194</name></trkpt>
<trkpt lat="53.256362" lon="-1.785355"><ele>225</ele><time>2019-08-30T13:09:44Z</time><name>PT10195</name></trkpt>
<trkpt lat="53.256356" lon="-1.785379"><ele>225</ele><time>2019-08-30T13:09:45Z</time><name>PT10196</name></trkpt>
<trkpt lat="53.256352" lon="-1.785408"><ele>225</ele><time>2019-08-30T13:09:46Z</time><name>PT10197</name></trkpt>
<trkpt lat="53.256350" lon="-1.785421"><ele>225</ele><time>2019-08-30T13:09:47Z</time><name>PT10198</name></trkpt>
<trkpt lat="53.256354" lon="-1.785432"><ele>224</ele><time>2019-08-30T13:09:48Z</time><name>PT10199</name></trkpt>
<trkpt lat="53.256352" lon="-1.785453"><ele>224</ele><time>2019-08-30T13:09:49Z</time><name>PT10200</name></trkpt>
<trkpt lat="53.256347" lon="-1.785486"><ele>224</ele><time>2019-08-30T13:09:50Z</time><name>PT10201</name></trkpt>
<trkpt lat="53.256346" lon="-1.785519"><ele>224</ele><time>2019-08-30T13:09:51Z</time><name>PT10202</name></trkpt>
<trkpt lat="53.256347" lon="-1.785540"><ele>224</ele><time>2019-08-30T13:09:52Z</time><name>PT10203</name></trkpt>
<trkpt lat="53.256346" lon="-1.785563"><ele>224</ele><time>2019-08-30T13:09:53Z</time><name>PT10204</name></trkpt>
<trkpt lat="53.256346" lon="-1.785582"><ele>223</ele><time>2019-08-30T13:09:54Z</time><name>PT10205</name></trkpt>
<trkpt lat="53.256345" lon="-1.785605"><ele>223</ele><time>2019-08-30T13:09:55Z</time><name>PT10206</name></trkpt>
<trkpt lat="53.256342" lon="-1.785629"><ele>223</ele><time>2019-08-30T13:09:56Z</time><name>PT10207</name></trkpt>
<trkpt lat="53.256343" lon="-1.785659"><ele>223</ele><time>2019-08-30T13:09:57Z</time><name>PT10208</name></trkpt>
<trkpt lat="53.256346" lon="-1.785678"><ele>224</ele><time>2019-08-30T13:09:58Z</time><name>PT10209</name></trkpt>
<trkpt lat="53.256345" lon="-1.785693"><ele>224</ele><time>2019-08-30T13:09:59Z</time><name>PT10210</name></trkpt>
<trkpt lat="53.256340" lon="-1.785724"><ele>224</ele><time>2019-08-30T13:10:00Z</time><name>PT10211</name></trkpt>
<trkpt lat="53.256340" lon="-1.785744"><ele>224</ele><time>2019-08-30T13:10:01Z</time><name>PT10212</name></trkpt>
<trkpt lat="53.256343" lon="-1.785768"><ele>224</ele><time>2019-08-30T13:10:02Z</time><name>PT10213</name></trkpt>
<trkpt lat="53.256346" lon="-1.785805"><ele>226</ele><time>2019-08-30T13:10:03Z</time><name>PT10214</name></trkpt>
<trkpt lat="53.256343" lon="-1.785830"><ele>225</ele><time>2019-08-30T13:10:04Z</time><name>PT10215</name></trkpt>
<trkpt lat="53.256342" lon="-1.785843"><ele>226</ele><time>2019-08-30T13:10:05Z</time><name>PT10216</name></trkpt>
<trkpt lat="53.256340" lon="-1.785863"><ele>225</ele><time>2019-08-30T13:10:06Z</time><name>PT10217</name></trkpt>
<trkpt lat="53.256339" lon="-1.785881"><ele>224</ele><time>2019-08-30T13:10:07Z</time><name>PT10218</name></trkpt>
<trkpt lat="53.256335" lon="-1.785910"><ele>224</ele><time>2019-08-30T13:10:08Z</time><name>PT10219</name></trkpt>
<trkpt lat="53.256335" lon="-1.785948"><ele>225</ele><time>2019-08-30T13:10:09Z</time><name>PT10220</name></trkpt>
<trkpt lat="53.256329" lon="-1.785985"><ele>226</ele><time>2019-08-30T13:10:10Z</time><name>PT10221</name></trkpt>
<trkpt lat="53.256328" lon="-1.786001"><ele>226</ele><time>2019-08-30T13:10:11Z</time><name>PT10222</name></trkpt>
<trkpt lat="53.256330" lon="-1.786014"><ele>226</ele><time>2019-08-30T13:10:12Z</time><name>PT10223</name></trkpt>
<trkpt lat="53.256330" lon="-1.786033"><ele>226</ele><time>2019-08-30T13:10:13Z</time><name>PT10224</name></trkpt>
<trkpt lat="53.256328" lon="-1.786059"><ele>226</ele><time>2019-08-30T13:10:14Z</time><name>PT10225</name></trkpt>
<trkpt lat="53.256326" lon="-1.786091"><ele>227</ele><time>2019-08-30T13:10:15Z</time><name>PT10226</name></trkpt>
<trkpt lat="53.256321" lon="-1.786115"><ele>228</ele><time>2019-08-30T13:10:16Z</time><name>PT10227</name></trkpt>
<trkpt lat="53.256316" lon="-1.786141"><ele>228</ele><time>2019-08-30T13:10:17Z</time><name>PT10228</name></trkpt>
<trkpt lat="53.256312" lon="-1.786161"><ele>228</ele><time>2019-08-30T13:10:18Z</time><name>PT10229</name></trkpt>
<trkpt lat="53.256308" lon="-1.786182"><ele>227</ele><time>2019-08-30T13:10:19Z</time><name>PT10230</name></trkpt>
<trkpt lat="53.256307" lon="-1.786205"><ele>227</ele><time>2019-08-30T13:10:20Z</time><name>PT10231</name></trkpt>
<trkpt lat="53.256306" lon="-1.786232"><ele>228</ele><time>2019-08-30T13:10:21Z</time><name>PT10232</name></trkpt>
<trkpt lat="53.256305" lon="-1.786253"><ele>228</ele><time>2019-08-30T13:10:22Z</time><name>PT10233</name></trkpt>
<trkpt lat="53.256302" lon="-1.786276"><ele>228</ele><time>2019-08-30T13:10:23Z</time><name>PT10234</name></trkpt>
<trkpt lat="53.256299" lon="-1.786296"><ele>228</ele><time>2019-08-30T13:10:24Z</time><name>PT10235</name></trkpt>
<trkpt lat="53.256295" lon="-1.786321"><ele>227</ele><time>2019-08-30T13:10:25Z</time><name>PT10236</name></trkpt>
<trkpt lat="53.256298" lon="-1.786343"><ele>227</ele><time>2019-08-30T13:10:26Z</time><name>PT10237</name></trkpt>
<trkpt lat="53.256291" lon="-1.786367"><ele>227</ele><time>2019-08-30T13:10:27Z</time><name>PT10238</name></trkpt>
<trkpt lat="53.256285" lon="-1.786393"><ele>227</ele><time>2019-08-30T13:10:28Z</time><name>PT10239</name></trkpt>
<trkpt lat="53.256283" lon="-1.786409"><ele>227</ele><time>2019-08-30T13:10:29Z</time><name>PT10240</name></trkpt>
<trkpt lat="53.256281" lon="-1.786424"><ele>226</ele><time>2019-08-30T13:10:30Z</time><name>PT10241</name></trkpt>
<trkpt lat="53.256280" lon="-1.786447"><ele>226</ele><time>2019-08-30T13:10:31Z</time><name>PT10242</name></trkpt>
<trkpt lat="53.256278" lon="-1.786475"><ele>226</ele><time>2019-08-30T13:10:32Z</time><name>PT10243</name></trkpt>
<trkpt lat="53.256277" lon="-1.786498"><ele>227</ele><time>2019-08-30T13:10:33Z</time><name>PT10244</name></trkpt>
<trkpt lat="53.256274" lon="-1.786517"><ele>227</ele><time>2019-08-30T13:10:34Z</time><name>PT10245</name></trkpt>
<trkpt lat="53.256268" lon="-1.786537"><ele>227</ele><time>2019-08-30T13:10:35Z</time><name>PT10246</name></trkpt>
<trkpt lat="53.256259" lon="-1.786561"><ele>227</ele><time>2019-08-30T13:10:36Z</time><name>PT10247</name></trkpt>
<trkpt lat="53.256255" lon="-1.786588"><ele>227</ele><time>2019-08-30T13:10:37Z</time><name>PT10248</name></trkpt>
<trkpt lat="53.256247" lon="-1.786616"><ele>227</ele><time>2019-08-30T13:10:38Z</time><name>PT10249</name></trkpt>
<trkpt lat="53.256247" lon="-1.786633"><ele>227</ele><time>2019-08-30T13:10:39Z</time><name>PT10250</name></trkpt>
<trkpt lat="53.256247" lon="-1.786636"><ele>227</ele><time>2019-08-30T13:10:40Z</time><name>PT10251</name></trkpt>
<trkpt lat="53.256244" lon="-1.786652"><ele>226</ele><time>2019-08-30T13:10:41Z</time><name>PT10252</name></trkpt>
<trkpt lat="53.256241" lon="-1.786671"><ele>226</ele><time>2019-08-30T13:10:42Z</time><name>PT10253</name></trkpt>
<trkpt lat="53.256240" lon="-1.786690"><ele>226</ele><time>2019-08-30T13:10:43Z</time><name>PT10254</name></trkpt>
<trkpt lat="53.256242" lon="-1.786708"><ele>227</ele><time>2019-08-30T13:10:44Z</time><name>PT10255</name></trkpt>
<trkpt lat="53.256235" lon="-1.786725"><ele>226</ele><time>2019-08-30T13:10:45Z</time><name>PT10256</name></trkpt>
<trkpt lat="53.256230" lon="-1.786741"><ele>227</ele><time>2019-08-30T13:10:46Z</time><name>PT10257</name></trkpt>
<trkpt lat="53.256230" lon="-1.786758"><ele>227</ele><time>2019-08-30T13:10:47Z</time><name>PT10258</name></trkpt>
<trkpt lat="53.256232" lon="-1.786776"><ele>227</ele><time>2019-08-30T13:10:48Z</time><name>PT10259</name></trkpt>
<trkpt lat="53.256225" lon="-1.786798"><ele>227</ele><time>2019-08-30T13:10:49Z</time><name>PT10260</name></trkpt>
<trkpt lat="53.256231" lon="-1.786815"><ele>228</ele><time>2019-08-30T13:10:50Z</time><name>PT10261</name></trkpt>
<trkpt lat="53.256232" lon="-1.786823"><ele>228</ele><time>2019-08-30T13:10:51Z</time><name>PT10262</name></trkpt>
<trkpt lat="53.256236" lon="-1.786827"><ele>228</ele><time>2019-08-30T13:10:52Z</time><name>PT10263</name></trkpt>
<trkpt lat="53.256243" lon="-1.786822"><ele>227</ele><time>2019-08-30T13:10:55Z</time><name>PT10264</name></trkpt>
<trkpt lat="53.256251" lon="-1.786823"><ele>226</ele><time>2019-08-30T13:10:56Z</time><name>PT10265</name></trkpt>
<trkpt lat="53.256260" lon="-1.786809"><ele>225</ele><time>2019-08-30T13:10:57Z</time><name>PT10266</name></trkpt>
<trkpt lat="53.256261" lon="-1.786807"><ele>225</ele><time>2019-08-30T13:10:58Z</time><name>PT10267</name></trkpt>
<trkpt lat="53.256265" lon="-1.786803"><ele>224</ele><time>2019-08-30T13:10:59Z</time><name>PT10268</name></trkpt>
<trkpt lat="53.256276" lon="-1.786802"><ele>223</ele><time>2019-08-30T13:11:00Z</time><name>PT10269</name></trkpt>
<trkpt lat="53.256287" lon="-1.786808"><ele>222</ele><time>2019-08-30T13:11:01Z</time><name>PT10270</name></trkpt>
<trkpt lat="53.256295" lon="-1.786816"><ele>222</ele><time>2019-08-30T13:11:02Z</time><name>PT10271</name></trkpt>
<trkpt lat="53.256299" lon="-1.786838"><ele>222</ele><time>2019-08-30T13:11:03Z</time><name>PT10272</name></trkpt>
<trkpt lat="53.256301" lon="-1.786857"><ele>221</ele><time>2019-08-30T13:11:04Z</time><name>PT10273</name></trkpt>
<trkpt lat="53.256310" lon="-1.786872"><ele>220</ele><time>2019-08-30T13:11:05Z</time><name>PT10274</name></trkpt>
<trkpt lat="53.256318" lon="-1.786883"><ele>220</ele><time>2019-08-30T13:11:06Z</time><name>PT10275</name></trkpt>
<trkpt lat="53.256327" lon="-1.786897"><ele>221</ele><time>2019-08-30T13:11:07Z</time><name>PT10276</name></trkpt>
<trkpt lat="53.256330" lon="-1.786906"><ele>221</ele><time>2019-08-30T13:11:08Z</time><name>PT10277</name></trkpt>
<trkpt lat="53.256342" lon="-1.786905"><ele>221</ele><time>2019-08-30T13:11:09Z</time><name>PT10278</name></trkpt>
<trkpt lat="53.256350" lon="-1.786914"><ele>221</ele><time>2019-08-30T13:11:10Z</time><name>PT10279</name></trkpt>
<trkpt lat="53.256352" lon="-1.786921"><ele>221</ele><time>2019-08-30T13:11:11Z</time><name>PT10280</name></trkpt>
<trkpt lat="53.256362" lon="-1.786917"><ele>221</ele><time>2019-08-30T13:11:12Z</time><name>PT10281</name></trkpt>
<trkpt lat="53.256363" lon="-1.786920"><ele>220</ele><time>2019-08-30T13:11:13Z</time><name>PT10282</name></trkpt>
<trkpt lat="53.256367" lon="-1.786923"><ele>220</ele><time>2019-08-30T13:11:14Z</time><name>PT10283</name></trkpt>
<trkpt lat="53.256372" lon="-1.786934"><ele>220</ele><time>2019-08-30T13:11:15Z</time><name>PT10284</name></trkpt>
<trkpt lat="53.256373" lon="-1.786946"><ele>220</ele><time>2019-08-30T13:11:16Z</time><name>PT10285</name></trkpt>
<trkpt lat="53.256383" lon="-1.786947"><ele>219</ele><time>2019-08-30T13:11:17Z</time><name>PT10286</name></trkpt>
<trkpt lat="53.256392" lon="-1.786946"><ele>219</ele><time>2019-08-30T13:11:18Z</time><name>PT10287</name></trkpt>
<trkpt lat="53.256396" lon="-1.786954"><ele>218</ele><time>2019-08-30T13:11:19Z</time><name>PT10288</name></trkpt>
<trkpt lat="53.256396" lon="-1.786963"><ele>218</ele><time>2019-08-30T13:11:20Z</time><name>PT10289</name></trkpt>
<trkpt lat="53.256401" lon="-1.786969"><ele>218</ele><time>2019-08-30T13:11:21Z</time><name>PT10290</name></trkpt>
<trkpt lat="53.256406" lon="-1.786975"><ele>218</ele><time>2019-08-30T13:11:22Z</time><name>PT10291</name></trkpt>
<trkpt lat="53.256410" lon="-1.786980"><ele>217</ele><time>2019-08-30T13:11:23Z</time><name>PT10292</name></trkpt>
<trkpt lat="53.256413" lon="-1.786985"><ele>216</ele><time>2019-08-30T13:11:24Z</time><name>PT10293</name></trkpt>
<trkpt lat="53.256420" lon="-1.786985"><ele>215</ele><time>2019-08-30T13:11:25Z</time><name>PT10294</name></trkpt>
<trkpt lat="53.256426" lon="-1.786987"><ele>214</ele><time>2019-08-30T13:11:26Z</time><name>PT10295</name></trkpt>
<trkpt lat="53.256430" lon="-1.786987"><ele>214</ele><time>2019-08-30T13:11:27Z</time><name>PT10296</name></trkpt>
<trkpt lat="53.256436" lon="-1.786987"><ele>214</ele><time>2019-08-30T13:11:28Z</time><name>PT10297</name></trkpt>
<trkpt lat="53.256439" lon="-1.786990"><ele>214</ele><time>2019-08-30T13:11:29Z</time><name>PT10298</name></trkpt>
<trkpt lat="53.256440" lon="-1.786994"><ele>213</ele><time>2019-08-30T13:11:30Z</time><name>PT10299</name></trkpt>
<trkpt lat="53.256451" lon="-1.786997"><ele>213</ele><time>2019-08-30T13:11:31Z</time><name>PT10300</name></trkpt>
<trkpt lat="53.256459" lon="-1.787005"><ele>213</ele><time>2019-08-30T13:11:32Z</time><name>PT10301</name></trkpt>
<trkpt lat="53.256465" lon="-1.787019"><ele>213</ele><time>2019-08-30T13:11:33Z</time><name>PT10302</name></trkpt>
<trkpt lat="53.256471" lon="-1.787030"><ele>214</ele><time>2019-08-30T13:11:34Z</time><name>PT10303</name></trkpt>
<trkpt lat="53.256478" lon="-1.787036"><ele>213</ele><time>2019-08-30T13:11:35Z</time><name>PT10304</name></trkpt>
<trkpt lat="53.256484" lon="-1.787039"><ele>213</ele><time>2019-08-30T13:11:36Z</time><name>PT10305</name></trkpt>
<trkpt lat="53.256487" lon="-1.787046"><ele>214</ele><time>2019-08-30T13:11:37Z</time><name>PT10306</name></trkpt>
<trkpt lat="53.256497" lon="-1.787051"><ele>214</ele><time>2019-08-30T13:11:38Z</time><name>PT10307</name></trkpt>
<trkpt lat="53.256504" lon="-1.787059"><ele>214</ele><time>2019-08-30T13:11:39Z</time><name>PT10308</name></trkpt>
<trkpt lat="53.256516" lon="-1.787072"><ele>215</ele><time>2019-08-30T13:11:40Z</time><name>PT10309</name></trkpt>
<trkpt lat="53.256525" lon="-1.787085"><ele>215</ele><time>2019-08-30T13:11:41Z</time><name>PT10310</name></trkpt>
<trkpt lat="53.256532" lon="-1.787095"><ele>215</ele><time>2019-08-30T13:11:42Z</time><name>PT10311</name></trkpt>
<trkpt lat="53.256537" lon="-1.787100"><ele>214</ele><time>2019-08-30T13:11:43Z</time><name>PT10312</name></trkpt>
<trkpt lat="53.256542" lon="-1.787108"><ele>214</ele><time>2019-08-30T13:11:44Z</time><name>PT10313</name></trkpt>
<trkpt lat="53.256556" lon="-1.787113"><ele>214</ele><time>2019-08-30T13:11:45Z</time><name>PT10314</name></trkpt>
<trkpt lat="53.256561" lon="-1.787126"><ele>215</ele><time>2019-08-30T13:11:46Z</time><name>PT10315</name></trkpt>
<trkpt lat="53.256565" lon="-1.787139"><ele>215</ele><time>2019-08-30T13:11:47Z</time><name>PT10316</name></trkpt>
<trkpt lat="53.256565" lon="-1.787148"><ele>215</ele><time>2019-08-30T13:11:48Z</time><name>PT10317</name></trkpt>
<trkpt lat="53.256572" lon="-1.787157"><ele>216</ele><time>2019-08-30T13:11:49Z</time><name>PT10318</name></trkpt>
<trkpt lat="53.256580" lon="-1.787169"><ele>216</ele><time>2019-08-30T13:11:50Z</time><name>PT10319</name></trkpt>
<trkpt lat="53.256587" lon="-1.787176"><ele>216</ele><time>2019-08-30T13:11:51Z</time><name>PT10320</name></trkpt>
<trkpt lat="53.256591" lon="-1.787188"><ele>216</ele><time>2019-08-30T13:11:52Z</time><name>PT10321</name></trkpt>
<trkpt lat="53.256592" lon="-1.787199"><ele>216</ele><time>2019-08-30T13:11:53Z</time><name>PT10322</name></trkpt>
<trkpt lat="53.256583" lon="-1.787207"><ele>215</ele><time>2019-08-30T13:11:54Z</time><name>PT10323</name></trkpt>
<trkpt lat="53.256583" lon="-1.787219"><ele>215</ele><time>2019-08-30T13:11:55Z</time><name>PT10324</name></trkpt>
<trkpt lat="53.256585" lon="-1.787225"><ele>214</ele><time>2019-08-30T13:11:56Z</time><name>PT10325</name></trkpt>
<trkpt lat="53.256585" lon="-1.787228"><ele>214</ele><time>2019-08-30T13:11:57Z</time><name>PT10326</name></trkpt>
<trkpt lat="53.256582" lon="-1.787234"><ele>213</ele><time>2019-08-30T13:11:58Z</time><name>PT10327</name></trkpt>
<trkpt lat="53.256586" lon="-1.787243"><ele>213</ele><time>2019-08-30T13:11:59Z</time><name>PT10328</name></trkpt>
<trkpt lat="53.256585" lon="-1.787255"><ele>212</ele><time>2019-08-30T13:12:00Z</time><name>PT10329</name></trkpt>
<trkpt lat="53.256583" lon="-1.787265"><ele>212</ele><time>2019-08-30T13:12:01Z</time><name>PT10330</name></trkpt>
<trkpt lat="53.256586" lon="-1.787275"><ele>212</ele><time>2019-08-30T13:12:02Z</time><name>PT10331</name></trkpt>
<trkpt lat="53.256587" lon="-1.787283"><ele>212</ele><time>2019-08-30T13:12:03Z</time><name>PT10332</name></trkpt>
<trkpt lat="53.256588" lon="-1.787296"><ele>211</ele><time>2019-08-30T13:12:04Z</time><name>PT10333</name></trkpt>
<trkpt lat="53.256585" lon="-1.787305"><ele>212</ele><time>2019-08-30T13:12:05Z</time><name>PT10334</name></trkpt>
<trkpt lat="53.256580" lon="-1.787318"><ele>212</ele><time>2019-08-30T13:12:06Z</time><name>PT10335</name></trkpt>
<trkpt lat="53.256577" lon="-1.787323"><ele>211</ele><time>2019-08-30T13:12:07Z</time><name>PT10336</name></trkpt>
<trkpt lat="53.256574" lon="-1.787335"><ele>210</ele><time>2019-08-30T13:12:08Z</time><name>PT10337</name></trkpt>
<trkpt lat="53.256567" lon="-1.787352"><ele>210</ele><time>2019-08-30T13:12:09Z</time><name>PT10338</name></trkpt>
<trkpt lat="53.256566" lon="-1.787368"><ele>210</ele><time>2019-08-30T13:12:10Z</time><name>PT10339</name></trkpt>
<trkpt lat="53.256566" lon="-1.787378"><ele>210</ele><time>2019-08-30T13:12:11Z</time><name>PT10340</name></trkpt>
<trkpt lat="53.256566" lon="-1.787389"><ele>209</ele><time>2019-08-30T13:12:12Z</time><name>PT10341</name></trkpt>
<trkpt lat="53.256568" lon="-1.787399"><ele>209</ele><time>2019-08-30T13:12:13Z</time><name>PT10342</name></trkpt>
<trkpt lat="53.256567" lon="-1.787406"><ele>209</ele><time>2019-08-30T13:12:14Z</time><name>PT10343</name></trkpt>
<trkpt lat="53.256566" lon="-1.787413"><ele>208</ele><time>2019-08-30T13:12:15Z</time><name>PT10344</name></trkpt>
<trkpt lat="53.256564" lon="-1.787423"><ele>209</ele><time>2019-08-30T13:12:16Z</time><name>PT10345</name></trkpt>
<trkpt lat="53.256560" lon="-1.787432"><ele>207</ele><time>2019-08-30T13:12:17Z</time><name>PT10346</name></trkpt>
<trkpt lat="53.256557" lon="-1.787441"><ele>207</ele><time>2019-08-30T13:12:18Z</time><name>PT10347</name></trkpt>
<trkpt lat="53.256553" lon="-1.787449"><ele>207</ele><time>2019-08-30T13:12:19Z</time><name>PT10348</name></trkpt>
<trkpt lat="53.256552" lon="-1.787455"><ele>208</ele><time>2019-08-30T13:12:20Z</time><name>PT10349</name></trkpt>
<trkpt lat="53.256552" lon="-1.787468"><ele>207</ele><time>2019-08-30T13:12:21Z</time><name>PT10350</name></trkpt>
<trkpt lat="53.256544" lon="-1.787484"><ele>207</ele><time>2019-08-30T13:12:22Z</time><name>PT10351</name></trkpt>
<trkpt lat="53.256544" lon="-1.787502"><ele>207</ele><time>2019-08-30T13:12:23Z</time><name>PT10352</name></trkpt>
<trkpt lat="53.256546" lon="-1.787519"><ele>206</ele><time>2019-08-30T13:12:24Z</time><name>PT10353</name></trkpt>
<trkpt lat="53.256550" lon="-1.787532"><ele>206</ele><time>2019-08-30T13:12:25Z</time><name>PT10354</name></trkpt>
<trkpt lat="53.256555" lon="-1.787548"><ele>206</ele><time>2019-08-30T13:12:26Z</time><name>PT10355</name></trkpt>
<trkpt lat="53.256555" lon="-1.787549"><ele>205</ele><time>2019-08-30T13:12:27Z</time><name>PT10356</name></trkpt>
<trkpt lat="53.256558" lon="-1.787562"><ele>205</ele><time>2019-08-30T13:12:28Z</time><name>PT10357</name></trkpt>
<trkpt lat="53.256559" lon="-1.787578"><ele>205</ele><time>2019-08-30T13:12:29Z</time><name>PT10358</name></trkpt>
<trkpt lat="53.256557" lon="-1.787591"><ele>204</ele><time>2019-08-30T13:12:30Z</time><name>PT10359</name></trkpt>
<trkpt lat="53.256560" lon="-1.787599"><ele>205</ele><time>2019-08-30T13:12:31Z</time><name>PT10360</name></trkpt>
<trkpt lat="53.256559" lon="-1.787614"><ele>206</ele><time>2019-08-30T13:12:32Z</time><name>PT10361</name></trkpt>
<trkpt lat="53.256567" lon="-1.787623"><ele>206</ele><time>2019-08-30T13:12:33Z</time><name>PT10362</name></trkpt>
<trkpt lat="53.256567" lon="-1.787630"><ele>206</ele><time>2019-08-30T13:12:34Z</time><name>PT10363</name></trkpt>
<trkpt lat="53.256570" lon="-1.787639"><ele>206</ele><time>2019-08-30T13:12:35Z</time><name>PT10364</name></trkpt>
<trkpt lat="53.256564" lon="-1.787649"><ele>205</ele><time>2019-08-30T13:12:36Z</time><name>PT10365</name></trkpt>
<trkpt lat="53.256565" lon="-1.787663"><ele>206</ele><time>2019-08-30T13:12:37Z</time><name>PT10366</name></trkpt>
<trkpt lat="53.256561" lon="-1.787683"><ele>206</ele><time>2019-08-30T13:12:38Z</time><name>PT10367</name></trkpt>
<trkpt lat="53.256565" lon="-1.787686"><ele>204</ele><time>2019-08-30T13:12:39Z</time><name>PT10368</name></trkpt>
<trkpt lat="53.256561" lon="-1.787693"><ele>204</ele><time>2019-08-30T13:12:40Z</time><name>PT10369</name></trkpt>
<trkpt lat="53.256549" lon="-1.787702"><ele>204</ele><time>2019-08-30T13:12:41Z</time><name>PT10370</name></trkpt>
<trkpt lat="53.256547" lon="-1.787718"><ele>204</ele><time>2019-08-30T13:12:42Z</time><name>PT10371</name></trkpt>
<trkpt lat="53.256541" lon="-1.787736"><ele>204</ele><time>2019-08-30T13:12:43Z</time><name>PT10372</name></trkpt>
<trkpt lat="53.256539" lon="-1.787752"><ele>204</ele><time>2019-08-30T13:12:44Z</time><name>PT10373</name></trkpt>
<trkpt lat="53.256543" lon="-1.787766"><ele>205</ele><time>2019-08-30T13:12:45Z</time><name>PT10374</name></trkpt>
<trkpt lat="53.256539" lon="-1.787786"><ele>205</ele><time>2019-08-30T13:12:46Z</time><name>PT10375</name></trkpt>
<trkpt lat="53.256533" lon="-1.787791"><ele>205</ele><time>2019-08-30T13:12:47Z</time><name>PT10376</name></trkpt>
<trkpt lat="53.256531" lon="-1.787800"><ele>204</ele><time>2019-08-30T13:12:48Z</time><name>PT10377</name></trkpt>
<trkpt lat="53.256531" lon="-1.787816"><ele>205</ele><time>2019-08-30T13:12:49Z</time><name>PT10378</name></trkpt>
<trkpt lat="53.256539" lon="-1.787833"><ele>205</ele><time>2019-08-30T13:12:50Z</time><name>PT10379</name></trkpt>
<trkpt lat="53.256543" lon="-1.787859"><ele>205</ele><time>2019-08-30T13:12:51Z</time><name>PT10380</name></trkpt>
<trkpt lat="53.256547" lon="-1.787893"><ele>206</ele><time>2019-08-30T13:12:52Z</time><name>PT10381</name></trkpt>
<trkpt lat="53.256544" lon="-1.787914"><ele>205</ele><time>2019-08-30T13:12:53Z</time><name>PT10382</name></trkpt>
<trkpt lat="53.256548" lon="-1.787927"><ele>204</ele><time>2019-08-30T13:12:54Z</time><name>PT10383</name></trkpt>
<trkpt lat="53.256542" lon="-1.787936"><ele>203</ele><time>2019-08-30T13:12:55Z</time><name>PT10384</name></trkpt>
<trkpt lat="53.256537" lon="-1.787955"><ele>203</ele><time>2019-08-30T13:12:56Z</time><name>PT10385</name></trkpt>
<trkpt lat="53.256530" lon="-1.787964"><ele>202</ele><time>2019-08-30T13:12:57Z</time><name>PT10386</name></trkpt>
<trkpt lat="53.256521" lon="-1.787978"><ele>202</ele><time>2019-08-30T13:12:58Z</time><name>PT10387</name></trkpt>
<trkpt lat="53.256520" lon="-1.788008"><ele>203</ele><time>2019-08-30T13:12:59Z</time><name>PT10388</name></trkpt>
<trkpt lat="53.256520" lon="-1.788033"><ele>203</ele><time>2019-08-30T13:13:00Z</time><name>PT10389</name></trkpt>
<trkpt lat="53.256518" lon="-1.788059"><ele>204</ele><time>2019-08-30T13:13:01Z</time><name>PT10390</name></trkpt>
<trkpt lat="53.256497" lon="-1.788071"><ele>201</ele><time>2019-08-30T13:13:02Z</time><name>PT10391</name></trkpt>
<trkpt lat="53.256495" lon="-1.788106"><ele>201</ele><time>2019-08-30T13:13:03Z</time><name>PT10392</name></trkpt>
<trkpt lat="53.256499" lon="-1.788134"><ele>202</ele><time>2019-08-30T13:13:04Z</time><name>PT10393</name></trkpt>
<trkpt lat="53.256509" lon="-1.788157"><ele>203</ele><time>2019-08-30T13:13:05Z</time><name>PT10394</name></trkpt>
<trkpt lat="53.256515" lon="-1.788182"><ele>204</ele><time>2019-08-30T13:13:06Z</time><name>PT10395</name></trkpt>
<trkpt lat="53.256524" lon="-1.788203"><ele>206</ele><time>2019-08-30T13:13:07Z</time><name>PT10396</name></trkpt>
<trkpt lat="53.256521" lon="-1.788219"><ele>206</ele><time>2019-08-30T13:13:08Z</time><name>PT10397</name></trkpt>
<trkpt lat="53.256528" lon="-1.788225"><ele>207</ele><time>2019-08-30T13:13:09Z</time><name>PT10398</name></trkpt>
<trkpt lat="53.256539" lon="-1.788233"><ele>208</ele><time>2019-08-30T13:13:10Z</time><name>PT10399</name></trkpt>
<trkpt lat="53.256549" lon="-1.788244"><ele>209</ele><time>2019-08-30T13:13:11Z</time><name>PT10400</name></trkpt>
<trkpt lat="53.256555" lon="-1.788256"><ele>209</ele><time>2019-08-30T13:13:12Z</time><name>PT10401</name></trkpt>
<trkpt lat="53.256570" lon="-1.788268"><ele>210</ele><time>2019-08-30T13:13:13Z</time><name>PT10402</name></trkpt>
<trkpt lat="53.256573" lon="-1.788272"><ele>210</ele><time>2019-08-30T13:13:14Z</time><name>PT10403</name></trkpt>
<trkpt lat="53.256570" lon="-1.788284"><ele>210</ele><time>2019-08-30T13:13:15Z</time><name>PT10404</name></trkpt>
<trkpt lat="53.256571" lon="-1.788295"><ele>209</ele><time>2019-08-30T13:13:16Z</time><name>PT10405</name></trkpt>
<trkpt lat="53.256582" lon="-1.788312"><ele>210</ele><time>2019-08-30T13:13:17Z</time><name>PT10406</name></trkpt>
<trkpt lat="53.256583" lon="-1.788298"><ele>207</ele><time>2019-08-30T13:13:18Z</time><name>PT10407</name></trkpt>
<trkpt lat="53.256571" lon="-1.788290"><ele>206</ele><time>2019-08-30T13:13:19Z</time><name>PT10408</name></trkpt>
<trkpt lat="53.256562" lon="-1.788287"><ele>205</ele><time>2019-08-30T13:13:20Z</time><name>PT10409</name></trkpt>
<trkpt lat="53.256562" lon="-1.788291"><ele>205</ele><time>2019-08-30T13:13:24Z</time><name>PT10410</name></trkpt>
<trkpt lat="53.256568" lon="-1.788299"><ele>204</ele><time>2019-08-30T13:13:25Z</time><name>PT10411</name></trkpt>
<trkpt lat="53.256574" lon="-1.788310"><ele>204</ele><time>2019-08-30T13:13:26Z</time><name>PT10412</name></trkpt>
<trkpt lat="53.256584" lon="-1.788342"><ele>204</ele><time>2019-08-30T13:13:47Z</time><name>PT10413</name></trkpt>
<trkpt lat="53.256596" lon="-1.788367"><ele>204</ele><time>2019-08-30T13:13:48Z</time><name>PT10414</name></trkpt>
<trkpt lat="53.256589" lon="-1.788368"><ele>205</ele><time>2019-08-30T13:13:49Z</time><name>PT10415</name></trkpt>
<trkpt lat="53.256588" lon="-1.788362"><ele>204</ele><time>2019-08-30T13:13:50Z</time><name>PT10416</name></trkpt>
<trkpt lat="53.256590" lon="-1.788359"><ele>204</ele><time>2019-08-30T13:13:51Z</time><name>PT10417</name></trkpt>
<trkpt lat="53.256596" lon="-1.788363"><ele>204</ele><time>2019-08-30T13:13:52Z</time><name>PT10418</name></trkpt>
<trkpt lat="53.256598" lon="-1.788372"><ele>204</ele><time>2019-08-30T13:13:53Z</time><name>PT10419</name></trkpt>
<trkpt lat="53.256602" lon="-1.788378"><ele>204</ele><time>2019-08-30T13:13:54Z</time><name>PT10420</name></trkpt>
<trkpt lat="53.256606" lon="-1.788383"><ele>203</ele><time>2019-08-30T13:13:55Z</time><name>PT10421</name></trkpt>
<trkpt lat="53.256609" lon="-1.788390"><ele>202</ele><time>2019-08-30T13:13:56Z</time><name>PT10422</name></trkpt>
<trkpt lat="53.256617" lon="-1.788400"><ele>202</ele><time>2019-08-30T13:13:57Z</time><name>PT10423</name></trkpt>
<trkpt lat="53.256622" lon="-1.788413"><ele>201</ele><time>2019-08-30T13:13:58Z</time><name>PT10424</name></trkpt>
<trkpt lat="53.256629" lon="-1.788429"><ele>201</ele><time>2019-08-30T13:13:59Z</time><name>PT10425</name></trkpt>
<trkpt lat="53.256632" lon="-1.788433"><ele>201</ele><time>2019-08-30T13:14:00Z</time><name>PT10426</name></trkpt>
<trkpt lat="53.256631" lon="-1.788435"><ele>201</ele><time>2019-08-30T13:14:01Z</time><name>PT10427</name></trkpt>
<trkpt lat="53.256624" lon="-1.788436"><ele>201</ele><time>2019-08-30T13:14:02Z</time><name>PT10428</name></trkpt>
<trkpt lat="53.256623" lon="-1.788437"><ele>201</ele><time>2019-08-30T13:14:03Z</time><name>PT10429</name></trkpt>
<trkpt lat="53.256626" lon="-1.788438"><ele>201</ele><time>2019-08-30T13:14:04Z</time><name>PT10430</name></trkpt>
<trkpt lat="53.256618" lon="-1.788451"><ele>201</ele><time>2019-08-30T13:14:06Z</time><name>PT10431</name></trkpt>
<trkpt lat="53.256611" lon="-1.788457"><ele>200</ele><time>2019-08-30T13:14:07Z</time><name>PT10432</name></trkpt>
<trkpt lat="53.256597" lon="-1.788454"><ele>200</ele><time>2019-08-30T13:14:08Z</time><name>PT10433</name></trkpt>
<trkpt lat="53.256597" lon="-1.788455"><ele>199</ele><time>2019-08-30T13:14:09Z</time><name>PT10434</name></trkpt>
<trkpt lat="53.256597" lon="-1.788459"><ele>199</ele><time>2019-08-30T13:14:16Z</time><name>PT10435</name></trkpt>
<trkpt lat="53.256599" lon="-1.788454"><ele>198</ele><time>2019-08-30T13:14:17Z</time><name>PT10436</name></trkpt>
<trkpt lat="53.256600" lon="-1.788453"><ele>198</ele><time>2019-08-30T13:14:18Z</time><name>PT10437</name></trkpt>
<trkpt lat="53.256605" lon="-1.788456"><ele>198</ele><time>2019-08-30T13:14:19Z</time><name>PT10438</name></trkpt>
<trkpt lat="53.256608" lon="-1.788461"><ele>198</ele><time>2019-08-30T13:14:20Z</time><name>PT10439</name></trkpt>
<trkpt lat="53.256611" lon="-1.788465"><ele>198</ele><time>2019-08-30T13:14:21Z</time><name>PT10440</name></trkpt>
<trkpt lat="53.256613" lon="-1.788475"><ele>197</ele><time>2019-08-30T13:14:22Z</time><name>PT10441</name></trkpt>
<trkpt lat="53.256621" lon="-1.788487"><ele>197</ele><time>2019-08-30T13:14:23Z</time><name>PT10442</name></trkpt>
<trkpt lat="53.256641" lon="-1.788492"><ele>197</ele><time>2019-08-30T13:14:24Z</time><name>PT10443</name></trkpt>
<trkpt lat="53.256641" lon="-1.788505"><ele>197</ele><time>2019-08-30T13:14:25Z</time><name>PT10444</name></trkpt>
<trkpt lat="53.256647" lon="-1.788511"><ele>198</ele><time>2019-08-30T13:14:26Z</time><name>PT10445</name></trkpt>
<trkpt lat="53.256654" lon="-1.788517"><ele>198</ele><time>2019-08-30T13:14:27Z</time><name>PT10446</name></trkpt>
<trkpt lat="53.256663" lon="-1.788524"><ele>198</ele><time>2019-08-30T13:14:28Z</time><name>PT10447</name></trkpt>
<trkpt lat="53.256667" lon="-1.788528"><ele>198</ele><time>2019-08-30T13:14:29Z</time><name>PT10448</name></trkpt>
<trkpt lat="53.256676" lon="-1.788532"><ele>198</ele><time>2019-08-30T13:14:30Z</time><name>PT10449</name></trkpt>
<trkpt lat="53.256680" lon="-1.788534"><ele>197</ele><time>2019-08-30T13:14:31Z</time><name>PT10450</name></trkpt>
<trkpt lat="53.256684" lon="-1.788535"><ele>197</ele><time>2019-08-30T13:14:32Z</time><name>PT10451</name></trkpt>
<trkpt lat="53.256698" lon="-1.788533"><ele>197</ele><time>2019-08-30T13:14:33Z</time><name>PT10452</name></trkpt>
<trkpt lat="53.256705" lon="-1.788535"><ele>197</ele><time>2019-08-30T13:14:34Z</time><name>PT10453</name></trkpt>
<trkpt lat="53.256712" lon="-1.788534"><ele>196</ele><time>2019-08-30T13:14:35Z</time><name>PT10454</name></trkpt>
<trkpt lat="53.256715" lon="-1.788534"><ele>196</ele><time>2019-08-30T13:14:36Z</time><name>PT10455</name></trkpt>
<trkpt lat="53.256716" lon="-1.788538"><ele>196</ele><time>2019-08-30T13:14:37Z</time><name>PT10456</name></trkpt>
<trkpt lat="53.256718" lon="-1.788539"><ele>196</ele><time>2019-08-30T13:14:38Z</time><name>PT10457</name></trkpt>
<trkpt lat="53.256728" lon="-1.788528"><ele>196</ele><time>2019-08-30T13:14:43Z</time><name>PT10458</name></trkpt>
<trkpt lat="53.256733" lon="-1.788524"><ele>196</ele><time>2019-08-30T13:14:44Z</time><name>PT10459</name></trkpt>
<trkpt lat="53.256738" lon="-1.788517"><ele>196</ele><time>2019-08-30T13:14:45Z</time><name>PT10460</name></trkpt>
<trkpt lat="53.256744" lon="-1.788525"><ele>196</ele><time>2019-08-30T13:14:46Z</time><name>PT10461</name></trkpt>
<trkpt lat="53.256743" lon="-1.788532"><ele>195</ele><time>2019-08-30T13:14:49Z</time><name>PT10462</name></trkpt>
<trkpt lat="53.256748" lon="-1.788539"><ele>195</ele><time>2019-08-30T13:14:50Z</time><name>PT10463</name></trkpt>
<trkpt lat="53.256752" lon="-1.788554"><ele>195</ele><time>2019-08-30T13:14:51Z</time><name>PT10464</name></trkpt>
<trkpt lat="53.256757" lon="-1.788571"><ele>195</ele><time>2019-08-30T13:14:52Z</time><name>PT10465</name></trkpt>
<trkpt lat="53.256762" lon="-1.788586"><ele>194</ele><time>2019-08-30T13:14:53Z</time><name>PT10466</name></trkpt>
<trkpt lat="53.256764" lon="-1.788597"><ele>193</ele><time>2019-08-30T13:14:54Z</time><name>PT10467</name></trkpt>
<trkpt lat="53.256768" lon="-1.788606"><ele>193</ele><time>2019-08-30T13:14:55Z</time><name>PT10468</name></trkpt>
<trkpt lat="53.256771" lon="-1.788620"><ele>192</ele><time>2019-08-30T13:14:56Z</time><name>PT10469</name></trkpt>
<trkpt lat="53.256765" lon="-1.788632"><ele>191</ele><time>2019-08-30T13:14:57Z</time><name>PT10470</name></trkpt>
<trkpt lat="53.256769" lon="-1.788640"><ele>192</ele><time>2019-08-30T13:14:58Z</time><name>PT10471</name></trkpt>
<trkpt lat="53.256771" lon="-1.788645"><ele>192</ele><time>2019-08-30T13:14:59Z</time><name>PT10472</name></trkpt>
<trkpt lat="53.256776" lon="-1.788652"><ele>192</ele><time>2019-08-30T13:15:00Z</time><name>PT10473</name></trkpt>
<trkpt lat="53.256782" lon="-1.788664"><ele>192</ele><time>2019-08-30T13:15:01Z</time><name>PT10474</name></trkpt>
<trkpt lat="53.256785" lon="-1.788684"><ele>192</ele><time>2019-08-30T13:15:02Z</time><name>PT10475</name></trkpt>
<trkpt lat="53.256791" lon="-1.788704"><ele>193</ele><time>2019-08-30T13:15:03Z</time><name>PT10476</name></trkpt>
<trkpt lat="53.256789" lon="-1.788719"><ele>192</ele><time>2019-08-30T13:15:04Z</time><name>PT10477</name></trkpt>
<trkpt lat="53.256795" lon="-1.788735"><ele>193</ele><time>2019-08-30T13:15:05Z</time><name>PT10478</name></trkpt>
<trkpt lat="53.256799" lon="-1.788755"><ele>193</ele><time>2019-08-30T13:15:06Z</time><name>PT10479</name></trkpt>
<trkpt lat="53.256804" lon="-1.788762"><ele>193</ele><time>2019-08-30T13:15:07Z</time><name>PT10480</name></trkpt>
<trkpt lat="53.256811" lon="-1.788763"><ele>194</ele><time>2019-08-30T13:15:08Z</time><name>PT10481</name></trkpt>
<trkpt lat="53.256810" lon="-1.788768"><ele>195</ele><time>2019-08-30T13:15:09Z</time><name>PT10482</name></trkpt>
<trkpt lat="53.256805" lon="-1.788774"><ele>194</ele><time>2019-08-30T13:15:10Z</time><name>PT10483</name></trkpt>
<trkpt lat="53.256805" lon="-1.788781"><ele>194</ele><time>2019-08-30T13:15:11Z</time><name>PT10484</name></trkpt>
<trkpt lat="53.256806" lon="-1.788787"><ele>194</ele><time>2019-08-30T13:15:12Z</time><name>PT10485</name></trkpt>
<trkpt lat="53.256811" lon="-1.788787"><ele>195</ele><time>2019-08-30T13:15:13Z</time><name>PT10486</name></trkpt>
<trkpt lat="53.256809" lon="-1.788786"><ele>195</ele><time>2019-08-30T13:15:14Z</time><name>PT10487</name></trkpt>
<trkpt lat="53.256813" lon="-1.788813"><ele>195</ele><time>2019-08-30T13:15:50Z</time><name>PT10488</name></trkpt>
<trkpt lat="53.256812" lon="-1.788814"><ele>195</ele><time>2019-08-30T13:15:51Z</time><name>PT10489</name></trkpt>
<trkpt lat="53.256812" lon="-1.788817"><ele>195</ele><time>2019-08-30T13:15:52Z</time><name>PT10490</name></trkpt>
<trkpt lat="53.256811" lon="-1.788824"><ele>195</ele><time>2019-08-30T13:16:06Z</time><name>PT10491</name></trkpt>
<trkpt lat="53.256810" lon="-1.788844"><ele>195</ele><time>2019-08-30T13:16:07Z</time><name>PT10492</name></trkpt>
<trkpt lat="53.256807" lon="-1.788867"><ele>196</ele><time>2019-08-30T13:16:08Z</time><name>PT10493</name></trkpt>
<trkpt lat="53.256802" lon="-1.788891"><ele>196</ele><time>2019-08-30T13:16:09Z</time><name>PT10494</name></trkpt>
<trkpt lat="53.256795" lon="-1.788911"><ele>196</ele><time>2019-08-30T13:16:10Z</time><name>PT10495</name></trkpt>
<trkpt lat="53.256790" lon="-1.788937"><ele>196</ele><time>2019-08-30T13:16:11Z</time><name>PT10496</name></trkpt>
<trkpt lat="53.256785" lon="-1.788959"><ele>197</ele><time>2019-08-30T13:16:12Z</time><name>PT10497</name></trkpt>
<trkpt lat="53.256783" lon="-1.788970"><ele>197</ele><time>2019-08-30T13:16:13Z</time><name>PT10498</name></trkpt>
<trkpt lat="53.256778" lon="-1.788988"><ele>197</ele><time>2019-08-30T13:16:14Z</time><name>PT10499</name></trkpt>
<trkpt lat="53.256772" lon="-1.789004"><ele>197</ele><time>2019-08-30T13:16:15Z</time><name>PT10500</name></trkpt>
<trkpt lat="53.256764" lon="-1.789026"><ele>197</ele><time>2019-08-30T13:16:16Z</time><name>PT10501</name></trkpt>
<trkpt lat="53.256757" lon="-1.789048"><ele>197</ele><time>2019-08-30T13:16:17Z</time><name>PT10502</name></trkpt>
<trkpt lat="53.256756" lon="-1.789064"><ele>198</ele><time>2019-08-30T13:16:18Z</time><name>PT10503</name></trkpt>
<trkpt lat="53.256754" lon="-1.789073"><ele>198</ele><time>2019-08-30T13:16:19Z</time><name>PT10504</name></trkpt>
<trkpt lat="53.256748" lon="-1.789095"><ele>198</ele><time>2019-08-30T13:16:20Z</time><name>PT10505</name></trkpt>
<trkpt lat="53.256741" lon="-1.789114"><ele>198</ele><time>2019-08-30T13:16:21Z</time><name>PT10506</name></trkpt>
<trkpt lat="53.256731" lon="-1.789137"><ele>199</ele><time>2019-08-30T13:16:22Z</time><name>PT10507</name></trkpt>
<trkpt lat="53.256725" lon="-1.789158"><ele>199</ele><time>2019-08-30T13:16:23Z</time><name>PT10508</name></trkpt>
<trkpt lat="53.256715" lon="-1.789184"><ele>199</ele><time>2019-08-30T13:16:24Z</time><name>PT10509</name></trkpt>
<trkpt lat="53.256710" lon="-1.789201"><ele>199</ele><time>2019-08-30T13:16:25Z</time><name>PT10510</name></trkpt>
<trkpt lat="53.256701" lon="-1.789218"><ele>199</ele><time>2019-08-30T13:16:26Z</time><name>PT10511</name></trkpt>
<trkpt lat="53.256699" lon="-1.789234"><ele>199</ele><time>2019-08-30T13:16:27Z</time><name>PT10512</name></trkpt>
<trkpt lat="53.256698" lon="-1.789249"><ele>198</ele><time>2019-08-30T13:16:28Z</time><name>PT10513</name></trkpt>
<trkpt lat="53.256698" lon="-1.789262"><ele>199</ele><time>2019-08-30T13:16:29Z</time><name>PT10514</name></trkpt>
<trkpt lat="53.256698" lon="-1.789268"><ele>199</ele><time>2019-08-30T13:16:30Z</time><name>PT10515</name></trkpt>
<trkpt lat="53.256694" lon="-1.789279"><ele>198</ele><time>2019-08-30T13:16:31Z</time><name>PT10516</name></trkpt>
<trkpt lat="53.256690" lon="-1.789292"><ele>198</ele><time>2019-08-30T13:16:32Z</time><name>PT10517</name></trkpt>
<trkpt lat="53.256687" lon="-1.789314"><ele>198</ele><time>2019-08-30T13:16:33Z</time><name>PT10518</name></trkpt>
<trkpt lat="53.256685" lon="-1.789332"><ele>198</ele><time>2019-08-30T13:16:34Z</time><name>PT10519</name></trkpt>
<trkpt lat="53.256689" lon="-1.789349"><ele>200</ele><time>2019-08-30T13:16:35Z</time><name>PT10520</name></trkpt>
<trkpt lat="53.256689" lon="-1.789364"><ele>200</ele><time>2019-08-30T13:16:36Z</time><name>PT10521</name></trkpt>
<trkpt lat="53.256695" lon="-1.789384"><ele>200</ele><time>2019-08-30T13:16:37Z</time><name>PT10522</name></trkpt>
<trkpt lat="53.256695" lon="-1.789409"><ele>200</ele><time>2019-08-30T13:16:38Z</time><name>PT10523</name></trkpt>
<trkpt lat="53.256691" lon="-1.789442"><ele>200</ele><time>2019-08-30T13:16:39Z</time><name>PT10524</name></trkpt>
<trkpt lat="53.256687" lon="-1.789471"><ele>201</ele><time>2019-08-30T13:16:40Z</time><name>PT10525</name></trkpt>
<trkpt lat="53.256680" lon="-1.789498"><ele>202</ele><time>2019-08-30T13:16:41Z</time><name>PT10526</name></trkpt>
<trkpt lat="53.256678" lon="-1.789519"><ele>202</ele><time>2019-08-30T13:16:42Z</time><name>PT10527</name></trkpt>
<trkpt lat="53.256673" lon="-1.789545"><ele>201</ele><time>2019-08-30T13:16:43Z</time><name>PT10528</name></trkpt>
<trkpt lat="53.256671" lon="-1.789574"><ele>201</ele><time>2019-08-30T13:16:44Z</time><name>PT10529</name></trkpt>
<trkpt lat="53.256670" lon="-1.789597"><ele>202</ele><time>2019-08-30T13:16:45Z</time><name>PT10530</name></trkpt>
<trkpt lat="53.256668" lon="-1.789612"><ele>202</ele><time>2019-08-30T13:16:46Z</time><name>PT10531</name></trkpt>
<trkpt lat="53.256665" lon="-1.789633"><ele>202</ele><time>2019-08-30T13:16:47Z</time><name>PT10532</name></trkpt>
<trkpt lat="53.256661" lon="-1.789654"><ele>201</ele><time>2019-08-30T13:16:48Z</time><name>PT10533</name></trkpt>
<trkpt lat="53.256656" lon="-1.789677"><ele>202</ele><time>2019-08-30T13:16:49Z</time><name>PT10534</name></trkpt>
<trkpt lat="53.256653" lon="-1.789700"><ele>202</ele><time>2019-08-30T13:16:50Z</time><name>PT10535</name></trkpt>
<trkpt lat="53.256650" lon="-1.789717"><ele>202</ele><time>2019-08-30T13:16:51Z</time><name>PT10536</name></trkpt>
<trkpt lat="53.256649" lon="-1.789734"><ele>202</ele><time>2019-08-30T13:16:52Z</time><name>PT10537</name></trkpt>
<trkpt lat="53.256642" lon="-1.789758"><ele>201</ele><time>2019-08-30T13:16:53Z</time><name>PT10538</name></trkpt>
<trkpt lat="53.256633" lon="-1.789782"><ele>201</ele><time>2019-08-30T13:16:54Z</time><name>PT10539</name></trkpt>
<trkpt lat="53.256620" lon="-1.789804"><ele>199</ele><time>2019-08-30T13:16:55Z</time><name>PT10540</name></trkpt>
<trkpt lat="53.256615" lon="-1.789831"><ele>199</ele><time>2019-08-30T13:16:56Z</time><name>PT10541</name></trkpt>
<trkpt lat="53.256616" lon="-1.789850"><ele>200</ele><time>2019-08-30T13:16:57Z</time><name>PT10542</name></trkpt>
<trkpt lat="53.256613" lon="-1.789864"><ele>200</ele><time>2019-08-30T13:16:58Z</time><name>PT10543</name></trkpt>
<trkpt lat="53.256608" lon="-1.789880"><ele>200</ele><time>2019-08-30T13:16:59Z</time><name>PT10544</name></trkpt>
<trkpt lat="53.256601" lon="-1.789900"><ele>199</ele><time>2019-08-30T13:17:00Z</time><name>PT10545</name></trkpt>
<trkpt lat="53.256597" lon="-1.789920"><ele>199</ele><time>2019-08-30T13:17:01Z</time><name>PT10546</name></trkpt>
<trkpt lat="53.256591" lon="-1.789946"><ele>199</ele><time>2019-08-30T13:17:02Z</time><name>PT10547</name></trkpt>
<trkpt lat="53.256582" lon="-1.789974"><ele>198</ele><time>2019-08-30T13:17:03Z</time><name>PT10548</name></trkpt>
<trkpt lat="53.256579" lon="-1.789995"><ele>199</ele><time>2019-08-30T13:17:04Z</time><name>PT10549</name></trkpt>
<trkpt lat="53.256578" lon="-1.790004"><ele>199</ele><time>2019-08-30T13:17:05Z</time><name>PT10550</name></trkpt>
<trkpt lat="53.256573" lon="-1.790019"><ele>199</ele><time>2019-08-30T13:17:06Z</time><name>PT10551</name></trkpt>
<trkpt lat="53.256568" lon="-1.790040"><ele>199</ele><time>2019-08-30T13:17:07Z</time><name>PT10552</name></trkpt>
<trkpt lat="53.256564" lon="-1.790062"><ele>198</ele><time>2019-08-30T13:17:08Z</time><name>PT10553</name></trkpt>
<trkpt lat="53.256561" lon="-1.790082"><ele>199</ele><time>2019-08-30T13:17:09Z</time><name>PT10554</name></trkpt>
<trkpt lat="53.256556" lon="-1.790099"><ele>199</ele><time>2019-08-30T13:17:10Z</time><name>PT10555</name></trkpt>
<trkpt lat="53.256551" lon="-1.790115"><ele>199</ele><time>2019-08-30T13:17:11Z</time><name>PT10556</name></trkpt>
<trkpt lat="53.256549" lon="-1.790132"><ele>199</ele><time>2019-08-30T13:17:12Z</time><name>PT10557</name></trkpt>
<trkpt lat="53.256549" lon="-1.790150"><ele>200</ele><time>2019-08-30T13:17:13Z</time><name>PT10558</name></trkpt>
<trkpt lat="53.256544" lon="-1.790170"><ele>200</ele><time>2019-08-30T13:17:14Z</time><name>PT10559</name></trkpt>
<trkpt lat="53.256538" lon="-1.790196"><ele>200</ele><time>2019-08-30T13:17:15Z</time><name>PT10560</name></trkpt>
<trkpt lat="53.256537" lon="-1.790226"><ele>200</ele><time>2019-08-30T13:17:16Z</time><name>PT10561</name></trkpt>
<trkpt lat="53.256533" lon="-1.790243"><ele>200</ele><time>2019-08-30T13:17:17Z</time><name>PT10562</name></trkpt>
<trkpt lat="53.256524" lon="-1.790260"><ele>199</ele><time>2019-08-30T13:17:18Z</time><name>PT10563</name></trkpt>
<trkpt lat="53.256519" lon="-1.790276"><ele>199</ele><time>2019-08-30T13:17:19Z</time><name>PT10564</name></trkpt>
<trkpt lat="53.256514" lon="-1.790296"><ele>198</ele><time>2019-08-30T13:17:20Z</time><name>PT10565</name></trkpt>
<trkpt lat="53.256506" lon="-1.790319"><ele>199</ele><time>2019-08-30T13:17:21Z</time><name>PT10566</name></trkpt>
<trkpt lat="53.256498" lon="-1.790353"><ele>199</ele><time>2019-08-30T13:17:22Z</time><name>PT10567</name></trkpt>
<trkpt lat="53.256494" lon="-1.790379"><ele>200</ele><time>2019-08-30T13:17:23Z</time><name>PT10568</name></trkpt>
<trkpt lat="53.256489" lon="-1.790399"><ele>201</ele><time>2019-08-30T13:17:24Z</time><name>PT10569</name></trkpt>
<trkpt lat="53.256480" lon="-1.790414"><ele>200</ele><time>2019-08-30T13:17:25Z</time><name>PT10570</name></trkpt>
<trkpt lat="53.256487" lon="-1.790432"><ele>201</ele><time>2019-08-30T13:17:26Z</time><name>PT10571</name></trkpt>
<trkpt lat="53.256485" lon="-1.790453"><ele>201</ele><time>2019-08-30T13:17:27Z</time><name>PT10572</name></trkpt>
<trkpt lat="53.256479" lon="-1.790476"><ele>200</ele><time>2019-08-30T13:17:28Z</time><name>PT10573</name></trkpt>
<trkpt lat="53.256472" lon="-1.790503"><ele>200</ele><time>2019-08-30T13:17:29Z</time><name>PT10574</name></trkpt>
<trkpt lat="53.256467" lon="-1.790534"><ele>201</ele><time>2019-08-30T13:17:30Z</time><name>PT10575</name></trkpt>
<trkpt lat="53.256461" lon="-1.790559"><ele>201</ele><time>2019-08-30T13:17:31Z</time><name>PT10576</name></trkpt>
<trkpt lat="53.256458" lon="-1.790573"><ele>201</ele><time>2019-08-30T13:17:32Z</time><name>PT10577</name></trkpt>
<trkpt lat="53.256454" lon="-1.790586"><ele>201</ele><time>2019-08-30T13:17:33Z</time><name>PT10578</name></trkpt>
<trkpt lat="53.256446" lon="-1.790604"><ele>200</ele><time>2019-08-30T13:17:34Z</time><name>PT10579</name></trkpt>
<trkpt lat="53.256444" lon="-1.790616"><ele>200</ele><time>2019-08-30T13:17:35Z</time><name>PT10580</name></trkpt>
<trkpt lat="53.256437" lon="-1.790633"><ele>201</ele><time>2019-08-30T13:17:36Z</time><name>PT10581</name></trkpt>
<trkpt lat="53.256437" lon="-1.790659"><ele>202</ele><time>2019-08-30T13:17:37Z</time><name>PT10582</name></trkpt>
<trkpt lat="53.256433" lon="-1.790679"><ele>203</ele><time>2019-08-30T13:17:38Z</time><name>PT10583</name></trkpt>
<trkpt lat="53.256426" lon="-1.790695"><ele>203</ele><time>2019-08-30T13:17:39Z</time><name>PT10584</name></trkpt>
<trkpt lat="53.256422" lon="-1.790708"><ele>204</ele><time>2019-08-30T13:17:40Z</time><name>PT10585</name></trkpt>
<trkpt lat="53.256418" lon="-1.790722"><ele>204</ele><time>2019-08-30T13:17:41Z</time><name>PT10586</name></trkpt>
<trkpt lat="53.256419" lon="-1.790735"><ele>205</ele><time>2019-08-30T13:17:42Z</time><name>PT10587</name></trkpt>
<trkpt lat="53.256411" lon="-1.790755"><ele>205</ele><time>2019-08-30T13:17:43Z</time><name>PT10588</name></trkpt>
<trkpt lat="53.256401" lon="-1.790775"><ele>205</ele><time>2019-08-30T13:17:44Z</time><name>PT10589</name></trkpt>
<trkpt lat="53.256396" lon="-1.790800"><ele>206</ele><time>2019-08-30T13:17:45Z</time><name>PT10590</name></trkpt>
<trkpt lat="53.256386" lon="-1.790820"><ele>206</ele><time>2019-08-30T13:17:46Z</time><name>PT10591</name></trkpt>
<trkpt lat="53.256381" lon="-1.790832"><ele>207</ele><time>2019-08-30T13:17:47Z</time><name>PT10592</name></trkpt>
<trkpt lat="53.256379" lon="-1.790844"><ele>207</ele><time>2019-08-30T13:17:48Z</time><name>PT10593</name></trkpt>
<trkpt lat="53.256374" lon="-1.790854"><ele>209</ele><time>2019-08-30T13:17:49Z</time><name>PT10594</name></trkpt>
<trkpt lat="53.256370" lon="-1.790867"><ele>209</ele><time>2019-08-30T13:17:50Z</time><name>PT10595</name></trkpt>
<trkpt lat="53.256365" lon="-1.790885"><ele>210</ele><time>2019-08-30T13:17:51Z</time><name>PT10596</name></trkpt>
<trkpt lat="53.256356" lon="-1.790905"><ele>210</ele><time>2019-08-30T13:17:52Z</time><name>PT10597</name></trkpt>
<trkpt lat="53.256348" lon="-1.790925"><ele>210</ele><time>2019-08-30T13:17:53Z</time><name>PT10598</name></trkpt>
<trkpt lat="53.256340" lon="-1.790949"><ele>210</ele><time>2019-08-30T13:17:54Z</time><name>PT10599</name></trkpt>
<trkpt lat="53.256336" lon="-1.790966"><ele>210</ele><time>2019-08-30T13:17:55Z</time><name>PT10600</name></trkpt>
<trkpt lat="53.256329" lon="-1.790985"><ele>210</ele><time>2019-08-30T13:17:56Z</time><name>PT10601</name></trkpt>
<trkpt lat="53.256324" lon="-1.791004"><ele>211</ele><time>2019-08-30T13:17:57Z</time><name>PT10602</name></trkpt>
<trkpt lat="53.256321" lon="-1.791024"><ele>211</ele><time>2019-08-30T13:17:58Z</time><name>PT10603</name></trkpt>
<trkpt lat="53.256321" lon="-1.791038"><ele>210</ele><time>2019-08-30T13:17:59Z</time><name>PT10604</name></trkpt>
<trkpt lat="53.256316" lon="-1.791051"><ele>210</ele><time>2019-08-30T13:18:00Z</time><name>PT10605</name></trkpt>
<trkpt lat="53.256309" lon="-1.791064"><ele>210</ele><time>2019-08-30T13:18:01Z</time><name>PT10606</name></trkpt>
<trkpt lat="53.256305" lon="-1.791077"><ele>211</ele><time>2019-08-30T13:18:02Z</time><name>PT10607</name></trkpt>
<trkpt lat="53.256300" lon="-1.791097"><ele>210</ele><time>2019-08-30T13:18:03Z</time><name>PT10608</name></trkpt>
<trkpt lat="53.256302" lon="-1.791114"><ele>210</ele><time>2019-08-30T13:18:04Z</time><name>PT10609</name></trkpt>
<trkpt lat="53.256292" lon="-1.791134"><ele>209</ele><time>2019-08-30T13:18:05Z</time><name>PT10610</name></trkpt>
<trkpt lat="53.256281" lon="-1.791157"><ele>207</ele><time>2019-08-30T13:18:06Z</time><name>PT10611</name></trkpt>
<trkpt lat="53.256277" lon="-1.791180"><ele>207</ele><time>2019-08-30T13:18:07Z</time><name>PT10612</name></trkpt>
<trkpt lat="53.256273" lon="-1.791199"><ele>207</ele><time>2019-08-30T13:18:08Z</time><name>PT10613</name></trkpt>
<trkpt lat="53.256272" lon="-1.791215"><ele>208</ele><time>2019-08-30T13:18:09Z</time><name>PT10614</name></trkpt>
<trkpt lat="53.256273" lon="-1.791231"><ele>208</ele><time>2019-08-30T13:18:10Z</time><name>PT10615</name></trkpt>
<trkpt lat="53.256266" lon="-1.791257"><ele>206</ele><time>2019-08-30T13:18:11Z</time><name>PT10616</name></trkpt>
<trkpt lat="53.256257" lon="-1.791279"><ele>206</ele><time>2019-08-30T13:18:12Z</time><name>PT10617</name></trkpt>
<trkpt lat="53.256245" lon="-1.791304"><ele>206</ele><time>2019-08-30T13:18:13Z</time><name>PT10618</name></trkpt>
<trkpt lat="53.256240" lon="-1.791323"><ele>205</ele><time>2019-08-30T13:18:14Z</time><name>PT10619</name></trkpt>
<trkpt lat="53.256234" lon="-1.791342"><ele>203</ele><time>2019-08-30T13:18:15Z</time><name>PT10620</name></trkpt>
<trkpt lat="53.256230" lon="-1.791358"><ele>202</ele><time>2019-08-30T13:18:16Z</time><name>PT10621</name></trkpt>
<trkpt lat="53.256227" lon="-1.791373"><ele>202</ele><time>2019-08-30T13:18:17Z</time><name>PT10622</name></trkpt>
<trkpt lat="53.256217" lon="-1.791385"><ele>200</ele><time>2019-08-30T13:18:18Z</time><name>PT10623</name></trkpt>
<trkpt lat="53.256209" lon="-1.791402"><ele>199</ele><time>2019-08-30T13:18:19Z</time><name>PT10624</name></trkpt>
<trkpt lat="53.256205" lon="-1.791430"><ele>198</ele><time>2019-08-30T13:18:20Z</time><name>PT10625</name></trkpt>
<trkpt lat="53.256195" lon="-1.791454"><ele>198</ele><time>2019-08-30T13:18:21Z</time><name>PT10626</name></trkpt>
<trkpt lat="53.256192" lon="-1.791477"><ele>199</ele><time>2019-08-30T13:18:22Z</time><name>PT10627</name></trkpt>
<trkpt lat="53.256182" lon="-1.791505"><ele>200</ele><time>2019-08-30T13:18:23Z</time><name>PT10628</name></trkpt>
<trkpt lat="53.256175" lon="-1.791520"><ele>200</ele><time>2019-08-30T13:18:24Z</time><name>PT10629</name></trkpt>
<trkpt lat="53.256172" lon="-1.791534"><ele>198</ele><time>2019-08-30T13:18:25Z</time><name>PT10630</name></trkpt>
<trkpt lat="53.256167" lon="-1.791546"><ele>197</ele><time>2019-08-30T13:18:26Z</time><name>PT10631</name></trkpt>
<trkpt lat="53.256163" lon="-1.791563"><ele>196</ele><time>2019-08-30T13:18:27Z</time><name>PT10632</name></trkpt>
<trkpt lat="53.256157" lon="-1.791579"><ele>195</ele><time>2019-08-30T13:18:28Z</time><name>PT10633</name></trkpt>
<trkpt lat="53.256147" lon="-1.791602"><ele>195</ele><time>2019-08-30T13:18:29Z</time><name>PT10634</name></trkpt>
<trkpt lat="53.256136" lon="-1.791629"><ele>195</ele><time>2019-08-30T13:18:30Z</time><name>PT10635</name></trkpt>
<trkpt lat="53.256121" lon="-1.791655"><ele>197</ele><time>2019-08-30T13:18:31Z</time><name>PT10636</name></trkpt>
<trkpt lat="53.256114" lon="-1.791676"><ele>198</ele><time>2019-08-30T13:18:32Z</time><name>PT10637</name></trkpt>
<trkpt lat="53.256105" lon="-1.791696"><ele>198</ele><time>2019-08-30T13:18:33Z</time><name>PT10638</name></trkpt>
<trkpt lat="53.256094" lon="-1.791715"><ele>198</ele><time>2019-08-30T13:18:34Z</time><name>PT10639</name></trkpt>
<trkpt lat="53.256080" lon="-1.791730"><ele>198</ele><time>2019-08-30T13:18:35Z</time><name>PT10640</name></trkpt>
<trkpt lat="53.256070" lon="-1.791749"><ele>199</ele><time>2019-08-30T13:18:36Z</time><name>PT10641</name></trkpt>
<trkpt lat="53.256051" lon="-1.791771"><ele>198</ele><time>2019-08-30T13:18:37Z</time><name>PT10642</name></trkpt>
<trkpt lat="53.256038" lon="-1.791792"><ele>198</ele><time>2019-08-30T13:18:38Z</time><name>PT10643</name></trkpt>
<trkpt lat="53.256026" lon="-1.791817"><ele>198</ele><time>2019-08-30T13:18:39Z</time><name>PT10644</name></trkpt>
<trkpt lat="53.256023" lon="-1.791834"><ele>198</ele><time>2019-08-30T13:18:40Z</time><name>PT10645</name></trkpt>
<trkpt lat="53.256017" lon="-1.791845"><ele>199</ele><time>2019-08-30T13:18:41Z</time><name>PT10646</name></trkpt>
<trkpt lat="53.256006" lon="-1.791864"><ele>199</ele><time>2019-08-30T13:18:42Z</time><name>PT10647</name></trkpt>
<trkpt lat="53.255997" lon="-1.791878"><ele>199</ele><time>2019-08-30T13:18:43Z</time><name>PT10648</name></trkpt>
<trkpt lat="53.255998" lon="-1.791891"><ele>199</ele><time>2019-08-30T13:18:44Z</time><name>PT10649</name></trkpt>
<trkpt lat="53.255998" lon="-1.791910"><ele>199</ele><time>2019-08-30T13:18:45Z</time><name>PT10650</name></trkpt>
<trkpt lat="53.255991" lon="-1.791933"><ele>199</ele><time>2019-08-30T13:18:46Z</time><name>PT10651</name></trkpt>
<trkpt lat="53.255982" lon="-1.791947"><ele>197</ele><time>2019-08-30T13:18:47Z</time><name>PT10652</name></trkpt>
<trkpt lat="53.255981" lon="-1.791955"><ele>198</ele><time>2019-08-30T13:18:48Z</time><name>PT10653</name></trkpt>
<trkpt lat="53.255974" lon="-1.791971"><ele>199</ele><time>2019-08-30T13:18:49Z</time><name>PT10654</name></trkpt>
<trkpt lat="53.255968" lon="-1.791995"><ele>202</ele><time>2019-08-30T13:18:50Z</time><name>PT10655</name></trkpt>
<trkpt lat="53.255964" lon="-1.792014"><ele>202</ele><time>2019-08-30T13:18:51Z</time><name>PT10656</name></trkpt>
<trkpt lat="53.255955" lon="-1.792040"><ele>203</ele><time>2019-08-30T13:18:52Z</time><name>PT10657</name></trkpt>
<trkpt lat="53.255947" lon="-1.792060"><ele>203</ele><time>2019-08-30T13:18:53Z</time><name>PT10658</name></trkpt>
<trkpt lat="53.255933" lon="-1.792079"><ele>203</ele><time>2019-08-30T13:18:54Z</time><name>PT10659</name></trkpt>
<trkpt lat="53.255924" lon="-1.792102"><ele>203</ele><time>2019-08-30T13:18:55Z</time><name>PT10660</name></trkpt>
<trkpt lat="53.255910" lon="-1.792125"><ele>203</ele><time>2019-08-30T13:18:56Z</time><name>PT10661</name></trkpt>
<trkpt lat="53.255906" lon="-1.792144"><ele>203</ele><time>2019-08-30T13:18:57Z</time><name>PT10662</name></trkpt>
<trkpt lat="53.255900" lon="-1.792160"><ele>202</ele><time>2019-08-30T13:18:58Z</time><name>PT10663</name></trkpt>
<trkpt lat="53.255897" lon="-1.792175"><ele>203</ele><time>2019-08-30T13:18:59Z</time><name>PT10664</name></trkpt>
<trkpt lat="53.255890" lon="-1.792189"><ele>203</ele><time>2019-08-30T13:19:00Z</time><name>PT10665</name></trkpt>
<trkpt lat="53.255881" lon="-1.792206"><ele>202</ele><time>2019-08-30T13:19:01Z</time><name>PT10666</name></trkpt>
<trkpt lat="53.255870" lon="-1.792225"><ele>202</ele><time>2019-08-30T13:19:02Z</time><name>PT10667</name></trkpt>
<trkpt lat="53.255859" lon="-1.792235"><ele>204</ele><time>2019-08-30T13:19:03Z</time><name>PT10668</name></trkpt>
<trkpt lat="53.255853" lon="-1.792250"><ele>205</ele><time>2019-08-30T13:19:04Z</time><name>PT10669</name></trkpt>
<trkpt lat="53.255859" lon="-1.792279"><ele>208</ele><time>2019-08-30T13:19:05Z</time><name>PT10670</name></trkpt>
<trkpt lat="53.255858" lon="-1.792295"><ele>211</ele><time>2019-08-30T13:19:06Z</time><name>PT10671</name></trkpt>
<trkpt lat="53.255853" lon="-1.792308"><ele>210</ele><time>2019-08-30T13:19:07Z</time><name>PT10672</name></trkpt>
<trkpt lat="53.255844" lon="-1.792311"><ele>212</ele><time>2019-08-30T13:19:08Z</time><name>PT10673</name></trkpt>
<trkpt lat="53.255831" lon="-1.792330"><ele>213</ele><time>2019-08-30T13:19:09Z</time><name>PT10674</name></trkpt>
<trkpt lat="53.255824" lon="-1.792343"><ele>215</ele><time>2019-08-30T13:19:10Z</time><name>PT10675</name></trkpt>
<trkpt lat="53.255821" lon="-1.792362"><ele>216</ele><time>2019-08-30T13:19:11Z</time><name>PT10676</name></trkpt>
<trkpt lat="53.255810" lon="-1.792380"><ele>218</ele><time>2019-08-30T13:19:12Z</time><name>PT10677</name></trkpt>
<trkpt lat="53.255797" lon="-1.792404"><ele>219</ele><time>2019-08-30T13:19:13Z</time><name>PT10678</name></trkpt>
<trkpt lat="53.255805" lon="-1.792419"><ele>219</ele><time>2019-08-30T13:19:14Z</time><name>PT10679</name></trkpt>
<trkpt lat="53.255797" lon="-1.792440"><ele>220</ele><time>2019-08-30T13:19:15Z</time><name>PT10680</name></trkpt>
<trkpt lat="53.255786" lon="-1.792452"><ele>220</ele><time>2019-08-30T13:19:16Z</time><name>PT10681</name></trkpt>
<trkpt lat="53.255786" lon="-1.792468"><ele>220</ele><time>2019-08-30T13:19:17Z</time><name>PT10682</name></trkpt>
<trkpt lat="53.255779" lon="-1.792468"><ele>220</ele><time>2019-08-30T13:19:18Z</time><name>PT10683</name></trkpt>
<trkpt lat="53.255767" lon="-1.792481"><ele>219</ele><time>2019-08-30T13:19:19Z</time><name>PT10684</name></trkpt>
<trkpt lat="53.255752" lon="-1.792501"><ele>217</ele><time>2019-08-30T13:19:20Z</time><name>PT10685</name></trkpt>
<trkpt lat="53.255744" lon="-1.792521"><ele>215</ele><time>2019-08-30T13:19:21Z</time><name>PT10686</name></trkpt>
<trkpt lat="53.255742" lon="-1.792543"><ele>213</ele><time>2019-08-30T13:19:22Z</time><name>PT10687</name></trkpt>
<trkpt lat="53.255725" lon="-1.792574"><ele>211</ele><time>2019-08-30T13:19:23Z</time><name>PT10688</name></trkpt>
<trkpt lat="53.255710" lon="-1.792596"><ele>212</ele><time>2019-08-30T13:19:24Z</time><name>PT10689</name></trkpt>
<trkpt lat="53.255701" lon="-1.792622"><ele>213</ele><time>2019-08-30T13:19:25Z</time><name>PT10690</name></trkpt>
<trkpt lat="53.255701" lon="-1.792638"><ele>214</ele><time>2019-08-30T13:19:26Z</time><name>PT10691</name></trkpt>
<trkpt lat="53.255695" lon="-1.792660"><ele>213</ele><time>2019-08-30T13:19:27Z</time><name>PT10692</name></trkpt>
<trkpt lat="53.255693" lon="-1.792681"><ele>212</ele><time>2019-08-30T13:19:28Z</time><name>PT10693</name></trkpt>
<trkpt lat="53.255685" lon="-1.792701"><ele>212</ele><time>2019-08-30T13:19:29Z</time><name>PT10694</name></trkpt>
<trkpt lat="53.255674" lon="-1.792720"><ele>212</ele><time>2019-08-30T13:19:30Z</time><name>PT10695</name></trkpt>
<trkpt lat="53.255667" lon="-1.792746"><ele>213</ele><time>2019-08-30T13:19:31Z</time><name>PT10696</name></trkpt>
<trkpt lat="53.255656" lon="-1.792762"><ele>213</ele><time>2019-08-30T13:19:32Z</time><name>PT10697</name></trkpt>
<trkpt lat="53.255648" lon="-1.792774"><ele>213</ele><time>2019-08-30T13:19:33Z</time><name>PT10698</name></trkpt>
<trkpt lat="53.255643" lon="-1.792787"><ele>215</ele><time>2019-08-30T13:19:34Z</time><name>PT10699</name></trkpt>
<trkpt lat="53.255631" lon="-1.792794"><ele>215</ele><time>2019-08-30T13:19:35Z</time><name>PT10700</name></trkpt>
<trkpt lat="53.255613" lon="-1.792811"><ele>215</ele><time>2019-08-30T13:19:36Z</time><name>PT10701</name></trkpt>
<trkpt lat="53.255592" lon="-1.792828"><ele>214</ele><time>2019-08-30T13:19:37Z</time><name>PT10702</name></trkpt>
<trkpt lat="53.255576" lon="-1.792837"><ele>215</ele><time>2019-08-30T13:19:38Z</time><name>PT10703</name></trkpt>
<trkpt lat="53.255578" lon="-1.792846"><ele>217</ele><time>2019-08-30T13:19:39Z</time><name>PT10704</name></trkpt>
<trkpt lat="53.255573" lon="-1.792862"><ele>216</ele><time>2019-08-30T13:19:40Z</time><name>PT10705</name></trkpt>
<trkpt lat="53.255569" lon="-1.792881"><ele>215</ele><time>2019-08-30T13:19:41Z</time><name>PT10706</name></trkpt>
<trkpt lat="53.255562" lon="-1.792896"><ele>215</ele><time>2019-08-30T13:19:42Z</time><name>PT10707</name></trkpt>
<trkpt lat="53.255553" lon="-1.792918"><ele>214</ele><time>2019-08-30T13:19:43Z</time><name>PT10708</name></trkpt>
<trkpt lat="53.255527" lon="-1.792947"><ele>214</ele><time>2019-08-30T13:19:44Z</time><name>PT10709</name></trkpt>
<trkpt lat="53.255513" lon="-1.792970"><ele>214</ele><time>2019-08-30T13:19:45Z</time><name>PT10710</name></trkpt>
<trkpt lat="53.255506" lon="-1.792988"><ele>215</ele><time>2019-08-30T13:19:46Z</time><name>PT10711</name></trkpt>
<trkpt lat="53.255504" lon="-1.793003"><ele>215</ele><time>2019-08-30T13:19:47Z</time><name>PT10712</name></trkpt>
<trkpt lat="53.255506" lon="-1.793011"><ele>215</ele><time>2019-08-30T13:19:48Z</time><name>PT10713</name></trkpt>
<trkpt lat="53.255503" lon="-1.793031"><ele>216</ele><time>2019-08-30T13:19:49Z</time><name>PT10714</name></trkpt>
<trkpt lat="53.255496" lon="-1.793057"><ele>215</ele><time>2019-08-30T13:19:50Z</time><name>PT10715</name></trkpt>
<trkpt lat="53.255488" lon="-1.793081"><ele>216</ele><time>2019-08-30T13:19:51Z</time><name>PT10716</name></trkpt>
<trkpt lat="53.255480" lon="-1.793107"><ele>216</ele><time>2019-08-30T13:19:52Z</time><name>PT10717</name></trkpt>
<trkpt lat="53.255473" lon="-1.793126"><ele>216</ele><time>2019-08-30T13:19:53Z</time><name>PT10718</name></trkpt>
<trkpt lat="53.255472" lon="-1.793143"><ele>216</ele><time>2019-08-30T13:19:54Z</time><name>PT10719</name></trkpt>
<trkpt lat="53.255469" lon="-1.793164"><ele>216</ele><time>2019-08-30T13:19:55Z</time><name>PT10720</name></trkpt>
<trkpt lat="53.255463" lon="-1.793189"><ele>215</ele><time>2019-08-30T13:19:56Z</time><name>PT10721</name></trkpt>
<trkpt lat="53.255463" lon="-1.793218"><ele>215</ele><time>2019-08-30T13:19:57Z</time><name>PT10722</name></trkpt>
<trkpt lat="53.255457" lon="-1.793238"><ele>215</ele><time>2019-08-30T13:19:58Z</time><name>PT10723</name></trkpt>
<trkpt lat="53.255456" lon="-1.793254"><ele>214</ele><time>2019-08-30T13:19:59Z</time><name>PT10724</name></trkpt>
<trkpt lat="53.255453" lon="-1.793288"><ele>210</ele><time>2019-08-30T13:20:00Z</time><name>PT10725</name></trkpt>
<trkpt lat="53.255454" lon="-1.793311"><ele>208</ele><time>2019-08-30T13:20:01Z</time><name>PT10726</name></trkpt>
<trkpt lat="53.255449" lon="-1.793335"><ele>207</ele><time>2019-08-30T13:20:02Z</time><name>PT10727</name></trkpt>
<trkpt lat="53.255448" lon="-1.793363"><ele>207</ele><time>2019-08-30T13:20:03Z</time><name>PT10728</name></trkpt>
<trkpt lat="53.255444" lon="-1.793381"><ele>207</ele><time>2019-08-30T13:20:04Z</time><name>PT10729</name></trkpt>
<trkpt lat="53.255442" lon="-1.793399"><ele>207</ele><time>2019-08-30T13:20:05Z</time><name>PT10730</name></trkpt>
<trkpt lat="53.255441" lon="-1.793416"><ele>206</ele><time>2019-08-30T13:20:06Z</time><name>PT10731</name></trkpt>
<trkpt lat="53.255439" lon="-1.793433"><ele>205</ele><time>2019-08-30T13:20:07Z</time><name>PT10732</name></trkpt>
<trkpt lat="53.255439" lon="-1.793449"><ele>205</ele><time>2019-08-30T13:20:08Z</time><name>PT10733</name></trkpt>
<trkpt lat="53.255438" lon="-1.793470"><ele>206</ele><time>2019-08-30T13:20:09Z</time><name>PT10734</name></trkpt>
<trkpt lat="53.255438" lon="-1.793490"><ele>207</ele><time>2019-08-30T13:20:10Z</time><name>PT10735</name></trkpt>
<trkpt lat="53.255439" lon="-1.793503"><ele>207</ele><time>2019-08-30T13:20:11Z</time><name>PT10736</name></trkpt>
<trkpt lat="53.255438" lon="-1.793518"><ele>207</ele><time>2019-08-30T13:20:12Z</time><name>PT10737</name></trkpt>
<trkpt lat="53.255430" lon="-1.793540"><ele>207</ele><time>2019-08-30T13:20:13Z</time><name>PT10738</name></trkpt>
<trkpt lat="53.255431" lon="-1.793562"><ele>208</ele><time>2019-08-30T13:20:14Z</time><name>PT10739</name></trkpt>
<trkpt lat="53.255428" lon="-1.793593"><ele>208</ele><time>2019-08-30T13:20:15Z</time><name>PT10740</name></trkpt>
<trkpt lat="53.255424" lon="-1.793614"><ele>208</ele><time>2019-08-30T13:20:16Z</time><name>PT10741</name></trkpt>
<trkpt lat="53.255419" lon="-1.793632"><ele>208</ele><time>2019-08-30T13:20:17Z</time><name>PT10742</name></trkpt>
<trkpt lat="53.255412" lon="-1.793664"><ele>207</ele><time>2019-08-30T13:20:18Z</time><name>PT10743</name></trkpt>
<trkpt lat="53.255407" lon="-1.793682"><ele>206</ele><time>2019-08-30T13:20:19Z</time><name>PT10744</name></trkpt>
<trkpt lat="53.255400" lon="-1.793710"><ele>205</ele><time>2019-08-30T13:20:20Z</time><name>PT10745</name></trkpt>
<trkpt lat="53.255404" lon="-1.793738"><ele>206</ele><time>2019-08-30T13:20:21Z</time><name>PT10746</name></trkpt>
<trkpt lat="53.255399" lon="-1.793763"><ele>206</ele><time>2019-08-30T13:20:22Z</time><name>PT10747</name></trkpt>
<trkpt lat="53.255392" lon="-1.793781"><ele>206</ele><time>2019-08-30T13:20:23Z</time><name>PT10748</name></trkpt>
<trkpt lat="53.255386" lon="-1.793807"><ele>206</ele><time>2019-08-30T13:20:24Z</time><name>PT10749</name></trkpt>
<trkpt lat="53.255379" lon="-1.793837"><ele>206</ele><time>2019-08-30T13:20:25Z</time><name>PT10750</name></trkpt>
<trkpt lat="53.255370" lon="-1.793865"><ele>207</ele><time>2019-08-30T13:20:26Z</time><name>PT10751</name></trkpt>
<trkpt lat="53.255365" lon="-1.793892"><ele>207</ele><time>2019-08-30T13:20:27Z</time><name>PT10752</name></trkpt>
<trkpt lat="53.255360" lon="-1.793918"><ele>207</ele><time>2019-08-30T13:20:28Z</time><name>PT10753</name></trkpt>
<trkpt lat="53.255360" lon="-1.793938"><ele>208</ele><time>2019-08-30T13:20:29Z</time><name>PT10754</name></trkpt>
<trkpt lat="53.255356" lon="-1.793957"><ele>208</ele><time>2019-08-30T13:20:30Z</time><name>PT10755</name></trkpt>
<trkpt lat="53.255354" lon="-1.793978"><ele>207</ele><time>2019-08-30T13:20:31Z</time><name>PT10756</name></trkpt>
<trkpt lat="53.255354" lon="-1.793997"><ele>207</ele><time>2019-08-30T13:20:32Z</time><name>PT10757</name></trkpt>
<trkpt lat="53.255350" lon="-1.794024"><ele>207</ele><time>2019-08-30T13:20:33Z</time><name>PT10758</name></trkpt>
<trkpt lat="53.255344" lon="-1.794059"><ele>207</ele><time>2019-08-30T13:20:34Z</time><name>PT10759</name></trkpt>
<trkpt lat="53.255341" lon="-1.794082"><ele>207</ele><time>2019-08-30T13:20:35Z</time><name>PT10760</name></trkpt>
<trkpt lat="53.255345" lon="-1.794089"><ele>207</ele><time>2019-08-30T13:20:36Z</time><name>PT10761</name></trkpt>
<trkpt lat="53.255348" lon="-1.794107"><ele>207</ele><time>2019-08-30T13:20:37Z</time><name>PT10762</name></trkpt>
<trkpt lat="53.255345" lon="-1.794130"><ele>207</ele><time>2019-08-30T13:20:38Z</time><name>PT10763</name></trkpt>
<trkpt lat="53.255341" lon="-1.794161"><ele>208</ele><time>2019-08-30T13:20:39Z</time><name>PT10764</name></trkpt>
<trkpt lat="53.255338" lon="-1.794196"><ele>208</ele><time>2019-08-30T13:20:40Z</time><name>PT10765</name></trkpt>
<trkpt lat="53.255335" lon="-1.794223"><ele>208</ele><time>2019-08-30T13:20:41Z</time><name>PT10766</name></trkpt>
<trkpt lat="53.255333" lon="-1.794242"><ele>206</ele><time>2019-08-30T13:20:42Z</time><name>PT10767</name></trkpt>
<trkpt lat="53.255329" lon="-1.794265"><ele>205</ele><time>2019-08-30T13:20:43Z</time><name>PT10768</name></trkpt>
<trkpt lat="53.255329" lon="-1.794285"><ele>204</ele><time>2019-08-30T13:20:44Z</time><name>PT10769</name></trkpt>
<trkpt lat="53.255326" lon="-1.794305"><ele>204</ele><time>2019-08-30T13:20:45Z</time><name>PT10770</name></trkpt>
<trkpt lat="53.255324" lon="-1.794334"><ele>204</ele><time>2019-08-30T13:20:46Z</time><name>PT10771</name></trkpt>
<trkpt lat="53.255320" lon="-1.794371"><ele>204</ele><time>2019-08-30T13:20:47Z</time><name>PT10772</name></trkpt>
<trkpt lat="53.255315" lon="-1.794398"><ele>204</ele><time>2019-08-30T13:20:48Z</time><name>PT10773</name></trkpt>
<trkpt lat="53.255311" lon="-1.794414"><ele>204</ele><time>2019-08-30T13:20:49Z</time><name>PT10774</name></trkpt>
<trkpt lat="53.255309" lon="-1.794430"><ele>204</ele><time>2019-08-30T13:20:50Z</time><name>PT10775</name></trkpt>
<trkpt lat="53.255307" lon="-1.794456"><ele>204</ele><time>2019-08-30T13:20:51Z</time><name>PT10776</name></trkpt>
<trkpt lat="53.255307" lon="-1.794480"><ele>204</ele><time>2019-08-30T13:20:52Z</time><name>PT10777</name></trkpt>
<trkpt lat="53.255308" lon="-1.794510"><ele>204</ele><time>2019-08-30T13:20:53Z</time><name>PT10778</name></trkpt>
<trkpt lat="53.255306" lon="-1.794532"><ele>205</ele><time>2019-08-30T13:20:54Z</time><name>PT10779</name></trkpt>
<trkpt lat="53.255305" lon="-1.794548"><ele>205</ele><time>2019-08-30T13:20:55Z</time><name>PT10780</name></trkpt>
<trkpt lat="53.255304" lon="-1.794569"><ele>206</ele><time>2019-08-30T13:20:56Z</time><name>PT10781</name></trkpt>
<trkpt lat="53.255302" lon="-1.794592"><ele>206</ele><time>2019-08-30T13:20:57Z</time><name>PT10782</name></trkpt>
<trkpt lat="53.255302" lon="-1.794618"><ele>206</ele><time>2019-08-30T13:20:58Z</time><name>PT10783</name></trkpt>
<trkpt lat="53.255302" lon="-1.794646"><ele>205</ele><time>2019-08-30T13:20:59Z</time><name>PT10784</name></trkpt>
<trkpt lat="53.255303" lon="-1.794676"><ele>206</ele><time>2019-08-30T13:21:00Z</time><name>PT10785</name></trkpt>
<trkpt lat="53.255299" lon="-1.794697"><ele>206</ele><time>2019-08-30T13:21:01Z</time><name>PT10786</name></trkpt>
<trkpt lat="53.255296" lon="-1.794705"><ele>207</ele><time>2019-08-30T13:21:02Z</time><name>PT10787</name></trkpt>
<trkpt lat="53.255295" lon="-1.794724"><ele>207</ele><time>2019-08-30T13:21:03Z</time><name>PT10788</name></trkpt>
<trkpt lat="53.255298" lon="-1.794749"><ele>207</ele><time>2019-08-30T13:21:04Z</time><name>PT10789</name></trkpt>
<trkpt lat="53.255293" lon="-1.794777"><ele>207</ele><time>2019-08-30T13:21:05Z</time><name>PT10790</name></trkpt>
<trkpt lat="53.255292" lon="-1.794801"><ele>207</ele><time>2019-08-30T13:21:06Z</time><name>PT10791</name></trkpt>
<trkpt lat="53.255290" lon="-1.794818"><ele>207</ele><time>2019-08-30T13:21:07Z</time><name>PT10792</name></trkpt>
<trkpt lat="53.255288" lon="-1.794836"><ele>207</ele><time>2019-08-30T13:21:08Z</time><name>PT10793</name></trkpt>
<trkpt lat="53.255286" lon="-1.794857"><ele>206</ele><time>2019-08-30T13:21:09Z</time><name>PT10794</name></trkpt>
<trkpt lat="53.255287" lon="-1.794882"><ele>206</ele><time>2019-08-30T13:21:10Z</time><name>PT10795</name></trkpt>
<trkpt lat="53.255291" lon="-1.794908"><ele>206</ele><time>2019-08-30T13:21:11Z</time><name>PT10796</name></trkpt>
<trkpt lat="53.255291" lon="-1.794933"><ele>205</ele><time>2019-08-30T13:21:12Z</time><name>PT10797</name></trkpt>
<trkpt lat="53.255289" lon="-1.794948"><ele>206</ele><time>2019-08-30T13:21:13Z</time><name>PT10798</name></trkpt>
<trkpt lat="53.255288" lon="-1.794963"><ele>205</ele><time>2019-08-30T13:21:14Z</time><name>PT10799</name></trkpt>
<trkpt lat="53.255283" lon="-1.794985"><ele>205</ele><time>2019-08-30T13:21:15Z</time><name>PT10800</name></trkpt>
<trkpt lat="53.255282" lon="-1.795006"><ele>205</ele><time>2019-08-30T13:21:16Z</time><name>PT10801</name></trkpt>
<trkpt lat="53.255278" lon="-1.795031"><ele>205</ele><time>2019-08-30T13:21:17Z</time><name>PT10802</name></trkpt>
<trkpt lat="53.255271" lon="-1.795054"><ele>205</ele><time>2019-08-30T13:21:18Z</time><name>PT10803</name></trkpt>
<trkpt lat="53.255266" lon="-1.795071"><ele>205</ele><time>2019-08-30T13:21:19Z</time><name>PT10804</name></trkpt>
<trkpt lat="53.255263" lon="-1.795088"><ele>204</ele><time>2019-08-30T13:21:20Z</time><name>PT10805</name></trkpt>
<trkpt lat="53.255258" lon="-1.795112"><ele>204</ele><time>2019-08-30T13:21:21Z</time><name>PT10806</name></trkpt>
<trkpt lat="53.255255" lon="-1.795134"><ele>204</ele><time>2019-08-30T13:21:22Z</time><name>PT10807</name></trkpt>
<trkpt lat="53.255252" lon="-1.795161"><ele>204</ele><time>2019-08-30T13:21:23Z</time><name>PT10808</name></trkpt>
<trkpt lat="53.255249" lon="-1.795176"><ele>205</ele><time>2019-08-30T13:21:24Z</time><name>PT10809</name></trkpt>
<trkpt lat="53.255252" lon="-1.795186"><ele>205</ele><time>2019-08-30T13:21:25Z</time><name>PT10810</name></trkpt>
<trkpt lat="53.255253" lon="-1.795210"><ele>206</ele><time>2019-08-30T13:21:26Z</time><name>PT10811</name></trkpt>
<trkpt lat="53.255259" lon="-1.795235"><ele>206</ele><time>2019-08-30T13:21:27Z</time><name>PT10812</name></trkpt>
<trkpt lat="53.255269" lon="-1.795257"><ele>207</ele><time>2019-08-30T13:21:28Z</time><name>PT10813</name></trkpt>
<trkpt lat="53.255277" lon="-1.795281"><ele>206</ele><time>2019-08-30T13:21:29Z</time><name>PT10814</name></trkpt>
<trkpt lat="53.255281" lon="-1.795302"><ele>207</ele><time>2019-08-30T13:21:30Z</time><name>PT10815</name></trkpt>
<trkpt lat="53.255280" lon="-1.795317"><ele>207</ele><time>2019-08-30T13:21:31Z</time><name>PT10816</name></trkpt>
<trkpt lat="53.255282" lon="-1.795330"><ele>206</ele><time>2019-08-30T13:21:32Z</time><name>PT10817</name></trkpt>
<trkpt lat="53.255286" lon="-1.795348"><ele>206</ele><time>2019-08-30T13:21:33Z</time><name>PT10818</name></trkpt>
<trkpt lat="53.255293" lon="-1.795365"><ele>205</ele><time>2019-08-30T13:21:34Z</time><name>PT10819</name></trkpt>
<trkpt lat="53.255294" lon="-1.795389"><ele>205</ele><time>2019-08-30T13:21:35Z</time><name>PT10820</name></trkpt>
<trkpt lat="53.255298" lon="-1.795411"><ele>205</ele><time>2019-08-30T13:21:36Z</time><name>PT10821</name></trkpt>
<trkpt lat="53.255301" lon="-1.795424"><ele>205</ele><time>2019-08-30T13:21:37Z</time><name>PT10822</name></trkpt>
<trkpt lat="53.255303" lon="-1.795437"><ele>205</ele><time>2019-08-30T13:21:38Z</time><name>PT10823</name></trkpt>
<trkpt lat="53.255306" lon="-1.795452"><ele>205</ele><time>2019-08-30T13:21:39Z</time><name>PT10824</name></trkpt>
<trkpt lat="53.255314" lon="-1.795467"><ele>205</ele><time>2019-08-30T13:21:40Z</time><name>PT10825</name></trkpt>
<trkpt lat="53.255322" lon="-1.795485"><ele>206</ele><time>2019-08-30T13:21:41Z</time><name>PT10826</name></trkpt>
<trkpt lat="53.255334" lon="-1.795500"><ele>207</ele><time>2019-08-30T13:21:42Z</time><name>PT10827</name></trkpt>
<trkpt lat="53.255341" lon="-1.795512"><ele>208</ele><time>2019-08-30T13:21:43Z</time><name>PT10828</name></trkpt>
<trkpt lat="53.255345" lon="-1.795520"><ele>207</ele><time>2019-08-30T13:21:44Z</time><name>PT10829</name></trkpt>
<trkpt lat="53.255353" lon="-1.795522"><ele>208</ele><time>2019-08-30T13:21:45Z</time><name>PT10830</name></trkpt>
<trkpt lat="53.255362" lon="-1.795529"><ele>207</ele><time>2019-08-30T13:21:46Z</time><name>PT10831</name></trkpt>
<trkpt lat="53.255375" lon="-1.795542"><ele>207</ele><time>2019-08-30T13:21:47Z</time><name>PT10832</name></trkpt>
<trkpt lat="53.255387" lon="-1.795554"><ele>207</ele><time>2019-08-30T13:21:48Z</time><name>PT10833</name></trkpt>
<trkpt lat="53.255402" lon="-1.795562"><ele>208</ele><time>2019-08-30T13:21:49Z</time><name>PT10834</name></trkpt>
<trkpt lat="53.255409" lon="-1.795566"><ele>206</ele><time>2019-08-30T13:21:50Z</time><name>PT10835</name></trkpt>
<trkpt lat="53.255411" lon="-1.795568"><ele>206</ele><time>2019-08-30T13:21:51Z</time><name>PT10836</name></trkpt>
<trkpt lat="53.255422" lon="-1.795571"><ele>205</ele><time>2019-08-30T13:21:52Z</time><name>PT10837</name></trkpt>
<trkpt lat="53.255428" lon="-1.795583"><ele>206</ele><time>2019-08-30T13:21:53Z</time><name>PT10838</name></trkpt>
<trkpt lat="53.255441" lon="-1.795595"><ele>206</ele><time>2019-08-30T13:21:54Z</time><name>PT10839</name></trkpt>
<trkpt lat="53.255452" lon="-1.795606"><ele>207</ele><time>2019-08-30T13:21:55Z</time><name>PT10840</name></trkpt>
<trkpt lat="53.255462" lon="-1.795608"><ele>208</ele><time>2019-08-30T13:21:56Z</time><name>PT10841</name></trkpt>
<trkpt lat="53.255473" lon="-1.795605"><ele>209</ele><time>2019-08-30T13:21:57Z</time><name>PT10842</name></trkpt>
<trkpt lat="53.255478" lon="-1.795606"><ele>209</ele><time>2019-08-30T13:21:58Z</time><name>PT10843</name></trkpt>
<trkpt lat="53.255485" lon="-1.795611"><ele>209</ele><time>2019-08-30T13:21:59Z</time><name>PT10844</name></trkpt>
<trkpt lat="53.255489" lon="-1.795619"><ele>210</ele><time>2019-08-30T13:22:00Z</time><name>PT10845</name></trkpt>
<trkpt lat="53.255497" lon="-1.795629"><ele>210</ele><time>2019-08-30T13:22:01Z</time><name>PT10846</name></trkpt>
<trkpt lat="53.255504" lon="-1.795635"><ele>213</ele><time>2019-08-30T13:22:02Z</time><name>PT10847</name></trkpt>
<trkpt lat="53.255507" lon="-1.795660"><ele>211</ele><time>2019-08-30T13:22:03Z</time><name>PT10848</name></trkpt>
<trkpt lat="53.255513" lon="-1.795677"><ele>212</ele><time>2019-08-30T13:22:04Z</time><name>PT10849</name></trkpt>
<trkpt lat="53.255517" lon="-1.795693"><ele>213</ele><time>2019-08-30T13:22:05Z</time><name>PT10850</name></trkpt>
<trkpt lat="53.255517" lon="-1.795705"><ele>213</ele><time>2019-08-30T13:22:06Z</time><name>PT10851</name></trkpt>
<trkpt lat="53.255518" lon="-1.795709"><ele>213</ele><time>2019-08-30T13:22:07Z</time><name>PT10852</name></trkpt>
<trkpt lat="53.255537" lon="-1.795702"><ele>214</ele><time>2019-08-30T13:22:08Z</time><name>PT10853</name></trkpt>
<trkpt lat="53.255530" lon="-1.795699"><ele>214</ele><time>2019-08-30T13:22:09Z</time><name>PT10854</name></trkpt>
<trkpt lat="53.255523" lon="-1.795696"><ele>213</ele><time>2019-08-30T13:22:10Z</time><name>PT10855</name></trkpt>
<trkpt lat="53.255512" lon="-1.795688"><ele>213</ele><time>2019-08-30T13:22:11Z</time><name>PT10856</name></trkpt>
<trkpt lat="53.255507" lon="-1.795688"><ele>213</ele><time>2019-08-30T13:22:12Z</time><name>PT10857</name></trkpt>
<trkpt lat="53.255503" lon="-1.795691"><ele>212</ele><time>2019-08-30T13:22:13Z</time><name>PT10858</name></trkpt>
<trkpt lat="53.255501" lon="-1.795692"><ele>212</ele><time>2019-08-30T13:22:14Z</time><name>PT10859</name></trkpt>
<trkpt lat="53.255510" lon="-1.795728"><ele>212</ele><time>2019-08-30T13:22:24Z</time><name>PT10860</name></trkpt>
<trkpt lat="53.255513" lon="-1.795759"><ele>211</ele><time>2019-08-30T13:22:25Z</time><name>PT10861</name></trkpt>
<trkpt lat="53.255514" lon="-1.795781"><ele>211</ele><time>2019-08-30T13:22:26Z</time><name>PT10862</name></trkpt>
<trkpt lat="53.255511" lon="-1.795802"><ele>211</ele><time>2019-08-30T13:22:27Z</time><name>PT10863</name></trkpt>
<trkpt lat="53.255509" lon="-1.795814"><ele>211</ele><time>2019-08-30T13:22:28Z</time><name>PT10864</name></trkpt>
<trkpt lat="53.255513" lon="-1.795827"><ele>211</ele><time>2019-08-30T13:22:29Z</time><name>PT10865</name></trkpt>
<trkpt lat="53.255520" lon="-1.795844"><ele>211</ele><time>2019-08-30T13:22:30Z</time><name>PT10866</name></trkpt>
<trkpt lat="53.255522" lon="-1.795866"><ele>211</ele><time>2019-08-30T13:22:31Z</time><name>PT10867</name></trkpt>
<trkpt lat="53.255532" lon="-1.795888"><ele>211</ele><time>2019-08-30T13:22:32Z</time><name>PT10868</name></trkpt>
<trkpt lat="53.255538" lon="-1.795909"><ele>211</ele><time>2019-08-30T13:22:33Z</time><name>PT10869</name></trkpt>
<trkpt lat="53.255538" lon="-1.795920"><ele>210</ele><time>2019-08-30T13:22:34Z</time><name>PT10870</name></trkpt>
<trkpt lat="53.255538" lon="-1.795934"><ele>210</ele><time>2019-08-30T13:22:35Z</time><name>PT10871</name></trkpt>
<trkpt lat="53.255537" lon="-1.795952"><ele>210</ele><time>2019-08-30T13:22:36Z</time><name>PT10872</name></trkpt>
<trkpt lat="53.255548" lon="-1.795969"><ele>210</ele><time>2019-08-30T13:22:37Z</time><name>PT10873</name></trkpt>
<trkpt lat="53.255546" lon="-1.795988"><ele>208</ele><time>2019-08-30T13:22:38Z</time><name>PT10874</name></trkpt>
<trkpt lat="53.255554" lon="-1.796009"><ele>208</ele><time>2019-08-30T13:22:39Z</time><name>PT10875</name></trkpt>
<trkpt lat="53.255561" lon="-1.796025"><ele>208</ele><time>2019-08-30T13:22:40Z</time><name>PT10876</name></trkpt>
<trkpt lat="53.255567" lon="-1.796037"><ele>207</ele><time>2019-08-30T13:22:41Z</time><name>PT10877</name></trkpt>
<trkpt lat="53.255569" lon="-1.796048"><ele>207</ele><time>2019-08-30T13:22:42Z</time><name>PT10878</name></trkpt>
<trkpt lat="53.255585" lon="-1.796054"><ele>206</ele><time>2019-08-30T13:22:43Z</time><name>PT10879</name></trkpt>
<trkpt lat="53.255600" lon="-1.796065"><ele>207</ele><time>2019-08-30T13:22:44Z</time><name>PT10880</name></trkpt>
<trkpt lat="53.255606" lon="-1.796088"><ele>206</ele><time>2019-08-30T13:22:45Z</time><name>PT10881</name></trkpt>
<trkpt lat="53.255613" lon="-1.796105"><ele>207</ele><time>2019-08-30T13:22:46Z</time><name>PT10882</name></trkpt>
<trkpt lat="53.255614" lon="-1.796117"><ele>207</ele><time>2019-08-30T13:22:47Z</time><name>PT10883</name></trkpt>
<trkpt lat="53.255623" lon="-1.796117"><ele>207</ele><time>2019-08-30T13:22:48Z</time><name>PT10884</name></trkpt>
<trkpt lat="53.255640" lon="-1.796119"><ele>205</ele><time>2019-08-30T13:22:49Z</time><name>PT10885</name></trkpt>
<trkpt lat="53.255650" lon="-1.796123"><ele>205</ele><time>2019-08-30T13:22:50Z</time><name>PT10886</name></trkpt>
<trkpt lat="53.255665" lon="-1.796142"><ele>207</ele><time>2019-08-30T13:22:51Z</time><name>PT10887</name></trkpt>
<trkpt lat="53.255678" lon="-1.796155"><ele>207</ele><time>2019-08-30T13:22:52Z</time><name>PT10888</name></trkpt>
<trkpt lat="53.255684" lon="-1.796165"><ele>208</ele><time>2019-08-30T13:22:53Z</time><name>PT10889</name></trkpt>
<trkpt lat="53.255683" lon="-1.796178"><ele>209</ele><time>2019-08-30T13:22:54Z</time><name>PT10890</name></trkpt>
<trkpt lat="53.255677" lon="-1.796190"><ele>207</ele><time>2019-08-30T13:22:55Z</time><name>PT10891</name></trkpt>
<trkpt lat="53.255680" lon="-1.796199"><ele>207</ele><time>2019-08-30T13:22:56Z</time><name>PT10892</name></trkpt>
<trkpt lat="53.255687" lon="-1.796210"><ele>206</ele><time>2019-08-30T13:22:57Z</time><name>PT10893</name></trkpt>
<trkpt lat="53.255702" lon="-1.796220"><ele>206</ele><time>2019-08-30T13:22:58Z</time><name>PT10894</name></trkpt>
<trkpt lat="53.255712" lon="-1.796228"><ele>206</ele><time>2019-08-30T13:22:59Z</time><name>PT10895</name></trkpt>
<trkpt lat="53.255719" lon="-1.796247"><ele>207</ele><time>2019-08-30T13:23:00Z</time><name>PT10896</name></trkpt>
<trkpt lat="53.255729" lon="-1.796253"><ele>206</ele><time>2019-08-30T13:23:01Z</time><name>PT10897</name></trkpt>
<trkpt lat="53.255736" lon="-1.796262"><ele>206</ele><time>2019-08-30T13:23:02Z</time><name>PT10898</name></trkpt>
<trkpt lat="53.255744" lon="-1.796278"><ele>205</ele><time>2019-08-30T13:23:03Z</time><name>PT10899</name></trkpt>
<trkpt lat="53.255758" lon="-1.796288"><ele>205</ele><time>2019-08-30T13:23:04Z</time><name>PT10900</name></trkpt>
<trkpt lat="53.255761" lon="-1.796301"><ele>205</ele><time>2019-08-30T13:23:05Z</time><name>PT10901</name></trkpt>
<trkpt lat="53.255764" lon="-1.796308"><ele>204</ele><time>2019-08-30T13:23:06Z</time><name>PT10902</name></trkpt>
<trkpt lat="53.255768" lon="-1.796319"><ele>202</ele><time>2019-08-30T13:23:07Z</time><name>PT10903</name></trkpt>
<trkpt lat="53.255774" lon="-1.796330"><ele>201</ele><time>2019-08-30T13:23:08Z</time><name>PT10904</name></trkpt>
<trkpt lat="53.255787" lon="-1.796340"><ele>201</ele><time>2019-08-30T13:23:09Z</time><name>PT10905</name></trkpt>
<trkpt lat="53.255781" lon="-1.796367"><ele>201</ele><time>2019-08-30T13:23:10Z</time><name>PT10906</name></trkpt>
<trkpt lat="53.255787" lon="-1.796379"><ele>201</ele><time>2019-08-30T13:23:11Z</time><name>PT10907</name></trkpt>
<trkpt lat="53.255786" lon="-1.796397"><ele>200</ele><time>2019-08-30T13:23:12Z</time><name>PT10908</name></trkpt>
<trkpt lat="53.255783" lon="-1.796407"><ele>201</ele><time>2019-08-30T13:23:13Z</time><name>PT10909</name></trkpt>
<trkpt lat="53.255788" lon="-1.796421"><ele>200</ele><time>2019-08-30T13:23:14Z</time><name>PT10910</name></trkpt>
<trkpt lat="53.255809" lon="-1.796432"><ele>200</ele><time>2019-08-30T13:23:15Z</time><name>PT10911</name></trkpt>
<trkpt lat="53.255813" lon="-1.796458"><ele>201</ele><time>2019-08-30T13:23:16Z</time><name>PT10912</name></trkpt>
<trkpt lat="53.255814" lon="-1.796477"><ele>202</ele><time>2019-08-30T13:23:17Z</time><name>PT10913</name></trkpt>
<trkpt lat="53.255825" lon="-1.796485"><ele>202</ele><time>2019-08-30T13:23:18Z</time><name>PT10914</name></trkpt>
<trkpt lat="53.255832" lon="-1.796492"><ele>201</ele><time>2019-08-30T13:23:19Z</time><name>PT10915</name></trkpt>
<trkpt lat="53.255836" lon="-1.796508"><ele>200</ele><time>2019-08-30T13:23:20Z</time><name>PT10916</name></trkpt>
<trkpt lat="53.255843" lon="-1.796521"><ele>200</ele><time>2019-08-30T13:23:21Z</time><name>PT10917</name></trkpt>
<trkpt lat="53.255847" lon="-1.796538"><ele>199</ele><time>2019-08-30T13:23:22Z</time><name>PT10918</name></trkpt>
<trkpt lat="53.255851" lon="-1.796556"><ele>200</ele><time>2019-08-30T13:23:23Z</time><name>PT10919</name></trkpt>
<trkpt lat="53.255867" lon="-1.796587"><ele>203</ele><time>2019-08-30T13:23:24Z</time><name>PT10920</name></trkpt>
<trkpt lat="53.255884" lon="-1.796604"><ele>205</ele><time>2019-08-30T13:23:25Z</time><name>PT10921</name></trkpt>
<trkpt lat="53.255885" lon="-1.796637"><ele>206</ele><time>2019-08-30T13:23:26Z</time><name>PT10922</name></trkpt>
<trkpt lat="53.255889" lon="-1.796643"><ele>204</ele><time>2019-08-30T13:23:27Z</time><name>PT10923</name></trkpt>
<trkpt lat="53.255897" lon="-1.796655"><ele>205</ele><time>2019-08-30T13:23:28Z</time><name>PT10924</name></trkpt>
<trkpt lat="53.255895" lon="-1.796678"><ele>205</ele><time>2019-08-30T13:23:29Z</time><name>PT10925</name></trkpt>
<trkpt lat="53.255896" lon="-1.796697"><ele>205</ele><time>2019-08-30T13:23:30Z</time><name>PT10926</name></trkpt>
<trkpt lat="53.255891" lon="-1.796726"><ele>206</ele><time>2019-08-30T13:23:31Z</time><name>PT10927</name></trkpt>
<trkpt lat="53.255891" lon="-1.796756"><ele>207</ele><time>2019-08-30T13:23:32Z</time><name>PT10928</name></trkpt>
<trkpt lat="53.255893" lon="-1.796776"><ele>207</ele><time>2019-08-30T13:23:33Z</time><name>PT10929</name></trkpt>
<trkpt lat="53.255883" lon="-1.796816"><ele>208</ele><time>2019-08-30T13:23:34Z</time><name>PT10930</name></trkpt>
<trkpt lat="53.255881" lon="-1.796838"><ele>209</ele><time>2019-08-30T13:23:35Z</time><name>PT10931</name></trkpt>
<trkpt lat="53.255886" lon="-1.796860"><ele>209</ele><time>2019-08-30T13:23:36Z</time><name>PT10932</name></trkpt>
<trkpt lat="53.255888" lon="-1.796889"><ele>210</ele><time>2019-08-30T13:23:37Z</time><name>PT10933</name></trkpt>
<trkpt lat="53.255894" lon="-1.796904"><ele>208</ele><time>2019-08-30T13:23:38Z</time><name>PT10934</name></trkpt>
<trkpt lat="53.255915" lon="-1.796916"><ele>209</ele><time>2019-08-30T13:23:39Z</time><name>PT10935</name></trkpt>
<trkpt lat="53.255910" lon="-1.796939"><ele>208</ele><time>2019-08-30T13:23:40Z</time><name>PT10936</name></trkpt>
<trkpt lat="53.255914" lon="-1.796978"><ele>212</ele><time>2019-08-30T13:23:41Z</time><name>PT10937</name></trkpt>
<trkpt lat="53.255907" lon="-1.797003"><ele>211</ele><time>2019-08-30T13:23:42Z</time><name>PT10938</name></trkpt>
<trkpt lat="53.255898" lon="-1.797016"><ele>213</ele><time>2019-08-30T13:23:43Z</time><name>PT10939</name></trkpt>
<trkpt lat="53.255894" lon="-1.797018"><ele>212</ele><time>2019-08-30T13:23:44Z</time><name>PT10940</name></trkpt>
<trkpt lat="53.255898" lon="-1.797007"><ele>211</ele><time>2019-08-30T13:23:45Z</time><name>PT10941</name></trkpt>
<trkpt lat="53.255908" lon="-1.797052"><ele>210</ele><time>2019-08-30T13:23:56Z</time><name>PT10942</name></trkpt>
<trkpt lat="53.255921" lon="-1.797080"><ele>209</ele><time>2019-08-30T13:23:57Z</time><name>PT10943</name></trkpt>
<trkpt lat="53.255924" lon="-1.797098"><ele>209</ele><time>2019-08-30T13:23:58Z</time><name>PT10944</name></trkpt>
<trkpt lat="53.255925" lon="-1.797113"><ele>208</ele><time>2019-08-30T13:23:59Z</time><name>PT10945</name></trkpt>
<trkpt lat="53.255934" lon="-1.797123"><ele>209</ele><time>2019-08-30T13:24:00Z</time><name>PT10946</name></trkpt>
<trkpt lat="53.255945" lon="-1.797152"><ele>208</ele><time>2019-08-30T13:24:01Z</time><name>PT10947</name></trkpt>
<trkpt lat="53.255964" lon="-1.797165"><ele>207</ele><time>2019-08-30T13:24:02Z</time><name>PT10948</name></trkpt>
<trkpt lat="53.255972" lon="-1.797181"><ele>206</ele><time>2019-08-30T13:24:03Z</time><name>PT10949</name></trkpt>
<trkpt lat="53.255979" lon="-1.797190"><ele>205</ele><time>2019-08-30T13:24:04Z</time><name>PT10950</name></trkpt>
<trkpt lat="53.255992" lon="-1.797196"><ele>205</ele><time>2019-08-30T13:24:05Z</time><name>PT10951</name></trkpt>
<trkpt lat="53.256001" lon="-1.797208"><ele>206</ele><time>2019-08-30T13:24:06Z</time><name>PT10952</name></trkpt>
<trkpt lat="53.256002" lon="-1.797225"><ele>205</ele><time>2019-08-30T13:24:07Z</time><name>PT10953</name></trkpt>
<trkpt lat="53.256002" lon="-1.797243"><ele>205</ele><time>2019-08-30T13:24:08Z</time><name>PT10954</name></trkpt>
<trkpt lat="53.256000" lon="-1.797261"><ele>205</ele><time>2019-08-30T13:24:09Z</time><name>PT10955</name></trkpt>
<trkpt lat="53.255995" lon="-1.797276"><ele>206</ele><time>2019-08-30T13:24:10Z</time><name>PT10956</name></trkpt>
<trkpt lat="53.256001" lon="-1.797295"><ele>208</ele><time>2019-08-30T13:24:11Z</time><name>PT10957</name></trkpt>
<trkpt lat="53.256005" lon="-1.797311"><ele>207</ele><time>2019-08-30T13:24:12Z</time><name>PT10958</name></trkpt>
<trkpt lat="53.256007" lon="-1.797319"><ele>207</ele><time>2019-08-30T13:24:13Z</time><name>PT10959</name></trkpt>
<trkpt lat="53.256010" lon="-1.797329"><ele>207</ele><time>2019-08-30T13:24:14Z</time><name>PT10960</name></trkpt>
<trkpt lat="53.256008" lon="-1.797342"><ele>207</ele><time>2019-08-30T13:24:15Z</time><name>PT10961</name></trkpt>
<trkpt lat="53.255998" lon="-1.797370"><ele>206</ele><time>2019-08-30T13:24:16Z</time><name>PT10962</name></trkpt>
<trkpt lat="53.255994" lon="-1.797393"><ele>208</ele><time>2019-08-30T13:24:17Z</time><name>PT10963</name></trkpt>
<trkpt lat="53.256002" lon="-1.797403"><ele>209</ele><time>2019-08-30T13:24:18Z</time><name>PT10964</name></trkpt>
<trkpt lat="53.256017" lon="-1.797400"><ele>209</ele><time>2019-08-30T13:24:19Z</time><name>PT10965</name></trkpt>
<trkpt lat="53.256017" lon="-1.797416"><ele>209</ele><time>2019-08-30T13:24:20Z</time><name>PT10966</name></trkpt>
<trkpt lat="53.256024" lon="-1.797427"><ele>210</ele><time>2019-08-30T13:24:21Z</time><name>PT10967</name></trkpt>
<trkpt lat="53.256029" lon="-1.797439"><ele>210</ele><time>2019-08-30T13:24:22Z</time><name>PT10968</name></trkpt>
<trkpt lat="53.256035" lon="-1.797451"><ele>210</ele><time>2019-08-30T13:24:23Z</time><name>PT10969</name></trkpt>
<trkpt lat="53.256043" lon="-1.797465"><ele>210</ele><time>2019-08-30T13:24:24Z</time><name>PT10970</name></trkpt>
<trkpt lat="53.256051" lon="-1.797470"><ele>210</ele><time>2019-08-30T13:24:25Z</time><name>PT10971</name></trkpt>
<trkpt lat="53.256051" lon="-1.797489"><ele>208</ele><time>2019-08-30T13:24:26Z</time><name>PT10972</name></trkpt>
<trkpt lat="53.256047" lon="-1.797508"><ele>206</ele><time>2019-08-30T13:24:27Z</time><name>PT10973</name></trkpt>
<trkpt lat="53.256047" lon="-1.797526"><ele>206</ele><time>2019-08-30T13:24:28Z</time><name>PT10974</name></trkpt>
<trkpt lat="53.256058" lon="-1.797539"><ele>205</ele><time>2019-08-30T13:24:29Z</time><name>PT10975</name></trkpt>
<trkpt lat="53.256060" lon="-1.797561"><ele>203</ele><time>2019-08-30T13:24:30Z</time><name>PT10976</name></trkpt>
<trkpt lat="53.256067" lon="-1.797568"><ele>203</ele><time>2019-08-30T13:24:31Z</time><name>PT10977</name></trkpt>
<trkpt lat="53.256083" lon="-1.797563"><ele>202</ele><time>2019-08-30T13:24:32Z</time><name>PT10978</name></trkpt>
<trkpt lat="53.256091" lon="-1.797576"><ele>201</ele><time>2019-08-30T13:24:33Z</time><name>PT10979</name></trkpt>
<trkpt lat="53.256096" lon="-1.797601"><ele>202</ele><time>2019-08-30T13:24:34Z</time><name>PT10980</name></trkpt>
<trkpt lat="53.256100" lon="-1.797622"><ele>203</ele><time>2019-08-30T13:24:35Z</time><name>PT10981</name></trkpt>
<trkpt lat="53.256098" lon="-1.797641"><ele>202</ele><time>2019-08-30T13:24:36Z</time><name>PT10982</name></trkpt>
<trkpt lat="53.256095" lon="-1.797656"><ele>201</ele><time>2019-08-30T13:24:37Z</time><name>PT10983</name></trkpt>
<trkpt lat="53.256099" lon="-1.797675"><ele>202</ele><time>2019-08-30T13:24:38Z</time><name>PT10984</name></trkpt>
<trkpt lat="53.256095" lon="-1.797695"><ele>202</ele><time>2019-08-30T13:24:39Z</time><name>PT10985</name></trkpt>
<trkpt lat="53.256095" lon="-1.797712"><ele>203</ele><time>2019-08-30T13:24:40Z</time><name>PT10986</name></trkpt>
<trkpt lat="53.256095" lon="-1.797730"><ele>203</ele><time>2019-08-30T13:24:41Z</time><name>PT10987</name></trkpt>
<trkpt lat="53.256102" lon="-1.797741"><ele>203</ele><time>2019-08-30T13:24:42Z</time><name>PT10988</name></trkpt>
<trkpt lat="53.256109" lon="-1.797767"><ele>203</ele><time>2019-08-30T13:24:43Z</time><name>PT10989</name></trkpt>
<trkpt lat="53.256105" lon="-1.797793"><ele>203</ele><time>2019-08-30T13:24:44Z</time><name>PT10990</name></trkpt>
<trkpt lat="53.256099" lon="-1.797836"><ele>205</ele><time>2019-08-30T13:24:45Z</time><name>PT10991</name></trkpt>
<trkpt lat="53.256100" lon="-1.797870"><ele>207</ele><time>2019-08-30T13:24:46Z</time><name>PT10992</name></trkpt>
<trkpt lat="53.256107" lon="-1.797890"><ele>208</ele><time>2019-08-30T13:24:47Z</time><name>PT10993</name></trkpt>
<trkpt lat="53.256103" lon="-1.797914"><ele>208</ele><time>2019-08-30T13:24:48Z</time><name>PT10994</name></trkpt>
<trkpt lat="53.256117" lon="-1.797930"><ele>204</ele><time>2019-08-30T13:24:49Z</time><name>PT10995</name></trkpt>
<trkpt lat="53.256121" lon="-1.797950"><ele>205</ele><time>2019-08-30T13:24:50Z</time><name>PT10996</name></trkpt>
<trkpt lat="53.256116" lon="-1.797972"><ele>207</ele><time>2019-08-30T13:24:51Z</time><name>PT10997</name></trkpt>
<trkpt lat="53.256134" lon="-1.797989"><ele>207</ele><time>2019-08-30T13:24:52Z</time><name>PT10998</name></trkpt>
<trkpt lat="53.256135" lon="-1.798000"><ele>208</ele><time>2019-08-30T13:24:53Z</time><name>PT10999</name></trkpt>
<trkpt lat="53.256133" lon="-1.798008"><ele>207</ele><time>2019-08-30T13:24:54Z</time><name>PT11000</name></trkpt>
<trkpt lat="53.256135" lon="-1.798019"><ele>206</ele><time>2019-08-30T13:24:55Z</time><name>PT11001</name></trkpt>
<trkpt lat="53.256141" lon="-1.798034"><ele>206</ele><time>2019-08-30T13:24:56Z</time><name>PT11002</name></trkpt>
<trkpt lat="53.256137" lon="-1.798063"><ele>204</ele><time>2019-08-30T13:24:57Z</time><name>PT11003</name></trkpt>
<trkpt lat="53.256124" lon="-1.798097"><ele>202</ele><time>2019-08-30T13:24:58Z</time><name>PT11004</name></trkpt>
<trkpt lat="53.256121" lon="-1.798121"><ele>201</ele><time>2019-08-30T13:24:59Z</time><name>PT11005</name></trkpt>
<trkpt lat="53.256125" lon="-1.798139"><ele>199</ele><time>2019-08-30T13:25:00Z</time><name>PT11006</name></trkpt>
<trkpt lat="53.256124" lon="-1.798160"><ele>199</ele><time>2019-08-30T13:25:01Z</time><name>PT11007</name></trkpt>
<trkpt lat="53.256121" lon="-1.798190"><ele>200</ele><time>2019-08-30T13:25:02Z</time><name>PT11008</name></trkpt>
<trkpt lat="53.256118" lon="-1.798223"><ele>200</ele><time>2019-08-30T13:25:03Z</time><name>PT11009</name></trkpt>
<trkpt lat="53.256126" lon="-1.798244"><ele>200</ele><time>2019-08-30T13:25:04Z</time><name>PT11010</name></trkpt>
<trkpt lat="53.256124" lon="-1.798269"><ele>202</ele><time>2019-08-30T13:25:05Z</time><name>PT11011</name></trkpt>
<trkpt lat="53.256117" lon="-1.798301"><ele>204</ele><time>2019-08-30T13:25:06Z</time><name>PT11012</name></trkpt>
<trkpt lat="53.256115" lon="-1.798320"><ele>204</ele><time>2019-08-30T13:25:07Z</time><name>PT11013</name></trkpt>
<trkpt lat="53.256123" lon="-1.798331"><ele>204</ele><time>2019-08-30T13:25:08Z</time><name>PT11014</name></trkpt>
<trkpt lat="53.256130" lon="-1.798341"><ele>205</ele><time>2019-08-30T13:25:09Z</time><name>PT11015</name></trkpt>
<trkpt lat="53.256126" lon="-1.798367"><ele>205</ele><time>2019-08-30T13:25:10Z</time><name>PT11016</name></trkpt>
<trkpt lat="53.256125" lon="-1.798394"><ele>205</ele><time>2019-08-30T13:25:11Z</time><name>PT11017</name></trkpt>
<trkpt lat="53.256122" lon="-1.798419"><ele>204</ele><time>2019-08-30T13:25:12Z</time><name>PT11018</name></trkpt>
<trkpt lat="53.256117" lon="-1.798443"><ele>203</ele><time>2019-08-30T13:25:13Z</time><name>PT11019</name></trkpt>
<trkpt lat="53.256129" lon="-1.798463"><ele>204</ele><time>2019-08-30T13:25:14Z</time><name>PT11020</name></trkpt>
<trkpt lat="53.256128" lon="-1.798484"><ele>205</ele><time>2019-08-30T13:25:15Z</time><name>PT11021</name></trkpt>
<trkpt lat="53.256126" lon="-1.798499"><ele>205</ele><time>2019-08-30T13:25:16Z</time><name>PT11022</name></trkpt>
<trkpt lat="53.256125" lon="-1.798513"><ele>204</ele><time>2019-08-30T13:25:17Z</time><name>PT11023</name></trkpt>
<trkpt lat="53.256119" lon="-1.798536"><ele>204</ele><time>2019-08-30T13:25:18Z</time><name>PT11024</name></trkpt>
<trkpt lat="53.256124" lon="-1.798549"><ele>204</ele><time>2019-08-30T13:25:19Z</time><name>PT11025</name></trkpt>
<trkpt lat="53.256128" lon="-1.798573"><ele>205</ele><time>2019-08-30T13:25:20Z</time><name>PT11026</name></trkpt>
<trkpt lat="53.256123" lon="-1.798591"><ele>204</ele><time>2019-08-30T13:25:21Z</time><name>PT11027</name></trkpt>
<trkpt lat="53.256125" lon="-1.798611"><ele>204</ele><time>2019-08-30T13:25:22Z</time><name>PT11028</name></trkpt>
<trkpt lat="53.256128" lon="-1.798631"><ele>205</ele><time>2019-08-30T13:25:23Z</time><name>PT11029</name></trkpt>
<trkpt lat="53.256139" lon="-1.798645"><ele>205</ele><time>2019-08-30T13:25:24Z</time><name>PT11030</name></trkpt>
<trkpt lat="53.256141" lon="-1.798655"><ele>204</ele><time>2019-08-30T13:25:25Z</time><name>PT11031</name></trkpt>
<trkpt lat="53.256146" lon="-1.798655"><ele>203</ele><time>2019-08-30T13:25:26Z</time><name>PT11032</name></trkpt>
<trkpt lat="53.256148" lon="-1.798676"><ele>202</ele><time>2019-08-30T13:25:27Z</time><name>PT11033</name></trkpt>
<trkpt lat="53.256156" lon="-1.798696"><ele>202</ele><time>2019-08-30T13:25:28Z</time><name>PT11034</name></trkpt>
<trkpt lat="53.256157" lon="-1.798712"><ele>202</ele><time>2019-08-30T13:25:29Z</time><name>PT11035</name></trkpt>
<trkpt lat="53.256158" lon="-1.798737"><ele>202</ele><time>2019-08-30T13:25:30Z</time><name>PT11036</name></trkpt>
<trkpt lat="53.256161" lon="-1.798757"><ele>203</ele><time>2019-08-30T13:25:31Z</time><name>PT11037</name></trkpt>
<trkpt lat="53.256164" lon="-1.798768"><ele>201</ele><time>2019-08-30T13:25:32Z</time><name>PT11038</name></trkpt>
<trkpt lat="53.256161" lon="-1.798789"><ele>202</ele><time>2019-08-30T13:25:33Z</time><name>PT11039</name></trkpt>
<trkpt lat="53.256161" lon="-1.798803"><ele>203</ele><time>2019-08-30T13:25:34Z</time><name>PT11040</name></trkpt>
<trkpt lat="53.256165" lon="-1.798826"><ele>204</ele><time>2019-08-30T13:25:35Z</time><name>PT11041</name></trkpt>
<trkpt lat="53.256164" lon="-1.798846"><ele>203</ele><time>2019-08-30T13:25:36Z</time><name>PT11042</name></trkpt>
<trkpt lat="53.256172" lon="-1.798869"><ele>204</ele><time>2019-08-30T13:25:37Z</time><name>PT11043</name></trkpt>
<trkpt lat="53.256172" lon="-1.798894"><ele>205</ele><time>2019-08-30T13:25:38Z</time><name>PT11044</name></trkpt>
<trkpt lat="53.256168" lon="-1.798910"><ele>204</ele><time>2019-08-30T13:25:39Z</time><name>PT11045</name></trkpt>
<trkpt lat="53.256167" lon="-1.798929"><ele>205</ele><time>2019-08-30T13:25:40Z</time><name>PT11046</name></trkpt>
<trkpt lat="53.256167" lon="-1.798944"><ele>207</ele><time>2019-08-30T13:25:41Z</time><name>PT11047</name></trkpt>
<trkpt lat="53.256172" lon="-1.798952"><ele>207</ele><time>2019-08-30T13:25:42Z</time><name>PT11048</name></trkpt>
<trkpt lat="53.256175" lon="-1.798962"><ele>206</ele><time>2019-08-30T13:25:43Z</time><name>PT11049</name></trkpt>
<trkpt lat="53.256182" lon="-1.798976"><ele>204</ele><time>2019-08-30T13:25:44Z</time><name>PT11050</name></trkpt>
<trkpt lat="53.256192" lon="-1.798997"><ele>206</ele><time>2019-08-30T13:25:45Z</time><name>PT11051</name></trkpt>
<trkpt lat="53.256186" lon="-1.799025"><ele>208</ele><time>2019-08-30T13:25:46Z</time><name>PT11052</name></trkpt>
<trkpt lat="53.256194" lon="-1.799055"><ele>209</ele><time>2019-08-30T13:25:47Z</time><name>PT11053</name></trkpt>
<trkpt lat="53.256188" lon="-1.799088"><ele>211</ele><time>2019-08-30T13:25:48Z</time><name>PT11054</name></trkpt>
<trkpt lat="53.256193" lon="-1.799116"><ele>212</ele><time>2019-08-30T13:25:49Z</time><name>PT11055</name></trkpt>
<trkpt lat="53.256180" lon="-1.799147"><ele>212</ele><time>2019-08-30T13:25:50Z</time><name>PT11056</name></trkpt>
<trkpt lat="53.256179" lon="-1.799168"><ele>213</ele><time>2019-08-30T13:25:51Z</time><name>PT11057</name></trkpt>
<trkpt lat="53.256181" lon="-1.799201"><ele>214</ele><time>2019-08-30T13:25:52Z</time><name>PT11058</name></trkpt>
<trkpt lat="53.256184" lon="-1.799226"><ele>215</ele><time>2019-08-30T13:25:53Z</time><name>PT11059</name></trkpt>
<trkpt lat="53.256185" lon="-1.799244"><ele>214</ele><time>2019-08-30T13:25:54Z</time><name>PT11060</name></trkpt>
<trkpt lat="53.256185" lon="-1.799274"><ele>213</ele><time>2019-08-30T13:25:55Z</time><name>PT11061</name></trkpt>
<trkpt lat="53.256185" lon="-1.799304"><ele>212</ele><time>2019-08-30T13:25:56Z</time><name>PT11062</name></trkpt>
<trkpt lat="53.256189" lon="-1.799327"><ele>212</ele><time>2019-08-30T13:25:57Z</time><name>PT11063</name></trkpt>
<trkpt lat="53.256190" lon="-1.799348"><ele>213</ele><time>2019-08-30T13:25:58Z</time><name>PT11064</name></trkpt>
<trkpt lat="53.256197" lon="-1.799362"><ele>213</ele><time>2019-08-30T13:25:59Z</time><name>PT11065</name></trkpt>
<trkpt lat="53.256199" lon="-1.799376"><ele>212</ele><time>2019-08-30T13:26:00Z</time><name>PT11066</name></trkpt>
<trkpt lat="53.256197" lon="-1.799399"><ele>213</ele><time>2019-08-30T13:26:01Z</time><name>PT11067</name></trkpt>
<trkpt lat="53.256201" lon="-1.799416"><ele>215</ele><time>2019-08-30T13:26:02Z</time><name>PT11068</name></trkpt>
<trkpt lat="53.256209" lon="-1.799440"><ele>217</ele><time>2019-08-30T13:26:03Z</time><name>PT11069</name></trkpt>
<trkpt lat="53.256208" lon="-1.799464"><ele>216</ele><time>2019-08-30T13:26:04Z</time><name>PT11070</name></trkpt>
<trkpt lat="53.256203" lon="-1.799482"><ele>217</ele><time>2019-08-30T13:26:05Z</time><name>PT11071</name></trkpt>
<trkpt lat="53.256198" lon="-1.799502"><ele>216</ele><time>2019-08-30T13:26:06Z</time><name>PT11072</name></trkpt>
<trkpt lat="53.256193" lon="-1.799522"><ele>216</ele><time>2019-08-30T13:26:07Z</time><name>PT11073</name></trkpt>
<trkpt lat="53.256187" lon="-1.799541"><ele>216</ele><time>2019-08-30T13:26:08Z</time><name>PT11074</name></trkpt>
<trkpt lat="53.256182" lon="-1.799558"><ele>218</ele><time>2019-08-30T13:26:09Z</time><name>PT11075</name></trkpt>
<trkpt lat="53.256178" lon="-1.799574"><ele>218</ele><time>2019-08-30T13:26:10Z</time><name>PT11076</name></trkpt>
<trkpt lat="53.256181" lon="-1.799583"><ele>219</ele><time>2019-08-30T13:26:11Z</time><name>PT11077</name></trkpt>
<trkpt lat="53.256176" lon="-1.799597"><ele>218</ele><time>2019-08-30T13:26:12Z</time><name>PT11078</name></trkpt>
<trkpt lat="53.256185" lon="-1.799611"><ele>218</ele><time>2019-08-30T13:26:13Z</time><name>PT11079</name></trkpt>
<trkpt lat="53.256189" lon="-1.799628"><ele>219</ele><time>2019-08-30T13:26:14Z</time><name>PT11080</name></trkpt>
<trkpt lat="53.256187" lon="-1.799652"><ele>220</ele><time>2019-08-30T13:26:15Z</time><name>PT11081</name></trkpt>
<trkpt lat="53.256189" lon="-1.799672"><ele>221</ele><time>2019-08-30T13:26:16Z</time><name>PT11082</name></trkpt>
<trkpt lat="53.256189" lon="-1.799692"><ele>221</ele><time>2019-08-30T13:26:17Z</time><name>PT11083</name></trkpt>
<trkpt lat="53.256186" lon="-1.799718"><ele>220</ele><time>2019-08-30T13:26:18Z</time><name>PT11084</name></trkpt>
<trkpt lat="53.256182" lon="-1.799739"><ele>220</ele><time>2019-08-30T13:26:19Z</time><name>PT11085</name></trkpt>
<trkpt lat="53.256181" lon="-1.799764"><ele>219</ele><time>2019-08-30T13:26:20Z</time><name>PT11086</name></trkpt>
<trkpt lat="53.256174" lon="-1.799793"><ele>219</ele><time>2019-08-30T13:26:21Z</time><name>PT11087</name></trkpt>
<trkpt lat="53.256172" lon="-1.799809"><ele>220</ele><time>2019-08-30T13:26:22Z</time><name>PT11088</name></trkpt>
<trkpt lat="53.256172" lon="-1.799826"><ele>219</ele><time>2019-08-30T13:26:23Z</time><name>PT11089</name></trkpt>
<trkpt lat="53.256178" lon="-1.799836"><ele>220</ele><time>2019-08-30T13:26:24Z</time><name>PT11090</name></trkpt>
<trkpt lat="53.256169" lon="-1.799850"><ele>219</ele><time>2019-08-30T13:26:25Z</time><name>PT11091</name></trkpt>
<trkpt lat="53.256164" lon="-1.799862"><ele>219</ele><time>2019-08-30T13:26:26Z</time><name>PT11092</name></trkpt>
<trkpt lat="53.256165" lon="-1.799886"><ele>221</ele><time>2019-08-30T13:26:27Z</time><name>PT11093</name></trkpt>
<trkpt lat="53.256169" lon="-1.799905"><ele>221</ele><time>2019-08-30T13:26:28Z</time><name>PT11094</name></trkpt>
<trkpt lat="53.256169" lon="-1.799930"><ele>222</ele><time>2019-08-30T13:26:29Z</time><name>PT11095</name></trkpt>
<trkpt lat="53.256168" lon="-1.799941"><ele>222</ele><time>2019-08-30T13:26:30Z</time><name>PT11096</name></trkpt>
<trkpt lat="53.256167" lon="-1.799955"><ele>222</ele><time>2019-08-30T13:26:31Z</time><name>PT11097</name></trkpt>
<trkpt lat="53.256163" lon="-1.799976"><ele>223</ele><time>2019-08-30T13:26:32Z</time><name>PT11098</name></trkpt>
<trkpt lat="53.256157" lon="-1.799994"><ele>223</ele><time>2019-08-30T13:26:33Z</time><name>PT11099</name></trkpt>
<trkpt lat="53.256158" lon="-1.800015"><ele>223</ele><time>2019-08-30T13:26:34Z</time><name>PT11100</name></trkpt>
<trkpt lat="53.256158" lon="-1.800030"><ele>224</ele><time>2019-08-30T13:26:35Z</time><name>PT11101</name></trkpt>
<trkpt lat="53.256164" lon="-1.800043"><ele>224</ele><time>2019-08-30T13:26:36Z</time><name>PT11102</name></trkpt>
<trkpt lat="53.256160" lon="-1.800064"><ele>224</ele><time>2019-08-30T13:26:37Z</time><name>PT11103</name></trkpt>
<trkpt lat="53.256159" lon="-1.800086"><ele>225</ele><time>2019-08-30T13:26:38Z</time><name>PT11104</name></trkpt>
<trkpt lat="53.256154" lon="-1.800109"><ele>226</ele><time>2019-08-30T13:26:39Z</time><name>PT11105</name></trkpt>
<trkpt lat="53.256161" lon="-1.800128"><ele>226</ele><time>2019-08-30T13:26:40Z</time><name>PT11106</name></trkpt>
<trkpt lat="53.256163" lon="-1.800149"><ele>226</ele><time>2019-08-30T13:26:41Z</time><name>PT11107</name></trkpt>
<trkpt lat="53.256156" lon="-1.800175"><ele>225</ele><time>2019-08-30T13:26:42Z</time><name>PT11108</name></trkpt>
<trkpt lat="53.256157" lon="-1.800196"><ele>225</ele><time>2019-08-30T13:26:43Z</time><name>PT11109</name></trkpt>
<trkpt lat="53.256149" lon="-1.800224"><ele>224</ele><time>2019-08-30T13:26:44Z</time><name>PT11110</name></trkpt>
<trkpt lat="53.256150" lon="-1.800237"><ele>224</ele><time>2019-08-30T13:26:45Z</time><name>PT11111</name></trkpt>
<trkpt lat="53.256152" lon="-1.800257"><ele>222</ele><time>2019-08-30T13:26:46Z</time><name>PT11112</name></trkpt>
<trkpt lat="53.256151" lon="-1.800267"><ele>222</ele><time>2019-08-30T13:26:47Z</time><name>PT11113</name></trkpt>
<trkpt lat="53.256147" lon="-1.800288"><ele>222</ele><time>2019-08-30T13:26:48Z</time><name>PT11114</name></trkpt>
<trkpt lat="53.256143" lon="-1.800317"><ele>222</ele><time>2019-08-30T13:26:49Z</time><name>PT11115</name></trkpt>
<trkpt lat="53.256144" lon="-1.800340"><ele>224</ele><time>2019-08-30T13:26:50Z</time><name>PT11116</name></trkpt>
<trkpt lat="53.256147" lon="-1.800361"><ele>223</ele><time>2019-08-30T13:26:51Z</time><name>PT11117</name></trkpt>
<trkpt lat="53.256146" lon="-1.800383"><ele>223</ele><time>2019-08-30T13:26:52Z</time><name>PT11118</name></trkpt>
<trkpt lat="53.256145" lon="-1.800401"><ele>223</ele><time>2019-08-30T13:26:53Z</time><name>PT11119</name></trkpt>
<trkpt lat="53.256150" lon="-1.800428"><ele>224</ele><time>2019-08-30T13:26:54Z</time><name>PT11120</name></trkpt>
<trkpt lat="53.256153" lon="-1.800452"><ele>224</ele><time>2019-08-30T13:26:55Z</time><name>PT11121</name></trkpt>
<trkpt lat="53.256155" lon="-1.800462"><ele>222</ele><time>2019-08-30T13:26:56Z</time><name>PT11122</name></trkpt>
<trkpt lat="53.256162" lon="-1.800473"><ele>222</ele><time>2019-08-30T13:26:57Z</time><name>PT11123</name></trkpt>
<trkpt lat="53.256164" lon="-1.800495"><ele>220</ele><time>2019-08-30T13:26:58Z</time><name>PT11124</name></trkpt>
<trkpt lat="53.256172" lon="-1.800502"><ele>219</ele><time>2019-08-30T13:26:59Z</time><name>PT11125</name></trkpt>
<trkpt lat="53.256173" lon="-1.800524"><ele>219</ele><time>2019-08-30T13:27:00Z</time><name>PT11126</name></trkpt>
<trkpt lat="53.256167" lon="-1.800551"><ele>219</ele><time>2019-08-30T13:27:01Z</time><name>PT11127</name></trkpt>
<trkpt lat="53.256164" lon="-1.800566"><ele>219</ele><time>2019-08-30T13:27:02Z</time><name>PT11128</name></trkpt>
<trkpt lat="53.256163" lon="-1.800578"><ele>219</ele><time>2019-08-30T13:27:03Z</time><name>PT11129</name></trkpt>
<trkpt lat="53.256152" lon="-1.800612"><ele>220</ele><time>2019-08-30T13:27:04Z</time><name>PT11130</name></trkpt>
<trkpt lat="53.256142" lon="-1.800638"><ele>219</ele><time>2019-08-30T13:27:05Z</time><name>PT11131</name></trkpt>
<trkpt lat="53.256137" lon="-1.800659"><ele>220</ele><time>2019-08-30T13:27:06Z</time><name>PT11132</name></trkpt>
<trkpt lat="53.256134" lon="-1.800668"><ele>218</ele><time>2019-08-30T13:27:07Z</time><name>PT11133</name></trkpt>
<trkpt lat="53.256132" lon="-1.800684"><ele>217</ele><time>2019-08-30T13:27:08Z</time><name>PT11134</name></trkpt>
<trkpt lat="53.256123" lon="-1.800705"><ele>216</ele><time>2019-08-30T13:27:09Z</time><name>PT11135</name></trkpt>
<trkpt lat="53.256108" lon="-1.800733"><ele>217</ele><time>2019-08-30T13:27:10Z</time><name>PT11136</name></trkpt>
<trkpt lat="53.256102" lon="-1.800751"><ele>217</ele><time>2019-08-30T13:27:11Z</time><name>PT11137</name></trkpt>
<trkpt lat="53.256097" lon="-1.800771"><ele>215</ele><time>2019-08-30T13:27:12Z</time><name>PT11138</name></trkpt>
<trkpt lat="53.256092" lon="-1.800796"><ele>214</ele><time>2019-08-30T13:27:13Z</time><name>PT11139</name></trkpt>
<trkpt lat="53.256086" lon="-1.800814"><ele>214</ele><time>2019-08-30T13:27:14Z</time><name>PT11140</name></trkpt>
<trkpt lat="53.256077" lon="-1.800838"><ele>213</ele><time>2019-08-30T13:27:15Z</time><name>PT11141</name></trkpt>
<trkpt lat="53.256065" lon="-1.800870"><ele>214</ele><time>2019-08-30T13:27:16Z</time><name>PT11142</name></trkpt>
<trkpt lat="53.256064" lon="-1.800899"><ele>213</ele><time>2019-08-30T13:27:17Z</time><name>PT11143</name></trkpt>
<trkpt lat="53.256063" lon="-1.800916"><ele>213</ele><time>2019-08-30T13:27:18Z</time><name>PT11144</name></trkpt>
<trkpt lat="53.256068" lon="-1.800936"><ele>213</ele><time>2019-08-30T13:27:19Z</time><name>PT11145</name></trkpt>
<trkpt lat="53.256065" lon="-1.800963"><ele>213</ele><time>2019-08-30T13:27:20Z</time><name>PT11146</name></trkpt>
<trkpt lat="53.256053" lon="-1.800994"><ele>214</ele><time>2019-08-30T13:27:21Z</time><name>PT11147</name></trkpt>
<trkpt lat="53.256042" lon="-1.801030"><ele>215</ele><time>2019-08-30T13:27:22Z</time><name>PT11148</name></trkpt>
<trkpt lat="53.256040" lon="-1.801045"><ele>217</ele><time>2019-08-30T13:27:23Z</time><name>PT11149</name></trkpt>
<trkpt lat="53.256045" lon="-1.801062"><ele>218</ele><time>2019-08-30T13:27:24Z</time><name>PT11150</name></trkpt>
<trkpt lat="53.256039" lon="-1.801076"><ele>216</ele><time>2019-08-30T13:27:25Z</time><name>PT11151</name></trkpt>
<trkpt lat="53.256032" lon="-1.801093"><ele>216</ele><time>2019-08-30T13:27:26Z</time><name>PT11152</name></trkpt>
<trkpt lat="53.256031" lon="-1.801114"><ele>217</ele><time>2019-08-30T13:27:27Z</time><name>PT11153</name></trkpt>
<trkpt lat="53.256029" lon="-1.801140"><ele>216</ele><time>2019-08-30T13:27:28Z</time><name>PT11154</name></trkpt>
<trkpt lat="53.256016" lon="-1.801157"><ele>217</ele><time>2019-08-30T13:27:29Z</time><name>PT11155</name></trkpt>
<trkpt lat="53.256010" lon="-1.801186"><ele>217</ele><time>2019-08-30T13:27:30Z</time><name>PT11156</name></trkpt>
<trkpt lat="53.256017" lon="-1.801202"><ele>217</ele><time>2019-08-30T13:27:31Z</time><name>PT11157</name></trkpt>
<trkpt lat="53.256021" lon="-1.801221"><ele>216</ele><time>2019-08-30T13:27:32Z</time><name>PT11158</name></trkpt>
<trkpt lat="53.256019" lon="-1.801237"><ele>216</ele><time>2019-08-30T13:27:33Z</time><name>PT11159</name></trkpt>
<trkpt lat="53.256009" lon="-1.801270"><ele>217</ele><time>2019-08-30T13:27:34Z</time><name>PT11160</name></trkpt>
<trkpt lat="53.256002" lon="-1.801298"><ele>215</ele><time>2019-08-30T13:27:35Z</time><name>PT11161</name></trkpt>
<trkpt lat="53.256006" lon="-1.801320"><ele>216</ele><time>2019-08-30T13:27:36Z</time><name>PT11162</name></trkpt>
<trkpt lat="53.256003" lon="-1.801336"><ele>216</ele><time>2019-08-30T13:27:37Z</time><name>PT11163</name></trkpt>
<trkpt lat="53.255994" lon="-1.801350"><ele>216</ele><time>2019-08-30T13:27:38Z</time><name>PT11164</name></trkpt>
<trkpt lat="53.255979" lon="-1.801367"><ele>216</ele><time>2019-08-30T13:27:39Z</time><name>PT11165</name></trkpt>
<trkpt lat="53.255974" lon="-1.801382"><ele>217</ele><time>2019-08-30T13:27:40Z</time><name>PT11166</name></trkpt>
<trkpt lat="53.255974" lon="-1.801388"><ele>217</ele><time>2019-08-30T13:27:41Z</time><name>PT11167</name></trkpt>
<trkpt lat="53.255969" lon="-1.801407"><ele>216</ele><time>2019-08-30T13:27:42Z</time><name>PT11168</name></trkpt>
<trkpt lat="53.255969" lon="-1.801423"><ele>216</ele><time>2019-08-30T13:27:43Z</time><name>PT11169</name></trkpt>
<trkpt lat="53.255966" lon="-1.801438"><ele>217</ele><time>2019-08-30T13:27:44Z</time><name>PT11170</name></trkpt>
<trkpt lat="53.255963" lon="-1.801451"><ele>216</ele><time>2019-08-30T13:27:45Z</time><name>PT11171</name></trkpt>
<trkpt lat="53.255965" lon="-1.801468"><ele>217</ele><time>2019-08-30T13:27:46Z</time><name>PT11172</name></trkpt>
<trkpt lat="53.255971" lon="-1.801477"><ele>216</ele><time>2019-08-30T13:27:47Z</time><name>PT11173</name></trkpt>
<trkpt lat="53.255963" lon="-1.801498"><ele>215</ele><time>2019-08-30T13:27:48Z</time><name>PT11174</name></trkpt>
<trkpt lat="53.255960" lon="-1.801502"><ele>218</ele><time>2019-08-30T13:27:49Z</time><name>PT11175</name></trkpt>
<trkpt lat="53.255961" lon="-1.801519"><ele>216</ele><time>2019-08-30T13:27:50Z</time><name>PT11176</name></trkpt>
<trkpt lat="53.255953" lon="-1.801545"><ele>217</ele><time>2019-08-30T13:27:51Z</time><name>PT11177</name></trkpt>
<trkpt lat="53.255957" lon="-1.801561"><ele>217</ele><time>2019-08-30T13:27:52Z</time><name>PT11178</name></trkpt>
<trkpt lat="53.255942" lon="-1.801589"><ele>214</ele><time>2019-08-30T13:27:53Z</time><name>PT11179</name></trkpt>
<trkpt lat="53.255934" lon="-1.801610"><ele>214</ele><time>2019-08-30T13:27:54Z</time><name>PT11180</name></trkpt>
<trkpt lat="53.255919" lon="-1.801642"><ele>213</ele><time>2019-08-30T13:27:55Z</time><name>PT11181</name></trkpt>
<trkpt lat="53.255920" lon="-1.801667"><ele>214</ele><time>2019-08-30T13:27:56Z</time><name>PT11182</name></trkpt>
<trkpt lat="53.255923" lon="-1.801686"><ele>214</ele><time>2019-08-30T13:27:57Z</time><name>PT11183</name></trkpt>
<trkpt lat="53.255926" lon="-1.801705"><ele>214</ele><time>2019-08-30T13:27:58Z</time><name>PT11184</name></trkpt>
<trkpt lat="53.255928" lon="-1.801728"><ele>215</ele><time>2019-08-30T13:27:59Z</time><name>PT11185</name></trkpt>
<trkpt lat="53.255925" lon="-1.801751"><ele>215</ele><time>2019-08-30T13:28:00Z</time><name>PT11186</name></trkpt>
<trkpt lat="53.255931" lon="-1.801771"><ele>215</ele><time>2019-08-30T13:28:01Z</time><name>PT11187</name></trkpt>
<trkpt lat="53.255928" lon="-1.801796"><ele>215</ele><time>2019-08-30T13:28:02Z</time><name>PT11188</name></trkpt>
<trkpt lat="53.255920" lon="-1.801820"><ele>213</ele><time>2019-08-30T13:28:03Z</time><name>PT11189</name></trkpt>
<trkpt lat="53.255918" lon="-1.801850"><ele>210</ele><time>2019-08-30T13:28:04Z</time><name>PT11190</name></trkpt>
<trkpt lat="53.255922" lon="-1.801875"><ele>210</ele><time>2019-08-30T13:28:05Z</time><name>PT11191</name></trkpt>
<trkpt lat="53.255921" lon="-1.801905"><ele>211</ele><time>2019-08-30T13:28:06Z</time><name>PT11192</name></trkpt>
<trkpt lat="53.255909" lon="-1.801941"><ele>211</ele><time>2019-08-30T13:28:07Z</time><name>PT11193</name></trkpt>
<trkpt lat="53.255904" lon="-1.801963"><ele>210</ele><time>2019-08-30T13:28:08Z</time><name>PT11194</name></trkpt>
<trkpt lat="53.255909" lon="-1.801974"><ele>208</ele><time>2019-08-30T13:28:09Z</time><name>PT11195</name></trkpt>
<trkpt lat="53.255912" lon="-1.801986"><ele>208</ele><time>2019-08-30T13:28:10Z</time><name>PT11196</name></trkpt>
<trkpt lat="53.255919" lon="-1.802004"><ele>207</ele><time>2019-08-30T13:28:11Z</time><name>PT11197</name></trkpt>
<trkpt lat="53.255926" lon="-1.802029"><ele>208</ele><time>2019-08-30T13:28:12Z</time><name>PT11198</name></trkpt>
<trkpt lat="53.255928" lon="-1.802050"><ele>210</ele><time>2019-08-30T13:28:13Z</time><name>PT11199</name></trkpt>
<trkpt lat="53.255938" lon="-1.802063"><ele>213</ele><time>2019-08-30T13:28:14Z</time><name>PT11200</name></trkpt>
<trkpt lat="53.255946" lon="-1.802084"><ele>212</ele><time>2019-08-30T13:28:15Z</time><name>PT11201</name></trkpt>
<trkpt lat="53.255953" lon="-1.802104"><ele>212</ele><time>2019-08-30T13:28:16Z</time><name>PT11202</name></trkpt>
<trkpt lat="53.255958" lon="-1.802135"><ele>211</ele><time>2019-08-30T13:28:17Z</time><name>PT11203</name></trkpt>
<trkpt lat="53.255958" lon="-1.802153"><ele>210</ele><time>2019-08-30T13:28:18Z</time><name>PT11204</name></trkpt>
<trkpt lat="53.255959" lon="-1.802163"><ele>210</ele><time>2019-08-30T13:28:19Z</time><name>PT11205</name></trkpt>
<trkpt lat="53.255959" lon="-1.802172"><ele>210</ele><time>2019-08-30T13:28:20Z</time><name>PT11206</name></trkpt>
<trkpt lat="53.255961" lon="-1.802182"><ele>209</ele><time>2019-08-30T13:28:21Z</time><name>PT11207</name></trkpt>
<trkpt lat="53.255959" lon="-1.802201"><ele>210</ele><time>2019-08-30T13:28:22Z</time><name>PT11208</name></trkpt>
<trkpt lat="53.255959" lon="-1.802225"><ele>211</ele><time>2019-08-30T13:28:23Z</time><name>PT11209</name></trkpt>
<trkpt lat="53.255956" lon="-1.802244"><ele>212</ele><time>2019-08-30T13:28:24Z</time><name>PT11210</name></trkpt>
<trkpt lat="53.255964" lon="-1.802241"><ele>212</ele><time>2019-08-30T13:28:25Z</time><name>PT11211</name></trkpt>
<trkpt lat="53.255966" lon="-1.802253"><ele>213</ele><time>2019-08-30T13:28:26Z</time><name>PT11212</name></trkpt>
<trkpt lat="53.255974" lon="-1.802264"><ele>214</ele><time>2019-08-30T13:28:27Z</time><name>PT11213</name></trkpt>
<trkpt lat="53.255974" lon="-1.802285"><ele>212</ele><time>2019-08-30T13:28:28Z</time><name>PT11214</name></trkpt>
<trkpt lat="53.255976" lon="-1.802310"><ele>213</ele><time>2019-08-30T13:28:29Z</time><name>PT11215</name></trkpt>
<trkpt lat="53.255978" lon="-1.802332"><ele>214</ele><time>2019-08-30T13:28:30Z</time><name>PT11216</name></trkpt>
<trkpt lat="53.255979" lon="-1.802352"><ele>214</ele><time>2019-08-30T13:28:31Z</time><name>PT11217</name></trkpt>
<trkpt lat="53.255980" lon="-1.802380"><ele>215</ele><time>2019-08-30T13:28:32Z</time><name>PT11218</name></trkpt>
<trkpt lat="53.255977" lon="-1.802400"><ele>216</ele><time>2019-08-30T13:28:33Z</time><name>PT11219</name></trkpt>
<trkpt lat="53.255975" lon="-1.802430"><ele>218</ele><time>2019-08-30T13:28:34Z</time><name>PT11220</name></trkpt>
<trkpt lat="53.255976" lon="-1.802458"><ele>219</ele><time>2019-08-30T13:28:35Z</time><name>PT11221</name></trkpt>
<trkpt lat="53.255978" lon="-1.802480"><ele>218</ele><time>2019-08-30T13:28:36Z</time><name>PT11222</name></trkpt>
<trkpt lat="53.255975" lon="-1.802496"><ele>218</ele><time>2019-08-30T13:28:37Z</time><name>PT11223</name></trkpt>
<trkpt lat="53.255978" lon="-1.802509"><ele>219</ele><time>2019-08-30T13:28:38Z</time><name>PT11224</name></trkpt>
<trkpt lat="53.255973" lon="-1.802530"><ele>218</ele><time>2019-08-30T13:28:39Z</time><name>PT11225</name></trkpt>
<trkpt lat="53.255976" lon="-1.802550"><ele>218</ele><time>2019-08-30T13:28:40Z</time><name>PT11226</name></trkpt>
<trkpt lat="53.255971" lon="-1.802569"><ele>218</ele><time>2019-08-30T13:28:41Z</time><name>PT11227</name></trkpt>
<trkpt lat="53.255965" lon="-1.802589"><ele>216</ele><time>2019-08-30T13:28:42Z</time><name>PT11228</name></trkpt>
<trkpt lat="53.255966" lon="-1.802613"><ele>216</ele><time>2019-08-30T13:28:43Z</time><name>PT11229</name></trkpt>
<trkpt lat="53.255975" lon="-1.802626"><ele>215</ele><time>2019-08-30T13:28:44Z</time><name>PT11230</name></trkpt>
<trkpt lat="53.255974" lon="-1.802645"><ele>214</ele><time>2019-08-30T13:28:45Z</time><name>PT11231</name></trkpt>
<trkpt lat="53.255972" lon="-1.802664"><ele>214</ele><time>2019-08-30T13:28:46Z</time><name>PT11232</name></trkpt>
<trkpt lat="53.255984" lon="-1.802678"><ele>213</ele><time>2019-08-30T13:28:47Z</time><name>PT11233</name></trkpt>
<trkpt lat="53.255984" lon="-1.802696"><ele>213</ele><time>2019-08-30T13:28:48Z</time><name>PT11234</name></trkpt>
<trkpt lat="53.255984" lon="-1.802720"><ele>213</ele><time>2019-08-30T13:28:49Z</time><name>PT11235</name></trkpt>
<trkpt lat="53.255988" lon="-1.802740"><ele>212</ele><time>2019-08-30T13:28:50Z</time><name>PT11236</name></trkpt>
<trkpt lat="53.255985" lon="-1.802763"><ele>211</ele><time>2019-08-30T13:28:51Z</time><name>PT11237</name></trkpt>
<trkpt lat="53.255986" lon="-1.802789"><ele>211</ele><time>2019-08-30T13:28:52Z</time><name>PT11238</name></trkpt>
<trkpt lat="53.255977" lon="-1.802816"><ele>207</ele><time>2019-08-30T13:28:53Z</time><name>PT11239</name></trkpt>
<trkpt lat="53.255974" lon="-1.802840"><ele>206</ele><time>2019-08-30T13:28:54Z</time><name>PT11240</name></trkpt>
<trkpt lat="53.255975" lon="-1.802858"><ele>204</ele><time>2019-08-30T13:28:55Z</time><name>PT11241</name></trkpt>
<trkpt lat="53.255980" lon="-1.802863"><ele>203</ele><time>2019-08-30T13:28:56Z</time><name>PT11242</name></trkpt>
<trkpt lat="53.255978" lon="-1.802882"><ele>202</ele><time>2019-08-30T13:28:57Z</time><name>PT11243</name></trkpt>
<trkpt lat="53.255985" lon="-1.802895"><ele>203</ele><time>2019-08-30T13:28:58Z</time><name>PT11244</name></trkpt>
<trkpt lat="53.255994" lon="-1.802923"><ele>201</ele><time>2019-08-30T13:28:59Z</time><name>PT11245</name></trkpt>
<trkpt lat="53.256001" lon="-1.802946"><ele>201</ele><time>2019-08-30T13:29:00Z</time><name>PT11246</name></trkpt>
<trkpt lat="53.256006" lon="-1.802982"><ele>202</ele><time>2019-08-30T13:29:01Z</time><name>PT11247</name></trkpt>
<trkpt lat="53.256012" lon="-1.802994"><ele>201</ele><time>2019-08-30T13:29:02Z</time><name>PT11248</name></trkpt>
<trkpt lat="53.256019" lon="-1.803001"><ele>200</ele><time>2019-08-30T13:29:03Z</time><name>PT11249</name></trkpt>
<trkpt lat="53.256025" lon="-1.803015"><ele>199</ele><time>2019-08-30T13:29:04Z</time><name>PT11250</name></trkpt>
<trkpt lat="53.256030" lon="-1.803052"><ele>199</ele><time>2019-08-30T13:29:05Z</time><name>PT11251</name></trkpt>
<trkpt lat="53.256027" lon="-1.803086"><ele>199</ele><time>2019-08-30T13:29:06Z</time><name>PT11252</name></trkpt>
<trkpt lat="53.256028" lon="-1.803115"><ele>200</ele><time>2019-08-30T13:29:07Z</time><name>PT11253</name></trkpt>
<trkpt lat="53.256024" lon="-1.803138"><ele>200</ele><time>2019-08-30T13:29:08Z</time><name>PT11254</name></trkpt>
<trkpt lat="53.256028" lon="-1.803157"><ele>200</ele><time>2019-08-30T13:29:09Z</time><name>PT11255</name></trkpt>
<trkpt lat="53.256026" lon="-1.803184"><ele>200</ele><time>2019-08-30T13:29:10Z</time><name>PT11256</name></trkpt>
<trkpt lat="53.256037" lon="-1.803204"><ele>200</ele><time>2019-08-30T13:29:11Z</time><name>PT11257</name></trkpt>
<trkpt lat="53.256030" lon="-1.803227"><ele>200</ele><time>2019-08-30T13:29:12Z</time><name>PT11258</name></trkpt>
<trkpt lat="53.256034" lon="-1.803241"><ele>200</ele><time>2019-08-30T13:29:13Z</time><name>PT11259</name></trkpt>
<trkpt lat="53.256036" lon="-1.803255"><ele>199</ele><time>2019-08-30T13:29:14Z</time><name>PT11260</name></trkpt>
<trkpt lat="53.256041" lon="-1.803273"><ele>199</ele><time>2019-08-30T13:29:15Z</time><name>PT11261</name></trkpt>
<trkpt lat="53.256052" lon="-1.803289"><ele>198</ele><time>2019-08-30T13:29:16Z</time><name>PT11262</name></trkpt>
<trkpt lat="53.256058" lon="-1.803314"><ele>200</ele><time>2019-08-30T13:29:17Z</time><name>PT11263</name></trkpt>
<trkpt lat="53.256054" lon="-1.803326"><ele>199</ele><time>2019-08-30T13:29:18Z</time><name>PT11264</name></trkpt>
<trkpt lat="53.256062" lon="-1.803342"><ele>199</ele><time>2019-08-30T13:29:19Z</time><name>PT11265</name></trkpt>
<trkpt lat="53.256068" lon="-1.803361"><ele>198</ele><time>2019-08-30T13:29:20Z</time><name>PT11266</name></trkpt>
<trkpt lat="53.256069" lon="-1.803390"><ele>199</ele><time>2019-08-30T13:29:21Z</time><name>PT11267</name></trkpt>
<trkpt lat="53.256071" lon="-1.803413"><ele>200</ele><time>2019-08-30T13:29:22Z</time><name>PT11268</name></trkpt>
<trkpt lat="53.256075" lon="-1.803436"><ele>201</ele><time>2019-08-30T13:29:23Z</time><name>PT11269</name></trkpt>
<trkpt lat="53.256080" lon="-1.803458"><ele>201</ele><time>2019-08-30T13:29:24Z</time><name>PT11270</name></trkpt>
<trkpt lat="53.256080" lon="-1.803487"><ele>202</ele><time>2019-08-30T13:29:25Z</time><name>PT11271</name></trkpt>
<trkpt lat="53.256080" lon="-1.803509"><ele>203</ele><time>2019-08-30T13:29:26Z</time><name>PT11272</name></trkpt>
<trkpt lat="53.256077" lon="-1.803546"><ele>204</ele><time>2019-08-30T13:29:27Z</time><name>PT11273</name></trkpt>
<trkpt lat="53.256100" lon="-1.803556"><ele>204</ele><time>2019-08-30T13:29:28Z</time><name>PT11274</name></trkpt>
<trkpt lat="53.256119" lon="-1.803569"><ele>204</ele><time>2019-08-30T13:29:29Z</time><name>PT11275</name></trkpt>
<trkpt lat="53.256123" lon="-1.803590"><ele>204</ele><time>2019-08-30T13:29:30Z</time><name>PT11276</name></trkpt>
<trkpt lat="53.256122" lon="-1.803612"><ele>204</ele><time>2019-08-30T13:29:31Z</time><name>PT11277</name></trkpt>
<trkpt lat="53.256130" lon="-1.803639"><ele>204</ele><time>2019-08-30T13:29:32Z</time><name>PT11278</name></trkpt>
<trkpt lat="53.256135" lon="-1.803654"><ele>205</ele><time>2019-08-30T13:29:33Z</time><name>PT11279</name></trkpt>
<trkpt lat="53.256141" lon="-1.803661"><ele>205</ele><time>2019-08-30T13:29:34Z</time><name>PT11280</name></trkpt>
<trkpt lat="53.256141" lon="-1.803681"><ele>206</ele><time>2019-08-30T13:29:35Z</time><name>PT11281</name></trkpt>
<trkpt lat="53.256149" lon="-1.803696"><ele>207</ele><time>2019-08-30T13:29:36Z</time><name>PT11282</name></trkpt>
<trkpt lat="53.256152" lon="-1.803719"><ele>207</ele><time>2019-08-30T13:29:37Z</time><name>PT11283</name></trkpt>
<trkpt lat="53.256149" lon="-1.803740"><ele>205</ele><time>2019-08-30T13:29:38Z</time><name>PT11284</name></trkpt>
<trkpt lat="53.256149" lon="-1.803752"><ele>205</ele><time>2019-08-30T13:29:39Z</time><name>PT11285</name></trkpt>
<trkpt lat="53.256146" lon="-1.803771"><ele>206</ele><time>2019-08-30T13:29:40Z</time><name>PT11286</name></trkpt>
<trkpt lat="53.256148" lon="-1.803791"><ele>207</ele><time>2019-08-30T13:29:41Z</time><name>PT11287</name></trkpt>
<trkpt lat="53.256166" lon="-1.803803"><ele>208</ele><time>2019-08-30T13:29:42Z</time><name>PT11288</name></trkpt>
<trkpt lat="53.256181" lon="-1.803811"><ele>208</ele><time>2019-08-30T13:29:43Z</time><name>PT11289</name></trkpt>
<trkpt lat="53.256176" lon="-1.803826"><ele>208</ele><time>2019-08-30T13:29:44Z</time><name>PT11290</name></trkpt>
<trkpt lat="53.256187" lon="-1.803832"><ele>209</ele><time>2019-08-30T13:29:45Z</time><name>PT11291</name></trkpt>
<trkpt lat="53.256193" lon="-1.803844"><ele>208</ele><time>2019-08-30T13:29:46Z</time><name>PT11292</name></trkpt>
<trkpt lat="53.256193" lon="-1.803869"><ele>209</ele><time>2019-08-30T13:29:47Z</time><name>PT11293</name></trkpt>
<trkpt lat="53.256192" lon="-1.803893"><ele>210</ele><time>2019-08-30T13:29:48Z</time><name>PT11294</name></trkpt>
<trkpt lat="53.256198" lon="-1.803904"><ele>210</ele><time>2019-08-30T13:29:49Z</time><name>PT11295</name></trkpt>
<trkpt lat="53.256196" lon="-1.803914"><ele>210</ele><time>2019-08-30T13:29:50Z</time><name>PT11296</name></trkpt>
<trkpt lat="53.256209" lon="-1.803920"><ele>210</ele><time>2019-08-30T13:29:51Z</time><name>PT11297</name></trkpt>
<trkpt lat="53.256212" lon="-1.803927"><ele>208</ele><time>2019-08-30T13:29:52Z</time><name>PT11298</name></trkpt>
<trkpt lat="53.256215" lon="-1.803945"><ele>209</ele><time>2019-08-30T13:29:53Z</time><name>PT11299</name></trkpt>
<trkpt lat="53.256209" lon="-1.803971"><ele>210</ele><time>2019-08-30T13:29:54Z</time><name>PT11300</name></trkpt>
<trkpt lat="53.256206" lon="-1.803994"><ele>210</ele><time>2019-08-30T13:29:55Z</time><name>PT11301</name></trkpt>
<trkpt lat="53.256213" lon="-1.804002"><ele>211</ele><time>2019-08-30T13:29:56Z</time><name>PT11302</name></trkpt>
<trkpt lat="53.256225" lon="-1.804009"><ele>211</ele><time>2019-08-30T13:29:57Z</time><name>PT11303</name></trkpt>
<trkpt lat="53.256229" lon="-1.804020"><ele>209</ele><time>2019-08-30T13:29:58Z</time><name>PT11304</name></trkpt>
<trkpt lat="53.256232" lon="-1.804038"><ele>208</ele><time>2019-08-30T13:29:59Z</time><name>PT11305</name></trkpt>
<trkpt lat="53.256238" lon="-1.804060"><ele>209</ele><time>2019-08-30T13:30:00Z</time><name>PT11306</name></trkpt>
<trkpt lat="53.256250" lon="-1.804080"><ele>210</ele><time>2019-08-30T13:30:01Z</time><name>PT11307</name></trkpt>
<trkpt lat="53.256254" lon="-1.804100"><ele>212</ele><time>2019-08-30T13:30:02Z</time><name>PT11308</name></trkpt>
<trkpt lat="53.256256" lon="-1.804118"><ele>213</ele><time>2019-08-30T13:30:03Z</time><name>PT11309</name></trkpt>
<trkpt lat="53.256254" lon="-1.804153"><ele>215</ele><time>2019-08-30T13:30:04Z</time><name>PT11310</name></trkpt>
<trkpt lat="53.256257" lon="-1.804151"><ele>214</ele><time>2019-08-30T13:30:05Z</time><name>PT11311</name></trkpt>
<trkpt lat="53.256260" lon="-1.804162"><ele>213</ele><time>2019-08-30T13:30:06Z</time><name>PT11312</name></trkpt>
<trkpt lat="53.256261" lon="-1.804186"><ele>215</ele><time>2019-08-30T13:30:07Z</time><name>PT11313</name></trkpt>
<trkpt lat="53.256266" lon="-1.804202"><ele>215</ele><time>2019-08-30T13:30:08Z</time><name>PT11314</name></trkpt>
<trkpt lat="53.256268" lon="-1.804216"><ele>215</ele><time>2019-08-30T13:30:09Z</time><name>PT11315</name></trkpt>
<trkpt lat="53.256272" lon="-1.804228"><ele>214</ele><time>2019-08-30T13:30:10Z</time><name>PT11316</name></trkpt>
<trkpt lat="53.256280" lon="-1.804232"><ele>214</ele><time>2019-08-30T13:30:11Z</time><name>PT11317</name></trkpt>
<trkpt lat="53.256279" lon="-1.804254"><ele>213</ele><time>2019-08-30T13:30:12Z</time><name>PT11318</name></trkpt>
<trkpt lat="53.256276" lon="-1.804282"><ele>212</ele><time>2019-08-30T13:30:13Z</time><name>PT11319</name></trkpt>
<trkpt lat="53.256280" lon="-1.804302"><ele>212</ele><time>2019-08-30T13:30:14Z</time><name>PT11320</name></trkpt>
<trkpt lat="53.256276" lon="-1.804327"><ele>212</ele><time>2019-08-30T13:30:15Z</time><name>PT11321</name></trkpt>
<trkpt lat="53.256282" lon="-1.804347"><ele>213</ele><time>2019-08-30T13:30:16Z</time><name>PT11322</name></trkpt>
<trkpt lat="53.256277" lon="-1.804368"><ele>213</ele><time>2019-08-30T13:30:17Z</time><name>PT11323</name></trkpt>
<trkpt lat="53.256277" lon="-1.804400"><ele>213</ele><time>2019-08-30T13:30:18Z</time><name>PT11324</name></trkpt>
<trkpt lat="53.256276" lon="-1.804430"><ele>214</ele><time>2019-08-30T13:30:19Z</time><name>PT11325</name></trkpt>
<trkpt lat="53.256273" lon="-1.804454"><ele>215</ele><time>2019-08-30T13:30:20Z</time><name>PT11326</name></trkpt>
<trkpt lat="53.256273" lon="-1.804475"><ele>215</ele><time>2019-08-30T13:30:21Z</time><name>PT11327</name></trkpt>
<trkpt lat="53.256275" lon="-1.804498"><ele>216</ele><time>2019-08-30T13:30:22Z</time><name>PT11328</name></trkpt>
<trkpt lat="53.256274" lon="-1.804522"><ele>216</ele><time>2019-08-30T13:30:23Z</time><name>PT11329</name></trkpt>
<trkpt lat="53.256270" lon="-1.804548"><ele>217</ele><time>2019-08-30T13:30:24Z</time><name>PT11330</name></trkpt>
<trkpt lat="53.256273" lon="-1.804561"><ele>217</ele><time>2019-08-30T13:30:25Z</time><name>PT11331</name></trkpt>
<trkpt lat="53.256276" lon="-1.804571"><ele>218</ele><time>2019-08-30T13:30:26Z</time><name>PT11332</name></trkpt>
<trkpt lat="53.256276" lon="-1.804588"><ele>217</ele><time>2019-08-30T13:30:27Z</time><name>PT11333</name></trkpt>
<trkpt lat="53.256277" lon="-1.804612"><ele>218</ele><time>2019-08-30T13:30:28Z</time><name>PT11334</name></trkpt>
<trkpt lat="53.256279" lon="-1.804637"><ele>218</ele><time>2019-08-30T13:30:29Z</time><name>PT11335</name></trkpt>
<trkpt lat="53.256277" lon="-1.804655"><ele>218</ele><time>2019-08-30T13:30:30Z</time><name>PT11336</name></trkpt>
<trkpt lat="53.256276" lon="-1.804678"><ele>218</ele><time>2019-08-30T13:30:31Z</time><name>PT11337</name></trkpt>
<trkpt lat="53.256275" lon="-1.804697"><ele>219</ele><time>2019-08-30T13:30:32Z</time><name>PT11338</name></trkpt>
<trkpt lat="53.256268" lon="-1.804710"><ele>218</ele><time>2019-08-30T13:30:33Z</time><name>PT11339</name></trkpt>
<trkpt lat="53.256263" lon="-1.804723"><ele>217</ele><time>2019-08-30T13:30:34Z</time><name>PT11340</name></trkpt>
<trkpt lat="53.256262" lon="-1.804742"><ele>218</ele><time>2019-08-30T13:30:35Z</time><name>PT11341</name></trkpt>
<trkpt lat="53.256262" lon="-1.804758"><ele>218</ele><time>2019-08-30T13:30:36Z</time><name>PT11342</name></trkpt>
<trkpt lat="53.256265" lon="-1.804771"><ele>217</ele><time>2019-08-30T13:30:37Z</time><name>PT11343</name></trkpt>
<trkpt lat="53.256275" lon="-1.804782"><ele>218</ele><time>2019-08-30T13:30:38Z</time><name>PT11344</name></trkpt>
<trkpt lat="53.256274" lon="-1.804810"><ele>218</ele><time>2019-08-30T13:30:39Z</time><name>PT11345</name></trkpt>
<trkpt lat="53.256273" lon="-1.804846"><ele>218</ele><time>2019-08-30T13:30:40Z</time><name>PT11346</name></trkpt>
<trkpt lat="53.256273" lon="-1.804874"><ele>219</ele><time>2019-08-30T13:30:41Z</time><name>PT11347</name></trkpt>
<trkpt lat="53.256273" lon="-1.804893"><ele>220</ele><time>2019-08-30T13:30:42Z</time><name>PT11348</name></trkpt>
<trkpt lat="53.256269" lon="-1.804915"><ele>221</ele><time>2019-08-30T13:30:43Z</time><name>PT11349</name></trkpt>
<trkpt lat="53.256270" lon="-1.804931"><ele>221</ele><time>2019-08-30T13:30:44Z</time><name>PT11350</name></trkpt>
<trkpt lat="53.256277" lon="-1.804940"><ele>221</ele><time>2019-08-30T13:30:45Z</time><name>PT11351</name></trkpt>
<trkpt lat="53.256283" lon="-1.804957"><ele>221</ele><time>2019-08-30T13:30:46Z</time><name>PT11352</name></trkpt>
<trkpt lat="53.256286" lon="-1.804981"><ele>221</ele><time>2019-08-30T13:30:47Z</time><name>PT11353</name></trkpt>
<trkpt lat="53.256289" lon="-1.805003"><ele>223</ele><time>2019-08-30T13:30:48Z</time><name>PT11354</name></trkpt>
<trkpt lat="53.256285" lon="-1.805019"><ele>223</ele><time>2019-08-30T13:30:49Z</time><name>PT11355</name></trkpt>
<trkpt lat="53.256278" lon="-1.805046"><ele>223</ele><time>2019-08-30T13:30:50Z</time><name>PT11356</name></trkpt>
<trkpt lat="53.256277" lon="-1.805063"><ele>224</ele><time>2019-08-30T13:30:51Z</time><name>PT11357</name></trkpt>
<trkpt lat="53.256286" lon="-1.805079"><ele>224</ele><time>2019-08-30T13:30:52Z</time><name>PT11358</name></trkpt>
<trkpt lat="53.256289" lon="-1.805094"><ele>224</ele><time>2019-08-30T13:30:53Z</time><name>PT11359</name></trkpt>
<trkpt lat="53.256290" lon="-1.805107"><ele>224</ele><time>2019-08-30T13:30:54Z</time><name>PT11360</name></trkpt>
<trkpt lat="53.256292" lon="-1.805122"><ele>225</ele><time>2019-08-30T13:30:55Z</time><name>PT11361</name></trkpt>
<trkpt lat="53.256300" lon="-1.805143"><ele>225</ele><time>2019-08-30T13:30:56Z</time><name>PT11362</name></trkpt>
<trkpt lat="53.256310" lon="-1.805162"><ele>224</ele><time>2019-08-30T13:30:57Z</time><name>PT11363</name></trkpt>
<trkpt lat="53.256312" lon="-1.805187"><ele>224</ele><time>2019-08-30T13:30:58Z</time><name>PT11364</name></trkpt>
<trkpt lat="53.256323" lon="-1.805209"><ele>225</ele><time>2019-08-30T13:30:59Z</time><name>PT11365</name></trkpt>
<trkpt lat="53.256327" lon="-1.805226"><ele>224</ele><time>2019-08-30T13:31:00Z</time><name>PT11366</name></trkpt>
<trkpt lat="53.256328" lon="-1.805248"><ele>224</ele><time>2019-08-30T13:31:01Z</time><name>PT11367</name></trkpt>
<trkpt lat="53.256343" lon="-1.805266"><ele>223</ele><time>2019-08-30T13:31:02Z</time><name>PT11368</name></trkpt>
<trkpt lat="53.256354" lon="-1.805285"><ele>224</ele><time>2019-08-30T13:31:03Z</time><name>PT11369</name></trkpt>
<trkpt lat="53.256361" lon="-1.805303"><ele>224</ele><time>2019-08-30T13:31:04Z</time><name>PT11370</name></trkpt>
<trkpt lat="53.256370" lon="-1.805316"><ele>224</ele><time>2019-08-30T13:31:05Z</time><name>PT11371</name></trkpt>
<trkpt lat="53.256372" lon="-1.805337"><ele>224</ele><time>2019-08-30T13:31:06Z</time><name>PT11372</name></trkpt>
<trkpt lat="53.256384" lon="-1.805344"><ele>221</ele><time>2019-08-30T13:31:07Z</time><name>PT11373</name></trkpt>
<trkpt lat="53.256389" lon="-1.805365"><ele>220</ele><time>2019-08-30T13:31:08Z</time><name>PT11374</name></trkpt>
<trkpt lat="53.256396" lon="-1.805375"><ele>220</ele><time>2019-08-30T13:31:09Z</time><name>PT11375</name></trkpt>
<trkpt lat="53.256403" lon="-1.805380"><ele>220</ele><time>2019-08-30T13:31:10Z</time><name>PT11376</name></trkpt>
<trkpt lat="53.256408" lon="-1.805382"><ele>220</ele><time>2019-08-30T13:31:11Z</time><name>PT11377</name></trkpt>
<trkpt lat="53.256412" lon="-1.805384"><ele>220</ele><time>2019-08-30T13:31:12Z</time><name>PT11378</name></trkpt>
<trkpt lat="53.256427" lon="-1.805414"><ele>218</ele><time>2019-08-30T13:31:16Z</time><name>PT11379</name></trkpt>
<trkpt lat="53.256440" lon="-1.805437"><ele>218</ele><time>2019-08-30T13:31:17Z</time><name>PT11380</name></trkpt>
<trkpt lat="53.256450" lon="-1.805456"><ele>218</ele><time>2019-08-30T13:31:18Z</time><name>PT11381</name></trkpt>
<trkpt lat="53.256448" lon="-1.805481"><ele>218</ele><time>2019-08-30T13:31:19Z</time><name>PT11382</name></trkpt>
<trkpt lat="53.256454" lon="-1.805503"><ele>218</ele><time>2019-08-30T13:31:20Z</time><name>PT11383</name></trkpt>
<trkpt lat="53.256455" lon="-1.805516"><ele>218</ele><time>2019-08-30T13:31:21Z</time><name>PT11384</name></trkpt>
<trkpt lat="53.256454" lon="-1.805535"><ele>218</ele><time>2019-08-30T13:31:22Z</time><name>PT11385</name></trkpt>
<trkpt lat="53.256462" lon="-1.805549"><ele>218</ele><time>2019-08-30T13:31:23Z</time><name>PT11386</name></trkpt>
<trkpt lat="53.256467" lon="-1.805558"><ele>218</ele><time>2019-08-30T13:31:24Z</time><name>PT11387</name></trkpt>
<trkpt lat="53.256464" lon="-1.805565"><ele>218</ele><time>2019-08-30T13:31:25Z</time><name>PT11388</name></trkpt>
<trkpt lat="53.256469" lon="-1.805574"><ele>218</ele><time>2019-08-30T13:31:26Z</time><name>PT11389</name></trkpt>
<trkpt lat="53.256474" lon="-1.805588"><ele>218</ele><time>2019-08-30T13:31:27Z</time><name>PT11390</name></trkpt>
<trkpt lat="53.256479" lon="-1.805596"><ele>219</ele><time>2019-08-30T13:31:28Z</time><name>PT11391</name></trkpt>
<trkpt lat="53.256494" lon="-1.805607"><ele>219</ele><time>2019-08-30T13:31:29Z</time><name>PT11392</name></trkpt>
<trkpt lat="53.256501" lon="-1.805621"><ele>219</ele><time>2019-08-30T13:31:30Z</time><name>PT11393</name></trkpt>
<trkpt lat="53.256510" lon="-1.805633"><ele>219</ele><time>2019-08-30T13:31:31Z</time><name>PT11394</name></trkpt>
<trkpt lat="53.256526" lon="-1.805648"><ele>220</ele><time>2019-08-30T13:31:32Z</time><name>PT11395</name></trkpt>
<trkpt lat="53.256540" lon="-1.805653"><ele>220</ele><time>2019-08-30T13:31:33Z</time><name>PT11396</name></trkpt>
<trkpt lat="53.256546" lon="-1.805662"><ele>219</ele><time>2019-08-30T13:31:34Z</time><name>PT11397</name></trkpt>
<trkpt lat="53.256559" lon="-1.805673"><ele>219</ele><time>2019-08-30T13:31:35Z</time><name>PT11398</name></trkpt>
<trkpt lat="53.256579" lon="-1.805676"><ele>220</ele><time>2019-08-30T13:31:36Z</time><name>PT11399</name></trkpt>
<trkpt lat="53.256586" lon="-1.805677"><ele>220</ele><time>2019-08-30T13:31:37Z</time><name>PT11400</name></trkpt>
<trkpt lat="53.256588" lon="-1.805680"><ele>220</ele><time>2019-08-30T13:31:38Z</time><name>PT11401</name></trkpt>
<trkpt lat="53.256595" lon="-1.805685"><ele>220</ele><time>2019-08-30T13:31:39Z</time><name>PT11402</name></trkpt>
<trkpt lat="53.256602" lon="-1.805688"><ele>220</ele><time>2019-08-30T13:31:40Z</time><name>PT11403</name></trkpt>
<trkpt lat="53.256606" lon="-1.805693"><ele>220</ele><time>2019-08-30T13:31:41Z</time><name>PT11404</name></trkpt>
<trkpt lat="53.256613" lon="-1.805695"><ele>220</ele><time>2019-08-30T13:31:42Z</time><name>PT11405</name></trkpt>
<trkpt lat="53.256617" lon="-1.805707"><ele>219</ele><time>2019-08-30T13:31:44Z</time><name>PT11406</name></trkpt>
<trkpt lat="53.256630" lon="-1.805730"><ele>219</ele><time>2019-08-30T13:31:45Z</time><name>PT11407</name></trkpt>
<trkpt lat="53.256636" lon="-1.805755"><ele>219</ele><time>2019-08-30T13:31:46Z</time><name>PT11408</name></trkpt>
<trkpt lat="53.256640" lon="-1.805765"><ele>219</ele><time>2019-08-30T13:31:47Z</time><name>PT11409</name></trkpt>
<trkpt lat="53.256647" lon="-1.805792"><ele>220</ele><time>2019-08-30T13:31:48Z</time><name>PT11410</name></trkpt>
<trkpt lat="53.256656" lon="-1.805801"><ele>219</ele><time>2019-08-30T13:31:49Z</time><name>PT11411</name></trkpt>
<trkpt lat="53.256657" lon="-1.805829"><ele>220</ele><time>2019-08-30T13:31:50Z</time><name>PT11412</name></trkpt>
<trkpt lat="53.256663" lon="-1.805836"><ele>220</ele><time>2019-08-30T13:31:51Z</time><name>PT11413</name></trkpt>
<trkpt lat="53.256671" lon="-1.805852"><ele>220</ele><time>2019-08-30T13:31:52Z</time><name>PT11414</name></trkpt>
<trkpt lat="53.256679" lon="-1.805868"><ele>220</ele><time>2019-08-30T13:31:53Z</time><name>PT11415</name></trkpt>
<trkpt lat="53.256687" lon="-1.805880"><ele>221</ele><time>2019-08-30T13:31:54Z</time><name>PT11416</name></trkpt>
<trkpt lat="53.256693" lon="-1.805887"><ele>221</ele><time>2019-08-30T13:31:55Z</time><name>PT11417</name></trkpt>
<trkpt lat="53.256700" lon="-1.805893"><ele>221</ele><time>2019-08-30T13:31:56Z</time><name>PT11418</name></trkpt>
<trkpt lat="53.256719" lon="-1.805896"><ele>221</ele><time>2019-08-30T13:31:57Z</time><name>PT11419</name></trkpt>
<trkpt lat="53.256731" lon="-1.805907"><ele>220</ele><time>2019-08-30T13:31:58Z</time><name>PT11420</name></trkpt>
<trkpt lat="53.256738" lon="-1.805914"><ele>220</ele><time>2019-08-30T13:31:59Z</time><name>PT11421</name></trkpt>
<trkpt lat="53.256747" lon="-1.805917"><ele>220</ele><time>2019-08-30T13:32:00Z</time><name>PT11422</name></trkpt>
<trkpt lat="53.256751" lon="-1.805926"><ele>220</ele><time>2019-08-30T13:32:01Z</time><name>PT11423</name></trkpt>
<trkpt lat="53.256743" lon="-1.805949"><ele>220</ele><time>2019-08-30T13:32:02Z</time><name>PT11424</name></trkpt>
<trkpt lat="53.256747" lon="-1.805972"><ele>219</ele><time>2019-08-30T13:32:03Z</time><name>PT11425</name></trkpt>
<trkpt lat="53.256769" lon="-1.805993"><ele>220</ele><time>2019-08-30T13:32:04Z</time><name>PT11426</name></trkpt>
<trkpt lat="53.256788" lon="-1.806008"><ele>220</ele><time>2019-08-30T13:32:05Z</time><name>PT11427</name></trkpt>
<trkpt lat="53.256800" lon="-1.806020"><ele>221</ele><time>2019-08-30T13:32:06Z</time><name>PT11428</name></trkpt>
<trkpt lat="53.256795" lon="-1.806046"><ele>220</ele><time>2019-08-30T13:32:07Z</time><name>PT11429</name></trkpt>
<trkpt lat="53.256796" lon="-1.806060"><ele>220</ele><time>2019-08-30T13:32:08Z</time><name>PT11430</name></trkpt>
<trkpt lat="53.256812" lon="-1.806067"><ele>220</ele><time>2019-08-30T13:32:09Z</time><name>PT11431</name></trkpt>
<trkpt lat="53.256826" lon="-1.806075"><ele>219</ele><time>2019-08-30T13:32:10Z</time><name>PT11432</name></trkpt>
<trkpt lat="53.256843" lon="-1.806078"><ele>220</ele><time>2019-08-30T13:32:11Z</time><name>PT11433</name></trkpt>
<trkpt lat="53.256851" lon="-1.806075"><ele>220</ele><time>2019-08-30T13:32:12Z</time><name>PT11434</name></trkpt>
<trkpt lat="53.256851" lon="-1.806075"><ele>220</ele><time>2019-08-30T13:32:13Z</time><name>PT11435</name></trkpt>
<trkpt lat="53.256857" lon="-1.806075"><ele>219</ele><time>2019-08-30T13:32:14Z</time><name>PT11436</name></trkpt>
<trkpt lat="53.256876" lon="-1.806080"><ele>219</ele><time>2019-08-30T13:32:15Z</time><name>PT11437</name></trkpt>
<trkpt lat="53.256879" lon="-1.806101"><ele>219</ele><time>2019-08-30T13:32:16Z</time><name>PT11438</name></trkpt>
<trkpt lat="53.256891" lon="-1.806112"><ele>219</ele><time>2019-08-30T13:32:17Z</time><name>PT11439</name></trkpt>
<trkpt lat="53.256896" lon="-1.806121"><ele>218</ele><time>2019-08-30T13:32:18Z</time><name>PT11440</name></trkpt>
<trkpt lat="53.256905" lon="-1.806125"><ele>219</ele><time>2019-08-30T13:32:19Z</time><name>PT11441</name></trkpt>
<trkpt lat="53.256905" lon="-1.806143"><ele>219</ele><time>2019-08-30T13:32:20Z</time><name>PT11442</name></trkpt>
<trkpt lat="53.256919" lon="-1.806139"><ele>218</ele><time>2019-08-30T13:32:21Z</time><name>PT11443</name></trkpt>
<trkpt lat="53.256924" lon="-1.806155"><ele>218</ele><time>2019-08-30T13:32:22Z</time><name>PT11444</name></trkpt>
<trkpt lat="53.256929" lon="-1.806167"><ele>218</ele><time>2019-08-30T13:32:23Z</time><name>PT11445</name></trkpt>
<trkpt lat="53.256926" lon="-1.806194"><ele>218</ele><time>2019-08-30T13:32:24Z</time><name>PT11446</name></trkpt>
<trkpt lat="53.256930" lon="-1.806198"><ele>219</ele><time>2019-08-30T13:32:25Z</time><name>PT11447</name></trkpt>
<trkpt lat="53.256938" lon="-1.806199"><ele>219</ele><time>2019-08-30T13:32:26Z</time><name>PT11448</name></trkpt>
<trkpt lat="53.256939" lon="-1.806208"><ele>218</ele><time>2019-08-30T13:32:27Z</time><name>PT11449</name></trkpt>
<trkpt lat="53.256938" lon="-1.806214"><ele>217</ele><time>2019-08-30T13:32:28Z</time><name>PT11450</name></trkpt>
<trkpt lat="53.256939" lon="-1.806223"><ele>218</ele><time>2019-08-30T13:32:29Z</time><name>PT11451</name></trkpt>
<trkpt lat="53.256941" lon="-1.806233"><ele>217</ele><time>2019-08-30T13:32:30Z</time><name>PT11452</name></trkpt>
<trkpt lat="53.256944" lon="-1.806236"><ele>217</ele><time>2019-08-30T13:32:31Z</time><name>PT11453</name></trkpt>
<trkpt lat="53.256954" lon="-1.806233"><ele>217</ele><time>2019-08-30T13:32:32Z</time><name>PT11454</name></trkpt>
<trkpt lat="53.256966" lon="-1.806233"><ele>216</ele><time>2019-08-30T13:32:33Z</time><name>PT11455</name></trkpt>
<trkpt lat="53.256980" lon="-1.806231"><ele>216</ele><time>2019-08-30T13:32:34Z</time><name>PT11456</name></trkpt>
<trkpt lat="53.256984" lon="-1.806249"><ele>217</ele><time>2019-08-30T13:32:35Z</time><name>PT11457</name></trkpt>
<trkpt lat="53.256989" lon="-1.806263"><ele>217</ele><time>2019-08-30T13:32:36Z</time><name>PT11458</name></trkpt>
<trkpt lat="53.256996" lon="-1.806275"><ele>218</ele><time>2019-08-30T13:32:37Z</time><name>PT11459</name></trkpt>
<trkpt lat="53.257002" lon="-1.806288"><ele>217</ele><time>2019-08-30T13:32:38Z</time><name>PT11460</name></trkpt>
<trkpt lat="53.257013" lon="-1.806307"><ele>218</ele><time>2019-08-30T13:32:39Z</time><name>PT11461</name></trkpt>
<trkpt lat="53.257022" lon="-1.806317"><ele>218</ele><time>2019-08-30T13:32:40Z</time><name>PT11462</name></trkpt>
<trkpt lat="53.257027" lon="-1.806329"><ele>218</ele><time>2019-08-30T13:32:41Z</time><name>PT11463</name></trkpt>
<trkpt lat="53.257033" lon="-1.806337"><ele>218</ele><time>2019-08-30T13:32:42Z</time><name>PT11464</name></trkpt>
<trkpt lat="53.257053" lon="-1.806331"><ele>217</ele><time>2019-08-30T13:32:43Z</time><name>PT11465</name></trkpt>
<trkpt lat="53.257059" lon="-1.806332"><ele>217</ele><time>2019-08-30T13:32:44Z</time><name>PT11466</name></trkpt>
<trkpt lat="53.257078" lon="-1.806331"><ele>217</ele><time>2019-08-30T13:32:45Z</time><name>PT11467</name></trkpt>
<trkpt lat="53.257092" lon="-1.806330"><ele>217</ele><time>2019-08-30T13:32:46Z</time><name>PT11468</name></trkpt>
<trkpt lat="53.257102" lon="-1.806336"><ele>218</ele><time>2019-08-30T13:32:47Z</time><name>PT11469</name></trkpt>
<trkpt lat="53.257106" lon="-1.806350"><ele>218</ele><time>2019-08-30T13:32:48Z</time><name>PT11470</name></trkpt>
<trkpt lat="53.257102" lon="-1.806373"><ele>219</ele><time>2019-08-30T13:32:49Z</time><name>PT11471</name></trkpt>
<trkpt lat="53.257115" lon="-1.806380"><ele>219</ele><time>2019-08-30T13:32:50Z</time><name>PT11472</name></trkpt>
<trkpt lat="53.257116" lon="-1.806396"><ele>220</ele><time>2019-08-30T13:32:51Z</time><name>PT11473</name></trkpt>
<trkpt lat="53.257110" lon="-1.806417"><ele>220</ele><time>2019-08-30T13:32:52Z</time><name>PT11474</name></trkpt>
<trkpt lat="53.257123" lon="-1.806424"><ele>219</ele><time>2019-08-30T13:32:53Z</time><name>PT11475</name></trkpt>
<trkpt lat="53.257148" lon="-1.806422"><ele>220</ele><time>2019-08-30T13:32:54Z</time><name>PT11476</name></trkpt>
<trkpt lat="53.257154" lon="-1.806434"><ele>220</ele><time>2019-08-30T13:32:55Z</time><name>PT11477</name></trkpt>
<trkpt lat="53.257159" lon="-1.806439"><ele>220</ele><time>2019-08-30T13:32:56Z</time><name>PT11478</name></trkpt>
<trkpt lat="53.257168" lon="-1.806440"><ele>221</ele><time>2019-08-30T13:32:57Z</time><name>PT11479</name></trkpt>
<trkpt lat="53.257180" lon="-1.806443"><ele>221</ele><time>2019-08-30T13:32:58Z</time><name>PT11480</name></trkpt>
<trkpt lat="53.257195" lon="-1.806442"><ele>222</ele><time>2019-08-30T13:32:59Z</time><name>PT11481</name></trkpt>
<trkpt lat="53.257196" lon="-1.806452"><ele>223</ele><time>2019-08-30T13:33:00Z</time><name>PT11482</name></trkpt>
<trkpt lat="53.257206" lon="-1.806456"><ele>225</ele><time>2019-08-30T13:33:01Z</time><name>PT11483</name></trkpt>
<trkpt lat="53.257215" lon="-1.806456"><ele>224</ele><time>2019-08-30T13:33:02Z</time><name>PT11484</name></trkpt>
<trkpt lat="53.257220" lon="-1.806468"><ele>224</ele><time>2019-08-30T13:33:03Z</time><name>PT11485</name></trkpt>
<trkpt lat="53.257232" lon="-1.806478"><ele>223</ele><time>2019-08-30T13:33:04Z</time><name>PT11486</name></trkpt>
<trkpt lat="53.257231" lon="-1.806495"><ele>224</ele><time>2019-08-30T13:33:05Z</time><name>PT11487</name></trkpt>
<trkpt lat="53.257239" lon="-1.806501"><ele>224</ele><time>2019-08-30T13:33:06Z</time><name>PT11488</name></trkpt>
<trkpt lat="53.257243" lon="-1.806507"><ele>224</ele><time>2019-08-30T13:33:07Z</time><name>PT11489</name></trkpt>
<trkpt lat="53.257252" lon="-1.806503"><ele>224</ele><time>2019-08-30T13:33:08Z</time><name>PT11490</name></trkpt>
<trkpt lat="53.257272" lon="-1.806534"><ele>224</ele><time>2019-08-30T13:33:13Z</time><name>PT11491</name></trkpt>
<trkpt lat="53.257294" lon="-1.806562"><ele>223</ele><time>2019-08-30T13:33:14Z</time><name>PT11492</name></trkpt>
<trkpt lat="53.257315" lon="-1.806570"><ele>222</ele><time>2019-08-30T13:33:15Z</time><name>PT11493</name></trkpt>
<trkpt lat="53.257331" lon="-1.806596"><ele>222</ele><time>2019-08-30T13:33:16Z</time><name>PT11494</name></trkpt>
<trkpt lat="53.257344" lon="-1.806620"><ele>221</ele><time>2019-08-30T13:33:17Z</time><name>PT11495</name></trkpt>
<trkpt lat="53.257361" lon="-1.806627"><ele>221</ele><time>2019-08-30T13:33:18Z</time><name>PT11496</name></trkpt>
<trkpt lat="53.257375" lon="-1.806641"><ele>221</ele><time>2019-08-30T13:33:19Z</time><name>PT11497</name></trkpt>
<trkpt lat="53.257384" lon="-1.806654"><ele>221</ele><time>2019-08-30T13:33:20Z</time><name>PT11498</name></trkpt>
<trkpt lat="53.257398" lon="-1.806665"><ele>221</ele><time>2019-08-30T13:33:21Z</time><name>PT11499</name></trkpt>
<trkpt lat="53.257400" lon="-1.806682"><ele>221</ele><time>2019-08-30T13:33:22Z</time><name>PT11500</name></trkpt>
<trkpt lat="53.257410" lon="-1.806684"><ele>221</ele><time>2019-08-30T13:33:23Z</time><name>PT11501</name></trkpt>
<trkpt lat="53.257416" lon="-1.806701"><ele>221</ele><time>2019-08-30T13:33:24Z</time><name>PT11502</name></trkpt>
<trkpt lat="53.257420" lon="-1.806707"><ele>220</ele><time>2019-08-30T13:33:25Z</time><name>PT11503</name></trkpt>
<trkpt lat="53.257430" lon="-1.806715"><ele>221</ele><time>2019-08-30T13:33:26Z</time><name>PT11504</name></trkpt>
<trkpt lat="53.257439" lon="-1.806720"><ele>221</ele><time>2019-08-30T13:33:27Z</time><name>PT11505</name></trkpt>
<trkpt lat="53.257439" lon="-1.806716"><ele>221</ele><time>2019-08-30T13:33:28Z</time><name>PT11506</name></trkpt>
<trkpt lat="53.257453" lon="-1.806732"><ele>221</ele><time>2019-08-30T13:33:29Z</time><name>PT11507</name></trkpt>
<trkpt lat="53.257466" lon="-1.806722"><ele>221</ele><time>2019-08-30T13:33:30Z</time><name>PT11508</name></trkpt>
<trkpt lat="53.257475" lon="-1.806725"><ele>221</ele><time>2019-08-30T13:33:31Z</time><name>PT11509</name></trkpt>
<trkpt lat="53.257479" lon="-1.806736"><ele>221</ele><time>2019-08-30T13:33:32Z</time><name>PT11510</name></trkpt>
<trkpt lat="53.257492" lon="-1.806752"><ele>221</ele><time>2019-08-30T13:33:33Z</time><name>PT11511</name></trkpt>
<trkpt lat="53.257495" lon="-1.806768"><ele>221</ele><time>2019-08-30T13:33:34Z</time><name>PT11512</name></trkpt>
<trkpt lat="53.257503" lon="-1.806780"><ele>221</ele><time>2019-08-30T13:33:35Z</time><name>PT11513</name></trkpt>
<trkpt lat="53.257513" lon="-1.806786"><ele>220</ele><time>2019-08-30T13:33:36Z</time><name>PT11514</name></trkpt>
<trkpt lat="53.257502" lon="-1.806799"><ele>221</ele><time>2019-08-30T13:33:37Z</time><name>PT11515</name></trkpt>
<trkpt lat="53.257514" lon="-1.806801"><ele>221</ele><time>2019-08-30T13:33:38Z</time><name>PT11516</name></trkpt>
<trkpt lat="53.257522" lon="-1.806817"><ele>221</ele><time>2019-08-30T13:33:39Z</time><name>PT11517</name></trkpt>
<trkpt lat="53.257539" lon="-1.806811"><ele>221</ele><time>2019-08-30T13:33:40Z</time><name>PT11518</name></trkpt>
<trkpt lat="53.257549" lon="-1.806830"><ele>222</ele><time>2019-08-30T13:33:41Z</time><name>PT11519</name></trkpt>
<trkpt lat="53.257538" lon="-1.806844"><ele>221</ele><time>2019-08-30T13:33:42Z</time><name>PT11520</name></trkpt>
<trkpt lat="53.257540" lon="-1.806859"><ele>221</ele><time>2019-08-30T13:33:43Z</time><name>PT11521</name></trkpt>
<trkpt lat="53.257558" lon="-1.806860"><ele>220</ele><time>2019-08-30T13:33:44Z</time><name>PT11522</name></trkpt>
<trkpt lat="53.257571" lon="-1.806871"><ele>220</ele><time>2019-08-30T13:33:45Z</time><name>PT11523</name></trkpt>
<trkpt lat="53.257581" lon="-1.806891"><ele>220</ele><time>2019-08-30T13:33:46Z</time><name>PT11524</name></trkpt>
<trkpt lat="53.257600" lon="-1.806890"><ele>220</ele><time>2019-08-30T13:33:47Z</time><name>PT11525</name></trkpt>
<trkpt lat="53.257614" lon="-1.806896"><ele>219</ele><time>2019-08-30T13:33:48Z</time><name>PT11526</name></trkpt>
<trkpt lat="53.257620" lon="-1.806906"><ele>219</ele><time>2019-08-30T13:33:49Z</time><name>PT11527</name></trkpt>
<trkpt lat="53.257621" lon="-1.806917"><ele>219</ele><time>2019-08-30T13:33:50Z</time><name>PT11528</name></trkpt>
<trkpt lat="53.257635" lon="-1.806910"><ele>218</ele><time>2019-08-30T13:33:51Z</time><name>PT11529</name></trkpt>
<trkpt lat="53.257646" lon="-1.806915"><ele>218</ele><time>2019-08-30T13:33:52Z</time><name>PT11530</name></trkpt>
<trkpt lat="53.257655" lon="-1.806928"><ele>218</ele><time>2019-08-30T13:33:53Z</time><name>PT11531</name></trkpt>
<trkpt lat="53.257664" lon="-1.806935"><ele>218</ele><time>2019-08-30T13:33:54Z</time><name>PT11532</name></trkpt>
<trkpt lat="53.257673" lon="-1.806936"><ele>217</ele><time>2019-08-30T13:33:55Z</time><name>PT11533</name></trkpt>
<trkpt lat="53.257663" lon="-1.806948"><ele>216</ele><time>2019-08-30T13:33:56Z</time><name>PT11534</name></trkpt>
<trkpt lat="53.257673" lon="-1.806953"><ele>216</ele><time>2019-08-30T13:33:57Z</time><name>PT11535</name></trkpt>
<trkpt lat="53.257691" lon="-1.806960"><ele>216</ele><time>2019-08-30T13:33:58Z</time><name>PT11536</name></trkpt>
<trkpt lat="53.257703" lon="-1.806972"><ele>215</ele><time>2019-08-30T13:33:59Z</time><name>PT11537</name></trkpt>
<trkpt lat="53.257708" lon="-1.806992"><ele>214</ele><time>2019-08-30T13:34:00Z</time><name>PT11538</name></trkpt>
<trkpt lat="53.257704" lon="-1.807014"><ele>214</ele><time>2019-08-30T13:34:01Z</time><name>PT11539</name></trkpt>
<trkpt lat="53.257713" lon="-1.807025"><ele>214</ele><time>2019-08-30T13:34:02Z</time><name>PT11540</name></trkpt>
<trkpt lat="53.257719" lon="-1.807032"><ele>214</ele><time>2019-08-30T13:34:03Z</time><name>PT11541</name></trkpt>
<trkpt lat="53.257724" lon="-1.807050"><ele>214</ele><time>2019-08-30T13:34:04Z</time><name>PT11542</name></trkpt>
<trkpt lat="53.257735" lon="-1.807058"><ele>214</ele><time>2019-08-30T13:34:05Z</time><name>PT11543</name></trkpt>
<trkpt lat="53.257745" lon="-1.807073"><ele>213</ele><time>2019-08-30T13:34:06Z</time><name>PT11544</name></trkpt>
<trkpt lat="53.257755" lon="-1.807087"><ele>213</ele><time>2019-08-30T13:34:07Z</time><name>PT11545</name></trkpt>
<trkpt lat="53.257755" lon="-1.807111"><ele>213</ele><time>2019-08-30T13:34:08Z</time><name>PT11546</name></trkpt>
<trkpt lat="53.257758" lon="-1.807126"><ele>212</ele><time>2019-08-30T13:34:09Z</time><name>PT11547</name></trkpt>
<trkpt lat="53.257750" lon="-1.807149"><ele>212</ele><time>2019-08-30T13:34:10Z</time><name>PT11548</name></trkpt>
<trkpt lat="53.257758" lon="-1.807164"><ele>212</ele><time>2019-08-30T13:34:11Z</time><name>PT11549</name></trkpt>
<trkpt lat="53.257763" lon="-1.807178"><ele>212</ele><time>2019-08-30T13:34:12Z</time><name>PT11550</name></trkpt>
<trkpt lat="53.257784" lon="-1.807171"><ele>212</ele><time>2019-08-30T13:34:13Z</time><name>PT11551</name></trkpt>
<trkpt lat="53.257787" lon="-1.807180"><ele>212</ele><time>2019-08-30T13:34:14Z</time><name>PT11552</name></trkpt>
<trkpt lat="53.257785" lon="-1.807188"><ele>211</ele><time>2019-08-30T13:34:15Z</time><name>PT11553</name></trkpt>
<trkpt lat="53.257790" lon="-1.807198"><ele>211</ele><time>2019-08-30T13:34:16Z</time><name>PT11554</name></trkpt>
<trkpt lat="53.257792" lon="-1.807201"><ele>211</ele><time>2019-08-30T13:34:17Z</time><name>PT11555</name></trkpt>
<trkpt lat="53.257797" lon="-1.807210"><ele>211</ele><time>2019-08-30T13:34:18Z</time><name>PT11556</name></trkpt>
<trkpt lat="53.257807" lon="-1.807236"><ele>210</ele><time>2019-08-30T13:34:24Z</time><name>PT11557</name></trkpt>
<trkpt lat="53.257814" lon="-1.807270"><ele>209</ele><time>2019-08-30T13:34:25Z</time><name>PT11558</name></trkpt>
<trkpt lat="53.257832" lon="-1.807291"><ele>209</ele><time>2019-08-30T13:34:26Z</time><name>PT11559</name></trkpt>
<trkpt lat="53.257847" lon="-1.807310"><ele>208</ele><time>2019-08-30T13:34:27Z</time><name>PT11560</name></trkpt>
<trkpt lat="53.257852" lon="-1.807325"><ele>208</ele><time>2019-08-30T13:34:28Z</time><name>PT11561</name></trkpt>
<trkpt lat="53.257858" lon="-1.807339"><ele>208</ele><time>2019-08-30T13:34:29Z</time><name>PT11562</name></trkpt>
<trkpt lat="53.257865" lon="-1.807349"><ele>208</ele><time>2019-08-30T13:34:30Z</time><name>PT11563</name></trkpt>
<trkpt lat="53.257889" lon="-1.807354"><ele>207</ele><time>2019-08-30T13:34:31Z</time><name>PT11564</name></trkpt>
<trkpt lat="53.257891" lon="-1.807370"><ele>207</ele><time>2019-08-30T13:34:32Z</time><name>PT11565</name></trkpt>
<trkpt lat="53.257894" lon="-1.807382"><ele>207</ele><time>2019-08-30T13:34:33Z</time><name>PT11566</name></trkpt>
<trkpt lat="53.257902" lon="-1.807390"><ele>207</ele><time>2019-08-30T13:34:34Z</time><name>PT11567</name></trkpt>
<trkpt lat="53.257915" lon="-1.807397"><ele>207</ele><time>2019-08-30T13:34:35Z</time><name>PT11568</name></trkpt>
<trkpt lat="53.257922" lon="-1.807416"><ele>207</ele><time>2019-08-30T13:34:36Z</time><name>PT11569</name></trkpt>
<trkpt lat="53.257929" lon="-1.807433"><ele>207</ele><time>2019-08-30T13:34:37Z</time><name>PT11570</name></trkpt>
<trkpt lat="53.257937" lon="-1.807436"><ele>206</ele><time>2019-08-30T13:34:38Z</time><name>PT11571</name></trkpt>
<trkpt lat="53.257937" lon="-1.807459"><ele>207</ele><time>2019-08-30T13:34:39Z</time><name>PT11572</name></trkpt>
<trkpt lat="53.257939" lon="-1.807481"><ele>206</ele><time>2019-08-30T13:34:40Z</time><name>PT11573</name></trkpt>
<trkpt lat="53.257940" lon="-1.807505"><ele>207</ele><time>2019-08-30T13:34:41Z</time><name>PT11574</name></trkpt>
<trkpt lat="53.257945" lon="-1.807527"><ele>207</ele><time>2019-08-30T13:34:42Z</time><name>PT11575</name></trkpt>
<trkpt lat="53.257945" lon="-1.807551"><ele>207</ele><time>2019-08-30T13:34:43Z</time><name>PT11576</name></trkpt>
<trkpt lat="53.257952" lon="-1.807562"><ele>207</ele><time>2019-08-30T13:34:44Z</time><name>PT11577</name></trkpt>
<trkpt lat="53.257957" lon="-1.807574"><ele>207</ele><time>2019-08-30T13:34:45Z</time><name>PT11578</name></trkpt>
<trkpt lat="53.257958" lon="-1.807601"><ele>207</ele><time>2019-08-30T13:34:46Z</time><name>PT11579</name></trkpt>
<trkpt lat="53.257962" lon="-1.807615"><ele>207</ele><time>2019-08-30T13:34:47Z</time><name>PT11580</name></trkpt>
<trkpt lat="53.257958" lon="-1.807630"><ele>207</ele><time>2019-08-30T13:34:48Z</time><name>PT11581</name></trkpt>
<trkpt lat="53.257969" lon="-1.807644"><ele>207</ele><time>2019-08-30T13:34:49Z</time><name>PT11582</name></trkpt>
<trkpt lat="53.257983" lon="-1.807639"><ele>207</ele><time>2019-08-30T13:34:50Z</time><name>PT11583</name></trkpt>
<trkpt lat="53.257997" lon="-1.807651"><ele>207</ele><time>2019-08-30T13:34:51Z</time><name>PT11584</name></trkpt>
<trkpt lat="53.258008" lon="-1.807662"><ele>208</ele><time>2019-08-30T13:34:52Z</time><name>PT11585</name></trkpt>
<trkpt lat="53.258014" lon="-1.807680"><ele>208</ele><time>2019-08-30T13:34:53Z</time><name>PT11586</name></trkpt>
<trkpt lat="53.258016" lon="-1.807703"><ele>208</ele><time>2019-08-30T13:34:54Z</time><name>PT11587</name></trkpt>
<trkpt lat="53.258015" lon="-1.807715"><ele>207</ele><time>2019-08-30T13:34:55Z</time><name>PT11588</name></trkpt>
<trkpt lat="53.258020" lon="-1.807717"><ele>207</ele><time>2019-08-30T13:34:56Z</time><name>PT11589</name></trkpt>
<trkpt lat="53.258012" lon="-1.807740"><ele>207</ele><time>2019-08-30T13:34:57Z</time><name>PT11590</name></trkpt>
<trkpt lat="53.258006" lon="-1.807759"><ele>206</ele><time>2019-08-30T13:34:58Z</time><name>PT11591</name></trkpt>
<trkpt lat="53.258014" lon="-1.807771"><ele>206</ele><time>2019-08-30T13:34:59Z</time><name>PT11592</name></trkpt>
<trkpt lat="53.258005" lon="-1.807804"><ele>206</ele><time>2019-08-30T13:35:00Z</time><name>PT11593</name></trkpt>
<trkpt lat="53.258000" lon="-1.807827"><ele>206</ele><time>2019-08-30T13:35:01Z</time><name>PT11594</name></trkpt>
<trkpt lat="53.258000" lon="-1.807838"><ele>206</ele><time>2019-08-30T13:35:02Z</time><name>PT11595</name></trkpt>
<trkpt lat="53.258004" lon="-1.807859"><ele>206</ele><time>2019-08-30T13:35:03Z</time><name>PT11596</name></trkpt>
<trkpt lat="53.258011" lon="-1.807875"><ele>206</ele><time>2019-08-30T13:35:04Z</time><name>PT11597</name></trkpt>
<trkpt lat="53.258017" lon="-1.807892"><ele>206</ele><time>2019-08-30T13:35:05Z</time><name>PT11598</name></trkpt>
<trkpt lat="53.258009" lon="-1.807911"><ele>206</ele><time>2019-08-30T13:35:06Z</time><name>PT11599</name></trkpt>
<trkpt lat="53.258009" lon="-1.807924"><ele>207</ele><time>2019-08-30T13:35:07Z</time><name>PT11600</name></trkpt>
<trkpt lat="53.258007" lon="-1.807943"><ele>207</ele><time>2019-08-30T13:35:08Z</time><name>PT11601</name></trkpt>
<trkpt lat="53.258016" lon="-1.807952"><ele>207</ele><time>2019-08-30T13:35:09Z</time><name>PT11602</name></trkpt>
<trkpt lat="53.258020" lon="-1.807968"><ele>208</ele><time>2019-08-30T13:35:10Z</time><name>PT11603</name></trkpt>
<trkpt lat="53.258023" lon="-1.807988"><ele>208</ele><time>2019-08-30T13:35:11Z</time><name>PT11604</name></trkpt>
<trkpt lat="53.258030" lon="-1.808007"><ele>208</ele><time>2019-08-30T13:35:12Z</time><name>PT11605</name></trkpt>
<trkpt lat="53.258031" lon="-1.808031"><ele>208</ele><time>2019-08-30T13:35:13Z</time><name>PT11606</name></trkpt>
<trkpt lat="53.258037" lon="-1.808047"><ele>208</ele><time>2019-08-30T13:35:14Z</time><name>PT11607</name></trkpt>
<trkpt lat="53.258036" lon="-1.808077"><ele>209</ele><time>2019-08-30T13:35:15Z</time><name>PT11608</name></trkpt>
<trkpt lat="53.258051" lon="-1.808093"><ele>209</ele><time>2019-08-30T13:35:16Z</time><name>PT11609</name></trkpt>
<trkpt lat="53.258051" lon="-1.808110"><ele>209</ele><time>2019-08-30T13:35:17Z</time><name>PT11610</name></trkpt>
<trkpt lat="53.258050" lon="-1.808143"><ele>209</ele><time>2019-08-30T13:35:18Z</time><name>PT11611</name></trkpt>
<trkpt lat="53.258052" lon="-1.808167"><ele>209</ele><time>2019-08-30T13:35:19Z</time><name>PT11612</name></trkpt>
<trkpt lat="53.258050" lon="-1.808188"><ele>210</ele><time>2019-08-30T13:35:20Z</time><name>PT11613</name></trkpt>
<trkpt lat="53.258051" lon="-1.808203"><ele>210</ele><time>2019-08-30T13:35:21Z</time><name>PT11614</name></trkpt>
<trkpt lat="53.258053" lon="-1.808226"><ele>210</ele><time>2019-08-30T13:35:22Z</time><name>PT11615</name></trkpt>
<trkpt lat="53.258053" lon="-1.808248"><ele>210</ele><time>2019-08-30T13:35:23Z</time><name>PT11616</name></trkpt>
<trkpt lat="53.258053" lon="-1.808281"><ele>210</ele><time>2019-08-30T13:35:24Z</time><name>PT11617</name></trkpt>
<trkpt lat="53.258048" lon="-1.808305"><ele>210</ele><time>2019-08-30T13:35:25Z</time><name>PT11618</name></trkpt>
<trkpt lat="53.258047" lon="-1.808335"><ele>208</ele><time>2019-08-30T13:35:26Z</time><name>PT11619</name></trkpt>
<trkpt lat="53.258049" lon="-1.808355"><ele>208</ele><time>2019-08-30T13:35:27Z</time><name>PT11620</name></trkpt>
<trkpt lat="53.258047" lon="-1.808376"><ele>208</ele><time>2019-08-30T13:35:28Z</time><name>PT11621</name></trkpt>
<trkpt lat="53.258043" lon="-1.808397"><ele>208</ele><time>2019-08-30T13:35:29Z</time><name>PT11622</name></trkpt>
<trkpt lat="53.258047" lon="-1.808422"><ele>207</ele><time>2019-08-30T13:35:30Z</time><name>PT11623</name></trkpt>
<trkpt lat="53.258052" lon="-1.808441"><ele>206</ele><time>2019-08-30T13:35:31Z</time><name>PT11624</name></trkpt>
<trkpt lat="53.258051" lon="-1.808471"><ele>206</ele><time>2019-08-30T13:35:32Z</time><name>PT11625</name></trkpt>
<trkpt lat="53.258050" lon="-1.808501"><ele>207</ele><time>2019-08-30T13:35:33Z</time><name>PT11626</name></trkpt>
<trkpt lat="53.258050" lon="-1.808523"><ele>208</ele><time>2019-08-30T13:35:34Z</time><name>PT11627</name></trkpt>
<trkpt lat="53.258051" lon="-1.808540"><ele>208</ele><time>2019-08-30T13:35:35Z</time><name>PT11628</name></trkpt>
<trkpt lat="53.258054" lon="-1.808560"><ele>207</ele><time>2019-08-30T13:35:36Z</time><name>PT11629</name></trkpt>
<trkpt lat="53.258063" lon="-1.808581"><ele>207</ele><time>2019-08-30T13:35:37Z</time><name>PT11630</name></trkpt>
<trkpt lat="53.258065" lon="-1.808607"><ele>208</ele><time>2019-08-30T13:35:38Z</time><name>PT11631</name></trkpt>
<trkpt lat="53.258069" lon="-1.808625"><ele>208</ele><time>2019-08-30T13:35:39Z</time><name>PT11632</name></trkpt>
<trkpt lat="53.258069" lon="-1.808638"><ele>208</ele><time>2019-08-30T13:35:40Z</time><name>PT11633</name></trkpt>
<trkpt lat="53.258069" lon="-1.808654"><ele>209</ele><time>2019-08-30T13:35:41Z</time><name>PT11634</name></trkpt>
<trkpt lat="53.258087" lon="-1.808665"><ele>209</ele><time>2019-08-30T13:35:42Z</time><name>PT11635</name></trkpt>
<trkpt lat="53.258089" lon="-1.808684"><ele>210</ele><time>2019-08-30T13:35:43Z</time><name>PT11636</name></trkpt>
<trkpt lat="53.258094" lon="-1.808710"><ele>210</ele><time>2019-08-30T13:35:44Z</time><name>PT11637</name></trkpt>
<trkpt lat="53.258098" lon="-1.808727"><ele>211</ele><time>2019-08-30T13:35:45Z</time><name>PT11638</name></trkpt>
<trkpt lat="53.258110" lon="-1.808737"><ele>211</ele><time>2019-08-30T13:35:46Z</time><name>PT11639</name></trkpt>
<trkpt lat="53.258112" lon="-1.808753"><ele>212</ele><time>2019-08-30T13:35:47Z</time><name>PT11640</name></trkpt>
<trkpt lat="53.258120" lon="-1.808761"><ele>212</ele><time>2019-08-30T13:35:48Z</time><name>PT11641</name></trkpt>
<trkpt lat="53.258126" lon="-1.808776"><ele>212</ele><time>2019-08-30T13:35:49Z</time><name>PT11642</name></trkpt>
<trkpt lat="53.258137" lon="-1.808793"><ele>213</ele><time>2019-08-30T13:35:50Z</time><name>PT11643</name></trkpt>
<trkpt lat="53.258140" lon="-1.808817"><ele>213</ele><time>2019-08-30T13:35:51Z</time><name>PT11644</name></trkpt>
<trkpt lat="53.258142" lon="-1.808835"><ele>214</ele><time>2019-08-30T13:35:52Z</time><name>PT11645</name></trkpt>
<trkpt lat="53.258140" lon="-1.808841"><ele>214</ele><time>2019-08-30T13:35:53Z</time><name>PT11646</name></trkpt>
<trkpt lat="53.258138" lon="-1.808849"><ele>215</ele><time>2019-08-30T13:35:54Z</time><name>PT11647</name></trkpt>
<trkpt lat="53.258133" lon="-1.808866"><ele>215</ele><time>2019-08-30T13:35:55Z</time><name>PT11648</name></trkpt>
<trkpt lat="53.258133" lon="-1.808885"><ele>215</ele><time>2019-08-30T13:35:56Z</time><name>PT11649</name></trkpt>
<trkpt lat="53.258134" lon="-1.808906"><ele>217</ele><time>2019-08-30T13:35:57Z</time><name>PT11650</name></trkpt>
<trkpt lat="53.258130" lon="-1.808925"><ele>215</ele><time>2019-08-30T13:35:58Z</time><name>PT11651</name></trkpt>
<trkpt lat="53.258139" lon="-1.808944"><ele>213</ele><time>2019-08-30T13:35:59Z</time><name>PT11652</name></trkpt>
<trkpt lat="53.258151" lon="-1.808958"><ele>213</ele><time>2019-08-30T13:36:00Z</time><name>PT11653</name></trkpt>
<trkpt lat="53.258143" lon="-1.808970"><ele>212</ele><time>2019-08-30T13:36:01Z</time><name>PT11654</name></trkpt>
<trkpt lat="53.258145" lon="-1.808990"><ele>212</ele><time>2019-08-30T13:36:02Z</time><name>PT11655</name></trkpt>
<trkpt lat="53.258143" lon="-1.809016"><ele>213</ele><time>2019-08-30T13:36:03Z</time><name>PT11656</name></trkpt>
<trkpt lat="53.258145" lon="-1.809031"><ele>213</ele><time>2019-08-30T13:36:04Z</time><name>PT11657</name></trkpt>
<trkpt lat="53.258149" lon="-1.809047"><ele>212</ele><time>2019-08-30T13:36:05Z</time><name>PT11658</name></trkpt>
<trkpt lat="53.258146" lon="-1.809065"><ele>213</ele><time>2019-08-30T13:36:06Z</time><name>PT11659</name></trkpt>
<trkpt lat="53.258140" lon="-1.809085"><ele>212</ele><time>2019-08-30T13:36:07Z</time><name>PT11660</name></trkpt>
<trkpt lat="53.258139" lon="-1.809103"><ele>213</ele><time>2019-08-30T13:36:08Z</time><name>PT11661</name></trkpt>
<trkpt lat="53.258136" lon="-1.809118"><ele>213</ele><time>2019-08-30T13:36:09Z</time><name>PT11662</name></trkpt>
<trkpt lat="53.258139" lon="-1.809129"><ele>213</ele><time>2019-08-30T13:36:10Z</time><name>PT11663</name></trkpt>
<trkpt lat="53.258138" lon="-1.809149"><ele>214</ele><time>2019-08-30T13:36:11Z</time><name>PT11664</name></trkpt>
<trkpt lat="53.258132" lon="-1.809178"><ele>214</ele><time>2019-08-30T13:36:12Z</time><name>PT11665</name></trkpt>
<trkpt lat="53.258124" lon="-1.809203"><ele>215</ele><time>2019-08-30T13:36:13Z</time><name>PT11666</name></trkpt>
<trkpt lat="53.258119" lon="-1.809225"><ele>215</ele><time>2019-08-30T13:36:14Z</time><name>PT11667</name></trkpt>
<trkpt lat="53.258111" lon="-1.809241"><ele>214</ele><time>2019-08-30T13:36:15Z</time><name>PT11668</name></trkpt>
<trkpt lat="53.258104" lon="-1.809257"><ele>213</ele><time>2019-08-30T13:36:16Z</time><name>PT11669</name></trkpt>
<trkpt lat="53.258104" lon="-1.809281"><ele>213</ele><time>2019-08-30T13:36:17Z</time><name>PT11670</name></trkpt>
<trkpt lat="53.258103" lon="-1.809291"><ele>213</ele><time>2019-08-30T13:36:18Z</time><name>PT11671</name></trkpt>
<trkpt lat="53.258105" lon="-1.809306"><ele>213</ele><time>2019-08-30T13:36:19Z</time><name>PT11672</name></trkpt>
<trkpt lat="53.258108" lon="-1.809318"><ele>213</ele><time>2019-08-30T13:36:20Z</time><name>PT11673</name></trkpt>
<trkpt lat="53.258109" lon="-1.809336"><ele>213</ele><time>2019-08-30T13:36:21Z</time><name>PT11674</name></trkpt>
<trkpt lat="53.258105" lon="-1.809349"><ele>213</ele><time>2019-08-30T13:36:22Z</time><name>PT11675</name></trkpt>
<trkpt lat="53.258099" lon="-1.809367"><ele>213</ele><time>2019-08-30T13:36:23Z</time><name>PT11676</name></trkpt>
<trkpt lat="53.258090" lon="-1.809381"><ele>213</ele><time>2019-08-30T13:36:24Z</time><name>PT11677</name></trkpt>
<trkpt lat="53.258088" lon="-1.809397"><ele>213</ele><time>2019-08-30T13:36:25Z</time><name>PT11678</name></trkpt>
<trkpt lat="53.258077" lon="-1.809407"><ele>214</ele><time>2019-08-30T13:36:26Z</time><name>PT11679</name></trkpt>
<trkpt lat="53.258068" lon="-1.809430"><ele>214</ele><time>2019-08-30T13:36:27Z</time><name>PT11680</name></trkpt>
<trkpt lat="53.258064" lon="-1.809448"><ele>214</ele><time>2019-08-30T13:36:28Z</time><name>PT11681</name></trkpt>
<trkpt lat="53.258063" lon="-1.809457"><ele>213</ele><time>2019-08-30T13:36:29Z</time><name>PT11682</name></trkpt>
<trkpt lat="53.258059" lon="-1.809479"><ele>212</ele><time>2019-08-30T13:36:30Z</time><name>PT11683</name></trkpt>
<trkpt lat="53.258056" lon="-1.809494"><ele>212</ele><time>2019-08-30T13:36:31Z</time><name>PT11684</name></trkpt>
<trkpt lat="53.258053" lon="-1.809515"><ele>212</ele><time>2019-08-30T13:36:32Z</time><name>PT11685</name></trkpt>
<trkpt lat="53.258050" lon="-1.809531"><ele>212</ele><time>2019-08-30T13:36:33Z</time><name>PT11686</name></trkpt>
<trkpt lat="53.258046" lon="-1.809543"><ele>212</ele><time>2019-08-30T13:36:34Z</time><name>PT11687</name></trkpt>
<trkpt lat="53.258046" lon="-1.809560"><ele>212</ele><time>2019-08-30T13:36:35Z</time><name>PT11688</name></trkpt>
<trkpt lat="53.258052" lon="-1.809565"><ele>213</ele><time>2019-08-30T13:36:36Z</time><name>PT11689</name></trkpt>
<trkpt lat="53.258052" lon="-1.809579"><ele>213</ele><time>2019-08-30T13:36:37Z</time><name>PT11690</name></trkpt>
<trkpt lat="53.258050" lon="-1.809594"><ele>212</ele><time>2019-08-30T13:36:38Z</time><name>PT11691</name></trkpt>
<trkpt lat="53.258051" lon="-1.809611"><ele>213</ele><time>2019-08-30T13:36:39Z</time><name>PT11692</name></trkpt>
<trkpt lat="53.258045" lon="-1.809631"><ele>212</ele><time>2019-08-30T13:36:40Z</time><name>PT11693</name></trkpt>
<trkpt lat="53.258056" lon="-1.809661"><ele>210</ele><time>2019-08-30T13:36:41Z</time><name>PT11694</name></trkpt>
<trkpt lat="53.258060" lon="-1.809661"><ele>210</ele><time>2019-08-30T13:36:42Z</time><name>PT11695</name></trkpt>
<trkpt lat="53.258059" lon="-1.809663"><ele>210</ele><time>2019-08-30T13:36:43Z</time><name>PT11696</name></trkpt>
<trkpt lat="53.258060" lon="-1.809666"><ele>210</ele><time>2019-08-30T13:36:44Z</time><name>PT11697</name></trkpt>
<trkpt lat="53.258054" lon="-1.809669"><ele>209</ele><time>2019-08-30T13:36:45Z</time><name>PT11698</name></trkpt>
<trkpt lat="53.258047" lon="-1.809686"><ele>209</ele><time>2019-08-30T13:36:46Z</time><name>PT11699</name></trkpt>
<trkpt lat="53.258044" lon="-1.809687"><ele>209</ele><time>2019-08-30T13:36:47Z</time><name>PT11700</name></trkpt>
<trkpt lat="53.258030" lon="-1.809694"><ele>209</ele><time>2019-08-30T13:36:48Z</time><name>PT11701</name></trkpt>
<trkpt lat="53.258030" lon="-1.809691"><ele>209</ele><time>2019-08-30T13:36:49Z</time><name>PT11702</name></trkpt>
<trkpt lat="53.258028" lon="-1.809704"><ele>211</ele><time>2019-08-30T13:36:50Z</time><name>PT11703</name></trkpt>
<trkpt lat="53.258023" lon="-1.809709"><ele>211</ele><time>2019-08-30T13:36:51Z</time><name>PT11704</name></trkpt>
<trkpt lat="53.258020" lon="-1.809712"><ele>211</ele><time>2019-08-30T13:36:52Z</time><name>PT11705</name></trkpt>
<trkpt lat="53.258019" lon="-1.809713"><ele>211</ele><time>2019-08-30T13:36:53Z</time><name>PT11706</name></trkpt>
<trkpt lat="53.258027" lon="-1.809714"><ele>211</ele><time>2019-08-30T13:36:54Z</time><name>PT11707</name></trkpt>
<trkpt lat="53.258025" lon="-1.809712"><ele>211</ele><time>2019-08-30T13:36:55Z</time><name>PT11708</name></trkpt>
<trkpt lat="53.258023" lon="-1.809710"><ele>210</ele><time>2019-08-30T13:37:07Z</time><name>PT11709</name></trkpt>
<trkpt lat="53.258029" lon="-1.809711"><ele>210</ele><time>2019-08-30T13:37:08Z</time><name>PT11710</name></trkpt>
<trkpt lat="53.258031" lon="-1.809717"><ele>210</ele><time>2019-08-30T13:37:09Z</time><name>PT11711</name></trkpt>
<trkpt lat="53.258035" lon="-1.809719"><ele>211</ele><time>2019-08-30T13:37:10Z</time><name>PT11712</name></trkpt>
<trkpt lat="53.258042" lon="-1.809728"><ele>211</ele><time>2019-08-30T13:37:11Z</time><name>PT11713</name></trkpt>
<trkpt lat="53.258047" lon="-1.809732"><ele>211</ele><time>2019-08-30T13:37:12Z</time><name>PT11714</name></trkpt>
<trkpt lat="53.258052" lon="-1.809738"><ele>211</ele><time>2019-08-30T13:37:13Z</time><name>PT11715</name></trkpt>
<trkpt lat="53.258059" lon="-1.809735"><ele>211</ele><time>2019-08-30T13:37:14Z</time><name>PT11716</name></trkpt>
<trkpt lat="53.258057" lon="-1.809734"><ele>212</ele><time>2019-08-30T13:37:15Z</time><name>PT11717</name></trkpt>
<trkpt lat="53.258057" lon="-1.809736"><ele>212</ele><time>2019-08-30T13:37:16Z</time><name>PT11718</name></trkpt>
<trkpt lat="53.258069" lon="-1.809735"><ele>211</ele><time>2019-08-30T13:37:17Z</time><name>PT11719</name></trkpt>
<trkpt lat="53.258069" lon="-1.809732"><ele>211</ele><time>2019-08-30T13:37:18Z</time><name>PT11720</name></trkpt>
<trkpt lat="53.258064" lon="-1.809729"><ele>211</ele><time>2019-08-30T13:37:19Z</time><name>PT11721</name></trkpt>
<trkpt lat="53.258058" lon="-1.809721"><ele>210</ele><time>2019-08-30T13:37:20Z</time><name>PT11722</name></trkpt>
<trkpt lat="53.258049" lon="-1.809717"><ele>210</ele><time>2019-08-30T13:37:21Z</time><name>PT11723</name></trkpt>
<trkpt lat="53.258042" lon="-1.809723"><ele>209</ele><time>2019-08-30T13:37:22Z</time><name>PT11724</name></trkpt>
<trkpt lat="53.258039" lon="-1.809726"><ele>208</ele><time>2019-08-30T13:37:23Z</time><name>PT11725</name></trkpt>
<trkpt lat="53.258033" lon="-1.809724"><ele>208</ele><time>2019-08-30T13:37:24Z</time><name>PT11726</name></trkpt>
<trkpt lat="53.258027" lon="-1.809723"><ele>208</ele><time>2019-08-30T13:37:25Z</time><name>PT11727</name></trkpt>
<trkpt lat="53.258021" lon="-1.809722"><ele>208</ele><time>2019-08-30T13:37:26Z</time><name>PT11728</name></trkpt>
<trkpt lat="53.258016" lon="-1.809733"><ele>209</ele><time>2019-08-30T13:37:27Z</time><name>PT11729</name></trkpt>
<trkpt lat="53.258014" lon="-1.809745"><ele>208</ele><time>2019-08-30T13:37:28Z</time><name>PT11730</name></trkpt>
<trkpt lat="53.258011" lon="-1.809750"><ele>209</ele><time>2019-08-30T13:37:29Z</time><name>PT11731</name></trkpt>
<trkpt lat="53.258008" lon="-1.809755"><ele>209</ele><time>2019-08-30T13:37:30Z</time><name>PT11732</name></trkpt>
<trkpt lat="53.258002" lon="-1.809764"><ele>208</ele><time>2019-08-30T13:37:31Z</time><name>PT11733</name></trkpt>
<trkpt lat="53.257997" lon="-1.809775"><ele>208</ele><time>2019-08-30T13:37:32Z</time><name>PT11734</name></trkpt>
<trkpt lat="53.257998" lon="-1.809786"><ele>208</ele><time>2019-08-30T13:37:33Z</time><name>PT11735</name></trkpt>
<trkpt lat="53.258000" lon="-1.809802"><ele>209</ele><time>2019-08-30T13:37:34Z</time><name>PT11736</name></trkpt>
<trkpt lat="53.258000" lon="-1.809821"><ele>208</ele><time>2019-08-30T13:37:35Z</time><name>PT11737</name></trkpt>
<trkpt lat="53.257995" lon="-1.809839"><ele>208</ele><time>2019-08-30T13:37:36Z</time><name>PT11738</name></trkpt>
<trkpt lat="53.257993" lon="-1.809858"><ele>208</ele><time>2019-08-30T13:37:37Z</time><name>PT11739</name></trkpt>
<trkpt lat="53.257990" lon="-1.809876"><ele>208</ele><time>2019-08-30T13:37:38Z</time><name>PT11740</name></trkpt>
<trkpt lat="53.257986" lon="-1.809889"><ele>208</ele><time>2019-08-30T13:37:39Z</time><name>PT11741</name></trkpt>
<trkpt lat="53.257978" lon="-1.809906"><ele>209</ele><time>2019-08-30T13:37:40Z</time><name>PT11742</name></trkpt>
<trkpt lat="53.257975" lon="-1.809913"><ele>209</ele><time>2019-08-30T13:37:41Z</time><name>PT11743</name></trkpt>
<trkpt lat="53.257973" lon="-1.809913"><ele>209</ele><time>2019-08-30T13:37:42Z</time><name>PT11744</name></trkpt>
<trkpt lat="53.257971" lon="-1.809912"><ele>209</ele><time>2019-08-30T13:37:43Z</time><name>PT11745</name></trkpt>
<trkpt lat="53.257973" lon="-1.809914"><ele>209</ele><time>2019-08-30T13:37:44Z</time><name>PT11746</name></trkpt>
<trkpt lat="53.257977" lon="-1.809921"><ele>209</ele><time>2019-08-30T13:37:48Z</time><name>PT11747</name></trkpt>
<trkpt lat="53.257975" lon="-1.809934"><ele>209</ele><time>2019-08-30T13:37:49Z</time><name>PT11748</name></trkpt>
<trkpt lat="53.257974" lon="-1.809944"><ele>210</ele><time>2019-08-30T13:37:50Z</time><name>PT11749</name></trkpt>
<trkpt lat="53.257976" lon="-1.809955"><ele>210</ele><time>2019-08-30T13:37:51Z</time><name>PT11750</name></trkpt>
<trkpt lat="53.257980" lon="-1.809977"><ele>210</ele><time>2019-08-30T13:37:52Z</time><name>PT11751</name></trkpt>
<trkpt lat="53.257977" lon="-1.810007"><ele>209</ele><time>2019-08-30T13:37:53Z</time><name>PT11752</name></trkpt>
<trkpt lat="53.257975" lon="-1.810023"><ele>209</ele><time>2019-08-30T13:37:54Z</time><name>PT11753</name></trkpt>
<trkpt lat="53.257972" lon="-1.810029"><ele>209</ele><time>2019-08-30T13:37:55Z</time><name>PT11754</name></trkpt>
<trkpt lat="53.257970" lon="-1.810030"><ele>209</ele><time>2019-08-30T13:37:56Z</time><name>PT11755</name></trkpt>
<trkpt lat="53.257971" lon="-1.810030"><ele>209</ele><time>2019-08-30T13:37:57Z</time><name>PT11756</name></trkpt>
<trkpt lat="53.257970" lon="-1.810032"><ele>209</ele><time>2019-08-30T13:37:58Z</time><name>PT11757</name></trkpt>
<trkpt lat="53.257966" lon="-1.810032"><ele>209</ele><time>2019-08-30T13:37:59Z</time><name>PT11758</name></trkpt>
<trkpt lat="53.257963" lon="-1.810033"><ele>209</ele><time>2019-08-30T13:38:00Z</time><name>PT11759</name></trkpt>
<trkpt lat="53.257964" lon="-1.810038"><ele>208</ele><time>2019-08-30T13:38:11Z</time><name>PT11760</name></trkpt>
<trkpt lat="53.257959" lon="-1.810038"><ele>208</ele><time>2019-08-30T13:38:12Z</time><name>PT11761</name></trkpt>
<trkpt lat="53.257955" lon="-1.810038"><ele>208</ele><time>2019-08-30T13:38:13Z</time><name>PT11762</name></trkpt>
<trkpt lat="53.257958" lon="-1.810042"><ele>208</ele><time>2019-08-30T13:38:14Z</time><name>PT11763</name></trkpt>
<trkpt lat="53.257962" lon="-1.810054"><ele>209</ele><time>2019-08-30T13:38:15Z</time><name>PT11764</name></trkpt>
<trkpt lat="53.257966" lon="-1.810069"><ele>209</ele><time>2019-08-30T13:38:16Z</time><name>PT11765</name></trkpt>
<trkpt lat="53.257967" lon="-1.810083"><ele>209</ele><time>2019-08-30T13:38:17Z</time><name>PT11766</name></trkpt>
<trkpt lat="53.257968" lon="-1.810108"><ele>208</ele><time>2019-08-30T13:38:18Z</time><name>PT11767</name></trkpt>
<trkpt lat="53.257966" lon="-1.810132"><ele>208</ele><time>2019-08-30T13:38:19Z</time><name>PT11768</name></trkpt>
<trkpt lat="53.257967" lon="-1.810159"><ele>208</ele><time>2019-08-30T13:38:20Z</time><name>PT11769</name></trkpt>
<trkpt lat="53.257968" lon="-1.810186"><ele>207</ele><time>2019-08-30T13:38:21Z</time><name>PT11770</name></trkpt>
<trkpt lat="53.257967" lon="-1.810205"><ele>207</ele><time>2019-08-30T13:38:22Z</time><name>PT11771</name></trkpt>
<trkpt lat="53.257970" lon="-1.810218"><ele>208</ele><time>2019-08-30T13:38:23Z</time><name>PT11772</name></trkpt>
<trkpt lat="53.257974" lon="-1.810234"><ele>208</ele><time>2019-08-30T13:38:24Z</time><name>PT11773</name></trkpt>
<trkpt lat="53.257978" lon="-1.810259"><ele>208</ele><time>2019-08-30T13:38:25Z</time><name>PT11774</name></trkpt>
<trkpt lat="53.257982" lon="-1.810286"><ele>208</ele><time>2019-08-30T13:38:26Z</time><name>PT11775</name></trkpt>
<trkpt lat="53.257985" lon="-1.810313"><ele>208</ele><time>2019-08-30T13:38:27Z</time><name>PT11776</name></trkpt>
<trkpt lat="53.257987" lon="-1.810330"><ele>207</ele><time>2019-08-30T13:38:28Z</time><name>PT11777</name></trkpt>
<trkpt lat="53.257987" lon="-1.810348"><ele>207</ele><time>2019-08-30T13:38:29Z</time><name>PT11778</name></trkpt>
<trkpt lat="53.257992" lon="-1.810361"><ele>207</ele><time>2019-08-30T13:38:30Z</time><name>PT11779</name></trkpt>
<trkpt lat="53.257998" lon="-1.810377"><ele>207</ele><time>2019-08-30T13:38:31Z</time><name>PT11780</name></trkpt>
<trkpt lat="53.258001" lon="-1.810398"><ele>206</ele><time>2019-08-30T13:38:32Z</time><name>PT11781</name></trkpt>
<trkpt lat="53.258005" lon="-1.810422"><ele>206</ele><time>2019-08-30T13:38:33Z</time><name>PT11782</name></trkpt>
<trkpt lat="53.258011" lon="-1.810445"><ele>206</ele><time>2019-08-30T13:38:34Z</time><name>PT11783</name></trkpt>
<trkpt lat="53.258008" lon="-1.810471"><ele>206</ele><time>2019-08-30T13:38:35Z</time><name>PT11784</name></trkpt>
<trkpt lat="53.258010" lon="-1.810488"><ele>206</ele><time>2019-08-30T13:38:36Z</time><name>PT11785</name></trkpt>
<trkpt lat="53.258013" lon="-1.810503"><ele>206</ele><time>2019-08-30T13:38:37Z</time><name>PT11786</name></trkpt>
<trkpt lat="53.258016" lon="-1.810521"><ele>206</ele><time>2019-08-30T13:38:38Z</time><name>PT11787</name></trkpt>
<trkpt lat="53.258022" lon="-1.810542"><ele>206</ele><time>2019-08-30T13:38:39Z</time><name>PT11788</name></trkpt>
<trkpt lat="53.258024" lon="-1.810570"><ele>207</ele><time>2019-08-30T13:38:40Z</time><name>PT11789</name></trkpt>
<trkpt lat="53.258028" lon="-1.810597"><ele>207</ele><time>2019-08-30T13:38:41Z</time><name>PT11790</name></trkpt>
<trkpt lat="53.258028" lon="-1.810618"><ele>208</ele><time>2019-08-30T13:38:42Z</time><name>PT11791</name></trkpt>
<trkpt lat="53.258029" lon="-1.810635"><ele>208</ele><time>2019-08-30T13:38:43Z</time><name>PT11792</name></trkpt>
<trkpt lat="53.258031" lon="-1.810652"><ele>208</ele><time>2019-08-30T13:38:44Z</time><name>PT11793</name></trkpt>
<trkpt lat="53.258031" lon="-1.810672"><ele>208</ele><time>2019-08-30T13:38:45Z</time><name>PT11794</name></trkpt>
<trkpt lat="53.258032" lon="-1.810697"><ele>207</ele><time>2019-08-30T13:38:46Z</time><name>PT11795</name></trkpt>
<trkpt lat="53.258035" lon="-1.810723"><ele>208</ele><time>2019-08-30T13:38:47Z</time><name>PT11796</name></trkpt>
<trkpt lat="53.258038" lon="-1.810741"><ele>208</ele><time>2019-08-30T13:38:48Z</time><name>PT11797</name></trkpt>
<trkpt lat="53.258039" lon="-1.810758"><ele>208</ele><time>2019-08-30T13:38:49Z</time><name>PT11798</name></trkpt>
<trkpt lat="53.258037" lon="-1.810779"><ele>209</ele><time>2019-08-30T13:38:50Z</time><name>PT11799</name></trkpt>
<trkpt lat="53.258038" lon="-1.810799"><ele>209</ele><time>2019-08-30T13:38:51Z</time><name>PT11800</name></trkpt>
<trkpt lat="53.258031" lon="-1.810819"><ele>208</ele><time>2019-08-30T13:38:52Z</time><name>PT11801</name></trkpt>
<trkpt lat="53.258026" lon="-1.810839"><ele>207</ele><time>2019-08-30T13:38:53Z</time><name>PT11802</name></trkpt>
<trkpt lat="53.258025" lon="-1.810859"><ele>208</ele><time>2019-08-30T13:38:54Z</time><name>PT11803</name></trkpt>
<trkpt lat="53.258028" lon="-1.810879"><ele>208</ele><time>2019-08-30T13:38:55Z</time><name>PT11804</name></trkpt>
<trkpt lat="53.258029" lon="-1.810900"><ele>208</ele><time>2019-08-30T13:38:56Z</time><name>PT11805</name></trkpt>
<trkpt lat="53.258027" lon="-1.810921"><ele>207</ele><time>2019-08-30T13:38:57Z</time><name>PT11806</name></trkpt>
<trkpt lat="53.258031" lon="-1.810943"><ele>207</ele><time>2019-08-30T13:38:58Z</time><name>PT11807</name></trkpt>
<trkpt lat="53.258035" lon="-1.810966"><ele>207</ele><time>2019-08-30T13:38:59Z</time><name>PT11808</name></trkpt>
<trkpt lat="53.258037" lon="-1.810982"><ele>207</ele><time>2019-08-30T13:39:00Z</time><name>PT11809</name></trkpt>
<trkpt lat="53.258040" lon="-1.810994"><ele>208</ele><time>2019-08-30T13:39:01Z</time><name>PT11810</name></trkpt>
<trkpt lat="53.258044" lon="-1.811009"><ele>208</ele><time>2019-08-30T13:39:02Z</time><name>PT11811</name></trkpt>
<trkpt lat="53.258051" lon="-1.811023"><ele>208</ele><time>2019-08-30T13:39:03Z</time><name>PT11812</name></trkpt>
<trkpt lat="53.258056" lon="-1.811032"><ele>208</ele><time>2019-08-30T13:39:04Z</time><name>PT11813</name></trkpt>
<trkpt lat="53.258058" lon="-1.811042"><ele>208</ele><time>2019-08-30T13:39:05Z</time><name>PT11814</name></trkpt>
<trkpt lat="53.258064" lon="-1.811054"><ele>208</ele><time>2019-08-30T13:39:06Z</time><name>PT11815</name></trkpt>
<trkpt lat="53.258069" lon="-1.811068"><ele>208</ele><time>2019-08-30T13:39:07Z</time><name>PT11816</name></trkpt>
<trkpt lat="53.258074" lon="-1.811088"><ele>208</ele><time>2019-08-30T13:39:08Z</time><name>PT11817</name></trkpt>
<trkpt lat="53.258071" lon="-1.811110"><ele>208</ele><time>2019-08-30T13:39:09Z</time><name>PT11818</name></trkpt>
<trkpt lat="53.258073" lon="-1.811125"><ele>208</ele><time>2019-08-30T13:39:10Z</time><name>PT11819</name></trkpt>
<trkpt lat="53.258074" lon="-1.811134"><ele>208</ele><time>2019-08-30T13:39:11Z</time><name>PT11820</name></trkpt>
<trkpt lat="53.258079" lon="-1.811141"><ele>208</ele><time>2019-08-30T13:39:12Z</time><name>PT11821</name></trkpt>
<trkpt lat="53.258086" lon="-1.811149"><ele>208</ele><time>2019-08-30T13:39:13Z</time><name>PT11822</name></trkpt>
<trkpt lat="53.258100" lon="-1.811155"><ele>209</ele><time>2019-08-30T13:39:14Z</time><name>PT11823</name></trkpt>
<trkpt lat="53.258103" lon="-1.811163"><ele>210</ele><time>2019-08-30T13:39:15Z</time><name>PT11824</name></trkpt>
<trkpt lat="53.258103" lon="-1.811170"><ele>211</ele><time>2019-08-30T13:39:16Z</time><name>PT11825</name></trkpt>
<trkpt lat="53.258103" lon="-1.811178"><ele>210</ele><time>2019-08-30T13:39:17Z</time><name>PT11826</name></trkpt>
<trkpt lat="53.258108" lon="-1.811185"><ele>210</ele><time>2019-08-30T13:39:18Z</time><name>PT11827</name></trkpt>
<trkpt lat="53.258109" lon="-1.811195"><ele>211</ele><time>2019-08-30T13:39:19Z</time><name>PT11828</name></trkpt>
<trkpt lat="53.258114" lon="-1.811210"><ele>209</ele><time>2019-08-30T13:39:20Z</time><name>PT11829</name></trkpt>
<trkpt lat="53.258121" lon="-1.811222"><ele>208</ele><time>2019-08-30T13:39:21Z</time><name>PT11830</name></trkpt>
<trkpt lat="53.258117" lon="-1.811241"><ele>209</ele><time>2019-08-30T13:39:22Z</time><name>PT11831</name></trkpt>
<trkpt lat="53.258109" lon="-1.811251"><ele>209</ele><time>2019-08-30T13:39:23Z</time><name>PT11832</name></trkpt>
<trkpt lat="53.258114" lon="-1.811258"><ele>210</ele><time>2019-08-30T13:39:24Z</time><name>PT11833</name></trkpt>
<trkpt lat="53.258095" lon="-1.811272"><ele>209</ele><time>2019-08-30T13:39:25Z</time><name>PT11834</name></trkpt>
<trkpt lat="53.258092" lon="-1.811282"><ele>211</ele><time>2019-08-30T13:39:26Z</time><name>PT11835</name></trkpt>
<trkpt lat="53.258082" lon="-1.811294"><ele>211</ele><time>2019-08-30T13:39:27Z</time><name>PT11836</name></trkpt>
<trkpt lat="53.258081" lon="-1.811304"><ele>211</ele><time>2019-08-30T13:39:28Z</time><name>PT11837</name></trkpt>
<trkpt lat="53.258080" lon="-1.811310"><ele>211</ele><time>2019-08-30T13:39:29Z</time><name>PT11838</name></trkpt>
<trkpt lat="53.258078" lon="-1.811314"><ele>211</ele><time>2019-08-30T13:39:30Z</time><name>PT11839</name></trkpt>
<trkpt lat="53.258069" lon="-1.811332"><ele>211</ele><time>2019-08-30T13:39:31Z</time><name>PT11840</name></trkpt>
<trkpt lat="53.258064" lon="-1.811348"><ele>211</ele><time>2019-08-30T13:39:32Z</time><name>PT11841</name></trkpt>
<trkpt lat="53.258058" lon="-1.811366"><ele>210</ele><time>2019-08-30T13:39:33Z</time><name>PT11842</name></trkpt>
<trkpt lat="53.258052" lon="-1.811393"><ele>210</ele><time>2019-08-30T13:39:34Z</time><name>PT11843</name></trkpt>
<trkpt lat="53.258038" lon="-1.811430"><ele>212</ele><time>2019-08-30T13:39:35Z</time><name>PT11844</name></trkpt>
<trkpt lat="53.258035" lon="-1.811451"><ele>212</ele><time>2019-08-30T13:39:36Z</time><name>PT11845</name></trkpt>
<trkpt lat="53.258032" lon="-1.811473"><ele>212</ele><time>2019-08-30T13:39:37Z</time><name>PT11846</name></trkpt>
<trkpt lat="53.258026" lon="-1.811498"><ele>213</ele><time>2019-08-30T13:39:38Z</time><name>PT11847</name></trkpt>
<trkpt lat="53.258015" lon="-1.811521"><ele>213</ele><time>2019-08-30T13:39:39Z</time><name>PT11848</name></trkpt>
<trkpt lat="53.258008" lon="-1.811543"><ele>213</ele><time>2019-08-30T13:39:40Z</time><name>PT11849</name></trkpt>
<trkpt lat="53.258005" lon="-1.811565"><ele>212</ele><time>2019-08-30T13:39:41Z</time><name>PT11850</name></trkpt>
<trkpt lat="53.258008" lon="-1.811579"><ele>212</ele><time>2019-08-30T13:39:42Z</time><name>PT11851</name></trkpt>
<trkpt lat="53.258003" lon="-1.811603"><ele>212</ele><time>2019-08-30T13:39:43Z</time><name>PT11852</name></trkpt>
<trkpt lat="53.258004" lon="-1.811627"><ele>212</ele><time>2019-08-30T13:39:44Z</time><name>PT11853</name></trkpt>
<trkpt lat="53.257999" lon="-1.811652"><ele>210</ele><time>2019-08-30T13:39:45Z</time><name>PT11854</name></trkpt>
<trkpt lat="53.257996" lon="-1.811675"><ele>209</ele><time>2019-08-30T13:39:46Z</time><name>PT11855</name></trkpt>
<trkpt lat="53.257997" lon="-1.811689"><ele>209</ele><time>2019-08-30T13:39:47Z</time><name>PT11856</name></trkpt>
<trkpt lat="53.258003" lon="-1.811692"><ele>208</ele><time>2019-08-30T13:39:48Z</time><name>PT11857</name></trkpt>
<trkpt lat="53.258010" lon="-1.811694"><ele>209</ele><time>2019-08-30T13:39:49Z</time><name>PT11858</name></trkpt>
<trkpt lat="53.258011" lon="-1.811710"><ele>209</ele><time>2019-08-30T13:39:50Z</time><name>PT11859</name></trkpt>
<trkpt lat="53.258009" lon="-1.811733"><ele>209</ele><time>2019-08-30T13:39:51Z</time><name>PT11860</name></trkpt>
<trkpt lat="53.258007" lon="-1.811755"><ele>209</ele><time>2019-08-30T13:39:52Z</time><name>PT11861</name></trkpt>
<trkpt lat="53.258004" lon="-1.811767"><ele>208</ele><time>2019-08-30T13:39:53Z</time><name>PT11862</name></trkpt>
<trkpt lat="53.258006" lon="-1.811788"><ele>207</ele><time>2019-08-30T13:39:54Z</time><name>PT11863</name></trkpt>
<trkpt lat="53.258005" lon="-1.811805"><ele>207</ele><time>2019-08-30T13:39:55Z</time><name>PT11864</name></trkpt>
<trkpt lat="53.258007" lon="-1.811817"><ele>207</ele><time>2019-08-30T13:39:56Z</time><name>PT11865</name></trkpt>
<trkpt lat="53.258014" lon="-1.811826"><ele>209</ele><time>2019-08-30T13:39:57Z</time><name>PT11866</name></trkpt>
<trkpt lat="53.258014" lon="-1.811846"><ele>209</ele><time>2019-08-30T13:39:58Z</time><name>PT11867</name></trkpt>
<trkpt lat="53.258016" lon="-1.811863"><ele>210</ele><time>2019-08-30T13:39:59Z</time><name>PT11868</name></trkpt>
<trkpt lat="53.258018" lon="-1.811881"><ele>210</ele><time>2019-08-30T13:40:00Z</time><name>PT11869</name></trkpt>
<trkpt lat="53.258019" lon="-1.811894"><ele>210</ele><time>2019-08-30T13:40:01Z</time><name>PT11870</name></trkpt>
<trkpt lat="53.258017" lon="-1.811907"><ele>209</ele><time>2019-08-30T13:40:02Z</time><name>PT11871</name></trkpt>
<trkpt lat="53.258020" lon="-1.811925"><ele>209</ele><time>2019-08-30T13:40:03Z</time><name>PT11872</name></trkpt>
<trkpt lat="53.258021" lon="-1.811950"><ele>209</ele><time>2019-08-30T13:40:04Z</time><name>PT11873</name></trkpt>
<trkpt lat="53.258021" lon="-1.811967"><ele>211</ele><time>2019-08-30T13:40:05Z</time><name>PT11874</name></trkpt>
<trkpt lat="53.258021" lon="-1.811976"><ele>211</ele><time>2019-08-30T13:40:06Z</time><name>PT11875</name></trkpt>
<trkpt lat="53.258023" lon="-1.811987"><ele>210</ele><time>2019-08-30T13:40:07Z</time><name>PT11876</name></trkpt>
<trkpt lat="53.258026" lon="-1.811996"><ele>212</ele><time>2019-08-30T13:40:08Z</time><name>PT11877</name></trkpt>
<trkpt lat="53.258029" lon="-1.812008"><ele>212</ele><time>2019-08-30T13:40:09Z</time><name>PT11878</name></trkpt>
<trkpt lat="53.258029" lon="-1.812029"><ele>212</ele><time>2019-08-30T13:40:10Z</time><name>PT11879</name></trkpt>
<trkpt lat="53.258024" lon="-1.812052"><ele>213</ele><time>2019-08-30T13:40:11Z</time><name>PT11880</name></trkpt>
<trkpt lat="53.258024" lon="-1.812070"><ele>213</ele><time>2019-08-30T13:40:12Z</time><name>PT11881</name></trkpt>
<trkpt lat="53.258024" lon="-1.812085"><ele>214</ele><time>2019-08-30T13:40:13Z</time><name>PT11882</name></trkpt>
<trkpt lat="53.258022" lon="-1.812101"><ele>215</ele><time>2019-08-30T13:40:14Z</time><name>PT11883</name></trkpt>
<trkpt lat="53.258023" lon="-1.812116"><ele>215</ele><time>2019-08-30T13:40:15Z</time><name>PT11884</name></trkpt>
<trkpt lat="53.258021" lon="-1.812133"><ele>216</ele><time>2019-08-30T13:40:16Z</time><name>PT11885</name></trkpt>
<trkpt lat="53.258018" lon="-1.812150"><ele>218</ele><time>2019-08-30T13:40:17Z</time><name>PT11886</name></trkpt>
<trkpt lat="53.258016" lon="-1.812167"><ele>218</ele><time>2019-08-30T13:40:18Z</time><name>PT11887</name></trkpt>
<trkpt lat="53.258014" lon="-1.812185"><ele>219</ele><time>2019-08-30T13:40:19Z</time><name>PT11888</name></trkpt>
<trkpt lat="53.258017" lon="-1.812197"><ele>220</ele><time>2019-08-30T13:40:20Z</time><name>PT11889</name></trkpt>
<trkpt lat="53.258013" lon="-1.812215"><ele>220</ele><time>2019-08-30T13:40:21Z</time><name>PT11890</name></trkpt>
<trkpt lat="53.258009" lon="-1.812227"><ele>220</ele><time>2019-08-30T13:40:22Z</time><name>PT11891</name></trkpt>
<trkpt lat="53.258007" lon="-1.812241"><ele>221</ele><time>2019-08-30T13:40:23Z</time><name>PT11892</name></trkpt>
<trkpt lat="53.258009" lon="-1.812259"><ele>219</ele><time>2019-08-30T13:40:24Z</time><name>PT11893</name></trkpt>
<trkpt lat="53.258011" lon="-1.812276"><ele>218</ele><time>2019-08-30T13:40:25Z</time><name>PT11894</name></trkpt>
<trkpt lat="53.258013" lon="-1.812322"><ele>214</ele><time>2019-08-30T13:40:26Z</time><name>PT11895</name></trkpt>
<trkpt lat="53.258001" lon="-1.812349"><ele>214</ele><time>2019-08-30T13:40:27Z</time><name>PT11896</name></trkpt>
<trkpt lat="53.257999" lon="-1.812378"><ele>214</ele><time>2019-08-30T13:40:28Z</time><name>PT11897</name></trkpt>
<trkpt lat="53.257992" lon="-1.812403"><ele>214</ele><time>2019-08-30T13:40:29Z</time><name>PT11898</name></trkpt>
<trkpt lat="53.257987" lon="-1.812422"><ele>214</ele><time>2019-08-30T13:40:30Z</time><name>PT11899</name></trkpt>
<trkpt lat="53.257988" lon="-1.812441"><ele>213</ele><time>2019-08-30T13:40:31Z</time><name>PT11900</name></trkpt>
<trkpt lat="53.257986" lon="-1.812465"><ele>213</ele><time>2019-08-30T13:40:32Z</time><name>PT11901</name></trkpt>
<trkpt lat="53.257985" lon="-1.812488"><ele>212</ele><time>2019-08-30T13:40:33Z</time><name>PT11902</name></trkpt>
<trkpt lat="53.257985" lon="-1.812516"><ele>211</ele><time>2019-08-30T13:40:34Z</time><name>PT11903</name></trkpt>
<trkpt lat="53.257982" lon="-1.812543"><ele>211</ele><time>2019-08-30T13:40:35Z</time><name>PT11904</name></trkpt>
<trkpt lat="53.257980" lon="-1.812564"><ele>212</ele><time>2019-08-30T13:40:36Z</time><name>PT11905</name></trkpt>
<trkpt lat="53.257976" lon="-1.812589"><ele>211</ele><time>2019-08-30T13:40:37Z</time><name>PT11906</name></trkpt>
<trkpt lat="53.257982" lon="-1.812623"><ele>210</ele><time>2019-08-30T13:40:38Z</time><name>PT11907</name></trkpt>
<trkpt lat="53.257981" lon="-1.812647"><ele>209</ele><time>2019-08-30T13:40:39Z</time><name>PT11908</name></trkpt>
<trkpt lat="53.257978" lon="-1.812668"><ele>209</ele><time>2019-08-30T13:40:40Z</time><name>PT11909</name></trkpt>
<trkpt lat="53.257977" lon="-1.812699"><ele>210</ele><time>2019-08-30T13:40:41Z</time><name>PT11910</name></trkpt>
<trkpt lat="53.257980" lon="-1.812717"><ele>210</ele><time>2019-08-30T13:40:42Z</time><name>PT11911</name></trkpt>
<trkpt lat="53.257980" lon="-1.812741"><ele>210</ele><time>2019-08-30T13:40:43Z</time><name>PT11912</name></trkpt>
<trkpt lat="53.257980" lon="-1.812762"><ele>209</ele><time>2019-08-30T13:40:44Z</time><name>PT11913</name></trkpt>
<trkpt lat="53.257980" lon="-1.812788"><ele>208</ele><time>2019-08-30T13:40:45Z</time><name>PT11914</name></trkpt>
<trkpt lat="53.257986" lon="-1.812816"><ele>207</ele><time>2019-08-30T13:40:46Z</time><name>PT11915</name></trkpt>
<trkpt lat="53.257993" lon="-1.812840"><ele>208</ele><time>2019-08-30T13:40:47Z</time><name>PT11916</name></trkpt>
<trkpt lat="53.257996" lon="-1.812866"><ele>209</ele><time>2019-08-30T13:40:48Z</time><name>PT11917</name></trkpt>
<trkpt lat="53.258006" lon="-1.812877"><ele>209</ele><time>2019-08-30T13:40:49Z</time><name>PT11918</name></trkpt>
<trkpt lat="53.258005" lon="-1.812894"><ele>209</ele><time>2019-08-30T13:40:50Z</time><name>PT11919</name></trkpt>
<trkpt lat="53.258004" lon="-1.812910"><ele>209</ele><time>2019-08-30T13:40:51Z</time><name>PT11920</name></trkpt>
<trkpt lat="53.258004" lon="-1.812931"><ele>210</ele><time>2019-08-30T13:40:52Z</time><name>PT11921</name></trkpt>
<trkpt lat="53.258004" lon="-1.812948"><ele>210</ele><time>2019-08-30T13:40:53Z</time><name>PT11922</name></trkpt>
<trkpt lat="53.258003" lon="-1.812969"><ele>210</ele><time>2019-08-30T13:40:54Z</time><name>PT11923</name></trkpt>
<trkpt lat="53.258000" lon="-1.812983"><ele>209</ele><time>2019-08-30T13:40:55Z</time><name>PT11924</name></trkpt>
<trkpt lat="53.257997" lon="-1.812992"><ele>210</ele><time>2019-08-30T13:40:56Z</time><name>PT11925</name></trkpt>
<trkpt lat="53.257994" lon="-1.813007"><ele>211</ele><time>2019-08-30T13:40:57Z</time><name>PT11926</name></trkpt>
<trkpt lat="53.257988" lon="-1.813028"><ele>211</ele><time>2019-08-30T13:40:58Z</time><name>PT11927</name></trkpt>
<trkpt lat="53.257991" lon="-1.813051"><ele>211</ele><time>2019-08-30T13:40:59Z</time><name>PT11928</name></trkpt>
<trkpt lat="53.257989" lon="-1.813076"><ele>210</ele><time>2019-08-30T13:41:00Z</time><name>PT11929</name></trkpt>
<trkpt lat="53.257989" lon="-1.813098"><ele>210</ele><time>2019-08-30T13:41:01Z</time><name>PT11930</name></trkpt>
<trkpt lat="53.257990" lon="-1.813118"><ele>211</ele><time>2019-08-30T13:41:02Z</time><name>PT11931</name></trkpt>
<trkpt lat="53.257991" lon="-1.813134"><ele>210</ele><time>2019-08-30T13:41:03Z</time><name>PT11932</name></trkpt>
<trkpt lat="53.257993" lon="-1.813161"><ele>212</ele><time>2019-08-30T13:41:04Z</time><name>PT11933</name></trkpt>
<trkpt lat="53.257988" lon="-1.813187"><ele>212</ele><time>2019-08-30T13:41:05Z</time><name>PT11934</name></trkpt>
<trkpt lat="53.257989" lon="-1.813209"><ele>211</ele><time>2019-08-30T13:41:06Z</time><name>PT11935</name></trkpt>
<trkpt lat="53.257989" lon="-1.813237"><ele>211</ele><time>2019-08-30T13:41:07Z</time><name>PT11936</name></trkpt>
<trkpt lat="53.257989" lon="-1.813258"><ele>211</ele><time>2019-08-30T13:41:08Z</time><name>PT11937</name></trkpt>
<trkpt lat="53.257993" lon="-1.813273"><ele>211</ele><time>2019-08-30T13:41:09Z</time><name>PT11938</name></trkpt>
<trkpt lat="53.258001" lon="-1.813294"><ele>211</ele><time>2019-08-30T13:41:10Z</time><name>PT11939</name></trkpt>
<trkpt lat="53.258006" lon="-1.813313"><ele>210</ele><time>2019-08-30T13:41:11Z</time><name>PT11940</name></trkpt>
<trkpt lat="53.258010" lon="-1.813332"><ele>209</ele><time>2019-08-30T13:41:12Z</time><name>PT11941</name></trkpt>
<trkpt lat="53.258010" lon="-1.813355"><ele>208</ele><time>2019-08-30T13:41:13Z</time><name>PT11942</name></trkpt>
<trkpt lat="53.258012" lon="-1.813374"><ele>208</ele><time>2019-08-30T13:41:14Z</time><name>PT11943</name></trkpt>
<trkpt lat="53.258015" lon="-1.813389"><ele>208</ele><time>2019-08-30T13:41:15Z</time><name>PT11944</name></trkpt>
<trkpt lat="53.258023" lon="-1.813401"><ele>207</ele><time>2019-08-30T13:41:16Z</time><name>PT11945</name></trkpt>
<trkpt lat="53.258028" lon="-1.813418"><ele>207</ele><time>2019-08-30T13:41:17Z</time><name>PT11946</name></trkpt>
<trkpt lat="53.258030" lon="-1.813440"><ele>205</ele><time>2019-08-30T13:41:18Z</time><name>PT11947</name></trkpt>
<trkpt lat="53.258036" lon="-1.813467"><ele>206</ele><time>2019-08-30T13:41:19Z</time><name>PT11948</name></trkpt>
<trkpt lat="53.258043" lon="-1.813480"><ele>207</ele><time>2019-08-30T13:41:20Z</time><name>PT11949</name></trkpt>
<trkpt lat="53.258039" lon="-1.813495"><ele>207</ele><time>2019-08-30T13:41:21Z</time><name>PT11950</name></trkpt>
<trkpt lat="53.258044" lon="-1.813513"><ele>206</ele><time>2019-08-30T13:41:22Z</time><name>PT11951</name></trkpt>
<trkpt lat="53.258053" lon="-1.813529"><ele>206</ele><time>2019-08-30T13:41:23Z</time><name>PT11952</name></trkpt>
<trkpt lat="53.258061" lon="-1.813544"><ele>207</ele><time>2019-08-30T13:41:24Z</time><name>PT11953</name></trkpt>
<trkpt lat="53.258066" lon="-1.813556"><ele>208</ele><time>2019-08-30T13:41:25Z</time><name>PT11954</name></trkpt>
<trkpt lat="53.258068" lon="-1.813568"><ele>209</ele><time>2019-08-30T13:41:26Z</time><name>PT11955</name></trkpt>
<trkpt lat="53.258072" lon="-1.813581"><ele>209</ele><time>2019-08-30T13:41:27Z</time><name>PT11956</name></trkpt>
<trkpt lat="53.258078" lon="-1.813596"><ele>210</ele><time>2019-08-30T13:41:28Z</time><name>PT11957</name></trkpt>
<trkpt lat="53.258083" lon="-1.813613"><ele>209</ele><time>2019-08-30T13:41:29Z</time><name>PT11958</name></trkpt>
<trkpt lat="53.258080" lon="-1.813629"><ele>209</ele><time>2019-08-30T13:41:30Z</time><name>PT11959</name></trkpt>
<trkpt lat="53.258080" lon="-1.813643"><ele>209</ele><time>2019-08-30T13:41:31Z</time><name>PT11960</name></trkpt>
<trkpt lat="53.258080" lon="-1.813655"><ele>210</ele><time>2019-08-30T13:41:32Z</time><name>PT11961</name></trkpt>
<trkpt lat="53.258082" lon="-1.813668"><ele>210</ele><time>2019-08-30T13:41:33Z</time><name>PT11962</name></trkpt>
<trkpt lat="53.258086" lon="-1.813682"><ele>211</ele><time>2019-08-30T13:41:34Z</time><name>PT11963</name></trkpt>
<trkpt lat="53.258090" lon="-1.813699"><ele>211</ele><time>2019-08-30T13:41:35Z</time><name>PT11964</name></trkpt>
<trkpt lat="53.258093" lon="-1.813709"><ele>212</ele><time>2019-08-30T13:41:36Z</time><name>PT11965</name></trkpt>
<trkpt lat="53.258096" lon="-1.813718"><ele>213</ele><time>2019-08-30T13:41:37Z</time><name>PT11966</name></trkpt>
<trkpt lat="53.258102" lon="-1.813725"><ele>213</ele><time>2019-08-30T13:41:38Z</time><name>PT11967</name></trkpt>
<trkpt lat="53.258111" lon="-1.813734"><ele>214</ele><time>2019-08-30T13:41:39Z</time><name>PT11968</name></trkpt>
<trkpt lat="53.258118" lon="-1.813744"><ele>214</ele><time>2019-08-30T13:41:40Z</time><name>PT11969</name></trkpt>
<trkpt lat="53.258123" lon="-1.813754"><ele>215</ele><time>2019-08-30T13:41:41Z</time><name>PT11970</name></trkpt>
<trkpt lat="53.258126" lon="-1.813757"><ele>215</ele><time>2019-08-30T13:41:42Z</time><name>PT11971</name></trkpt>
<trkpt lat="53.258120" lon="-1.813780"><ele>215</ele><time>2019-08-30T13:41:43Z</time><name>PT11972</name></trkpt>
<trkpt lat="53.258120" lon="-1.813790"><ele>215</ele><time>2019-08-30T13:41:44Z</time><name>PT11973</name></trkpt>
<trkpt lat="53.258118" lon="-1.813803"><ele>215</ele><time>2019-08-30T13:41:45Z</time><name>PT11974</name></trkpt>
<trkpt lat="53.258118" lon="-1.813815"><ele>215</ele><time>2019-08-30T13:41:46Z</time><name>PT11975</name></trkpt>
<trkpt lat="53.258121" lon="-1.813825"><ele>216</ele><time>2019-08-30T13:41:47Z</time><name>PT11976</name></trkpt>
<trkpt lat="53.258120" lon="-1.813839"><ele>217</ele><time>2019-08-30T13:41:48Z</time><name>PT11977</name></trkpt>
<trkpt lat="53.258123" lon="-1.813851"><ele>216</ele><time>2019-08-30T13:41:49Z</time><name>PT11978</name></trkpt>
<trkpt lat="53.258132" lon="-1.813852"><ele>217</ele><time>2019-08-30T13:41:50Z</time><name>PT11979</name></trkpt>
<trkpt lat="53.258135" lon="-1.813856"><ele>218</ele><time>2019-08-30T13:41:51Z</time><name>PT11980</name></trkpt>
<trkpt lat="53.258135" lon="-1.813868"><ele>217</ele><time>2019-08-30T13:41:52Z</time><name>PT11981</name></trkpt>
<trkpt lat="53.258133" lon="-1.813873"><ele>219</ele><time>2019-08-30T13:41:53Z</time><name>PT11982</name></trkpt>
<trkpt lat="53.258134" lon="-1.813881"><ele>219</ele><time>2019-08-30T13:41:54Z</time><name>PT11983</name></trkpt>
<trkpt lat="53.258138" lon="-1.813896"><ele>220</ele><time>2019-08-30T13:41:55Z</time><name>PT11984</name></trkpt>
<trkpt lat="53.258142" lon="-1.813908"><ele>219</ele><time>2019-08-30T13:41:56Z</time><name>PT11985</name></trkpt>
<trkpt lat="53.258148" lon="-1.813919"><ele>219</ele><time>2019-08-30T13:41:57Z</time><name>PT11986</name></trkpt>
<trkpt lat="53.258153" lon="-1.813931"><ele>220</ele><time>2019-08-30T13:41:58Z</time><name>PT11987</name></trkpt>
<trkpt lat="53.258161" lon="-1.813938"><ele>219</ele><time>2019-08-30T13:41:59Z</time><name>PT11988</name></trkpt>
<trkpt lat="53.258165" lon="-1.813951"><ele>219</ele><time>2019-08-30T13:42:00Z</time><name>PT11989</name></trkpt>
<trkpt lat="53.258170" lon="-1.813970"><ele>219</ele><time>2019-08-30T13:42:01Z</time><name>PT11990</name></trkpt>
<trkpt lat="53.258170" lon="-1.813988"><ele>219</ele><time>2019-08-30T13:42:02Z</time><name>PT11991</name></trkpt>
<trkpt lat="53.258172" lon="-1.814002"><ele>220</ele><time>2019-08-30T13:42:03Z</time><name>PT11992</name></trkpt>
<trkpt lat="53.258177" lon="-1.814017"><ele>220</ele><time>2019-08-30T13:42:04Z</time><name>PT11993</name></trkpt>
<trkpt lat="53.258180" lon="-1.814027"><ele>220</ele><time>2019-08-30T13:42:05Z</time><name>PT11994</name></trkpt>
<trkpt lat="53.258182" lon="-1.814035"><ele>221</ele><time>2019-08-30T13:42:06Z</time><name>PT11995</name></trkpt>
<trkpt lat="53.258181" lon="-1.814049"><ele>220</ele><time>2019-08-30T13:42:07Z</time><name>PT11996</name></trkpt>
<trkpt lat="53.258182" lon="-1.814066"><ele>221</ele><time>2019-08-30T13:42:08Z</time><name>PT11997</name></trkpt>
<trkpt lat="53.258184" lon="-1.814075"><ele>222</ele><time>2019-08-30T13:42:09Z</time><name>PT11998</name></trkpt>
<trkpt lat="53.258188" lon="-1.814079"><ele>223</ele><time>2019-08-30T13:42:10Z</time><name>PT11999</name></trkpt>
<trkpt lat="53.258200" lon="-1.814085"><ele>224</ele><time>2019-08-30T13:42:11Z</time><name>PT12000</name></trkpt>
<trkpt lat="53.258203" lon="-1.814102"><ele>224</ele><time>2019-08-30T13:42:12Z</time><name>PT12001</name></trkpt>
<trkpt lat="53.258202" lon="-1.814112"><ele>225</ele><time>2019-08-30T13:42:13Z</time><name>PT12002</name></trkpt>
<trkpt lat="53.258206" lon="-1.814117"><ele>226</ele><time>2019-08-30T13:42:14Z</time><name>PT12003</name></trkpt>
<trkpt lat="53.258210" lon="-1.814124"><ele>226</ele><time>2019-08-30T13:42:15Z</time><name>PT12004</name></trkpt>
<trkpt lat="53.258208" lon="-1.814142"><ele>227</ele><time>2019-08-30T13:42:16Z</time><name>PT12005</name></trkpt>
<trkpt lat="53.258204" lon="-1.814154"><ele>224</ele><time>2019-08-30T13:42:17Z</time><name>PT12006</name></trkpt>
<trkpt lat="53.258207" lon="-1.814162"><ele>225</ele><time>2019-08-30T13:42:18Z</time><name>PT12007</name></trkpt>
<trkpt lat="53.258216" lon="-1.814172"><ele>225</ele><time>2019-08-30T13:42:19Z</time><name>PT12008</name></trkpt>
<trkpt lat="53.258218" lon="-1.814181"><ele>225</ele><time>2019-08-30T13:42:20Z</time><name>PT12009</name></trkpt>
<trkpt lat="53.258218" lon="-1.814191"><ele>225</ele><time>2019-08-30T13:42:21Z</time><name>PT12010</name></trkpt>
<trkpt lat="53.258220" lon="-1.814196"><ele>226</ele><time>2019-08-30T13:42:22Z</time><name>PT12011</name></trkpt>
<trkpt lat="53.258222" lon="-1.814199"><ele>225</ele><time>2019-08-30T13:42:23Z</time><name>PT12012</name></trkpt>
<trkpt lat="53.258221" lon="-1.814205"><ele>225</ele><time>2019-08-30T13:42:24Z</time><name>PT12013</name></trkpt>
<trkpt lat="53.258223" lon="-1.814222"><ele>224</ele><time>2019-08-30T13:42:25Z</time><name>PT12014</name></trkpt>
<trkpt lat="53.258227" lon="-1.814249"><ele>220</ele><time>2019-08-30T13:42:26Z</time><name>PT12015</name></trkpt>
<trkpt lat="53.258230" lon="-1.814250"><ele>219</ele><time>2019-08-30T13:42:27Z</time><name>PT12016</name></trkpt>
<trkpt lat="53.258223" lon="-1.814261"><ele>219</ele><time>2019-08-30T13:42:28Z</time><name>PT12017</name></trkpt>
<trkpt lat="53.258219" lon="-1.814269"><ele>219</ele><time>2019-08-30T13:42:29Z</time><name>PT12018</name></trkpt>
<trkpt lat="53.258219" lon="-1.814274"><ele>219</ele><time>2019-08-30T13:42:30Z</time><name>PT12019</name></trkpt>
<trkpt lat="53.258216" lon="-1.814277"><ele>219</ele><time>2019-08-30T13:42:31Z</time><name>PT12020</name></trkpt>
<trkpt lat="53.258210" lon="-1.814288"><ele>219</ele><time>2019-08-30T13:42:32Z</time><name>PT12021</name></trkpt>
<trkpt lat="53.258208" lon="-1.814293"><ele>218</ele><time>2019-08-30T13:42:33Z</time><name>PT12022</name></trkpt>
<trkpt lat="53.258206" lon="-1.814302"><ele>219</ele><time>2019-08-30T13:42:34Z</time><name>PT12023</name></trkpt>
<trkpt lat="53.258205" lon="-1.814315"><ele>219</ele><time>2019-08-30T13:42:35Z</time><name>PT12024</name></trkpt>
<trkpt lat="53.258197" lon="-1.814325"><ele>218</ele><time>2019-08-30T13:42:36Z</time><name>PT12025</name></trkpt>
<trkpt lat="53.258202" lon="-1.814335"><ele>218</ele><time>2019-08-30T13:42:37Z</time><name>PT12026</name></trkpt>
<trkpt lat="53.258203" lon="-1.814348"><ele>218</ele><time>2019-08-30T13:42:38Z</time><name>PT12027</name></trkpt>
<trkpt lat="53.258207" lon="-1.814352"><ele>218</ele><time>2019-08-30T13:42:39Z</time><name>PT12028</name></trkpt>
<trkpt lat="53.258215" lon="-1.814352"><ele>218</ele><time>2019-08-30T13:42:40Z</time><name>PT12029</name></trkpt>
<trkpt lat="53.258217" lon="-1.814355"><ele>219</ele><time>2019-08-30T13:42:41Z</time><name>PT12030</name></trkpt>
<trkpt lat="53.258217" lon="-1.814363"><ele>220</ele><time>2019-08-30T13:42:42Z</time><name>PT12031</name></trkpt>
<trkpt lat="53.258217" lon="-1.814372"><ele>219</ele><time>2019-08-30T13:42:43Z</time><name>PT12032</name></trkpt>
<trkpt lat="53.258218" lon="-1.814381"><ele>219</ele><time>2019-08-30T13:42:44Z</time><name>PT12033</name></trkpt>
<trkpt lat="53.258220" lon="-1.814382"><ele>220</ele><time>2019-08-30T13:42:45Z</time><name>PT12034</name></trkpt>
<trkpt lat="53.258225" lon="-1.814389"><ele>219</ele><time>2019-08-30T13:42:46Z</time><name>PT12035</name></trkpt>
<trkpt lat="53.258220" lon="-1.814403"><ele>219</ele><time>2019-08-30T13:42:47Z</time><name>PT12036</name></trkpt>
<trkpt lat="53.258223" lon="-1.814415"><ele>219</ele><time>2019-08-30T13:42:48Z</time><name>PT12037</name></trkpt>
<trkpt lat="53.258228" lon="-1.814429"><ele>220</ele><time>2019-08-30T13:42:49Z</time><name>PT12038</name></trkpt>
<trkpt lat="53.258232" lon="-1.814446"><ele>220</ele><time>2019-08-30T13:42:50Z</time><name>PT12039</name></trkpt>
<trkpt lat="53.258228" lon="-1.814460"><ele>219</ele><time>2019-08-30T13:42:51Z</time><name>PT12040</name></trkpt>
<trkpt lat="53.258222" lon="-1.814475"><ele>219</ele><time>2019-08-30T13:42:52Z</time><name>PT12041</name></trkpt>
<trkpt lat="53.258224" lon="-1.814483"><ele>219</ele><time>2019-08-30T13:42:53Z</time><name>PT12042</name></trkpt>
<trkpt lat="53.258228" lon="-1.814490"><ele>218</ele><time>2019-08-30T13:42:54Z</time><name>PT12043</name></trkpt>
<trkpt lat="53.258229" lon="-1.814495"><ele>218</ele><time>2019-08-30T13:42:55Z</time><name>PT12044</name></trkpt>
<trkpt lat="53.258234" lon="-1.814499"><ele>217</ele><time>2019-08-30T13:42:56Z</time><name>PT12045</name></trkpt>
<trkpt lat="53.258241" lon="-1.814501"><ele>219</ele><time>2019-08-30T13:42:57Z</time><name>PT12046</name></trkpt>
<trkpt lat="53.258251" lon="-1.814510"><ele>219</ele><time>2019-08-30T13:42:58Z</time><name>PT12047</name></trkpt>
<trkpt lat="53.258267" lon="-1.814512"><ele>219</ele><time>2019-08-30T13:42:59Z</time><name>PT12048</name></trkpt>
<trkpt lat="53.258268" lon="-1.814527"><ele>219</ele><time>2019-08-30T13:43:00Z</time><name>PT12049</name></trkpt>
<trkpt lat="53.258263" lon="-1.814539"><ele>220</ele><time>2019-08-30T13:43:01Z</time><name>PT12050</name></trkpt>
<trkpt lat="53.258275" lon="-1.814564"><ele>219</ele><time>2019-08-30T13:43:02Z</time><name>PT12051</name></trkpt>
<trkpt lat="53.258284" lon="-1.814578"><ele>219</ele><time>2019-08-30T13:43:03Z</time><name>PT12052</name></trkpt>
<trkpt lat="53.258283" lon="-1.814594"><ele>219</ele><time>2019-08-30T13:43:04Z</time><name>PT12053</name></trkpt>
<trkpt lat="53.258284" lon="-1.814608"><ele>218</ele><time>2019-08-30T13:43:05Z</time><name>PT12054</name></trkpt>
<trkpt lat="53.258289" lon="-1.814616"><ele>218</ele><time>2019-08-30T13:43:06Z</time><name>PT12055</name></trkpt>
<trkpt lat="53.258286" lon="-1.814623"><ele>219</ele><time>2019-08-30T13:43:07Z</time><name>PT12056</name></trkpt>
<trkpt lat="53.258287" lon="-1.814631"><ele>219</ele><time>2019-08-30T13:43:08Z</time><name>PT12057</name></trkpt>
<trkpt lat="53.258289" lon="-1.814637"><ele>219</ele><time>2019-08-30T13:43:09Z</time><name>PT12058</name></trkpt>
<trkpt lat="53.258293" lon="-1.814646"><ele>218</ele><time>2019-08-30T13:43:10Z</time><name>PT12059</name></trkpt>
<trkpt lat="53.258296" lon="-1.814655"><ele>219</ele><time>2019-08-30T13:43:11Z</time><name>PT12060</name></trkpt>
<trkpt lat="53.258306" lon="-1.814659"><ele>218</ele><time>2019-08-30T13:43:12Z</time><name>PT12061</name></trkpt>
<trkpt lat="53.258310" lon="-1.814677"><ele>218</ele><time>2019-08-30T13:43:13Z</time><name>PT12062</name></trkpt>
<trkpt lat="53.258306" lon="-1.814685"><ele>217</ele><time>2019-08-30T13:43:14Z</time><name>PT12063</name></trkpt>
<trkpt lat="53.258305" lon="-1.814691"><ele>217</ele><time>2019-08-30T13:43:15Z</time><name>PT12064</name></trkpt>
<trkpt lat="53.258302" lon="-1.814705"><ele>217</ele><time>2019-08-30T13:43:16Z</time><name>PT12065</name></trkpt>
<trkpt lat="53.258299" lon="-1.814724"><ele>215</ele><time>2019-08-30T13:43:17Z</time><name>PT12066</name></trkpt>
<trkpt lat="53.258290" lon="-1.814752"><ele>213</ele><time>2019-08-30T13:43:18Z</time><name>PT12067</name></trkpt>
<trkpt lat="53.258288" lon="-1.814768"><ele>214</ele><time>2019-08-30T13:43:19Z</time><name>PT12068</name></trkpt>
<trkpt lat="53.258288" lon="-1.814787"><ele>215</ele><time>2019-08-30T13:43:20Z</time><name>PT12069</name></trkpt>
<trkpt lat="53.258293" lon="-1.814802"><ele>216</ele><time>2019-08-30T13:43:21Z</time><name>PT12070</name></trkpt>
<trkpt lat="53.258293" lon="-1.814819"><ele>216</ele><time>2019-08-30T13:43:22Z</time><name>PT12071</name></trkpt>
<trkpt lat="53.258298" lon="-1.814826"><ele>216</ele><time>2019-08-30T13:43:23Z</time><name>PT12072</name></trkpt>
<trkpt lat="53.258303" lon="-1.814829"><ele>217</ele><time>2019-08-30T13:43:24Z</time><name>PT12073</name></trkpt>
<trkpt lat="53.258298" lon="-1.814841"><ele>217</ele><time>2019-08-30T13:43:25Z</time><name>PT12074</name></trkpt>
<trkpt lat="53.258304" lon="-1.814848"><ele>218</ele><time>2019-08-30T13:43:26Z</time><name>PT12075</name></trkpt>
<trkpt lat="53.258316" lon="-1.814869"><ele>218</ele><time>2019-08-30T13:43:27Z</time><name>PT12076</name></trkpt>
<trkpt lat="53.258325" lon="-1.814888"><ele>217</ele><time>2019-08-30T13:43:28Z</time><name>PT12077</name></trkpt>
<trkpt lat="53.258328" lon="-1.814905"><ele>217</ele><time>2019-08-30T13:43:29Z</time><name>PT12078</name></trkpt>
<trkpt lat="53.258331" lon="-1.814924"><ele>216</ele><time>2019-08-30T13:43:30Z</time><name>PT12079</name></trkpt>
<trkpt lat="53.258328" lon="-1.814942"><ele>216</ele><time>2019-08-30T13:43:31Z</time><name>PT12080</name></trkpt>
<trkpt lat="53.258332" lon="-1.814962"><ele>217</ele><time>2019-08-30T13:43:32Z</time><name>PT12081</name></trkpt>
<trkpt lat="53.258336" lon="-1.814977"><ele>218</ele><time>2019-08-30T13:43:33Z</time><name>PT12082</name></trkpt>
<trkpt lat="53.258340" lon="-1.814998"><ele>218</ele><time>2019-08-30T13:43:34Z</time><name>PT12083</name></trkpt>
<trkpt lat="53.258332" lon="-1.815018"><ele>219</ele><time>2019-08-30T13:43:35Z</time><name>PT12084</name></trkpt>
<trkpt lat="53.258325" lon="-1.815042"><ele>220</ele><time>2019-08-30T13:43:36Z</time><name>PT12085</name></trkpt>
<trkpt lat="53.258324" lon="-1.815064"><ele>219</ele><time>2019-08-30T13:43:37Z</time><name>PT12086</name></trkpt>
<trkpt lat="53.258322" lon="-1.815078"><ele>218</ele><time>2019-08-30T13:43:38Z</time><name>PT12087</name></trkpt>
<trkpt lat="53.258319" lon="-1.815101"><ele>218</ele><time>2019-08-30T13:43:39Z</time><name>PT12088</name></trkpt>
<trkpt lat="53.258323" lon="-1.815117"><ele>218</ele><time>2019-08-30T13:43:40Z</time><name>PT12089</name></trkpt>
<trkpt lat="53.258326" lon="-1.815135"><ele>218</ele><time>2019-08-30T13:43:41Z</time><name>PT12090</name></trkpt>
<trkpt lat="53.258336" lon="-1.815154"><ele>216</ele><time>2019-08-30T13:43:42Z</time><name>PT12091</name></trkpt>
<trkpt lat="53.258344" lon="-1.815172"><ele>217</ele><time>2019-08-30T13:43:43Z</time><name>PT12092</name></trkpt>
<trkpt lat="53.258351" lon="-1.815185"><ele>216</ele><time>2019-08-30T13:43:44Z</time><name>PT12093</name></trkpt>
<trkpt lat="53.258352" lon="-1.815200"><ele>216</ele><time>2019-08-30T13:43:45Z</time><name>PT12094</name></trkpt>
<trkpt lat="53.258355" lon="-1.815208"><ele>216</ele><time>2019-08-30T13:43:46Z</time><name>PT12095</name></trkpt>
<trkpt lat="53.258358" lon="-1.815217"><ele>216</ele><time>2019-08-30T13:43:47Z</time><name>PT12096</name></trkpt>
<trkpt lat="53.258363" lon="-1.815232"><ele>215</ele><time>2019-08-30T13:43:48Z</time><name>PT12097</name></trkpt>
<trkpt lat="53.258364" lon="-1.815245"><ele>217</ele><time>2019-08-30T13:43:49Z</time><name>PT12098</name></trkpt>
<trkpt lat="53.258377" lon="-1.815243"><ele>218</ele><time>2019-08-30T13:43:50Z</time><name>PT12099</name></trkpt>
<trkpt lat="53.258384" lon="-1.815249"><ele>219</ele><time>2019-08-30T13:43:51Z</time><name>PT12100</name></trkpt>
<trkpt lat="53.258385" lon="-1.815260"><ele>220</ele><time>2019-08-30T13:43:52Z</time><name>PT12101</name></trkpt>
<trkpt lat="53.258384" lon="-1.815274"><ele>220</ele><time>2019-08-30T13:43:53Z</time><name>PT12102</name></trkpt>
<trkpt lat="53.258386" lon="-1.815289"><ele>221</ele><time>2019-08-30T13:43:54Z</time><name>PT12103</name></trkpt>
<trkpt lat="53.258386" lon="-1.815309"><ele>221</ele><time>2019-08-30T13:43:55Z</time><name>PT12104</name></trkpt>
<trkpt lat="53.258380" lon="-1.815326"><ele>222</ele><time>2019-08-30T13:43:56Z</time><name>PT12105</name></trkpt>
<trkpt lat="53.258380" lon="-1.815343"><ele>221</ele><time>2019-08-30T13:43:57Z</time><name>PT12106</name></trkpt>
<trkpt lat="53.258381" lon="-1.815355"><ele>220</ele><time>2019-08-30T13:43:58Z</time><name>PT12107</name></trkpt>
<trkpt lat="53.258392" lon="-1.815372"><ele>218</ele><time>2019-08-30T13:43:59Z</time><name>PT12108</name></trkpt>
<trkpt lat="53.258401" lon="-1.815390"><ele>218</ele><time>2019-08-30T13:44:00Z</time><name>PT12109</name></trkpt>
<trkpt lat="53.258411" lon="-1.815410"><ele>220</ele><time>2019-08-30T13:44:01Z</time><name>PT12110</name></trkpt>
<trkpt lat="53.258399" lon="-1.815432"><ele>219</ele><time>2019-08-30T13:44:02Z</time><name>PT12111</name></trkpt>
<trkpt lat="53.258395" lon="-1.815447"><ele>219</ele><time>2019-08-30T13:44:03Z</time><name>PT12112</name></trkpt>
<trkpt lat="53.258397" lon="-1.815465"><ele>220</ele><time>2019-08-30T13:44:04Z</time><name>PT12113</name></trkpt>
<trkpt lat="53.258397" lon="-1.815483"><ele>221</ele><time>2019-08-30T13:44:05Z</time><name>PT12114</name></trkpt>
<trkpt lat="53.258402" lon="-1.815488"><ele>222</ele><time>2019-08-30T13:44:06Z</time><name>PT12115</name></trkpt>
<trkpt lat="53.258407" lon="-1.815506"><ele>222</ele><time>2019-08-30T13:44:07Z</time><name>PT12116</name></trkpt>
<trkpt lat="53.258404" lon="-1.815518"><ele>224</ele><time>2019-08-30T13:44:08Z</time><name>PT12117</name></trkpt>
<trkpt lat="53.258403" lon="-1.815529"><ele>225</ele><time>2019-08-30T13:44:09Z</time><name>PT12118</name></trkpt>
<trkpt lat="53.258407" lon="-1.815544"><ele>225</ele><time>2019-08-30T13:44:10Z</time><name>PT12119</name></trkpt>
<trkpt lat="53.258410" lon="-1.815566"><ele>226</ele><time>2019-08-30T13:44:11Z</time><name>PT12120</name></trkpt>
<trkpt lat="53.258410" lon="-1.815590"><ele>226</ele><time>2019-08-30T13:44:12Z</time><name>PT12121</name></trkpt>
<trkpt lat="53.258406" lon="-1.815602"><ele>227</ele><time>2019-08-30T13:44:13Z</time><name>PT12122</name></trkpt>
<trkpt lat="53.258408" lon="-1.815620"><ele>227</ele><time>2019-08-30T13:44:14Z</time><name>PT12123</name></trkpt>
<trkpt lat="53.258413" lon="-1.815638"><ele>228</ele><time>2019-08-30T13:44:15Z</time><name>PT12124</name></trkpt>
<trkpt lat="53.258415" lon="-1.815661"><ele>228</ele><time>2019-08-30T13:44:16Z</time><name>PT12125</name></trkpt>
<trkpt lat="53.258408" lon="-1.815675"><ele>228</ele><time>2019-08-30T13:44:17Z</time><name>PT12126</name></trkpt>
<trkpt lat="53.258406" lon="-1.815692"><ele>228</ele><time>2019-08-30T13:44:18Z</time><name>PT12127</name></trkpt>
<trkpt lat="53.258408" lon="-1.815691"><ele>227</ele><time>2019-08-30T13:44:19Z</time><name>PT12128</name></trkpt>
<trkpt lat="53.258414" lon="-1.815692"><ele>227</ele><time>2019-08-30T13:44:20Z</time><name>PT12129</name></trkpt>
<trkpt lat="53.258420" lon="-1.815711"><ele>227</ele><time>2019-08-30T13:44:21Z</time><name>PT12130</name></trkpt>
<trkpt lat="53.258423" lon="-1.815729"><ele>227</ele><time>2019-08-30T13:44:22Z</time><name>PT12131</name></trkpt>
<trkpt lat="53.258431" lon="-1.815743"><ele>228</ele><time>2019-08-30T13:44:23Z</time><name>PT12132</name></trkpt>
<trkpt lat="53.258438" lon="-1.815762"><ele>227</ele><time>2019-08-30T13:44:24Z</time><name>PT12133</name></trkpt>
<trkpt lat="53.258439" lon="-1.815788"><ele>226</ele><time>2019-08-30T13:44:25Z</time><name>PT12134</name></trkpt>
<trkpt lat="53.258441" lon="-1.815809"><ele>226</ele><time>2019-08-30T13:44:26Z</time><name>PT12135</name></trkpt>
<trkpt lat="53.258438" lon="-1.815827"><ele>226</ele><time>2019-08-30T13:44:27Z</time><name>PT12136</name></trkpt>
<trkpt lat="53.258447" lon="-1.815837"><ele>226</ele><time>2019-08-30T13:44:28Z</time><name>PT12137</name></trkpt>
<trkpt lat="53.258454" lon="-1.815852"><ele>226</ele><time>2019-08-30T13:44:29Z</time><name>PT12138</name></trkpt>
<trkpt lat="53.258453" lon="-1.815871"><ele>225</ele><time>2019-08-30T13:44:30Z</time><name>PT12139</name></trkpt>
<trkpt lat="53.258454" lon="-1.815881"><ele>225</ele><time>2019-08-30T13:44:31Z</time><name>PT12140</name></trkpt>
<trkpt lat="53.258461" lon="-1.815890"><ele>225</ele><time>2019-08-30T13:44:32Z</time><name>PT12141</name></trkpt>
<trkpt lat="53.258460" lon="-1.815903"><ele>225</ele><time>2019-08-30T13:44:33Z</time><name>PT12142</name></trkpt>
<trkpt lat="53.258461" lon="-1.815915"><ele>225</ele><time>2019-08-30T13:44:34Z</time><name>PT12143</name></trkpt>
<trkpt lat="53.258465" lon="-1.815944"><ele>222</ele><time>2019-08-30T13:44:35Z</time><name>PT12144</name></trkpt>
<trkpt lat="53.258465" lon="-1.815955"><ele>222</ele><time>2019-08-30T13:44:36Z</time><name>PT12145</name></trkpt>
<trkpt lat="53.258465" lon="-1.815971"><ele>220</ele><time>2019-08-30T13:44:37Z</time><name>PT12146</name></trkpt>
<trkpt lat="53.258458" lon="-1.815993"><ele>221</ele><time>2019-08-30T13:44:45Z</time><name>PT12147</name></trkpt>
<trkpt lat="53.258454" lon="-1.816012"><ele>221</ele><time>2019-08-30T13:44:46Z</time><name>PT12148</name></trkpt>
<trkpt lat="53.258455" lon="-1.816036"><ele>221</ele><time>2019-08-30T13:44:47Z</time><name>PT12149</name></trkpt>
<trkpt lat="53.258458" lon="-1.816061"><ele>222</ele><time>2019-08-30T13:44:48Z</time><name>PT12150</name></trkpt>
<trkpt lat="53.258455" lon="-1.816082"><ele>223</ele><time>2019-08-30T13:44:49Z</time><name>PT12151</name></trkpt>
<trkpt lat="53.258455" lon="-1.816099"><ele>223</ele><time>2019-08-30T13:44:50Z</time><name>PT12152</name></trkpt>
<trkpt lat="53.258456" lon="-1.816117"><ele>223</ele><time>2019-08-30T13:44:51Z</time><name>PT12153</name></trkpt>
<trkpt lat="53.258459" lon="-1.816137"><ele>223</ele><time>2019-08-30T13:44:52Z</time><name>PT12154</name></trkpt>
<trkpt lat="53.258461" lon="-1.816152"><ele>223</ele><time>2019-08-30T13:44:53Z</time><name>PT12155</name></trkpt>
<trkpt lat="53.258465" lon="-1.816172"><ele>224</ele><time>2019-08-30T13:44:54Z</time><name>PT12156</name></trkpt>
<trkpt lat="53.258470" lon="-1.816185"><ele>224</ele><time>2019-08-30T13:44:55Z</time><name>PT12157</name></trkpt>
<trkpt lat="53.258468" lon="-1.816195"><ele>224</ele><time>2019-08-30T13:44:56Z</time><name>PT12158</name></trkpt>
<trkpt lat="53.258466" lon="-1.816201"><ele>224</ele><time>2019-08-30T13:44:57Z</time><name>PT12159</name></trkpt>
<trkpt lat="53.258475" lon="-1.816218"><ele>224</ele><time>2019-08-30T13:44:58Z</time><name>PT12160</name></trkpt>
<trkpt lat="53.258476" lon="-1.816228"><ele>225</ele><time>2019-08-30T13:44:59Z</time><name>PT12161</name></trkpt>
<trkpt lat="53.258477" lon="-1.816244"><ele>225</ele><time>2019-08-30T13:45:00Z</time><name>PT12162</name></trkpt>
<trkpt lat="53.258478" lon="-1.816256"><ele>225</ele><time>2019-08-30T13:45:01Z</time><name>PT12163</name></trkpt>
<trkpt lat="53.258475" lon="-1.816272"><ele>224</ele><time>2019-08-30T13:45:02Z</time><name>PT12164</name></trkpt>
<trkpt lat="53.258471" lon="-1.816284"><ele>224</ele><time>2019-08-30T13:45:03Z</time><name>PT12165</name></trkpt>
<trkpt lat="53.258469" lon="-1.816300"><ele>224</ele><time>2019-08-30T13:45:04Z</time><name>PT12166</name></trkpt>
<trkpt lat="53.258470" lon="-1.816320"><ele>224</ele><time>2019-08-30T13:45:05Z</time><name>PT12167</name></trkpt>
<trkpt lat="53.258473" lon="-1.816342"><ele>222</ele><time>2019-08-30T13:45:06Z</time><name>PT12168</name></trkpt>
<trkpt lat="53.258477" lon="-1.816356"><ele>223</ele><time>2019-08-30T13:45:07Z</time><name>PT12169</name></trkpt>
<trkpt lat="53.258490" lon="-1.816352"><ele>224</ele><time>2019-08-30T13:45:08Z</time><name>PT12170</name></trkpt>
<trkpt lat="53.258494" lon="-1.816363"><ele>224</ele><time>2019-08-30T13:45:09Z</time><name>PT12171</name></trkpt>
<trkpt lat="53.258495" lon="-1.816370"><ele>224</ele><time>2019-08-30T13:45:10Z</time><name>PT12172</name></trkpt>
<trkpt lat="53.258490" lon="-1.816375"><ele>224</ele><time>2019-08-30T13:45:11Z</time><name>PT12173</name></trkpt>
<trkpt lat="53.258489" lon="-1.816379"><ele>224</ele><time>2019-08-30T13:45:12Z</time><name>PT12174</name></trkpt>
<trkpt lat="53.258497" lon="-1.816382"><ele>225</ele><time>2019-08-30T13:45:13Z</time><name>PT12175</name></trkpt>
<trkpt lat="53.258504" lon="-1.816394"><ele>225</ele><time>2019-08-30T13:45:14Z</time><name>PT12176</name></trkpt>
<trkpt lat="53.258516" lon="-1.816397"><ele>226</ele><time>2019-08-30T13:45:15Z</time><name>PT12177</name></trkpt>
<trkpt lat="53.258518" lon="-1.816406"><ele>226</ele><time>2019-08-30T13:45:16Z</time><name>PT12178</name></trkpt>
<trkpt lat="53.258521" lon="-1.816413"><ele>227</ele><time>2019-08-30T13:45:17Z</time><name>PT12179</name></trkpt>
<trkpt lat="53.258525" lon="-1.816421"><ele>227</ele><time>2019-08-30T13:45:18Z</time><name>PT12180</name></trkpt>
<trkpt lat="53.258532" lon="-1.816432"><ele>227</ele><time>2019-08-30T13:45:19Z</time><name>PT12181</name></trkpt>
<trkpt lat="53.258536" lon="-1.816441"><ele>227</ele><time>2019-08-30T13:45:20Z</time><name>PT12182</name></trkpt>
<trkpt lat="53.258538" lon="-1.816453"><ele>228</ele><time>2019-08-30T13:45:21Z</time><name>PT12183</name></trkpt>
<trkpt lat="53.258540" lon="-1.816463"><ele>228</ele><time>2019-08-30T13:45:22Z</time><name>PT12184</name></trkpt>
<trkpt lat="53.258544" lon="-1.816476"><ele>228</ele><time>2019-08-30T13:45:23Z</time><name>PT12185</name></trkpt>
<trkpt lat="53.258543" lon="-1.816493"><ele>227</ele><time>2019-08-30T13:45:24Z</time><name>PT12186</name></trkpt>
<trkpt lat="53.258545" lon="-1.816503"><ele>227</ele><time>2019-08-30T13:45:25Z</time><name>PT12187</name></trkpt>
<trkpt lat="53.258555" lon="-1.816541"><ele>227</ele><time>2019-08-30T13:45:26Z</time><name>PT12188</name></trkpt>
<trkpt lat="53.258564" lon="-1.816558"><ele>228</ele><time>2019-08-30T13:45:27Z</time><name>PT12189</name></trkpt>
<trkpt lat="53.258579" lon="-1.816564"><ele>228</ele><time>2019-08-30T13:45:28Z</time><name>PT12190</name></trkpt>
<trkpt lat="53.258582" lon="-1.816588"><ele>227</ele><time>2019-08-30T13:45:29Z</time><name>PT12191</name></trkpt>
<trkpt lat="53.258586" lon="-1.816620"><ele>226</ele><time>2019-08-30T13:45:30Z</time><name>PT12192</name></trkpt>
<trkpt lat="53.258587" lon="-1.816627"><ele>224</ele><time>2019-08-30T13:45:31Z</time><name>PT12193</name></trkpt>
<trkpt lat="53.258586" lon="-1.816636"><ele>224</ele><time>2019-08-30T13:45:32Z</time><name>PT12194</name></trkpt>
<trkpt lat="53.258590" lon="-1.816647"><ele>224</ele><time>2019-08-30T13:45:33Z</time><name>PT12195</name></trkpt>
<trkpt lat="53.258586" lon="-1.816654"><ele>224</ele><time>2019-08-30T13:45:34Z</time><name>PT12196</name></trkpt>
<trkpt lat="53.258584" lon="-1.816659"><ele>224</ele><time>2019-08-30T13:45:35Z</time><name>PT12197</name></trkpt>
<trkpt lat="53.258585" lon="-1.816664"><ele>225</ele><time>2019-08-30T13:45:36Z</time><name>PT12198</name></trkpt>
<trkpt lat="53.258583" lon="-1.816669"><ele>225</ele><time>2019-08-30T13:45:37Z</time><name>PT12199</name></trkpt>
<trkpt lat="53.258585" lon="-1.816675"><ele>224</ele><time>2019-08-30T13:45:38Z</time><name>PT12200</name></trkpt>
<trkpt lat="53.258585" lon="-1.816678"><ele>224</ele><time>2019-08-30T13:45:39Z</time><name>PT12201</name></trkpt>
<trkpt lat="53.258577" lon="-1.816677"><ele>224</ele><time>2019-08-30T13:45:40Z</time><name>PT12202</name></trkpt>
<trkpt lat="53.258575" lon="-1.816683"><ele>223</ele><time>2019-08-30T13:45:41Z</time><name>PT12203</name></trkpt>
<trkpt lat="53.258568" lon="-1.816692"><ele>223</ele><time>2019-08-30T13:45:42Z</time><name>PT12204</name></trkpt>
<trkpt lat="53.258563" lon="-1.816698"><ele>223</ele><time>2019-08-30T13:45:43Z</time><name>PT12205</name></trkpt>
<trkpt lat="53.258561" lon="-1.816703"><ele>224</ele><time>2019-08-30T13:45:44Z</time><name>PT12206</name></trkpt>
<trkpt lat="53.258557" lon="-1.816710"><ele>224</ele><time>2019-08-30T13:45:45Z</time><name>PT12207</name></trkpt>
<trkpt lat="53.258555" lon="-1.816710"><ele>224</ele><time>2019-08-30T13:45:46Z</time><name>PT12208</name></trkpt>
<trkpt lat="53.258550" lon="-1.816714"><ele>224</ele><time>2019-08-30T13:45:47Z</time><name>PT12209</name></trkpt>
<trkpt lat="53.258543" lon="-1.816718"><ele>223</ele><time>2019-08-30T13:45:48Z</time><name>PT12210</name></trkpt>
<trkpt lat="53.258534" lon="-1.816723"><ele>224</ele><time>2019-08-30T13:45:49Z</time><name>PT12211</name></trkpt>
<trkpt lat="53.258527" lon="-1.816729"><ele>224</ele><time>2019-08-30T13:45:50Z</time><name>PT12212</name></trkpt>
<trkpt lat="53.258522" lon="-1.816735"><ele>224</ele><time>2019-08-30T13:45:51Z</time><name>PT12213</name></trkpt>
<trkpt lat="53.258510" lon="-1.816734"><ele>224</ele><time>2019-08-30T13:45:52Z</time><name>PT12214</name></trkpt>
<trkpt lat="53.258506" lon="-1.816730"><ele>225</ele><time>2019-08-30T13:45:53Z</time><name>PT12215</name></trkpt>
<trkpt lat="53.258495" lon="-1.816731"><ele>224</ele><time>2019-08-30T13:45:54Z</time><name>PT12216</name></trkpt>
<trkpt lat="53.258488" lon="-1.816725"><ele>224</ele><time>2019-08-30T13:45:55Z</time><name>PT12217</name></trkpt>
<trkpt lat="53.258484" lon="-1.816726"><ele>224</ele><time>2019-08-30T13:45:56Z</time><name>PT12218</name></trkpt>
<trkpt lat="53.258476" lon="-1.816710"><ele>222</ele><time>2019-08-30T13:45:57Z</time><name>PT12219</name></trkpt>
<trkpt lat="53.258468" lon="-1.816701"><ele>221</ele><time>2019-08-30T13:45:58Z</time><name>PT12220</name></trkpt>
<trkpt lat="53.258461" lon="-1.816700"><ele>221</ele><time>2019-08-30T13:45:59Z</time><name>PT12221</name></trkpt>
<trkpt lat="53.258455" lon="-1.816689"><ele>221</ele><time>2019-08-30T13:46:00Z</time><name>PT12222</name></trkpt>
<trkpt lat="53.258447" lon="-1.816680"><ele>220</ele><time>2019-08-30T13:46:01Z</time><name>PT12223</name></trkpt>
<trkpt lat="53.258446" lon="-1.816672"><ele>220</ele><time>2019-08-30T13:46:02Z</time><name>PT12224</name></trkpt>
<trkpt lat="53.258438" lon="-1.816672"><ele>219</ele><time>2019-08-30T13:46:03Z</time><name>PT12225</name></trkpt>
<trkpt lat="53.258436" lon="-1.816669"><ele>218</ele><time>2019-08-30T13:46:04Z</time><name>PT12226</name></trkpt>
<trkpt lat="53.258428" lon="-1.816659"><ele>218</ele><time>2019-08-30T13:46:05Z</time><name>PT12227</name></trkpt>
<trkpt lat="53.258412" lon="-1.816652"><ele>220</ele><time>2019-08-30T13:46:06Z</time><name>PT12228</name></trkpt>
<trkpt lat="53.258401" lon="-1.816639"><ele>219</ele><time>2019-08-30T13:46:07Z</time><name>PT12229</name></trkpt>
<trkpt lat="53.258394" lon="-1.816620"><ele>220</ele><time>2019-08-30T13:46:08Z</time><name>PT12230</name></trkpt>
<trkpt lat="53.258388" lon="-1.816618"><ele>220</ele><time>2019-08-30T13:46:09Z</time><name>PT12231</name></trkpt>
<trkpt lat="53.258387" lon="-1.816612"><ele>220</ele><time>2019-08-30T13:46:10Z</time><name>PT12232</name></trkpt>
<trkpt lat="53.258381" lon="-1.816606"><ele>221</ele><time>2019-08-30T13:46:11Z</time><name>PT12233</name></trkpt>
<trkpt lat="53.258384" lon="-1.816583"><ele>221</ele><time>2019-08-30T13:46:12Z</time><name>PT12234</name></trkpt>
<trkpt lat="53.258383" lon="-1.816567"><ele>221</ele><time>2019-08-30T13:46:13Z</time><name>PT12235</name></trkpt>
<trkpt lat="53.258385" lon="-1.816561"><ele>220</ele><time>2019-08-30T13:46:14Z</time><name>PT12236</name></trkpt>
<trkpt lat="53.258381" lon="-1.816550"><ele>220</ele><time>2019-08-30T13:46:15Z</time><name>PT12237</name></trkpt>
<trkpt lat="53.258378" lon="-1.816542"><ele>221</ele><time>2019-08-30T13:46:16Z</time><name>PT12238</name></trkpt>
<trkpt lat="53.258380" lon="-1.816533"><ele>222</ele><time>2019-08-30T13:46:17Z</time><name>PT12239</name></trkpt>
<trkpt lat="53.258375" lon="-1.816530"><ele>222</ele><time>2019-08-30T13:46:18Z</time><name>PT12240</name></trkpt>
<trkpt lat="53.258372" lon="-1.816528"><ele>222</ele><time>2019-08-30T13:46:19Z</time><name>PT12241</name></trkpt>
<trkpt lat="53.258368" lon="-1.816526"><ele>221</ele><time>2019-08-30T13:46:20Z</time><name>PT12242</name></trkpt>
<trkpt lat="53.258361" lon="-1.816524"><ele>222</ele><time>2019-08-30T13:46:21Z</time><name>PT12243</name></trkpt>
<trkpt lat="53.258355" lon="-1.816523"><ele>223</ele><time>2019-08-30T13:46:22Z</time><name>PT12244</name></trkpt>
<trkpt lat="53.258355" lon="-1.816524"><ele>222</ele><time>2019-08-30T13:46:23Z</time><name>PT12245</name></trkpt>
<trkpt lat="53.258348" lon="-1.816516"><ele>223</ele><time>2019-08-30T13:46:24Z</time><name>PT12246</name></trkpt>
<trkpt lat="53.258336" lon="-1.816508"><ele>222</ele><time>2019-08-30T13:46:25Z</time><name>PT12247</name></trkpt>
<trkpt lat="53.258331" lon="-1.816498"><ele>222</ele><time>2019-08-30T13:46:26Z</time><name>PT12248</name></trkpt>
<trkpt lat="53.258326" lon="-1.816486"><ele>223</ele><time>2019-08-30T13:46:27Z</time><name>PT12249</name></trkpt>
<trkpt lat="53.258323" lon="-1.816476"><ele>223</ele><time>2019-08-30T13:46:28Z</time><name>PT12250</name></trkpt>
<trkpt lat="53.258319" lon="-1.816476"><ele>222</ele><time>2019-08-30T13:46:29Z</time><name>PT12251</name></trkpt>
<trkpt lat="53.258312" lon="-1.816470"><ele>223</ele><time>2019-08-30T13:46:30Z</time><name>PT12252</name></trkpt>
<trkpt lat="53.258301" lon="-1.816467"><ele>222</ele><time>2019-08-30T13:46:31Z</time><name>PT12253</name></trkpt>
<trkpt lat="53.258293" lon="-1.816463"><ele>222</ele><time>2019-08-30T13:46:32Z</time><name>PT12254</name></trkpt>
<trkpt lat="53.258290" lon="-1.816464"><ele>221</ele><time>2019-08-30T13:46:33Z</time><name>PT12255</name></trkpt>
<trkpt lat="53.258289" lon="-1.816466"><ele>220</ele><time>2019-08-30T13:46:34Z</time><name>PT12256</name></trkpt>
<trkpt lat="53.258270" lon="-1.816476"><ele>218</ele><time>2019-08-30T13:46:35Z</time><name>PT12257</name></trkpt>
<trkpt lat="53.258261" lon="-1.816470"><ele>218</ele><time>2019-08-30T13:46:36Z</time><name>PT12258</name></trkpt>
<trkpt lat="53.258253" lon="-1.816470"><ele>217</ele><time>2019-08-30T13:46:37Z</time><name>PT12259</name></trkpt>
<trkpt lat="53.258245" lon="-1.816467"><ele>218</ele><time>2019-08-30T13:46:38Z</time><name>PT12260</name></trkpt>
<trkpt lat="53.258233" lon="-1.816467"><ele>218</ele><time>2019-08-30T13:46:39Z</time><name>PT12261</name></trkpt>
<trkpt lat="53.258224" lon="-1.816466"><ele>218</ele><time>2019-08-30T13:46:40Z</time><name>PT12262</name></trkpt>
<trkpt lat="53.258215" lon="-1.816470"><ele>217</ele><time>2019-08-30T13:46:41Z</time><name>PT12263</name></trkpt>
<trkpt lat="53.258204" lon="-1.816473"><ele>217</ele><time>2019-08-30T13:46:42Z</time><name>PT12264</name></trkpt>
<trkpt lat="53.258189" lon="-1.816483"><ele>217</ele><time>2019-08-30T13:46:43Z</time><name>PT12265</name></trkpt>
<trkpt lat="53.258183" lon="-1.816487"><ele>217</ele><time>2019-08-30T13:46:44Z</time><name>PT12266</name></trkpt>
<trkpt lat="53.258177" lon="-1.816480"><ele>218</ele><time>2019-08-30T13:46:45Z</time><name>PT12267</name></trkpt>
<trkpt lat="53.258170" lon="-1.816490"><ele>217</ele><time>2019-08-30T13:46:46Z</time><name>PT12268</name></trkpt>
<trkpt lat="53.258165" lon="-1.816491"><ele>218</ele><time>2019-08-30T13:46:47Z</time><name>PT12269</name></trkpt>
<trkpt lat="53.258159" lon="-1.816491"><ele>219</ele><time>2019-08-30T13:46:48Z</time><name>PT12270</name></trkpt>
<trkpt lat="53.258155" lon="-1.816495"><ele>220</ele><time>2019-08-30T13:46:49Z</time><name>PT12271</name></trkpt>
<trkpt lat="53.258137" lon="-1.816502"><ele>221</ele><time>2019-08-30T13:46:50Z</time><name>PT12272</name></trkpt>
<trkpt lat="53.258124" lon="-1.816508"><ele>221</ele><time>2019-08-30T13:46:51Z</time><name>PT12273</name></trkpt>
<trkpt lat="53.258123" lon="-1.816503"><ele>223</ele><time>2019-08-30T13:46:52Z</time><name>PT12274</name></trkpt>
<trkpt lat="53.258116" lon="-1.816504"><ele>223</ele><time>2019-08-30T13:46:53Z</time><name>PT12275</name></trkpt>
<trkpt lat="53.258107" lon="-1.816503"><ele>224</ele><time>2019-08-30T13:46:54Z</time><name>PT12276</name></trkpt>
<trkpt lat="53.258098" lon="-1.816500"><ele>226</ele><time>2019-08-30T13:46:55Z</time><name>PT12277</name></trkpt>
<trkpt lat="53.258088" lon="-1.816506"><ele>226</ele><time>2019-08-30T13:46:56Z</time><name>PT12278</name></trkpt>
<trkpt lat="53.258085" lon="-1.816505"><ele>227</ele><time>2019-08-30T13:46:57Z</time><name>PT12279</name></trkpt>
<trkpt lat="53.258082" lon="-1.816501"><ele>227</ele><time>2019-08-30T13:46:58Z</time><name>PT12280</name></trkpt>
<trkpt lat="53.258080" lon="-1.816507"><ele>229</ele><time>2019-08-30T13:46:59Z</time><name>PT12281</name></trkpt>
<trkpt lat="53.258077" lon="-1.816517"><ele>229</ele><time>2019-08-30T13:47:00Z</time><name>PT12282</name></trkpt>
<trkpt lat="53.258064" lon="-1.816525"><ele>228</ele><time>2019-08-30T13:47:01Z</time><name>PT12283</name></trkpt>
<trkpt lat="53.258057" lon="-1.816530"><ele>228</ele><time>2019-08-30T13:47:02Z</time><name>PT12284</name></trkpt>
<trkpt lat="53.258043" lon="-1.816552"><ele>229</ele><time>2019-08-30T13:47:03Z</time><name>PT12285</name></trkpt>
<trkpt lat="53.258033" lon="-1.816575"><ele>229</ele><time>2019-08-30T13:47:04Z</time><name>PT12286</name></trkpt>
<trkpt lat="53.258027" lon="-1.816572"><ele>231</ele><time>2019-08-30T13:47:05Z</time><name>PT12287</name></trkpt>
<trkpt lat="53.258033" lon="-1.816584"><ele>230</ele><time>2019-08-30T13:47:06Z</time><name>PT12288</name></trkpt>
<trkpt lat="53.258031" lon="-1.816590"><ele>230</ele><time>2019-08-30T13:47:07Z</time><name>PT12289</name></trkpt>
<trkpt lat="53.258038" lon="-1.816615"><ele>228</ele><time>2019-08-30T13:47:08Z</time><name>PT12290</name></trkpt>
<trkpt lat="53.258037" lon="-1.816622"><ele>228</ele><time>2019-08-30T13:47:09Z</time><name>PT12291</name></trkpt>
<trkpt lat="53.258032" lon="-1.816625"><ele>229</ele><time>2019-08-30T13:47:10Z</time><name>PT12292</name></trkpt>
<trkpt lat="53.258025" lon="-1.816629"><ele>230</ele><time>2019-08-30T13:47:11Z</time><name>PT12293</name></trkpt>
<trkpt lat="53.258022" lon="-1.816632"><ele>230</ele><time>2019-08-30T13:47:12Z</time><name>PT12294</name></trkpt>
<trkpt lat="53.258017" lon="-1.816643"><ele>229</ele><time>2019-08-30T13:47:13Z</time><name>PT12295</name></trkpt>
<trkpt lat="53.258021" lon="-1.816637"><ele>231</ele><time>2019-08-30T13:47:14Z</time><name>PT12296</name></trkpt>
<trkpt lat="53.258015" lon="-1.816641"><ele>232</ele><time>2019-08-30T13:47:15Z</time><name>PT12297</name></trkpt>
<trkpt lat="53.258011" lon="-1.816644"><ele>232</ele><time>2019-08-30T13:47:16Z</time><name>PT12298</name></trkpt>
<trkpt lat="53.258008" lon="-1.816655"><ele>232</ele><time>2019-08-30T13:47:17Z</time><name>PT12299</name></trkpt>
<trkpt lat="53.258010" lon="-1.816664"><ele>232</ele><time>2019-08-30T13:47:18Z</time><name>PT12300</name></trkpt>
<trkpt lat="53.258011" lon="-1.816678"><ele>232</ele><time>2019-08-30T13:47:19Z</time><name>PT12301</name></trkpt>
<trkpt lat="53.258005" lon="-1.816692"><ele>234</ele><time>2019-08-30T13:47:20Z</time><name>PT12302</name></trkpt>
<trkpt lat="53.258000" lon="-1.816700"><ele>234</ele><time>2019-08-30T13:47:21Z</time><name>PT12303</name></trkpt>
<trkpt lat="53.257992" lon="-1.816705"><ele>234</ele><time>2019-08-30T13:47:22Z</time><name>PT12304</name></trkpt>
<trkpt lat="53.257989" lon="-1.816708"><ele>234</ele><time>2019-08-30T13:47:23Z</time><name>PT12305</name></trkpt>
<trkpt lat="53.257979" lon="-1.816717"><ele>234</ele><time>2019-08-30T13:47:24Z</time><name>PT12306</name></trkpt>
<trkpt lat="53.257975" lon="-1.816723"><ele>234</ele><time>2019-08-30T13:47:25Z</time><name>PT12307</name></trkpt>
<trkpt lat="53.257966" lon="-1.816732"><ele>234</ele><time>2019-08-30T13:47:26Z</time><name>PT12308</name></trkpt>
<trkpt lat="53.257951" lon="-1.816746"><ele>234</ele><time>2019-08-30T13:47:27Z</time><name>PT12309</name></trkpt>
<trkpt lat="53.257941" lon="-1.816759"><ele>232</ele><time>2019-08-30T13:47:28Z</time><name>PT12310</name></trkpt>
<trkpt lat="53.257940" lon="-1.816776"><ele>230</ele><time>2019-08-30T13:47:29Z</time><name>PT12311</name></trkpt>
<trkpt lat="53.257939" lon="-1.816797"><ele>227</ele><time>2019-08-30T13:47:30Z</time><name>PT12312</name></trkpt>
<trkpt lat="53.257938" lon="-1.816801"><ele>227</ele><time>2019-08-30T13:47:31Z</time><name>PT12313</name></trkpt>
<trkpt lat="53.257934" lon="-1.816804"><ele>228</ele><time>2019-08-30T13:47:32Z</time><name>PT12314</name></trkpt>
<trkpt lat="53.257928" lon="-1.816803"><ele>228</ele><time>2019-08-30T13:47:33Z</time><name>PT12315</name></trkpt>
<trkpt lat="53.257919" lon="-1.816801"><ele>228</ele><time>2019-08-30T13:47:34Z</time><name>PT12316</name></trkpt>
<trkpt lat="53.257912" lon="-1.816806"><ele>228</ele><time>2019-08-30T13:47:35Z</time><name>PT12317</name></trkpt>
<trkpt lat="53.257908" lon="-1.816813"><ele>228</ele><time>2019-08-30T13:47:36Z</time><name>PT12318</name></trkpt>
<trkpt lat="53.257896" lon="-1.816806"><ele>228</ele><time>2019-08-30T13:47:37Z</time><name>PT12319</name></trkpt>
<trkpt lat="53.257887" lon="-1.816801"><ele>228</ele><time>2019-08-30T13:47:38Z</time><name>PT12320</name></trkpt>
<trkpt lat="53.257884" lon="-1.816792"><ele>229</ele><time>2019-08-30T13:47:39Z</time><name>PT12321</name></trkpt>
<trkpt lat="53.257881" lon="-1.816790"><ele>228</ele><time>2019-08-30T13:47:40Z</time><name>PT12322</name></trkpt>
<trkpt lat="53.257878" lon="-1.816794"><ele>227</ele><time>2019-08-30T13:47:41Z</time><name>PT12323</name></trkpt>
<trkpt lat="53.257871" lon="-1.816778"><ele>227</ele><time>2019-08-30T13:47:42Z</time><name>PT12324</name></trkpt>
<trkpt lat="53.257872" lon="-1.816773"><ele>226</ele><time>2019-08-30T13:47:43Z</time><name>PT12325</name></trkpt>
<trkpt lat="53.257863" lon="-1.816731"><ele>227</ele><time>2019-08-30T13:47:44Z</time><name>PT12326</name></trkpt>
<trkpt lat="53.257856" lon="-1.816727"><ele>227</ele><time>2019-08-30T13:47:45Z</time><name>PT12327</name></trkpt>
<trkpt lat="53.257847" lon="-1.816721"><ele>228</ele><time>2019-08-30T13:47:46Z</time><name>PT12328</name></trkpt>
<trkpt lat="53.257844" lon="-1.816713"><ele>229</ele><time>2019-08-30T13:48:48Z</time><name>PT12329</name></trkpt>
<trkpt lat="53.257853" lon="-1.816711"><ele>228</ele><time>2019-08-30T13:48:49Z</time><name>PT12330</name></trkpt>
<trkpt lat="53.257859" lon="-1.816700"><ele>228</ele><time>2019-08-30T13:48:50Z</time><name>PT12331</name></trkpt>
<trkpt lat="53.257869" lon="-1.816680"><ele>228</ele><time>2019-08-30T13:48:51Z</time><name>PT12332</name></trkpt>
<trkpt lat="53.257871" lon="-1.816669"><ele>227</ele><time>2019-08-30T13:48:52Z</time><name>PT12333</name></trkpt>
<trkpt lat="53.257852" lon="-1.816745"><ele>227</ele><time>2019-08-30T13:49:04Z</time><name>PT12334</name></trkpt>
<trkpt lat="53.257894" lon="-1.816732"><ele>227</ele><time>2019-08-30T13:49:05Z</time><name>PT12335</name></trkpt>
<trkpt lat="53.257899" lon="-1.816737"><ele>227</ele><time>2019-08-30T13:49:06Z</time><name>PT12336</name></trkpt>
<trkpt lat="53.257898" lon="-1.816743"><ele>227</ele><time>2019-08-30T13:49:07Z</time><name>PT12337</name></trkpt>
<trkpt lat="53.257900" lon="-1.816749"><ele>227</ele><time>2019-08-30T13:49:08Z</time><name>PT12338</name></trkpt>
<trkpt lat="53.257902" lon="-1.816766"><ele>227</ele><time>2019-08-30T13:49:09Z</time><name>PT12339</name></trkpt>
<trkpt lat="53.257909" lon="-1.816784"><ele>228</ele><time>2019-08-30T13:49:10Z</time><name>PT12340</name></trkpt>
<trkpt lat="53.257913" lon="-1.816792"><ele>228</ele><time>2019-08-30T13:49:11Z</time><name>PT12341</name></trkpt>
<trkpt lat="53.257906" lon="-1.816810"><ele>228</ele><time>2019-08-30T13:49:15Z</time><name>PT12342</name></trkpt>
<trkpt lat="53.257898" lon="-1.816811"><ele>228</ele><time>2019-08-30T13:49:16Z</time><name>PT12343</name></trkpt>
<trkpt lat="53.257892" lon="-1.816806"><ele>228</ele><time>2019-08-30T13:49:17Z</time><name>PT12344</name></trkpt>
<trkpt lat="53.257888" lon="-1.816804"><ele>228</ele><time>2019-08-30T13:49:18Z</time><name>PT12345</name></trkpt>
<trkpt lat="53.257885" lon="-1.816803"><ele>228</ele><time>2019-08-30T13:49:19Z</time><name>PT12346</name></trkpt>
<trkpt lat="53.257885" lon="-1.816806"><ele>228</ele><time>2019-08-30T13:49:24Z</time><name>PT12347</name></trkpt>
<trkpt lat="53.257886" lon="-1.816801"><ele>228</ele><time>2019-08-30T13:49:25Z</time><name>PT12348</name></trkpt>
<trkpt lat="53.257885" lon="-1.816800"><ele>228</ele><time>2019-08-30T13:49:26Z</time><name>PT12349</name></trkpt>
<trkpt lat="53.257884" lon="-1.816802"><ele>228</ele><time>2019-08-30T13:49:27Z</time><name>PT12350</name></trkpt>
<trkpt lat="53.257883" lon="-1.816801"><ele>229</ele><time>2019-08-30T13:49:28Z</time><name>PT12351</name></trkpt>
<trkpt lat="53.257882" lon="-1.816798"><ele>228</ele><time>2019-08-30T13:49:29Z</time><name>PT12352</name></trkpt>
<trkpt lat="53.257885" lon="-1.816793"><ele>228</ele><time>2019-08-30T13:49:30Z</time><name>PT12353</name></trkpt>
<trkpt lat="53.257883" lon="-1.816786"><ele>228</ele><time>2019-08-30T13:49:31Z</time><name>PT12354</name></trkpt>
<trkpt lat="53.257882" lon="-1.816777"><ele>228</ele><time>2019-08-30T13:49:32Z</time><name>PT12355</name></trkpt>
<trkpt lat="53.257885" lon="-1.816775"><ele>227</ele><time>2019-08-30T13:49:33Z</time><name>PT12356</name></trkpt>
<trkpt lat="53.257885" lon="-1.816769"><ele>227</ele><time>2019-08-30T13:49:34Z</time><name>PT12357</name></trkpt>
<trkpt lat="53.257892" lon="-1.816767"><ele>227</ele><time>2019-08-30T13:49:35Z</time><name>PT12358</name></trkpt>
<trkpt lat="53.257898" lon="-1.816766"><ele>227</ele><time>2019-08-30T13:49:36Z</time><name>PT12359</name></trkpt>
<trkpt lat="53.257905" lon="-1.816768"><ele>226</ele><time>2019-08-30T13:49:37Z</time><name>PT12360</name></trkpt>
<trkpt lat="53.257916" lon="-1.816780"><ele>224</ele><time>2019-08-30T13:49:38Z</time><name>PT12361</name></trkpt>
<trkpt lat="53.257923" lon="-1.816772"><ele>224</ele><time>2019-08-30T13:49:39Z</time><name>PT12362</name></trkpt>
<trkpt lat="53.257925" lon="-1.816764"><ele>224</ele><time>2019-08-30T13:49:40Z</time><name>PT12363</name></trkpt>
<trkpt lat="53.257924" lon="-1.816766"><ele>223</ele><time>2019-08-30T13:49:41Z</time><name>PT12364</name></trkpt>
<trkpt lat="53.257914" lon="-1.816750"><ele>224</ele><time>2019-08-30T13:49:42Z</time><name>PT12365</name></trkpt>
<trkpt lat="53.257911" lon="-1.816750"><ele>223</ele><time>2019-08-30T13:49:43Z</time><name>PT12366</name></trkpt>
<trkpt lat="53.257910" lon="-1.816755"><ele>223</ele><time>2019-08-30T13:49:44Z</time><name>PT12367</name></trkpt>
<trkpt lat="53.257921" lon="-1.816773"><ele>222</ele><time>2019-08-30T13:49:45Z</time><name>PT12368</name></trkpt>
<trkpt lat="53.257919" lon="-1.816783"><ele>223</ele><time>2019-08-30T13:49:46Z</time><name>PT12369</name></trkpt>
<trkpt lat="53.257915" lon="-1.816790"><ele>223</ele><time>2019-08-30T13:49:47Z</time><name>PT12370</name></trkpt>
<trkpt lat="53.257911" lon="-1.816785"><ele>224</ele><time>2019-08-30T13:49:48Z</time><name>PT12371</name></trkpt>
<trkpt lat="53.257903" lon="-1.816784"><ele>223</ele><time>2019-08-30T13:49:49Z</time><name>PT12372</name></trkpt>
<trkpt lat="53.257895" lon="-1.816788"><ele>223</ele><time>2019-08-30T13:49:50Z</time><name>PT12373</name></trkpt>
<trkpt lat="53.257885" lon="-1.816777"><ele>223</ele><time>2019-08-30T13:49:51Z</time><name>PT12374</name></trkpt>
<trkpt lat="53.257875" lon="-1.816778"><ele>224</ele><time>2019-08-30T13:49:52Z</time><name>PT12375</name></trkpt>
<trkpt lat="53.257875" lon="-1.816796"><ele>225</ele><time>2019-08-30T13:49:53Z</time><name>PT12376</name></trkpt>
<trkpt lat="53.257877" lon="-1.816796"><ele>225</ele><time>2019-08-30T13:49:54Z</time><name>PT12377</name></trkpt>
<trkpt lat="53.257874" lon="-1.816796"><ele>225</ele><time>2019-08-30T13:49:55Z</time><name>PT12378</name></trkpt>
<trkpt lat="53.257871" lon="-1.816787"><ele>225</ele><time>2019-08-30T13:49:56Z</time><name>PT12379</name></trkpt>
<trkpt lat="53.257864" lon="-1.816778"><ele>224</ele><time>2019-08-30T13:49:57Z</time><name>PT12380</name></trkpt>
<trkpt lat="53.257862" lon="-1.816785"><ele>224</ele><time>2019-08-30T13:49:58Z</time><name>PT12381</name></trkpt>
<trkpt lat="53.257852" lon="-1.816791"><ele>225</ele><time>2019-08-30T13:49:59Z</time><name>PT12382</name></trkpt>
<trkpt lat="53.257842" lon="-1.816791"><ele>225</ele><time>2019-08-30T13:50:00Z</time><name>PT12383</name></trkpt>
<trkpt lat="53.257834" lon="-1.816794"><ele>225</ele><time>2019-08-30T13:50:01Z</time><name>PT12384</name></trkpt>
<trkpt lat="53.257824" lon="-1.816799"><ele>224</ele><time>2019-08-30T13:50:02Z</time><name>PT12385</name></trkpt>
<trkpt lat="53.257813" lon="-1.816803"><ele>225</ele><time>2019-08-30T13:50:03Z</time><name>PT12386</name></trkpt>
<trkpt lat="53.257812" lon="-1.816822"><ele>225</ele><time>2019-08-30T13:50:04Z</time><name>PT12387</name></trkpt>
<trkpt lat="53.257808" lon="-1.816828"><ele>224</ele><time>2019-08-30T13:50:05Z</time><name>PT12388</name></trkpt>
<trkpt lat="53.257800" lon="-1.816833"><ele>225</ele><time>2019-08-30T13:50:06Z</time><name>PT12389</name></trkpt>
<trkpt lat="53.257791" lon="-1.816842"><ele>226</ele><time>2019-08-30T13:50:07Z</time><name>PT12390</name></trkpt>
<trkpt lat="53.257791" lon="-1.816857"><ele>226</ele><time>2019-08-30T13:50:08Z</time><name>PT12391</name></trkpt>
<trkpt lat="53.257793" lon="-1.816869"><ele>226</ele><time>2019-08-30T13:50:09Z</time><name>PT12392</name></trkpt>
<trkpt lat="53.257783" lon="-1.816872"><ele>227</ele><time>2019-08-30T13:50:10Z</time><name>PT12393</name></trkpt>
<trkpt lat="53.257780" lon="-1.816874"><ele>228</ele><time>2019-08-30T13:50:11Z</time><name>PT12394</name></trkpt>
<trkpt lat="53.257773" lon="-1.816878"><ele>229</ele><time>2019-08-30T13:50:12Z</time><name>PT12395</name></trkpt>
<trkpt lat="53.257772" lon="-1.816892"><ele>227</ele><time>2019-08-30T13:50:13Z</time><name>PT12396</name></trkpt>
<trkpt lat="53.257762" lon="-1.816939"><ele>219</ele><time>2019-08-30T13:50:14Z</time><name>PT12397</name></trkpt>
<trkpt lat="53.257756" lon="-1.816935"><ele>218</ele><time>2019-08-30T13:50:15Z</time><name>PT12398</name></trkpt>
<trkpt lat="53.257757" lon="-1.816936"><ele>218</ele><time>2019-08-30T13:50:16Z</time><name>PT12399</name></trkpt>
<trkpt lat="53.257754" lon="-1.816930"><ele>218</ele><time>2019-08-30T13:50:17Z</time><name>PT12400</name></trkpt>
<trkpt lat="53.257754" lon="-1.816925"><ele>218</ele><time>2019-08-30T13:50:18Z</time><name>PT12401</name></trkpt>
<trkpt lat="53.257753" lon="-1.816917"><ele>218</ele><time>2019-08-30T13:50:19Z</time><name>PT12402</name></trkpt>
<trkpt lat="53.257730" lon="-1.816937"><ele>216</ele><time>2019-08-30T13:50:26Z</time><name>PT12403</name></trkpt>
<trkpt lat="53.257702" lon="-1.816991"><ele>217</ele><time>2019-08-30T13:50:27Z</time><name>PT12404</name></trkpt>
<trkpt lat="53.257710" lon="-1.817013"><ele>218</ele><time>2019-08-30T13:50:28Z</time><name>PT12405</name></trkpt>
<trkpt lat="53.257701" lon="-1.817019"><ele>219</ele><time>2019-08-30T13:50:29Z</time><name>PT12406</name></trkpt>
<trkpt lat="53.257689" lon="-1.817030"><ele>220</ele><time>2019-08-30T13:50:30Z</time><name>PT12407</name></trkpt>
<trkpt lat="53.257674" lon="-1.817032"><ele>219</ele><time>2019-08-30T13:50:31Z</time><name>PT12408</name></trkpt>
<trkpt lat="53.257669" lon="-1.817031"><ele>218</ele><time>2019-08-30T13:50:32Z</time><name>PT12409</name></trkpt>
<trkpt lat="53.257659" lon="-1.817026"><ele>219</ele><time>2019-08-30T13:50:33Z</time><name>PT12410</name></trkpt>
<trkpt lat="53.257659" lon="-1.817037"><ele>217</ele><time>2019-08-30T13:50:34Z</time><name>PT12411</name></trkpt>
<trkpt lat="53.257651" lon="-1.817038"><ele>218</ele><time>2019-08-30T13:50:35Z</time><name>PT12412</name></trkpt>
<trkpt lat="53.257643" lon="-1.817037"><ele>218</ele><time>2019-08-30T13:50:36Z</time><name>PT12413</name></trkpt>
<trkpt lat="53.257639" lon="-1.817039"><ele>219</ele><time>2019-08-30T13:50:37Z</time><name>PT12414</name></trkpt>
<trkpt lat="53.257639" lon="-1.817046"><ele>218</ele><time>2019-08-30T13:50:38Z</time><name>PT12415</name></trkpt>
<trkpt lat="53.257641" lon="-1.817052"><ele>218</ele><time>2019-08-30T13:50:39Z</time><name>PT12416</name></trkpt>
<trkpt lat="53.257640" lon="-1.817054"><ele>218</ele><time>2019-08-30T13:50:40Z</time><name>PT12417</name></trkpt>
<trkpt lat="53.257637" lon="-1.817057"><ele>218</ele><time>2019-08-30T13:50:41Z</time><name>PT12418</name></trkpt>
<trkpt lat="53.257632" lon="-1.817057"><ele>220</ele><time>2019-08-30T13:50:42Z</time><name>PT12419</name></trkpt>
<trkpt lat="53.257625" lon="-1.817057"><ele>221</ele><time>2019-08-30T13:50:43Z</time><name>PT12420</name></trkpt>
<trkpt lat="53.257620" lon="-1.817054"><ele>222</ele><time>2019-08-30T13:50:44Z</time><name>PT12421</name></trkpt>
<trkpt lat="53.257613" lon="-1.817049"><ele>222</ele><time>2019-08-30T13:50:45Z</time><name>PT12422</name></trkpt>
<trkpt lat="53.257610" lon="-1.817053"><ele>222</ele><time>2019-08-30T13:50:46Z</time><name>PT12423</name></trkpt>
<trkpt lat="53.257604" lon="-1.817051"><ele>222</ele><time>2019-08-30T13:50:47Z</time><name>PT12424</name></trkpt>
<trkpt lat="53.257597" lon="-1.817050"><ele>223</ele><time>2019-08-30T13:50:48Z</time><name>PT12425</name></trkpt>
<trkpt lat="53.257594" lon="-1.817063"><ele>223</ele><time>2019-08-30T13:50:49Z</time><name>PT12426</name></trkpt>
<trkpt lat="53.257587" lon="-1.817061"><ele>223</ele><time>2019-08-30T13:50:50Z</time><name>PT12427</name></trkpt>
<trkpt lat="53.257582" lon="-1.817060"><ele>223</ele><time>2019-08-30T13:50:51Z</time><name>PT12428</name></trkpt>
<trkpt lat="53.257583" lon="-1.817071"><ele>221</ele><time>2019-08-30T13:50:52Z</time><name>PT12429</name></trkpt>
<trkpt lat="53.257582" lon="-1.817064"><ele>222</ele><time>2019-08-30T13:50:53Z</time><name>PT12430</name></trkpt>
<trkpt lat="53.257580" lon="-1.817061"><ele>221</ele><time>2019-08-30T13:50:54Z</time><name>PT12431</name></trkpt>
<trkpt lat="53.257580" lon="-1.817049"><ele>222</ele><time>2019-08-30T13:50:55Z</time><name>PT12432</name></trkpt>
<trkpt lat="53.257582" lon="-1.817052"><ele>222</ele><time>2019-08-30T13:50:56Z</time><name>PT12433</name></trkpt>
<trkpt lat="53.257585" lon="-1.817043"><ele>223</ele><time>2019-08-30T13:50:57Z</time><name>PT12434</name></trkpt>
<trkpt lat="53.257587" lon="-1.817026"><ele>222</ele><time>2019-08-30T13:50:58Z</time><name>PT12435</name></trkpt>
<trkpt lat="53.257582" lon="-1.817011"><ele>222</ele><time>2019-08-30T13:50:59Z</time><name>PT12436</name></trkpt>
<trkpt lat="53.257577" lon="-1.817000"><ele>222</ele><time>2019-08-30T13:51:00Z</time><name>PT12437</name></trkpt>
<trkpt lat="53.257574" lon="-1.816992"><ele>223</ele><time>2019-08-30T13:51:01Z</time><name>PT12438</name></trkpt>
<trkpt lat="53.257571" lon="-1.816989"><ele>222</ele><time>2019-08-30T13:51:02Z</time><name>PT12439</name></trkpt>
<trkpt lat="53.257555" lon="-1.817008"><ele>222</ele><time>2019-08-30T13:51:08Z</time><name>PT12440</name></trkpt>
<trkpt lat="53.257548" lon="-1.817011"><ele>222</ele><time>2019-08-30T13:51:09Z</time><name>PT12441</name></trkpt>
<trkpt lat="53.257542" lon="-1.817018"><ele>222</ele><time>2019-08-30T13:51:10Z</time><name>PT12442</name></trkpt>
<trkpt lat="53.257535" lon="-1.817031"><ele>222</ele><time>2019-08-30T13:51:15Z</time><name>PT12443</name></trkpt>
<trkpt lat="53.257533" lon="-1.817040"><ele>221</ele><time>2019-08-30T13:51:16Z</time><name>PT12444</name></trkpt>
<trkpt lat="53.257534" lon="-1.817062"><ele>220</ele><time>2019-08-30T13:51:17Z</time><name>PT12445</name></trkpt>
<trkpt lat="53.257532" lon="-1.817072"><ele>221</ele><time>2019-08-30T13:51:18Z</time><name>PT12446</name></trkpt>
<trkpt lat="53.257528" lon="-1.817068"><ele>220</ele><time>2019-08-30T13:51:19Z</time><name>PT12447</name></trkpt>
<trkpt lat="53.257524" lon="-1.817062"><ele>220</ele><time>2019-08-30T13:51:20Z</time><name>PT12448</name></trkpt>
<trkpt lat="53.257521" lon="-1.817059"><ele>220</ele><time>2019-08-30T13:51:21Z</time><name>PT12449</name></trkpt>
<trkpt lat="53.257520" lon="-1.817074"><ele>219</ele><time>2019-08-30T13:51:22Z</time><name>PT12450</name></trkpt>
<trkpt lat="53.257518" lon="-1.817083"><ele>219</ele><time>2019-08-30T13:51:23Z</time><name>PT12451</name></trkpt>
<trkpt lat="53.257516" lon="-1.817088"><ele>219</ele><time>2019-08-30T13:51:24Z</time><name>PT12452</name></trkpt>
<trkpt lat="53.257511" lon="-1.817081"><ele>219</ele><time>2019-08-30T13:51:25Z</time><name>PT12453</name></trkpt>
<trkpt lat="53.257508" lon="-1.817076"><ele>219</ele><time>2019-08-30T13:51:26Z</time><name>PT12454</name></trkpt>
<trkpt lat="53.257502" lon="-1.817077"><ele>218</ele><time>2019-08-30T13:51:27Z</time><name>PT12455</name></trkpt>
<trkpt lat="53.257499" lon="-1.817078"><ele>218</ele><time>2019-08-30T13:51:28Z</time><name>PT12456</name></trkpt>
<trkpt lat="53.257490" lon="-1.817072"><ele>218</ele><time>2019-08-30T13:51:29Z</time><name>PT12457</name></trkpt>
<trkpt lat="53.257482" lon="-1.817077"><ele>218</ele><time>2019-08-30T13:51:30Z</time><name>PT12458</name></trkpt>
<trkpt lat="53.257472" lon="-1.817084"><ele>218</ele><time>2019-08-30T13:51:31Z</time><name>PT12459</name></trkpt>
<trkpt lat="53.257460" lon="-1.817085"><ele>219</ele><time>2019-08-30T13:51:32Z</time><name>PT12460</name></trkpt>
<trkpt lat="53.257449" lon="-1.817087"><ele>219</ele><time>2019-08-30T13:51:33Z</time><name>PT12461</name></trkpt>
<trkpt lat="53.257435" lon="-1.817080"><ele>221</ele><time>2019-08-30T13:51:34Z</time><name>PT12462</name></trkpt>
<trkpt lat="53.257431" lon="-1.817085"><ele>222</ele><time>2019-08-30T13:51:35Z</time><name>PT12463</name></trkpt>
<trkpt lat="53.257427" lon="-1.817093"><ele>223</ele><time>2019-08-30T13:51:36Z</time><name>PT12464</name></trkpt>
<trkpt lat="53.257421" lon="-1.817105"><ele>222</ele><time>2019-08-30T13:51:37Z</time><name>PT12465</name></trkpt>
<trkpt lat="53.257412" lon="-1.817113"><ele>221</ele><time>2019-08-30T13:51:38Z</time><name>PT12466</name></trkpt>
<trkpt lat="53.257405" lon="-1.817128"><ele>219</ele><time>2019-08-30T13:51:39Z</time><name>PT12467</name></trkpt>
<trkpt lat="53.257408" lon="-1.817147"><ele>218</ele><time>2019-08-30T13:51:40Z</time><name>PT12468</name></trkpt>
<trkpt lat="53.257398" lon="-1.817149"><ele>218</ele><time>2019-08-30T13:51:41Z</time><name>PT12469</name></trkpt>
<trkpt lat="53.257394" lon="-1.817171"><ele>216</ele><time>2019-08-30T13:51:42Z</time><name>PT12470</name></trkpt>
<trkpt lat="53.257382" lon="-1.817169"><ele>216</ele><time>2019-08-30T13:51:43Z</time><name>PT12471</name></trkpt>
<trkpt lat="53.257370" lon="-1.817173"><ele>216</ele><time>2019-08-30T13:51:44Z</time><name>PT12472</name></trkpt>
<trkpt lat="53.257359" lon="-1.817176"><ele>216</ele><time>2019-08-30T13:51:45Z</time><name>PT12473</name></trkpt>
<trkpt lat="53.257334" lon="-1.817186"><ele>221</ele><time>2019-08-30T13:51:46Z</time><name>PT12474</name></trkpt>
<trkpt lat="53.257328" lon="-1.817187"><ele>222</ele><time>2019-08-30T13:51:47Z</time><name>PT12475</name></trkpt>
<trkpt lat="53.257326" lon="-1.817191"><ele>222</ele><time>2019-08-30T13:51:48Z</time><name>PT12476</name></trkpt>
<trkpt lat="53.257324" lon="-1.817196"><ele>223</ele><time>2019-08-30T13:51:49Z</time><name>PT12477</name></trkpt>
<trkpt lat="53.257321" lon="-1.817211"><ele>223</ele><time>2019-08-30T13:51:50Z</time><name>PT12478</name></trkpt>
<trkpt lat="53.257316" lon="-1.817224"><ele>222</ele><time>2019-08-30T13:51:51Z</time><name>PT12479</name></trkpt>
<trkpt lat="53.257310" lon="-1.817217"><ele>221</ele><time>2019-08-30T13:51:52Z</time><name>PT12480</name></trkpt>
<trkpt lat="53.257307" lon="-1.817233"><ele>218</ele><time>2019-08-30T13:51:53Z</time><name>PT12481</name></trkpt>
<trkpt lat="53.257303" lon="-1.817249"><ele>217</ele><time>2019-08-30T13:51:54Z</time><name>PT12482</name></trkpt>
<trkpt lat="53.257304" lon="-1.817267"><ele>217</ele><time>2019-08-30T13:51:55Z</time><name>PT12483</name></trkpt>
<trkpt lat="53.257290" lon="-1.817266"><ele>219</ele><time>2019-08-30T13:51:56Z</time><name>PT12484</name></trkpt>
<trkpt lat="53.257286" lon="-1.817282"><ele>218</ele><time>2019-08-30T13:51:57Z</time><name>PT12485</name></trkpt>
<trkpt lat="53.257285" lon="-1.817297"><ele>218</ele><time>2019-08-30T13:51:58Z</time><name>PT12486</name></trkpt>
<trkpt lat="53.257275" lon="-1.817296"><ele>219</ele><time>2019-08-30T13:51:59Z</time><name>PT12487</name></trkpt>
<trkpt lat="53.257270" lon="-1.817295"><ele>219</ele><time>2019-08-30T13:52:00Z</time><name>PT12488</name></trkpt>
<trkpt lat="53.257266" lon="-1.817305"><ele>219</ele><time>2019-08-30T13:52:01Z</time><name>PT12489</name></trkpt>
<trkpt lat="53.257262" lon="-1.817299"><ele>219</ele><time>2019-08-30T13:52:02Z</time><name>PT12490</name></trkpt>
<trkpt lat="53.257254" lon="-1.817298"><ele>219</ele><time>2019-08-30T13:52:03Z</time><name>PT12491</name></trkpt>
<trkpt lat="53.257246" lon="-1.817314"><ele>218</ele><time>2019-08-30T13:52:04Z</time><name>PT12492</name></trkpt>
<trkpt lat="53.257242" lon="-1.817330"><ele>218</ele><time>2019-08-30T13:52:05Z</time><name>PT12493</name></trkpt>
<trkpt lat="53.257238" lon="-1.817336"><ele>215</ele><time>2019-08-30T13:52:06Z</time><name>PT12494</name></trkpt>
<trkpt lat="53.257238" lon="-1.817350"><ele>214</ele><time>2019-08-30T13:52:07Z</time><name>PT12495</name></trkpt>
<trkpt lat="53.257227" lon="-1.817351"><ele>215</ele><time>2019-08-30T13:52:08Z</time><name>PT12496</name></trkpt>
<trkpt lat="53.257216" lon="-1.817349"><ele>216</ele><time>2019-08-30T13:52:09Z</time><name>PT12497</name></trkpt>
<trkpt lat="53.257209" lon="-1.817350"><ele>215</ele><time>2019-08-30T13:52:10Z</time><name>PT12498</name></trkpt>
<trkpt lat="53.257199" lon="-1.817354"><ele>214</ele><time>2019-08-30T13:52:11Z</time><name>PT12499</name></trkpt>
<trkpt lat="53.257191" lon="-1.817356"><ele>214</ele><time>2019-08-30T13:52:12Z</time><name>PT12500</name></trkpt>
<trkpt lat="53.257188" lon="-1.817361"><ele>214</ele><time>2019-08-30T13:52:13Z</time><name>PT12501</name></trkpt>
<trkpt lat="53.257185" lon="-1.817363"><ele>213</ele><time>2019-08-30T13:52:14Z</time><name>PT12502</name></trkpt>
<trkpt lat="53.257186" lon="-1.817372"><ele>213</ele><time>2019-08-30T13:52:15Z</time><name>PT12503</name></trkpt>
<trkpt lat="53.257179" lon="-1.817373"><ele>214</ele><time>2019-08-30T13:52:16Z</time><name>PT12504</name></trkpt>
<trkpt lat="53.257172" lon="-1.817368"><ele>214</ele><time>2019-08-30T13:52:17Z</time><name>PT12505</name></trkpt>
<trkpt lat="53.257166" lon="-1.817369"><ele>215</ele><time>2019-08-30T13:52:18Z</time><name>PT12506</name></trkpt>
<trkpt lat="53.257162" lon="-1.817370"><ele>215</ele><time>2019-08-30T13:52:19Z</time><name>PT12507</name></trkpt>
<trkpt lat="53.257158" lon="-1.817373"><ele>215</ele><time>2019-08-30T13:52:20Z</time><name>PT12508</name></trkpt>
<trkpt lat="53.257151" lon="-1.817377"><ele>215</ele><time>2019-08-30T13:52:21Z</time><name>PT12509</name></trkpt>
<trkpt lat="53.257142" lon="-1.817380"><ele>214</ele><time>2019-08-30T13:52:22Z</time><name>PT12510</name></trkpt>
<trkpt lat="53.257133" lon="-1.817381"><ele>214</ele><time>2019-08-30T13:52:23Z</time><name>PT12511</name></trkpt>
<trkpt lat="53.257114" lon="-1.817374"><ele>214</ele><time>2019-08-30T13:52:24Z</time><name>PT12512</name></trkpt>
<trkpt lat="53.257098" lon="-1.817367"><ele>214</ele><time>2019-08-30T13:52:25Z</time><name>PT12513</name></trkpt>
<trkpt lat="53.257085" lon="-1.817364"><ele>215</ele><time>2019-08-30T13:52:26Z</time><name>PT12514</name></trkpt>
<trkpt lat="53.257076" lon="-1.817364"><ele>216</ele><time>2019-08-30T13:52:27Z</time><name>PT12515</name></trkpt>
<trkpt lat="53.257063" lon="-1.817365"><ele>217</ele><time>2019-08-30T13:52:28Z</time><name>PT12516</name></trkpt>
<trkpt lat="53.257055" lon="-1.817376"><ele>217</ele><time>2019-08-30T13:52:29Z</time><name>PT12517</name></trkpt>
<trkpt lat="53.257044" lon="-1.817389"><ele>218</ele><time>2019-08-30T13:52:30Z</time><name>PT12518</name></trkpt>
<trkpt lat="53.257035" lon="-1.817398"><ele>218</ele><time>2019-08-30T13:52:31Z</time><name>PT12519</name></trkpt>
<trkpt lat="53.257026" lon="-1.817406"><ele>219</ele><time>2019-08-30T13:52:32Z</time><name>PT12520</name></trkpt>
<trkpt lat="53.257014" lon="-1.817409"><ele>220</ele><time>2019-08-30T13:52:33Z</time><name>PT12521</name></trkpt>
<trkpt lat="53.257007" lon="-1.817415"><ele>220</ele><time>2019-08-30T13:52:34Z</time><name>PT12522</name></trkpt>
<trkpt lat="53.257003" lon="-1.817415"><ele>219</ele><time>2019-08-30T13:52:35Z</time><name>PT12523</name></trkpt>
<trkpt lat="53.256995" lon="-1.817419"><ele>220</ele><time>2019-08-30T13:52:36Z</time><name>PT12524</name></trkpt>
<trkpt lat="53.256980" lon="-1.817416"><ele>221</ele><time>2019-08-30T13:52:37Z</time><name>PT12525</name></trkpt>
<trkpt lat="53.256974" lon="-1.817420"><ele>221</ele><time>2019-08-30T13:52:38Z</time><name>PT12526</name></trkpt>
<trkpt lat="53.256963" lon="-1.817411"><ele>221</ele><time>2019-08-30T13:52:39Z</time><name>PT12527</name></trkpt>
<trkpt lat="53.256953" lon="-1.817400"><ele>221</ele><time>2019-08-30T13:52:40Z</time><name>PT12528</name></trkpt>
<trkpt lat="53.256949" lon="-1.817404"><ele>222</ele><time>2019-08-30T13:52:41Z</time><name>PT12529</name></trkpt>
<trkpt lat="53.256940" lon="-1.817402"><ele>223</ele><time>2019-08-30T13:52:42Z</time><name>PT12530</name></trkpt>
<trkpt lat="53.256932" lon="-1.817400"><ele>224</ele><time>2019-08-30T13:52:43Z</time><name>PT12531</name></trkpt>
<trkpt lat="53.256920" lon="-1.817401"><ele>226</ele><time>2019-08-30T13:52:44Z</time><name>PT12532</name></trkpt>
<trkpt lat="53.256916" lon="-1.817416"><ele>228</ele><time>2019-08-30T13:52:45Z</time><name>PT12533</name></trkpt>
<trkpt lat="53.256915" lon="-1.817429"><ele>230</ele><time>2019-08-30T13:52:46Z</time><name>PT12534</name></trkpt>
<trkpt lat="53.256908" lon="-1.817429"><ele>231</ele><time>2019-08-30T13:52:47Z</time><name>PT12535</name></trkpt>
<trkpt lat="53.256901" lon="-1.817428"><ele>231</ele><time>2019-08-30T13:52:48Z</time><name>PT12536</name></trkpt>
<trkpt lat="53.256902" lon="-1.817443"><ele>232</ele><time>2019-08-30T13:52:49Z</time><name>PT12537</name></trkpt>
<trkpt lat="53.256897" lon="-1.817448"><ele>232</ele><time>2019-08-30T13:52:50Z</time><name>PT12538</name></trkpt>
<trkpt lat="53.256895" lon="-1.817430"><ele>233</ele><time>2019-08-30T13:52:51Z</time><name>PT12539</name></trkpt>
<trkpt lat="53.256896" lon="-1.817446"><ele>232</ele><time>2019-08-30T13:52:52Z</time><name>PT12540</name></trkpt>
<trkpt lat="53.256898" lon="-1.817449"><ele>233</ele><time>2019-08-30T13:52:53Z</time><name>PT12541</name></trkpt>
<trkpt lat="53.256893" lon="-1.817451"><ele>233</ele><time>2019-08-30T13:52:54Z</time><name>PT12542</name></trkpt>
<trkpt lat="53.256887" lon="-1.817462"><ele>232</ele><time>2019-08-30T13:52:55Z</time><name>PT12543</name></trkpt>
<trkpt lat="53.256885" lon="-1.817467"><ele>233</ele><time>2019-08-30T13:52:56Z</time><name>PT12544</name></trkpt>
<trkpt lat="53.256880" lon="-1.817460"><ele>233</ele><time>2019-08-30T13:52:57Z</time><name>PT12545</name></trkpt>
<trkpt lat="53.256876" lon="-1.817464"><ele>233</ele><time>2019-08-30T13:52:58Z</time><name>PT12546</name></trkpt>
<trkpt lat="53.256873" lon="-1.817455"><ele>234</ele><time>2019-08-30T13:52:59Z</time><name>PT12547</name></trkpt>
<trkpt lat="53.256878" lon="-1.817479"><ele>232</ele><time>2019-08-30T13:53:00Z</time><name>PT12548</name></trkpt>
<trkpt lat="53.256878" lon="-1.817470"><ele>233</ele><time>2019-08-30T13:53:01Z</time><name>PT12549</name></trkpt>
<trkpt lat="53.256877" lon="-1.817474"><ele>231</ele><time>2019-08-30T13:53:02Z</time><name>PT12550</name></trkpt>
<trkpt lat="53.256868" lon="-1.817458"><ele>232</ele><time>2019-08-30T13:53:03Z</time><name>PT12551</name></trkpt>
<trkpt lat="53.256867" lon="-1.817459"><ele>232</ele><time>2019-08-30T13:53:04Z</time><name>PT12552</name></trkpt>
<trkpt lat="53.256869" lon="-1.817471"><ele>232</ele><time>2019-08-30T13:53:05Z</time><name>PT12553</name></trkpt>
<trkpt lat="53.256864" lon="-1.817467"><ele>232</ele><time>2019-08-30T13:53:06Z</time><name>PT12554</name></trkpt>
<trkpt lat="53.256855" lon="-1.817457"><ele>232</ele><time>2019-08-30T13:53:07Z</time><name>PT12555</name></trkpt>
<trkpt lat="53.256846" lon="-1.817448"><ele>234</ele><time>2019-08-30T13:53:08Z</time><name>PT12556</name></trkpt>
<trkpt lat="53.256835" lon="-1.817447"><ele>236</ele><time>2019-08-30T13:53:09Z</time><name>PT12557</name></trkpt>
<trkpt lat="53.256827" lon="-1.817444"><ele>236</ele><time>2019-08-30T13:53:10Z</time><name>PT12558</name></trkpt>
<trkpt lat="53.256814" lon="-1.817434"><ele>235</ele><time>2019-08-30T13:53:11Z</time><name>PT12559</name></trkpt>
<trkpt lat="53.256802" lon="-1.817412"><ele>237</ele><time>2019-08-30T13:53:12Z</time><name>PT12560</name></trkpt>
<trkpt lat="53.256796" lon="-1.817394"><ele>239</ele><time>2019-08-30T13:53:13Z</time><name>PT12561</name></trkpt>
<trkpt lat="53.256793" lon="-1.817404"><ele>240</ele><time>2019-08-30T13:53:14Z</time><name>PT12562</name></trkpt>
<trkpt lat="53.256790" lon="-1.817421"><ele>238</ele><time>2019-08-30T13:53:15Z</time><name>PT12563</name></trkpt>
<trkpt lat="53.256784" lon="-1.817424"><ele>239</ele><time>2019-08-30T13:53:16Z</time><name>PT12564</name></trkpt>
<trkpt lat="53.256776" lon="-1.817436"><ele>238</ele><time>2019-08-30T13:53:17Z</time><name>PT12565</name></trkpt>
<trkpt lat="53.256769" lon="-1.817440"><ele>238</ele><time>2019-08-30T13:53:18Z</time><name>PT12566</name></trkpt>
<trkpt lat="53.256763" lon="-1.817448"><ele>238</ele><time>2019-08-30T13:53:19Z</time><name>PT12567</name></trkpt>
<trkpt lat="53.256753" lon="-1.817447"><ele>239</ele><time>2019-08-30T13:53:20Z</time><name>PT12568</name></trkpt>
<trkpt lat="53.256742" lon="-1.817462"><ele>240</ele><time>2019-08-30T13:53:21Z</time><name>PT12569</name></trkpt>
<trkpt lat="53.256732" lon="-1.817474"><ele>240</ele><time>2019-08-30T13:53:22Z</time><name>PT12570</name></trkpt>
<trkpt lat="53.256723" lon="-1.817477"><ele>240</ele><time>2019-08-30T13:53:23Z</time><name>PT12571</name></trkpt>
<trkpt lat="53.256710" lon="-1.817454"><ele>244</ele><time>2019-08-30T13:53:24Z</time><name>PT12572</name></trkpt>
<trkpt lat="53.256698" lon="-1.817442"><ele>245</ele><time>2019-08-30T13:53:25Z</time><name>PT12573</name></trkpt>
<trkpt lat="53.256685" lon="-1.817443"><ele>245</ele><time>2019-08-30T13:53:26Z</time><name>PT12574</name></trkpt>
<trkpt lat="53.256678" lon="-1.817430"><ele>246</ele><time>2019-08-30T13:53:27Z</time><name>PT12575</name></trkpt>
<trkpt lat="53.256669" lon="-1.817424"><ele>246</ele><time>2019-08-30T13:53:28Z</time><name>PT12576</name></trkpt>
<trkpt lat="53.256652" lon="-1.817429"><ele>245</ele><time>2019-08-30T13:53:29Z</time><name>PT12577</name></trkpt>
<trkpt lat="53.256636" lon="-1.817423"><ele>246</ele><time>2019-08-30T13:53:30Z</time><name>PT12578</name></trkpt>
<trkpt lat="53.256627" lon="-1.817453"><ele>242</ele><time>2019-08-30T13:53:31Z</time><name>PT12579</name></trkpt>
<trkpt lat="53.256619" lon="-1.817483"><ele>240</ele><time>2019-08-30T13:53:32Z</time><name>PT12580</name></trkpt>
<trkpt lat="53.256609" lon="-1.817498"><ele>238</ele><time>2019-08-30T13:53:33Z</time><name>PT12581</name></trkpt>
<trkpt lat="53.256601" lon="-1.817505"><ele>238</ele><time>2019-08-30T13:53:34Z</time><name>PT12582</name></trkpt>
<trkpt lat="53.256598" lon="-1.817518"><ele>238</ele><time>2019-08-30T13:53:35Z</time><name>PT12583</name></trkpt>
<trkpt lat="53.256589" lon="-1.817518"><ele>238</ele><time>2019-08-30T13:53:36Z</time><name>PT12584</name></trkpt>
<trkpt lat="53.256576" lon="-1.817498"><ele>240</ele><time>2019-08-30T13:53:37Z</time><name>PT12585</name></trkpt>
<trkpt lat="53.256574" lon="-1.817491"><ele>241</ele><time>2019-08-30T13:53:38Z</time><name>PT12586</name></trkpt>
<trkpt lat="53.256566" lon="-1.817494"><ele>240</ele><time>2019-08-30T13:53:39Z</time><name>PT12587</name></trkpt>
<trkpt lat="53.256561" lon="-1.817494"><ele>239</ele><time>2019-08-30T13:53:40Z</time><name>PT12588</name></trkpt>
<trkpt lat="53.256552" lon="-1.817474"><ele>241</ele><time>2019-08-30T13:53:41Z</time><name>PT12589</name></trkpt>
<trkpt lat="53.256543" lon="-1.817468"><ele>240</ele><time>2019-08-30T13:53:42Z</time><name>PT12590</name></trkpt>
<trkpt lat="53.256539" lon="-1.817466"><ele>240</ele><time>2019-08-30T13:53:43Z</time><name>PT12591</name></trkpt>
<trkpt lat="53.256536" lon="-1.817490"><ele>237</ele><time>2019-08-30T13:53:44Z</time><name>PT12592</name></trkpt>
<trkpt lat="53.256540" lon="-1.817522"><ele>235</ele><time>2019-08-30T13:53:45Z</time><name>PT12593</name></trkpt>
<trkpt lat="53.256539" lon="-1.817528"><ele>234</ele><time>2019-08-30T13:53:46Z</time><name>PT12594</name></trkpt>
<trkpt lat="53.256532" lon="-1.817541"><ele>234</ele><time>2019-08-30T13:53:47Z</time><name>PT12595</name></trkpt>
<trkpt lat="53.256524" lon="-1.817544"><ele>234</ele><time>2019-08-30T13:53:48Z</time><name>PT12596</name></trkpt>
<trkpt lat="53.256522" lon="-1.817545"><ele>233</ele><time>2019-08-30T13:53:49Z</time><name>PT12597</name></trkpt>
<trkpt lat="53.256522" lon="-1.817550"><ele>233</ele><time>2019-08-30T13:53:50Z</time><name>PT12598</name></trkpt>
<trkpt lat="53.256518" lon="-1.817545"><ele>233</ele><time>2019-08-30T13:53:51Z</time><name>PT12599</name></trkpt>
<trkpt lat="53.256511" lon="-1.817561"><ele>231</ele><time>2019-08-30T13:53:52Z</time><name>PT12600</name></trkpt>
<trkpt lat="53.256503" lon="-1.817556"><ele>231</ele><time>2019-08-30T13:53:53Z</time><name>PT12601</name></trkpt>
<trkpt lat="53.256491" lon="-1.817528"><ele>231</ele><time>2019-08-30T13:53:54Z</time><name>PT12602</name></trkpt>
<trkpt lat="53.256494" lon="-1.817515"><ele>231</ele><time>2019-08-30T13:53:55Z</time><name>PT12603</name></trkpt>
<trkpt lat="53.256486" lon="-1.817504"><ele>231</ele><time>2019-08-30T13:53:56Z</time><name>PT12604</name></trkpt>
<trkpt lat="53.256486" lon="-1.817492"><ele>232</ele><time>2019-08-30T13:53:57Z</time><name>PT12605</name></trkpt>
<trkpt lat="53.256481" lon="-1.817456"><ele>233</ele><time>2019-08-30T13:53:58Z</time><name>PT12606</name></trkpt>
<trkpt lat="53.256477" lon="-1.817427"><ele>235</ele><time>2019-08-30T13:53:59Z</time><name>PT12607</name></trkpt>
<trkpt lat="53.256464" lon="-1.817412"><ele>235</ele><time>2019-08-30T13:54:05Z</time><name>PT12608</name></trkpt>
<trkpt lat="53.256454" lon="-1.817405"><ele>235</ele><time>2019-08-30T13:54:06Z</time><name>PT12609</name></trkpt>
<trkpt lat="53.256444" lon="-1.817422"><ele>235</ele><time>2019-08-30T13:54:07Z</time><name>PT12610</name></trkpt>
<trkpt lat="53.256444" lon="-1.817391"><ele>235</ele><time>2019-08-30T13:54:08Z</time><name>PT12611</name></trkpt>
<trkpt lat="53.256433" lon="-1.817373"><ele>234</ele><time>2019-08-30T13:54:09Z</time><name>PT12612</name></trkpt>
<trkpt lat="53.256419" lon="-1.817376"><ele>235</ele><time>2019-08-30T13:54:10Z</time><name>PT12613</name></trkpt>
<trkpt lat="53.256406" lon="-1.817383"><ele>235</ele><time>2019-08-30T13:54:11Z</time><name>PT12614</name></trkpt>
<trkpt lat="53.256398" lon="-1.817394"><ele>234</ele><time>2019-08-30T13:54:12Z</time><name>PT12615</name></trkpt>
<trkpt lat="53.256390" lon="-1.817400"><ele>233</ele><time>2019-08-30T13:54:13Z</time><name>PT12616</name></trkpt>
<trkpt lat="53.256387" lon="-1.817396"><ele>232</ele><time>2019-08-30T13:54:14Z</time><name>PT12617</name></trkpt>
<trkpt lat="53.256375" lon="-1.817405"><ele>232</ele><time>2019-08-30T13:54:15Z</time><name>PT12618</name></trkpt>
<trkpt lat="53.256368" lon="-1.817407"><ele>231</ele><time>2019-08-30T13:54:16Z</time><name>PT12619</name></trkpt>
<trkpt lat="53.256369" lon="-1.817407"><ele>231</ele><time>2019-08-30T13:54:17Z</time><name>PT12620</name></trkpt>
<trkpt lat="53.256347" lon="-1.817446"><ele>230</ele><time>2019-08-30T13:54:18Z</time><name>PT12621</name></trkpt>
<trkpt lat="53.256344" lon="-1.817445"><ele>228</ele><time>2019-08-30T13:54:19Z</time><name>PT12622</name></trkpt>
<trkpt lat="53.256331" lon="-1.817443"><ele>228</ele><time>2019-08-30T13:54:20Z</time><name>PT12623</name></trkpt>
<trkpt lat="53.256331" lon="-1.817431"><ele>226</ele><time>2019-08-30T13:54:21Z</time><name>PT12624</name></trkpt>
<trkpt lat="53.256331" lon="-1.817428"><ele>226</ele><time>2019-08-30T13:54:22Z</time><name>PT12625</name></trkpt>
<trkpt lat="53.256329" lon="-1.817427"><ele>225</ele><time>2019-08-30T13:54:23Z</time><name>PT12626</name></trkpt>
<trkpt lat="53.256328" lon="-1.817443"><ele>223</ele><time>2019-08-30T13:54:24Z</time><name>PT12627</name></trkpt>
<trkpt lat="53.256324" lon="-1.817440"><ele>223</ele><time>2019-08-30T13:54:25Z</time><name>PT12628</name></trkpt>
<trkpt lat="53.256315" lon="-1.817428"><ele>223</ele><time>2019-08-30T13:54:26Z</time><name>PT12629</name></trkpt>
<trkpt lat="53.256308" lon="-1.817409"><ele>225</ele><time>2019-08-30T13:54:27Z</time><name>PT12630</name></trkpt>
<trkpt lat="53.256303" lon="-1.817398"><ele>226</ele><time>2019-08-30T13:54:28Z</time><name>PT12631</name></trkpt>
<trkpt lat="53.256298" lon="-1.817410"><ele>227</ele><time>2019-08-30T13:54:29Z</time><name>PT12632</name></trkpt>
<trkpt lat="53.256318" lon="-1.817423"><ele>223</ele><time>2019-08-30T13:54:30Z</time><name>PT12633</name></trkpt>
<trkpt lat="53.256326" lon="-1.817413"><ele>220</ele><time>2019-08-30T13:54:31Z</time><name>PT12634</name></trkpt>
<trkpt lat="53.256326" lon="-1.817430"><ele>220</ele><time>2019-08-30T13:54:32Z</time><name>PT12635</name></trkpt>
<trkpt lat="53.256327" lon="-1.817422"><ele>221</ele><time>2019-08-30T13:54:33Z</time><name>PT12636</name></trkpt>
<trkpt lat="53.256330" lon="-1.817412"><ele>221</ele><time>2019-08-30T13:54:34Z</time><name>PT12637</name></trkpt>
<trkpt lat="53.256333" lon="-1.817400"><ele>222</ele><time>2019-08-30T13:54:35Z</time><name>PT12638</name></trkpt>
<trkpt lat="53.256337" lon="-1.817386"><ele>223</ele><time>2019-08-30T13:54:36Z</time><name>PT12639</name></trkpt>
<trkpt lat="53.256346" lon="-1.817367"><ele>223</ele><time>2019-08-30T13:54:37Z</time><name>PT12640</name></trkpt>
<trkpt lat="53.256345" lon="-1.817359"><ele>224</ele><time>2019-08-30T13:54:38Z</time><name>PT12641</name></trkpt>
<trkpt lat="53.256349" lon="-1.817347"><ele>225</ele><time>2019-08-30T13:54:39Z</time><name>PT12642</name></trkpt>
<trkpt lat="53.256356" lon="-1.817338"><ele>224</ele><time>2019-08-30T13:54:40Z</time><name>PT12643</name></trkpt>
<trkpt lat="53.256329" lon="-1.817287"><ele>222</ele><time>2019-08-30T13:54:43Z</time><name>PT12644</name></trkpt>
<trkpt lat="53.256312" lon="-1.817290"><ele>221</ele><time>2019-08-30T13:54:44Z</time><name>PT12645</name></trkpt>
<trkpt lat="53.256309" lon="-1.817282"><ele>220</ele><time>2019-08-30T13:54:45Z</time><name>PT12646</name></trkpt>
<trkpt lat="53.256307" lon="-1.817284"><ele>219</ele><time>2019-08-30T13:54:46Z</time><name>PT12647</name></trkpt>
<trkpt lat="53.256296" lon="-1.817281"><ele>218</ele><time>2019-08-30T13:54:47Z</time><name>PT12648</name></trkpt>
<trkpt lat="53.256295" lon="-1.817264"><ele>219</ele><time>2019-08-30T13:54:48Z</time><name>PT12649</name></trkpt>
<trkpt lat="53.256293" lon="-1.817256"><ele>220</ele><time>2019-08-30T13:54:49Z</time><name>PT12650</name></trkpt>
<trkpt lat="53.256290" lon="-1.817250"><ele>219</ele><time>2019-08-30T13:54:50Z</time><name>PT12651</name></trkpt>
<trkpt lat="53.256288" lon="-1.817244"><ele>218</ele><time>2019-08-30T13:54:51Z</time><name>PT12652</name></trkpt>
<trkpt lat="53.256279" lon="-1.817239"><ele>218</ele><time>2019-08-30T13:54:52Z</time><name>PT12653</name></trkpt>
<trkpt lat="53.256268" lon="-1.817240"><ele>217</ele><time>2019-08-30T13:54:53Z</time><name>PT12654</name></trkpt>
<trkpt lat="53.256266" lon="-1.817242"><ele>218</ele><time>2019-08-30T13:54:54Z</time><name>PT12655</name></trkpt>
<trkpt lat="53.256257" lon="-1.817243"><ele>219</ele><time>2019-08-30T13:54:55Z</time><name>PT12656</name></trkpt>
<trkpt lat="53.256251" lon="-1.817239"><ele>219</ele><time>2019-08-30T13:54:56Z</time><name>PT12657</name></trkpt>
<trkpt lat="53.256241" lon="-1.817239"><ele>219</ele><time>2019-08-30T13:54:57Z</time><name>PT12658</name></trkpt>
<trkpt lat="53.256238" lon="-1.817234"><ele>219</ele><time>2019-08-30T13:54:58Z</time><name>PT12659</name></trkpt>
<trkpt lat="53.256238" lon="-1.817227"><ele>219</ele><time>2019-08-30T13:54:59Z</time><name>PT12660</name></trkpt>
<trkpt lat="53.256232" lon="-1.817224"><ele>219</ele><time>2019-08-30T13:55:00Z</time><name>PT12661</name></trkpt>
<trkpt lat="53.256221" lon="-1.817240"><ele>220</ele><time>2019-08-30T13:55:01Z</time><name>PT12662</name></trkpt>
<trkpt lat="53.256216" lon="-1.817235"><ele>219</ele><time>2019-08-30T13:55:02Z</time><name>PT12663</name></trkpt>
<trkpt lat="53.256218" lon="-1.817235"><ele>218</ele><time>2019-08-30T13:55:03Z</time><name>PT12664</name></trkpt>
<trkpt lat="53.256212" lon="-1.817224"><ele>218</ele><time>2019-08-30T13:55:04Z</time><name>PT12665</name></trkpt>
<trkpt lat="53.256216" lon="-1.817210"><ele>217</ele><time>2019-08-30T13:55:05Z</time><name>PT12666</name></trkpt>
<trkpt lat="53.256209" lon="-1.817198"><ele>217</ele><time>2019-08-30T13:55:06Z</time><name>PT12667</name></trkpt>
<trkpt lat="53.256204" lon="-1.817195"><ele>217</ele><time>2019-08-30T13:55:07Z</time><name>PT12668</name></trkpt>
<trkpt lat="53.256193" lon="-1.817189"><ele>215</ele><time>2019-08-30T13:55:08Z</time><name>PT12669</name></trkpt>
<trkpt lat="53.256176" lon="-1.817180"><ele>215</ele><time>2019-08-30T13:55:09Z</time><name>PT12670</name></trkpt>
<trkpt lat="53.256162" lon="-1.817170"><ele>215</ele><time>2019-08-30T13:55:10Z</time><name>PT12671</name></trkpt>
<trkpt lat="53.256147" lon="-1.817165"><ele>215</ele><time>2019-08-30T13:55:11Z</time><name>PT12672</name></trkpt>
<trkpt lat="53.256135" lon="-1.817158"><ele>216</ele><time>2019-08-30T13:55:12Z</time><name>PT12673</name></trkpt>
<trkpt lat="53.256129" lon="-1.817157"><ele>216</ele><time>2019-08-30T13:55:13Z</time><name>PT12674</name></trkpt>
<trkpt lat="53.256123" lon="-1.817130"><ele>218</ele><time>2019-08-30T13:55:14Z</time><name>PT12675</name></trkpt>
<trkpt lat="53.256112" lon="-1.817121"><ele>219</ele><time>2019-08-30T13:55:15Z</time><name>PT12676</name></trkpt>
<trkpt lat="53.256101" lon="-1.817107"><ele>220</ele><time>2019-08-30T13:55:16Z</time><name>PT12677</name></trkpt>
<trkpt lat="53.256090" lon="-1.817095"><ele>219</ele><time>2019-08-30T13:55:17Z</time><name>PT12678</name></trkpt>
<trkpt lat="53.256074" lon="-1.817087"><ele>220</ele><time>2019-08-30T13:55:18Z</time><name>PT12679</name></trkpt>
<trkpt lat="53.256075" lon="-1.817084"><ele>220</ele><time>2019-08-30T13:55:19Z</time><name>PT12680</name></trkpt>
<trkpt lat="53.256071" lon="-1.817092"><ele>219</ele><time>2019-08-30T13:55:20Z</time><name>PT12681</name></trkpt>
<trkpt lat="53.256063" lon="-1.817093"><ele>219</ele><time>2019-08-30T13:55:21Z</time><name>PT12682</name></trkpt>
<trkpt lat="53.256048" lon="-1.817086"><ele>219</ele><time>2019-08-30T13:55:22Z</time><name>PT12683</name></trkpt>
<trkpt lat="53.256038" lon="-1.817084"><ele>219</ele><time>2019-08-30T13:55:23Z</time><name>PT12684</name></trkpt>
<trkpt lat="53.256037" lon="-1.817079"><ele>218</ele><time>2019-08-30T13:55:24Z</time><name>PT12685</name></trkpt>
<trkpt lat="53.256012" lon="-1.817082"><ele>219</ele><time>2019-08-30T13:55:25Z</time><name>PT12686</name></trkpt>
<trkpt lat="53.256006" lon="-1.817070"><ele>221</ele><time>2019-08-30T13:55:26Z</time><name>PT12687</name></trkpt>
<trkpt lat="53.256004" lon="-1.817070"><ele>221</ele><time>2019-08-30T13:55:27Z</time><name>PT12688</name></trkpt>
<trkpt lat="53.256000" lon="-1.817056"><ele>221</ele><time>2019-08-30T13:55:28Z</time><name>PT12689</name></trkpt>
<trkpt lat="53.255997" lon="-1.817052"><ele>219</ele><time>2019-08-30T13:55:29Z</time><name>PT12690</name></trkpt>
<trkpt lat="53.255982" lon="-1.817055"><ele>218</ele><time>2019-08-30T13:55:30Z</time><name>PT12691</name></trkpt>
<trkpt lat="53.255977" lon="-1.817043"><ele>216</ele><time>2019-08-30T13:55:31Z</time><name>PT12692</name></trkpt>
<trkpt lat="53.255969" lon="-1.817038"><ele>216</ele><time>2019-08-30T13:55:32Z</time><name>PT12693</name></trkpt>
<trkpt lat="53.255956" lon="-1.817036"><ele>217</ele><time>2019-08-30T13:55:33Z</time><name>PT12694</name></trkpt>
<trkpt lat="53.255937" lon="-1.817040"><ele>219</ele><time>2019-08-30T13:55:34Z</time><name>PT12695</name></trkpt>
<trkpt lat="53.255936" lon="-1.817036"><ele>219</ele><time>2019-08-30T13:55:35Z</time><name>PT12696</name></trkpt>
<trkpt lat="53.255932" lon="-1.817035"><ele>220</ele><time>2019-08-30T13:55:36Z</time><name>PT12697</name></trkpt>
<trkpt lat="53.255929" lon="-1.817038"><ele>219</ele><time>2019-08-30T13:55:37Z</time><name>PT12698</name></trkpt>
<trkpt lat="53.255921" lon="-1.817038"><ele>219</ele><time>2019-08-30T13:55:38Z</time><name>PT12699</name></trkpt>
<trkpt lat="53.255913" lon="-1.817033"><ele>220</ele><time>2019-08-30T13:55:39Z</time><name>PT12700</name></trkpt>
<trkpt lat="53.255909" lon="-1.817028"><ele>219</ele><time>2019-08-30T13:55:40Z</time><name>PT12701</name></trkpt>
<trkpt lat="53.255904" lon="-1.817017"><ele>219</ele><time>2019-08-30T13:55:41Z</time><name>PT12702</name></trkpt>
<trkpt lat="53.255893" lon="-1.817005"><ele>220</ele><time>2019-08-30T13:55:42Z</time><name>PT12703</name></trkpt>
<trkpt lat="53.255880" lon="-1.817005"><ele>220</ele><time>2019-08-30T13:55:43Z</time><name>PT12704</name></trkpt>
<trkpt lat="53.255870" lon="-1.817007"><ele>221</ele><time>2019-08-30T13:55:44Z</time><name>PT12705</name></trkpt>
<trkpt lat="53.255866" lon="-1.816994"><ele>220</ele><time>2019-08-30T13:55:45Z</time><name>PT12706</name></trkpt>
<trkpt lat="53.255857" lon="-1.816986"><ele>219</ele><time>2019-08-30T13:55:46Z</time><name>PT12707</name></trkpt>
<trkpt lat="53.255839" lon="-1.816983"><ele>217</ele><time>2019-08-30T13:55:47Z</time><name>PT12708</name></trkpt>
<trkpt lat="53.255820" lon="-1.816968"><ele>218</ele><time>2019-08-30T13:55:48Z</time><name>PT12709</name></trkpt>
<trkpt lat="53.255799" lon="-1.816959"><ele>219</ele><time>2019-08-30T13:55:49Z</time><name>PT12710</name></trkpt>
<trkpt lat="53.255784" lon="-1.816960"><ele>220</ele><time>2019-08-30T13:55:50Z</time><name>PT12711</name></trkpt>
<trkpt lat="53.255773" lon="-1.816954"><ele>219</ele><time>2019-08-30T13:55:51Z</time><name>PT12712</name></trkpt>
<trkpt lat="53.255753" lon="-1.816954"><ele>220</ele><time>2019-08-30T13:55:52Z</time><name>PT12713</name></trkpt>
<trkpt lat="53.255737" lon="-1.816950"><ele>221</ele><time>2019-08-30T13:55:53Z</time><name>PT12714</name></trkpt>
<trkpt lat="53.255734" lon="-1.816941"><ele>221</ele><time>2019-08-30T13:55:54Z</time><name>PT12715</name></trkpt>
<trkpt lat="53.255721" lon="-1.816941"><ele>221</ele><time>2019-08-30T13:55:55Z</time><name>PT12716</name></trkpt>
<trkpt lat="53.255704" lon="-1.816924"><ele>223</ele><time>2019-08-30T13:55:56Z</time><name>PT12717</name></trkpt>
<trkpt lat="53.255691" lon="-1.816916"><ele>223</ele><time>2019-08-30T13:55:57Z</time><name>PT12718</name></trkpt>
<trkpt lat="53.255688" lon="-1.816913"><ele>223</ele><time>2019-08-30T13:55:58Z</time><name>PT12719</name></trkpt>
<trkpt lat="53.255677" lon="-1.816918"><ele>223</ele><time>2019-08-30T13:55:59Z</time><name>PT12720</name></trkpt>
<trkpt lat="53.255668" lon="-1.816914"><ele>223</ele><time>2019-08-30T13:56:00Z</time><name>PT12721</name></trkpt>
<trkpt lat="53.255662" lon="-1.816907"><ele>223</ele><time>2019-08-30T13:56:01Z</time><name>PT12722</name></trkpt>
<trkpt lat="53.255659" lon="-1.816895"><ele>222</ele><time>2019-08-30T13:56:02Z</time><name>PT12723</name></trkpt>
<trkpt lat="53.255659" lon="-1.816889"><ele>222</ele><time>2019-08-30T13:56:03Z</time><name>PT12724</name></trkpt>
<trkpt lat="53.255663" lon="-1.816891"><ele>221</ele><time>2019-08-30T13:56:04Z</time><name>PT12725</name></trkpt>
<trkpt lat="53.255668" lon="-1.816891"><ele>221</ele><time>2019-08-30T13:56:05Z</time><name>PT12726</name></trkpt>
<trkpt lat="53.255662" lon="-1.816891"><ele>221</ele><time>2019-08-30T13:56:06Z</time><name>PT12727</name></trkpt>
<trkpt lat="53.255651" lon="-1.816879"><ele>222</ele><time>2019-08-30T13:56:07Z</time><name>PT12728</name></trkpt>
<trkpt lat="53.255649" lon="-1.816880"><ele>223</ele><time>2019-08-30T13:56:08Z</time><name>PT12729</name></trkpt>
<trkpt lat="53.255645" lon="-1.816872"><ele>223</ele><time>2019-08-30T13:56:09Z</time><name>PT12730</name></trkpt>
<trkpt lat="53.255641" lon="-1.816851"><ele>224</ele><time>2019-08-30T13:56:10Z</time><name>PT12731</name></trkpt>
<trkpt lat="53.255646" lon="-1.816847"><ele>224</ele><time>2019-08-30T13:56:11Z</time><name>PT12732</name></trkpt>
<trkpt lat="53.255641" lon="-1.816826"><ele>224</ele><time>2019-08-30T13:56:12Z</time><name>PT12733</name></trkpt>
<trkpt lat="53.255637" lon="-1.816803"><ele>226</ele><time>2019-08-30T13:56:13Z</time><name>PT12734</name></trkpt>
<trkpt lat="53.255633" lon="-1.816797"><ele>225</ele><time>2019-08-30T13:56:14Z</time><name>PT12735</name></trkpt>
<trkpt lat="53.255640" lon="-1.816783"><ele>225</ele><time>2019-08-30T13:56:15Z</time><name>PT12736</name></trkpt>
<trkpt lat="53.255636" lon="-1.816763"><ele>228</ele><time>2019-08-30T13:56:16Z</time><name>PT12737</name></trkpt>
<trkpt lat="53.255632" lon="-1.816762"><ele>227</ele><time>2019-08-30T13:56:17Z</time><name>PT12738</name></trkpt>
<trkpt lat="53.255625" lon="-1.816758"><ele>227</ele><time>2019-08-30T13:56:18Z</time><name>PT12739</name></trkpt>
<trkpt lat="53.255618" lon="-1.816755"><ele>227</ele><time>2019-08-30T13:56:19Z</time><name>PT12740</name></trkpt>
<trkpt lat="53.255622" lon="-1.816753"><ele>226</ele><time>2019-08-30T13:56:20Z</time><name>PT12741</name></trkpt>
<trkpt lat="53.255633" lon="-1.816739"><ele>227</ele><time>2019-08-30T13:56:21Z</time><name>PT12742</name></trkpt>
<trkpt lat="53.255626" lon="-1.816739"><ele>226</ele><time>2019-08-30T13:56:22Z</time><name>PT12743</name></trkpt>
<trkpt lat="53.255601" lon="-1.816748"><ele>225</ele><time>2019-08-30T13:56:23Z</time><name>PT12744</name></trkpt>
<trkpt lat="53.255589" lon="-1.816738"><ele>224</ele><time>2019-08-30T13:56:24Z</time><name>PT12745</name></trkpt>
<trkpt lat="53.255572" lon="-1.816730"><ele>224</ele><time>2019-08-30T13:56:25Z</time><name>PT12746</name></trkpt>
<trkpt lat="53.255567" lon="-1.816713"><ele>225</ele><time>2019-08-30T13:56:26Z</time><name>PT12747</name></trkpt>
<trkpt lat="53.255562" lon="-1.816715"><ele>225</ele><time>2019-08-30T13:56:27Z</time><name>PT12748</name></trkpt>
<trkpt lat="53.255559" lon="-1.816696"><ele>227</ele><time>2019-08-30T13:56:28Z</time><name>PT12749</name></trkpt>
<trkpt lat="53.255558" lon="-1.816696"><ele>228</ele><time>2019-08-30T13:56:29Z</time><name>PT12750</name></trkpt>
<trkpt lat="53.255543" lon="-1.816706"><ele>229</ele><time>2019-08-30T13:56:30Z</time><name>PT12751</name></trkpt>
<trkpt lat="53.255534" lon="-1.816699"><ele>230</ele><time>2019-08-30T13:56:31Z</time><name>PT12752</name></trkpt>
<trkpt lat="53.255528" lon="-1.816681"><ele>231</ele><time>2019-08-30T13:56:32Z</time><name>PT12753</name></trkpt>
<trkpt lat="53.255528" lon="-1.816680"><ele>230</ele><time>2019-08-30T13:56:33Z</time><name>PT12754</name></trkpt>
<trkpt lat="53.255518" lon="-1.816696"><ele>228</ele><time>2019-08-30T13:56:34Z</time><name>PT12755</name></trkpt>
<trkpt lat="53.255514" lon="-1.816698"><ele>227</ele><time>2019-08-30T13:56:35Z</time><name>PT12756</name></trkpt>
<trkpt lat="53.255482" lon="-1.816693"><ele>230</ele><time>2019-08-30T13:56:36Z</time><name>PT12757</name></trkpt>
<trkpt lat="53.255479" lon="-1.816691"><ele>229</ele><time>2019-08-30T13:56:37Z</time><name>PT12758</name></trkpt>
<trkpt lat="53.255483" lon="-1.816680"><ele>227</ele><time>2019-08-30T13:56:38Z</time><name>PT12759</name></trkpt>
<trkpt lat="53.255482" lon="-1.816670"><ele>227</ele><time>2019-08-30T13:56:39Z</time><name>PT12760</name></trkpt>
<trkpt lat="53.255483" lon="-1.816653"><ele>227</ele><time>2019-08-30T13:56:40Z</time><name>PT12761</name></trkpt>
<trkpt lat="53.255476" lon="-1.816642"><ele>227</ele><time>2019-08-30T13:56:41Z</time><name>PT12762</name></trkpt>
<trkpt lat="53.255474" lon="-1.816629"><ele>227</ele><time>2019-08-30T13:56:42Z</time><name>PT12763</name></trkpt>
<trkpt lat="53.255466" lon="-1.816622"><ele>227</ele><time>2019-08-30T13:56:43Z</time><name>PT12764</name></trkpt>
<trkpt lat="53.255461" lon="-1.816613"><ele>226</ele><time>2019-08-30T13:56:44Z</time><name>PT12765</name></trkpt>
<trkpt lat="53.255452" lon="-1.816612"><ele>226</ele><time>2019-08-30T13:56:45Z</time><name>PT12766</name></trkpt>
<trkpt lat="53.255435" lon="-1.816609"><ele>226</ele><time>2019-08-30T13:56:46Z</time><name>PT12767</name></trkpt>
<trkpt lat="53.255418" lon="-1.816609"><ele>227</ele><time>2019-08-30T13:56:47Z</time><name>PT12768</name></trkpt>
<trkpt lat="53.255401" lon="-1.816608"><ele>227</ele><time>2019-08-30T13:56:48Z</time><name>PT12769</name></trkpt>
<trkpt lat="53.255394" lon="-1.816606"><ele>227</ele><time>2019-08-30T13:56:49Z</time><name>PT12770</name></trkpt>
<trkpt lat="53.255401" lon="-1.816581"><ele>228</ele><time>2019-08-30T13:56:50Z</time><name>PT12771</name></trkpt>
<trkpt lat="53.255400" lon="-1.816570"><ele>229</ele><time>2019-08-30T13:56:51Z</time><name>PT12772</name></trkpt>
<trkpt lat="53.255410" lon="-1.816547"><ele>231</ele><time>2019-08-30T13:56:52Z</time><name>PT12773</name></trkpt>
<trkpt lat="53.255421" lon="-1.816528"><ele>233</ele><time>2019-08-30T13:56:53Z</time><name>PT12774</name></trkpt>
<trkpt lat="53.255416" lon="-1.816518"><ele>232</ele><time>2019-08-30T13:56:54Z</time><name>PT12775</name></trkpt>
<trkpt lat="53.255404" lon="-1.816489"><ele>234</ele><time>2019-08-30T13:56:55Z</time><name>PT12776</name></trkpt>
<trkpt lat="53.255413" lon="-1.816464"><ele>236</ele><time>2019-08-30T13:56:56Z</time><name>PT12777</name></trkpt>
<trkpt lat="53.255413" lon="-1.816460"><ele>237</ele><time>2019-08-30T13:56:57Z</time><name>PT12778</name></trkpt>
<trkpt lat="53.255418" lon="-1.816456"><ele>239</ele><time>2019-08-30T13:56:58Z</time><name>PT12779</name></trkpt>
<trkpt lat="53.255426" lon="-1.816446"><ele>239</ele><time>2019-08-30T13:56:59Z</time><name>PT12780</name></trkpt>
<trkpt lat="53.255424" lon="-1.816444"><ele>240</ele><time>2019-08-30T13:57:00Z</time><name>PT12781</name></trkpt>
<trkpt lat="53.255428" lon="-1.816431"><ele>241</ele><time>2019-08-30T13:57:01Z</time><name>PT12782</name></trkpt>
<trkpt lat="53.255422" lon="-1.816423"><ele>240</ele><time>2019-08-30T13:57:02Z</time><name>PT12783</name></trkpt>
<trkpt lat="53.255420" lon="-1.816415"><ele>240</ele><time>2019-08-30T13:57:03Z</time><name>PT12784</name></trkpt>
<trkpt lat="53.255424" lon="-1.816396"><ele>241</ele><time>2019-08-30T13:57:04Z</time><name>PT12785</name></trkpt>
<trkpt lat="53.255415" lon="-1.816407"><ele>239</ele><time>2019-08-30T13:57:05Z</time><name>PT12786</name></trkpt>
<trkpt lat="53.255412" lon="-1.816398"><ele>240</ele><time>2019-08-30T13:57:06Z</time><name>PT12787</name></trkpt>
<trkpt lat="53.255412" lon="-1.816379"><ele>241</ele><time>2019-08-30T13:57:07Z</time><name>PT12788</name></trkpt>
<trkpt lat="53.255413" lon="-1.816348"><ele>242</ele><time>2019-08-30T13:57:08Z</time><name>PT12789</name></trkpt>
<trkpt lat="53.255410" lon="-1.816337"><ele>243</ele><time>2019-08-30T13:57:09Z</time><name>PT12790</name></trkpt>
<trkpt lat="53.255406" lon="-1.816321"><ele>245</ele><time>2019-08-30T13:57:10Z</time><name>PT12791</name></trkpt>
<trkpt lat="53.255399" lon="-1.816288"><ele>246</ele><time>2019-08-30T13:57:11Z</time><name>PT12792</name></trkpt>
<trkpt lat="53.255381" lon="-1.816264"><ele>247</ele><time>2019-08-30T13:57:12Z</time><name>PT12793</name></trkpt>
<trkpt lat="53.255373" lon="-1.816241"><ele>248</ele><time>2019-08-30T13:57:13Z</time><name>PT12794</name></trkpt>
<trkpt lat="53.255370" lon="-1.816223"><ele>247</ele><time>2019-08-30T13:57:14Z</time><name>PT12795</name></trkpt>
<trkpt lat="53.255377" lon="-1.816204"><ele>248</ele><time>2019-08-30T13:57:15Z</time><name>PT12796</name></trkpt>
<trkpt lat="53.255386" lon="-1.816190"><ele>249</ele><time>2019-08-30T13:57:16Z</time><name>PT12797</name></trkpt>
<trkpt lat="53.255395" lon="-1.816182"><ele>250</ele><time>2019-08-30T13:57:17Z</time><name>PT12798</name></trkpt>
<trkpt lat="53.255403" lon="-1.816179"><ele>250</ele><time>2019-08-30T13:57:18Z</time><name>PT12799</name></trkpt>
<trkpt lat="53.255431" lon="-1.816089"><ele>250</ele><time>2019-08-30T13:57:26Z</time><name>PT12800</name></trkpt>
<trkpt lat="53.255437" lon="-1.816048"><ele>250</ele><time>2019-08-30T13:57:27Z</time><name>PT12801</name></trkpt>
<trkpt lat="53.255442" lon="-1.816015"><ele>249</ele><time>2019-08-30T13:57:28Z</time><name>PT12802</name></trkpt>
<trkpt lat="53.255440" lon="-1.816001"><ele>249</ele><time>2019-08-30T13:57:29Z</time><name>PT12803</name></trkpt>
<trkpt lat="53.255437" lon="-1.815993"><ele>250</ele><time>2019-08-30T13:57:30Z</time><name>PT12804</name></trkpt>
<trkpt lat="53.255435" lon="-1.815970"><ele>250</ele><time>2019-08-30T13:57:31Z</time><name>PT12805</name></trkpt>
<trkpt lat="53.255446" lon="-1.815946"><ele>250</ele><time>2019-08-30T13:57:32Z</time><name>PT12806</name></trkpt>
<trkpt lat="53.255458" lon="-1.815933"><ele>251</ele><time>2019-08-30T13:57:33Z</time><name>PT12807</name></trkpt>
<trkpt lat="53.255463" lon="-1.815920"><ele>251</ele><time>2019-08-30T13:57:34Z</time><name>PT12808</name></trkpt>
<trkpt lat="53.255457" lon="-1.815896"><ele>252</ele><time>2019-08-30T13:57:35Z</time><name>PT12809</name></trkpt>
<trkpt lat="53.255456" lon="-1.815879"><ele>251</ele><time>2019-08-30T13:57:36Z</time><name>PT12810</name></trkpt>
<trkpt lat="53.255435" lon="-1.815855"><ele>252</ele><time>2019-08-30T13:57:37Z</time><name>PT12811</name></trkpt>
<trkpt lat="53.255436" lon="-1.815839"><ele>253</ele><time>2019-08-30T13:57:38Z</time><name>PT12812</name></trkpt>
<trkpt lat="53.255425" lon="-1.815822"><ele>253</ele><time>2019-08-30T13:57:39Z</time><name>PT12813</name></trkpt>
<trkpt lat="53.255426" lon="-1.815812"><ele>254</ele><time>2019-08-30T13:57:40Z</time><name>PT12814</name></trkpt>
<trkpt lat="53.255421" lon="-1.815797"><ele>253</ele><time>2019-08-30T13:57:41Z</time><name>PT12815</name></trkpt>
<trkpt lat="53.255418" lon="-1.815790"><ele>253</ele><time>2019-08-30T13:57:42Z</time><name>PT12816</name></trkpt>
<trkpt lat="53.255393" lon="-1.815769"><ele>252</ele><time>2019-08-30T13:57:43Z</time><name>PT12817</name></trkpt>
<trkpt lat="53.255391" lon="-1.815765"><ele>252</ele><time>2019-08-30T13:57:44Z</time><name>PT12818</name></trkpt>
<trkpt lat="53.255384" lon="-1.815761"><ele>252</ele><time>2019-08-30T13:57:45Z</time><name>PT12819</name></trkpt>
<trkpt lat="53.255371" lon="-1.815760"><ele>252</ele><time>2019-08-30T13:57:46Z</time><name>PT12820</name></trkpt>
<trkpt lat="53.255363" lon="-1.815755"><ele>254</ele><time>2019-08-30T13:57:47Z</time><name>PT12821</name></trkpt>
<trkpt lat="53.255365" lon="-1.815750"><ele>255</ele><time>2019-08-30T13:57:48Z</time><name>PT12822</name></trkpt>
<trkpt lat="53.255349" lon="-1.815769"><ele>254</ele><time>2019-08-30T13:57:49Z</time><name>PT12823</name></trkpt>
<trkpt lat="53.255348" lon="-1.815780"><ele>253</ele><time>2019-08-30T13:57:50Z</time><name>PT12824</name></trkpt>
<trkpt lat="53.255347" lon="-1.815788"><ele>251</ele><time>2019-08-30T13:57:51Z</time><name>PT12825</name></trkpt>
<trkpt lat="53.255332" lon="-1.815790"><ele>250</ele><time>2019-08-30T13:57:52Z</time><name>PT12826</name></trkpt>
<trkpt lat="53.255315" lon="-1.815789"><ele>249</ele><time>2019-08-30T13:57:53Z</time><name>PT12827</name></trkpt>
<trkpt lat="53.255305" lon="-1.815780"><ele>249</ele><time>2019-08-30T13:57:54Z</time><name>PT12828</name></trkpt>
<trkpt lat="53.255309" lon="-1.815766"><ele>250</ele><time>2019-08-30T13:57:55Z</time><name>PT12829</name></trkpt>
<trkpt lat="53.255307" lon="-1.815763"><ele>249</ele><time>2019-08-30T13:57:56Z</time><name>PT12830</name></trkpt>
<trkpt lat="53.255310" lon="-1.815757"><ele>250</ele><time>2019-08-30T13:57:57Z</time><name>PT12831</name></trkpt>
<trkpt lat="53.255318" lon="-1.815748"><ele>252</ele><time>2019-08-30T13:57:58Z</time><name>PT12832</name></trkpt>
<trkpt lat="53.255323" lon="-1.815740"><ele>252</ele><time>2019-08-30T13:57:59Z</time><name>PT12833</name></trkpt>
<trkpt lat="53.255326" lon="-1.815734"><ele>252</ele><time>2019-08-30T13:58:00Z</time><name>PT12834</name></trkpt>
<trkpt lat="53.255337" lon="-1.815726"><ele>252</ele><time>2019-08-30T13:58:01Z</time><name>PT12835</name></trkpt>
<trkpt lat="53.255342" lon="-1.815716"><ele>252</ele><time>2019-08-30T13:58:02Z</time><name>PT12836</name></trkpt>
<trkpt lat="53.255325" lon="-1.815688"><ele>250</ele><time>2019-08-30T13:58:03Z</time><name>PT12837</name></trkpt>
<trkpt lat="53.255318" lon="-1.815673"><ele>250</ele><time>2019-08-30T13:58:04Z</time><name>PT12838</name></trkpt>
<trkpt lat="53.255318" lon="-1.815659"><ele>250</ele><time>2019-08-30T13:58:05Z</time><name>PT12839</name></trkpt>
<trkpt lat="53.255318" lon="-1.815653"><ele>250</ele><time>2019-08-30T13:58:06Z</time><name>PT12840</name></trkpt>
<trkpt lat="53.255315" lon="-1.815651"><ele>249</ele><time>2019-08-30T13:58:07Z</time><name>PT12841</name></trkpt>
<trkpt lat="53.255312" lon="-1.815645"><ele>249</ele><time>2019-08-30T13:58:08Z</time><name>PT12842</name></trkpt>
<trkpt lat="53.255306" lon="-1.815621"><ele>251</ele><time>2019-08-30T13:58:09Z</time><name>PT12843</name></trkpt>
<trkpt lat="53.255306" lon="-1.815606"><ele>251</ele><time>2019-08-30T13:58:10Z</time><name>PT12844</name></trkpt>
<trkpt lat="53.255293" lon="-1.815613"><ele>251</ele><time>2019-08-30T13:58:11Z</time><name>PT12845</name></trkpt>
<trkpt lat="53.255288" lon="-1.815596"><ele>252</ele><time>2019-08-30T13:58:12Z</time><name>PT12846</name></trkpt>
<trkpt lat="53.255286" lon="-1.815585"><ele>253</ele><time>2019-08-30T13:58:13Z</time><name>PT12847</name></trkpt>
<trkpt lat="53.255298" lon="-1.815597"><ele>253</ele><time>2019-08-30T13:58:14Z</time><name>PT12848</name></trkpt>
<trkpt lat="53.255315" lon="-1.815577"><ele>255</ele><time>2019-08-30T13:58:15Z</time><name>PT12849</name></trkpt>
<trkpt lat="53.255319" lon="-1.815552"><ele>256</ele><time>2019-08-30T13:58:16Z</time><name>PT12850</name></trkpt>
<trkpt lat="53.255325" lon="-1.815531"><ele>257</ele><time>2019-08-30T13:58:17Z</time><name>PT12851</name></trkpt>
<trkpt lat="53.255334" lon="-1.815510"><ele>258</ele><time>2019-08-30T13:58:18Z</time><name>PT12852</name></trkpt>
<trkpt lat="53.255343" lon="-1.815502"><ele>259</ele><time>2019-08-30T13:58:19Z</time><name>PT12853</name></trkpt>
<trkpt lat="53.255349" lon="-1.815497"><ele>259</ele><time>2019-08-30T13:58:20Z</time><name>PT12854</name></trkpt>
<trkpt lat="53.255364" lon="-1.815498"><ele>260</ele><time>2019-08-30T13:58:21Z</time><name>PT12855</name></trkpt>
<trkpt lat="53.255379" lon="-1.815495"><ele>261</ele><time>2019-08-30T13:58:22Z</time><name>PT12856</name></trkpt>
<trkpt lat="53.255392" lon="-1.815486"><ele>262</ele><time>2019-08-30T13:58:23Z</time><name>PT12857</name></trkpt>
<trkpt lat="53.255390" lon="-1.815471"><ele>263</ele><time>2019-08-30T13:58:24Z</time><name>PT12858</name></trkpt>
<trkpt lat="53.255389" lon="-1.815462"><ele>263</ele><time>2019-08-30T13:58:25Z</time><name>PT12859</name></trkpt>
<trkpt lat="53.255391" lon="-1.815446"><ele>263</ele><time>2019-08-30T13:58:26Z</time><name>PT12860</name></trkpt>
<trkpt lat="53.255388" lon="-1.815435"><ele>263</ele><time>2019-08-30T13:58:27Z</time><name>PT12861</name></trkpt>
<trkpt lat="53.255386" lon="-1.815425"><ele>262</ele><time>2019-08-30T13:58:28Z</time><name>PT12862</name></trkpt>
<trkpt lat="53.255384" lon="-1.815410"><ele>262</ele><time>2019-08-30T13:58:29Z</time><name>PT12863</name></trkpt>
<trkpt lat="53.255385" lon="-1.815406"><ele>262</ele><time>2019-08-30T13:58:30Z</time><name>PT12864</name></trkpt>
<trkpt lat="53.255389" lon="-1.815397"><ele>262</ele><time>2019-08-30T13:58:31Z</time><name>PT12865</name></trkpt>
<trkpt lat="53.255382" lon="-1.815397"><ele>261</ele><time>2019-08-30T13:58:32Z</time><name>PT12866</name></trkpt>
<trkpt lat="53.255382" lon="-1.815396"><ele>260</ele><time>2019-08-30T13:58:33Z</time><name>PT12867</name></trkpt>
<trkpt lat="53.255388" lon="-1.815394"><ele>260</ele><time>2019-08-30T13:58:34Z</time><name>PT12868</name></trkpt>
<trkpt lat="53.255399" lon="-1.815392"><ele>260</ele><time>2019-08-30T13:58:35Z</time><name>PT12869</name></trkpt>
<trkpt lat="53.255422" lon="-1.815393"><ele>261</ele><time>2019-08-30T13:58:36Z</time><name>PT12870</name></trkpt>
<trkpt lat="53.255429" lon="-1.815399"><ele>259</ele><time>2019-08-30T13:58:37Z</time><name>PT12871</name></trkpt>
<trkpt lat="53.255446" lon="-1.815399"><ele>258</ele><time>2019-08-30T13:58:41Z</time><name>PT12872</name></trkpt>
<trkpt lat="53.255472" lon="-1.815392"><ele>257</ele><time>2019-08-30T13:58:42Z</time><name>PT12873</name></trkpt>
<trkpt lat="53.255488" lon="-1.815380"><ele>256</ele><time>2019-08-30T13:58:43Z</time><name>PT12874</name></trkpt>
<trkpt lat="53.255498" lon="-1.815366"><ele>256</ele><time>2019-08-30T13:58:44Z</time><name>PT12875</name></trkpt>
<trkpt lat="53.255504" lon="-1.815356"><ele>255</ele><time>2019-08-30T13:58:45Z</time><name>PT12876</name></trkpt>
<trkpt lat="53.255506" lon="-1.815344"><ele>254</ele><time>2019-08-30T13:58:46Z</time><name>PT12877</name></trkpt>
<trkpt lat="53.255507" lon="-1.815324"><ele>254</ele><time>2019-08-30T13:58:47Z</time><name>PT12878</name></trkpt>
<trkpt lat="53.255514" lon="-1.815311"><ele>253</ele><time>2019-08-30T13:58:48Z</time><name>PT12879</name></trkpt>
<trkpt lat="53.255516" lon="-1.815304"><ele>252</ele><time>2019-08-30T13:58:49Z</time><name>PT12880</name></trkpt>
<trkpt lat="53.255512" lon="-1.815293"><ele>251</ele><time>2019-08-30T13:58:50Z</time><name>PT12881</name></trkpt>
<trkpt lat="53.255513" lon="-1.815283"><ele>251</ele><time>2019-08-30T13:58:51Z</time><name>PT12882</name></trkpt>
<trkpt lat="53.255513" lon="-1.815289"><ele>250</ele><time>2019-08-30T13:58:52Z</time><name>PT12883</name></trkpt>
<trkpt lat="53.255516" lon="-1.815283"><ele>249</ele><time>2019-08-30T13:58:53Z</time><name>PT12884</name></trkpt>
<trkpt lat="53.255523" lon="-1.815280"><ele>248</ele><time>2019-08-30T13:58:54Z</time><name>PT12885</name></trkpt>
<trkpt lat="53.255532" lon="-1.815260"><ele>247</ele><time>2019-08-30T13:58:57Z</time><name>PT12886</name></trkpt>
<trkpt lat="53.255536" lon="-1.815239"><ele>246</ele><time>2019-08-30T13:58:58Z</time><name>PT12887</name></trkpt>
<trkpt lat="53.255539" lon="-1.815224"><ele>245</ele><time>2019-08-30T13:58:59Z</time><name>PT12888</name></trkpt>
<trkpt lat="53.255548" lon="-1.815211"><ele>244</ele><time>2019-08-30T13:59:00Z</time><name>PT12889</name></trkpt>
<trkpt lat="53.255551" lon="-1.815186"><ele>243</ele><time>2019-08-30T13:59:01Z</time><name>PT12890</name></trkpt>
<trkpt lat="53.255552" lon="-1.815178"><ele>243</ele><time>2019-08-30T13:59:02Z</time><name>PT12891</name></trkpt>
<trkpt lat="53.255555" lon="-1.815169"><ele>242</ele><time>2019-08-30T13:59:03Z</time><name>PT12892</name></trkpt>
<trkpt lat="53.255555" lon="-1.815163"><ele>242</ele><time>2019-08-30T13:59:04Z</time><name>PT12893</name></trkpt>
<trkpt lat="53.255556" lon="-1.815155"><ele>241</ele><time>2019-08-30T13:59:05Z</time><name>PT12894</name></trkpt>
<trkpt lat="53.255558" lon="-1.815144"><ele>241</ele><time>2019-08-30T13:59:06Z</time><name>PT12895</name></trkpt>
<trkpt lat="53.255556" lon="-1.815138"><ele>240</ele><time>2019-08-30T13:59:09Z</time><name>PT12896</name></trkpt>
<trkpt lat="53.255561" lon="-1.815133"><ele>239</ele><time>2019-08-30T13:59:10Z</time><name>PT12897</name></trkpt>
<trkpt lat="53.255563" lon="-1.815121"><ele>239</ele><time>2019-08-30T13:59:11Z</time><name>PT12898</name></trkpt>
<trkpt lat="53.255567" lon="-1.815113"><ele>238</ele><time>2019-08-30T13:59:12Z</time><name>PT12899</name></trkpt>
<trkpt lat="53.255572" lon="-1.815104"><ele>238</ele><time>2019-08-30T13:59:13Z</time><name>PT12900</name></trkpt>
<trkpt lat="53.255561" lon="-1.815088"><ele>237</ele><time>2019-08-30T13:59:14Z</time><name>PT12901</name></trkpt>
<trkpt lat="53.255557" lon="-1.815079"><ele>237</ele><time>2019-08-30T13:59:15Z</time><name>PT12902</name></trkpt>
<trkpt lat="53.255549" lon="-1.815069"><ele>236</ele><time>2019-08-30T13:59:16Z</time><name>PT12903</name></trkpt>
<trkpt lat="53.255542" lon="-1.815066"><ele>236</ele><time>2019-08-30T13:59:17Z</time><name>PT12904</name></trkpt>
<trkpt lat="53.255538" lon="-1.815058"><ele>236</ele><time>2019-08-30T13:59:18Z</time><name>PT12905</name></trkpt>
<trkpt lat="53.255534" lon="-1.815051"><ele>235</ele><time>2019-08-30T13:59:19Z</time><name>PT12906</name></trkpt>
<trkpt lat="53.255532" lon="-1.815047"><ele>235</ele><time>2019-08-30T13:59:20Z</time><name>PT12907</name></trkpt>
<trkpt lat="53.255529" lon="-1.815053"><ele>233</ele><time>2019-08-30T13:59:29Z</time><name>PT12908</name></trkpt>
<trkpt lat="53.255532" lon="-1.815047"><ele>233</ele><time>2019-08-30T13:59:30Z</time><name>PT12909</name></trkpt>
<trkpt lat="53.255529" lon="-1.815042"><ele>234</ele><time>2019-08-30T13:59:31Z</time><name>PT12910</name></trkpt>
<trkpt lat="53.255527" lon="-1.815040"><ele>234</ele><time>2019-08-30T13:59:32Z</time><name>PT12911</name></trkpt>
<trkpt lat="53.255527" lon="-1.815032"><ele>234</ele><time>2019-08-30T13:59:35Z</time><name>PT12912</name></trkpt>
<trkpt lat="53.255523" lon="-1.815040"><ele>234</ele><time>2019-08-30T13:59:36Z</time><name>PT12913</name></trkpt>
<trkpt lat="53.255522" lon="-1.815041"><ele>234</ele><time>2019-08-30T13:59:37Z</time><name>PT12914</name></trkpt>
<trkpt lat="53.255520" lon="-1.815036"><ele>234</ele><time>2019-08-30T13:59:38Z</time><name>PT12915</name></trkpt>
<trkpt lat="53.255522" lon="-1.815039"><ele>234</ele><time>2019-08-30T13:59:41Z</time><name>PT12916</name></trkpt>
<trkpt lat="53.255524" lon="-1.815029"><ele>234</ele><time>2019-08-30T13:59:42Z</time><name>PT12917</name></trkpt>
<trkpt lat="53.255518" lon="-1.815010"><ele>234</ele><time>2019-08-30T13:59:43Z</time><name>PT12918</name></trkpt>
<trkpt lat="53.255518" lon="-1.815008"><ele>233</ele><time>2019-08-30T13:59:44Z</time><name>PT12919</name></trkpt>
<trkpt lat="53.255524" lon="-1.814997"><ele>233</ele><time>2019-08-30T13:59:45Z</time><name>PT12920</name></trkpt>
<trkpt lat="53.255513" lon="-1.814987"><ele>233</ele><time>2019-08-30T13:59:46Z</time><name>PT12921</name></trkpt>
<trkpt lat="53.255515" lon="-1.814988"><ele>232</ele><time>2019-08-30T13:59:47Z</time><name>PT12922</name></trkpt>
<trkpt lat="53.255515" lon="-1.814983"><ele>232</ele><time>2019-08-30T13:59:48Z</time><name>PT12923</name></trkpt>
<trkpt lat="53.255519" lon="-1.814981"><ele>232</ele><time>2019-08-30T13:59:49Z</time><name>PT12924</name></trkpt>
<trkpt lat="53.255515" lon="-1.814981"><ele>232</ele><time>2019-08-30T13:59:50Z</time><name>PT12925</name></trkpt>
<trkpt lat="53.255515" lon="-1.814974"><ele>231</ele><time>2019-08-30T13:59:51Z</time><name>PT12926</name></trkpt>
<trkpt lat="53.255514" lon="-1.814967"><ele>231</ele><time>2019-08-30T13:59:52Z</time><name>PT12927</name></trkpt>
<trkpt lat="53.255507" lon="-1.814956"><ele>231</ele><time>2019-08-30T13:59:53Z</time><name>PT12928</name></trkpt>
<trkpt lat="53.255516" lon="-1.814950"><ele>231</ele><time>2019-08-30T13:59:54Z</time><name>PT12929</name></trkpt>
<trkpt lat="53.255518" lon="-1.814942"><ele>230</ele><time>2019-08-30T13:59:55Z</time><name>PT12930</name></trkpt>
<trkpt lat="53.255520" lon="-1.814932"><ele>230</ele><time>2019-08-30T13:59:56Z</time><name>PT12931</name></trkpt>
<trkpt lat="53.255515" lon="-1.814921"><ele>229</ele><time>2019-08-30T13:59:57Z</time><name>PT12932</name></trkpt>
<trkpt lat="53.255509" lon="-1.814913"><ele>229</ele><time>2019-08-30T13:59:58Z</time><name>PT12933</name></trkpt>
<trkpt lat="53.255503" lon="-1.814901"><ele>229</ele><time>2019-08-30T13:59:59Z</time><name>PT12934</name></trkpt>
<trkpt lat="53.255505" lon="-1.814893"><ele>229</ele><time>2019-08-30T14:00:00Z</time><name>PT12935</name></trkpt>
<trkpt lat="53.255502" lon="-1.814891"><ele>228</ele><time>2019-08-30T14:00:01Z</time><name>PT12936</name></trkpt>
<trkpt lat="53.255501" lon="-1.814891"><ele>228</ele><time>2019-08-30T14:00:02Z</time><name>PT12937</name></trkpt>
<trkpt lat="53.255504" lon="-1.814885"><ele>228</ele><time>2019-08-30T14:00:05Z</time><name>PT12938</name></trkpt>
<trkpt lat="53.255506" lon="-1.814878"><ele>227</ele><time>2019-08-30T14:00:06Z</time><name>PT12939</name></trkpt>
<trkpt lat="53.255508" lon="-1.814868"><ele>226</ele><time>2019-08-30T14:00:10Z</time><name>PT12940</name></trkpt>
<trkpt lat="53.255514" lon="-1.814865"><ele>225</ele><time>2019-08-30T14:00:11Z</time><name>PT12941</name></trkpt>
<trkpt lat="53.255519" lon="-1.814865"><ele>224</ele><time>2019-08-30T14:00:12Z</time><name>PT12942</name></trkpt>
<trkpt lat="53.255501" lon="-1.814821"><ele>220</ele><time>2019-08-30T14:00:15Z</time><name>PT12943</name></trkpt>
<trkpt lat="53.255497" lon="-1.814806"><ele>219</ele><time>2019-08-30T14:00:16Z</time><name>PT12944</name></trkpt>
<trkpt lat="53.255498" lon="-1.814795"><ele>218</ele><time>2019-08-30T14:00:17Z</time><name>PT12945</name></trkpt>
<trkpt lat="53.255497" lon="-1.814795"><ele>218</ele><time>2019-08-30T14:00:20Z</time><name>PT12946</name></trkpt>
<trkpt lat="53.255497" lon="-1.814782"><ele>218</ele><time>2019-08-30T14:00:21Z</time><name>PT12947</name></trkpt>
<trkpt lat="53.255501" lon="-1.814787"><ele>218</ele><time>2019-08-30T14:00:22Z</time><name>PT12948</name></trkpt>
<trkpt lat="53.255500" lon="-1.814785"><ele>218</ele><time>2019-08-30T14:00:23Z</time><name>PT12949</name></trkpt>
<trkpt lat="53.255489" lon="-1.814785"><ele>218</ele><time>2019-08-30T14:00:24Z</time><name>PT12950</name></trkpt>
<trkpt lat="53.255493" lon="-1.814779"><ele>218</ele><time>2019-08-30T14:00:25Z</time><name>PT12951</name></trkpt>
<trkpt lat="53.255490" lon="-1.814774"><ele>218</ele><time>2019-08-30T14:00:26Z</time><name>PT12952</name></trkpt>
<trkpt lat="53.255482" lon="-1.814763"><ele>217</ele><time>2019-08-30T14:00:27Z</time><name>PT12953</name></trkpt>
<trkpt lat="53.255480" lon="-1.814761"><ele>218</ele><time>2019-08-30T14:00:28Z</time><name>PT12954</name></trkpt>
<trkpt lat="53.255479" lon="-1.814765"><ele>219</ele><time>2019-08-30T14:00:29Z</time><name>PT12955</name></trkpt>
<trkpt lat="53.255477" lon="-1.814768"><ele>220</ele><time>2019-08-30T14:00:30Z</time><name>PT12956</name></trkpt>
<trkpt lat="53.255473" lon="-1.814775"><ele>220</ele><time>2019-08-30T14:00:31Z</time><name>PT12957</name></trkpt>
<trkpt lat="53.255473" lon="-1.814767"><ele>220</ele><time>2019-08-30T14:00:34Z</time><name>PT12958</name></trkpt>
<trkpt lat="53.255472" lon="-1.814758"><ele>220</ele><time>2019-08-30T14:00:35Z</time><name>PT12959</name></trkpt>
<trkpt lat="53.255483" lon="-1.814734"><ele>220</ele><time>2019-08-30T14:00:36Z</time><name>PT12960</name></trkpt>
<trkpt lat="53.255486" lon="-1.814723"><ele>220</ele><time>2019-08-30T14:00:37Z</time><name>PT12961</name></trkpt>
<trkpt lat="53.255488" lon="-1.814702"><ele>219</ele><time>2019-08-30T14:00:38Z</time><name>PT12962</name></trkpt>
<trkpt lat="53.255491" lon="-1.814689"><ele>219</ele><time>2019-08-30T14:00:39Z</time><name>PT12963</name></trkpt>
<trkpt lat="53.255496" lon="-1.814674"><ele>218</ele><time>2019-08-30T14:00:40Z</time><name>PT12964</name></trkpt>
<trkpt lat="53.255501" lon="-1.814662"><ele>218</ele><time>2019-08-30T14:00:41Z</time><name>PT12965</name></trkpt>
<trkpt lat="53.255505" lon="-1.814649"><ele>217</ele><time>2019-08-30T14:00:42Z</time><name>PT12966</name></trkpt>
<trkpt lat="53.255504" lon="-1.814628"><ele>217</ele><time>2019-08-30T14:00:43Z</time><name>PT12967</name></trkpt>
<trkpt lat="53.255505" lon="-1.814620"><ele>215</ele><time>2019-08-30T14:00:44Z</time><name>PT12968</name></trkpt>
<trkpt lat="53.255501" lon="-1.814625"><ele>213</ele><time>2019-08-30T14:00:45Z</time><name>PT12969</name></trkpt>
<trkpt lat="53.255502" lon="-1.814612"><ele>213</ele><time>2019-08-30T14:00:46Z</time><name>PT12970</name></trkpt>
<trkpt lat="53.255496" lon="-1.814597"><ele>215</ele><time>2019-08-30T14:00:47Z</time><name>PT12971</name></trkpt>
<trkpt lat="53.255488" lon="-1.814586"><ele>216</ele><time>2019-08-30T14:00:48Z</time><name>PT12972</name></trkpt>
<trkpt lat="53.255480" lon="-1.814569"><ele>216</ele><time>2019-08-30T14:00:49Z</time><name>PT12973</name></trkpt>
<trkpt lat="53.255482" lon="-1.814556"><ele>217</ele><time>2019-08-30T14:00:50Z</time><name>PT12974</name></trkpt>
<trkpt lat="53.255471" lon="-1.814539"><ele>218</ele><time>2019-08-30T14:00:51Z</time><name>PT12975</name></trkpt>
<trkpt lat="53.255465" lon="-1.814518"><ele>219</ele><time>2019-08-30T14:00:52Z</time><name>PT12976</name></trkpt>
<trkpt lat="53.255456" lon="-1.814500"><ele>220</ele><time>2019-08-30T14:00:53Z</time><name>PT12977</name></trkpt>
<trkpt lat="53.255449" lon="-1.814484"><ele>220</ele><time>2019-08-30T14:00:54Z</time><name>PT12978</name></trkpt>
<trkpt lat="53.255434" lon="-1.814450"><ele>219</ele><time>2019-08-30T14:00:55Z</time><name>PT12979</name></trkpt>
<trkpt lat="53.255429" lon="-1.814433"><ele>219</ele><time>2019-08-30T14:00:56Z</time><name>PT12980</name></trkpt>
<trkpt lat="53.255429" lon="-1.814404"><ele>219</ele><time>2019-08-30T14:00:57Z</time><name>PT12981</name></trkpt>
<trkpt lat="53.255430" lon="-1.814392"><ele>219</ele><time>2019-08-30T14:00:58Z</time><name>PT12982</name></trkpt>
<trkpt lat="53.255430" lon="-1.814377"><ele>220</ele><time>2019-08-30T14:00:59Z</time><name>PT12983</name></trkpt>
<trkpt lat="53.255425" lon="-1.814363"><ele>220</ele><time>2019-08-30T14:01:00Z</time><name>PT12984</name></trkpt>
<trkpt lat="53.255427" lon="-1.814353"><ele>220</ele><time>2019-08-30T14:01:01Z</time><name>PT12985</name></trkpt>
<trkpt lat="53.255425" lon="-1.814352"><ele>221</ele><time>2019-08-30T14:01:02Z</time><name>PT12986</name></trkpt>
<trkpt lat="53.255424" lon="-1.814336"><ele>222</ele><time>2019-08-30T14:01:03Z</time><name>PT12987</name></trkpt>
<trkpt lat="53.255431" lon="-1.814323"><ele>222</ele><time>2019-08-30T14:01:04Z</time><name>PT12988</name></trkpt>
<trkpt lat="53.255435" lon="-1.814310"><ele>224</ele><time>2019-08-30T14:01:05Z</time><name>PT12989</name></trkpt>
<trkpt lat="53.255428" lon="-1.814294"><ele>223</ele><time>2019-08-30T14:01:06Z</time><name>PT12990</name></trkpt>
<trkpt lat="53.255427" lon="-1.814283"><ele>223</ele><time>2019-08-30T14:01:07Z</time><name>PT12991</name></trkpt>
<trkpt lat="53.255427" lon="-1.814269"><ele>226</ele><time>2019-08-30T14:01:08Z</time><name>PT12992</name></trkpt>
<trkpt lat="53.255423" lon="-1.814258"><ele>226</ele><time>2019-08-30T14:01:09Z</time><name>PT12993</name></trkpt>
<trkpt lat="53.255419" lon="-1.814235"><ele>228</ele><time>2019-08-30T14:01:10Z</time><name>PT12994</name></trkpt>
<trkpt lat="53.255417" lon="-1.814218"><ele>229</ele><time>2019-08-30T14:01:11Z</time><name>PT12995</name></trkpt>
<trkpt lat="53.255409" lon="-1.814203"><ele>230</ele><time>2019-08-30T14:01:12Z</time><name>PT12996</name></trkpt>
<trkpt lat="53.255400" lon="-1.814186"><ele>231</ele><time>2019-08-30T14:01:13Z</time><name>PT12997</name></trkpt>
<trkpt lat="53.255398" lon="-1.814164"><ele>231</ele><time>2019-08-30T14:01:14Z</time><name>PT12998</name></trkpt>
<trkpt lat="53.255394" lon="-1.814148"><ele>231</ele><time>2019-08-30T14:01:15Z</time><name>PT12999</name></trkpt>
<trkpt lat="53.255387" lon="-1.814133"><ele>233</ele><time>2019-08-30T14:01:16Z</time><name>PT13000</name></trkpt>
<trkpt lat="53.255392" lon="-1.814121"><ele>235</ele><time>2019-08-30T14:01:17Z</time><name>PT13001</name></trkpt>
<trkpt lat="53.255389" lon="-1.814099"><ele>234</ele><time>2019-08-30T14:01:18Z</time><name>PT13002</name></trkpt>
<trkpt lat="53.255380" lon="-1.814084"><ele>234</ele><time>2019-08-30T14:01:19Z</time><name>PT13003</name></trkpt>
<trkpt lat="53.255371" lon="-1.814067"><ele>233</ele><time>2019-08-30T14:01:20Z</time><name>PT13004</name></trkpt>
<trkpt lat="53.255369" lon="-1.814055"><ele>233</ele><time>2019-08-30T14:01:21Z</time><name>PT13005</name></trkpt>
<trkpt lat="53.255372" lon="-1.814051"><ele>230</ele><time>2019-08-30T14:01:22Z</time><name>PT13006</name></trkpt>
<trkpt lat="53.255367" lon="-1.814047"><ele>230</ele><time>2019-08-30T14:01:23Z</time><name>PT13007</name></trkpt>
<trkpt lat="53.255365" lon="-1.814033"><ele>231</ele><time>2019-08-30T14:01:24Z</time><name>PT13008</name></trkpt>
<trkpt lat="53.255361" lon="-1.814008"><ele>231</ele><time>2019-08-30T14:01:25Z</time><name>PT13009</name></trkpt>
<trkpt lat="53.255353" lon="-1.813983"><ele>230</ele><time>2019-08-30T14:01:26Z</time><name>PT13010</name></trkpt>
<trkpt lat="53.255353" lon="-1.813955"><ele>229</ele><time>2019-08-30T14:01:27Z</time><name>PT13011</name></trkpt>
<trkpt lat="53.255340" lon="-1.813943"><ele>229</ele><time>2019-08-30T14:01:28Z</time><name>PT13012</name></trkpt>
<trkpt lat="53.255336" lon="-1.813926"><ele>229</ele><time>2019-08-30T14:01:29Z</time><name>PT13013</name></trkpt>
<trkpt lat="53.255317" lon="-1.813915"><ele>229</ele><time>2019-08-30T14:01:30Z</time><name>PT13014</name></trkpt>
<trkpt lat="53.255309" lon="-1.813903"><ele>229</ele><time>2019-08-30T14:01:31Z</time><name>PT13015</name></trkpt>
<trkpt lat="53.255298" lon="-1.813889"><ele>228</ele><time>2019-08-30T14:01:32Z</time><name>PT13016</name></trkpt>
<trkpt lat="53.255292" lon="-1.813860"><ele>228</ele><time>2019-08-30T14:01:33Z</time><name>PT13017</name></trkpt>
<trkpt lat="53.255283" lon="-1.813836"><ele>227</ele><time>2019-08-30T14:01:34Z</time><name>PT13018</name></trkpt>
<trkpt lat="53.255284" lon="-1.813820"><ele>227</ele><time>2019-08-30T14:01:35Z</time><name>PT13019</name></trkpt>
<trkpt lat="53.255282" lon="-1.813806"><ele>227</ele><time>2019-08-30T14:01:36Z</time><name>PT13020</name></trkpt>
<trkpt lat="53.255284" lon="-1.813792"><ele>227</ele><time>2019-08-30T14:01:37Z</time><name>PT13021</name></trkpt>
<trkpt lat="53.255283" lon="-1.813778"><ele>226</ele><time>2019-08-30T14:01:38Z</time><name>PT13022</name></trkpt>
<trkpt lat="53.255273" lon="-1.813770"><ele>226</ele><time>2019-08-30T14:01:39Z</time><name>PT13023</name></trkpt>
<trkpt lat="53.255277" lon="-1.813760"><ele>225</ele><time>2019-08-30T14:01:40Z</time><name>PT13024</name></trkpt>
<trkpt lat="53.255277" lon="-1.813743"><ele>224</ele><time>2019-08-30T14:01:41Z</time><name>PT13025</name></trkpt>
<trkpt lat="53.255269" lon="-1.813728"><ele>223</ele><time>2019-08-30T14:01:42Z</time><name>PT13026</name></trkpt>
<trkpt lat="53.255262" lon="-1.813715"><ele>223</ele><time>2019-08-30T14:01:43Z</time><name>PT13027</name></trkpt>
<trkpt lat="53.255254" lon="-1.813707"><ele>224</ele><time>2019-08-30T14:01:44Z</time><name>PT13028</name></trkpt>
<trkpt lat="53.255243" lon="-1.813704"><ele>222</ele><time>2019-08-30T14:01:45Z</time><name>PT13029</name></trkpt>
<trkpt lat="53.255230" lon="-1.813695"><ele>222</ele><time>2019-08-30T14:01:46Z</time><name>PT13030</name></trkpt>
<trkpt lat="53.255214" lon="-1.813682"><ele>222</ele><time>2019-08-30T14:01:47Z</time><name>PT13031</name></trkpt>
<trkpt lat="53.255202" lon="-1.813673"><ele>224</ele><time>2019-08-30T14:01:48Z</time><name>PT13032</name></trkpt>
<trkpt lat="53.255185" lon="-1.813648"><ele>225</ele><time>2019-08-30T14:02:00Z</time><name>PT13033</name></trkpt>
<trkpt lat="53.255185" lon="-1.813649"><ele>225</ele><time>2019-08-30T14:02:01Z</time><name>PT13034</name></trkpt>
<trkpt lat="53.255185" lon="-1.813648"><ele>225</ele><time>2019-08-30T14:02:02Z</time><name>PT13035</name></trkpt>
<trkpt lat="53.255186" lon="-1.813638"><ele>225</ele><time>2019-08-30T14:02:03Z</time><name>PT13036</name></trkpt>
<trkpt lat="53.255181" lon="-1.813629"><ele>225</ele><time>2019-08-30T14:02:04Z</time><name>PT13037</name></trkpt>
<trkpt lat="53.255170" lon="-1.813616"><ele>225</ele><time>2019-08-30T14:02:05Z</time><name>PT13038</name></trkpt>
<trkpt lat="53.255152" lon="-1.813601"><ele>225</ele><time>2019-08-30T14:02:06Z</time><name>PT13039</name></trkpt>
<trkpt lat="53.255142" lon="-1.813581"><ele>226</ele><time>2019-08-30T14:02:07Z</time><name>PT13040</name></trkpt>
<trkpt lat="53.255113" lon="-1.813564"><ele>225</ele><time>2019-08-30T14:02:08Z</time><name>PT13041</name></trkpt>
<trkpt lat="53.255099" lon="-1.813555"><ele>223</ele><time>2019-08-30T14:02:09Z</time><name>PT13042</name></trkpt>
<trkpt lat="53.255075" lon="-1.813548"><ele>224</ele><time>2019-08-30T14:02:10Z</time><name>PT13043</name></trkpt>
<trkpt lat="53.255066" lon="-1.813542"><ele>224</ele><time>2019-08-30T14:02:11Z</time><name>PT13044</name></trkpt>
<trkpt lat="53.255058" lon="-1.813543"><ele>225</ele><time>2019-08-30T14:02:12Z</time><name>PT13045</name></trkpt>
<trkpt lat="53.255051" lon="-1.813543"><ele>226</ele><time>2019-08-30T14:02:13Z</time><name>PT13046</name></trkpt>
<trkpt lat="53.255040" lon="-1.813538"><ele>227</ele><time>2019-08-30T14:02:14Z</time><name>PT13047</name></trkpt>
<trkpt lat="53.255036" lon="-1.813524"><ele>226</ele><time>2019-08-30T14:02:15Z</time><name>PT13048</name></trkpt>
<trkpt lat="53.255027" lon="-1.813517"><ele>227</ele><time>2019-08-30T14:02:16Z</time><name>PT13049</name></trkpt>
<trkpt lat="53.255022" lon="-1.813509"><ele>228</ele><time>2019-08-30T14:02:17Z</time><name>PT13050</name></trkpt>
<trkpt lat="53.255015" lon="-1.813504"><ele>228</ele><time>2019-08-30T14:02:18Z</time><name>PT13051</name></trkpt>
<trkpt lat="53.255004" lon="-1.813501"><ele>229</ele><time>2019-08-30T14:02:19Z</time><name>PT13052</name></trkpt>
<trkpt lat="53.254994" lon="-1.813504"><ele>231</ele><time>2019-08-30T14:02:20Z</time><name>PT13053</name></trkpt>
<trkpt lat="53.254985" lon="-1.813507"><ele>230</ele><time>2019-08-30T14:02:21Z</time><name>PT13054</name></trkpt>
<trkpt lat="53.254976" lon="-1.813505"><ele>230</ele><time>2019-08-30T14:02:22Z</time><name>PT13055</name></trkpt>
<trkpt lat="53.254971" lon="-1.813511"><ele>229</ele><time>2019-08-30T14:02:23Z</time><name>PT13056</name></trkpt>
<trkpt lat="53.254967" lon="-1.813508"><ele>228</ele><time>2019-08-30T14:02:24Z</time><name>PT13057</name></trkpt>
<trkpt lat="53.254973" lon="-1.813487"><ele>228</ele><time>2019-08-30T14:02:25Z</time><name>PT13058</name></trkpt>
<trkpt lat="53.254968" lon="-1.813479"><ele>228</ele><time>2019-08-30T14:02:26Z</time><name>PT13059</name></trkpt>
<trkpt lat="53.254973" lon="-1.813479"><ele>228</ele><time>2019-08-30T14:02:27Z</time><name>PT13060</name></trkpt>
<trkpt lat="53.254974" lon="-1.813468"><ele>228</ele><time>2019-08-30T14:02:28Z</time><name>PT13061</name></trkpt>
<trkpt lat="53.254968" lon="-1.813470"><ele>227</ele><time>2019-08-30T14:02:29Z</time><name>PT13062</name></trkpt>
<trkpt lat="53.254964" lon="-1.813473"><ele>227</ele><time>2019-08-30T14:02:30Z</time><name>PT13063</name></trkpt>
<trkpt lat="53.254958" lon="-1.813478"><ele>228</ele><time>2019-08-30T14:02:31Z</time><name>PT13064</name></trkpt>
<trkpt lat="53.254948" lon="-1.813478"><ele>228</ele><time>2019-08-30T14:02:32Z</time><name>PT13065</name></trkpt>
<trkpt lat="53.254945" lon="-1.813471"><ele>223</ele><time>2019-08-30T14:02:33Z</time><name>PT13066</name></trkpt>
<trkpt lat="53.254922" lon="-1.813475"><ele>225</ele><time>2019-08-30T14:02:34Z</time><name>PT13067</name></trkpt>
<trkpt lat="53.254912" lon="-1.813468"><ele>226</ele><time>2019-08-30T14:02:35Z</time><name>PT13068</name></trkpt>
<trkpt lat="53.254905" lon="-1.813462"><ele>225</ele><time>2019-08-30T14:02:36Z</time><name>PT13069</name></trkpt>
<trkpt lat="53.254897" lon="-1.813464"><ele>225</ele><time>2019-08-30T14:02:37Z</time><name>PT13070</name></trkpt>
<trkpt lat="53.254881" lon="-1.813487"><ele>229</ele><time>2019-08-30T14:02:38Z</time><name>PT13071</name></trkpt>
<trkpt lat="53.254865" lon="-1.813496"><ele>231</ele><time>2019-08-30T14:02:39Z</time><name>PT13072</name></trkpt>
<trkpt lat="53.254854" lon="-1.813497"><ele>233</ele><time>2019-08-30T14:02:40Z</time><name>PT13073</name></trkpt>
<trkpt lat="53.254850" lon="-1.813500"><ele>234</ele><time>2019-08-30T14:02:41Z</time><name>PT13074</name></trkpt>
<trkpt lat="53.254840" lon="-1.813513"><ele>235</ele><time>2019-08-30T14:02:42Z</time><name>PT13075</name></trkpt>
<trkpt lat="53.254837" lon="-1.813520"><ele>236</ele><time>2019-08-30T14:02:43Z</time><name>PT13076</name></trkpt>
<trkpt lat="53.254832" lon="-1.813522"><ele>237</ele><time>2019-08-30T14:02:44Z</time><name>PT13077</name></trkpt>
<trkpt lat="53.254828" lon="-1.813521"><ele>235</ele><time>2019-08-30T14:02:45Z</time><name>PT13078</name></trkpt>
<trkpt lat="53.254815" lon="-1.813516"><ele>234</ele><time>2019-08-30T14:02:46Z</time><name>PT13079</name></trkpt>
<trkpt lat="53.254806" lon="-1.813515"><ele>234</ele><time>2019-08-30T14:02:47Z</time><name>PT13080</name></trkpt>
<trkpt lat="53.254803" lon="-1.813527"><ele>235</ele><time>2019-08-30T14:02:48Z</time><name>PT13081</name></trkpt>
<trkpt lat="53.254799" lon="-1.813522"><ele>235</ele><time>2019-08-30T14:02:49Z</time><name>PT13082</name></trkpt>
<trkpt lat="53.254786" lon="-1.813524"><ele>234</ele><time>2019-08-30T14:02:50Z</time><name>PT13083</name></trkpt>
<trkpt lat="53.254774" lon="-1.813522"><ele>235</ele><time>2019-08-30T14:02:51Z</time><name>PT13084</name></trkpt>
<trkpt lat="53.254783" lon="-1.813507"><ele>234</ele><time>2019-08-30T14:02:52Z</time><name>PT13085</name></trkpt>
<trkpt lat="53.254775" lon="-1.813507"><ele>234</ele><time>2019-08-30T14:02:53Z</time><name>PT13086</name></trkpt>
<trkpt lat="53.254761" lon="-1.813529"><ele>234</ele><time>2019-08-30T14:02:54Z</time><name>PT13087</name></trkpt>
<trkpt lat="53.254742" lon="-1.813539"><ele>234</ele><time>2019-08-30T14:02:55Z</time><name>PT13088</name></trkpt>
<trkpt lat="53.254734" lon="-1.813537"><ele>235</ele><time>2019-08-30T14:02:56Z</time><name>PT13089</name></trkpt>
<trkpt lat="53.254723" lon="-1.813531"><ele>236</ele><time>2019-08-30T14:02:57Z</time><name>PT13090</name></trkpt>
<trkpt lat="53.254713" lon="-1.813536"><ele>238</ele><time>2019-08-30T14:02:58Z</time><name>PT13091</name></trkpt>
<trkpt lat="53.254705" lon="-1.813551"><ele>240</ele><time>2019-08-30T14:02:59Z</time><name>PT13092</name></trkpt>
<trkpt lat="53.254688" lon="-1.813556"><ele>242</ele><time>2019-08-30T14:03:00Z</time><name>PT13093</name></trkpt>
<trkpt lat="53.254677" lon="-1.813554"><ele>242</ele><time>2019-08-30T14:03:01Z</time><name>PT13094</name></trkpt>
<trkpt lat="53.254660" lon="-1.813549"><ele>241</ele><time>2019-08-30T14:03:02Z</time><name>PT13095</name></trkpt>
<trkpt lat="53.254651" lon="-1.813544"><ele>241</ele><time>2019-08-30T14:03:03Z</time><name>PT13096</name></trkpt>
<trkpt lat="53.254646" lon="-1.813527"><ele>240</ele><time>2019-08-30T14:03:04Z</time><name>PT13097</name></trkpt>
<trkpt lat="53.254637" lon="-1.813536"><ele>240</ele><time>2019-08-30T14:03:05Z</time><name>PT13098</name></trkpt>
<trkpt lat="53.254631" lon="-1.813536"><ele>239</ele><time>2019-08-30T14:03:06Z</time><name>PT13099</name></trkpt>
<trkpt lat="53.254624" lon="-1.813514"><ele>237</ele><time>2019-08-30T14:03:07Z</time><name>PT13100</name></trkpt>
<trkpt lat="53.254617" lon="-1.813513"><ele>237</ele><time>2019-08-30T14:03:08Z</time><name>PT13101</name></trkpt>
<trkpt lat="53.254617" lon="-1.813508"><ele>235</ele><time>2019-08-30T14:03:09Z</time><name>PT13102</name></trkpt>
<trkpt lat="53.254614" lon="-1.813507"><ele>235</ele><time>2019-08-30T14:03:10Z</time><name>PT13103</name></trkpt>
<trkpt lat="53.254611" lon="-1.813502"><ele>236</ele><time>2019-08-30T14:03:11Z</time><name>PT13104</name></trkpt>
<trkpt lat="53.254601" lon="-1.813496"><ele>238</ele><time>2019-08-30T14:03:12Z</time><name>PT13105</name></trkpt>
<trkpt lat="53.254596" lon="-1.813489"><ele>237</ele><time>2019-08-30T14:03:13Z</time><name>PT13106</name></trkpt>
<trkpt lat="53.254593" lon="-1.813485"><ele>236</ele><time>2019-08-30T14:03:14Z</time><name>PT13107</name></trkpt>
<trkpt lat="53.254583" lon="-1.813482"><ele>237</ele><time>2019-08-30T14:03:15Z</time><name>PT13108</name></trkpt>
<trkpt lat="53.254571" lon="-1.813474"><ele>236</ele><time>2019-08-30T14:03:17Z</time><name>PT13109</name></trkpt>
<trkpt lat="53.254557" lon="-1.813469"><ele>237</ele><time>2019-08-30T14:03:18Z</time><name>PT13110</name></trkpt>
<trkpt lat="53.254557" lon="-1.813477"><ele>235</ele><time>2019-08-30T14:03:19Z</time><name>PT13111</name></trkpt>
<trkpt lat="53.254557" lon="-1.813471"><ele>235</ele><time>2019-08-30T14:03:20Z</time><name>PT13112</name></trkpt>
<trkpt lat="53.254557" lon="-1.813476"><ele>235</ele><time>2019-08-30T14:03:21Z</time><name>PT13113</name></trkpt>
<trkpt lat="53.254554" lon="-1.813486"><ele>235</ele><time>2019-08-30T14:03:22Z</time><name>PT13114</name></trkpt>
<trkpt lat="53.254552" lon="-1.813491"><ele>236</ele><time>2019-08-30T14:03:23Z</time><name>PT13115</name></trkpt>
<trkpt lat="53.254549" lon="-1.813492"><ele>236</ele><time>2019-08-30T14:03:24Z</time><name>PT13116</name></trkpt>
<trkpt lat="53.254546" lon="-1.813496"><ele>237</ele><time>2019-08-30T14:03:25Z</time><name>PT13117</name></trkpt>
<trkpt lat="53.254543" lon="-1.813492"><ele>236</ele><time>2019-08-30T14:03:27Z</time><name>PT13118</name></trkpt>
<trkpt lat="53.254548" lon="-1.813495"><ele>237</ele><time>2019-08-30T14:03:28Z</time><name>PT13119</name></trkpt>
<trkpt lat="53.254545" lon="-1.813502"><ele>236</ele><time>2019-08-30T14:03:29Z</time><name>PT13120</name></trkpt>
<trkpt lat="53.254544" lon="-1.813503"><ele>236</ele><time>2019-08-30T14:03:30Z</time><name>PT13121</name></trkpt>
<trkpt lat="53.254534" lon="-1.813498"><ele>237</ele><time>2019-08-30T14:03:31Z</time><name>PT13122</name></trkpt>
<trkpt lat="53.254527" lon="-1.813494"><ele>237</ele><time>2019-08-30T14:03:32Z</time><name>PT13123</name></trkpt>
<trkpt lat="53.254522" lon="-1.813494"><ele>237</ele><time>2019-08-30T14:03:33Z</time><name>PT13124</name></trkpt>
<trkpt lat="53.254525" lon="-1.813493"><ele>236</ele><time>2019-08-30T14:03:49Z</time><name>PT13125</name></trkpt>
<trkpt lat="53.254522" lon="-1.813499"><ele>236</ele><time>2019-08-30T14:03:50Z</time><name>PT13126</name></trkpt>
<trkpt lat="53.254535" lon="-1.813490"><ele>236</ele><time>2019-08-30T14:04:05Z</time><name>PT13127</name></trkpt>
<trkpt lat="53.254535" lon="-1.813492"><ele>237</ele><time>2019-08-30T14:04:06Z</time><name>PT13128</name></trkpt>
<trkpt lat="53.254536" lon="-1.813494"><ele>237</ele><time>2019-08-30T14:04:07Z</time><name>PT13129</name></trkpt>
<trkpt lat="53.254538" lon="-1.813498"><ele>237</ele><time>2019-08-30T14:04:16Z</time><name>PT13130</name></trkpt>
<trkpt lat="53.254548" lon="-1.813502"><ele>237</ele><time>2019-08-30T14:04:17Z</time><name>PT13131</name></trkpt>
<trkpt lat="53.254553" lon="-1.813506"><ele>237</ele><time>2019-08-30T14:04:18Z</time><name>PT13132</name></trkpt>
<trkpt lat="53.254558" lon="-1.813503"><ele>236</ele><time>2019-08-30T14:04:20Z</time><name>PT13133</name></trkpt>
<trkpt lat="53.254544" lon="-1.813516"><ele>236</ele><time>2019-08-30T14:04:21Z</time><name>PT13134</name></trkpt>
<trkpt lat="53.254536" lon="-1.813524"><ele>236</ele><time>2019-08-30T14:04:22Z</time><name>PT13135</name></trkpt>
<trkpt lat="53.254534" lon="-1.813524"><ele>236</ele><time>2019-08-30T14:04:23Z</time><name>PT13136</name></trkpt>
<trkpt lat="53.254542" lon="-1.813493"><ele>235</ele><time>2019-08-30T14:05:25Z</time><name>PT13137</name></trkpt>
<trkpt lat="53.254543" lon="-1.813487"><ele>236</ele><time>2019-08-30T14:05:26Z</time><name>PT13138</name></trkpt>
<trkpt lat="53.254543" lon="-1.813488"><ele>236</ele><time>2019-08-30T14:05:27Z</time><name>PT13139</name></trkpt>
<trkpt lat="53.254536" lon="-1.813504"><ele>236</ele><time>2019-08-30T14:05:47Z</time><name>PT13140</name></trkpt>
<trkpt lat="53.254532" lon="-1.813508"><ele>235</ele><time>2019-08-30T14:05:48Z</time><name>PT13141</name></trkpt>
<trkpt lat="53.254534" lon="-1.813504"><ele>234</ele><time>2019-08-30T14:05:49Z</time><name>PT13142</name></trkpt>
<trkpt lat="53.254532" lon="-1.813506"><ele>234</ele><time>2019-08-30T14:05:50Z</time><name>PT13143</name></trkpt>
<trkpt lat="53.254528" lon="-1.813496"><ele>234</ele><time>2019-08-30T14:05:51Z</time><name>PT13144</name></trkpt>
<trkpt lat="53.254529" lon="-1.813486"><ele>234</ele><time>2019-08-30T14:05:52Z</time><name>PT13145</name></trkpt>
<trkpt lat="53.254515" lon="-1.813490"><ele>234</ele><time>2019-08-30T14:06:03Z</time><name>PT13146</name></trkpt>
<trkpt lat="53.254504" lon="-1.813479"><ele>233</ele><time>2019-08-30T14:06:04Z</time><name>PT13147</name></trkpt>
<trkpt lat="53.254505" lon="-1.813477"><ele>233</ele><time>2019-08-30T14:06:19Z</time><name>PT13148</name></trkpt>
<trkpt lat="53.254505" lon="-1.813479"><ele>232</ele><time>2019-08-30T14:06:20Z</time><name>PT13149</name></trkpt>
<trkpt lat="53.254502" lon="-1.813478"><ele>233</ele><time>2019-08-30T14:06:21Z</time><name>PT13150</name></trkpt>
<trkpt lat="53.254499" lon="-1.813471"><ele>232</ele><time>2019-08-30T14:06:22Z</time><name>PT13151</name></trkpt>
<trkpt lat="53.254493" lon="-1.813468"><ele>231</ele><time>2019-08-30T14:06:23Z</time><name>PT13152</name></trkpt>
<trkpt lat="53.254490" lon="-1.813465"><ele>231</ele><time>2019-08-30T14:06:24Z</time><name>PT13153</name></trkpt>
<trkpt lat="53.254488" lon="-1.813466"><ele>231</ele><time>2019-08-30T14:06:25Z</time><name>PT13154</name></trkpt>
<trkpt lat="53.254492" lon="-1.813457"><ele>233</ele><time>2019-08-30T14:06:32Z</time><name>PT13155</name></trkpt>
<trkpt lat="53.254497" lon="-1.813458"><ele>233</ele><time>2019-08-30T14:06:33Z</time><name>PT13156</name></trkpt>
<trkpt lat="53.254509" lon="-1.813443"><ele>233</ele><time>2019-08-30T14:06:34Z</time><name>PT13157</name></trkpt>
<trkpt lat="53.254513" lon="-1.813448"><ele>232</ele><time>2019-08-30T14:06:42Z</time><name>PT13158</name></trkpt>
<trkpt lat="53.254516" lon="-1.813448"><ele>231</ele><time>2019-08-30T14:06:43Z</time><name>PT13159</name></trkpt>
<trkpt lat="53.254519" lon="-1.813452"><ele>231</ele><time>2019-08-30T14:06:44Z</time><name>PT13160</name></trkpt>
<trkpt lat="53.254512" lon="-1.813459"><ele>232</ele><time>2019-08-30T14:06:56Z</time><name>PT13161</name></trkpt>
<trkpt lat="53.254509" lon="-1.813463"><ele>232</ele><time>2019-08-30T14:06:57Z</time><name>PT13162</name></trkpt>
<trkpt lat="53.254510" lon="-1.813469"><ele>232</ele><time>2019-08-30T14:06:58Z</time><name>PT13163</name></trkpt>
<trkpt lat="53.254508" lon="-1.813477"><ele>234</ele><time>2019-08-30T14:07:47Z</time><name>PT13164</name></trkpt>
<trkpt lat="53.254508" lon="-1.813476"><ele>233</ele><time>2019-08-30T14:07:48Z</time><name>PT13165</name></trkpt>
<trkpt lat="53.254518" lon="-1.813472"><ele>233</ele><time>2019-08-30T14:07:49Z</time><name>PT13166</name></trkpt>
<trkpt lat="53.254523" lon="-1.813468"><ele>233</ele><time>2019-08-30T14:07:50Z</time><name>PT13167</name></trkpt>
<trkpt lat="53.254536" lon="-1.813424"><ele>234</ele><time>2019-08-30T14:08:42Z</time><name>PT13168</name></trkpt>
<trkpt lat="53.254531" lon="-1.813395"><ele>236</ele><time>2019-08-30T14:08:43Z</time><name>PT13169</name></trkpt>
<trkpt lat="53.254532" lon="-1.813391"><ele>236</ele><time>2019-08-30T14:08:44Z</time><name>PT13170</name></trkpt>
<trkpt lat="53.254536" lon="-1.813407"><ele>237</ele><time>2019-08-30T14:09:12Z</time><name>PT13171</name></trkpt>
<trkpt lat="53.254535" lon="-1.813416"><ele>237</ele><time>2019-08-30T14:09:13Z</time><name>PT13172</name></trkpt>
<trkpt lat="53.254535" lon="-1.813430"><ele>237</ele><time>2019-08-30T14:09:14Z</time><name>PT13173</name></trkpt>
<trkpt lat="53.254536" lon="-1.813437"><ele>237</ele><time>2019-08-30T14:09:15Z</time><name>PT13174</name></trkpt>
<trkpt lat="53.254538" lon="-1.813442"><ele>237</ele><time>2019-08-30T14:09:16Z</time><name>PT13175</name></trkpt>
<trkpt lat="53.254543" lon="-1.813443"><ele>238</ele><time>2019-08-30T14:09:17Z</time><name>PT13176</name></trkpt>
<trkpt lat="53.254540" lon="-1.813448"><ele>238</ele><time>2019-08-30T14:09:18Z</time><name>PT13177</name></trkpt>
<trkpt lat="53.254536" lon="-1.813455"><ele>238</ele><time>2019-08-30T14:09:19Z</time><name>PT13178</name></trkpt>
<trkpt lat="53.254534" lon="-1.813455"><ele>238</ele><time>2019-08-30T14:09:20Z</time><name>PT13179</name></trkpt>
<trkpt lat="53.254535" lon="-1.813456"><ele>236</ele><time>2019-08-30T14:10:03Z</time><name>PT13180</name></trkpt>
<trkpt lat="53.254534" lon="-1.813463"><ele>236</ele><time>2019-08-30T14:10:04Z</time><name>PT13181</name></trkpt>
<trkpt lat="53.254530" lon="-1.813472"><ele>235</ele><time>2019-08-30T14:10:05Z</time><name>PT13182</name></trkpt>
<trkpt lat="53.254528" lon="-1.813469"><ele>234</ele><time>2019-08-30T14:10:06Z</time><name>PT13183</name></trkpt>
<trkpt lat="53.254527" lon="-1.813466"><ele>234</ele><time>2019-08-30T14:10:07Z</time><name>PT13184</name></trkpt>
<trkpt lat="53.254523" lon="-1.813464"><ele>233</ele><time>2019-08-30T14:10:08Z</time><name>PT13185</name></trkpt>
<trkpt lat="53.254522" lon="-1.813466"><ele>233</ele><time>2019-08-30T14:10:09Z</time><name>PT13186</name></trkpt>
<trkpt lat="53.254524" lon="-1.813470"><ele>233</ele><time>2019-08-30T14:10:10Z</time><name>PT13187</name></trkpt>
<trkpt lat="53.254527" lon="-1.813473"><ele>233</ele><time>2019-08-30T14:10:11Z</time><name>PT13188</name></trkpt>
<trkpt lat="53.254527" lon="-1.813470"><ele>233</ele><time>2019-08-30T14:10:12Z</time><name>PT13189</name></trkpt>
<trkpt lat="53.254523" lon="-1.813463"><ele>233</ele><time>2019-08-30T14:10:37Z</time><name>PT13190</name></trkpt>
<trkpt lat="53.254523" lon="-1.813461"><ele>233</ele><time>2019-08-30T14:10:38Z</time><name>PT13191</name></trkpt>
<trkpt lat="53.254518" lon="-1.813450"><ele>233</ele><time>2019-08-30T14:10:39Z</time><name>PT13192</name></trkpt>
<trkpt lat="53.254514" lon="-1.813449"><ele>233</ele><time>2019-08-30T14:10:40Z</time><name>PT13193</name></trkpt>
<trkpt lat="53.254513" lon="-1.813450"><ele>233</ele><time>2019-08-30T14:10:41Z</time><name>PT13194</name></trkpt>
<trkpt lat="53.254504" lon="-1.813440"><ele>232</ele><time>2019-08-30T14:10:42Z</time><name>PT13195</name></trkpt>
<trkpt lat="53.254503" lon="-1.813439"><ele>232</ele><time>2019-08-30T14:10:43Z</time><name>PT13196</name></trkpt>
<trkpt lat="53.254498" lon="-1.813427"><ele>233</ele><time>2019-08-30T14:10:44Z</time><name>PT13197</name></trkpt>
<trkpt lat="53.254488" lon="-1.813422"><ele>233</ele><time>2019-08-30T14:10:45Z</time><name>PT13198</name></trkpt>
<trkpt lat="53.254486" lon="-1.813417"><ele>233</ele><time>2019-08-30T14:10:46Z</time><name>PT13199</name></trkpt>
<trkpt lat="53.254493" lon="-1.813414"><ele>233</ele><time>2019-08-30T14:10:47Z</time><name>PT13200</name></trkpt>
<trkpt lat="53.254495" lon="-1.813408"><ele>234</ele><time>2019-08-30T14:10:48Z</time><name>PT13201</name></trkpt>
<trkpt lat="53.254495" lon="-1.813403"><ele>234</ele><time>2019-08-30T14:10:49Z</time><name>PT13202</name></trkpt>
<trkpt lat="53.254497" lon="-1.813399"><ele>233</ele><time>2019-08-30T14:10:50Z</time><name>PT13203</name></trkpt>
<trkpt lat="53.254498" lon="-1.813401"><ele>233</ele><time>2019-08-30T14:10:51Z</time><name>PT13204</name></trkpt>
<trkpt lat="53.254495" lon="-1.813423"><ele>237</ele><time>2019-08-30T14:11:20Z</time><name>PT13205</name></trkpt>
<trkpt lat="53.254497" lon="-1.813417"><ele>238</ele><time>2019-08-30T14:11:21Z</time><name>PT13206</name></trkpt>
<trkpt lat="53.254493" lon="-1.813414"><ele>239</ele><time>2019-08-30T14:11:32Z</time><name>PT13207</name></trkpt>
<trkpt lat="53.254487" lon="-1.813419"><ele>239</ele><time>2019-08-30T14:11:33Z</time><name>PT13208</name></trkpt>
<trkpt lat="53.254487" lon="-1.813418"><ele>239</ele><time>2019-08-30T14:11:34Z</time><name>PT13209</name></trkpt>
<trkpt lat="53.254486" lon="-1.813421"><ele>239</ele><time>2019-08-30T14:11:35Z</time><name>PT13210</name></trkpt>
<trkpt lat="53.254486" lon="-1.813423"><ele>238</ele><time>2019-08-30T14:11:36Z</time><name>PT13211</name></trkpt>
<trkpt lat="53.254485" lon="-1.813432"><ele>238</ele><time>2019-08-30T14:11:41Z</time><name>PT13212</name></trkpt>
<trkpt lat="53.254481" lon="-1.813439"><ele>238</ele><time>2019-08-30T14:11:42Z</time><name>PT13213</name></trkpt>
<trkpt lat="53.254476" lon="-1.813448"><ele>238</ele><time>2019-08-30T14:11:43Z</time><name>PT13214</name></trkpt>
<trkpt lat="53.254479" lon="-1.813453"><ele>238</ele><time>2019-08-30T14:11:48Z</time><name>PT13215</name></trkpt>
<trkpt lat="53.254477" lon="-1.813464"><ele>238</ele><time>2019-08-30T14:11:49Z</time><name>PT13216</name></trkpt>
<trkpt lat="53.254478" lon="-1.813463"><ele>238</ele><time>2019-08-30T14:11:50Z</time><name>PT13217</name></trkpt>
<trkpt lat="53.254478" lon="-1.813470"><ele>238</ele><time>2019-08-30T14:12:00Z</time><name>PT13218</name></trkpt>
<trkpt lat="53.254478" lon="-1.813473"><ele>238</ele><time>2019-08-30T14:12:01Z</time><name>PT13219</name></trkpt>
<trkpt lat="53.254470" lon="-1.813476"><ele>238</ele><time>2019-08-30T14:12:04Z</time><name>PT13220</name></trkpt>
<trkpt lat="53.254470" lon="-1.813479"><ele>237</ele><time>2019-08-30T14:12:05Z</time><name>PT13221</name></trkpt>
<trkpt lat="53.254474" lon="-1.813483"><ele>238</ele><time>2019-08-30T14:12:06Z</time><name>PT13222</name></trkpt>
<trkpt lat="53.254471" lon="-1.813484"><ele>238</ele><time>2019-08-30T14:12:13Z</time><name>PT13223</name></trkpt>
<trkpt lat="53.254480" lon="-1.813485"><ele>237</ele><time>2019-08-30T14:12:14Z</time><name>PT13224</name></trkpt>
<trkpt lat="53.254488" lon="-1.813483"><ele>237</ele><time>2019-08-30T14:12:15Z</time><name>PT13225</name></trkpt>
<trkpt lat="53.254490" lon="-1.813482"><ele>237</ele><time>2019-08-30T14:12:16Z</time><name>PT13226</name></trkpt>
<trkpt lat="53.254499" lon="-1.813482"><ele>237</ele><time>2019-08-30T14:12:17Z</time><name>PT13227</name></trkpt>
<trkpt lat="53.254505" lon="-1.813480"><ele>237</ele><time>2019-08-30T14:12:18Z</time><name>PT13228</name></trkpt>
<trkpt lat="53.254510" lon="-1.813487"><ele>237</ele><time>2019-08-30T14:12:19Z</time><name>PT13229</name></trkpt>
<trkpt lat="53.254513" lon="-1.813489"><ele>237</ele><time>2019-08-30T14:12:20Z</time><name>PT13230</name></trkpt>
<trkpt lat="53.254512" lon="-1.813489"><ele>237</ele><time>2019-08-30T14:12:21Z</time><name>PT13231</name></trkpt>
<trkpt lat="53.254505" lon="-1.813496"><ele>237</ele><time>2019-08-30T14:12:22Z</time><name>PT13232</name></trkpt>
<trkpt lat="53.254506" lon="-1.813505"><ele>236</ele><time>2019-08-30T14:12:23Z</time><name>PT13233</name></trkpt>
<trkpt lat="53.254500" lon="-1.813508"><ele>236</ele><time>2019-08-30T14:12:24Z</time><name>PT13234</name></trkpt>
<trkpt lat="53.254497" lon="-1.813511"><ele>236</ele><time>2019-08-30T14:12:25Z</time><name>PT13235</name></trkpt>
<trkpt lat="53.254488" lon="-1.813517"><ele>236</ele><time>2019-08-30T14:12:26Z</time><name>PT13236</name></trkpt>
<trkpt lat="53.254486" lon="-1.813526"><ele>236</ele><time>2019-08-30T14:12:27Z</time><name>PT13237</name></trkpt>
<trkpt lat="53.254481" lon="-1.813539"><ele>237</ele><time>2019-08-30T14:12:28Z</time><name>PT13238</name></trkpt>
<trkpt lat="53.254478" lon="-1.813551"><ele>238</ele><time>2019-08-30T14:12:29Z</time><name>PT13239</name></trkpt>
<trkpt lat="53.254475" lon="-1.813560"><ele>238</ele><time>2019-08-30T14:12:30Z</time><name>PT13240</name></trkpt>
<trkpt lat="53.254471" lon="-1.813570"><ele>238</ele><time>2019-08-30T14:12:31Z</time><name>PT13241</name></trkpt>
<trkpt lat="53.254470" lon="-1.813580"><ele>239</ele><time>2019-08-30T14:12:32Z</time><name>PT13242</name></trkpt>
<trkpt lat="53.254473" lon="-1.813577"><ele>239</ele><time>2019-08-30T14:12:33Z</time><name>PT13243</name></trkpt>
<trkpt lat="53.254471" lon="-1.813588"><ele>237</ele><time>2019-08-30T14:12:34Z</time><name>PT13244</name></trkpt>
<trkpt lat="53.254465" lon="-1.813601"><ele>237</ele><time>2019-08-30T14:12:35Z</time><name>PT13245</name></trkpt>
<trkpt lat="53.254453" lon="-1.813611"><ele>237</ele><time>2019-08-30T14:12:36Z</time><name>PT13246</name></trkpt>
<trkpt lat="53.254449" lon="-1.813625"><ele>237</ele><time>2019-08-30T14:12:37Z</time><name>PT13247</name></trkpt>
<trkpt lat="53.254442" lon="-1.813629"><ele>237</ele><time>2019-08-30T14:12:38Z</time><name>PT13248</name></trkpt>
<trkpt lat="53.254442" lon="-1.813628"><ele>238</ele><time>2019-08-30T14:12:39Z</time><name>PT13249</name></trkpt>
<trkpt lat="53.254435" lon="-1.813629"><ele>238</ele><time>2019-08-30T14:12:40Z</time><name>PT13250</name></trkpt>
<trkpt lat="53.254436" lon="-1.813645"><ele>239</ele><time>2019-08-30T14:12:41Z</time><name>PT13251</name></trkpt>
<trkpt lat="53.254425" lon="-1.813653"><ele>239</ele><time>2019-08-30T14:12:42Z</time><name>PT13252</name></trkpt>
<trkpt lat="53.254415" lon="-1.813663"><ele>238</ele><time>2019-08-30T14:12:43Z</time><name>PT13253</name></trkpt>
<trkpt lat="53.254414" lon="-1.813676"><ele>239</ele><time>2019-08-30T14:12:44Z</time><name>PT13254</name></trkpt>
<trkpt lat="53.254410" lon="-1.813697"><ele>240</ele><time>2019-08-30T14:12:45Z</time><name>PT13255</name></trkpt>
<trkpt lat="53.254399" lon="-1.813712"><ele>240</ele><time>2019-08-30T14:12:46Z</time><name>PT13256</name></trkpt>
<trkpt lat="53.254390" lon="-1.813728"><ele>241</ele><time>2019-08-30T14:12:47Z</time><name>PT13257</name></trkpt>
<trkpt lat="53.254385" lon="-1.813745"><ele>241</ele><time>2019-08-30T14:12:48Z</time><name>PT13258</name></trkpt>
<trkpt lat="53.254391" lon="-1.813758"><ele>242</ele><time>2019-08-30T14:12:49Z</time><name>PT13259</name></trkpt>
<trkpt lat="53.254382" lon="-1.813761"><ele>241</ele><time>2019-08-30T14:12:50Z</time><name>PT13260</name></trkpt>
<trkpt lat="53.254382" lon="-1.813763"><ele>240</ele><time>2019-08-30T14:12:51Z</time><name>PT13261</name></trkpt>
<trkpt lat="53.254372" lon="-1.813765"><ele>239</ele><time>2019-08-30T14:12:52Z</time><name>PT13262</name></trkpt>
<trkpt lat="53.254365" lon="-1.813784"><ele>240</ele><time>2019-08-30T14:12:53Z</time><name>PT13263</name></trkpt>
<trkpt lat="53.254362" lon="-1.813790"><ele>240</ele><time>2019-08-30T14:12:54Z</time><name>PT13264</name></trkpt>
<trkpt lat="53.254366" lon="-1.813786"><ele>239</ele><time>2019-08-30T14:12:55Z</time><name>PT13265</name></trkpt>
<trkpt lat="53.254371" lon="-1.813793"><ele>239</ele><time>2019-08-30T14:12:56Z</time><name>PT13266</name></trkpt>
<trkpt lat="53.254374" lon="-1.813800"><ele>240</ele><time>2019-08-30T14:12:57Z</time><name>PT13267</name></trkpt>
<trkpt lat="53.254373" lon="-1.813818"><ele>240</ele><time>2019-08-30T14:12:58Z</time><name>PT13268</name></trkpt>
<trkpt lat="53.254367" lon="-1.813822"><ele>240</ele><time>2019-08-30T14:12:59Z</time><name>PT13269</name></trkpt>
<trkpt lat="53.254363" lon="-1.813829"><ele>240</ele><time>2019-08-30T14:13:00Z</time><name>PT13270</name></trkpt>
<trkpt lat="53.254356" lon="-1.813836"><ele>240</ele><time>2019-08-30T14:13:01Z</time><name>PT13271</name></trkpt>
<trkpt lat="53.254357" lon="-1.813838"><ele>239</ele><time>2019-08-30T14:13:02Z</time><name>PT13272</name></trkpt>
<trkpt lat="53.254359" lon="-1.813843"><ele>240</ele><time>2019-08-30T14:13:03Z</time><name>PT13273</name></trkpt>
<trkpt lat="53.254366" lon="-1.813846"><ele>239</ele><time>2019-08-30T14:13:04Z</time><name>PT13274</name></trkpt>
<trkpt lat="53.254358" lon="-1.813857"><ele>239</ele><time>2019-08-30T14:13:05Z</time><name>PT13275</name></trkpt>
<trkpt lat="53.254355" lon="-1.813865"><ele>239</ele><time>2019-08-30T14:13:06Z</time><name>PT13276</name></trkpt>
<trkpt lat="53.254360" lon="-1.813871"><ele>238</ele><time>2019-08-30T14:13:07Z</time><name>PT13277</name></trkpt>
<trkpt lat="53.254376" lon="-1.813877"><ele>239</ele><time>2019-08-30T14:13:08Z</time><name>PT13278</name></trkpt>
<trkpt lat="53.254378" lon="-1.813882"><ele>239</ele><time>2019-08-30T14:13:09Z</time><name>PT13279</name></trkpt>
<trkpt lat="53.254388" lon="-1.813880"><ele>238</ele><time>2019-08-30T14:13:10Z</time><name>PT13280</name></trkpt>
<trkpt lat="53.254390" lon="-1.813888"><ele>238</ele><time>2019-08-30T14:13:11Z</time><name>PT13281</name></trkpt>
<trkpt lat="53.254390" lon="-1.813891"><ele>238</ele><time>2019-08-30T14:13:12Z</time><name>PT13282</name></trkpt>
<trkpt lat="53.254394" lon="-1.813900"><ele>238</ele><time>2019-08-30T14:13:13Z</time><name>PT13283</name></trkpt>
<trkpt lat="53.254399" lon="-1.813913"><ele>238</ele><time>2019-08-30T14:13:14Z</time><name>PT13284</name></trkpt>
<trkpt lat="53.254409" lon="-1.813921"><ele>238</ele><time>2019-08-30T14:13:15Z</time><name>PT13285</name></trkpt>
<trkpt lat="53.254406" lon="-1.813927"><ele>238</ele><time>2019-08-30T14:13:16Z</time><name>PT13286</name></trkpt>
<trkpt lat="53.254410" lon="-1.813930"><ele>238</ele><time>2019-08-30T14:13:17Z</time><name>PT13287</name></trkpt>
<trkpt lat="53.254410" lon="-1.813930"><ele>237</ele><time>2019-08-30T14:13:18Z</time><name>PT13288</name></trkpt>
<trkpt lat="53.254413" lon="-1.813945"><ele>237</ele><time>2019-08-30T14:13:19Z</time><name>PT13289</name></trkpt>
<trkpt lat="53.254414" lon="-1.813967"><ele>237</ele><time>2019-08-30T14:13:20Z</time><name>PT13290</name></trkpt>
<trkpt lat="53.254415" lon="-1.813984"><ele>237</ele><time>2019-08-30T14:13:21Z</time><name>PT13291</name></trkpt>
<trkpt lat="53.254421" lon="-1.814006"><ele>237</ele><time>2019-08-30T14:13:22Z</time><name>PT13292</name></trkpt>
<trkpt lat="53.254420" lon="-1.814025"><ele>238</ele><time>2019-08-30T14:13:23Z</time><name>PT13293</name></trkpt>
<trkpt lat="53.254418" lon="-1.814038"><ele>239</ele><time>2019-08-30T14:13:24Z</time><name>PT13294</name></trkpt>
<trkpt lat="53.254417" lon="-1.814051"><ele>239</ele><time>2019-08-30T14:13:25Z</time><name>PT13295</name></trkpt>
<trkpt lat="53.254422" lon="-1.814074"><ele>239</ele><time>2019-08-30T14:13:26Z</time><name>PT13296</name></trkpt>
<trkpt lat="53.254427" lon="-1.814087"><ele>239</ele><time>2019-08-30T14:13:27Z</time><name>PT13297</name></trkpt>
<trkpt lat="53.254428" lon="-1.814105"><ele>240</ele><time>2019-08-30T14:13:28Z</time><name>PT13298</name></trkpt>
<trkpt lat="53.254426" lon="-1.814118"><ele>239</ele><time>2019-08-30T14:13:29Z</time><name>PT13299</name></trkpt>
<trkpt lat="53.254431" lon="-1.814127"><ele>240</ele><time>2019-08-30T14:13:30Z</time><name>PT13300</name></trkpt>
<trkpt lat="53.254417" lon="-1.814128"><ele>237</ele><time>2019-08-30T14:13:31Z</time><name>PT13301</name></trkpt>
<trkpt lat="53.254416" lon="-1.814142"><ele>236</ele><time>2019-08-30T14:13:32Z</time><name>PT13302</name></trkpt>
<trkpt lat="53.254416" lon="-1.814151"><ele>236</ele><time>2019-08-30T14:13:33Z</time><name>PT13303</name></trkpt>
<trkpt lat="53.254414" lon="-1.814162"><ele>234</ele><time>2019-08-30T14:13:34Z</time><name>PT13304</name></trkpt>
<trkpt lat="53.254413" lon="-1.814191"><ele>233</ele><time>2019-08-30T14:13:35Z</time><name>PT13305</name></trkpt>
<trkpt lat="53.254395" lon="-1.814214"><ele>230</ele><time>2019-08-30T14:13:36Z</time><name>PT13306</name></trkpt>
<trkpt lat="53.254398" lon="-1.814224"><ele>226</ele><time>2019-08-30T14:13:37Z</time><name>PT13307</name></trkpt>
<trkpt lat="53.254398" lon="-1.814236"><ele>225</ele><time>2019-08-30T14:13:38Z</time><name>PT13308</name></trkpt>
<trkpt lat="53.254391" lon="-1.814244"><ele>224</ele><time>2019-08-30T14:13:39Z</time><name>PT13309</name></trkpt>
<trkpt lat="53.254393" lon="-1.814260"><ele>224</ele><time>2019-08-30T14:13:40Z</time><name>PT13310</name></trkpt>
<trkpt lat="53.254398" lon="-1.814273"><ele>223</ele><time>2019-08-30T14:13:41Z</time><name>PT13311</name></trkpt>
<trkpt lat="53.254396" lon="-1.814282"><ele>223</ele><time>2019-08-30T14:13:42Z</time><name>PT13312</name></trkpt>
<trkpt lat="53.254393" lon="-1.814292"><ele>223</ele><time>2019-08-30T14:13:43Z</time><name>PT13313</name></trkpt>
<trkpt lat="53.254392" lon="-1.814299"><ele>221</ele><time>2019-08-30T14:13:44Z</time><name>PT13314</name></trkpt>
<trkpt lat="53.254389" lon="-1.814329"><ele>220</ele><time>2019-08-30T14:13:45Z</time><name>PT13315</name></trkpt>
<trkpt lat="53.254381" lon="-1.814344"><ele>221</ele><time>2019-08-30T14:13:46Z</time><name>PT13316</name></trkpt>
<trkpt lat="53.254388" lon="-1.814364"><ele>222</ele><time>2019-08-30T14:13:47Z</time><name>PT13317</name></trkpt>
<trkpt lat="53.254388" lon="-1.814370"><ele>222</ele><time>2019-08-30T14:13:48Z</time><name>PT13318</name></trkpt>
<trkpt lat="53.254393" lon="-1.814385"><ele>221</ele><time>2019-08-30T14:13:49Z</time><name>PT13319</name></trkpt>
<trkpt lat="53.254394" lon="-1.814402"><ele>221</ele><time>2019-08-30T14:13:50Z</time><name>PT13320</name></trkpt>
<trkpt lat="53.254384" lon="-1.814410"><ele>222</ele><time>2019-08-30T14:13:51Z</time><name>PT13321</name></trkpt>
<trkpt lat="53.254373" lon="-1.814423"><ele>223</ele><time>2019-08-30T14:13:52Z</time><name>PT13322</name></trkpt>
<trkpt lat="53.254369" lon="-1.814441"><ele>222</ele><time>2019-08-30T14:13:53Z</time><name>PT13323</name></trkpt>
<trkpt lat="53.254368" lon="-1.814459"><ele>223</ele><time>2019-08-30T14:13:54Z</time><name>PT13324</name></trkpt>
<trkpt lat="53.254368" lon="-1.814477"><ele>224</ele><time>2019-08-30T14:13:55Z</time><name>PT13325</name></trkpt>
<trkpt lat="53.254363" lon="-1.814492"><ele>224</ele><time>2019-08-30T14:13:56Z</time><name>PT13326</name></trkpt>
<trkpt lat="53.254365" lon="-1.814512"><ele>224</ele><time>2019-08-30T14:13:57Z</time><name>PT13327</name></trkpt>
<trkpt lat="53.254364" lon="-1.814522"><ele>222</ele><time>2019-08-30T14:13:58Z</time><name>PT13328</name></trkpt>
<trkpt lat="53.254369" lon="-1.814533"><ele>222</ele><time>2019-08-30T14:13:59Z</time><name>PT13329</name></trkpt>
<trkpt lat="53.254366" lon="-1.814552"><ele>224</ele><time>2019-08-30T14:14:00Z</time><name>PT13330</name></trkpt>
<trkpt lat="53.254353" lon="-1.814577"><ele>223</ele><time>2019-08-30T14:14:01Z</time><name>PT13331</name></trkpt>
<trkpt lat="53.254342" lon="-1.814594"><ele>224</ele><time>2019-08-30T14:14:02Z</time><name>PT13332</name></trkpt>
<trkpt lat="53.254334" lon="-1.814611"><ele>223</ele><time>2019-08-30T14:14:03Z</time><name>PT13333</name></trkpt>
<trkpt lat="53.254340" lon="-1.814624"><ele>223</ele><time>2019-08-30T14:14:04Z</time><name>PT13334</name></trkpt>
<trkpt lat="53.254340" lon="-1.814664"><ele>223</ele><time>2019-08-30T14:14:05Z</time><name>PT13335</name></trkpt>
<trkpt lat="53.254338" lon="-1.814689"><ele>224</ele><time>2019-08-30T14:14:06Z</time><name>PT13336</name></trkpt>
<trkpt lat="53.254343" lon="-1.814719"><ele>225</ele><time>2019-08-30T14:14:07Z</time><name>PT13337</name></trkpt>
<trkpt lat="53.254342" lon="-1.814736"><ele>225</ele><time>2019-08-30T14:14:08Z</time><name>PT13338</name></trkpt>
<trkpt lat="53.254329" lon="-1.814758"><ele>226</ele><time>2019-08-30T14:14:09Z</time><name>PT13339</name></trkpt>
<trkpt lat="53.254319" lon="-1.814771"><ele>228</ele><time>2019-08-30T14:14:10Z</time><name>PT13340</name></trkpt>
<trkpt lat="53.254310" lon="-1.814782"><ele>229</ele><time>2019-08-30T14:14:11Z</time><name>PT13341</name></trkpt>
<trkpt lat="53.254309" lon="-1.814784"><ele>231</ele><time>2019-08-30T14:14:12Z</time><name>PT13342</name></trkpt>
<trkpt lat="53.254309" lon="-1.814789"><ele>231</ele><time>2019-08-30T14:14:13Z</time><name>PT13343</name></trkpt>
<trkpt lat="53.254294" lon="-1.814797"><ele>234</ele><time>2019-08-30T14:14:14Z</time><name>PT13344</name></trkpt>
<trkpt lat="53.254289" lon="-1.814812"><ele>236</ele><time>2019-08-30T14:14:15Z</time><name>PT13345</name></trkpt>
<trkpt lat="53.254283" lon="-1.814828"><ele>236</ele><time>2019-08-30T14:14:16Z</time><name>PT13346</name></trkpt>
<trkpt lat="53.254278" lon="-1.814839"><ele>237</ele><time>2019-08-30T14:14:17Z</time><name>PT13347</name></trkpt>
<trkpt lat="53.254275" lon="-1.814848"><ele>236</ele><time>2019-08-30T14:14:18Z</time><name>PT13348</name></trkpt>
<trkpt lat="53.254274" lon="-1.814856"><ele>235</ele><time>2019-08-30T14:14:19Z</time><name>PT13349</name></trkpt>
<trkpt lat="53.254270" lon="-1.814878"><ele>237</ele><time>2019-08-30T14:14:20Z</time><name>PT13350</name></trkpt>
<trkpt lat="53.254265" lon="-1.814886"><ele>238</ele><time>2019-08-30T14:14:21Z</time><name>PT13351</name></trkpt>
<trkpt lat="53.254260" lon="-1.814899"><ele>237</ele><time>2019-08-30T14:14:22Z</time><name>PT13352</name></trkpt>
<trkpt lat="53.254245" lon="-1.814906"><ele>237</ele><time>2019-08-30T14:14:23Z</time><name>PT13353</name></trkpt>
<trkpt lat="53.254234" lon="-1.814911"><ele>237</ele><time>2019-08-30T14:14:24Z</time><name>PT13354</name></trkpt>
<trkpt lat="53.254228" lon="-1.814922"><ele>237</ele><time>2019-08-30T14:14:25Z</time><name>PT13355</name></trkpt>
<trkpt lat="53.254226" lon="-1.814938"><ele>237</ele><time>2019-08-30T14:14:26Z</time><name>PT13356</name></trkpt>
<trkpt lat="53.254210" lon="-1.814976"><ele>242</ele><time>2019-08-30T14:14:27Z</time><name>PT13357</name></trkpt>
<trkpt lat="53.254208" lon="-1.814993"><ele>242</ele><time>2019-08-30T14:14:28Z</time><name>PT13358</name></trkpt>
<trkpt lat="53.254206" lon="-1.815000"><ele>242</ele><time>2019-08-30T14:14:29Z</time><name>PT13359</name></trkpt>
<trkpt lat="53.254208" lon="-1.815017"><ele>241</ele><time>2019-08-30T14:14:30Z</time><name>PT13360</name></trkpt>
<trkpt lat="53.254198" lon="-1.815032"><ele>241</ele><time>2019-08-30T14:14:31Z</time><name>PT13361</name></trkpt>
<trkpt lat="53.254197" lon="-1.815044"><ele>242</ele><time>2019-08-30T14:14:32Z</time><name>PT13362</name></trkpt>
<trkpt lat="53.254191" lon="-1.815059"><ele>241</ele><time>2019-08-30T14:14:33Z</time><name>PT13363</name></trkpt>
<trkpt lat="53.254185" lon="-1.815066"><ele>241</ele><time>2019-08-30T14:14:34Z</time><name>PT13364</name></trkpt>
<trkpt lat="53.254182" lon="-1.815078"><ele>241</ele><time>2019-08-30T14:14:35Z</time><name>PT13365</name></trkpt>
<trkpt lat="53.254171" lon="-1.815088"><ele>240</ele><time>2019-08-30T14:14:36Z</time><name>PT13366</name></trkpt>
<trkpt lat="53.254171" lon="-1.815108"><ele>242</ele><time>2019-08-30T14:14:37Z</time><name>PT13367</name></trkpt>
<trkpt lat="53.254168" lon="-1.815118"><ele>242</ele><time>2019-08-30T14:14:38Z</time><name>PT13368</name></trkpt>
<trkpt lat="53.254169" lon="-1.815129"><ele>241</ele><time>2019-08-30T14:14:39Z</time><name>PT13369</name></trkpt>
<trkpt lat="53.254171" lon="-1.815150"><ele>241</ele><time>2019-08-30T14:14:40Z</time><name>PT13370</name></trkpt>
<trkpt lat="53.254165" lon="-1.815165"><ele>241</ele><time>2019-08-30T14:14:41Z</time><name>PT13371</name></trkpt>
<trkpt lat="53.254160" lon="-1.815172"><ele>241</ele><time>2019-08-30T14:14:42Z</time><name>PT13372</name></trkpt>
<trkpt lat="53.254156" lon="-1.815181"><ele>239</ele><time>2019-08-30T14:14:43Z</time><name>PT13373</name></trkpt>
<trkpt lat="53.254156" lon="-1.815204"><ele>239</ele><time>2019-08-30T14:14:44Z</time><name>PT13374</name></trkpt>
<trkpt lat="53.254154" lon="-1.815222"><ele>239</ele><time>2019-08-30T14:14:45Z</time><name>PT13375</name></trkpt>
<trkpt lat="53.254147" lon="-1.815231"><ele>239</ele><time>2019-08-30T14:14:46Z</time><name>PT13376</name></trkpt>
<trkpt lat="53.254146" lon="-1.815246"><ele>239</ele><time>2019-08-30T14:14:47Z</time><name>PT13377</name></trkpt>
<trkpt lat="53.254147" lon="-1.815267"><ele>239</ele><time>2019-08-30T14:14:48Z</time><name>PT13378</name></trkpt>
<trkpt lat="53.254144" lon="-1.815284"><ele>239</ele><time>2019-08-30T14:14:49Z</time><name>PT13379</name></trkpt>
<trkpt lat="53.254135" lon="-1.815301"><ele>236</ele><time>2019-08-30T14:14:50Z</time><name>PT13380</name></trkpt>
<trkpt lat="53.254134" lon="-1.815312"><ele>237</ele><time>2019-08-30T14:14:51Z</time><name>PT13381</name></trkpt>
<trkpt lat="53.254128" lon="-1.815332"><ele>236</ele><time>2019-08-30T14:14:52Z</time><name>PT13382</name></trkpt>
<trkpt lat="53.254123" lon="-1.815349"><ele>237</ele><time>2019-08-30T14:14:53Z</time><name>PT13383</name></trkpt>
<trkpt lat="53.254126" lon="-1.815367"><ele>237</ele><time>2019-08-30T14:14:54Z</time><name>PT13384</name></trkpt>
<trkpt lat="53.254119" lon="-1.815377"><ele>237</ele><time>2019-08-30T14:14:55Z</time><name>PT13385</name></trkpt>
<trkpt lat="53.254117" lon="-1.815397"><ele>235</ele><time>2019-08-30T14:14:56Z</time><name>PT13386</name></trkpt>
<trkpt lat="53.254117" lon="-1.815412"><ele>235</ele><time>2019-08-30T14:14:57Z</time><name>PT13387</name></trkpt>
<trkpt lat="53.254112" lon="-1.815427"><ele>235</ele><time>2019-08-30T14:14:58Z</time><name>PT13388</name></trkpt>
<trkpt lat="53.254104" lon="-1.815437"><ele>236</ele><time>2019-08-30T14:14:59Z</time><name>PT13389</name></trkpt>
<trkpt lat="53.254104" lon="-1.815448"><ele>236</ele><time>2019-08-30T14:15:00Z</time><name>PT13390</name></trkpt>
<trkpt lat="53.254101" lon="-1.815455"><ele>235</ele><time>2019-08-30T14:15:01Z</time><name>PT13391</name></trkpt>
<trkpt lat="53.254101" lon="-1.815471"><ele>236</ele><time>2019-08-30T14:15:02Z</time><name>PT13392</name></trkpt>
<trkpt lat="53.254100" lon="-1.815484"><ele>236</ele><time>2019-08-30T14:15:03Z</time><name>PT13393</name></trkpt>
<trkpt lat="53.254098" lon="-1.815491"><ele>236</ele><time>2019-08-30T14:15:04Z</time><name>PT13394</name></trkpt>
<trkpt lat="53.254096" lon="-1.815499"><ele>236</ele><time>2019-08-30T14:15:05Z</time><name>PT13395</name></trkpt>
<trkpt lat="53.254094" lon="-1.815513"><ele>237</ele><time>2019-08-30T14:15:06Z</time><name>PT13396</name></trkpt>
<trkpt lat="53.254082" lon="-1.815531"><ele>237</ele><time>2019-08-30T14:15:12Z</time><name>PT13397</name></trkpt>
<trkpt lat="53.254071" lon="-1.815559"><ele>238</ele><time>2019-08-30T14:15:13Z</time><name>PT13398</name></trkpt>
<trkpt lat="53.254061" lon="-1.815587"><ele>238</ele><time>2019-08-30T14:15:14Z</time><name>PT13399</name></trkpt>
<trkpt lat="53.254053" lon="-1.815604"><ele>238</ele><time>2019-08-30T14:15:15Z</time><name>PT13400</name></trkpt>
<trkpt lat="53.254043" lon="-1.815635"><ele>238</ele><time>2019-08-30T14:15:16Z</time><name>PT13401</name></trkpt>
<trkpt lat="53.254039" lon="-1.815661"><ele>238</ele><time>2019-08-30T14:15:17Z</time><name>PT13402</name></trkpt>
<trkpt lat="53.254039" lon="-1.815683"><ele>238</ele><time>2019-08-30T14:15:18Z</time><name>PT13403</name></trkpt>
<trkpt lat="53.254042" lon="-1.815705"><ele>238</ele><time>2019-08-30T14:15:19Z</time><name>PT13404</name></trkpt>
<trkpt lat="53.254041" lon="-1.815740"><ele>238</ele><time>2019-08-30T14:15:20Z</time><name>PT13405</name></trkpt>
<trkpt lat="53.254043" lon="-1.815760"><ele>238</ele><time>2019-08-30T14:15:21Z</time><name>PT13406</name></trkpt>
<trkpt lat="53.254040" lon="-1.815778"><ele>237</ele><time>2019-08-30T14:15:22Z</time><name>PT13407</name></trkpt>
<trkpt lat="53.254041" lon="-1.815801"><ele>237</ele><time>2019-08-30T14:15:23Z</time><name>PT13408</name></trkpt>
<trkpt lat="53.254040" lon="-1.815819"><ele>237</ele><time>2019-08-30T14:15:24Z</time><name>PT13409</name></trkpt>
<trkpt lat="53.254040" lon="-1.815843"><ele>237</ele><time>2019-08-30T14:15:25Z</time><name>PT13410</name></trkpt>
<trkpt lat="53.254039" lon="-1.815861"><ele>237</ele><time>2019-08-30T14:15:26Z</time><name>PT13411</name></trkpt>
<trkpt lat="53.254034" lon="-1.815874"><ele>237</ele><time>2019-08-30T14:15:27Z</time><name>PT13412</name></trkpt>
<trkpt lat="53.254034" lon="-1.815890"><ele>237</ele><time>2019-08-30T14:15:28Z</time><name>PT13413</name></trkpt>
<trkpt lat="53.254025" lon="-1.815906"><ele>237</ele><time>2019-08-30T14:15:29Z</time><name>PT13414</name></trkpt>
<trkpt lat="53.254021" lon="-1.815925"><ele>237</ele><time>2019-08-30T14:15:30Z</time><name>PT13415</name></trkpt>
<trkpt lat="53.254013" lon="-1.815932"><ele>238</ele><time>2019-08-30T14:15:31Z</time><name>PT13416</name></trkpt>
<trkpt lat="53.253997" lon="-1.815953"><ele>237</ele><time>2019-08-30T14:15:32Z</time><name>PT13417</name></trkpt>
<trkpt lat="53.253998" lon="-1.815973"><ele>237</ele><time>2019-08-30T14:15:33Z</time><name>PT13418</name></trkpt>
<trkpt lat="53.253994" lon="-1.815983"><ele>237</ele><time>2019-08-30T14:15:34Z</time><name>PT13419</name></trkpt>
<trkpt lat="53.253990" lon="-1.815993"><ele>237</ele><time>2019-08-30T14:15:35Z</time><name>PT13420</name></trkpt>
<trkpt lat="53.253989" lon="-1.816004"><ele>238</ele><time>2019-08-30T14:15:36Z</time><name>PT13421</name></trkpt>
<trkpt lat="53.253980" lon="-1.816009"><ele>238</ele><time>2019-08-30T14:15:37Z</time><name>PT13422</name></trkpt>
<trkpt lat="53.253971" lon="-1.816022"><ele>238</ele><time>2019-08-30T14:15:38Z</time><name>PT13423</name></trkpt>
<trkpt lat="53.253978" lon="-1.816030"><ele>238</ele><time>2019-08-30T14:15:39Z</time><name>PT13424</name></trkpt>
<trkpt lat="53.253976" lon="-1.816035"><ele>238</ele><time>2019-08-30T14:15:40Z</time><name>PT13425</name></trkpt>
<trkpt lat="53.253968" lon="-1.816048"><ele>238</ele><time>2019-08-30T14:15:41Z</time><name>PT13426</name></trkpt>
<trkpt lat="53.253964" lon="-1.816069"><ele>239</ele><time>2019-08-30T14:15:42Z</time><name>PT13427</name></trkpt>
<trkpt lat="53.253965" lon="-1.816085"><ele>240</ele><time>2019-08-30T14:15:43Z</time><name>PT13428</name></trkpt>
<trkpt lat="53.253968" lon="-1.816107"><ele>240</ele><time>2019-08-30T14:15:44Z</time><name>PT13429</name></trkpt>
<trkpt lat="53.253956" lon="-1.816118"><ele>240</ele><time>2019-08-30T14:15:45Z</time><name>PT13430</name></trkpt>
<trkpt lat="53.253946" lon="-1.816140"><ele>239</ele><time>2019-08-30T14:15:46Z</time><name>PT13431</name></trkpt>
<trkpt lat="53.253948" lon="-1.816156"><ele>239</ele><time>2019-08-30T14:15:47Z</time><name>PT13432</name></trkpt>
<trkpt lat="53.253945" lon="-1.816166"><ele>239</ele><time>2019-08-30T14:15:48Z</time><name>PT13433</name></trkpt>
<trkpt lat="53.253941" lon="-1.816180"><ele>239</ele><time>2019-08-30T14:15:49Z</time><name>PT13434</name></trkpt>
<trkpt lat="53.253924" lon="-1.816196"><ele>239</ele><time>2019-08-30T14:15:50Z</time><name>PT13435</name></trkpt>
<trkpt lat="53.253916" lon="-1.816214"><ele>239</ele><time>2019-08-30T14:15:51Z</time><name>PT13436</name></trkpt>
<trkpt lat="53.253901" lon="-1.816223"><ele>238</ele><time>2019-08-30T14:15:52Z</time><name>PT13437</name></trkpt>
<trkpt lat="53.253899" lon="-1.816241"><ele>238</ele><time>2019-08-30T14:15:53Z</time><name>PT13438</name></trkpt>
<trkpt lat="53.253887" lon="-1.816254"><ele>238</ele><time>2019-08-30T14:15:54Z</time><name>PT13439</name></trkpt>
<trkpt lat="53.253875" lon="-1.816261"><ele>238</ele><time>2019-08-30T14:15:55Z</time><name>PT13440</name></trkpt>
<trkpt lat="53.253874" lon="-1.816270"><ele>237</ele><time>2019-08-30T14:15:56Z</time><name>PT13441</name></trkpt>
<trkpt lat="53.253870" lon="-1.816281"><ele>237</ele><time>2019-08-30T14:15:57Z</time><name>PT13442</name></trkpt>
<trkpt lat="53.253867" lon="-1.816295"><ele>237</ele><time>2019-08-30T14:15:58Z</time><name>PT13443</name></trkpt>
<trkpt lat="53.253871" lon="-1.816310"><ele>236</ele><time>2019-08-30T14:15:59Z</time><name>PT13444</name></trkpt>
<trkpt lat="53.253863" lon="-1.816324"><ele>236</ele><time>2019-08-30T14:16:00Z</time><name>PT13445</name></trkpt>
<trkpt lat="53.253860" lon="-1.816335"><ele>236</ele><time>2019-08-30T14:16:01Z</time><name>PT13446</name></trkpt>
<trkpt lat="53.253864" lon="-1.816349"><ele>236</ele><time>2019-08-30T14:16:02Z</time><name>PT13447</name></trkpt>
<trkpt lat="53.253857" lon="-1.816361"><ele>236</ele><time>2019-08-30T14:16:03Z</time><name>PT13448</name></trkpt>
<trkpt lat="53.253862" lon="-1.816389"><ele>235</ele><time>2019-08-30T14:16:04Z</time><name>PT13449</name></trkpt>
<trkpt lat="53.253862" lon="-1.816412"><ele>235</ele><time>2019-08-30T14:16:05Z</time><name>PT13450</name></trkpt>
<trkpt lat="53.253866" lon="-1.816425"><ele>235</ele><time>2019-08-30T14:16:06Z</time><name>PT13451</name></trkpt>
<trkpt lat="53.253861" lon="-1.816441"><ele>235</ele><time>2019-08-30T14:16:07Z</time><name>PT13452</name></trkpt>
<trkpt lat="53.253858" lon="-1.816456"><ele>234</ele><time>2019-08-30T14:16:08Z</time><name>PT13453</name></trkpt>
<trkpt lat="53.253852" lon="-1.816471"><ele>234</ele><time>2019-08-30T14:16:09Z</time><name>PT13454</name></trkpt>
<trkpt lat="53.253843" lon="-1.816490"><ele>234</ele><time>2019-08-30T14:16:10Z</time><name>PT13455</name></trkpt>
<trkpt lat="53.253831" lon="-1.816507"><ele>234</ele><time>2019-08-30T14:16:11Z</time><name>PT13456</name></trkpt>
<trkpt lat="53.253827" lon="-1.816520"><ele>233</ele><time>2019-08-30T14:16:12Z</time><name>PT13457</name></trkpt>
<trkpt lat="53.253815" lon="-1.816525"><ele>233</ele><time>2019-08-30T14:16:13Z</time><name>PT13458</name></trkpt>
<trkpt lat="53.253806" lon="-1.816534"><ele>233</ele><time>2019-08-30T14:16:14Z</time><name>PT13459</name></trkpt>
<trkpt lat="53.253789" lon="-1.816542"><ele>233</ele><time>2019-08-30T14:16:15Z</time><name>PT13460</name></trkpt>
<trkpt lat="53.253781" lon="-1.816559"><ele>232</ele><time>2019-08-30T14:16:16Z</time><name>PT13461</name></trkpt>
<trkpt lat="53.253772" lon="-1.816572"><ele>232</ele><time>2019-08-30T14:16:17Z</time><name>PT13462</name></trkpt>
<trkpt lat="53.253768" lon="-1.816582"><ele>232</ele><time>2019-08-30T14:16:18Z</time><name>PT13463</name></trkpt>
<trkpt lat="53.253762" lon="-1.816601"><ele>232</ele><time>2019-08-30T14:16:19Z</time><name>PT13464</name></trkpt>
<trkpt lat="53.253757" lon="-1.816615"><ele>232</ele><time>2019-08-30T14:16:20Z</time><name>PT13465</name></trkpt>
<trkpt lat="53.253747" lon="-1.816626"><ele>231</ele><time>2019-08-30T14:16:21Z</time><name>PT13466</name></trkpt>
<trkpt lat="53.253736" lon="-1.816639"><ele>231</ele><time>2019-08-30T14:16:22Z</time><name>PT13467</name></trkpt>
<trkpt lat="53.253739" lon="-1.816646"><ele>231</ele><time>2019-08-30T14:16:23Z</time><name>PT13468</name></trkpt>
<trkpt lat="53.253732" lon="-1.816652"><ele>231</ele><time>2019-08-30T14:16:24Z</time><name>PT13469</name></trkpt>
<trkpt lat="53.253729" lon="-1.816660"><ele>232</ele><time>2019-08-30T14:16:25Z</time><name>PT13470</name></trkpt>
<trkpt lat="53.253721" lon="-1.816669"><ele>232</ele><time>2019-08-30T14:16:26Z</time><name>PT13471</name></trkpt>
<trkpt lat="53.253706" lon="-1.816692"><ele>231</ele><time>2019-08-30T14:16:29Z</time><name>PT13472</name></trkpt>
<trkpt lat="53.253694" lon="-1.816712"><ele>231</ele><time>2019-08-30T14:16:30Z</time><name>PT13473</name></trkpt>
<trkpt lat="53.253680" lon="-1.816740"><ele>231</ele><time>2019-08-30T14:16:31Z</time><name>PT13474</name></trkpt>
<trkpt lat="53.253671" lon="-1.816758"><ele>231</ele><time>2019-08-30T14:16:32Z</time><name>PT13475</name></trkpt>
<trkpt lat="53.253660" lon="-1.816771"><ele>231</ele><time>2019-08-30T14:16:33Z</time><name>PT13476</name></trkpt>
<trkpt lat="53.253658" lon="-1.816783"><ele>231</ele><time>2019-08-30T14:16:34Z</time><name>PT13477</name></trkpt>
<trkpt lat="53.253654" lon="-1.816795"><ele>231</ele><time>2019-08-30T14:16:35Z</time><name>PT13478</name></trkpt>
<trkpt lat="53.253636" lon="-1.816813"><ele>231</ele><time>2019-08-30T14:16:36Z</time><name>PT13479</name></trkpt>
<trkpt lat="53.253624" lon="-1.816832"><ele>231</ele><time>2019-08-30T14:16:37Z</time><name>PT13480</name></trkpt>
<trkpt lat="53.253617" lon="-1.816852"><ele>231</ele><time>2019-08-30T14:16:38Z</time><name>PT13481</name></trkpt>
<trkpt lat="53.253619" lon="-1.816882"><ele>232</ele><time>2019-08-30T14:16:39Z</time><name>PT13482</name></trkpt>
<trkpt lat="53.253617" lon="-1.816913"><ele>232</ele><time>2019-08-30T14:16:40Z</time><name>PT13483</name></trkpt>
<trkpt lat="53.253616" lon="-1.816928"><ele>232</ele><time>2019-08-30T14:16:41Z</time><name>PT13484</name></trkpt>
<trkpt lat="53.253610" lon="-1.816939"><ele>232</ele><time>2019-08-30T14:16:42Z</time><name>PT13485</name></trkpt>
<trkpt lat="53.253603" lon="-1.816948"><ele>233</ele><time>2019-08-30T14:16:43Z</time><name>PT13486</name></trkpt>
<trkpt lat="53.253600" lon="-1.816966"><ele>233</ele><time>2019-08-30T14:16:44Z</time><name>PT13487</name></trkpt>
<trkpt lat="53.253602" lon="-1.816977"><ele>234</ele><time>2019-08-30T14:16:45Z</time><name>PT13488</name></trkpt>
<trkpt lat="53.253596" lon="-1.817004"><ele>234</ele><time>2019-08-30T14:16:52Z</time><name>PT13489</name></trkpt>
<trkpt lat="53.253585" lon="-1.817020"><ele>234</ele><time>2019-08-30T14:16:53Z</time><name>PT13490</name></trkpt>
<trkpt lat="53.253554" lon="-1.817056"><ele>235</ele><time>2019-08-30T14:16:54Z</time><name>PT13491</name></trkpt>
<trkpt lat="53.253534" lon="-1.817075"><ele>234</ele><time>2019-08-30T14:16:55Z</time><name>PT13492</name></trkpt>
<trkpt lat="53.253526" lon="-1.817093"><ele>234</ele><time>2019-08-30T14:16:56Z</time><name>PT13493</name></trkpt>
<trkpt lat="53.253516" lon="-1.817109"><ele>235</ele><time>2019-08-30T14:16:57Z</time><name>PT13494</name></trkpt>
<trkpt lat="53.253505" lon="-1.817124"><ele>234</ele><time>2019-08-30T14:16:58Z</time><name>PT13495</name></trkpt>
<trkpt lat="53.253491" lon="-1.817141"><ele>234</ele><time>2019-08-30T14:16:59Z</time><name>PT13496</name></trkpt>
<trkpt lat="53.253481" lon="-1.817159"><ele>235</ele><time>2019-08-30T14:17:00Z</time><name>PT13497</name></trkpt>
<trkpt lat="53.253475" lon="-1.817171"><ele>235</ele><time>2019-08-30T14:17:01Z</time><name>PT13498</name></trkpt>
<trkpt lat="53.253472" lon="-1.817182"><ele>235</ele><time>2019-08-30T14:17:02Z</time><name>PT13499</name></trkpt>
<trkpt lat="53.253465" lon="-1.817199"><ele>235</ele><time>2019-08-30T14:17:03Z</time><name>PT13500</name></trkpt>
<trkpt lat="53.253456" lon="-1.817197"><ele>235</ele><time>2019-08-30T14:17:04Z</time><name>PT13501</name></trkpt>
<trkpt lat="53.253452" lon="-1.817201"><ele>236</ele><time>2019-08-30T14:17:05Z</time><name>PT13502</name></trkpt>
<trkpt lat="53.253448" lon="-1.817213"><ele>236</ele><time>2019-08-30T14:17:06Z</time><name>PT13503</name></trkpt>
<trkpt lat="53.253436" lon="-1.817241"><ele>236</ele><time>2019-08-30T14:17:09Z</time><name>PT13504</name></trkpt>
<trkpt lat="53.253423" lon="-1.817262"><ele>236</ele><time>2019-08-30T14:17:10Z</time><name>PT13505</name></trkpt>
<trkpt lat="53.253410" lon="-1.817274"><ele>236</ele><time>2019-08-30T14:17:11Z</time><name>PT13506</name></trkpt>
<trkpt lat="53.253401" lon="-1.817288"><ele>236</ele><time>2019-08-30T14:17:12Z</time><name>PT13507</name></trkpt>
<trkpt lat="53.253390" lon="-1.817295"><ele>236</ele><time>2019-08-30T14:17:13Z</time><name>PT13508</name></trkpt>
<trkpt lat="53.253379" lon="-1.817303"><ele>236</ele><time>2019-08-30T14:17:14Z</time><name>PT13509</name></trkpt>
<trkpt lat="53.253370" lon="-1.817314"><ele>237</ele><time>2019-08-30T14:17:15Z</time><name>PT13510</name></trkpt>
<trkpt lat="53.253358" lon="-1.817332"><ele>237</ele><time>2019-08-30T14:17:16Z</time><name>PT13511</name></trkpt>
<trkpt lat="53.253350" lon="-1.817354"><ele>236</ele><time>2019-08-30T14:17:17Z</time><name>PT13512</name></trkpt>
<trkpt lat="53.253346" lon="-1.817365"><ele>236</ele><time>2019-08-30T14:17:18Z</time><name>PT13513</name></trkpt>
<trkpt lat="53.253337" lon="-1.817385"><ele>237</ele><time>2019-08-30T14:17:19Z</time><name>PT13514</name></trkpt>
<trkpt lat="53.253318" lon="-1.817405"><ele>237</ele><time>2019-08-30T14:17:20Z</time><name>PT13515</name></trkpt>
<trkpt lat="53.253307" lon="-1.817417"><ele>237</ele><time>2019-08-30T14:17:21Z</time><name>PT13516</name></trkpt>
<trkpt lat="53.253292" lon="-1.817436"><ele>237</ele><time>2019-08-30T14:17:22Z</time><name>PT13517</name></trkpt>
<trkpt lat="53.253287" lon="-1.817458"><ele>237</ele><time>2019-08-30T14:17:23Z</time><name>PT13518</name></trkpt>
<trkpt lat="53.253280" lon="-1.817466"><ele>237</ele><time>2019-08-30T14:17:24Z</time><name>PT13519</name></trkpt>
<trkpt lat="53.253269" lon="-1.817487"><ele>238</ele><time>2019-08-30T14:17:25Z</time><name>PT13520</name></trkpt>
<trkpt lat="53.253259" lon="-1.817500"><ele>238</ele><time>2019-08-30T14:17:26Z</time><name>PT13521</name></trkpt>
<trkpt lat="53.253251" lon="-1.817515"><ele>238</ele><time>2019-08-30T14:17:27Z</time><name>PT13522</name></trkpt>
<trkpt lat="53.253253" lon="-1.817517"><ele>238</ele><time>2019-08-30T14:17:28Z</time><name>PT13523</name></trkpt>
<trkpt lat="53.253252" lon="-1.817529"><ele>238</ele><time>2019-08-30T14:17:29Z</time><name>PT13524</name></trkpt>
<trkpt lat="53.253249" lon="-1.817540"><ele>238</ele><time>2019-08-30T14:17:30Z</time><name>PT13525</name></trkpt>
<trkpt lat="53.253249" lon="-1.817554"><ele>238</ele><time>2019-08-30T14:17:31Z</time><name>PT13526</name></trkpt>
<trkpt lat="53.253261" lon="-1.817571"><ele>238</ele><time>2019-08-30T14:17:32Z</time><name>PT13527</name></trkpt>
<trkpt lat="53.253263" lon="-1.817603"><ele>238</ele><time>2019-08-30T14:17:33Z</time><name>PT13528</name></trkpt>
<trkpt lat="53.253265" lon="-1.817615"><ele>238</ele><time>2019-08-30T14:17:34Z</time><name>PT13529</name></trkpt>
<trkpt lat="53.253265" lon="-1.817632"><ele>238</ele><time>2019-08-30T14:17:35Z</time><name>PT13530</name></trkpt>
<trkpt lat="53.253259" lon="-1.817643"><ele>238</ele><time>2019-08-30T14:17:36Z</time><name>PT13531</name></trkpt>
<trkpt lat="53.253235" lon="-1.817656"><ele>237</ele><time>2019-08-30T14:17:37Z</time><name>PT13532</name></trkpt>
<trkpt lat="53.253215" lon="-1.817668"><ele>237</ele><time>2019-08-30T14:17:38Z</time><name>PT13533</name></trkpt>
<trkpt lat="53.253191" lon="-1.817672"><ele>237</ele><time>2019-08-30T14:17:39Z</time><name>PT13534</name></trkpt>
<trkpt lat="53.253171" lon="-1.817686"><ele>237</ele><time>2019-08-30T14:17:40Z</time><name>PT13535</name></trkpt>
<trkpt lat="53.253152" lon="-1.817715"><ele>237</ele><time>2019-08-30T14:17:41Z</time><name>PT13536</name></trkpt>
<trkpt lat="53.253138" lon="-1.817726"><ele>237</ele><time>2019-08-30T14:17:42Z</time><name>PT13537</name></trkpt>
<trkpt lat="53.253117" lon="-1.817746"><ele>237</ele><time>2019-08-30T14:17:43Z</time><name>PT13538</name></trkpt>
<trkpt lat="53.253107" lon="-1.817769"><ele>237</ele><time>2019-08-30T14:17:44Z</time><name>PT13539</name></trkpt>
<trkpt lat="53.253098" lon="-1.817795"><ele>237</ele><time>2019-08-30T14:17:45Z</time><name>PT13540</name></trkpt>
<trkpt lat="53.253095" lon="-1.817821"><ele>237</ele><time>2019-08-30T14:17:46Z</time><name>PT13541</name></trkpt>
<trkpt lat="53.253087" lon="-1.817838"><ele>237</ele><time>2019-08-30T14:17:47Z</time><name>PT13542</name></trkpt>
<trkpt lat="53.253088" lon="-1.817851"><ele>237</ele><time>2019-08-30T14:17:48Z</time><name>PT13543</name></trkpt>
<trkpt lat="53.253100" lon="-1.817870"><ele>237</ele><time>2019-08-30T14:17:49Z</time><name>PT13544</name></trkpt>
<trkpt lat="53.253098" lon="-1.817884"><ele>237</ele><time>2019-08-30T14:17:50Z</time><name>PT13545</name></trkpt>
<trkpt lat="53.253082" lon="-1.817893"><ele>237</ele><time>2019-08-30T14:17:51Z</time><name>PT13546</name></trkpt>
<trkpt lat="53.253083" lon="-1.817902"><ele>237</ele><time>2019-08-30T14:17:52Z</time><name>PT13547</name></trkpt>
<trkpt lat="53.253083" lon="-1.817912"><ele>237</ele><time>2019-08-30T14:17:53Z</time><name>PT13548</name></trkpt>
<trkpt lat="53.253082" lon="-1.817920"><ele>237</ele><time>2019-08-30T14:17:54Z</time><name>PT13549</name></trkpt>
<trkpt lat="53.253076" lon="-1.817923"><ele>235</ele><time>2019-08-30T14:17:57Z</time><name>PT13550</name></trkpt>
<trkpt lat="53.253067" lon="-1.817925"><ele>235</ele><time>2019-08-30T14:17:58Z</time><name>PT13551</name></trkpt>
<trkpt lat="53.253061" lon="-1.817926"><ele>235</ele><time>2019-08-30T14:17:59Z</time><name>PT13552</name></trkpt>
<trkpt lat="53.253040" lon="-1.817952"><ele>235</ele><time>2019-08-30T14:18:00Z</time><name>PT13553</name></trkpt>
<trkpt lat="53.253011" lon="-1.817958"><ele>234</ele><time>2019-08-30T14:18:01Z</time><name>PT13554</name></trkpt>
<trkpt lat="53.252998" lon="-1.817974"><ele>235</ele><time>2019-08-30T14:18:02Z</time><name>PT13555</name></trkpt>
<trkpt lat="53.252996" lon="-1.817980"><ele>235</ele><time>2019-08-30T14:18:03Z</time><name>PT13556</name></trkpt>
<trkpt lat="53.252982" lon="-1.818002"><ele>234</ele><time>2019-08-30T14:18:04Z</time><name>PT13557</name></trkpt>
<trkpt lat="53.252988" lon="-1.818010"><ele>235</ele><time>2019-08-30T14:18:05Z</time><name>PT13558</name></trkpt>
<trkpt lat="53.252974" lon="-1.818023"><ele>234</ele><time>2019-08-30T14:18:06Z</time><name>PT13559</name></trkpt>
<trkpt lat="53.252968" lon="-1.818058"><ele>235</ele><time>2019-08-30T14:18:07Z</time><name>PT13560</name></trkpt>
<trkpt lat="53.252953" lon="-1.818060"><ele>235</ele><time>2019-08-30T14:18:08Z</time><name>PT13561</name></trkpt>
<trkpt lat="53.252942" lon="-1.818059"><ele>235</ele><time>2019-08-30T14:18:09Z</time><name>PT13562</name></trkpt>
<trkpt lat="53.252942" lon="-1.818051"><ele>235</ele><time>2019-08-30T14:18:10Z</time><name>PT13563</name></trkpt>
<trkpt lat="53.252940" lon="-1.818069"><ele>235</ele><time>2019-08-30T14:18:11Z</time><name>PT13564</name></trkpt>
<trkpt lat="53.252949" lon="-1.818069"><ele>235</ele><time>2019-08-30T14:18:12Z</time><name>PT13565</name></trkpt>
<trkpt lat="53.252941" lon="-1.818058"><ele>236</ele><time>2019-08-30T14:18:13Z</time><name>PT13566</name></trkpt>
<trkpt lat="53.252934" lon="-1.818051"><ele>236</ele><time>2019-08-30T14:18:14Z</time><name>PT13567</name></trkpt>
<trkpt lat="53.252919" lon="-1.818054"><ele>236</ele><time>2019-08-30T14:18:15Z</time><name>PT13568</name></trkpt>
<trkpt lat="53.252909" lon="-1.818056"><ele>236</ele><time>2019-08-30T14:18:16Z</time><name>PT13569</name></trkpt>
<trkpt lat="53.252904" lon="-1.818054"><ele>236</ele><time>2019-08-30T14:18:17Z</time><name>PT13570</name></trkpt>
<trkpt lat="53.252894" lon="-1.818062"><ele>236</ele><time>2019-08-30T14:18:18Z</time><name>PT13571</name></trkpt>
<trkpt lat="53.252885" lon="-1.818071"><ele>235</ele><time>2019-08-30T14:18:19Z</time><name>PT13572</name></trkpt>
<trkpt lat="53.252886" lon="-1.818072"><ele>235</ele><time>2019-08-30T14:18:20Z</time><name>PT13573</name></trkpt>
<trkpt lat="53.252883" lon="-1.818098"><ele>236</ele><time>2019-08-30T14:18:21Z</time><name>PT13574</name></trkpt>
<trkpt lat="53.252894" lon="-1.818096"><ele>235</ele><time>2019-08-30T14:18:22Z</time><name>PT13575</name></trkpt>
<trkpt lat="53.252894" lon="-1.818106"><ele>235</ele><time>2019-08-30T14:18:23Z</time><name>PT13576</name></trkpt>
<trkpt lat="53.252902" lon="-1.818126"><ele>235</ele><time>2019-08-30T14:18:24Z</time><name>PT13577</name></trkpt>
<trkpt lat="53.252903" lon="-1.818150"><ele>235</ele><time>2019-08-30T14:18:25Z</time><name>PT13578</name></trkpt>
<trkpt lat="53.252902" lon="-1.818166"><ele>235</ele><time>2019-08-30T14:18:26Z</time><name>PT13579</name></trkpt>
<trkpt lat="53.252904" lon="-1.818182"><ele>235</ele><time>2019-08-30T14:18:27Z</time><name>PT13580</name></trkpt>
<trkpt lat="53.252912" lon="-1.818201"><ele>235</ele><time>2019-08-30T14:18:28Z</time><name>PT13581</name></trkpt>
<trkpt lat="53.252920" lon="-1.818232"><ele>236</ele><time>2019-08-30T14:18:29Z</time><name>PT13582</name></trkpt>
<trkpt lat="53.252946" lon="-1.818264"><ele>237</ele><time>2019-08-30T14:18:30Z</time><name>PT13583</name></trkpt>
<trkpt lat="53.252967" lon="-1.818306"><ele>237</ele><time>2019-08-30T14:18:31Z</time><name>PT13584</name></trkpt>
<trkpt lat="53.252976" lon="-1.818335"><ele>238</ele><time>2019-08-30T14:18:32Z</time><name>PT13585</name></trkpt>
<trkpt lat="53.252993" lon="-1.818378"><ele>238</ele><time>2019-08-30T14:18:33Z</time><name>PT13586</name></trkpt>
<trkpt lat="53.253002" lon="-1.818397"><ele>239</ele><time>2019-08-30T14:18:34Z</time><name>PT13587</name></trkpt>
<trkpt lat="53.253010" lon="-1.818423"><ele>240</ele><time>2019-08-30T14:18:35Z</time><name>PT13588</name></trkpt>
<trkpt lat="53.253003" lon="-1.818445"><ele>241</ele><time>2019-08-30T14:18:36Z</time><name>PT13589</name></trkpt>
<trkpt lat="53.253006" lon="-1.818477"><ele>243</ele><time>2019-08-30T14:18:37Z</time><name>PT13590</name></trkpt>
<trkpt lat="53.253020" lon="-1.818509"><ele>243</ele><time>2019-08-30T14:18:38Z</time><name>PT13591</name></trkpt>
<trkpt lat="53.253008" lon="-1.818514"><ele>243</ele><time>2019-08-30T14:18:39Z</time><name>PT13592</name></trkpt>
<trkpt lat="53.252976" lon="-1.818508"><ele>241</ele><time>2019-08-30T14:18:40Z</time><name>PT13593</name></trkpt>
<trkpt lat="53.252965" lon="-1.818511"><ele>241</ele><time>2019-08-30T14:18:41Z</time><name>PT13594</name></trkpt>
<trkpt lat="53.252944" lon="-1.818534"><ele>241</ele><time>2019-08-30T14:18:42Z</time><name>PT13595</name></trkpt>
<trkpt lat="53.252930" lon="-1.818544"><ele>241</ele><time>2019-08-30T14:18:43Z</time><name>PT13596</name></trkpt>
<trkpt lat="53.252916" lon="-1.818547"><ele>241</ele><time>2019-08-30T14:18:44Z</time><name>PT13597</name></trkpt>
<trkpt lat="53.252898" lon="-1.818555"><ele>241</ele><time>2019-08-30T14:18:45Z</time><name>PT13598</name></trkpt>
<trkpt lat="53.252894" lon="-1.818568"><ele>241</ele><time>2019-08-30T14:18:46Z</time><name>PT13599</name></trkpt>
<trkpt lat="53.252881" lon="-1.818586"><ele>242</ele><time>2019-08-30T14:18:47Z</time><name>PT13600</name></trkpt>
<trkpt lat="53.252885" lon="-1.818612"><ele>243</ele><time>2019-08-30T14:18:48Z</time><name>PT13601</name></trkpt>
<trkpt lat="53.252878" lon="-1.818614"><ele>242</ele><time>2019-08-30T14:18:49Z</time><name>PT13602</name></trkpt>
<trkpt lat="53.252877" lon="-1.818627"><ele>243</ele><time>2019-08-30T14:18:50Z</time><name>PT13603</name></trkpt>
<trkpt lat="53.252874" lon="-1.818635"><ele>242</ele><time>2019-08-30T14:18:51Z</time><name>PT13604</name></trkpt>
<trkpt lat="53.252876" lon="-1.818647"><ele>242</ele><time>2019-08-30T14:18:52Z</time><name>PT13605</name></trkpt>
<trkpt lat="53.252865" lon="-1.818651"><ele>242</ele><time>2019-08-30T14:18:53Z</time><name>PT13606</name></trkpt>
<trkpt lat="53.252860" lon="-1.818658"><ele>242</ele><time>2019-08-30T14:18:54Z</time><name>PT13607</name></trkpt>
<trkpt lat="53.252851" lon="-1.818679"><ele>242</ele><time>2019-08-30T14:18:55Z</time><name>PT13608</name></trkpt>
<trkpt lat="53.252846" lon="-1.818694"><ele>242</ele><time>2019-08-30T14:18:56Z</time><name>PT13609</name></trkpt>
<trkpt lat="53.252839" lon="-1.818703"><ele>243</ele><time>2019-08-30T14:18:57Z</time><name>PT13610</name></trkpt>
<trkpt lat="53.252831" lon="-1.818708"><ele>243</ele><time>2019-08-30T14:18:58Z</time><name>PT13611</name></trkpt>
<trkpt lat="53.252828" lon="-1.818731"><ele>243</ele><time>2019-08-30T14:18:59Z</time><name>PT13612</name></trkpt>
<trkpt lat="53.252825" lon="-1.818742"><ele>242</ele><time>2019-08-30T14:19:00Z</time><name>PT13613</name></trkpt>
<trkpt lat="53.252807" lon="-1.818723"><ele>243</ele><time>2019-08-30T14:19:01Z</time><name>PT13614</name></trkpt>
<trkpt lat="53.252800" lon="-1.818730"><ele>242</ele><time>2019-08-30T14:19:02Z</time><name>PT13615</name></trkpt>
<trkpt lat="53.252790" lon="-1.818738"><ele>242</ele><time>2019-08-30T14:19:03Z</time><name>PT13616</name></trkpt>
<trkpt lat="53.252775" lon="-1.818740"><ele>242</ele><time>2019-08-30T14:19:04Z</time><name>PT13617</name></trkpt>
<trkpt lat="53.252766" lon="-1.818753"><ele>242</ele><time>2019-08-30T14:19:05Z</time><name>PT13618</name></trkpt>
<trkpt lat="53.252758" lon="-1.818761"><ele>242</ele><time>2019-08-30T14:19:06Z</time><name>PT13619</name></trkpt>
<trkpt lat="53.252750" lon="-1.818772"><ele>242</ele><time>2019-08-30T14:19:07Z</time><name>PT13620</name></trkpt>
<trkpt lat="53.252740" lon="-1.818791"><ele>241</ele><time>2019-08-30T14:19:08Z</time><name>PT13621</name></trkpt>
<trkpt lat="53.252730" lon="-1.818814"><ele>242</ele><time>2019-08-30T14:19:09Z</time><name>PT13622</name></trkpt>
<trkpt lat="53.252717" lon="-1.818838"><ele>241</ele><time>2019-08-30T14:19:10Z</time><name>PT13623</name></trkpt>
<trkpt lat="53.252700" lon="-1.818851"><ele>240</ele><time>2019-08-30T14:19:11Z</time><name>PT13624</name></trkpt>
<trkpt lat="53.252698" lon="-1.818869"><ele>241</ele><time>2019-08-30T14:19:12Z</time><name>PT13625</name></trkpt>
<trkpt lat="53.252689" lon="-1.818890"><ele>242</ele><time>2019-08-30T14:19:13Z</time><name>PT13626</name></trkpt>
<trkpt lat="53.252685" lon="-1.818906"><ele>243</ele><time>2019-08-30T14:19:14Z</time><name>PT13627</name></trkpt>
<trkpt lat="53.252685" lon="-1.818923"><ele>243</ele><time>2019-08-30T14:19:15Z</time><name>PT13628</name></trkpt>
<trkpt lat="53.252676" lon="-1.818931"><ele>243</ele><time>2019-08-30T14:19:16Z</time><name>PT13629</name></trkpt>
<trkpt lat="53.252667" lon="-1.818936"><ele>242</ele><time>2019-08-30T14:19:17Z</time><name>PT13630</name></trkpt>
<trkpt lat="53.252663" lon="-1.818967"><ele>242</ele><time>2019-08-30T14:19:18Z</time><name>PT13631</name></trkpt>
<trkpt lat="53.252662" lon="-1.818984"><ele>242</ele><time>2019-08-30T14:19:19Z</time><name>PT13632</name></trkpt>
<trkpt lat="53.252657" lon="-1.818997"><ele>243</ele><time>2019-08-30T14:19:20Z</time><name>PT13633</name></trkpt>
<trkpt lat="53.252650" lon="-1.819002"><ele>243</ele><time>2019-08-30T14:19:21Z</time><name>PT13634</name></trkpt>
<trkpt lat="53.252645" lon="-1.819006"><ele>243</ele><time>2019-08-30T14:19:22Z</time><name>PT13635</name></trkpt>
<trkpt lat="53.252632" lon="-1.819019"><ele>243</ele><time>2019-08-30T14:19:23Z</time><name>PT13636</name></trkpt>
<trkpt lat="53.252628" lon="-1.819037"><ele>243</ele><time>2019-08-30T14:19:24Z</time><name>PT13637</name></trkpt>
<trkpt lat="53.252623" lon="-1.819046"><ele>243</ele><time>2019-08-30T14:19:25Z</time><name>PT13638</name></trkpt>
<trkpt lat="53.252610" lon="-1.819055"><ele>243</ele><time>2019-08-30T14:19:26Z</time><name>PT13639</name></trkpt>
<trkpt lat="53.252609" lon="-1.819062"><ele>244</ele><time>2019-08-30T14:19:27Z</time><name>PT13640</name></trkpt>
<trkpt lat="53.252598" lon="-1.819069"><ele>245</ele><time>2019-08-30T14:19:28Z</time><name>PT13641</name></trkpt>
<trkpt lat="53.252591" lon="-1.819084"><ele>245</ele><time>2019-08-30T14:19:29Z</time><name>PT13642</name></trkpt>
<trkpt lat="53.252588" lon="-1.819096"><ele>245</ele><time>2019-08-30T14:19:30Z</time><name>PT13643</name></trkpt>
<trkpt lat="53.252587" lon="-1.819107"><ele>246</ele><time>2019-08-30T14:19:31Z</time><name>PT13644</name></trkpt>
<trkpt lat="53.252577" lon="-1.819122"><ele>244</ele><time>2019-08-30T14:19:32Z</time><name>PT13645</name></trkpt>
<trkpt lat="53.252569" lon="-1.819125"><ele>245</ele><time>2019-08-30T14:19:33Z</time><name>PT13646</name></trkpt>
<trkpt lat="53.252568" lon="-1.819139"><ele>245</ele><time>2019-08-30T14:19:34Z</time><name>PT13647</name></trkpt>
<trkpt lat="53.252567" lon="-1.819149"><ele>245</ele><time>2019-08-30T14:19:35Z</time><name>PT13648</name></trkpt>
<trkpt lat="53.252570" lon="-1.819150"><ele>246</ele><time>2019-08-30T14:19:36Z</time><name>PT13649</name></trkpt>
<trkpt lat="53.252564" lon="-1.819157"><ele>246</ele><time>2019-08-30T14:19:37Z</time><name>PT13650</name></trkpt>
<trkpt lat="53.252558" lon="-1.819175"><ele>247</ele><time>2019-08-30T14:19:38Z</time><name>PT13651</name></trkpt>
<trkpt lat="53.252556" lon="-1.819187"><ele>247</ele><time>2019-08-30T14:19:39Z</time><name>PT13652</name></trkpt>
<trkpt lat="53.252561" lon="-1.819188"><ele>248</ele><time>2019-08-30T14:19:40Z</time><name>PT13653</name></trkpt>
<trkpt lat="53.252557" lon="-1.819195"><ele>249</ele><time>2019-08-30T14:19:41Z</time><name>PT13654</name></trkpt>
<trkpt lat="53.252555" lon="-1.819206"><ele>249</ele><time>2019-08-30T14:19:42Z</time><name>PT13655</name></trkpt>
<trkpt lat="53.252552" lon="-1.819216"><ele>250</ele><time>2019-08-30T14:19:43Z</time><name>PT13656</name></trkpt>
<trkpt lat="53.252552" lon="-1.819228"><ele>251</ele><time>2019-08-30T14:19:44Z</time><name>PT13657</name></trkpt>
<trkpt lat="53.252542" lon="-1.819233"><ele>251</ele><time>2019-08-30T14:19:45Z</time><name>PT13658</name></trkpt>
<trkpt lat="53.252528" lon="-1.819239"><ele>251</ele><time>2019-08-30T14:19:46Z</time><name>PT13659</name></trkpt>
<trkpt lat="53.252520" lon="-1.819240"><ele>252</ele><time>2019-08-30T14:19:47Z</time><name>PT13660</name></trkpt>
<trkpt lat="53.252511" lon="-1.819238"><ele>252</ele><time>2019-08-30T14:19:48Z</time><name>PT13661</name></trkpt>
<trkpt lat="53.252502" lon="-1.819247"><ele>252</ele><time>2019-08-30T14:19:49Z</time><name>PT13662</name></trkpt>
<trkpt lat="53.252493" lon="-1.819254"><ele>253</ele><time>2019-08-30T14:19:50Z</time><name>PT13663</name></trkpt>
<trkpt lat="53.252484" lon="-1.819264"><ele>253</ele><time>2019-08-30T14:19:51Z</time><name>PT13664</name></trkpt>
<trkpt lat="53.252481" lon="-1.819284"><ele>252</ele><time>2019-08-30T14:19:52Z</time><name>PT13665</name></trkpt>
<trkpt lat="53.252476" lon="-1.819293"><ele>252</ele><time>2019-08-30T14:19:53Z</time><name>PT13666</name></trkpt>
<trkpt lat="53.252469" lon="-1.819298"><ele>253</ele><time>2019-08-30T14:19:54Z</time><name>PT13667</name></trkpt>
<trkpt lat="53.252461" lon="-1.819310"><ele>253</ele><time>2019-08-30T14:19:55Z</time><name>PT13668</name></trkpt>
<trkpt lat="53.252455" lon="-1.819316"><ele>254</ele><time>2019-08-30T14:19:56Z</time><name>PT13669</name></trkpt>
<trkpt lat="53.252452" lon="-1.819318"><ele>254</ele><time>2019-08-30T14:19:57Z</time><name>PT13670</name></trkpt>
<trkpt lat="53.252453" lon="-1.819318"><ele>254</ele><time>2019-08-30T14:19:58Z</time><name>PT13671</name></trkpt>
<trkpt lat="53.252450" lon="-1.819321"><ele>254</ele><time>2019-08-30T14:19:59Z</time><name>PT13672</name></trkpt>
<trkpt lat="53.252446" lon="-1.819320"><ele>254</ele><time>2019-08-30T14:20:00Z</time><name>PT13673</name></trkpt>
<trkpt lat="53.252447" lon="-1.819321"><ele>256</ele><time>2019-08-30T14:20:01Z</time><name>PT13674</name></trkpt>
<trkpt lat="53.252431" lon="-1.819372"><ele>256</ele><time>2019-08-30T14:20:09Z</time><name>PT13675</name></trkpt>
<trkpt lat="53.252424" lon="-1.819396"><ele>256</ele><time>2019-08-30T14:20:10Z</time><name>PT13676</name></trkpt>
<trkpt lat="53.252414" lon="-1.819425"><ele>256</ele><time>2019-08-30T14:20:11Z</time><name>PT13677</name></trkpt>
<trkpt lat="53.252402" lon="-1.819451"><ele>256</ele><time>2019-08-30T14:20:12Z</time><name>PT13678</name></trkpt>
<trkpt lat="53.252402" lon="-1.819467"><ele>256</ele><time>2019-08-30T14:20:13Z</time><name>PT13679</name></trkpt>
<trkpt lat="53.252396" lon="-1.819480"><ele>256</ele><time>2019-08-30T14:20:14Z</time><name>PT13680</name></trkpt>
<trkpt lat="53.252391" lon="-1.819508"><ele>255</ele><time>2019-08-30T14:20:15Z</time><name>PT13681</name></trkpt>
<trkpt lat="53.252381" lon="-1.819532"><ele>255</ele><time>2019-08-30T14:20:16Z</time><name>PT13682</name></trkpt>
<trkpt lat="53.252372" lon="-1.819534"><ele>255</ele><time>2019-08-30T14:20:17Z</time><name>PT13683</name></trkpt>
<trkpt lat="53.252372" lon="-1.819560"><ele>255</ele><time>2019-08-30T14:20:18Z</time><name>PT13684</name></trkpt>
<trkpt lat="53.252364" lon="-1.819589"><ele>254</ele><time>2019-08-30T14:20:19Z</time><name>PT13685</name></trkpt>
<trkpt lat="53.252355" lon="-1.819596"><ele>254</ele><time>2019-08-30T14:20:20Z</time><name>PT13686</name></trkpt>
<trkpt lat="53.252343" lon="-1.819597"><ele>254</ele><time>2019-08-30T14:20:21Z</time><name>PT13687</name></trkpt>
<trkpt lat="53.252337" lon="-1.819617"><ele>254</ele><time>2019-08-30T14:20:22Z</time><name>PT13688</name></trkpt>
<trkpt lat="53.252319" lon="-1.819619"><ele>254</ele><time>2019-08-30T14:20:23Z</time><name>PT13689</name></trkpt>
<trkpt lat="53.252300" lon="-1.819621"><ele>254</ele><time>2019-08-30T14:20:24Z</time><name>PT13690</name></trkpt>
<trkpt lat="53.252291" lon="-1.819627"><ele>254</ele><time>2019-08-30T14:20:25Z</time><name>PT13691</name></trkpt>
<trkpt lat="53.252283" lon="-1.819635"><ele>254</ele><time>2019-08-30T14:20:26Z</time><name>PT13692</name></trkpt>
<trkpt lat="53.252265" lon="-1.819649"><ele>255</ele><time>2019-08-30T14:20:27Z</time><name>PT13693</name></trkpt>
<trkpt lat="53.252255" lon="-1.819657"><ele>255</ele><time>2019-08-30T14:20:28Z</time><name>PT13694</name></trkpt>
<trkpt lat="53.252247" lon="-1.819668"><ele>255</ele><time>2019-08-30T14:20:29Z</time><name>PT13695</name></trkpt>
<trkpt lat="53.252241" lon="-1.819683"><ele>255</ele><time>2019-08-30T14:20:30Z</time><name>PT13696</name></trkpt>
<trkpt lat="53.252249" lon="-1.819709"><ele>255</ele><time>2019-08-30T14:20:31Z</time><name>PT13697</name></trkpt>
<trkpt lat="53.252253" lon="-1.819726"><ele>254</ele><time>2019-08-30T14:20:32Z</time><name>PT13698</name></trkpt>
<trkpt lat="53.252254" lon="-1.819743"><ele>254</ele><time>2019-08-30T14:20:33Z</time><name>PT13699</name></trkpt>
<trkpt lat="53.252242" lon="-1.819765"><ele>254</ele><time>2019-08-30T14:20:34Z</time><name>PT13700</name></trkpt>
<trkpt lat="53.252241" lon="-1.819786"><ele>253</ele><time>2019-08-30T14:20:35Z</time><name>PT13701</name></trkpt>
<trkpt lat="53.252241" lon="-1.819799"><ele>253</ele><time>2019-08-30T14:20:36Z</time><name>PT13702</name></trkpt>
<trkpt lat="53.252235" lon="-1.819821"><ele>253</ele><time>2019-08-30T14:20:37Z</time><name>PT13703</name></trkpt>
<trkpt lat="53.252234" lon="-1.819843"><ele>253</ele><time>2019-08-30T14:20:38Z</time><name>PT13704</name></trkpt>
<trkpt lat="53.252231" lon="-1.819859"><ele>253</ele><time>2019-08-30T14:20:39Z</time><name>PT13705</name></trkpt>
<trkpt lat="53.252242" lon="-1.819848"><ele>254</ele><time>2019-08-30T14:20:40Z</time><name>PT13706</name></trkpt>
<trkpt lat="53.252235" lon="-1.819849"><ele>254</ele><time>2019-08-30T14:20:41Z</time><name>PT13707</name></trkpt>
<trkpt lat="53.252242" lon="-1.819862"><ele>254</ele><time>2019-08-30T14:20:42Z</time><name>PT13708</name></trkpt>
<trkpt lat="53.252239" lon="-1.819872"><ele>254</ele><time>2019-08-30T14:20:43Z</time><name>PT13709</name></trkpt>
<trkpt lat="53.252230" lon="-1.819878"><ele>255</ele><time>2019-08-30T14:20:44Z</time><name>PT13710</name></trkpt>
<trkpt lat="53.252222" lon="-1.819893"><ele>255</ele><time>2019-08-30T14:20:45Z</time><name>PT13711</name></trkpt>
<trkpt lat="53.252209" lon="-1.819906"><ele>255</ele><time>2019-08-30T14:20:46Z</time><name>PT13712</name></trkpt>
<trkpt lat="53.252198" lon="-1.819920"><ele>255</ele><time>2019-08-30T14:20:47Z</time><name>PT13713</name></trkpt>
<trkpt lat="53.252188" lon="-1.819938"><ele>254</ele><time>2019-08-30T14:20:48Z</time><name>PT13714</name></trkpt>
<trkpt lat="53.252180" lon="-1.819956"><ele>255</ele><time>2019-08-30T14:20:49Z</time><name>PT13715</name></trkpt>
<trkpt lat="53.252172" lon="-1.819966"><ele>254</ele><time>2019-08-30T14:20:50Z</time><name>PT13716</name></trkpt>
<trkpt lat="53.252170" lon="-1.819980"><ele>254</ele><time>2019-08-30T14:20:51Z</time><name>PT13717</name></trkpt>
<trkpt lat="53.252162" lon="-1.820005"><ele>253</ele><time>2019-08-30T14:20:52Z</time><name>PT13718</name></trkpt>
<trkpt lat="53.252155" lon="-1.820015"><ele>253</ele><time>2019-08-30T14:20:53Z</time><name>PT13719</name></trkpt>
<trkpt lat="53.252158" lon="-1.820030"><ele>253</ele><time>2019-08-30T14:20:54Z</time><name>PT13720</name></trkpt>
<trkpt lat="53.252153" lon="-1.820047"><ele>252</ele><time>2019-08-30T14:20:55Z</time><name>PT13721</name></trkpt>
<trkpt lat="53.252155" lon="-1.820061"><ele>251</ele><time>2019-08-30T14:20:56Z</time><name>PT13722</name></trkpt>
<trkpt lat="53.252144" lon="-1.820070"><ele>250</ele><time>2019-08-30T14:20:57Z</time><name>PT13723</name></trkpt>
<trkpt lat="53.252142" lon="-1.820090"><ele>250</ele><time>2019-08-30T14:20:58Z</time><name>PT13724</name></trkpt>
<trkpt lat="53.252132" lon="-1.820090"><ele>250</ele><time>2019-08-30T14:20:59Z</time><name>PT13725</name></trkpt>
<trkpt lat="53.252129" lon="-1.820108"><ele>250</ele><time>2019-08-30T14:21:00Z</time><name>PT13726</name></trkpt>
<trkpt lat="53.252133" lon="-1.820112"><ele>251</ele><time>2019-08-30T14:21:01Z</time><name>PT13727</name></trkpt>
<trkpt lat="53.252139" lon="-1.820121"><ele>250</ele><time>2019-08-30T14:21:02Z</time><name>PT13728</name></trkpt>
<trkpt lat="53.252138" lon="-1.820128"><ele>250</ele><time>2019-08-30T14:21:03Z</time><name>PT13729</name></trkpt>
<trkpt lat="53.252137" lon="-1.820132"><ele>249</ele><time>2019-08-30T14:21:04Z</time><name>PT13730</name></trkpt>
<trkpt lat="53.252134" lon="-1.820131"><ele>249</ele><time>2019-08-30T14:21:05Z</time><name>PT13731</name></trkpt>
<trkpt lat="53.252131" lon="-1.820129"><ele>249</ele><time>2019-08-30T14:21:06Z</time><name>PT13732</name></trkpt>
<trkpt lat="53.252133" lon="-1.820136"><ele>249</ele><time>2019-08-30T14:21:07Z</time><name>PT13733</name></trkpt>
<trkpt lat="53.252135" lon="-1.820148"><ele>249</ele><time>2019-08-30T14:21:08Z</time><name>PT13734</name></trkpt>
<trkpt lat="53.252134" lon="-1.820165"><ele>247</ele><time>2019-08-30T14:21:15Z</time><name>PT13735</name></trkpt>
<trkpt lat="53.252128" lon="-1.820181"><ele>247</ele><time>2019-08-30T14:21:16Z</time><name>PT13736</name></trkpt>
<trkpt lat="53.252119" lon="-1.820201"><ele>246</ele><time>2019-08-30T14:21:17Z</time><name>PT13737</name></trkpt>
<trkpt lat="53.252117" lon="-1.820228"><ele>246</ele><time>2019-08-30T14:21:18Z</time><name>PT13738</name></trkpt>
<trkpt lat="53.252110" lon="-1.820244"><ele>246</ele><time>2019-08-30T14:21:19Z</time><name>PT13739</name></trkpt>
<trkpt lat="53.252107" lon="-1.820256"><ele>246</ele><time>2019-08-30T14:21:20Z</time><name>PT13740</name></trkpt>
<trkpt lat="53.252107" lon="-1.820276"><ele>246</ele><time>2019-08-30T14:21:21Z</time><name>PT13741</name></trkpt>
<trkpt lat="53.252103" lon="-1.820290"><ele>246</ele><time>2019-08-30T14:21:22Z</time><name>PT13742</name></trkpt>
<trkpt lat="53.252099" lon="-1.820310"><ele>246</ele><time>2019-08-30T14:21:23Z</time><name>PT13743</name></trkpt>
<trkpt lat="53.252093" lon="-1.820323"><ele>246</ele><time>2019-08-30T14:21:24Z</time><name>PT13744</name></trkpt>
<trkpt lat="53.252088" lon="-1.820337"><ele>246</ele><time>2019-08-30T14:21:25Z</time><name>PT13745</name></trkpt>
<trkpt lat="53.252084" lon="-1.820355"><ele>246</ele><time>2019-08-30T14:21:26Z</time><name>PT13746</name></trkpt>
<trkpt lat="53.252067" lon="-1.820383"><ele>246</ele><time>2019-08-30T14:21:27Z</time><name>PT13747</name></trkpt>
<trkpt lat="53.252060" lon="-1.820399"><ele>246</ele><time>2019-08-30T14:21:28Z</time><name>PT13748</name></trkpt>
<trkpt lat="53.252058" lon="-1.820412"><ele>245</ele><time>2019-08-30T14:21:29Z</time><name>PT13749</name></trkpt>
<trkpt lat="53.252053" lon="-1.820430"><ele>245</ele><time>2019-08-30T14:21:30Z</time><name>PT13750</name></trkpt>
<trkpt lat="53.252044" lon="-1.820434"><ele>245</ele><time>2019-08-30T14:21:31Z</time><name>PT13751</name></trkpt>
<trkpt lat="53.252037" lon="-1.820438"><ele>245</ele><time>2019-08-30T14:21:32Z</time><name>PT13752</name></trkpt>
<trkpt lat="53.252038" lon="-1.820441"><ele>245</ele><time>2019-08-30T14:21:33Z</time><name>PT13753</name></trkpt>
<trkpt lat="53.252030" lon="-1.820449"><ele>245</ele><time>2019-08-30T14:21:34Z</time><name>PT13754</name></trkpt>
<trkpt lat="53.252027" lon="-1.820464"><ele>245</ele><time>2019-08-30T14:21:35Z</time><name>PT13755</name></trkpt>
<trkpt lat="53.252029" lon="-1.820483"><ele>245</ele><time>2019-08-30T14:21:36Z</time><name>PT13756</name></trkpt>
<trkpt lat="53.252028" lon="-1.820495"><ele>245</ele><time>2019-08-30T14:21:37Z</time><name>PT13757</name></trkpt>
<trkpt lat="53.252020" lon="-1.820495"><ele>245</ele><time>2019-08-30T14:21:38Z</time><name>PT13758</name></trkpt>
<trkpt lat="53.252014" lon="-1.820500"><ele>245</ele><time>2019-08-30T14:21:39Z</time><name>PT13759</name></trkpt>
<trkpt lat="53.252005" lon="-1.820520"><ele>245</ele><time>2019-08-30T14:21:40Z</time><name>PT13760</name></trkpt>
<trkpt lat="53.252005" lon="-1.820536"><ele>245</ele><time>2019-08-30T14:21:41Z</time><name>PT13761</name></trkpt>
<trkpt lat="53.252003" lon="-1.820554"><ele>245</ele><time>2019-08-30T14:21:42Z</time><name>PT13762</name></trkpt>
<trkpt lat="53.252000" lon="-1.820570"><ele>246</ele><time>2019-08-30T14:21:43Z</time><name>PT13763</name></trkpt>
<trkpt lat="53.251999" lon="-1.820592"><ele>246</ele><time>2019-08-30T14:21:44Z</time><name>PT13764</name></trkpt>
<trkpt lat="53.251997" lon="-1.820611"><ele>246</ele><time>2019-08-30T14:21:45Z</time><name>PT13765</name></trkpt>
<trkpt lat="53.251998" lon="-1.820623"><ele>246</ele><time>2019-08-30T14:21:46Z</time><name>PT13766</name></trkpt>
<trkpt lat="53.251995" lon="-1.820633"><ele>246</ele><time>2019-08-30T14:21:47Z</time><name>PT13767</name></trkpt>
<trkpt lat="53.251988" lon="-1.820640"><ele>246</ele><time>2019-08-30T14:21:48Z</time><name>PT13768</name></trkpt>
<trkpt lat="53.251985" lon="-1.820649"><ele>247</ele><time>2019-08-30T14:21:49Z</time><name>PT13769</name></trkpt>
<trkpt lat="53.251985" lon="-1.820649"><ele>247</ele><time>2019-08-30T14:21:50Z</time><name>PT13770</name></trkpt>
<trkpt lat="53.251983" lon="-1.820653"><ele>247</ele><time>2019-08-30T14:21:51Z</time><name>PT13771</name></trkpt>
<trkpt lat="53.251978" lon="-1.820654"><ele>247</ele><time>2019-08-30T14:21:52Z</time><name>PT13772</name></trkpt>
<trkpt lat="53.251973" lon="-1.820674"><ele>247</ele><time>2019-08-30T14:21:54Z</time><name>PT13773</name></trkpt>
<trkpt lat="53.251970" lon="-1.820700"><ele>246</ele><time>2019-08-30T14:21:55Z</time><name>PT13774</name></trkpt>
<trkpt lat="53.251971" lon="-1.820714"><ele>246</ele><time>2019-08-30T14:21:56Z</time><name>PT13775</name></trkpt>
<trkpt lat="53.251959" lon="-1.820737"><ele>247</ele><time>2019-08-30T14:21:57Z</time><name>PT13776</name></trkpt>
<trkpt lat="53.251957" lon="-1.820760"><ele>247</ele><time>2019-08-30T14:21:58Z</time><name>PT13777</name></trkpt>
<trkpt lat="53.251949" lon="-1.820774"><ele>247</ele><time>2019-08-30T14:21:59Z</time><name>PT13778</name></trkpt>
<trkpt lat="53.251944" lon="-1.820790"><ele>247</ele><time>2019-08-30T14:22:00Z</time><name>PT13779</name></trkpt>
<trkpt lat="53.251952" lon="-1.820808"><ele>247</ele><time>2019-08-30T14:22:01Z</time><name>PT13780</name></trkpt>
<trkpt lat="53.251933" lon="-1.820826"><ele>247</ele><time>2019-08-30T14:22:02Z</time><name>PT13781</name></trkpt>
<trkpt lat="53.251934" lon="-1.820841"><ele>247</ele><time>2019-08-30T14:22:03Z</time><name>PT13782</name></trkpt>
<trkpt lat="53.251938" lon="-1.820851"><ele>247</ele><time>2019-08-30T14:22:04Z</time><name>PT13783</name></trkpt>
<trkpt lat="53.251928" lon="-1.820866"><ele>247</ele><time>2019-08-30T14:22:05Z</time><name>PT13784</name></trkpt>
<trkpt lat="53.251927" lon="-1.820879"><ele>247</ele><time>2019-08-30T14:22:06Z</time><name>PT13785</name></trkpt>
<trkpt lat="53.251922" lon="-1.820889"><ele>247</ele><time>2019-08-30T14:22:07Z</time><name>PT13786</name></trkpt>
<trkpt lat="53.251919" lon="-1.820904"><ele>246</ele><time>2019-08-30T14:22:09Z</time><name>PT13787</name></trkpt>
<trkpt lat="53.251909" lon="-1.820937"><ele>247</ele><time>2019-08-30T14:22:10Z</time><name>PT13788</name></trkpt>
<trkpt lat="53.251903" lon="-1.820956"><ele>247</ele><time>2019-08-30T14:22:11Z</time><name>PT13789</name></trkpt>
<trkpt lat="53.251903" lon="-1.820971"><ele>247</ele><time>2019-08-30T14:22:12Z</time><name>PT13790</name></trkpt>
<trkpt lat="53.251899" lon="-1.820986"><ele>247</ele><time>2019-08-30T14:22:13Z</time><name>PT13791</name></trkpt>
<trkpt lat="53.251900" lon="-1.820994"><ele>247</ele><time>2019-08-30T14:22:14Z</time><name>PT13792</name></trkpt>
<trkpt lat="53.251896" lon="-1.820998"><ele>247</ele><time>2019-08-30T14:22:15Z</time><name>PT13793</name></trkpt>
<trkpt lat="53.251872" lon="-1.821013"><ele>248</ele><time>2019-08-30T14:22:16Z</time><name>PT13794</name></trkpt>
<trkpt lat="53.251869" lon="-1.821022"><ele>247</ele><time>2019-08-30T14:22:17Z</time><name>PT13795</name></trkpt>
<trkpt lat="53.251859" lon="-1.821028"><ele>247</ele><time>2019-08-30T14:22:18Z</time><name>PT13796</name></trkpt>
<trkpt lat="53.251862" lon="-1.821045"><ele>247</ele><time>2019-08-30T14:22:19Z</time><name>PT13797</name></trkpt>
<trkpt lat="53.251859" lon="-1.821056"><ele>247</ele><time>2019-08-30T14:22:20Z</time><name>PT13798</name></trkpt>
<trkpt lat="53.251856" lon="-1.821061"><ele>247</ele><time>2019-08-30T14:22:21Z</time><name>PT13799</name></trkpt>
<trkpt lat="53.251857" lon="-1.821082"><ele>247</ele><time>2019-08-30T14:22:27Z</time><name>PT13800</name></trkpt>
<trkpt lat="53.251848" lon="-1.821113"><ele>247</ele><time>2019-08-30T14:22:28Z</time><name>PT13801</name></trkpt>
<trkpt lat="53.251840" lon="-1.821137"><ele>246</ele><time>2019-08-30T14:22:29Z</time><name>PT13802</name></trkpt>
<trkpt lat="53.251838" lon="-1.821174"><ele>246</ele><time>2019-08-30T14:22:30Z</time><name>PT13803</name></trkpt>
<trkpt lat="53.251836" lon="-1.821214"><ele>246</ele><time>2019-08-30T14:22:31Z</time><name>PT13804</name></trkpt>
<trkpt lat="53.251833" lon="-1.821242"><ele>246</ele><time>2019-08-30T14:22:32Z</time><name>PT13805</name></trkpt>
<trkpt lat="53.251834" lon="-1.821261"><ele>246</ele><time>2019-08-30T14:22:33Z</time><name>PT13806</name></trkpt>
<trkpt lat="53.251835" lon="-1.821291"><ele>246</ele><time>2019-08-30T14:22:34Z</time><name>PT13807</name></trkpt>
<trkpt lat="53.251839" lon="-1.821311"><ele>246</ele><time>2019-08-30T14:22:35Z</time><name>PT13808</name></trkpt>
<trkpt lat="53.251838" lon="-1.821338"><ele>246</ele><time>2019-08-30T14:22:36Z</time><name>PT13809</name></trkpt>
<trkpt lat="53.251830" lon="-1.821356"><ele>246</ele><time>2019-08-30T14:22:37Z</time><name>PT13810</name></trkpt>
<trkpt lat="53.251822" lon="-1.821388"><ele>246</ele><time>2019-08-30T14:22:38Z</time><name>PT13811</name></trkpt>
<trkpt lat="53.251819" lon="-1.821406"><ele>246</ele><time>2019-08-30T14:22:39Z</time><name>PT13812</name></trkpt>
<trkpt lat="53.251814" lon="-1.821431"><ele>246</ele><time>2019-08-30T14:22:40Z</time><name>PT13813</name></trkpt>
<trkpt lat="53.251812" lon="-1.821453"><ele>247</ele><time>2019-08-30T14:22:41Z</time><name>PT13814</name></trkpt>
<trkpt lat="53.251816" lon="-1.821477"><ele>247</ele><time>2019-08-30T14:22:42Z</time><name>PT13815</name></trkpt>
<trkpt lat="53.251820" lon="-1.821497"><ele>247</ele><time>2019-08-30T14:22:43Z</time><name>PT13816</name></trkpt>
<trkpt lat="53.251824" lon="-1.821512"><ele>247</ele><time>2019-08-30T14:22:44Z</time><name>PT13817</name></trkpt>
<trkpt lat="53.251826" lon="-1.821520"><ele>247</ele><time>2019-08-30T14:22:45Z</time><name>PT13818</name></trkpt>
<trkpt lat="53.251826" lon="-1.821539"><ele>247</ele><time>2019-08-30T14:22:46Z</time><name>PT13819</name></trkpt>
<trkpt lat="53.251834" lon="-1.821545"><ele>248</ele><time>2019-08-30T14:22:47Z</time><name>PT13820</name></trkpt>
<trkpt lat="53.251831" lon="-1.821564"><ele>247</ele><time>2019-08-30T14:22:48Z</time><name>PT13821</name></trkpt>
<trkpt lat="53.251832" lon="-1.821578"><ele>248</ele><time>2019-08-30T14:22:49Z</time><name>PT13822</name></trkpt>
<trkpt lat="53.251826" lon="-1.821600"><ele>248</ele><time>2019-08-30T14:22:50Z</time><name>PT13823</name></trkpt>
<trkpt lat="53.251825" lon="-1.821612"><ele>248</ele><time>2019-08-30T14:22:51Z</time><name>PT13824</name></trkpt>
<trkpt lat="53.251828" lon="-1.821633"><ele>248</ele><time>2019-08-30T14:22:52Z</time><name>PT13825</name></trkpt>
<trkpt lat="53.251826" lon="-1.821646"><ele>248</ele><time>2019-08-30T14:22:53Z</time><name>PT13826</name></trkpt>
<trkpt lat="53.251819" lon="-1.821673"><ele>248</ele><time>2019-08-30T14:22:54Z</time><name>PT13827</name></trkpt>
<trkpt lat="53.251817" lon="-1.821687"><ele>248</ele><time>2019-08-30T14:22:55Z</time><name>PT13828</name></trkpt>
<trkpt lat="53.251819" lon="-1.821699"><ele>248</ele><time>2019-08-30T14:22:56Z</time><name>PT13829</name></trkpt>
<trkpt lat="53.251815" lon="-1.821711"><ele>248</ele><time>2019-08-30T14:22:57Z</time><name>PT13830</name></trkpt>
<trkpt lat="53.251817" lon="-1.821729"><ele>248</ele><time>2019-08-30T14:22:58Z</time><name>PT13831</name></trkpt>
<trkpt lat="53.251814" lon="-1.821746"><ele>247</ele><time>2019-08-30T14:22:59Z</time><name>PT13832</name></trkpt>
<trkpt lat="53.251809" lon="-1.821757"><ele>247</ele><time>2019-08-30T14:23:00Z</time><name>PT13833</name></trkpt>
<trkpt lat="53.251811" lon="-1.821772"><ele>247</ele><time>2019-08-30T14:23:01Z</time><name>PT13834</name></trkpt>
<trkpt lat="53.251808" lon="-1.821789"><ele>247</ele><time>2019-08-30T14:23:02Z</time><name>PT13835</name></trkpt>
<trkpt lat="53.251804" lon="-1.821813"><ele>247</ele><time>2019-08-30T14:23:03Z</time><name>PT13836</name></trkpt>
<trkpt lat="53.251792" lon="-1.821846"><ele>246</ele><time>2019-08-30T14:23:05Z</time><name>PT13837</name></trkpt>
<trkpt lat="53.251792" lon="-1.821865"><ele>245</ele><time>2019-08-30T14:23:06Z</time><name>PT13838</name></trkpt>
<trkpt lat="53.251795" lon="-1.821880"><ele>245</ele><time>2019-08-30T14:23:07Z</time><name>PT13839</name></trkpt>
<trkpt lat="53.251795" lon="-1.821904"><ele>245</ele><time>2019-08-30T14:23:08Z</time><name>PT13840</name></trkpt>
<trkpt lat="53.251789" lon="-1.821946"><ele>245</ele><time>2019-08-30T14:23:09Z</time><name>PT13841</name></trkpt>
<trkpt lat="53.251789" lon="-1.821958"><ele>245</ele><time>2019-08-30T14:23:10Z</time><name>PT13842</name></trkpt>
<trkpt lat="53.251789" lon="-1.821971"><ele>244</ele><time>2019-08-30T14:23:11Z</time><name>PT13843</name></trkpt>
<trkpt lat="53.251788" lon="-1.821984"><ele>244</ele><time>2019-08-30T14:23:12Z</time><name>PT13844</name></trkpt>
<trkpt lat="53.251778" lon="-1.821999"><ele>243</ele><time>2019-08-30T14:23:13Z</time><name>PT13845</name></trkpt>
<trkpt lat="53.251771" lon="-1.822027"><ele>244</ele><time>2019-08-30T14:23:14Z</time><name>PT13846</name></trkpt>
<trkpt lat="53.251764" lon="-1.822053"><ele>244</ele><time>2019-08-30T14:23:15Z</time><name>PT13847</name></trkpt>
<trkpt lat="53.251758" lon="-1.822071"><ele>244</ele><time>2019-08-30T14:23:16Z</time><name>PT13848</name></trkpt>
<trkpt lat="53.251755" lon="-1.822087"><ele>244</ele><time>2019-08-30T14:23:17Z</time><name>PT13849</name></trkpt>
<trkpt lat="53.251755" lon="-1.822098"><ele>244</ele><time>2019-08-30T14:23:18Z</time><name>PT13850</name></trkpt>
<trkpt lat="53.251753" lon="-1.822116"><ele>244</ele><time>2019-08-30T14:23:19Z</time><name>PT13851</name></trkpt>
<trkpt lat="53.251749" lon="-1.822135"><ele>244</ele><time>2019-08-30T14:23:20Z</time><name>PT13852</name></trkpt>
<trkpt lat="53.251747" lon="-1.822146"><ele>244</ele><time>2019-08-30T14:23:21Z</time><name>PT13853</name></trkpt>
<trkpt lat="53.251741" lon="-1.822162"><ele>244</ele><time>2019-08-30T14:23:22Z</time><name>PT13854</name></trkpt>
<trkpt lat="53.251741" lon="-1.822183"><ele>244</ele><time>2019-08-30T14:23:23Z</time><name>PT13855</name></trkpt>
<trkpt lat="53.251719" lon="-1.822184"><ele>245</ele><time>2019-08-30T14:23:24Z</time><name>PT13856</name></trkpt>
<trkpt lat="53.251711" lon="-1.822189"><ele>245</ele><time>2019-08-30T14:23:25Z</time><name>PT13857</name></trkpt>
<trkpt lat="53.251703" lon="-1.822208"><ele>244</ele><time>2019-08-30T14:23:26Z</time><name>PT13858</name></trkpt>
<trkpt lat="53.251696" lon="-1.822219"><ele>244</ele><time>2019-08-30T14:23:27Z</time><name>PT13859</name></trkpt>
<trkpt lat="53.251695" lon="-1.822235"><ele>244</ele><time>2019-08-30T14:23:28Z</time><name>PT13860</name></trkpt>
<trkpt lat="53.251693" lon="-1.822255"><ele>244</ele><time>2019-08-30T14:23:29Z</time><name>PT13861</name></trkpt>
<trkpt lat="53.251692" lon="-1.822279"><ele>244</ele><time>2019-08-30T14:23:30Z</time><name>PT13862</name></trkpt>
<trkpt lat="53.251690" lon="-1.822296"><ele>244</ele><time>2019-08-30T14:23:31Z</time><name>PT13863</name></trkpt>
<trkpt lat="53.251690" lon="-1.822315"><ele>244</ele><time>2019-08-30T14:23:32Z</time><name>PT13864</name></trkpt>
<trkpt lat="53.251675" lon="-1.822340"><ele>243</ele><time>2019-08-30T14:23:33Z</time><name>PT13865</name></trkpt>
<trkpt lat="53.251667" lon="-1.822358"><ele>242</ele><time>2019-08-30T14:23:34Z</time><name>PT13866</name></trkpt>
<trkpt lat="53.251668" lon="-1.822374"><ele>242</ele><time>2019-08-30T14:23:35Z</time><name>PT13867</name></trkpt>
<trkpt lat="53.251667" lon="-1.822389"><ele>242</ele><time>2019-08-30T14:23:36Z</time><name>PT13868</name></trkpt>
<trkpt lat="53.251666" lon="-1.822402"><ele>242</ele><time>2019-08-30T14:23:37Z</time><name>PT13869</name></trkpt>
<trkpt lat="53.251662" lon="-1.822416"><ele>242</ele><time>2019-08-30T14:23:38Z</time><name>PT13870</name></trkpt>
<trkpt lat="53.251666" lon="-1.822430"><ele>242</ele><time>2019-08-30T14:23:39Z</time><name>PT13871</name></trkpt>
<trkpt lat="53.251666" lon="-1.822458"><ele>242</ele><time>2019-08-30T14:23:40Z</time><name>PT13872</name></trkpt>
<trkpt lat="53.251658" lon="-1.822470"><ele>242</ele><time>2019-08-30T14:23:41Z</time><name>PT13873</name></trkpt>
<trkpt lat="53.251659" lon="-1.822489"><ele>241</ele><time>2019-08-30T14:23:42Z</time><name>PT13874</name></trkpt>
<trkpt lat="53.251654" lon="-1.822500"><ele>241</ele><time>2019-08-30T14:23:43Z</time><name>PT13875</name></trkpt>
<trkpt lat="53.251655" lon="-1.822516"><ele>241</ele><time>2019-08-30T14:23:44Z</time><name>PT13876</name></trkpt>
<trkpt lat="53.251660" lon="-1.822543"><ele>241</ele><time>2019-08-30T14:23:45Z</time><name>PT13877</name></trkpt>
<trkpt lat="53.251662" lon="-1.822561"><ele>242</ele><time>2019-08-30T14:23:46Z</time><name>PT13878</name></trkpt>
<trkpt lat="53.251659" lon="-1.822589"><ele>242</ele><time>2019-08-30T14:23:47Z</time><name>PT13879</name></trkpt>
<trkpt lat="53.251659" lon="-1.822605"><ele>242</ele><time>2019-08-30T14:23:48Z</time><name>PT13880</name></trkpt>
<trkpt lat="53.251669" lon="-1.822621"><ele>242</ele><time>2019-08-30T14:23:49Z</time><name>PT13881</name></trkpt>
<trkpt lat="53.251674" lon="-1.822637"><ele>241</ele><time>2019-08-30T14:23:50Z</time><name>PT13882</name></trkpt>
<trkpt lat="53.251689" lon="-1.822661"><ele>241</ele><time>2019-08-30T14:23:51Z</time><name>PT13883</name></trkpt>
<trkpt lat="53.251705" lon="-1.822675"><ele>241</ele><time>2019-08-30T14:23:52Z</time><name>PT13884</name></trkpt>
<trkpt lat="53.251711" lon="-1.822689"><ele>241</ele><time>2019-08-30T14:23:53Z</time><name>PT13885</name></trkpt>
<trkpt lat="53.251720" lon="-1.822699"><ele>241</ele><time>2019-08-30T14:23:54Z</time><name>PT13886</name></trkpt>
<trkpt lat="53.251719" lon="-1.822714"><ele>240</ele><time>2019-08-30T14:23:55Z</time><name>PT13887</name></trkpt>
<trkpt lat="53.251726" lon="-1.822720"><ele>240</ele><time>2019-08-30T14:23:56Z</time><name>PT13888</name></trkpt>
<trkpt lat="53.251728" lon="-1.822731"><ele>240</ele><time>2019-08-30T14:23:57Z</time><name>PT13889</name></trkpt>
<trkpt lat="53.251735" lon="-1.822738"><ele>239</ele><time>2019-08-30T14:23:58Z</time><name>PT13890</name></trkpt>
<trkpt lat="53.251739" lon="-1.822752"><ele>239</ele><time>2019-08-30T14:23:59Z</time><name>PT13891</name></trkpt>
<trkpt lat="53.251744" lon="-1.822752"><ele>239</ele><time>2019-08-30T14:24:00Z</time><name>PT13892</name></trkpt>
<trkpt lat="53.251753" lon="-1.822751"><ele>238</ele><time>2019-08-30T14:24:01Z</time><name>PT13893</name></trkpt>
<trkpt lat="53.251756" lon="-1.822757"><ele>238</ele><time>2019-08-30T14:24:02Z</time><name>PT13894</name></trkpt>
<trkpt lat="53.251761" lon="-1.822764"><ele>238</ele><time>2019-08-30T14:24:03Z</time><name>PT13895</name></trkpt>
<trkpt lat="53.251771" lon="-1.822771"><ele>237</ele><time>2019-08-30T14:24:04Z</time><name>PT13896</name></trkpt>
<trkpt lat="53.251778" lon="-1.822777"><ele>237</ele><time>2019-08-30T14:24:05Z</time><name>PT13897</name></trkpt>
<trkpt lat="53.251787" lon="-1.822792"><ele>238</ele><time>2019-08-30T14:24:06Z</time><name>PT13898</name></trkpt>
<trkpt lat="53.251790" lon="-1.822809"><ele>237</ele><time>2019-08-30T14:24:07Z</time><name>PT13899</name></trkpt>
<trkpt lat="53.251769" lon="-1.822820"><ele>237</ele><time>2019-08-30T14:24:08Z</time><name>PT13900</name></trkpt>
<trkpt lat="53.251767" lon="-1.822828"><ele>237</ele><time>2019-08-30T14:24:09Z</time><name>PT13901</name></trkpt>
<trkpt lat="53.251771" lon="-1.822843"><ele>237</ele><time>2019-08-30T14:24:10Z</time><name>PT13902</name></trkpt>
<trkpt lat="53.251762" lon="-1.822840"><ele>236</ele><time>2019-08-30T14:24:11Z</time><name>PT13903</name></trkpt>
<trkpt lat="53.251767" lon="-1.822851"><ele>236</ele><time>2019-08-30T14:24:12Z</time><name>PT13904</name></trkpt>
<trkpt lat="53.251774" lon="-1.822864"><ele>236</ele><time>2019-08-30T14:24:13Z</time><name>PT13905</name></trkpt>
<trkpt lat="53.251778" lon="-1.822868"><ele>236</ele><time>2019-08-30T14:24:14Z</time><name>PT13906</name></trkpt>
<trkpt lat="53.251779" lon="-1.822875"><ele>236</ele><time>2019-08-30T14:24:15Z</time><name>PT13907</name></trkpt>
<trkpt lat="53.251789" lon="-1.822902"><ele>234</ele><time>2019-08-30T14:24:18Z</time><name>PT13908</name></trkpt>
<trkpt lat="53.251810" lon="-1.822917"><ele>233</ele><time>2019-08-30T14:24:19Z</time><name>PT13909</name></trkpt>
<trkpt lat="53.251825" lon="-1.822936"><ele>232</ele><time>2019-08-30T14:24:20Z</time><name>PT13910</name></trkpt>
<trkpt lat="53.251838" lon="-1.822955"><ele>232</ele><time>2019-08-30T14:24:21Z</time><name>PT13911</name></trkpt>
<trkpt lat="53.251866" lon="-1.822957"><ele>231</ele><time>2019-08-30T14:24:22Z</time><name>PT13912</name></trkpt>
<trkpt lat="53.251877" lon="-1.822962"><ele>231</ele><time>2019-08-30T14:24:23Z</time><name>PT13913</name></trkpt>
<trkpt lat="53.251886" lon="-1.822970"><ele>231</ele><time>2019-08-30T14:24:24Z</time><name>PT13914</name></trkpt>
<trkpt lat="53.251893" lon="-1.822974"><ele>231</ele><time>2019-08-30T14:24:25Z</time><name>PT13915</name></trkpt>
<trkpt lat="53.251896" lon="-1.822975"><ele>231</ele><time>2019-08-30T14:24:26Z</time><name>PT13916</name></trkpt>
<trkpt lat="53.251899" lon="-1.822979"><ele>231</ele><time>2019-08-30T14:24:27Z</time><name>PT13917</name></trkpt>
<trkpt lat="53.251899" lon="-1.822982"><ele>231</ele><time>2019-08-30T14:24:28Z</time><name>PT13918</name></trkpt>
<trkpt lat="53.251900" lon="-1.822986"><ele>231</ele><time>2019-08-30T14:24:29Z</time><name>PT13919</name></trkpt>
<trkpt lat="53.251908" lon="-1.823008"><ele>231</ele><time>2019-08-30T14:24:34Z</time><name>PT13920</name></trkpt>
<trkpt lat="53.251921" lon="-1.823040"><ele>231</ele><time>2019-08-30T14:24:35Z</time><name>PT13921</name></trkpt>
<trkpt lat="53.251930" lon="-1.823063"><ele>231</ele><time>2019-08-30T14:24:36Z</time><name>PT13922</name></trkpt>
<trkpt lat="53.251940" lon="-1.823086"><ele>231</ele><time>2019-08-30T14:24:37Z</time><name>PT13923</name></trkpt>
<trkpt lat="53.251953" lon="-1.823092"><ele>231</ele><time>2019-08-30T14:24:38Z</time><name>PT13924</name></trkpt>
<trkpt lat="53.251942" lon="-1.823117"><ele>231</ele><time>2019-08-30T14:24:39Z</time><name>PT13925</name></trkpt>
<trkpt lat="53.251945" lon="-1.823129"><ele>231</ele><time>2019-08-30T14:24:40Z</time><name>PT13926</name></trkpt>
<trkpt lat="53.251967" lon="-1.823133"><ele>232</ele><time>2019-08-30T14:24:41Z</time><name>PT13927</name></trkpt>
<trkpt lat="53.251979" lon="-1.823150"><ele>232</ele><time>2019-08-30T14:24:42Z</time><name>PT13928</name></trkpt>
<trkpt lat="53.251985" lon="-1.823148"><ele>232</ele><time>2019-08-30T14:24:43Z</time><name>PT13929</name></trkpt>
<trkpt lat="53.251983" lon="-1.823168"><ele>232</ele><time>2019-08-30T14:24:44Z</time><name>PT13930</name></trkpt>
<trkpt lat="53.251990" lon="-1.823182"><ele>233</ele><time>2019-08-30T14:24:45Z</time><name>PT13931</name></trkpt>
<trkpt lat="53.251997" lon="-1.823198"><ele>233</ele><time>2019-08-30T14:24:46Z</time><name>PT13932</name></trkpt>
<trkpt lat="53.251999" lon="-1.823221"><ele>234</ele><time>2019-08-30T14:24:47Z</time><name>PT13933</name></trkpt>
<trkpt lat="53.252004" lon="-1.823234"><ele>234</ele><time>2019-08-30T14:24:48Z</time><name>PT13934</name></trkpt>
<trkpt lat="53.252015" lon="-1.823244"><ele>235</ele><time>2019-08-30T14:24:49Z</time><name>PT13935</name></trkpt>
<trkpt lat="53.252026" lon="-1.823256"><ele>236</ele><time>2019-08-30T14:24:50Z</time><name>PT13936</name></trkpt>
<trkpt lat="53.252031" lon="-1.823269"><ele>236</ele><time>2019-08-30T14:24:51Z</time><name>PT13937</name></trkpt>
<trkpt lat="53.252028" lon="-1.823294"><ele>237</ele><time>2019-08-30T14:24:52Z</time><name>PT13938</name></trkpt>
<trkpt lat="53.252034" lon="-1.823311"><ele>237</ele><time>2019-08-30T14:24:53Z</time><name>PT13939</name></trkpt>
<trkpt lat="53.252025" lon="-1.823327"><ele>237</ele><time>2019-08-30T14:24:54Z</time><name>PT13940</name></trkpt>
<trkpt lat="53.252024" lon="-1.823336"><ele>238</ele><time>2019-08-30T14:24:55Z</time><name>PT13941</name></trkpt>
<trkpt lat="53.252027" lon="-1.823339"><ele>238</ele><time>2019-08-30T14:24:56Z</time><name>PT13942</name></trkpt>
<trkpt lat="53.252032" lon="-1.823351"><ele>238</ele><time>2019-08-30T14:24:57Z</time><name>PT13943</name></trkpt>
<trkpt lat="53.252031" lon="-1.823356"><ele>239</ele><time>2019-08-30T14:24:58Z</time><name>PT13944</name></trkpt>
<trkpt lat="53.252025" lon="-1.823371"><ele>239</ele><time>2019-08-30T14:24:59Z</time><name>PT13945</name></trkpt>
<trkpt lat="53.252021" lon="-1.823379"><ele>239</ele><time>2019-08-30T14:25:00Z</time><name>PT13946</name></trkpt>
<trkpt lat="53.252020" lon="-1.823389"><ele>239</ele><time>2019-08-30T14:25:01Z</time><name>PT13947</name></trkpt>
<trkpt lat="53.252019" lon="-1.823397"><ele>239</ele><time>2019-08-30T14:25:02Z</time><name>PT13948</name></trkpt>
<trkpt lat="53.252022" lon="-1.823404"><ele>239</ele><time>2019-08-30T14:25:03Z</time><name>PT13949</name></trkpt>
<trkpt lat="53.252021" lon="-1.823414"><ele>240</ele><time>2019-08-30T14:25:04Z</time><name>PT13950</name></trkpt>
<trkpt lat="53.252023" lon="-1.823415"><ele>239</ele><time>2019-08-30T14:25:05Z</time><name>PT13951</name></trkpt>
<trkpt lat="53.252023" lon="-1.823425"><ele>239</ele><time>2019-08-30T14:25:06Z</time><name>PT13952</name></trkpt>
<trkpt lat="53.252022" lon="-1.823438"><ele>239</ele><time>2019-08-30T14:25:07Z</time><name>PT13953</name></trkpt>
<trkpt lat="53.252022" lon="-1.823444"><ele>239</ele><time>2019-08-30T14:25:08Z</time><name>PT13954</name></trkpt>
<trkpt lat="53.252022" lon="-1.823447"><ele>239</ele><time>2019-08-30T14:25:09Z</time><name>PT13955</name></trkpt>
<trkpt lat="53.252025" lon="-1.823456"><ele>239</ele><time>2019-08-30T14:25:10Z</time><name>PT13956</name></trkpt>
<trkpt lat="53.252024" lon="-1.823466"><ele>240</ele><time>2019-08-30T14:25:11Z</time><name>PT13957</name></trkpt>
<trkpt lat="53.252029" lon="-1.823470"><ele>240</ele><time>2019-08-30T14:25:12Z</time><name>PT13958</name></trkpt>
<trkpt lat="53.252031" lon="-1.823482"><ele>240</ele><time>2019-08-30T14:25:13Z</time><name>PT13959</name></trkpt>
<trkpt lat="53.252030" lon="-1.823493"><ele>240</ele><time>2019-08-30T14:25:14Z</time><name>PT13960</name></trkpt>
<trkpt lat="53.252033" lon="-1.823500"><ele>240</ele><time>2019-08-30T14:25:15Z</time><name>PT13961</name></trkpt>
<trkpt lat="53.252031" lon="-1.823503"><ele>240</ele><time>2019-08-30T14:25:16Z</time><name>PT13962</name></trkpt>
<trkpt lat="53.252031" lon="-1.823507"><ele>241</ele><time>2019-08-30T14:25:17Z</time><name>PT13963</name></trkpt>
<trkpt lat="53.252033" lon="-1.823515"><ele>241</ele><time>2019-08-30T14:25:18Z</time><name>PT13964</name></trkpt>
<trkpt lat="53.252035" lon="-1.823522"><ele>241</ele><time>2019-08-30T14:25:19Z</time><name>PT13965</name></trkpt>
<trkpt lat="53.252037" lon="-1.823530"><ele>242</ele><time>2019-08-30T14:25:20Z</time><name>PT13966</name></trkpt>
<trkpt lat="53.252040" lon="-1.823552"><ele>241</ele><time>2019-08-30T14:25:26Z</time><name>PT13967</name></trkpt>
<trkpt lat="53.252040" lon="-1.823571"><ele>241</ele><time>2019-08-30T14:25:27Z</time><name>PT13968</name></trkpt>
<trkpt lat="53.252038" lon="-1.823584"><ele>242</ele><time>2019-08-30T14:25:46Z</time><name>PT13969</name></trkpt>
<trkpt lat="53.252042" lon="-1.823604"><ele>242</ele><time>2019-08-30T14:25:47Z</time><name>PT13970</name></trkpt>
<trkpt lat="53.252052" lon="-1.823632"><ele>242</ele><time>2019-08-30T14:25:48Z</time><name>PT13971</name></trkpt>
<trkpt lat="53.252048" lon="-1.823665"><ele>242</ele><time>2019-08-30T14:25:49Z</time><name>PT13972</name></trkpt>
<trkpt lat="53.252038" lon="-1.823683"><ele>242</ele><time>2019-08-30T14:25:50Z</time><name>PT13973</name></trkpt>
<trkpt lat="53.252036" lon="-1.823711"><ele>242</ele><time>2019-08-30T14:25:51Z</time><name>PT13974</name></trkpt>
<trkpt lat="53.252034" lon="-1.823736"><ele>242</ele><time>2019-08-30T14:25:52Z</time><name>PT13975</name></trkpt>
<trkpt lat="53.252021" lon="-1.823773"><ele>242</ele><time>2019-08-30T14:25:53Z</time><name>PT13976</name></trkpt>
<trkpt lat="53.252026" lon="-1.823805"><ele>242</ele><time>2019-08-30T14:25:54Z</time><name>PT13977</name></trkpt>
<trkpt lat="53.252020" lon="-1.823826"><ele>242</ele><time>2019-08-30T14:25:55Z</time><name>PT13978</name></trkpt>
<trkpt lat="53.252016" lon="-1.823850"><ele>242</ele><time>2019-08-30T14:25:56Z</time><name>PT13979</name></trkpt>
<trkpt lat="53.252019" lon="-1.823850"><ele>241</ele><time>2019-08-30T14:25:57Z</time><name>PT13980</name></trkpt>
<trkpt lat="53.252015" lon="-1.823853"><ele>241</ele><time>2019-08-30T14:25:58Z</time><name>PT13981</name></trkpt>
<trkpt lat="53.252017" lon="-1.823865"><ele>241</ele><time>2019-08-30T14:25:59Z</time><name>PT13982</name></trkpt>
<trkpt lat="53.252014" lon="-1.823883"><ele>242</ele><time>2019-08-30T14:26:00Z</time><name>PT13983</name></trkpt>
<trkpt lat="53.252015" lon="-1.823906"><ele>242</ele><time>2019-08-30T14:26:01Z</time><name>PT13984</name></trkpt>
<trkpt lat="53.252013" lon="-1.823932"><ele>242</ele><time>2019-08-30T14:26:02Z</time><name>PT13985</name></trkpt>
<trkpt lat="53.252012" lon="-1.823955"><ele>242</ele><time>2019-08-30T14:26:03Z</time><name>PT13986</name></trkpt>
<trkpt lat="53.252015" lon="-1.823977"><ele>241</ele><time>2019-08-30T14:26:04Z</time><name>PT13987</name></trkpt>
<trkpt lat="53.252009" lon="-1.823998"><ele>241</ele><time>2019-08-30T14:26:05Z</time><name>PT13988</name></trkpt>
<trkpt lat="53.252013" lon="-1.824009"><ele>242</ele><time>2019-08-30T14:26:06Z</time><name>PT13989</name></trkpt>
<trkpt lat="53.252015" lon="-1.824016"><ele>241</ele><time>2019-08-30T14:26:07Z</time><name>PT13990</name></trkpt>
<trkpt lat="53.252018" lon="-1.824022"><ele>241</ele><time>2019-08-30T14:26:08Z</time><name>PT13991</name></trkpt>
<trkpt lat="53.252018" lon="-1.824030"><ele>240</ele><time>2019-08-30T14:26:09Z</time><name>PT13992</name></trkpt>
<trkpt lat="53.252020" lon="-1.824070"><ele>240</ele><time>2019-08-30T14:26:14Z</time><name>PT13993</name></trkpt>
<trkpt lat="53.252024" lon="-1.824099"><ele>240</ele><time>2019-08-30T14:26:15Z</time><name>PT13994</name></trkpt>
<trkpt lat="53.252026" lon="-1.824123"><ele>239</ele><time>2019-08-30T14:26:16Z</time><name>PT13995</name></trkpt>
<trkpt lat="53.252024" lon="-1.824150"><ele>239</ele><time>2019-08-30T14:26:17Z</time><name>PT13996</name></trkpt>
<trkpt lat="53.252016" lon="-1.824170"><ele>238</ele><time>2019-08-30T14:26:18Z</time><name>PT13997</name></trkpt>
<trkpt lat="53.252017" lon="-1.824187"><ele>238</ele><time>2019-08-30T14:26:19Z</time><name>PT13998</name></trkpt>
<trkpt lat="53.252021" lon="-1.824203"><ele>237</ele><time>2019-08-30T14:26:20Z</time><name>PT13999</name></trkpt>
<trkpt lat="53.252018" lon="-1.824213"><ele>237</ele><time>2019-08-30T14:26:21Z</time><name>PT14000</name></trkpt>
<trkpt lat="53.252021" lon="-1.824224"><ele>236</ele><time>2019-08-30T14:26:22Z</time><name>PT14001</name></trkpt>
<trkpt lat="53.252024" lon="-1.824242"><ele>236</ele><time>2019-08-30T14:26:23Z</time><name>PT14002</name></trkpt>
<trkpt lat="53.252013" lon="-1.824261"><ele>236</ele><time>2019-08-30T14:26:24Z</time><name>PT14003</name></trkpt>
<trkpt lat="53.252013" lon="-1.824285"><ele>236</ele><time>2019-08-30T14:26:25Z</time><name>PT14004</name></trkpt>
<trkpt lat="53.252008" lon="-1.824299"><ele>236</ele><time>2019-08-30T14:26:26Z</time><name>PT14005</name></trkpt>
<trkpt lat="53.252003" lon="-1.824316"><ele>235</ele><time>2019-08-30T14:26:27Z</time><name>PT14006</name></trkpt>
<trkpt lat="53.252000" lon="-1.824334"><ele>236</ele><time>2019-08-30T14:26:28Z</time><name>PT14007</name></trkpt>
<trkpt lat="53.252000" lon="-1.824348"><ele>235</ele><time>2019-08-30T14:26:29Z</time><name>PT14008</name></trkpt>
<trkpt lat="53.251990" lon="-1.824373"><ele>236</ele><time>2019-08-30T14:26:30Z</time><name>PT14009</name></trkpt>
<trkpt lat="53.251993" lon="-1.824371"><ele>235</ele><time>2019-08-30T14:26:31Z</time><name>PT14010</name></trkpt>
<trkpt lat="53.251995" lon="-1.824381"><ele>236</ele><time>2019-08-30T14:26:32Z</time><name>PT14011</name></trkpt>
<trkpt lat="53.251989" lon="-1.824391"><ele>237</ele><time>2019-08-30T14:26:33Z</time><name>PT14012</name></trkpt>
<trkpt lat="53.251983" lon="-1.824391"><ele>236</ele><time>2019-08-30T14:26:34Z</time><name>PT14013</name></trkpt>
<trkpt lat="53.251980" lon="-1.824395"><ele>236</ele><time>2019-08-30T14:26:35Z</time><name>PT14014</name></trkpt>
<trkpt lat="53.251976" lon="-1.824398"><ele>235</ele><time>2019-08-30T14:26:36Z</time><name>PT14015</name></trkpt>
<trkpt lat="53.251975" lon="-1.824425"><ele>235</ele><time>2019-08-30T14:26:48Z</time><name>PT14016</name></trkpt>
<trkpt lat="53.251974" lon="-1.824436"><ele>235</ele><time>2019-08-30T14:26:49Z</time><name>PT14017</name></trkpt>
<trkpt lat="53.251975" lon="-1.824445"><ele>235</ele><time>2019-08-30T14:26:50Z</time><name>PT14018</name></trkpt>
<trkpt lat="53.251978" lon="-1.824437"><ele>235</ele><time>2019-08-30T14:26:51Z</time><name>PT14019</name></trkpt>
<trkpt lat="53.251976" lon="-1.824438"><ele>235</ele><time>2019-08-30T14:26:52Z</time><name>PT14020</name></trkpt>
<trkpt lat="53.251978" lon="-1.824441"><ele>235</ele><time>2019-08-30T14:26:53Z</time><name>PT14021</name></trkpt>
<trkpt lat="53.251981" lon="-1.824436"><ele>235</ele><time>2019-08-30T14:26:54Z</time><name>PT14022</name></trkpt>
<trkpt lat="53.251980" lon="-1.824440"><ele>234</ele><time>2019-08-30T14:26:55Z</time><name>PT14023</name></trkpt>
<trkpt lat="53.251976" lon="-1.824435"><ele>234</ele><time>2019-08-30T14:26:56Z</time><name>PT14024</name></trkpt>
<trkpt lat="53.251976" lon="-1.824434"><ele>234</ele><time>2019-08-30T14:27:00Z</time><name>PT14025</name></trkpt>
<trkpt lat="53.251974" lon="-1.824441"><ele>233</ele><time>2019-08-30T14:27:01Z</time><name>PT14026</name></trkpt>
<trkpt lat="53.251975" lon="-1.824443"><ele>233</ele><time>2019-08-30T14:27:02Z</time><name>PT14027</name></trkpt>
<trkpt lat="53.251974" lon="-1.824443"><ele>233</ele><time>2019-08-30T14:27:03Z</time><name>PT14028</name></trkpt>
<trkpt lat="53.251968" lon="-1.824446"><ele>233</ele><time>2019-08-30T14:27:04Z</time><name>PT14029</name></trkpt>
<trkpt lat="53.251963" lon="-1.824450"><ele>232</ele><time>2019-08-30T14:27:05Z</time><name>PT14030</name></trkpt>
<trkpt lat="53.251961" lon="-1.824459"><ele>232</ele><time>2019-08-30T14:27:06Z</time><name>PT14031</name></trkpt>
<trkpt lat="53.251960" lon="-1.824469"><ele>232</ele><time>2019-08-30T14:27:07Z</time><name>PT14032</name></trkpt>
<trkpt lat="53.251963" lon="-1.824472"><ele>232</ele><time>2019-08-30T14:27:08Z</time><name>PT14033</name></trkpt>
<trkpt lat="53.251964" lon="-1.824477"><ele>231</ele><time>2019-08-30T14:27:09Z</time><name>PT14034</name></trkpt>
<trkpt lat="53.251972" lon="-1.824480"><ele>231</ele><time>2019-08-30T14:27:10Z</time><name>PT14035</name></trkpt>
<trkpt lat="53.251980" lon="-1.824484"><ele>231</ele><time>2019-08-30T14:27:11Z</time><name>PT14036</name></trkpt>
<trkpt lat="53.251985" lon="-1.824490"><ele>231</ele><time>2019-08-30T14:27:12Z</time><name>PT14037</name></trkpt>
<trkpt lat="53.251982" lon="-1.824498"><ele>231</ele><time>2019-08-30T14:27:13Z</time><name>PT14038</name></trkpt>
<trkpt lat="53.251984" lon="-1.824517"><ele>231</ele><time>2019-08-30T14:27:14Z</time><name>PT14039</name></trkpt>
<trkpt lat="53.251988" lon="-1.824521"><ele>231</ele><time>2019-08-30T14:27:15Z</time><name>PT14040</name></trkpt>
<trkpt lat="53.251988" lon="-1.824521"><ele>231</ele><time>2019-08-30T14:27:16Z</time><name>PT14041</name></trkpt>
<trkpt lat="53.251988" lon="-1.824527"><ele>229</ele><time>2019-08-30T14:27:17Z</time><name>PT14042</name></trkpt>
<trkpt lat="53.251986" lon="-1.824524"><ele>228</ele><time>2019-08-30T14:27:18Z</time><name>PT14043</name></trkpt>
<trkpt lat="53.251986" lon="-1.824528"><ele>228</ele><time>2019-08-30T14:27:19Z</time><name>PT14044</name></trkpt>
<trkpt lat="53.251983" lon="-1.824532"><ele>227</ele><time>2019-08-30T14:27:20Z</time><name>PT14045</name></trkpt>
<trkpt lat="53.251985" lon="-1.824539"><ele>227</ele><time>2019-08-30T14:27:21Z</time><name>PT14046</name></trkpt>
<trkpt lat="53.251981" lon="-1.824551"><ele>228</ele><time>2019-08-30T14:27:22Z</time><name>PT14047</name></trkpt>
<trkpt lat="53.251985" lon="-1.824557"><ele>228</ele><time>2019-08-30T14:27:23Z</time><name>PT14048</name></trkpt>
<trkpt lat="53.251980" lon="-1.824560"><ele>228</ele><time>2019-08-30T14:27:24Z</time><name>PT14049</name></trkpt>
<trkpt lat="53.251982" lon="-1.824570"><ele>229</ele><time>2019-08-30T14:27:25Z</time><name>PT14050</name></trkpt>
<trkpt lat="53.251991" lon="-1.824576"><ele>229</ele><time>2019-08-30T14:27:26Z</time><name>PT14051</name></trkpt>
<trkpt lat="53.252004" lon="-1.824584"><ele>230</ele><time>2019-08-30T14:27:27Z</time><name>PT14052</name></trkpt>
<trkpt lat="53.252012" lon="-1.824596"><ele>230</ele><time>2019-08-30T14:27:28Z</time><name>PT14053</name></trkpt>
<trkpt lat="53.252015" lon="-1.824614"><ele>230</ele><time>2019-08-30T14:27:29Z</time><name>PT14054</name></trkpt>
<trkpt lat="53.252014" lon="-1.824628"><ele>230</ele><time>2019-08-30T14:27:30Z</time><name>PT14055</name></trkpt>
<trkpt lat="53.252016" lon="-1.824634"><ele>230</ele><time>2019-08-30T14:27:31Z</time><name>PT14056</name></trkpt>
<trkpt lat="53.252018" lon="-1.824647"><ele>231</ele><time>2019-08-30T14:27:32Z</time><name>PT14057</name></trkpt>
<trkpt lat="53.252026" lon="-1.824661"><ele>232</ele><time>2019-08-30T14:27:33Z</time><name>PT14058</name></trkpt>
<trkpt lat="53.252031" lon="-1.824676"><ele>232</ele><time>2019-08-30T14:27:34Z</time><name>PT14059</name></trkpt>
<trkpt lat="53.252038" lon="-1.824688"><ele>233</ele><time>2019-08-30T14:27:35Z</time><name>PT14060</name></trkpt>
<trkpt lat="53.252037" lon="-1.824703"><ele>232</ele><time>2019-08-30T14:27:36Z</time><name>PT14061</name></trkpt>
<trkpt lat="53.252042" lon="-1.824711"><ele>231</ele><time>2019-08-30T14:27:37Z</time><name>PT14062</name></trkpt>
<trkpt lat="53.252045" lon="-1.824720"><ele>231</ele><time>2019-08-30T14:27:38Z</time><name>PT14063</name></trkpt>
<trkpt lat="53.252045" lon="-1.824731"><ele>232</ele><time>2019-08-30T14:27:39Z</time><name>PT14064</name></trkpt>
<trkpt lat="53.252046" lon="-1.824747"><ele>230</ele><time>2019-08-30T14:27:40Z</time><name>PT14065</name></trkpt>
<trkpt lat="53.252051" lon="-1.824753"><ele>230</ele><time>2019-08-30T14:27:41Z</time><name>PT14066</name></trkpt>
<trkpt lat="53.252059" lon="-1.824765"><ele>230</ele><time>2019-08-30T14:27:42Z</time><name>PT14067</name></trkpt>
<trkpt lat="53.252064" lon="-1.824781"><ele>231</ele><time>2019-08-30T14:27:43Z</time><name>PT14068</name></trkpt>
<trkpt lat="53.252065" lon="-1.824790"><ele>232</ele><time>2019-08-30T14:27:44Z</time><name>PT14069</name></trkpt>
<trkpt lat="53.252065" lon="-1.824800"><ele>233</ele><time>2019-08-30T14:27:45Z</time><name>PT14070</name></trkpt>
<trkpt lat="53.252064" lon="-1.824816"><ele>233</ele><time>2019-08-30T14:27:46Z</time><name>PT14071</name></trkpt>
<trkpt lat="53.252068" lon="-1.824827"><ele>233</ele><time>2019-08-30T14:27:47Z</time><name>PT14072</name></trkpt>
<trkpt lat="53.252067" lon="-1.824832"><ele>234</ele><time>2019-08-30T14:27:48Z</time><name>PT14073</name></trkpt>
<trkpt lat="53.252066" lon="-1.824833"><ele>232</ele><time>2019-08-30T14:27:49Z</time><name>PT14074</name></trkpt>
<trkpt lat="53.252072" lon="-1.824834"><ele>232</ele><time>2019-08-30T14:27:50Z</time><name>PT14075</name></trkpt>
<trkpt lat="53.252072" lon="-1.824837"><ele>231</ele><time>2019-08-30T14:27:51Z</time><name>PT14076</name></trkpt>
<trkpt lat="53.252072" lon="-1.824837"><ele>231</ele><time>2019-08-30T14:27:52Z</time><name>PT14077</name></trkpt>
<trkpt lat="53.252072" lon="-1.824840"><ele>230</ele><time>2019-08-30T14:27:53Z</time><name>PT14078</name></trkpt>
<trkpt lat="53.252071" lon="-1.824859"><ele>231</ele><time>2019-08-30T14:28:00Z</time><name>PT14079</name></trkpt>
<trkpt lat="53.252072" lon="-1.824870"><ele>231</ele><time>2019-08-30T14:28:01Z</time><name>PT14080</name></trkpt>
<trkpt lat="53.252075" lon="-1.824876"><ele>231</ele><time>2019-08-30T14:28:02Z</time><name>PT14081</name></trkpt>
<trkpt lat="53.252071" lon="-1.824884"><ele>231</ele><time>2019-08-30T14:28:03Z</time><name>PT14082</name></trkpt>
<trkpt lat="53.252073" lon="-1.824894"><ele>230</ele><time>2019-08-30T14:28:04Z</time><name>PT14083</name></trkpt>
<trkpt lat="53.252077" lon="-1.824907"><ele>230</ele><time>2019-08-30T14:28:05Z</time><name>PT14084</name></trkpt>
<trkpt lat="53.252078" lon="-1.824917"><ele>229</ele><time>2019-08-30T14:28:06Z</time><name>PT14085</name></trkpt>
<trkpt lat="53.252081" lon="-1.824924"><ele>230</ele><time>2019-08-30T14:28:07Z</time><name>PT14086</name></trkpt>
<trkpt lat="53.252082" lon="-1.824932"><ele>230</ele><time>2019-08-30T14:28:08Z</time><name>PT14087</name></trkpt>
<trkpt lat="53.252082" lon="-1.824931"><ele>230</ele><time>2019-08-30T14:28:09Z</time><name>PT14088</name></trkpt>
<trkpt lat="53.252080" lon="-1.824929"><ele>230</ele><time>2019-08-30T14:28:10Z</time><name>PT14089</name></trkpt>
<trkpt lat="53.252080" lon="-1.824933"><ele>230</ele><time>2019-08-30T14:28:11Z</time><name>PT14090</name></trkpt>
<trkpt lat="53.252088" lon="-1.824934"><ele>230</ele><time>2019-08-30T14:28:12Z</time><name>PT14091</name></trkpt>
<trkpt lat="53.252086" lon="-1.824937"><ele>229</ele><time>2019-08-30T14:28:13Z</time><name>PT14092</name></trkpt>
<trkpt lat="53.252086" lon="-1.824936"><ele>230</ele><time>2019-08-30T14:28:14Z</time><name>PT14093</name></trkpt>
<trkpt lat="53.252092" lon="-1.824950"><ele>231</ele><time>2019-08-30T14:28:15Z</time><name>PT14094</name></trkpt>
<trkpt lat="53.252092" lon="-1.824961"><ele>231</ele><time>2019-08-30T14:28:16Z</time><name>PT14095</name></trkpt>
<trkpt lat="53.252095" lon="-1.824967"><ele>233</ele><time>2019-08-30T14:28:17Z</time><name>PT14096</name></trkpt>
<trkpt lat="53.252105" lon="-1.824969"><ele>232</ele><time>2019-08-30T14:28:18Z</time><name>PT14097</name></trkpt>
<trkpt lat="53.252103" lon="-1.824992"><ele>235</ele><time>2019-08-30T14:28:19Z</time><name>PT14098</name></trkpt>
<trkpt lat="53.252105" lon="-1.825011"><ele>236</ele><time>2019-08-30T14:28:20Z</time><name>PT14099</name></trkpt>
<trkpt lat="53.252101" lon="-1.825027"><ele>237</ele><time>2019-08-30T14:28:21Z</time><name>PT14100</name></trkpt>
<trkpt lat="53.252102" lon="-1.825043"><ele>238</ele><time>2019-08-30T14:28:22Z</time><name>PT14101</name></trkpt>
<trkpt lat="53.252101" lon="-1.825060"><ele>239</ele><time>2019-08-30T14:28:23Z</time><name>PT14102</name></trkpt>
<trkpt lat="53.252102" lon="-1.825075"><ele>241</ele><time>2019-08-30T14:28:24Z</time><name>PT14103</name></trkpt>
<trkpt lat="53.252097" lon="-1.825090"><ele>241</ele><time>2019-08-30T14:28:25Z</time><name>PT14104</name></trkpt>
<trkpt lat="53.252095" lon="-1.825105"><ele>241</ele><time>2019-08-30T14:28:26Z</time><name>PT14105</name></trkpt>
<trkpt lat="53.252094" lon="-1.825119"><ele>240</ele><time>2019-08-30T14:28:27Z</time><name>PT14106</name></trkpt>
<trkpt lat="53.252085" lon="-1.825142"><ele>239</ele><time>2019-08-30T14:28:28Z</time><name>PT14107</name></trkpt>
<trkpt lat="53.252079" lon="-1.825159"><ele>239</ele><time>2019-08-30T14:28:29Z</time><name>PT14108</name></trkpt>
<trkpt lat="53.252078" lon="-1.825176"><ele>239</ele><time>2019-08-30T14:28:30Z</time><name>PT14109</name></trkpt>
<trkpt lat="53.252076" lon="-1.825196"><ele>238</ele><time>2019-08-30T14:28:31Z</time><name>PT14110</name></trkpt>
<trkpt lat="53.252072" lon="-1.825205"><ele>235</ele><time>2019-08-30T14:28:32Z</time><name>PT14111</name></trkpt>
<trkpt lat="53.252067" lon="-1.825220"><ele>235</ele><time>2019-08-30T14:28:33Z</time><name>PT14112</name></trkpt>
<trkpt lat="53.252064" lon="-1.825241"><ele>233</ele><time>2019-08-30T14:28:34Z</time><name>PT14113</name></trkpt>
<trkpt lat="53.252067" lon="-1.825264"><ele>233</ele><time>2019-08-30T14:28:35Z</time><name>PT14114</name></trkpt>
<trkpt lat="53.252068" lon="-1.825284"><ele>233</ele><time>2019-08-30T14:28:36Z</time><name>PT14115</name></trkpt>
<trkpt lat="53.252055" lon="-1.825310"><ele>233</ele><time>2019-08-30T14:28:37Z</time><name>PT14116</name></trkpt>
<trkpt lat="53.252059" lon="-1.825333"><ele>233</ele><time>2019-08-30T14:28:38Z</time><name>PT14117</name></trkpt>
<trkpt lat="53.252055" lon="-1.825354"><ele>233</ele><time>2019-08-30T14:28:39Z</time><name>PT14118</name></trkpt>
<trkpt lat="53.252053" lon="-1.825367"><ele>232</ele><time>2019-08-30T14:28:40Z</time><name>PT14119</name></trkpt>
<trkpt lat="53.252056" lon="-1.825379"><ele>232</ele><time>2019-08-30T14:28:41Z</time><name>PT14120</name></trkpt>
<trkpt lat="53.252055" lon="-1.825390"><ele>232</ele><time>2019-08-30T14:28:42Z</time><name>PT14121</name></trkpt>
<trkpt lat="53.252044" lon="-1.825410"><ele>232</ele><time>2019-08-30T14:28:43Z</time><name>PT14122</name></trkpt>
<trkpt lat="53.252045" lon="-1.825438"><ele>232</ele><time>2019-08-30T14:28:44Z</time><name>PT14123</name></trkpt>
<trkpt lat="53.252048" lon="-1.825462"><ele>232</ele><time>2019-08-30T14:28:45Z</time><name>PT14124</name></trkpt>
<trkpt lat="53.252047" lon="-1.825475"><ele>232</ele><time>2019-08-30T14:28:46Z</time><name>PT14125</name></trkpt>
<trkpt lat="53.252052" lon="-1.825492"><ele>233</ele><time>2019-08-30T14:28:47Z</time><name>PT14126</name></trkpt>
<trkpt lat="53.252056" lon="-1.825510"><ele>234</ele><time>2019-08-30T14:28:48Z</time><name>PT14127</name></trkpt>
<trkpt lat="53.252056" lon="-1.825533"><ele>234</ele><time>2019-08-30T14:28:49Z</time><name>PT14128</name></trkpt>
<trkpt lat="53.252046" lon="-1.825557"><ele>233</ele><time>2019-08-30T14:28:50Z</time><name>PT14129</name></trkpt>
<trkpt lat="53.252047" lon="-1.825575"><ele>234</ele><time>2019-08-30T14:28:51Z</time><name>PT14130</name></trkpt>
<trkpt lat="53.252051" lon="-1.825593"><ele>234</ele><time>2019-08-30T14:28:52Z</time><name>PT14131</name></trkpt>
<trkpt lat="53.252055" lon="-1.825615"><ele>236</ele><time>2019-08-30T14:28:53Z</time><name>PT14132</name></trkpt>
<trkpt lat="53.252060" lon="-1.825637"><ele>237</ele><time>2019-08-30T14:28:54Z</time><name>PT14133</name></trkpt>
<trkpt lat="53.252065" lon="-1.825657"><ele>238</ele><time>2019-08-30T14:28:55Z</time><name>PT14134</name></trkpt>
<trkpt lat="53.252078" lon="-1.825673"><ele>239</ele><time>2019-08-30T14:28:56Z</time><name>PT14135</name></trkpt>
<trkpt lat="53.252075" lon="-1.825697"><ele>237</ele><time>2019-08-30T14:28:57Z</time><name>PT14136</name></trkpt>
<trkpt lat="53.252078" lon="-1.825712"><ele>237</ele><time>2019-08-30T14:28:58Z</time><name>PT14137</name></trkpt>
<trkpt lat="53.252083" lon="-1.825725"><ele>237</ele><time>2019-08-30T14:28:59Z</time><name>PT14138</name></trkpt>
<trkpt lat="53.252083" lon="-1.825734"><ele>238</ele><time>2019-08-30T14:29:00Z</time><name>PT14139</name></trkpt>
<trkpt lat="53.252076" lon="-1.825745"><ele>236</ele><time>2019-08-30T14:29:01Z</time><name>PT14140</name></trkpt>
<trkpt lat="53.252084" lon="-1.825752"><ele>236</ele><time>2019-08-30T14:29:02Z</time><name>PT14141</name></trkpt>
<trkpt lat="53.252091" lon="-1.825770"><ele>236</ele><time>2019-08-30T14:29:03Z</time><name>PT14142</name></trkpt>
<trkpt lat="53.252088" lon="-1.825787"><ele>235</ele><time>2019-08-30T14:29:04Z</time><name>PT14143</name></trkpt>
<trkpt lat="53.252090" lon="-1.825810"><ele>236</ele><time>2019-08-30T14:29:05Z</time><name>PT14144</name></trkpt>
<trkpt lat="53.252084" lon="-1.825818"><ele>236</ele><time>2019-08-30T14:29:06Z</time><name>PT14145</name></trkpt>
<trkpt lat="53.252083" lon="-1.825837"><ele>236</ele><time>2019-08-30T14:29:07Z</time><name>PT14146</name></trkpt>
<trkpt lat="53.252082" lon="-1.825854"><ele>237</ele><time>2019-08-30T14:29:08Z</time><name>PT14147</name></trkpt>
<trkpt lat="53.252086" lon="-1.825880"><ele>238</ele><time>2019-08-30T14:29:09Z</time><name>PT14148</name></trkpt>
<trkpt lat="53.252075" lon="-1.825896"><ele>239</ele><time>2019-08-30T14:29:10Z</time><name>PT14149</name></trkpt>
<trkpt lat="53.252064" lon="-1.825910"><ele>237</ele><time>2019-08-30T14:29:11Z</time><name>PT14150</name></trkpt>
<trkpt lat="53.252054" lon="-1.825922"><ele>237</ele><time>2019-08-30T14:29:12Z</time><name>PT14151</name></trkpt>
<trkpt lat="53.252051" lon="-1.825925"><ele>237</ele><time>2019-08-30T14:29:13Z</time><name>PT14152</name></trkpt>
<trkpt lat="53.252051" lon="-1.825932"><ele>237</ele><time>2019-08-30T14:29:14Z</time><name>PT14153</name></trkpt>
<trkpt lat="53.252047" lon="-1.825943"><ele>236</ele><time>2019-08-30T14:29:15Z</time><name>PT14154</name></trkpt>
<trkpt lat="53.252051" lon="-1.825959"><ele>236</ele><time>2019-08-30T14:29:16Z</time><name>PT14155</name></trkpt>
<trkpt lat="53.252056" lon="-1.825980"><ele>235</ele><time>2019-08-30T14:29:17Z</time><name>PT14156</name></trkpt>
<trkpt lat="53.252052" lon="-1.825994"><ele>234</ele><time>2019-08-30T14:29:18Z</time><name>PT14157</name></trkpt>
<trkpt lat="53.252049" lon="-1.826012"><ele>233</ele><time>2019-08-30T14:29:19Z</time><name>PT14158</name></trkpt>
<trkpt lat="53.252048" lon="-1.826030"><ele>233</ele><time>2019-08-30T14:29:20Z</time><name>PT14159</name></trkpt>
<trkpt lat="53.252042" lon="-1.826063"><ele>235</ele><time>2019-08-30T14:29:21Z</time><name>PT14160</name></trkpt>
<trkpt lat="53.252045" lon="-1.826094"><ele>234</ele><time>2019-08-30T14:29:22Z</time><name>PT14161</name></trkpt>
<trkpt lat="53.252041" lon="-1.826123"><ele>234</ele><time>2019-08-30T14:29:23Z</time><name>PT14162</name></trkpt>
<trkpt lat="53.252032" lon="-1.826142"><ele>235</ele><time>2019-08-30T14:29:24Z</time><name>PT14163</name></trkpt>
<trkpt lat="53.252036" lon="-1.826166"><ele>236</ele><time>2019-08-30T14:29:25Z</time><name>PT14164</name></trkpt>
<trkpt lat="53.252036" lon="-1.826191"><ele>237</ele><time>2019-08-30T14:29:26Z</time><name>PT14165</name></trkpt>
<trkpt lat="53.252033" lon="-1.826208"><ele>238</ele><time>2019-08-30T14:29:27Z</time><name>PT14166</name></trkpt>
<trkpt lat="53.252031" lon="-1.826235"><ele>235</ele><time>2019-08-30T14:29:28Z</time><name>PT14167</name></trkpt>
<trkpt lat="53.252025" lon="-1.826254"><ele>233</ele><time>2019-08-30T14:29:29Z</time><name>PT14168</name></trkpt>
<trkpt lat="53.252020" lon="-1.826272"><ele>232</ele><time>2019-08-30T14:29:30Z</time><name>PT14169</name></trkpt>
<trkpt lat="53.252012" lon="-1.826284"><ele>230</ele><time>2019-08-30T14:29:31Z</time><name>PT14170</name></trkpt>
<trkpt lat="53.252016" lon="-1.826286"><ele>230</ele><time>2019-08-30T14:29:32Z</time><name>PT14171</name></trkpt>
<trkpt lat="53.252010" lon="-1.826289"><ele>231</ele><time>2019-08-30T14:29:33Z</time><name>PT14172</name></trkpt>
<trkpt lat="53.252006" lon="-1.826294"><ele>230</ele><time>2019-08-30T14:29:34Z</time><name>PT14173</name></trkpt>
<trkpt lat="53.252004" lon="-1.826299"><ele>230</ele><time>2019-08-30T14:29:35Z</time><name>PT14174</name></trkpt>
<trkpt lat="53.252002" lon="-1.826309"><ele>229</ele><time>2019-08-30T14:29:36Z</time><name>PT14175</name></trkpt>
<trkpt lat="53.252001" lon="-1.826324"><ele>230</ele><time>2019-08-30T14:29:37Z</time><name>PT14176</name></trkpt>
<trkpt lat="53.252000" lon="-1.826334"><ele>230</ele><time>2019-08-30T14:29:38Z</time><name>PT14177</name></trkpt>
<trkpt lat="53.251998" lon="-1.826350"><ele>230</ele><time>2019-08-30T14:29:39Z</time><name>PT14178</name></trkpt>
<trkpt lat="53.252010" lon="-1.826369"><ele>230</ele><time>2019-08-30T14:29:40Z</time><name>PT14179</name></trkpt>
<trkpt lat="53.252016" lon="-1.826388"><ele>231</ele><time>2019-08-30T14:29:41Z</time><name>PT14180</name></trkpt>
<trkpt lat="53.252019" lon="-1.826408"><ele>232</ele><time>2019-08-30T14:29:42Z</time><name>PT14181</name></trkpt>
<trkpt lat="53.252023" lon="-1.826427"><ele>232</ele><time>2019-08-30T14:29:43Z</time><name>PT14182</name></trkpt>
<trkpt lat="53.252024" lon="-1.826444"><ele>232</ele><time>2019-08-30T14:29:44Z</time><name>PT14183</name></trkpt>
<trkpt lat="53.252031" lon="-1.826469"><ele>234</ele><time>2019-08-30T14:29:45Z</time><name>PT14184</name></trkpt>
<trkpt lat="53.252037" lon="-1.826486"><ele>233</ele><time>2019-08-30T14:29:46Z</time><name>PT14185</name></trkpt>
<trkpt lat="53.252040" lon="-1.826502"><ele>233</ele><time>2019-08-30T14:29:47Z</time><name>PT14186</name></trkpt>
<trkpt lat="53.252042" lon="-1.826519"><ele>233</ele><time>2019-08-30T14:29:48Z</time><name>PT14187</name></trkpt>
<trkpt lat="53.252046" lon="-1.826534"><ele>233</ele><time>2019-08-30T14:29:49Z</time><name>PT14188</name></trkpt>
<trkpt lat="53.252053" lon="-1.826551"><ele>234</ele><time>2019-08-30T14:29:50Z</time><name>PT14189</name></trkpt>
<trkpt lat="53.252056" lon="-1.826564"><ele>235</ele><time>2019-08-30T14:29:51Z</time><name>PT14190</name></trkpt>
<trkpt lat="53.252069" lon="-1.826586"><ele>236</ele><time>2019-08-30T14:29:52Z</time><name>PT14191</name></trkpt>
<trkpt lat="53.252072" lon="-1.826599"><ele>238</ele><time>2019-08-30T14:29:53Z</time><name>PT14192</name></trkpt>
<trkpt lat="53.252073" lon="-1.826622"><ele>236</ele><time>2019-08-30T14:29:54Z</time><name>PT14193</name></trkpt>
<trkpt lat="53.252069" lon="-1.826644"><ele>237</ele><time>2019-08-30T14:29:55Z</time><name>PT14194</name></trkpt>
<trkpt lat="53.252064" lon="-1.826659"><ele>237</ele><time>2019-08-30T14:29:56Z</time><name>PT14195</name></trkpt>
<trkpt lat="53.252061" lon="-1.826674"><ele>237</ele><time>2019-08-30T14:29:57Z</time><name>PT14196</name></trkpt>
<trkpt lat="53.252063" lon="-1.826692"><ele>238</ele><time>2019-08-30T14:29:58Z</time><name>PT14197</name></trkpt>
<trkpt lat="53.252058" lon="-1.826705"><ele>239</ele><time>2019-08-30T14:29:59Z</time><name>PT14198</name></trkpt>
<trkpt lat="53.252055" lon="-1.826719"><ele>239</ele><time>2019-08-30T14:30:00Z</time><name>PT14199</name></trkpt>
<trkpt lat="53.252050" lon="-1.826745"><ele>241</ele><time>2019-08-30T14:30:01Z</time><name>PT14200</name></trkpt>
<trkpt lat="53.252049" lon="-1.826760"><ele>241</ele><time>2019-08-30T14:30:02Z</time><name>PT14201</name></trkpt>
<trkpt lat="53.252053" lon="-1.826773"><ele>240</ele><time>2019-08-30T14:30:03Z</time><name>PT14202</name></trkpt>
<trkpt lat="53.252058" lon="-1.826785"><ele>242</ele><time>2019-08-30T14:30:04Z</time><name>PT14203</name></trkpt>
<trkpt lat="53.252061" lon="-1.826801"><ele>243</ele><time>2019-08-30T14:30:05Z</time><name>PT14204</name></trkpt>
<trkpt lat="53.252067" lon="-1.826816"><ele>244</ele><time>2019-08-30T14:30:06Z</time><name>PT14205</name></trkpt>
<trkpt lat="53.252069" lon="-1.826833"><ele>244</ele><time>2019-08-30T14:30:07Z</time><name>PT14206</name></trkpt>
<trkpt lat="53.252068" lon="-1.826842"><ele>246</ele><time>2019-08-30T14:30:08Z</time><name>PT14207</name></trkpt>
<trkpt lat="53.252065" lon="-1.826853"><ele>246</ele><time>2019-08-30T14:30:09Z</time><name>PT14208</name></trkpt>
<trkpt lat="53.252066" lon="-1.826864"><ele>245</ele><time>2019-08-30T14:30:10Z</time><name>PT14209</name></trkpt>
<trkpt lat="53.252073" lon="-1.826875"><ele>245</ele><time>2019-08-30T14:30:11Z</time><name>PT14210</name></trkpt>
<trkpt lat="53.252077" lon="-1.826885"><ele>245</ele><time>2019-08-30T14:30:12Z</time><name>PT14211</name></trkpt>
<trkpt lat="53.252072" lon="-1.826892"><ele>246</ele><time>2019-08-30T14:30:13Z</time><name>PT14212</name></trkpt>
<trkpt lat="53.252067" lon="-1.826903"><ele>246</ele><time>2019-08-30T14:30:14Z</time><name>PT14213</name></trkpt>
<trkpt lat="53.252063" lon="-1.826917"><ele>246</ele><time>2019-08-30T14:30:15Z</time><name>PT14214</name></trkpt>
<trkpt lat="53.252062" lon="-1.826926"><ele>245</ele><time>2019-08-30T14:30:16Z</time><name>PT14215</name></trkpt>
<trkpt lat="53.252065" lon="-1.826943"><ele>245</ele><time>2019-08-30T14:30:17Z</time><name>PT14216</name></trkpt>
<trkpt lat="53.252062" lon="-1.826961"><ele>245</ele><time>2019-08-30T14:30:18Z</time><name>PT14217</name></trkpt>
<trkpt lat="53.252054" lon="-1.826978"><ele>245</ele><time>2019-08-30T14:30:19Z</time><name>PT14218</name></trkpt>
<trkpt lat="53.252055" lon="-1.826996"><ele>247</ele><time>2019-08-30T14:30:20Z</time><name>PT14219</name></trkpt>
<trkpt lat="53.252052" lon="-1.827022"><ele>245</ele><time>2019-08-30T14:30:21Z</time><name>PT14220</name></trkpt>
<trkpt lat="53.252050" lon="-1.827041"><ele>245</ele><time>2019-08-30T14:30:22Z</time><name>PT14221</name></trkpt>
<trkpt lat="53.252044" lon="-1.827058"><ele>245</ele><time>2019-08-30T14:30:23Z</time><name>PT14222</name></trkpt>
<trkpt lat="53.252038" lon="-1.827069"><ele>244</ele><time>2019-08-30T14:30:24Z</time><name>PT14223</name></trkpt>
<trkpt lat="53.252036" lon="-1.827075"><ele>244</ele><time>2019-08-30T14:30:25Z</time><name>PT14224</name></trkpt>
<trkpt lat="53.252013" lon="-1.827094"><ele>242</ele><time>2019-08-30T14:30:26Z</time><name>PT14225</name></trkpt>
<trkpt lat="53.252004" lon="-1.827099"><ele>240</ele><time>2019-08-30T14:30:27Z</time><name>PT14226</name></trkpt>
<trkpt lat="53.251994" lon="-1.827109"><ele>241</ele><time>2019-08-30T14:30:28Z</time><name>PT14227</name></trkpt>
<trkpt lat="53.251988" lon="-1.827119"><ele>240</ele><time>2019-08-30T14:30:29Z</time><name>PT14228</name></trkpt>
<trkpt lat="53.251985" lon="-1.827129"><ele>240</ele><time>2019-08-30T14:30:30Z</time><name>PT14229</name></trkpt>
<trkpt lat="53.251979" lon="-1.827140"><ele>240</ele><time>2019-08-30T14:30:31Z</time><name>PT14230</name></trkpt>
<trkpt lat="53.251978" lon="-1.827147"><ele>240</ele><time>2019-08-30T14:30:32Z</time><name>PT14231</name></trkpt>
<trkpt lat="53.251969" lon="-1.827152"><ele>242</ele><time>2019-08-30T14:30:33Z</time><name>PT14232</name></trkpt>
<trkpt lat="53.251959" lon="-1.827168"><ele>240</ele><time>2019-08-30T14:30:34Z</time><name>PT14233</name></trkpt>
<trkpt lat="53.251952" lon="-1.827178"><ele>239</ele><time>2019-08-30T14:30:35Z</time><name>PT14234</name></trkpt>
<trkpt lat="53.251961" lon="-1.827201"><ele>236</ele><time>2019-08-30T14:30:36Z</time><name>PT14235</name></trkpt>
<trkpt lat="53.251953" lon="-1.827207"><ele>236</ele><time>2019-08-30T14:30:37Z</time><name>PT14236</name></trkpt>
<trkpt lat="53.251949" lon="-1.827211"><ele>235</ele><time>2019-08-30T14:30:38Z</time><name>PT14237</name></trkpt>
<trkpt lat="53.251937" lon="-1.827216"><ele>234</ele><time>2019-08-30T14:30:39Z</time><name>PT14238</name></trkpt>
<trkpt lat="53.251928" lon="-1.827229"><ele>235</ele><time>2019-08-30T14:30:40Z</time><name>PT14239</name></trkpt>
<trkpt lat="53.251924" lon="-1.827226"><ele>234</ele><time>2019-08-30T14:30:41Z</time><name>PT14240</name></trkpt>
<trkpt lat="53.251921" lon="-1.827227"><ele>233</ele><time>2019-08-30T14:30:42Z</time><name>PT14241</name></trkpt>
<trkpt lat="53.251916" lon="-1.827235"><ele>235</ele><time>2019-08-30T14:30:43Z</time><name>PT14242</name></trkpt>
<trkpt lat="53.251907" lon="-1.827243"><ele>233</ele><time>2019-08-30T14:30:44Z</time><name>PT14243</name></trkpt>
<trkpt lat="53.251909" lon="-1.827249"><ele>234</ele><time>2019-08-30T14:30:45Z</time><name>PT14244</name></trkpt>
<trkpt lat="53.251909" lon="-1.827252"><ele>234</ele><time>2019-08-30T14:30:46Z</time><name>PT14245</name></trkpt>
<trkpt lat="53.251910" lon="-1.827256"><ele>235</ele><time>2019-08-30T14:30:47Z</time><name>PT14246</name></trkpt>
<trkpt lat="53.251906" lon="-1.827264"><ele>235</ele><time>2019-08-30T14:30:48Z</time><name>PT14247</name></trkpt>
<trkpt lat="53.251903" lon="-1.827268"><ele>234</ele><time>2019-08-30T14:30:49Z</time><name>PT14248</name></trkpt>
<trkpt lat="53.251903" lon="-1.827281"><ele>234</ele><time>2019-08-30T14:30:52Z</time><name>PT14249</name></trkpt>
<trkpt lat="53.251886" lon="-1.827323"><ele>233</ele><time>2019-08-30T14:30:53Z</time><name>PT14250</name></trkpt>
<trkpt lat="53.251884" lon="-1.827333"><ele>233</ele><time>2019-08-30T14:30:54Z</time><name>PT14251</name></trkpt>
<trkpt lat="53.251879" lon="-1.827359"><ele>233</ele><time>2019-08-30T14:30:55Z</time><name>PT14252</name></trkpt>
<trkpt lat="53.251870" lon="-1.827385"><ele>233</ele><time>2019-08-30T14:30:56Z</time><name>PT14253</name></trkpt>
<trkpt lat="53.251873" lon="-1.827401"><ele>233</ele><time>2019-08-30T14:30:57Z</time><name>PT14254</name></trkpt>
<trkpt lat="53.251868" lon="-1.827414"><ele>232</ele><time>2019-08-30T14:30:58Z</time><name>PT14255</name></trkpt>
<trkpt lat="53.251862" lon="-1.827431"><ele>232</ele><time>2019-08-30T14:30:59Z</time><name>PT14256</name></trkpt>
<trkpt lat="53.251859" lon="-1.827441"><ele>232</ele><time>2019-08-30T14:31:00Z</time><name>PT14257</name></trkpt>
<trkpt lat="53.251851" lon="-1.827468"><ele>230</ele><time>2019-08-30T14:31:01Z</time><name>PT14258</name></trkpt>
<trkpt lat="53.251846" lon="-1.827480"><ele>230</ele><time>2019-08-30T14:31:02Z</time><name>PT14259</name></trkpt>
<trkpt lat="53.251840" lon="-1.827494"><ele>230</ele><time>2019-08-30T14:31:03Z</time><name>PT14260</name></trkpt>
<trkpt lat="53.251841" lon="-1.827506"><ele>230</ele><time>2019-08-30T14:31:04Z</time><name>PT14261</name></trkpt>
<trkpt lat="53.251843" lon="-1.827521"><ele>231</ele><time>2019-08-30T14:31:05Z</time><name>PT14262</name></trkpt>
<trkpt lat="53.251839" lon="-1.827535"><ele>231</ele><time>2019-08-30T14:31:06Z</time><name>PT14263</name></trkpt>
<trkpt lat="53.251832" lon="-1.827558"><ele>232</ele><time>2019-08-30T14:31:07Z</time><name>PT14264</name></trkpt>
<trkpt lat="53.251822" lon="-1.827566"><ele>230</ele><time>2019-08-30T14:31:08Z</time><name>PT14265</name></trkpt>
<trkpt lat="53.251820" lon="-1.827579"><ele>231</ele><time>2019-08-30T14:31:09Z</time><name>PT14266</name></trkpt>
<trkpt lat="53.251821" lon="-1.827593"><ele>231</ele><time>2019-08-30T14:31:10Z</time><name>PT14267</name></trkpt>
<trkpt lat="53.251820" lon="-1.827610"><ele>231</ele><time>2019-08-30T14:31:11Z</time><name>PT14268</name></trkpt>
<trkpt lat="53.251819" lon="-1.827620"><ele>231</ele><time>2019-08-30T14:31:12Z</time><name>PT14269</name></trkpt>
<trkpt lat="53.251819" lon="-1.827630"><ele>232</ele><time>2019-08-30T14:31:13Z</time><name>PT14270</name></trkpt>
<trkpt lat="53.251817" lon="-1.827639"><ele>232</ele><time>2019-08-30T14:31:14Z</time><name>PT14271</name></trkpt>
<trkpt lat="53.251811" lon="-1.827651"><ele>232</ele><time>2019-08-30T14:31:15Z</time><name>PT14272</name></trkpt>
<trkpt lat="53.251806" lon="-1.827670"><ele>234</ele><time>2019-08-30T14:31:16Z</time><name>PT14273</name></trkpt>
<trkpt lat="53.251804" lon="-1.827684"><ele>234</ele><time>2019-08-30T14:31:17Z</time><name>PT14274</name></trkpt>
<trkpt lat="53.251812" lon="-1.827692"><ele>237</ele><time>2019-08-30T14:31:18Z</time><name>PT14275</name></trkpt>
<trkpt lat="53.251814" lon="-1.827706"><ele>237</ele><time>2019-08-30T14:31:19Z</time><name>PT14276</name></trkpt>
<trkpt lat="53.251815" lon="-1.827725"><ele>236</ele><time>2019-08-30T14:31:20Z</time><name>PT14277</name></trkpt>
<trkpt lat="53.251808" lon="-1.827742"><ele>236</ele><time>2019-08-30T14:31:21Z</time><name>PT14278</name></trkpt>
<trkpt lat="53.251805" lon="-1.827752"><ele>236</ele><time>2019-08-30T14:31:22Z</time><name>PT14279</name></trkpt>
<trkpt lat="53.251798" lon="-1.827766"><ele>235</ele><time>2019-08-30T14:31:23Z</time><name>PT14280</name></trkpt>
<trkpt lat="53.251794" lon="-1.827784"><ele>237</ele><time>2019-08-30T14:31:24Z</time><name>PT14281</name></trkpt>
<trkpt lat="53.251792" lon="-1.827797"><ele>236</ele><time>2019-08-30T14:31:25Z</time><name>PT14282</name></trkpt>
<trkpt lat="53.251787" lon="-1.827816"><ele>236</ele><time>2019-08-30T14:31:26Z</time><name>PT14283</name></trkpt>
<trkpt lat="53.251778" lon="-1.827831"><ele>236</ele><time>2019-08-30T14:31:27Z</time><name>PT14284</name></trkpt>
<trkpt lat="53.251770" lon="-1.827847"><ele>236</ele><time>2019-08-30T14:31:28Z</time><name>PT14285</name></trkpt>
<trkpt lat="53.251767" lon="-1.827861"><ele>237</ele><time>2019-08-30T14:31:29Z</time><name>PT14286</name></trkpt>
<trkpt lat="53.251764" lon="-1.827875"><ele>236</ele><time>2019-08-30T14:31:30Z</time><name>PT14287</name></trkpt>
<trkpt lat="53.251759" lon="-1.827892"><ele>237</ele><time>2019-08-30T14:31:31Z</time><name>PT14288</name></trkpt>
<trkpt lat="53.251748" lon="-1.827903"><ele>236</ele><time>2019-08-30T14:31:32Z</time><name>PT14289</name></trkpt>
<trkpt lat="53.251743" lon="-1.827920"><ele>235</ele><time>2019-08-30T14:31:33Z</time><name>PT14290</name></trkpt>
<trkpt lat="53.251741" lon="-1.827925"><ele>236</ele><time>2019-08-30T14:31:34Z</time><name>PT14291</name></trkpt>
<trkpt lat="53.251746" lon="-1.827922"><ele>237</ele><time>2019-08-30T14:31:35Z</time><name>PT14292</name></trkpt>
<trkpt lat="53.251746" lon="-1.827931"><ele>237</ele><time>2019-08-30T14:31:36Z</time><name>PT14293</name></trkpt>
<trkpt lat="53.251743" lon="-1.827942"><ele>238</ele><time>2019-08-30T14:31:37Z</time><name>PT14294</name></trkpt>
<trkpt lat="53.251738" lon="-1.827951"><ele>238</ele><time>2019-08-30T14:31:38Z</time><name>PT14295</name></trkpt>
<trkpt lat="53.251735" lon="-1.827961"><ele>239</ele><time>2019-08-30T14:31:39Z</time><name>PT14296</name></trkpt>
<trkpt lat="53.251731" lon="-1.827973"><ele>238</ele><time>2019-08-30T14:31:40Z</time><name>PT14297</name></trkpt>
<trkpt lat="53.251716" lon="-1.827990"><ele>238</ele><time>2019-08-30T14:31:41Z</time><name>PT14298</name></trkpt>
<trkpt lat="53.251712" lon="-1.828001"><ele>238</ele><time>2019-08-30T14:31:42Z</time><name>PT14299</name></trkpt>
<trkpt lat="53.251708" lon="-1.828012"><ele>239</ele><time>2019-08-30T14:31:43Z</time><name>PT14300</name></trkpt>
<trkpt lat="53.251702" lon="-1.828017"><ele>240</ele><time>2019-08-30T14:31:44Z</time><name>PT14301</name></trkpt>
<trkpt lat="53.251691" lon="-1.828024"><ele>238</ele><time>2019-08-30T14:31:45Z</time><name>PT14302</name></trkpt>
<trkpt lat="53.251680" lon="-1.828042"><ele>237</ele><time>2019-08-30T14:31:46Z</time><name>PT14303</name></trkpt>
<trkpt lat="53.251674" lon="-1.828057"><ele>237</ele><time>2019-08-30T14:31:47Z</time><name>PT14304</name></trkpt>
<trkpt lat="53.251673" lon="-1.828067"><ele>238</ele><time>2019-08-30T14:31:48Z</time><name>PT14305</name></trkpt>
<trkpt lat="53.251668" lon="-1.828077"><ele>238</ele><time>2019-08-30T14:31:49Z</time><name>PT14306</name></trkpt>
<trkpt lat="53.251660" lon="-1.828093"><ele>239</ele><time>2019-08-30T14:31:50Z</time><name>PT14307</name></trkpt>
<trkpt lat="53.251656" lon="-1.828105"><ele>240</ele><time>2019-08-30T14:31:51Z</time><name>PT14308</name></trkpt>
<trkpt lat="53.251654" lon="-1.828121"><ele>239</ele><time>2019-08-30T14:31:52Z</time><name>PT14309</name></trkpt>
<trkpt lat="53.251660" lon="-1.828156"><ele>237</ele><time>2019-08-30T14:31:53Z</time><name>PT14310</name></trkpt>
<trkpt lat="53.251661" lon="-1.828177"><ele>236</ele><time>2019-08-30T14:31:55Z</time><name>PT14311</name></trkpt>
<trkpt lat="53.251652" lon="-1.828197"><ele>237</ele><time>2019-08-30T14:31:56Z</time><name>PT14312</name></trkpt>
<trkpt lat="53.251651" lon="-1.828211"><ele>237</ele><time>2019-08-30T14:31:57Z</time><name>PT14313</name></trkpt>
<trkpt lat="53.251647" lon="-1.828238"><ele>237</ele><time>2019-08-30T14:31:58Z</time><name>PT14314</name></trkpt>
<trkpt lat="53.251643" lon="-1.828254"><ele>237</ele><time>2019-08-30T14:31:59Z</time><name>PT14315</name></trkpt>
<trkpt lat="53.251632" lon="-1.828259"><ele>237</ele><time>2019-08-30T14:32:00Z</time><name>PT14316</name></trkpt>
<trkpt lat="53.251623" lon="-1.828271"><ele>234</ele><time>2019-08-30T14:32:01Z</time><name>PT14317</name></trkpt>
<trkpt lat="53.251617" lon="-1.828273"><ele>234</ele><time>2019-08-30T14:32:02Z</time><name>PT14318</name></trkpt>
<trkpt lat="53.251609" lon="-1.828277"><ele>234</ele><time>2019-08-30T14:32:03Z</time><name>PT14319</name></trkpt>
<trkpt lat="53.251578" lon="-1.828298"><ele>234</ele><time>2019-08-30T14:32:04Z</time><name>PT14320</name></trkpt>
<trkpt lat="53.251561" lon="-1.828296"><ele>234</ele><time>2019-08-30T14:32:05Z</time><name>PT14321</name></trkpt>
<trkpt lat="53.251545" lon="-1.828308"><ele>235</ele><time>2019-08-30T14:32:06Z</time><name>PT14322</name></trkpt>
<trkpt lat="53.251532" lon="-1.828313"><ele>236</ele><time>2019-08-30T14:32:07Z</time><name>PT14323</name></trkpt>
<trkpt lat="53.251515" lon="-1.828316"><ele>236</ele><time>2019-08-30T14:32:08Z</time><name>PT14324</name></trkpt>
<trkpt lat="53.251505" lon="-1.828324"><ele>236</ele><time>2019-08-30T14:32:09Z</time><name>PT14325</name></trkpt>
<trkpt lat="53.251493" lon="-1.828326"><ele>237</ele><time>2019-08-30T14:32:10Z</time><name>PT14326</name></trkpt>
<trkpt lat="53.251483" lon="-1.828338"><ele>237</ele><time>2019-08-30T14:32:11Z</time><name>PT14327</name></trkpt>
<trkpt lat="53.251479" lon="-1.828340"><ele>236</ele><time>2019-08-30T14:32:12Z</time><name>PT14328</name></trkpt>
<trkpt lat="53.251477" lon="-1.828338"><ele>236</ele><time>2019-08-30T14:32:13Z</time><name>PT14329</name></trkpt>
<trkpt lat="53.251474" lon="-1.828335"><ele>236</ele><time>2019-08-30T14:32:14Z</time><name>PT14330</name></trkpt>
<trkpt lat="53.251474" lon="-1.828335"><ele>237</ele><time>2019-08-30T14:32:15Z</time><name>PT14331</name></trkpt>
<trkpt lat="53.251470" lon="-1.828336"><ele>238</ele><time>2019-08-30T14:32:16Z</time><name>PT14332</name></trkpt>
<trkpt lat="53.251467" lon="-1.828339"><ele>236</ele><time>2019-08-30T14:32:17Z</time><name>PT14333</name></trkpt>
<trkpt lat="53.251455" lon="-1.828366"><ele>235</ele><time>2019-08-30T14:32:18Z</time><name>PT14334</name></trkpt>
<trkpt lat="53.251457" lon="-1.828421"><ele>237</ele><time>2019-08-30T14:32:19Z</time><name>PT14335</name></trkpt>
<trkpt lat="53.251457" lon="-1.828434"><ele>237</ele><time>2019-08-30T14:32:20Z</time><name>PT14336</name></trkpt>
<trkpt lat="53.251454" lon="-1.828438"><ele>236</ele><time>2019-08-30T14:32:21Z</time><name>PT14337</name></trkpt>
<trkpt lat="53.251450" lon="-1.828448"><ele>235</ele><time>2019-08-30T14:32:22Z</time><name>PT14338</name></trkpt>
<trkpt lat="53.251444" lon="-1.828460"><ele>236</ele><time>2019-08-30T14:32:23Z</time><name>PT14339</name></trkpt>
<trkpt lat="53.251435" lon="-1.828477"><ele>236</ele><time>2019-08-30T14:32:24Z</time><name>PT14340</name></trkpt>
<trkpt lat="53.251432" lon="-1.828504"><ele>237</ele><time>2019-08-30T14:32:25Z</time><name>PT14341</name></trkpt>
<trkpt lat="53.251423" lon="-1.828519"><ele>236</ele><time>2019-08-30T14:32:26Z</time><name>PT14342</name></trkpt>
<trkpt lat="53.251405" lon="-1.828541"><ele>233</ele><time>2019-08-30T14:32:27Z</time><name>PT14343</name></trkpt>
<trkpt lat="53.251398" lon="-1.828550"><ele>234</ele><time>2019-08-30T14:32:28Z</time><name>PT14344</name></trkpt>
<trkpt lat="53.251393" lon="-1.828563"><ele>233</ele><time>2019-08-30T14:32:29Z</time><name>PT14345</name></trkpt>
<trkpt lat="53.251384" lon="-1.828591"><ele>231</ele><time>2019-08-30T14:32:30Z</time><name>PT14346</name></trkpt>
<trkpt lat="53.251368" lon="-1.828621"><ele>230</ele><time>2019-08-30T14:32:31Z</time><name>PT14347</name></trkpt>
<trkpt lat="53.251359" lon="-1.828648"><ele>230</ele><time>2019-08-30T14:32:32Z</time><name>PT14348</name></trkpt>
<trkpt lat="53.251355" lon="-1.828667"><ele>228</ele><time>2019-08-30T14:32:33Z</time><name>PT14349</name></trkpt>
<trkpt lat="53.251340" lon="-1.828674"><ele>228</ele><time>2019-08-30T14:32:34Z</time><name>PT14350</name></trkpt>
<trkpt lat="53.251337" lon="-1.828688"><ele>228</ele><time>2019-08-30T14:32:35Z</time><name>PT14351</name></trkpt>
<trkpt lat="53.251336" lon="-1.828703"><ele>228</ele><time>2019-08-30T14:32:36Z</time><name>PT14352</name></trkpt>
<trkpt lat="53.251335" lon="-1.828726"><ele>227</ele><time>2019-08-30T14:32:37Z</time><name>PT14353</name></trkpt>
<trkpt lat="53.251331" lon="-1.828750"><ele>226</ele><time>2019-08-30T14:32:38Z</time><name>PT14354</name></trkpt>
<trkpt lat="53.251325" lon="-1.828772"><ele>226</ele><time>2019-08-30T14:32:39Z</time><name>PT14355</name></trkpt>
<trkpt lat="53.251321" lon="-1.828794"><ele>226</ele><time>2019-08-30T14:32:40Z</time><name>PT14356</name></trkpt>
<trkpt lat="53.251322" lon="-1.828808"><ele>225</ele><time>2019-08-30T14:32:41Z</time><name>PT14357</name></trkpt>
<trkpt lat="53.251319" lon="-1.828819"><ele>224</ele><time>2019-08-30T14:32:42Z</time><name>PT14358</name></trkpt>
<trkpt lat="53.251322" lon="-1.828839"><ele>223</ele><time>2019-08-30T14:32:43Z</time><name>PT14359</name></trkpt>
<trkpt lat="53.251319" lon="-1.828865"><ele>222</ele><time>2019-08-30T14:32:44Z</time><name>PT14360</name></trkpt>
<trkpt lat="53.251318" lon="-1.828895"><ele>222</ele><time>2019-08-30T14:32:45Z</time><name>PT14361</name></trkpt>
<trkpt lat="53.251313" lon="-1.828919"><ele>224</ele><time>2019-08-30T14:32:46Z</time><name>PT14362</name></trkpt>
<trkpt lat="53.251307" lon="-1.828937"><ele>224</ele><time>2019-08-30T14:32:47Z</time><name>PT14363</name></trkpt>
<trkpt lat="53.251327" lon="-1.828954"><ele>229</ele><time>2019-08-30T14:32:48Z</time><name>PT14364</name></trkpt>
<trkpt lat="53.251329" lon="-1.828969"><ele>229</ele><time>2019-08-30T14:32:49Z</time><name>PT14365</name></trkpt>
<trkpt lat="53.251328" lon="-1.828993"><ele>230</ele><time>2019-08-30T14:32:50Z</time><name>PT14366</name></trkpt>
<trkpt lat="53.251325" lon="-1.829019"><ele>231</ele><time>2019-08-30T14:32:51Z</time><name>PT14367</name></trkpt>
<trkpt lat="53.251318" lon="-1.829047"><ele>231</ele><time>2019-08-30T14:32:52Z</time><name>PT14368</name></trkpt>
<trkpt lat="53.251315" lon="-1.829072"><ele>233</ele><time>2019-08-30T14:32:53Z</time><name>PT14369</name></trkpt>
<trkpt lat="53.251316" lon="-1.829086"><ele>235</ele><time>2019-08-30T14:32:54Z</time><name>PT14370</name></trkpt>
<trkpt lat="53.251310" lon="-1.829112"><ele>237</ele><time>2019-08-30T14:32:55Z</time><name>PT14371</name></trkpt>
<trkpt lat="53.251306" lon="-1.829133"><ele>237</ele><time>2019-08-30T14:32:56Z</time><name>PT14372</name></trkpt>
<trkpt lat="53.251304" lon="-1.829155"><ele>237</ele><time>2019-08-30T14:32:57Z</time><name>PT14373</name></trkpt>
<trkpt lat="53.251304" lon="-1.829171"><ele>237</ele><time>2019-08-30T14:32:58Z</time><name>PT14374</name></trkpt>
<trkpt lat="53.251307" lon="-1.829195"><ele>238</ele><time>2019-08-30T14:32:59Z</time><name>PT14375</name></trkpt>
<trkpt lat="53.251308" lon="-1.829217"><ele>239</ele><time>2019-08-30T14:33:00Z</time><name>PT14376</name></trkpt>
<trkpt lat="53.251303" lon="-1.829239"><ele>238</ele><time>2019-08-30T14:33:01Z</time><name>PT14377</name></trkpt>
<trkpt lat="53.251298" lon="-1.829250"><ele>238</ele><time>2019-08-30T14:33:02Z</time><name>PT14378</name></trkpt>
<trkpt lat="53.251297" lon="-1.829260"><ele>237</ele><time>2019-08-30T14:33:03Z</time><name>PT14379</name></trkpt>
<trkpt lat="53.251299" lon="-1.829282"><ele>238</ele><time>2019-08-30T14:33:04Z</time><name>PT14380</name></trkpt>
<trkpt lat="53.251298" lon="-1.829303"><ele>238</ele><time>2019-08-30T14:33:05Z</time><name>PT14381</name></trkpt>
<trkpt lat="53.251294" lon="-1.829322"><ele>238</ele><time>2019-08-30T14:33:06Z</time><name>PT14382</name></trkpt>
<trkpt lat="53.251289" lon="-1.829339"><ele>238</ele><time>2019-08-30T14:33:07Z</time><name>PT14383</name></trkpt>
<trkpt lat="53.251283" lon="-1.829350"><ele>238</ele><time>2019-08-30T14:33:08Z</time><name>PT14384</name></trkpt>
<trkpt lat="53.251276" lon="-1.829381"><ele>238</ele><time>2019-08-30T14:33:09Z</time><name>PT14385</name></trkpt>
<trkpt lat="53.251272" lon="-1.829407"><ele>238</ele><time>2019-08-30T14:33:10Z</time><name>PT14386</name></trkpt>
<trkpt lat="53.251280" lon="-1.829421"><ele>239</ele><time>2019-08-30T14:33:11Z</time><name>PT14387</name></trkpt>
<trkpt lat="53.251282" lon="-1.829437"><ele>239</ele><time>2019-08-30T14:33:12Z</time><name>PT14388</name></trkpt>
<trkpt lat="53.251286" lon="-1.829450"><ele>240</ele><time>2019-08-30T14:33:13Z</time><name>PT14389</name></trkpt>
<trkpt lat="53.251289" lon="-1.829477"><ele>241</ele><time>2019-08-30T14:33:14Z</time><name>PT14390</name></trkpt>
<trkpt lat="53.251291" lon="-1.829504"><ele>242</ele><time>2019-08-30T14:33:15Z</time><name>PT14391</name></trkpt>
<trkpt lat="53.251287" lon="-1.829520"><ele>242</ele><time>2019-08-30T14:33:16Z</time><name>PT14392</name></trkpt>
<trkpt lat="53.251285" lon="-1.829539"><ele>243</ele><time>2019-08-30T14:33:17Z</time><name>PT14393</name></trkpt>
<trkpt lat="53.251278" lon="-1.829558"><ele>241</ele><time>2019-08-30T14:33:18Z</time><name>PT14394</name></trkpt>
<trkpt lat="53.251283" lon="-1.829572"><ele>242</ele><time>2019-08-30T14:33:19Z</time><name>PT14395</name></trkpt>
<trkpt lat="53.251282" lon="-1.829596"><ele>241</ele><time>2019-08-30T14:33:20Z</time><name>PT14396</name></trkpt>
<trkpt lat="53.251283" lon="-1.829615"><ele>242</ele><time>2019-08-30T14:33:21Z</time><name>PT14397</name></trkpt>
<trkpt lat="53.251282" lon="-1.829626"><ele>242</ele><time>2019-08-30T14:33:22Z</time><name>PT14398</name></trkpt>
<trkpt lat="53.251280" lon="-1.829637"><ele>243</ele><time>2019-08-30T14:33:23Z</time><name>PT14399</name></trkpt>
<trkpt lat="53.251274" lon="-1.829652"><ele>242</ele><time>2019-08-30T14:33:24Z</time><name>PT14400</name></trkpt>
<trkpt lat="53.251274" lon="-1.829667"><ele>243</ele><time>2019-08-30T14:33:25Z</time><name>PT14401</name></trkpt>
<trkpt lat="53.251272" lon="-1.829688"><ele>243</ele><time>2019-08-30T14:33:26Z</time><name>PT14402</name></trkpt>
<trkpt lat="53.251270" lon="-1.829710"><ele>245</ele><time>2019-08-30T14:33:27Z</time><name>PT14403</name></trkpt>
<trkpt lat="53.251273" lon="-1.829723"><ele>246</ele><time>2019-08-30T14:33:28Z</time><name>PT14404</name></trkpt>
<trkpt lat="53.251273" lon="-1.829734"><ele>249</ele><time>2019-08-30T14:33:29Z</time><name>PT14405</name></trkpt>
<trkpt lat="53.251274" lon="-1.829745"><ele>248</ele><time>2019-08-30T14:33:30Z</time><name>PT14406</name></trkpt>
<trkpt lat="53.251282" lon="-1.829752"><ele>248</ele><time>2019-08-30T14:33:31Z</time><name>PT14407</name></trkpt>
<trkpt lat="53.251287" lon="-1.829769"><ele>247</ele><time>2019-08-30T14:33:32Z</time><name>PT14408</name></trkpt>
<trkpt lat="53.251290" lon="-1.829782"><ele>246</ele><time>2019-08-30T14:33:33Z</time><name>PT14409</name></trkpt>
<trkpt lat="53.251288" lon="-1.829794"><ele>245</ele><time>2019-08-30T14:33:34Z</time><name>PT14410</name></trkpt>
<trkpt lat="53.251299" lon="-1.829812"><ele>245</ele><time>2019-08-30T14:33:35Z</time><name>PT14411</name></trkpt>
<trkpt lat="53.251296" lon="-1.829832"><ele>244</ele><time>2019-08-30T14:33:36Z</time><name>PT14412</name></trkpt>
<trkpt lat="53.251289" lon="-1.829855"><ele>244</ele><time>2019-08-30T14:33:37Z</time><name>PT14413</name></trkpt>
<trkpt lat="53.251291" lon="-1.829879"><ele>245</ele><time>2019-08-30T14:33:38Z</time><name>PT14414</name></trkpt>
<trkpt lat="53.251289" lon="-1.829900"><ele>244</ele><time>2019-08-30T14:33:39Z</time><name>PT14415</name></trkpt>
<trkpt lat="53.251284" lon="-1.829917"><ele>245</ele><time>2019-08-30T14:33:40Z</time><name>PT14416</name></trkpt>
<trkpt lat="53.251282" lon="-1.829932"><ele>245</ele><time>2019-08-30T14:33:41Z</time><name>PT14417</name></trkpt>
<trkpt lat="53.251285" lon="-1.829960"><ele>244</ele><time>2019-08-30T14:33:42Z</time><name>PT14418</name></trkpt>
<trkpt lat="53.251290" lon="-1.829981"><ele>245</ele><time>2019-08-30T14:33:43Z</time><name>PT14419</name></trkpt>
<trkpt lat="53.251293" lon="-1.829995"><ele>245</ele><time>2019-08-30T14:33:44Z</time><name>PT14420</name></trkpt>
<trkpt lat="53.251289" lon="-1.830010"><ele>244</ele><time>2019-08-30T14:33:45Z</time><name>PT14421</name></trkpt>
<trkpt lat="53.251290" lon="-1.830023"><ele>244</ele><time>2019-08-30T14:33:46Z</time><name>PT14422</name></trkpt>
<trkpt lat="53.251292" lon="-1.830041"><ele>246</ele><time>2019-08-30T14:33:47Z</time><name>PT14423</name></trkpt>
<trkpt lat="53.251288" lon="-1.830049"><ele>246</ele><time>2019-08-30T14:33:48Z</time><name>PT14424</name></trkpt>
<trkpt lat="53.251286" lon="-1.830054"><ele>245</ele><time>2019-08-30T14:33:49Z</time><name>PT14425</name></trkpt>
<trkpt lat="53.251285" lon="-1.830064"><ele>244</ele><time>2019-08-30T14:33:50Z</time><name>PT14426</name></trkpt>
<trkpt lat="53.251296" lon="-1.830071"><ele>245</ele><time>2019-08-30T14:33:51Z</time><name>PT14427</name></trkpt>
<trkpt lat="53.251300" lon="-1.830075"><ele>246</ele><time>2019-08-30T14:33:52Z</time><name>PT14428</name></trkpt>
<trkpt lat="53.251303" lon="-1.830084"><ele>246</ele><time>2019-08-30T14:33:53Z</time><name>PT14429</name></trkpt>
<trkpt lat="53.251302" lon="-1.830103"><ele>246</ele><time>2019-08-30T14:33:54Z</time><name>PT14430</name></trkpt>
<trkpt lat="53.251306" lon="-1.830108"><ele>246</ele><time>2019-08-30T14:33:55Z</time><name>PT14431</name></trkpt>
<trkpt lat="53.251307" lon="-1.830117"><ele>245</ele><time>2019-08-30T14:33:56Z</time><name>PT14432</name></trkpt>
<trkpt lat="53.251291" lon="-1.830142"><ele>242</ele><time>2019-08-30T14:33:57Z</time><name>PT14433</name></trkpt>
<trkpt lat="53.251292" lon="-1.830148"><ele>242</ele><time>2019-08-30T14:33:58Z</time><name>PT14434</name></trkpt>
<trkpt lat="53.251293" lon="-1.830162"><ele>241</ele><time>2019-08-30T14:33:59Z</time><name>PT14435</name></trkpt>
<trkpt lat="53.251294" lon="-1.830179"><ele>240</ele><time>2019-08-30T14:34:00Z</time><name>PT14436</name></trkpt>
<trkpt lat="53.251282" lon="-1.830197"><ele>236</ele><time>2019-08-30T14:34:01Z</time><name>PT14437</name></trkpt>
<trkpt lat="53.251287" lon="-1.830218"><ele>237</ele><time>2019-08-30T14:34:02Z</time><name>PT14438</name></trkpt>
<trkpt lat="53.251294" lon="-1.830237"><ele>236</ele><time>2019-08-30T14:34:03Z</time><name>PT14439</name></trkpt>
<trkpt lat="53.251306" lon="-1.830253"><ele>236</ele><time>2019-08-30T14:34:04Z</time><name>PT14440</name></trkpt>
<trkpt lat="53.251314" lon="-1.830272"><ele>236</ele><time>2019-08-30T14:34:05Z</time><name>PT14441</name></trkpt>
<trkpt lat="53.251336" lon="-1.830309"><ele>236</ele><time>2019-08-30T14:34:06Z</time><name>PT14442</name></trkpt>
<trkpt lat="53.251338" lon="-1.830308"><ele>235</ele><time>2019-08-30T14:34:07Z</time><name>PT14443</name></trkpt>
<trkpt lat="53.251336" lon="-1.830314"><ele>234</ele><time>2019-08-30T14:34:08Z</time><name>PT14444</name></trkpt>
<trkpt lat="53.251330" lon="-1.830329"><ele>234</ele><time>2019-08-30T14:34:09Z</time><name>PT14445</name></trkpt>
<trkpt lat="53.251330" lon="-1.830358"><ele>233</ele><time>2019-08-30T14:34:10Z</time><name>PT14446</name></trkpt>
<trkpt lat="53.251331" lon="-1.830380"><ele>234</ele><time>2019-08-30T14:34:11Z</time><name>PT14447</name></trkpt>
<trkpt lat="53.251330" lon="-1.830399"><ele>234</ele><time>2019-08-30T14:34:12Z</time><name>PT14448</name></trkpt>
<trkpt lat="53.251326" lon="-1.830409"><ele>234</ele><time>2019-08-30T14:34:13Z</time><name>PT14449</name></trkpt>
<trkpt lat="53.251321" lon="-1.830420"><ele>233</ele><time>2019-08-30T14:34:14Z</time><name>PT14450</name></trkpt>
<trkpt lat="53.251329" lon="-1.830438"><ele>232</ele><time>2019-08-30T14:34:15Z</time><name>PT14451</name></trkpt>
<trkpt lat="53.251333" lon="-1.830456"><ele>232</ele><time>2019-08-30T14:34:16Z</time><name>PT14452</name></trkpt>
<trkpt lat="53.251334" lon="-1.830481"><ele>233</ele><time>2019-08-30T14:34:17Z</time><name>PT14453</name></trkpt>
<trkpt lat="53.251331" lon="-1.830503"><ele>233</ele><time>2019-08-30T14:34:18Z</time><name>PT14454</name></trkpt>
<trkpt lat="53.251334" lon="-1.830525"><ele>234</ele><time>2019-08-30T14:34:19Z</time><name>PT14455</name></trkpt>
<trkpt lat="53.251341" lon="-1.830542"><ele>234</ele><time>2019-08-30T14:34:20Z</time><name>PT14456</name></trkpt>
<trkpt lat="53.251345" lon="-1.830567"><ele>236</ele><time>2019-08-30T14:34:21Z</time><name>PT14457</name></trkpt>
<trkpt lat="53.251351" lon="-1.830580"><ele>237</ele><time>2019-08-30T14:34:22Z</time><name>PT14458</name></trkpt>
<trkpt lat="53.251357" lon="-1.830600"><ele>237</ele><time>2019-08-30T14:34:23Z</time><name>PT14459</name></trkpt>
<trkpt lat="53.251361" lon="-1.830618"><ele>238</ele><time>2019-08-30T14:34:24Z</time><name>PT14460</name></trkpt>
<trkpt lat="53.251361" lon="-1.830634"><ele>238</ele><time>2019-08-30T14:34:25Z</time><name>PT14461</name></trkpt>
<trkpt lat="53.251357" lon="-1.830645"><ele>239</ele><time>2019-08-30T14:34:26Z</time><name>PT14462</name></trkpt>
<trkpt lat="53.251354" lon="-1.830653"><ele>238</ele><time>2019-08-30T14:34:27Z</time><name>PT14463</name></trkpt>
<trkpt lat="53.251356" lon="-1.830664"><ele>239</ele><time>2019-08-30T14:34:28Z</time><name>PT14464</name></trkpt>
<trkpt lat="53.251353" lon="-1.830681"><ele>238</ele><time>2019-08-30T14:34:29Z</time><name>PT14465</name></trkpt>
<trkpt lat="53.251359" lon="-1.830700"><ele>240</ele><time>2019-08-30T14:34:30Z</time><name>PT14466</name></trkpt>
<trkpt lat="53.251363" lon="-1.830726"><ele>242</ele><time>2019-08-30T14:34:31Z</time><name>PT14467</name></trkpt>
<trkpt lat="53.251369" lon="-1.830745"><ele>243</ele><time>2019-08-30T14:34:32Z</time><name>PT14468</name></trkpt>
<trkpt lat="53.251368" lon="-1.830762"><ele>242</ele><time>2019-08-30T14:34:33Z</time><name>PT14469</name></trkpt>
<trkpt lat="53.251368" lon="-1.830783"><ele>243</ele><time>2019-08-30T14:34:34Z</time><name>PT14470</name></trkpt>
<trkpt lat="53.251365" lon="-1.830796"><ele>242</ele><time>2019-08-30T14:34:35Z</time><name>PT14471</name></trkpt>
<trkpt lat="53.251367" lon="-1.830815"><ele>243</ele><time>2019-08-30T14:34:36Z</time><name>PT14472</name></trkpt>
<trkpt lat="53.251369" lon="-1.830834"><ele>243</ele><time>2019-08-30T14:34:37Z</time><name>PT14473</name></trkpt>
<trkpt lat="53.251371" lon="-1.830850"><ele>243</ele><time>2019-08-30T14:34:38Z</time><name>PT14474</name></trkpt>
<trkpt lat="53.251371" lon="-1.830870"><ele>243</ele><time>2019-08-30T14:34:39Z</time><name>PT14475</name></trkpt>
<trkpt lat="53.251372" lon="-1.830894"><ele>242</ele><time>2019-08-30T14:34:40Z</time><name>PT14476</name></trkpt>
<trkpt lat="53.251373" lon="-1.830923"><ele>241</ele><time>2019-08-30T14:34:41Z</time><name>PT14477</name></trkpt>
<trkpt lat="53.251380" lon="-1.830942"><ele>242</ele><time>2019-08-30T14:34:42Z</time><name>PT14478</name></trkpt>
<trkpt lat="53.251379" lon="-1.830958"><ele>239</ele><time>2019-08-30T14:34:43Z</time><name>PT14479</name></trkpt>
<trkpt lat="53.251378" lon="-1.830984"><ele>239</ele><time>2019-08-30T14:34:44Z</time><name>PT14480</name></trkpt>
<trkpt lat="53.251379" lon="-1.831000"><ele>238</ele><time>2019-08-30T14:34:45Z</time><name>PT14481</name></trkpt>
<trkpt lat="53.251380" lon="-1.831024"><ele>238</ele><time>2019-08-30T14:34:46Z</time><name>PT14482</name></trkpt>
<trkpt lat="53.251382" lon="-1.831047"><ele>240</ele><time>2019-08-30T14:34:47Z</time><name>PT14483</name></trkpt>
<trkpt lat="53.251387" lon="-1.831068"><ele>241</ele><time>2019-08-30T14:34:48Z</time><name>PT14484</name></trkpt>
<trkpt lat="53.251393" lon="-1.831085"><ele>243</ele><time>2019-08-30T14:34:49Z</time><name>PT14485</name></trkpt>
<trkpt lat="53.251396" lon="-1.831103"><ele>243</ele><time>2019-08-30T14:34:50Z</time><name>PT14486</name></trkpt>
<trkpt lat="53.251402" lon="-1.831121"><ele>244</ele><time>2019-08-30T14:34:51Z</time><name>PT14487</name></trkpt>
<trkpt lat="53.251405" lon="-1.831131"><ele>246</ele><time>2019-08-30T14:34:52Z</time><name>PT14488</name></trkpt>
<trkpt lat="53.251410" lon="-1.831128"><ele>247</ele><time>2019-08-30T14:34:53Z</time><name>PT14489</name></trkpt>
<trkpt lat="53.251409" lon="-1.831146"><ele>244</ele><time>2019-08-30T14:34:54Z</time><name>PT14490</name></trkpt>
<trkpt lat="53.251413" lon="-1.831170"><ele>245</ele><time>2019-08-30T14:34:55Z</time><name>PT14491</name></trkpt>
<trkpt lat="53.251415" lon="-1.831190"><ele>247</ele><time>2019-08-30T14:34:56Z</time><name>PT14492</name></trkpt>
<trkpt lat="53.251422" lon="-1.831215"><ele>249</ele><time>2019-08-30T14:34:57Z</time><name>PT14493</name></trkpt>
<trkpt lat="53.251428" lon="-1.831225"><ele>249</ele><time>2019-08-30T14:34:58Z</time><name>PT14494</name></trkpt>
<trkpt lat="53.251429" lon="-1.831237"><ele>248</ele><time>2019-08-30T14:34:59Z</time><name>PT14495</name></trkpt>
<trkpt lat="53.251418" lon="-1.831247"><ele>245</ele><time>2019-08-30T14:35:00Z</time><name>PT14496</name></trkpt>
<trkpt lat="53.251422" lon="-1.831263"><ele>245</ele><time>2019-08-30T14:35:01Z</time><name>PT14497</name></trkpt>
<trkpt lat="53.251424" lon="-1.831285"><ele>246</ele><time>2019-08-30T14:35:02Z</time><name>PT14498</name></trkpt>
<trkpt lat="53.251435" lon="-1.831309"><ele>245</ele><time>2019-08-30T14:35:03Z</time><name>PT14499</name></trkpt>
<trkpt lat="53.251437" lon="-1.831328"><ele>245</ele><time>2019-08-30T14:35:04Z</time><name>PT14500</name></trkpt>
<trkpt lat="53.251438" lon="-1.831350"><ele>243</ele><time>2019-08-30T14:35:05Z</time><name>PT14501</name></trkpt>
<trkpt lat="53.251445" lon="-1.831371"><ele>242</ele><time>2019-08-30T14:35:06Z</time><name>PT14502</name></trkpt>
<trkpt lat="53.251448" lon="-1.831396"><ele>242</ele><time>2019-08-30T14:35:07Z</time><name>PT14503</name></trkpt>
<trkpt lat="53.251450" lon="-1.831424"><ele>244</ele><time>2019-08-30T14:35:08Z</time><name>PT14504</name></trkpt>
<trkpt lat="53.251451" lon="-1.831443"><ele>244</ele><time>2019-08-30T14:35:09Z</time><name>PT14505</name></trkpt>
<trkpt lat="53.251454" lon="-1.831447"><ele>243</ele><time>2019-08-30T14:35:10Z</time><name>PT14506</name></trkpt>
<trkpt lat="53.251458" lon="-1.831455"><ele>243</ele><time>2019-08-30T14:35:11Z</time><name>PT14507</name></trkpt>
<trkpt lat="53.251453" lon="-1.831467"><ele>243</ele><time>2019-08-30T14:35:12Z</time><name>PT14508</name></trkpt>
<trkpt lat="53.251453" lon="-1.831486"><ele>243</ele><time>2019-08-30T14:35:13Z</time><name>PT14509</name></trkpt>
<trkpt lat="53.251458" lon="-1.831503"><ele>245</ele><time>2019-08-30T14:35:14Z</time><name>PT14510</name></trkpt>
<trkpt lat="53.251464" lon="-1.831518"><ele>245</ele><time>2019-08-30T14:35:15Z</time><name>PT14511</name></trkpt>
<trkpt lat="53.251466" lon="-1.831540"><ele>243</ele><time>2019-08-30T14:35:16Z</time><name>PT14512</name></trkpt>
<trkpt lat="53.251472" lon="-1.831562"><ele>243</ele><time>2019-08-30T14:35:17Z</time><name>PT14513</name></trkpt>
<trkpt lat="53.251481" lon="-1.831580"><ele>244</ele><time>2019-08-30T14:35:18Z</time><name>PT14514</name></trkpt>
<trkpt lat="53.251487" lon="-1.831604"><ele>245</ele><time>2019-08-30T14:35:19Z</time><name>PT14515</name></trkpt>
<trkpt lat="53.251495" lon="-1.831629"><ele>245</ele><time>2019-08-30T14:35:20Z</time><name>PT14516</name></trkpt>
<trkpt lat="53.251503" lon="-1.831649"><ele>245</ele><time>2019-08-30T14:35:21Z</time><name>PT14517</name></trkpt>
<trkpt lat="53.251502" lon="-1.831665"><ele>243</ele><time>2019-08-30T14:35:22Z</time><name>PT14518</name></trkpt>
<trkpt lat="53.251502" lon="-1.831673"><ele>245</ele><time>2019-08-30T14:35:23Z</time><name>PT14519</name></trkpt>
<trkpt lat="53.251501" lon="-1.831692"><ele>244</ele><time>2019-08-30T14:35:24Z</time><name>PT14520</name></trkpt>
<trkpt lat="53.251510" lon="-1.831728"><ele>247</ele><time>2019-08-30T14:35:25Z</time><name>PT14521</name></trkpt>
<trkpt lat="53.251514" lon="-1.831762"><ele>249</ele><time>2019-08-30T14:35:26Z</time><name>PT14522</name></trkpt>
<trkpt lat="53.251520" lon="-1.831794"><ele>249</ele><time>2019-08-30T14:35:27Z</time><name>PT14523</name></trkpt>
<trkpt lat="53.251519" lon="-1.831821"><ele>248</ele><time>2019-08-30T14:35:28Z</time><name>PT14524</name></trkpt>
<trkpt lat="53.251523" lon="-1.831846"><ele>247</ele><time>2019-08-30T14:35:29Z</time><name>PT14525</name></trkpt>
<trkpt lat="53.251520" lon="-1.831872"><ele>247</ele><time>2019-08-30T14:35:30Z</time><name>PT14526</name></trkpt>
<trkpt lat="53.251523" lon="-1.831904"><ele>247</ele><time>2019-08-30T14:35:31Z</time><name>PT14527</name></trkpt>
<trkpt lat="53.251527" lon="-1.831943"><ele>245</ele><time>2019-08-30T14:35:32Z</time><name>PT14528</name></trkpt>
<trkpt lat="53.251533" lon="-1.831970"><ele>246</ele><time>2019-08-30T14:35:33Z</time><name>PT14529</name></trkpt>
<trkpt lat="53.251536" lon="-1.831991"><ele>246</ele><time>2019-08-30T14:35:34Z</time><name>PT14530</name></trkpt>
<trkpt lat="53.251541" lon="-1.832006"><ele>245</ele><time>2019-08-30T14:35:35Z</time><name>PT14531</name></trkpt>
<trkpt lat="53.251542" lon="-1.832016"><ele>245</ele><time>2019-08-30T14:35:36Z</time><name>PT14532</name></trkpt>
<trkpt lat="53.251545" lon="-1.832034"><ele>246</ele><time>2019-08-30T14:35:37Z</time><name>PT14533</name></trkpt>
<trkpt lat="53.251549" lon="-1.832051"><ele>247</ele><time>2019-08-30T14:35:38Z</time><name>PT14534</name></trkpt>
<trkpt lat="53.251556" lon="-1.832063"><ele>247</ele><time>2019-08-30T14:35:39Z</time><name>PT14535</name></trkpt>
<trkpt lat="53.251552" lon="-1.832079"><ele>246</ele><time>2019-08-30T14:35:40Z</time><name>PT14536</name></trkpt>
<trkpt lat="53.251551" lon="-1.832088"><ele>246</ele><time>2019-08-30T14:35:41Z</time><name>PT14537</name></trkpt>
<trkpt lat="53.251553" lon="-1.832107"><ele>246</ele><time>2019-08-30T14:35:42Z</time><name>PT14538</name></trkpt>
<trkpt lat="53.251555" lon="-1.832126"><ele>246</ele><time>2019-08-30T14:35:43Z</time><name>PT14539</name></trkpt>
<trkpt lat="53.251577" lon="-1.832149"><ele>243</ele><time>2019-08-30T14:35:44Z</time><name>PT14540</name></trkpt>
<trkpt lat="53.251572" lon="-1.832160"><ele>243</ele><time>2019-08-30T14:35:45Z</time><name>PT14541</name></trkpt>
<trkpt lat="53.251570" lon="-1.832180"><ele>243</ele><time>2019-08-30T14:35:46Z</time><name>PT14542</name></trkpt>
<trkpt lat="53.251562" lon="-1.832201"><ele>242</ele><time>2019-08-30T14:35:47Z</time><name>PT14543</name></trkpt>
<trkpt lat="53.251574" lon="-1.832220"><ele>240</ele><time>2019-08-30T14:35:48Z</time><name>PT14544</name></trkpt>
<trkpt lat="53.251579" lon="-1.832234"><ele>241</ele><time>2019-08-30T14:35:49Z</time><name>PT14545</name></trkpt>
<trkpt lat="53.251584" lon="-1.832245"><ele>241</ele><time>2019-08-30T14:35:50Z</time><name>PT14546</name></trkpt>
<trkpt lat="53.251583" lon="-1.832259"><ele>241</ele><time>2019-08-30T14:35:51Z</time><name>PT14547</name></trkpt>
<trkpt lat="53.251588" lon="-1.832276"><ele>241</ele><time>2019-08-30T14:35:52Z</time><name>PT14548</name></trkpt>
<trkpt lat="53.251589" lon="-1.832298"><ele>239</ele><time>2019-08-30T14:35:53Z</time><name>PT14549</name></trkpt>
<trkpt lat="53.251594" lon="-1.832328"><ele>239</ele><time>2019-08-30T14:35:54Z</time><name>PT14550</name></trkpt>
<trkpt lat="53.251599" lon="-1.832349"><ele>240</ele><time>2019-08-30T14:35:55Z</time><name>PT14551</name></trkpt>
<trkpt lat="53.251602" lon="-1.832358"><ele>239</ele><time>2019-08-30T14:35:56Z</time><name>PT14552</name></trkpt>
<trkpt lat="53.251609" lon="-1.832367"><ele>239</ele><time>2019-08-30T14:35:57Z</time><name>PT14553</name></trkpt>
<trkpt lat="53.251608" lon="-1.832389"><ele>238</ele><time>2019-08-30T14:35:58Z</time><name>PT14554</name></trkpt>
<trkpt lat="53.251607" lon="-1.832410"><ele>237</ele><time>2019-08-30T14:35:59Z</time><name>PT14555</name></trkpt>
<trkpt lat="53.251607" lon="-1.832439"><ele>237</ele><time>2019-08-30T14:36:00Z</time><name>PT14556</name></trkpt>
<trkpt lat="53.251610" lon="-1.832458"><ele>236</ele><time>2019-08-30T14:36:01Z</time><name>PT14557</name></trkpt>
<trkpt lat="53.251617" lon="-1.832464"><ele>233</ele><time>2019-08-30T14:36:02Z</time><name>PT14558</name></trkpt>
<trkpt lat="53.251621" lon="-1.832476"><ele>232</ele><time>2019-08-30T14:36:03Z</time><name>PT14559</name></trkpt>
<trkpt lat="53.251623" lon="-1.832500"><ele>231</ele><time>2019-08-30T14:36:04Z</time><name>PT14560</name></trkpt>
<trkpt lat="53.251631" lon="-1.832528"><ele>230</ele><time>2019-08-30T14:36:05Z</time><name>PT14561</name></trkpt>
<trkpt lat="53.251636" lon="-1.832550"><ele>231</ele><time>2019-08-30T14:36:06Z</time><name>PT14562</name></trkpt>
<trkpt lat="53.251634" lon="-1.832576"><ele>230</ele><time>2019-08-30T14:36:07Z</time><name>PT14563</name></trkpt>
<trkpt lat="53.251645" lon="-1.832608"><ele>230</ele><time>2019-08-30T14:36:08Z</time><name>PT14564</name></trkpt>
<trkpt lat="53.251653" lon="-1.832632"><ele>231</ele><time>2019-08-30T14:36:09Z</time><name>PT14565</name></trkpt>
<trkpt lat="53.251661" lon="-1.832663"><ele>233</ele><time>2019-08-30T14:36:10Z</time><name>PT14566</name></trkpt>
<trkpt lat="53.251666" lon="-1.832690"><ele>234</ele><time>2019-08-30T14:36:11Z</time><name>PT14567</name></trkpt>
<trkpt lat="53.251667" lon="-1.832708"><ele>235</ele><time>2019-08-30T14:36:12Z</time><name>PT14568</name></trkpt>
<trkpt lat="53.251665" lon="-1.832727"><ele>235</ele><time>2019-08-30T14:36:13Z</time><name>PT14569</name></trkpt>
<trkpt lat="53.251668" lon="-1.832747"><ele>237</ele><time>2019-08-30T14:36:14Z</time><name>PT14570</name></trkpt>
<trkpt lat="53.251678" lon="-1.832774"><ele>239</ele><time>2019-08-30T14:36:15Z</time><name>PT14571</name></trkpt>
<trkpt lat="53.251680" lon="-1.832806"><ele>241</ele><time>2019-08-30T14:36:16Z</time><name>PT14572</name></trkpt>
<trkpt lat="53.251672" lon="-1.832837"><ele>241</ele><time>2019-08-30T14:36:17Z</time><name>PT14573</name></trkpt>
<trkpt lat="53.251655" lon="-1.832868"><ele>238</ele><time>2019-08-30T14:36:18Z</time><name>PT14574</name></trkpt>
<trkpt lat="53.251643" lon="-1.832890"><ele>235</ele><time>2019-08-30T14:36:19Z</time><name>PT14575</name></trkpt>
<trkpt lat="53.251642" lon="-1.832911"><ele>235</ele><time>2019-08-30T14:36:20Z</time><name>PT14576</name></trkpt>
<trkpt lat="53.251646" lon="-1.832922"><ele>233</ele><time>2019-08-30T14:36:21Z</time><name>PT14577</name></trkpt>
<trkpt lat="53.251640" lon="-1.832937"><ele>233</ele><time>2019-08-30T14:36:22Z</time><name>PT14578</name></trkpt>
<trkpt lat="53.251639" lon="-1.832950"><ele>234</ele><time>2019-08-30T14:36:23Z</time><name>PT14579</name></trkpt>
<trkpt lat="53.251633" lon="-1.832960"><ele>233</ele><time>2019-08-30T14:36:24Z</time><name>PT14580</name></trkpt>
<trkpt lat="53.251628" lon="-1.832975"><ele>234</ele><time>2019-08-30T14:36:25Z</time><name>PT14581</name></trkpt>
<trkpt lat="53.251624" lon="-1.832981"><ele>233</ele><time>2019-08-30T14:36:26Z</time><name>PT14582</name></trkpt>
<trkpt lat="53.251622" lon="-1.832984"><ele>233</ele><time>2019-08-30T14:36:27Z</time><name>PT14583</name></trkpt>
<trkpt lat="53.251619" lon="-1.832986"><ele>233</ele><time>2019-08-30T14:36:28Z</time><name>PT14584</name></trkpt>
<trkpt lat="53.251614" lon="-1.833013"><ele>232</ele><time>2019-08-30T14:36:30Z</time><name>PT14585</name></trkpt>
<trkpt lat="53.251610" lon="-1.833021"><ele>232</ele><time>2019-08-30T14:36:31Z</time><name>PT14586</name></trkpt>
<trkpt lat="53.251605" lon="-1.833026"><ele>232</ele><time>2019-08-30T14:36:32Z</time><name>PT14587</name></trkpt>
<trkpt lat="53.251607" lon="-1.833027"><ele>232</ele><time>2019-08-30T14:36:33Z</time><name>PT14588</name></trkpt>
<trkpt lat="53.251601" lon="-1.833027"><ele>232</ele><time>2019-08-30T14:36:34Z</time><name>PT14589</name></trkpt>
<trkpt lat="53.251591" lon="-1.833028"><ele>232</ele><time>2019-08-30T14:36:35Z</time><name>PT14590</name></trkpt>
<trkpt lat="53.251578" lon="-1.833028"><ele>233</ele><time>2019-08-30T14:36:36Z</time><name>PT14591</name></trkpt>
<trkpt lat="53.251566" lon="-1.833026"><ele>233</ele><time>2019-08-30T14:36:37Z</time><name>PT14592</name></trkpt>
<trkpt lat="53.251558" lon="-1.833022"><ele>232</ele><time>2019-08-30T14:36:38Z</time><name>PT14593</name></trkpt>
<trkpt lat="53.251552" lon="-1.833015"><ele>232</ele><time>2019-08-30T14:36:39Z</time><name>PT14594</name></trkpt>
<trkpt lat="53.251546" lon="-1.833012"><ele>232</ele><time>2019-08-30T14:36:40Z</time><name>PT14595</name></trkpt>
<trkpt lat="53.251535" lon="-1.833006"><ele>231</ele><time>2019-08-30T14:36:41Z</time><name>PT14596</name></trkpt>
<trkpt lat="53.251530" lon="-1.833003"><ele>232</ele><time>2019-08-30T14:36:42Z</time><name>PT14597</name></trkpt>
<trkpt lat="53.251518" lon="-1.833003"><ele>233</ele><time>2019-08-30T14:36:43Z</time><name>PT14598</name></trkpt>
<trkpt lat="53.251508" lon="-1.833003"><ele>234</ele><time>2019-08-30T14:36:44Z</time><name>PT14599</name></trkpt>
<trkpt lat="53.251499" lon="-1.833003"><ele>234</ele><time>2019-08-30T14:36:45Z</time><name>PT14600</name></trkpt>
<trkpt lat="53.251492" lon="-1.833003"><ele>234</ele><time>2019-08-30T14:36:46Z</time><name>PT14601</name></trkpt>
<trkpt lat="53.251485" lon="-1.833002"><ele>234</ele><time>2019-08-30T14:36:47Z</time><name>PT14602</name></trkpt>
<trkpt lat="53.251473" lon="-1.833003"><ele>234</ele><time>2019-08-30T14:36:48Z</time><name>PT14603</name></trkpt>
<trkpt lat="53.251468" lon="-1.832995"><ele>233</ele><time>2019-08-30T14:36:49Z</time><name>PT14604</name></trkpt>
<trkpt lat="53.251460" lon="-1.832995"><ele>233</ele><time>2019-08-30T14:36:50Z</time><name>PT14605</name></trkpt>
<trkpt lat="53.251451" lon="-1.832991"><ele>233</ele><time>2019-08-30T14:36:51Z</time><name>PT14606</name></trkpt>
<trkpt lat="53.251439" lon="-1.832988"><ele>233</ele><time>2019-08-30T14:36:52Z</time><name>PT14607</name></trkpt>
<trkpt lat="53.251432" lon="-1.832985"><ele>233</ele><time>2019-08-30T14:36:53Z</time><name>PT14608</name></trkpt>
<trkpt lat="53.251421" lon="-1.832984"><ele>233</ele><time>2019-08-30T14:36:54Z</time><name>PT14609</name></trkpt>
<trkpt lat="53.251414" lon="-1.832987"><ele>234</ele><time>2019-08-30T14:36:55Z</time><name>PT14610</name></trkpt>
<trkpt lat="53.251407" lon="-1.832985"><ele>233</ele><time>2019-08-30T14:36:56Z</time><name>PT14611</name></trkpt>
<trkpt lat="53.251403" lon="-1.832989"><ele>233</ele><time>2019-08-30T14:36:57Z</time><name>PT14612</name></trkpt>
<trkpt lat="53.251399" lon="-1.832990"><ele>233</ele><time>2019-08-30T14:36:58Z</time><name>PT14613</name></trkpt>
<trkpt lat="53.251388" lon="-1.832990"><ele>234</ele><time>2019-08-30T14:36:59Z</time><name>PT14614</name></trkpt>
<trkpt lat="53.251380" lon="-1.832992"><ele>233</ele><time>2019-08-30T14:37:00Z</time><name>PT14615</name></trkpt>
<trkpt lat="53.251368" lon="-1.832998"><ele>233</ele><time>2019-08-30T14:37:01Z</time><name>PT14616</name></trkpt>
<trkpt lat="53.251357" lon="-1.832989"><ele>234</ele><time>2019-08-30T14:37:02Z</time><name>PT14617</name></trkpt>
<trkpt lat="53.251344" lon="-1.832977"><ele>233</ele><time>2019-08-30T14:37:03Z</time><name>PT14618</name></trkpt>
<trkpt lat="53.251340" lon="-1.832976"><ele>233</ele><time>2019-08-30T14:37:04Z</time><name>PT14619</name></trkpt>
<trkpt lat="53.251330" lon="-1.832977"><ele>234</ele><time>2019-08-30T14:37:05Z</time><name>PT14620</name></trkpt>
<trkpt lat="53.251319" lon="-1.832973"><ele>234</ele><time>2019-08-30T14:37:06Z</time><name>PT14621</name></trkpt>
<trkpt lat="53.251306" lon="-1.832981"><ele>234</ele><time>2019-08-30T14:37:07Z</time><name>PT14622</name></trkpt>
<trkpt lat="53.251309" lon="-1.832987"><ele>235</ele><time>2019-08-30T14:37:08Z</time><name>PT14623</name></trkpt>
<trkpt lat="53.251303" lon="-1.832990"><ele>234</ele><time>2019-08-30T14:37:09Z</time><name>PT14624</name></trkpt>
<trkpt lat="53.251298" lon="-1.832992"><ele>234</ele><time>2019-08-30T14:37:10Z</time><name>PT14625</name></trkpt>
<trkpt lat="53.251291" lon="-1.832990"><ele>233</ele><time>2019-08-30T14:37:11Z</time><name>PT14626</name></trkpt>
<trkpt lat="53.251284" lon="-1.832993"><ele>234</ele><time>2019-08-30T14:37:12Z</time><name>PT14627</name></trkpt>
<trkpt lat="53.251276" lon="-1.832997"><ele>233</ele><time>2019-08-30T14:37:13Z</time><name>PT14628</name></trkpt>
<trkpt lat="53.251268" lon="-1.832998"><ele>233</ele><time>2019-08-30T14:37:14Z</time><name>PT14629</name></trkpt>
<trkpt lat="53.251261" lon="-1.832996"><ele>235</ele><time>2019-08-30T14:37:15Z</time><name>PT14630</name></trkpt>
<trkpt lat="53.251245" lon="-1.832998"><ele>235</ele><time>2019-08-30T14:37:16Z</time><name>PT14631</name></trkpt>
<trkpt lat="53.251236" lon="-1.833008"><ele>236</ele><time>2019-08-30T14:37:17Z</time><name>PT14632</name></trkpt>
<trkpt lat="53.251224" lon="-1.833000"><ele>236</ele><time>2019-08-30T14:37:18Z</time><name>PT14633</name></trkpt>
<trkpt lat="53.251213" lon="-1.833000"><ele>236</ele><time>2019-08-30T14:37:19Z</time><name>PT14634</name></trkpt>
<trkpt lat="53.251196" lon="-1.832996"><ele>235</ele><time>2019-08-30T14:37:20Z</time><name>PT14635</name></trkpt>
<trkpt lat="53.251188" lon="-1.832995"><ele>235</ele><time>2019-08-30T14:37:21Z</time><name>PT14636</name></trkpt>
<trkpt lat="53.251180" lon="-1.832993"><ele>235</ele><time>2019-08-30T14:37:22Z</time><name>PT14637</name></trkpt>
<trkpt lat="53.251169" lon="-1.833003"><ele>235</ele><time>2019-08-30T14:37:23Z</time><name>PT14638</name></trkpt>
<trkpt lat="53.251163" lon="-1.833019"><ele>235</ele><time>2019-08-30T14:37:24Z</time><name>PT14639</name></trkpt>
<trkpt lat="53.251156" lon="-1.833023"><ele>235</ele><time>2019-08-30T14:37:25Z</time><name>PT14640</name></trkpt>
<trkpt lat="53.251152" lon="-1.833026"><ele>235</ele><time>2019-08-30T14:37:26Z</time><name>PT14641</name></trkpt>
<trkpt lat="53.251147" lon="-1.833031"><ele>236</ele><time>2019-08-30T14:37:27Z</time><name>PT14642</name></trkpt>
<trkpt lat="53.251142" lon="-1.833040"><ele>236</ele><time>2019-08-30T14:37:28Z</time><name>PT14643</name></trkpt>
<trkpt lat="53.251139" lon="-1.833052"><ele>237</ele><time>2019-08-30T14:37:29Z</time><name>PT14644</name></trkpt>
<trkpt lat="53.251138" lon="-1.833064"><ele>238</ele><time>2019-08-30T14:37:30Z</time><name>PT14645</name></trkpt>
<trkpt lat="53.251140" lon="-1.833084"><ele>238</ele><time>2019-08-30T14:37:31Z</time><name>PT14646</name></trkpt>
<trkpt lat="53.251143" lon="-1.833090"><ele>239</ele><time>2019-08-30T14:37:32Z</time><name>PT14647</name></trkpt>
<trkpt lat="53.251137" lon="-1.833114"><ele>241</ele><time>2019-08-30T14:37:33Z</time><name>PT14648</name></trkpt>
<trkpt lat="53.251133" lon="-1.833130"><ele>242</ele><time>2019-08-30T14:37:34Z</time><name>PT14649</name></trkpt>
<trkpt lat="53.251125" lon="-1.833148"><ele>242</ele><time>2019-08-30T14:37:35Z</time><name>PT14650</name></trkpt>
<trkpt lat="53.251116" lon="-1.833160"><ele>243</ele><time>2019-08-30T14:37:36Z</time><name>PT14651</name></trkpt>
<trkpt lat="53.251109" lon="-1.833163"><ele>242</ele><time>2019-08-30T14:37:37Z</time><name>PT14652</name></trkpt>
<trkpt lat="53.251100" lon="-1.833171"><ele>243</ele><time>2019-08-30T14:37:38Z</time><name>PT14653</name></trkpt>
<trkpt lat="53.251094" lon="-1.833185"><ele>243</ele><time>2019-08-30T14:37:39Z</time><name>PT14654</name></trkpt>
<trkpt lat="53.251092" lon="-1.833203"><ele>244</ele><time>2019-08-30T14:37:40Z</time><name>PT14655</name></trkpt>
<trkpt lat="53.251088" lon="-1.833215"><ele>244</ele><time>2019-08-30T14:37:41Z</time><name>PT14656</name></trkpt>
<trkpt lat="53.251079" lon="-1.833221"><ele>243</ele><time>2019-08-30T14:37:42Z</time><name>PT14657</name></trkpt>
<trkpt lat="53.251075" lon="-1.833242"><ele>244</ele><time>2019-08-30T14:37:43Z</time><name>PT14658</name></trkpt>
<trkpt lat="53.251069" lon="-1.833256"><ele>244</ele><time>2019-08-30T14:37:44Z</time><name>PT14659</name></trkpt>
<trkpt lat="53.251062" lon="-1.833265"><ele>244</ele><time>2019-08-30T14:37:45Z</time><name>PT14660</name></trkpt>
<trkpt lat="53.251053" lon="-1.833269"><ele>243</ele><time>2019-08-30T14:37:46Z</time><name>PT14661</name></trkpt>
<trkpt lat="53.251039" lon="-1.833288"><ele>241</ele><time>2019-08-30T14:37:47Z</time><name>PT14662</name></trkpt>
<trkpt lat="53.251029" lon="-1.833290"><ele>239</ele><time>2019-08-30T14:37:48Z</time><name>PT14663</name></trkpt>
<trkpt lat="53.251017" lon="-1.833299"><ele>239</ele><time>2019-08-30T14:37:49Z</time><name>PT14664</name></trkpt>
<trkpt lat="53.251003" lon="-1.833310"><ele>240</ele><time>2019-08-30T14:37:50Z</time><name>PT14665</name></trkpt>
<trkpt lat="53.250989" lon="-1.833320"><ele>239</ele><time>2019-08-30T14:37:51Z</time><name>PT14666</name></trkpt>
<trkpt lat="53.250980" lon="-1.833338"><ele>238</ele><time>2019-08-30T14:37:52Z</time><name>PT14667</name></trkpt>
<trkpt lat="53.250974" lon="-1.833353"><ele>237</ele><time>2019-08-30T14:37:53Z</time><name>PT14668</name></trkpt>
<trkpt lat="53.250953" lon="-1.833364"><ele>238</ele><time>2019-08-30T14:37:54Z</time><name>PT14669</name></trkpt>
<trkpt lat="53.250933" lon="-1.833377"><ele>238</ele><time>2019-08-30T14:37:55Z</time><name>PT14670</name></trkpt>
<trkpt lat="53.250922" lon="-1.833388"><ele>238</ele><time>2019-08-30T14:37:56Z</time><name>PT14671</name></trkpt>
<trkpt lat="53.250898" lon="-1.833397"><ele>238</ele><time>2019-08-30T14:37:57Z</time><name>PT14672</name></trkpt>
<trkpt lat="53.250881" lon="-1.833414"><ele>237</ele><time>2019-08-30T14:37:58Z</time><name>PT14673</name></trkpt>
<trkpt lat="53.250864" lon="-1.833423"><ele>236</ele><time>2019-08-30T14:37:59Z</time><name>PT14674</name></trkpt>
<trkpt lat="53.250855" lon="-1.833435"><ele>236</ele><time>2019-08-30T14:38:00Z</time><name>PT14675</name></trkpt>
<trkpt lat="53.250841" lon="-1.833451"><ele>236</ele><time>2019-08-30T14:38:01Z</time><name>PT14676</name></trkpt>
<trkpt lat="53.250833" lon="-1.833468"><ele>236</ele><time>2019-08-30T14:38:02Z</time><name>PT14677</name></trkpt>
<trkpt lat="53.250824" lon="-1.833487"><ele>237</ele><time>2019-08-30T14:38:03Z</time><name>PT14678</name></trkpt>
<trkpt lat="53.250805" lon="-1.833498"><ele>236</ele><time>2019-08-30T14:38:04Z</time><name>PT14679</name></trkpt>
<trkpt lat="53.250792" lon="-1.833518"><ele>235</ele><time>2019-08-30T14:38:05Z</time><name>PT14680</name></trkpt>
<trkpt lat="53.250785" lon="-1.833538"><ele>236</ele><time>2019-08-30T14:38:06Z</time><name>PT14681</name></trkpt>
<trkpt lat="53.250780" lon="-1.833556"><ele>237</ele><time>2019-08-30T14:38:07Z</time><name>PT14682</name></trkpt>
<trkpt lat="53.250768" lon="-1.833570"><ele>236</ele><time>2019-08-30T14:38:08Z</time><name>PT14683</name></trkpt>
<trkpt lat="53.250759" lon="-1.833582"><ele>236</ele><time>2019-08-30T14:38:09Z</time><name>PT14684</name></trkpt>
<trkpt lat="53.250752" lon="-1.833592"><ele>235</ele><time>2019-08-30T14:38:10Z</time><name>PT14685</name></trkpt>
<trkpt lat="53.250745" lon="-1.833605"><ele>235</ele><time>2019-08-30T14:38:11Z</time><name>PT14686</name></trkpt>
<trkpt lat="53.250736" lon="-1.833615"><ele>233</ele><time>2019-08-30T14:38:12Z</time><name>PT14687</name></trkpt>
<trkpt lat="53.250727" lon="-1.833627"><ele>233</ele><time>2019-08-30T14:38:13Z</time><name>PT14688</name></trkpt>
<trkpt lat="53.250719" lon="-1.833647"><ele>233</ele><time>2019-08-30T14:38:14Z</time><name>PT14689</name></trkpt>
<trkpt lat="53.250718" lon="-1.833658"><ele>232</ele><time>2019-08-30T14:38:15Z</time><name>PT14690</name></trkpt>
<trkpt lat="53.250711" lon="-1.833676"><ele>232</ele><time>2019-08-30T14:38:16Z</time><name>PT14691</name></trkpt>
<trkpt lat="53.250704" lon="-1.833694"><ele>232</ele><time>2019-08-30T14:38:17Z</time><name>PT14692</name></trkpt>
<trkpt lat="53.250699" lon="-1.833710"><ele>232</ele><time>2019-08-30T14:38:18Z</time><name>PT14693</name></trkpt>
<trkpt lat="53.250690" lon="-1.833727"><ele>232</ele><time>2019-08-30T14:38:19Z</time><name>PT14694</name></trkpt>
<trkpt lat="53.250687" lon="-1.833745"><ele>232</ele><time>2019-08-30T14:38:20Z</time><name>PT14695</name></trkpt>
<trkpt lat="53.250683" lon="-1.833749"><ele>232</ele><time>2019-08-30T14:38:21Z</time><name>PT14696</name></trkpt>
<trkpt lat="53.250680" lon="-1.833751"><ele>231</ele><time>2019-08-30T14:38:22Z</time><name>PT14697</name></trkpt>
<trkpt lat="53.250679" lon="-1.833760"><ele>231</ele><time>2019-08-30T14:38:23Z</time><name>PT14698</name></trkpt>
<trkpt lat="53.250672" lon="-1.833772"><ele>230</ele><time>2019-08-30T14:38:24Z</time><name>PT14699</name></trkpt>
<trkpt lat="53.250668" lon="-1.833803"><ele>231</ele><time>2019-08-30T14:38:25Z</time><name>PT14700</name></trkpt>
<trkpt lat="53.250665" lon="-1.833829"><ele>231</ele><time>2019-08-30T14:38:26Z</time><name>PT14701</name></trkpt>
<trkpt lat="53.250663" lon="-1.833850"><ele>231</ele><time>2019-08-30T14:38:27Z</time><name>PT14702</name></trkpt>
<trkpt lat="53.250659" lon="-1.833858"><ele>229</ele><time>2019-08-30T14:38:28Z</time><name>PT14703</name></trkpt>
<trkpt lat="53.250659" lon="-1.833868"><ele>229</ele><time>2019-08-30T14:38:29Z</time><name>PT14704</name></trkpt>
<trkpt lat="53.250652" lon="-1.833898"><ele>230</ele><time>2019-08-30T14:38:30Z</time><name>PT14705</name></trkpt>
<trkpt lat="53.250644" lon="-1.833911"><ele>230</ele><time>2019-08-30T14:38:31Z</time><name>PT14706</name></trkpt>
<trkpt lat="53.250642" lon="-1.833936"><ele>232</ele><time>2019-08-30T14:38:32Z</time><name>PT14707</name></trkpt>
<trkpt lat="53.250633" lon="-1.833947"><ele>231</ele><time>2019-08-30T14:38:33Z</time><name>PT14708</name></trkpt>
<trkpt lat="53.250629" lon="-1.833962"><ele>231</ele><time>2019-08-30T14:38:34Z</time><name>PT14709</name></trkpt>
<trkpt lat="53.250623" lon="-1.833982"><ele>232</ele><time>2019-08-30T14:38:35Z</time><name>PT14710</name></trkpt>
<trkpt lat="53.250618" lon="-1.834006"><ele>233</ele><time>2019-08-30T14:38:36Z</time><name>PT14711</name></trkpt>
<trkpt lat="53.250618" lon="-1.834019"><ele>233</ele><time>2019-08-30T14:38:37Z</time><name>PT14712</name></trkpt>
<trkpt lat="53.250615" lon="-1.834036"><ele>233</ele><time>2019-08-30T14:38:38Z</time><name>PT14713</name></trkpt>
<trkpt lat="53.250604" lon="-1.834060"><ele>233</ele><time>2019-08-30T14:38:39Z</time><name>PT14714</name></trkpt>
<trkpt lat="53.250596" lon="-1.834083"><ele>233</ele><time>2019-08-30T14:38:40Z</time><name>PT14715</name></trkpt>
<trkpt lat="53.250593" lon="-1.834105"><ele>234</ele><time>2019-08-30T14:38:41Z</time><name>PT14716</name></trkpt>
<trkpt lat="53.250588" lon="-1.834124"><ele>234</ele><time>2019-08-30T14:38:42Z</time><name>PT14717</name></trkpt>
<trkpt lat="53.250584" lon="-1.834142"><ele>233</ele><time>2019-08-30T14:38:43Z</time><name>PT14718</name></trkpt>
<trkpt lat="53.250583" lon="-1.834164"><ele>235</ele><time>2019-08-30T14:38:44Z</time><name>PT14719</name></trkpt>
<trkpt lat="53.250574" lon="-1.834184"><ele>236</ele><time>2019-08-30T14:38:45Z</time><name>PT14720</name></trkpt>
<trkpt lat="53.250562" lon="-1.834202"><ele>236</ele><time>2019-08-30T14:38:46Z</time><name>PT14721</name></trkpt>
<trkpt lat="53.250554" lon="-1.834216"><ele>237</ele><time>2019-08-30T14:38:47Z</time><name>PT14722</name></trkpt>
<trkpt lat="53.250547" lon="-1.834233"><ele>237</ele><time>2019-08-30T14:38:48Z</time><name>PT14723</name></trkpt>
<trkpt lat="53.250542" lon="-1.834248"><ele>237</ele><time>2019-08-30T14:38:49Z</time><name>PT14724</name></trkpt>
<trkpt lat="53.250530" lon="-1.834268"><ele>238</ele><time>2019-08-30T14:38:50Z</time><name>PT14725</name></trkpt>
<trkpt lat="53.250517" lon="-1.834286"><ele>238</ele><time>2019-08-30T14:38:51Z</time><name>PT14726</name></trkpt>
<trkpt lat="53.250507" lon="-1.834301"><ele>238</ele><time>2019-08-30T14:38:52Z</time><name>PT14727</name></trkpt>
<trkpt lat="53.250502" lon="-1.834314"><ele>238</ele><time>2019-08-30T14:38:53Z</time><name>PT14728</name></trkpt>
<trkpt lat="53.250485" lon="-1.834323"><ele>236</ele><time>2019-08-30T14:38:54Z</time><name>PT14729</name></trkpt>
<trkpt lat="53.250472" lon="-1.834325"><ele>236</ele><time>2019-08-30T14:38:55Z</time><name>PT14730</name></trkpt>
<trkpt lat="53.250457" lon="-1.834327"><ele>236</ele><time>2019-08-30T14:38:56Z</time><name>PT14731</name></trkpt>
<trkpt lat="53.250448" lon="-1.834323"><ele>237</ele><time>2019-08-30T14:38:57Z</time><name>PT14732</name></trkpt>
<trkpt lat="53.250440" lon="-1.834320"><ele>237</ele><time>2019-08-30T14:38:58Z</time><name>PT14733</name></trkpt>
<trkpt lat="53.250424" lon="-1.834315"><ele>237</ele><time>2019-08-30T14:38:59Z</time><name>PT14734</name></trkpt>
<trkpt lat="53.250415" lon="-1.834321"><ele>238</ele><time>2019-08-30T14:39:00Z</time><name>PT14735</name></trkpt>
<trkpt lat="53.250414" lon="-1.834329"><ele>239</ele><time>2019-08-30T14:39:01Z</time><name>PT14736</name></trkpt>
<trkpt lat="53.250412" lon="-1.834336"><ele>240</ele><time>2019-08-30T14:39:02Z</time><name>PT14737</name></trkpt>
<trkpt lat="53.250415" lon="-1.834343"><ele>241</ele><time>2019-08-30T14:39:03Z</time><name>PT14738</name></trkpt>
<trkpt lat="53.250412" lon="-1.834347"><ele>240</ele><time>2019-08-30T14:39:04Z</time><name>PT14739</name></trkpt>
<trkpt lat="53.250401" lon="-1.834360"><ele>238</ele><time>2019-08-30T14:39:05Z</time><name>PT14740</name></trkpt>
<trkpt lat="53.250391" lon="-1.834361"><ele>238</ele><time>2019-08-30T14:39:06Z</time><name>PT14741</name></trkpt>
<trkpt lat="53.250376" lon="-1.834354"><ele>236</ele><time>2019-08-30T14:39:07Z</time><name>PT14742</name></trkpt>
<trkpt lat="53.250376" lon="-1.834342"><ele>236</ele><time>2019-08-30T14:39:08Z</time><name>PT14743</name></trkpt>
<trkpt lat="53.250370" lon="-1.834338"><ele>236</ele><time>2019-08-30T14:39:09Z</time><name>PT14744</name></trkpt>
<trkpt lat="53.250355" lon="-1.834338"><ele>235</ele><time>2019-08-30T14:39:10Z</time><name>PT14745</name></trkpt>
<trkpt lat="53.250348" lon="-1.834338"><ele>235</ele><time>2019-08-30T14:39:11Z</time><name>PT14746</name></trkpt>
<trkpt lat="53.250342" lon="-1.834346"><ele>235</ele><time>2019-08-30T14:39:12Z</time><name>PT14747</name></trkpt>
<trkpt lat="53.250322" lon="-1.834346"><ele>235</ele><time>2019-08-30T14:39:13Z</time><name>PT14748</name></trkpt>
<trkpt lat="53.250307" lon="-1.834346"><ele>237</ele><time>2019-08-30T14:39:14Z</time><name>PT14749</name></trkpt>
<trkpt lat="53.250285" lon="-1.834352"><ele>238</ele><time>2019-08-30T14:39:15Z</time><name>PT14750</name></trkpt>
<trkpt lat="53.250268" lon="-1.834360"><ele>239</ele><time>2019-08-30T14:39:16Z</time><name>PT14751</name></trkpt>
<trkpt lat="53.250257" lon="-1.834358"><ele>242</ele><time>2019-08-30T14:39:17Z</time><name>PT14752</name></trkpt>
<trkpt lat="53.250238" lon="-1.834338"><ele>240</ele><time>2019-08-30T14:39:18Z</time><name>PT14753</name></trkpt>
<trkpt lat="53.250225" lon="-1.834348"><ele>242</ele><time>2019-08-30T14:39:19Z</time><name>PT14754</name></trkpt>
<trkpt lat="53.250219" lon="-1.834361"><ele>243</ele><time>2019-08-30T14:39:20Z</time><name>PT14755</name></trkpt>
<trkpt lat="53.250210" lon="-1.834366"><ele>242</ele><time>2019-08-30T14:39:21Z</time><name>PT14756</name></trkpt>
<trkpt lat="53.250203" lon="-1.834377"><ele>242</ele><time>2019-08-30T14:39:22Z</time><name>PT14757</name></trkpt>
<trkpt lat="53.250193" lon="-1.834387"><ele>241</ele><time>2019-08-30T14:39:23Z</time><name>PT14758</name></trkpt>
<trkpt lat="53.250175" lon="-1.834392"><ele>241</ele><time>2019-08-30T14:39:24Z</time><name>PT14759</name></trkpt>
<trkpt lat="53.250170" lon="-1.834404"><ele>243</ele><time>2019-08-30T14:39:25Z</time><name>PT14760</name></trkpt>
<trkpt lat="53.250164" lon="-1.834413"><ele>242</ele><time>2019-08-30T14:39:26Z</time><name>PT14761</name></trkpt>
<trkpt lat="53.250149" lon="-1.834429"><ele>240</ele><time>2019-08-30T14:39:27Z</time><name>PT14762</name></trkpt>
<trkpt lat="53.250132" lon="-1.834438"><ele>239</ele><time>2019-08-30T14:39:28Z</time><name>PT14763</name></trkpt>
<trkpt lat="53.250122" lon="-1.834451"><ele>239</ele><time>2019-08-30T14:39:29Z</time><name>PT14764</name></trkpt>
<trkpt lat="53.250112" lon="-1.834476"><ele>240</ele><time>2019-08-30T14:39:30Z</time><name>PT14765</name></trkpt>
<trkpt lat="53.250086" lon="-1.834490"><ele>239</ele><time>2019-08-30T14:39:31Z</time><name>PT14766</name></trkpt>
<trkpt lat="53.250074" lon="-1.834497"><ele>239</ele><time>2019-08-30T14:39:32Z</time><name>PT14767</name></trkpt>
<trkpt lat="53.250060" lon="-1.834511"><ele>238</ele><time>2019-08-30T14:39:33Z</time><name>PT14768</name></trkpt>
<trkpt lat="53.250050" lon="-1.834532"><ele>237</ele><time>2019-08-30T14:39:34Z</time><name>PT14769</name></trkpt>
<trkpt lat="53.250047" lon="-1.834548"><ele>237</ele><time>2019-08-30T14:39:35Z</time><name>PT14770</name></trkpt>
<trkpt lat="53.250036" lon="-1.834555"><ele>238</ele><time>2019-08-30T14:39:36Z</time><name>PT14771</name></trkpt>
<trkpt lat="53.250028" lon="-1.834560"><ele>237</ele><time>2019-08-30T14:39:37Z</time><name>PT14772</name></trkpt>
<trkpt lat="53.250019" lon="-1.834565"><ele>235</ele><time>2019-08-30T14:39:38Z</time><name>PT14773</name></trkpt>
<trkpt lat="53.250011" lon="-1.834577"><ele>233</ele><time>2019-08-30T14:39:39Z</time><name>PT14774</name></trkpt>
<trkpt lat="53.250004" lon="-1.834594"><ele>233</ele><time>2019-08-30T14:39:40Z</time><name>PT14775</name></trkpt>
<trkpt lat="53.249996" lon="-1.834603"><ele>232</ele><time>2019-08-30T14:39:41Z</time><name>PT14776</name></trkpt>
<trkpt lat="53.249987" lon="-1.834621"><ele>231</ele><time>2019-08-30T14:39:42Z</time><name>PT14777</name></trkpt>
<trkpt lat="53.249977" lon="-1.834638"><ele>231</ele><time>2019-08-30T14:39:43Z</time><name>PT14778</name></trkpt>
<trkpt lat="53.249970" lon="-1.834678"><ele>232</ele><time>2019-08-30T14:39:44Z</time><name>PT14779</name></trkpt>
<trkpt lat="53.249959" lon="-1.834712"><ele>234</ele><time>2019-08-30T14:39:45Z</time><name>PT14780</name></trkpt>
<trkpt lat="53.249950" lon="-1.834724"><ele>234</ele><time>2019-08-30T14:39:46Z</time><name>PT14781</name></trkpt>
<trkpt lat="53.249939" lon="-1.834750"><ele>235</ele><time>2019-08-30T14:39:47Z</time><name>PT14782</name></trkpt>
<trkpt lat="53.249927" lon="-1.834769"><ele>235</ele><time>2019-08-30T14:39:48Z</time><name>PT14783</name></trkpt>
<trkpt lat="53.249917" lon="-1.834789"><ele>235</ele><time>2019-08-30T14:39:49Z</time><name>PT14784</name></trkpt>
<trkpt lat="53.249910" lon="-1.834810"><ele>236</ele><time>2019-08-30T14:39:50Z</time><name>PT14785</name></trkpt>
<trkpt lat="53.249908" lon="-1.834832"><ele>237</ele><time>2019-08-30T14:39:51Z</time><name>PT14786</name></trkpt>
<trkpt lat="53.249905" lon="-1.834847"><ele>236</ele><time>2019-08-30T14:39:52Z</time><name>PT14787</name></trkpt>
<trkpt lat="53.249897" lon="-1.834871"><ele>236</ele><time>2019-08-30T14:39:53Z</time><name>PT14788</name></trkpt>
<trkpt lat="53.249887" lon="-1.834901"><ele>237</ele><time>2019-08-30T14:39:54Z</time><name>PT14789</name></trkpt>
<trkpt lat="53.249882" lon="-1.834923"><ele>237</ele><time>2019-08-30T14:39:55Z</time><name>PT14790</name></trkpt>
<trkpt lat="53.249883" lon="-1.834942"><ele>238</ele><time>2019-08-30T14:39:56Z</time><name>PT14791</name></trkpt>
<trkpt lat="53.249882" lon="-1.834954"><ele>237</ele><time>2019-08-30T14:39:57Z</time><name>PT14792</name></trkpt>
<trkpt lat="53.249878" lon="-1.834977"><ele>237</ele><time>2019-08-30T14:39:58Z</time><name>PT14793</name></trkpt>
<trkpt lat="53.249865" lon="-1.834993"><ele>237</ele><time>2019-08-30T14:39:59Z</time><name>PT14794</name></trkpt>
<trkpt lat="53.249857" lon="-1.835007"><ele>235</ele><time>2019-08-30T14:40:00Z</time><name>PT14795</name></trkpt>
<trkpt lat="53.249855" lon="-1.835026"><ele>236</ele><time>2019-08-30T14:40:01Z</time><name>PT14796</name></trkpt>
<trkpt lat="53.249849" lon="-1.835043"><ele>236</ele><time>2019-08-30T14:40:02Z</time><name>PT14797</name></trkpt>
<trkpt lat="53.249847" lon="-1.835054"><ele>236</ele><time>2019-08-30T14:40:03Z</time><name>PT14798</name></trkpt>
<trkpt lat="53.249837" lon="-1.835070"><ele>236</ele><time>2019-08-30T14:40:04Z</time><name>PT14799</name></trkpt>
<trkpt lat="53.249818" lon="-1.835088"><ele>237</ele><time>2019-08-30T14:40:05Z</time><name>PT14800</name></trkpt>
<trkpt lat="53.249821" lon="-1.835101"><ele>237</ele><time>2019-08-30T14:40:06Z</time><name>PT14801</name></trkpt>
<trkpt lat="53.249823" lon="-1.835116"><ele>238</ele><time>2019-08-30T14:40:07Z</time><name>PT14802</name></trkpt>
<trkpt lat="53.249822" lon="-1.835131"><ele>238</ele><time>2019-08-30T14:40:08Z</time><name>PT14803</name></trkpt>
<trkpt lat="53.249813" lon="-1.835148"><ele>236</ele><time>2019-08-30T14:40:09Z</time><name>PT14804</name></trkpt>
<trkpt lat="53.249803" lon="-1.835163"><ele>235</ele><time>2019-08-30T14:40:10Z</time><name>PT14805</name></trkpt>
<trkpt lat="53.249800" lon="-1.835178"><ele>234</ele><time>2019-08-30T14:40:11Z</time><name>PT14806</name></trkpt>
<trkpt lat="53.249800" lon="-1.835198"><ele>235</ele><time>2019-08-30T14:40:12Z</time><name>PT14807</name></trkpt>
<trkpt lat="53.249798" lon="-1.835212"><ele>234</ele><time>2019-08-30T14:40:13Z</time><name>PT14808</name></trkpt>
<trkpt lat="53.249792" lon="-1.835233"><ele>234</ele><time>2019-08-30T14:40:14Z</time><name>PT14809</name></trkpt>
<trkpt lat="53.249786" lon="-1.835255"><ele>235</ele><time>2019-08-30T14:40:15Z</time><name>PT14810</name></trkpt>
<trkpt lat="53.249776" lon="-1.835271"><ele>235</ele><time>2019-08-30T14:40:16Z</time><name>PT14811</name></trkpt>
<trkpt lat="53.249767" lon="-1.835284"><ele>235</ele><time>2019-08-30T14:40:17Z</time><name>PT14812</name></trkpt>
<trkpt lat="53.249766" lon="-1.835298"><ele>235</ele><time>2019-08-30T14:40:18Z</time><name>PT14813</name></trkpt>
<trkpt lat="53.249758" lon="-1.835315"><ele>235</ele><time>2019-08-30T14:40:19Z</time><name>PT14814</name></trkpt>
<trkpt lat="53.249749" lon="-1.835334"><ele>235</ele><time>2019-08-30T14:40:20Z</time><name>PT14815</name></trkpt>
<trkpt lat="53.249740" lon="-1.835354"><ele>234</ele><time>2019-08-30T14:40:21Z</time><name>PT14816</name></trkpt>
<trkpt lat="53.249730" lon="-1.835365"><ele>233</ele><time>2019-08-30T14:40:22Z</time><name>PT14817</name></trkpt>
<trkpt lat="53.249725" lon="-1.835378"><ele>232</ele><time>2019-08-30T14:40:23Z</time><name>PT14818</name></trkpt>
<trkpt lat="53.249723" lon="-1.835397"><ele>232</ele><time>2019-08-30T14:40:24Z</time><name>PT14819</name></trkpt>
<trkpt lat="53.249716" lon="-1.835415"><ele>232</ele><time>2019-08-30T14:40:25Z</time><name>PT14820</name></trkpt>
<trkpt lat="53.249711" lon="-1.835428"><ele>233</ele><time>2019-08-30T14:40:26Z</time><name>PT14821</name></trkpt>
<trkpt lat="53.249703" lon="-1.835443"><ele>233</ele><time>2019-08-30T14:40:27Z</time><name>PT14822</name></trkpt>
<trkpt lat="53.249697" lon="-1.835459"><ele>233</ele><time>2019-08-30T14:40:28Z</time><name>PT14823</name></trkpt>
<trkpt lat="53.249688" lon="-1.835473"><ele>233</ele><time>2019-08-30T14:40:29Z</time><name>PT14824</name></trkpt>
<trkpt lat="53.249675" lon="-1.835480"><ele>232</ele><time>2019-08-30T14:40:30Z</time><name>PT14825</name></trkpt>
<trkpt lat="53.249664" lon="-1.835483"><ele>231</ele><time>2019-08-30T14:40:31Z</time><name>PT14826</name></trkpt>
<trkpt lat="53.249654" lon="-1.835498"><ele>230</ele><time>2019-08-30T14:40:32Z</time><name>PT14827</name></trkpt>
<trkpt lat="53.249653" lon="-1.835512"><ele>231</ele><time>2019-08-30T14:40:33Z</time><name>PT14828</name></trkpt>
<trkpt lat="53.249649" lon="-1.835520"><ele>230</ele><time>2019-08-30T14:40:34Z</time><name>PT14829</name></trkpt>
<trkpt lat="53.249644" lon="-1.835534"><ele>230</ele><time>2019-08-30T14:40:35Z</time><name>PT14830</name></trkpt>
<trkpt lat="53.249633" lon="-1.835541"><ele>230</ele><time>2019-08-30T14:40:36Z</time><name>PT14831</name></trkpt>
<trkpt lat="53.249637" lon="-1.835559"><ele>230</ele><time>2019-08-30T14:40:37Z</time><name>PT14832</name></trkpt>
<trkpt lat="53.249631" lon="-1.835580"><ele>230</ele><time>2019-08-30T14:40:38Z</time><name>PT14833</name></trkpt>
<trkpt lat="53.249625" lon="-1.835602"><ele>230</ele><time>2019-08-30T14:40:39Z</time><name>PT14834</name></trkpt>
<trkpt lat="53.249620" lon="-1.835617"><ele>231</ele><time>2019-08-30T14:40:40Z</time><name>PT14835</name></trkpt>
<trkpt lat="53.249606" lon="-1.835634"><ele>229</ele><time>2019-08-30T14:40:41Z</time><name>PT14836</name></trkpt>
<trkpt lat="53.249594" lon="-1.835649"><ele>229</ele><time>2019-08-30T14:40:42Z</time><name>PT14837</name></trkpt>
<trkpt lat="53.249594" lon="-1.835671"><ele>228</ele><time>2019-08-30T14:40:43Z</time><name>PT14838</name></trkpt>
<trkpt lat="53.249587" lon="-1.835692"><ele>228</ele><time>2019-08-30T14:40:44Z</time><name>PT14839</name></trkpt>
<trkpt lat="53.249586" lon="-1.835713"><ele>228</ele><time>2019-08-30T14:40:45Z</time><name>PT14840</name></trkpt>
<trkpt lat="53.249601" lon="-1.835740"><ele>229</ele><time>2019-08-30T14:40:46Z</time><name>PT14841</name></trkpt>
<trkpt lat="53.249599" lon="-1.835755"><ele>229</ele><time>2019-08-30T14:40:47Z</time><name>PT14842</name></trkpt>
<trkpt lat="53.249598" lon="-1.835774"><ele>229</ele><time>2019-08-30T14:40:48Z</time><name>PT14843</name></trkpt>
<trkpt lat="53.249594" lon="-1.835801"><ele>230</ele><time>2019-08-30T14:40:49Z</time><name>PT14844</name></trkpt>
<trkpt lat="53.249588" lon="-1.835814"><ele>230</ele><time>2019-08-30T14:40:50Z</time><name>PT14845</name></trkpt>
<trkpt lat="53.249583" lon="-1.835836"><ele>232</ele><time>2019-08-30T14:40:51Z</time><name>PT14846</name></trkpt>
<trkpt lat="53.249578" lon="-1.835861"><ele>234</ele><time>2019-08-30T14:40:52Z</time><name>PT14847</name></trkpt>
<trkpt lat="53.249573" lon="-1.835878"><ele>233</ele><time>2019-08-30T14:40:53Z</time><name>PT14848</name></trkpt>
<trkpt lat="53.249560" lon="-1.835897"><ele>233</ele><time>2019-08-30T14:40:54Z</time><name>PT14849</name></trkpt>
<trkpt lat="53.249552" lon="-1.835925"><ele>233</ele><time>2019-08-30T14:40:55Z</time><name>PT14850</name></trkpt>
<trkpt lat="53.249548" lon="-1.835941"><ele>233</ele><time>2019-08-30T14:40:56Z</time><name>PT14851</name></trkpt>
<trkpt lat="53.249546" lon="-1.835956"><ele>234</ele><time>2019-08-30T14:40:57Z</time><name>PT14852</name></trkpt>
<trkpt lat="53.249540" lon="-1.835960"><ele>234</ele><time>2019-08-30T14:40:58Z</time><name>PT14853</name></trkpt>
<trkpt lat="53.249536" lon="-1.835977"><ele>234</ele><time>2019-08-30T14:40:59Z</time><name>PT14854</name></trkpt>
<trkpt lat="53.249533" lon="-1.835996"><ele>235</ele><time>2019-08-30T14:41:00Z</time><name>PT14855</name></trkpt>
<trkpt lat="53.249529" lon="-1.836018"><ele>237</ele><time>2019-08-30T14:41:01Z</time><name>PT14856</name></trkpt>
<trkpt lat="53.249520" lon="-1.836030"><ele>236</ele><time>2019-08-30T14:41:02Z</time><name>PT14857</name></trkpt>
<trkpt lat="53.249517" lon="-1.836048"><ele>236</ele><time>2019-08-30T14:41:03Z</time><name>PT14858</name></trkpt>
<trkpt lat="53.249517" lon="-1.836064"><ele>236</ele><time>2019-08-30T14:41:04Z</time><name>PT14859</name></trkpt>
<trkpt lat="53.249509" lon="-1.836090"><ele>236</ele><time>2019-08-30T14:41:05Z</time><name>PT14860</name></trkpt>
<trkpt lat="53.249504" lon="-1.836106"><ele>236</ele><time>2019-08-30T14:41:06Z</time><name>PT14861</name></trkpt>
<trkpt lat="53.249495" lon="-1.836119"><ele>236</ele><time>2019-08-30T14:41:07Z</time><name>PT14862</name></trkpt>
<trkpt lat="53.249489" lon="-1.836136"><ele>236</ele><time>2019-08-30T14:41:08Z</time><name>PT14863</name></trkpt>
<trkpt lat="53.249482" lon="-1.836159"><ele>236</ele><time>2019-08-30T14:41:09Z</time><name>PT14864</name></trkpt>
<trkpt lat="53.249475" lon="-1.836188"><ele>235</ele><time>2019-08-30T14:41:10Z</time><name>PT14865</name></trkpt>
<trkpt lat="53.249475" lon="-1.836210"><ele>236</ele><time>2019-08-30T14:41:11Z</time><name>PT14866</name></trkpt>
<trkpt lat="53.249474" lon="-1.836231"><ele>236</ele><time>2019-08-30T14:41:12Z</time><name>PT14867</name></trkpt>
<trkpt lat="53.249460" lon="-1.836246"><ele>235</ele><time>2019-08-30T14:41:13Z</time><name>PT14868</name></trkpt>
<trkpt lat="53.249460" lon="-1.836266"><ele>235</ele><time>2019-08-30T14:41:14Z</time><name>PT14869</name></trkpt>
<trkpt lat="53.249454" lon="-1.836281"><ele>236</ele><time>2019-08-30T14:41:15Z</time><name>PT14870</name></trkpt>
<trkpt lat="53.249449" lon="-1.836298"><ele>235</ele><time>2019-08-30T14:41:16Z</time><name>PT14871</name></trkpt>
<trkpt lat="53.249441" lon="-1.836305"><ele>235</ele><time>2019-08-30T14:41:17Z</time><name>PT14872</name></trkpt>
<trkpt lat="53.249442" lon="-1.836322"><ele>235</ele><time>2019-08-30T14:41:18Z</time><name>PT14873</name></trkpt>
<trkpt lat="53.249439" lon="-1.836335"><ele>235</ele><time>2019-08-30T14:41:19Z</time><name>PT14874</name></trkpt>
<trkpt lat="53.249432" lon="-1.836352"><ele>235</ele><time>2019-08-30T14:41:20Z</time><name>PT14875</name></trkpt>
<trkpt lat="53.249428" lon="-1.836373"><ele>235</ele><time>2019-08-30T14:41:21Z</time><name>PT14876</name></trkpt>
<trkpt lat="53.249422" lon="-1.836393"><ele>235</ele><time>2019-08-30T14:41:22Z</time><name>PT14877</name></trkpt>
<trkpt lat="53.249416" lon="-1.836407"><ele>235</ele><time>2019-08-30T14:41:23Z</time><name>PT14878</name></trkpt>
<trkpt lat="53.249408" lon="-1.836425"><ele>235</ele><time>2019-08-30T14:41:24Z</time><name>PT14879</name></trkpt>
<trkpt lat="53.249401" lon="-1.836443"><ele>235</ele><time>2019-08-30T14:41:25Z</time><name>PT14880</name></trkpt>
<trkpt lat="53.249397" lon="-1.836463"><ele>235</ele><time>2019-08-30T14:41:26Z</time><name>PT14881</name></trkpt>
<trkpt lat="53.249396" lon="-1.836484"><ele>235</ele><time>2019-08-30T14:41:27Z</time><name>PT14882</name></trkpt>
<trkpt lat="53.249395" lon="-1.836504"><ele>236</ele><time>2019-08-30T14:41:28Z</time><name>PT14883</name></trkpt>
<trkpt lat="53.249391" lon="-1.836523"><ele>235</ele><time>2019-08-30T14:41:29Z</time><name>PT14884</name></trkpt>
<trkpt lat="53.249394" lon="-1.836533"><ele>235</ele><time>2019-08-30T14:41:30Z</time><name>PT14885</name></trkpt>
<trkpt lat="53.249390" lon="-1.836562"><ele>235</ele><time>2019-08-30T14:41:31Z</time><name>PT14886</name></trkpt>
<trkpt lat="53.249385" lon="-1.836586"><ele>235</ele><time>2019-08-30T14:41:32Z</time><name>PT14887</name></trkpt>
<trkpt lat="53.249385" lon="-1.836606"><ele>235</ele><time>2019-08-30T14:41:33Z</time><name>PT14888</name></trkpt>
<trkpt lat="53.249382" lon="-1.836623"><ele>235</ele><time>2019-08-30T14:41:34Z</time><name>PT14889</name></trkpt>
<trkpt lat="53.249390" lon="-1.836636"><ele>235</ele><time>2019-08-30T14:41:35Z</time><name>PT14890</name></trkpt>
<trkpt lat="53.249388" lon="-1.836648"><ele>235</ele><time>2019-08-30T14:41:36Z</time><name>PT14891</name></trkpt>
<trkpt lat="53.249380" lon="-1.836666"><ele>233</ele><time>2019-08-30T14:41:37Z</time><name>PT14892</name></trkpt>
<trkpt lat="53.249371" lon="-1.836694"><ele>233</ele><time>2019-08-30T14:41:38Z</time><name>PT14893</name></trkpt>
<trkpt lat="53.249364" lon="-1.836711"><ele>233</ele><time>2019-08-30T14:41:39Z</time><name>PT14894</name></trkpt>
<trkpt lat="53.249362" lon="-1.836726"><ele>233</ele><time>2019-08-30T14:41:40Z</time><name>PT14895</name></trkpt>
<trkpt lat="53.249360" lon="-1.836740"><ele>234</ele><time>2019-08-30T14:41:41Z</time><name>PT14896</name></trkpt>
<trkpt lat="53.249352" lon="-1.836760"><ele>233</ele><time>2019-08-30T14:41:42Z</time><name>PT14897</name></trkpt>
<trkpt lat="53.249341" lon="-1.836780"><ele>233</ele><time>2019-08-30T14:41:43Z</time><name>PT14898</name></trkpt>
<trkpt lat="53.249336" lon="-1.836796"><ele>233</ele><time>2019-08-30T14:41:44Z</time><name>PT14899</name></trkpt>
<trkpt lat="53.249337" lon="-1.836803"><ele>233</ele><time>2019-08-30T14:41:45Z</time><name>PT14900</name></trkpt>
<trkpt lat="53.249339" lon="-1.836810"><ele>231</ele><time>2019-08-30T14:41:46Z</time><name>PT14901</name></trkpt>
<trkpt lat="53.249336" lon="-1.836826"><ele>232</ele><time>2019-08-30T14:41:47Z</time><name>PT14902</name></trkpt>
<trkpt lat="53.249332" lon="-1.836849"><ele>232</ele><time>2019-08-30T14:41:48Z</time><name>PT14903</name></trkpt>
<trkpt lat="53.249327" lon="-1.836878"><ele>233</ele><time>2019-08-30T14:41:49Z</time><name>PT14904</name></trkpt>
<trkpt lat="53.249321" lon="-1.836896"><ele>232</ele><time>2019-08-30T14:41:50Z</time><name>PT14905</name></trkpt>
<trkpt lat="53.249325" lon="-1.836910"><ele>233</ele><time>2019-08-30T14:41:51Z</time><name>PT14906</name></trkpt>
<trkpt lat="53.249321" lon="-1.836923"><ele>232</ele><time>2019-08-30T14:41:52Z</time><name>PT14907</name></trkpt>
<trkpt lat="53.249328" lon="-1.836940"><ele>231</ele><time>2019-08-30T14:41:53Z</time><name>PT14908</name></trkpt>
<trkpt lat="53.249322" lon="-1.836956"><ele>232</ele><time>2019-08-30T14:41:54Z</time><name>PT14909</name></trkpt>
<trkpt lat="53.249325" lon="-1.836967"><ele>233</ele><time>2019-08-30T14:41:55Z</time><name>PT14910</name></trkpt>
<trkpt lat="53.249321" lon="-1.836974"><ele>233</ele><time>2019-08-30T14:41:56Z</time><name>PT14911</name></trkpt>
<trkpt lat="53.249317" lon="-1.837000"><ele>233</ele><time>2019-08-30T14:41:57Z</time><name>PT14912</name></trkpt>
<trkpt lat="53.249313" lon="-1.837023"><ele>233</ele><time>2019-08-30T14:41:58Z</time><name>PT14913</name></trkpt>
<trkpt lat="53.249305" lon="-1.837036"><ele>234</ele><time>2019-08-30T14:41:59Z</time><name>PT14914</name></trkpt>
<trkpt lat="53.249303" lon="-1.837052"><ele>234</ele><time>2019-08-30T14:42:00Z</time><name>PT14915</name></trkpt>
<trkpt lat="53.249306" lon="-1.837070"><ele>235</ele><time>2019-08-30T14:42:01Z</time><name>PT14916</name></trkpt>
<trkpt lat="53.249313" lon="-1.837089"><ele>234</ele><time>2019-08-30T14:42:02Z</time><name>PT14917</name></trkpt>
<trkpt lat="53.249325" lon="-1.837109"><ele>235</ele><time>2019-08-30T14:42:03Z</time><name>PT14918</name></trkpt>
<trkpt lat="53.249323" lon="-1.837122"><ele>235</ele><time>2019-08-30T14:42:04Z</time><name>PT14919</name></trkpt>
<trkpt lat="53.249315" lon="-1.837135"><ele>234</ele><time>2019-08-30T14:42:05Z</time><name>PT14920</name></trkpt>
<trkpt lat="53.249311" lon="-1.837169"><ele>235</ele><time>2019-08-30T14:42:06Z</time><name>PT14921</name></trkpt>
<trkpt lat="53.249306" lon="-1.837188"><ele>234</ele><time>2019-08-30T14:42:07Z</time><name>PT14922</name></trkpt>
<trkpt lat="53.249307" lon="-1.837206"><ele>234</ele><time>2019-08-30T14:42:08Z</time><name>PT14923</name></trkpt>
<trkpt lat="53.249308" lon="-1.837228"><ele>235</ele><time>2019-08-30T14:42:09Z</time><name>PT14924</name></trkpt>
<trkpt lat="53.249314" lon="-1.837254"><ele>236</ele><time>2019-08-30T14:42:10Z</time><name>PT14925</name></trkpt>
<trkpt lat="53.249321" lon="-1.837280"><ele>238</ele><time>2019-08-30T14:42:11Z</time><name>PT14926</name></trkpt>
<trkpt lat="53.249322" lon="-1.837306"><ele>239</ele><time>2019-08-30T14:42:12Z</time><name>PT14927</name></trkpt>
<trkpt lat="53.249322" lon="-1.837321"><ele>239</ele><time>2019-08-30T14:42:13Z</time><name>PT14928</name></trkpt>
<trkpt lat="53.249324" lon="-1.837336"><ele>239</ele><time>2019-08-30T14:42:14Z</time><name>PT14929</name></trkpt>
<trkpt lat="53.249326" lon="-1.837365"><ele>240</ele><time>2019-08-30T14:42:15Z</time><name>PT14930</name></trkpt>
<trkpt lat="53.249322" lon="-1.837392"><ele>240</ele><time>2019-08-30T14:42:16Z</time><name>PT14931</name></trkpt>
<trkpt lat="53.249326" lon="-1.837429"><ele>242</ele><time>2019-08-30T14:42:17Z</time><name>PT14932</name></trkpt>
<trkpt lat="53.249322" lon="-1.837459"><ele>241</ele><time>2019-08-30T14:42:18Z</time><name>PT14933</name></trkpt>
<trkpt lat="53.249319" lon="-1.837476"><ele>240</ele><time>2019-08-30T14:42:19Z</time><name>PT14934</name></trkpt>
<trkpt lat="53.249322" lon="-1.837496"><ele>241</ele><time>2019-08-30T14:42:20Z</time><name>PT14935</name></trkpt>
<trkpt lat="53.249326" lon="-1.837513"><ele>243</ele><time>2019-08-30T14:42:21Z</time><name>PT14936</name></trkpt>
<trkpt lat="53.249334" lon="-1.837532"><ele>245</ele><time>2019-08-30T14:42:22Z</time><name>PT14937</name></trkpt>
<trkpt lat="53.249336" lon="-1.837538"><ele>246</ele><time>2019-08-30T14:42:23Z</time><name>PT14938</name></trkpt>
<trkpt lat="53.249343" lon="-1.837541"><ele>245</ele><time>2019-08-30T14:42:24Z</time><name>PT14939</name></trkpt>
<trkpt lat="53.249343" lon="-1.837556"><ele>246</ele><time>2019-08-30T14:42:25Z</time><name>PT14940</name></trkpt>
<trkpt lat="53.249342" lon="-1.837577"><ele>245</ele><time>2019-08-30T14:42:26Z</time><name>PT14941</name></trkpt>
<trkpt lat="53.249342" lon="-1.837599"><ele>245</ele><time>2019-08-30T14:42:27Z</time><name>PT14942</name></trkpt>
<trkpt lat="53.249338" lon="-1.837616"><ele>245</ele><time>2019-08-30T14:42:28Z</time><name>PT14943</name></trkpt>
<trkpt lat="53.249336" lon="-1.837631"><ele>244</ele><time>2019-08-30T14:42:29Z</time><name>PT14944</name></trkpt>
<trkpt lat="53.249330" lon="-1.837652"><ele>243</ele><time>2019-08-30T14:42:30Z</time><name>PT14945</name></trkpt>
<trkpt lat="53.249323" lon="-1.837666"><ele>244</ele><time>2019-08-30T14:42:31Z</time><name>PT14946</name></trkpt>
<trkpt lat="53.249322" lon="-1.837674"><ele>245</ele><time>2019-08-30T14:42:32Z</time><name>PT14947</name></trkpt>
<trkpt lat="53.249318" lon="-1.837678"><ele>246</ele><time>2019-08-30T14:42:33Z</time><name>PT14948</name></trkpt>
<trkpt lat="53.249318" lon="-1.837697"><ele>248</ele><time>2019-08-30T14:42:34Z</time><name>PT14949</name></trkpt>
<trkpt lat="53.249321" lon="-1.837715"><ele>249</ele><time>2019-08-30T14:42:35Z</time><name>PT14950</name></trkpt>
<trkpt lat="53.249319" lon="-1.837738"><ele>250</ele><time>2019-08-30T14:42:36Z</time><name>PT14951</name></trkpt>
<trkpt lat="53.249315" lon="-1.837759"><ele>250</ele><time>2019-08-30T14:42:37Z</time><name>PT14952</name></trkpt>
<trkpt lat="53.249315" lon="-1.837776"><ele>250</ele><time>2019-08-30T14:42:38Z</time><name>PT14953</name></trkpt>
<trkpt lat="53.249320" lon="-1.837794"><ele>250</ele><time>2019-08-30T14:42:39Z</time><name>PT14954</name></trkpt>
<trkpt lat="53.249318" lon="-1.837817"><ele>251</ele><time>2019-08-30T14:42:40Z</time><name>PT14955</name></trkpt>
<trkpt lat="53.249310" lon="-1.837845"><ele>251</ele><time>2019-08-30T14:42:41Z</time><name>PT14956</name></trkpt>
<trkpt lat="53.249306" lon="-1.837862"><ele>251</ele><time>2019-08-30T14:42:42Z</time><name>PT14957</name></trkpt>
<trkpt lat="53.249308" lon="-1.837878"><ele>252</ele><time>2019-08-30T14:42:43Z</time><name>PT14958</name></trkpt>
<trkpt lat="53.249311" lon="-1.837914"><ele>251</ele><time>2019-08-30T14:42:44Z</time><name>PT14959</name></trkpt>
<trkpt lat="53.249306" lon="-1.837944"><ele>252</ele><time>2019-08-30T14:42:45Z</time><name>PT14960</name></trkpt>
<trkpt lat="53.249299" lon="-1.837970"><ele>252</ele><time>2019-08-30T14:42:46Z</time><name>PT14961</name></trkpt>
<trkpt lat="53.249293" lon="-1.837990"><ele>251</ele><time>2019-08-30T14:42:47Z</time><name>PT14962</name></trkpt>
<trkpt lat="53.249280" lon="-1.838017"><ele>250</ele><time>2019-08-30T14:42:48Z</time><name>PT14963</name></trkpt>
<trkpt lat="53.249281" lon="-1.838035"><ele>249</ele><time>2019-08-30T14:42:49Z</time><name>PT14964</name></trkpt>
<trkpt lat="53.249276" lon="-1.838056"><ele>248</ele><time>2019-08-30T14:42:50Z</time><name>PT14965</name></trkpt>
<trkpt lat="53.249277" lon="-1.838080"><ele>247</ele><time>2019-08-30T14:42:51Z</time><name>PT14966</name></trkpt>
<trkpt lat="53.249273" lon="-1.838100"><ele>246</ele><time>2019-08-30T14:42:52Z</time><name>PT14967</name></trkpt>
<trkpt lat="53.249276" lon="-1.838119"><ele>246</ele><time>2019-08-30T14:42:53Z</time><name>PT14968</name></trkpt>
<trkpt lat="53.249267" lon="-1.838131"><ele>243</ele><time>2019-08-30T14:42:54Z</time><name>PT14969</name></trkpt>
<trkpt lat="53.249269" lon="-1.838157"><ele>244</ele><time>2019-08-30T14:42:55Z</time><name>PT14970</name></trkpt>
<trkpt lat="53.249275" lon="-1.838182"><ele>245</ele><time>2019-08-30T14:42:56Z</time><name>PT14971</name></trkpt>
<trkpt lat="53.249279" lon="-1.838201"><ele>247</ele><time>2019-08-30T14:42:57Z</time><name>PT14972</name></trkpt>
<trkpt lat="53.249290" lon="-1.838216"><ele>248</ele><time>2019-08-30T14:42:58Z</time><name>PT14973</name></trkpt>
<trkpt lat="53.249286" lon="-1.838236"><ele>246</ele><time>2019-08-30T14:42:59Z</time><name>PT14974</name></trkpt>
<trkpt lat="53.249285" lon="-1.838242"><ele>244</ele><time>2019-08-30T14:43:00Z</time><name>PT14975</name></trkpt>
<trkpt lat="53.249277" lon="-1.838259"><ele>241</ele><time>2019-08-30T14:43:01Z</time><name>PT14976</name></trkpt>
<trkpt lat="53.249283" lon="-1.838280"><ele>243</ele><time>2019-08-30T14:43:02Z</time><name>PT14977</name></trkpt>
<trkpt lat="53.249285" lon="-1.838303"><ele>243</ele><time>2019-08-30T14:43:03Z</time><name>PT14978</name></trkpt>
<trkpt lat="53.249284" lon="-1.838324"><ele>240</ele><time>2019-08-30T14:43:04Z</time><name>PT14979</name></trkpt>
<trkpt lat="53.249288" lon="-1.838336"><ele>239</ele><time>2019-08-30T14:43:05Z</time><name>PT14980</name></trkpt>
<trkpt lat="53.249286" lon="-1.838356"><ele>239</ele><time>2019-08-30T14:43:06Z</time><name>PT14981</name></trkpt>
<trkpt lat="53.249286" lon="-1.838383"><ele>239</ele><time>2019-08-30T14:43:07Z</time><name>PT14982</name></trkpt>
<trkpt lat="53.249281" lon="-1.838409"><ele>239</ele><time>2019-08-30T14:43:08Z</time><name>PT14983</name></trkpt>
<trkpt lat="53.249276" lon="-1.838425"><ele>235</ele><time>2019-08-30T14:43:09Z</time><name>PT14984</name></trkpt>
<trkpt lat="53.249278" lon="-1.838448"><ele>234</ele><time>2019-08-30T14:43:10Z</time><name>PT14985</name></trkpt>
<trkpt lat="53.249285" lon="-1.838470"><ele>237</ele><time>2019-08-30T14:43:11Z</time><name>PT14986</name></trkpt>
<trkpt lat="53.249301" lon="-1.838490"><ele>238</ele><time>2019-08-30T14:43:12Z</time><name>PT14987</name></trkpt>
<trkpt lat="53.249304" lon="-1.838503"><ele>237</ele><time>2019-08-30T14:43:13Z</time><name>PT14988</name></trkpt>
<trkpt lat="53.249306" lon="-1.838521"><ele>238</ele><time>2019-08-30T14:43:14Z</time><name>PT14989</name></trkpt>
<trkpt lat="53.249306" lon="-1.838541"><ele>238</ele><time>2019-08-30T14:43:15Z</time><name>PT14990</name></trkpt>
<trkpt lat="53.249318" lon="-1.838567"><ele>239</ele><time>2019-08-30T14:43:16Z</time><name>PT14991</name></trkpt>
<trkpt lat="53.249319" lon="-1.838586"><ele>239</ele><time>2019-08-30T14:43:17Z</time><name>PT14992</name></trkpt>
<trkpt lat="53.249322" lon="-1.838592"><ele>239</ele><time>2019-08-30T14:43:18Z</time><name>PT14993</name></trkpt>
<trkpt lat="53.249322" lon="-1.838606"><ele>239</ele><time>2019-08-30T14:43:19Z</time><name>PT14994</name></trkpt>
<trkpt lat="53.249347" lon="-1.838621"><ele>242</ele><time>2019-08-30T14:43:20Z</time><name>PT14995</name></trkpt>
<trkpt lat="53.249348" lon="-1.838660"><ele>237</ele><time>2019-08-30T14:43:21Z</time><name>PT14996</name></trkpt>
<trkpt lat="53.249363" lon="-1.838682"><ele>239</ele><time>2019-08-30T14:43:22Z</time><name>PT14997</name></trkpt>
<trkpt lat="53.249366" lon="-1.838697"><ele>239</ele><time>2019-08-30T14:43:23Z</time><name>PT14998</name></trkpt>
<trkpt lat="53.249336" lon="-1.838704"><ele>237</ele><time>2019-08-30T14:43:24Z</time><name>PT14999</name></trkpt>
<trkpt lat="53.249336" lon="-1.838719"><ele>236</ele><time>2019-08-30T14:43:25Z</time><name>PT15000</name></trkpt>
<trkpt lat="53.249334" lon="-1.838741"><ele>233</ele><time>2019-08-30T14:43:26Z</time><name>PT15001</name></trkpt>
<trkpt lat="53.249340" lon="-1.838773"><ele>232</ele><time>2019-08-30T14:43:27Z</time><name>PT15002</name></trkpt>
<trkpt lat="53.249342" lon="-1.838795"><ele>231</ele><time>2019-08-30T14:43:28Z</time><name>PT15003</name></trkpt>
<trkpt lat="53.249343" lon="-1.838808"><ele>231</ele><time>2019-08-30T14:43:29Z</time><name>PT15004</name></trkpt>
<trkpt lat="53.249347" lon="-1.838822"><ele>231</ele><time>2019-08-30T14:43:30Z</time><name>PT15005</name></trkpt>
<trkpt lat="53.249345" lon="-1.838844"><ele>230</ele><time>2019-08-30T14:43:31Z</time><name>PT15006</name></trkpt>
<trkpt lat="53.249348" lon="-1.838868"><ele>229</ele><time>2019-08-30T14:43:32Z</time><name>PT15007</name></trkpt>
<trkpt lat="53.249345" lon="-1.838903"><ele>227</ele><time>2019-08-30T14:43:33Z</time><name>PT15008</name></trkpt>
<trkpt lat="53.249349" lon="-1.838923"><ele>227</ele><time>2019-08-30T14:43:34Z</time><name>PT15009</name></trkpt>
<trkpt lat="53.249358" lon="-1.838935"><ele>227</ele><time>2019-08-30T14:43:35Z</time><name>PT15010</name></trkpt>
<trkpt lat="53.249358" lon="-1.838948"><ele>227</ele><time>2019-08-30T14:43:36Z</time><name>PT15011</name></trkpt>
<trkpt lat="53.249362" lon="-1.838960"><ele>226</ele><time>2019-08-30T14:43:37Z</time><name>PT15012</name></trkpt>
<trkpt lat="53.249368" lon="-1.838976"><ele>226</ele><time>2019-08-30T14:43:38Z</time><name>PT15013</name></trkpt>
<trkpt lat="53.249371" lon="-1.839016"><ele>228</ele><time>2019-08-30T14:43:39Z</time><name>PT15014</name></trkpt>
<trkpt lat="53.249365" lon="-1.839043"><ele>226</ele><time>2019-08-30T14:43:40Z</time><name>PT15015</name></trkpt>
<trkpt lat="53.249370" lon="-1.839058"><ele>227</ele><time>2019-08-30T14:43:41Z</time><name>PT15016</name></trkpt>
<trkpt lat="53.249373" lon="-1.839079"><ele>227</ele><time>2019-08-30T14:43:42Z</time><name>PT15017</name></trkpt>
<trkpt lat="53.249376" lon="-1.839103"><ele>227</ele><time>2019-08-30T14:43:43Z</time><name>PT15018</name></trkpt>
<trkpt lat="53.249380" lon="-1.839122"><ele>228</ele><time>2019-08-30T14:43:44Z</time><name>PT15019</name></trkpt>
<trkpt lat="53.249391" lon="-1.839135"><ele>230</ele><time>2019-08-30T14:43:45Z</time><name>PT15020</name></trkpt>
<trkpt lat="53.249387" lon="-1.839156"><ele>230</ele><time>2019-08-30T14:43:46Z</time><name>PT15021</name></trkpt>
<trkpt lat="53.249382" lon="-1.839173"><ele>230</ele><time>2019-08-30T14:43:47Z</time><name>PT15022</name></trkpt>
<trkpt lat="53.249377" lon="-1.839198"><ele>230</ele><time>2019-08-30T14:43:48Z</time><name>PT15023</name></trkpt>
<trkpt lat="53.249381" lon="-1.839220"><ele>232</ele><time>2019-08-30T14:43:49Z</time><name>PT15024</name></trkpt>
<trkpt lat="53.249388" lon="-1.839244"><ele>233</ele><time>2019-08-30T14:43:50Z</time><name>PT15025</name></trkpt>
<trkpt lat="53.249375" lon="-1.839257"><ele>229</ele><time>2019-08-30T14:43:51Z</time><name>PT15026</name></trkpt>
<trkpt lat="53.249376" lon="-1.839278"><ele>229</ele><time>2019-08-30T14:43:52Z</time><name>PT15027</name></trkpt>
<trkpt lat="53.249385" lon="-1.839299"><ele>231</ele><time>2019-08-30T14:43:53Z</time><name>PT15028</name></trkpt>
<trkpt lat="53.249389" lon="-1.839321"><ele>232</ele><time>2019-08-30T14:43:54Z</time><name>PT15029</name></trkpt>
<trkpt lat="53.249393" lon="-1.839329"><ele>232</ele><time>2019-08-30T14:43:55Z</time><name>PT15030</name></trkpt>
<trkpt lat="53.249391" lon="-1.839335"><ele>232</ele><time>2019-08-30T14:43:56Z</time><name>PT15031</name></trkpt>
<trkpt lat="53.249400" lon="-1.839350"><ele>231</ele><time>2019-08-30T14:43:57Z</time><name>PT15032</name></trkpt>
<trkpt lat="53.249410" lon="-1.839369"><ele>232</ele><time>2019-08-30T14:43:58Z</time><name>PT15033</name></trkpt>
<trkpt lat="53.249413" lon="-1.839389"><ele>232</ele><time>2019-08-30T14:43:59Z</time><name>PT15034</name></trkpt>
<trkpt lat="53.249430" lon="-1.839404"><ele>235</ele><time>2019-08-30T14:44:00Z</time><name>PT15035</name></trkpt>
<trkpt lat="53.249440" lon="-1.839422"><ele>237</ele><time>2019-08-30T14:44:01Z</time><name>PT15036</name></trkpt>
<trkpt lat="53.249445" lon="-1.839436"><ele>236</ele><time>2019-08-30T14:44:02Z</time><name>PT15037</name></trkpt>
<trkpt lat="53.249461" lon="-1.839457"><ele>238</ele><time>2019-08-30T14:44:03Z</time><name>PT15038</name></trkpt>
<trkpt lat="53.249473" lon="-1.839482"><ele>240</ele><time>2019-08-30T14:44:04Z</time><name>PT15039</name></trkpt>
<trkpt lat="53.249464" lon="-1.839513"><ele>240</ele><time>2019-08-30T14:44:05Z</time><name>PT15040</name></trkpt>
<trkpt lat="53.249465" lon="-1.839534"><ele>240</ele><time>2019-08-30T14:44:06Z</time><name>PT15041</name></trkpt>
<trkpt lat="53.249470" lon="-1.839554"><ele>239</ele><time>2019-08-30T14:44:07Z</time><name>PT15042</name></trkpt>
<trkpt lat="53.249472" lon="-1.839582"><ele>238</ele><time>2019-08-30T14:44:08Z</time><name>PT15043</name></trkpt>
<trkpt lat="53.249476" lon="-1.839613"><ele>237</ele><time>2019-08-30T14:44:09Z</time><name>PT15044</name></trkpt>
<trkpt lat="53.249492" lon="-1.839631"><ele>241</ele><time>2019-08-30T14:44:10Z</time><name>PT15045</name></trkpt>
<trkpt lat="53.249488" lon="-1.839641"><ele>238</ele><time>2019-08-30T14:44:11Z</time><name>PT15046</name></trkpt>
<trkpt lat="53.249472" lon="-1.839680"><ele>231</ele><time>2019-08-30T14:44:12Z</time><name>PT15047</name></trkpt>
<trkpt lat="53.249467" lon="-1.839712"><ele>230</ele><time>2019-08-30T14:44:13Z</time><name>PT15048</name></trkpt>
<trkpt lat="53.249458" lon="-1.839724"><ele>231</ele><time>2019-08-30T14:44:14Z</time><name>PT15049</name></trkpt>
<trkpt lat="53.249449" lon="-1.839740"><ele>230</ele><time>2019-08-30T14:44:15Z</time><name>PT15050</name></trkpt>
<trkpt lat="53.249445" lon="-1.839769"><ele>230</ele><time>2019-08-30T14:44:16Z</time><name>PT15051</name></trkpt>
<trkpt lat="53.249447" lon="-1.839791"><ele>229</ele><time>2019-08-30T14:44:17Z</time><name>PT15052</name></trkpt>
<trkpt lat="53.249455" lon="-1.839807"><ele>229</ele><time>2019-08-30T14:44:18Z</time><name>PT15053</name></trkpt>
<trkpt lat="53.249464" lon="-1.839820"><ele>227</ele><time>2019-08-30T14:44:19Z</time><name>PT15054</name></trkpt>
<trkpt lat="53.249474" lon="-1.839837"><ele>228</ele><time>2019-08-30T14:44:20Z</time><name>PT15055</name></trkpt>
<trkpt lat="53.249480" lon="-1.839852"><ele>229</ele><time>2019-08-30T14:44:21Z</time><name>PT15056</name></trkpt>
<trkpt lat="53.249486" lon="-1.839858"><ele>229</ele><time>2019-08-30T14:44:22Z</time><name>PT15057</name></trkpt>
<trkpt lat="53.249493" lon="-1.839860"><ele>230</ele><time>2019-08-30T14:44:23Z</time><name>PT15058</name></trkpt>
<trkpt lat="53.249500" lon="-1.839880"><ele>230</ele><time>2019-08-30T14:44:24Z</time><name>PT15059</name></trkpt>
<trkpt lat="53.249501" lon="-1.839895"><ele>229</ele><time>2019-08-30T14:44:25Z</time><name>PT15060</name></trkpt>
<trkpt lat="53.249503" lon="-1.839904"><ele>230</ele><time>2019-08-30T14:44:26Z</time><name>PT15061</name></trkpt>
<trkpt lat="53.249504" lon="-1.839914"><ele>231</ele><time>2019-08-30T14:44:27Z</time><name>PT15062</name></trkpt>
<trkpt lat="53.249509" lon="-1.839921"><ele>231</ele><time>2019-08-30T14:44:28Z</time><name>PT15063</name></trkpt>
<trkpt lat="53.249515" lon="-1.839928"><ele>232</ele><time>2019-08-30T14:44:29Z</time><name>PT15064</name></trkpt>
<trkpt lat="53.249527" lon="-1.839944"><ele>233</ele><time>2019-08-30T14:44:30Z</time><name>PT15065</name></trkpt>
<trkpt lat="53.249533" lon="-1.839968"><ele>234</ele><time>2019-08-30T14:44:31Z</time><name>PT15066</name></trkpt>
<trkpt lat="53.249526" lon="-1.839993"><ele>233</ele><time>2019-08-30T14:44:32Z</time><name>PT15067</name></trkpt>
<trkpt lat="53.249527" lon="-1.840011"><ele>234</ele><time>2019-08-30T14:44:33Z</time><name>PT15068</name></trkpt>
<trkpt lat="53.249527" lon="-1.840029"><ele>235</ele><time>2019-08-30T14:44:34Z</time><name>PT15069</name></trkpt>
<trkpt lat="53.249528" lon="-1.840056"><ele>235</ele><time>2019-08-30T14:44:35Z</time><name>PT15070</name></trkpt>
<trkpt lat="53.249531" lon="-1.840084"><ele>236</ele><time>2019-08-30T14:44:36Z</time><name>PT15071</name></trkpt>
<trkpt lat="53.249531" lon="-1.840106"><ele>236</ele><time>2019-08-30T14:44:37Z</time><name>PT15072</name></trkpt>
<trkpt lat="53.249527" lon="-1.840129"><ele>233</ele><time>2019-08-30T14:44:38Z</time><name>PT15073</name></trkpt>
<trkpt lat="53.249533" lon="-1.840144"><ele>233</ele><time>2019-08-30T14:44:39Z</time><name>PT15074</name></trkpt>
<trkpt lat="53.249533" lon="-1.840177"><ele>235</ele><time>2019-08-30T14:44:40Z</time><name>PT15075</name></trkpt>
<trkpt lat="53.249532" lon="-1.840203"><ele>235</ele><time>2019-08-30T14:44:41Z</time><name>PT15076</name></trkpt>
<trkpt lat="53.249523" lon="-1.840226"><ele>233</ele><time>2019-08-30T14:44:42Z</time><name>PT15077</name></trkpt>
<trkpt lat="53.249525" lon="-1.840248"><ele>233</ele><time>2019-08-30T14:44:43Z</time><name>PT15078</name></trkpt>
<trkpt lat="53.249531" lon="-1.840265"><ele>234</ele><time>2019-08-30T14:44:44Z</time><name>PT15079</name></trkpt>
<trkpt lat="53.249539" lon="-1.840284"><ele>233</ele><time>2019-08-30T14:44:45Z</time><name>PT15080</name></trkpt>
<trkpt lat="53.249548" lon="-1.840315"><ele>234</ele><time>2019-08-30T14:44:46Z</time><name>PT15081</name></trkpt>
<trkpt lat="53.249533" lon="-1.840350"><ele>232</ele><time>2019-08-30T14:44:47Z</time><name>PT15082</name></trkpt>
<trkpt lat="53.249536" lon="-1.840368"><ele>231</ele><time>2019-08-30T14:44:48Z</time><name>PT15083</name></trkpt>
<trkpt lat="53.249535" lon="-1.840386"><ele>231</ele><time>2019-08-30T14:44:49Z</time><name>PT15084</name></trkpt>
<trkpt lat="53.249540" lon="-1.840404"><ele>231</ele><time>2019-08-30T14:44:50Z</time><name>PT15085</name></trkpt>
<trkpt lat="53.249545" lon="-1.840423"><ele>230</ele><time>2019-08-30T14:44:51Z</time><name>PT15086</name></trkpt>
<trkpt lat="53.249547" lon="-1.840446"><ele>230</ele><time>2019-08-30T14:44:52Z</time><name>PT15087</name></trkpt>
<trkpt lat="53.249545" lon="-1.840462"><ele>229</ele><time>2019-08-30T14:44:53Z</time><name>PT15088</name></trkpt>
<trkpt lat="53.249545" lon="-1.840481"><ele>228</ele><time>2019-08-30T14:44:54Z</time><name>PT15089</name></trkpt>
<trkpt lat="53.249551" lon="-1.840499"><ele>227</ele><time>2019-08-30T14:44:55Z</time><name>PT15090</name></trkpt>
<trkpt lat="53.249555" lon="-1.840520"><ele>227</ele><time>2019-08-30T14:44:56Z</time><name>PT15091</name></trkpt>
<trkpt lat="53.249559" lon="-1.840543"><ele>226</ele><time>2019-08-30T14:44:57Z</time><name>PT15092</name></trkpt>
<trkpt lat="53.249569" lon="-1.840557"><ele>228</ele><time>2019-08-30T14:44:58Z</time><name>PT15093</name></trkpt>
<trkpt lat="53.249557" lon="-1.840573"><ele>226</ele><time>2019-08-30T14:44:59Z</time><name>PT15094</name></trkpt>
<trkpt lat="53.249559" lon="-1.840584"><ele>225</ele><time>2019-08-30T14:45:00Z</time><name>PT15095</name></trkpt>
<trkpt lat="53.249556" lon="-1.840610"><ele>224</ele><time>2019-08-30T14:45:01Z</time><name>PT15096</name></trkpt>
<trkpt lat="53.249557" lon="-1.840631"><ele>223</ele><time>2019-08-30T14:45:02Z</time><name>PT15097</name></trkpt>
<trkpt lat="53.249567" lon="-1.840647"><ele>224</ele><time>2019-08-30T14:45:03Z</time><name>PT15098</name></trkpt>
<trkpt lat="53.249571" lon="-1.840663"><ele>223</ele><time>2019-08-30T14:45:04Z</time><name>PT15099</name></trkpt>
<trkpt lat="53.249577" lon="-1.840686"><ele>224</ele><time>2019-08-30T14:45:05Z</time><name>PT15100</name></trkpt>
<trkpt lat="53.249581" lon="-1.840707"><ele>223</ele><time>2019-08-30T14:45:06Z</time><name>PT15101</name></trkpt>
<trkpt lat="53.249592" lon="-1.840727"><ele>224</ele><time>2019-08-30T14:45:07Z</time><name>PT15102</name></trkpt>
<trkpt lat="53.249594" lon="-1.840747"><ele>224</ele><time>2019-08-30T14:45:08Z</time><name>PT15103</name></trkpt>
<trkpt lat="53.249606" lon="-1.840757"><ele>224</ele><time>2019-08-30T14:45:09Z</time><name>PT15104</name></trkpt>
<trkpt lat="53.249621" lon="-1.840753"><ele>224</ele><time>2019-08-30T14:45:10Z</time><name>PT15105</name></trkpt>
<trkpt lat="53.249615" lon="-1.840764"><ele>220</ele><time>2019-08-30T14:45:11Z</time><name>PT15106</name></trkpt>
<trkpt lat="53.249624" lon="-1.840780"><ele>219</ele><time>2019-08-30T14:45:12Z</time><name>PT15107</name></trkpt>
<trkpt lat="53.249630" lon="-1.840784"><ele>217</ele><time>2019-08-30T14:45:13Z</time><name>PT15108</name></trkpt>
<trkpt lat="53.249633" lon="-1.840797"><ele>216</ele><time>2019-08-30T14:45:14Z</time><name>PT15109</name></trkpt>
<trkpt lat="53.249640" lon="-1.840810"><ele>216</ele><time>2019-08-30T14:45:15Z</time><name>PT15110</name></trkpt>
<trkpt lat="53.249651" lon="-1.840831"><ele>217</ele><time>2019-08-30T14:45:16Z</time><name>PT15111</name></trkpt>
<trkpt lat="53.249665" lon="-1.840845"><ele>217</ele><time>2019-08-30T14:45:17Z</time><name>PT15112</name></trkpt>
<trkpt lat="53.249680" lon="-1.840857"><ele>219</ele><time>2019-08-30T14:45:18Z</time><name>PT15113</name></trkpt>
<trkpt lat="53.249700" lon="-1.840868"><ele>222</ele><time>2019-08-30T14:45:19Z</time><name>PT15114</name></trkpt>
<trkpt lat="53.249707" lon="-1.840873"><ele>222</ele><time>2019-08-30T14:45:20Z</time><name>PT15115</name></trkpt>
<trkpt lat="53.249695" lon="-1.840900"><ele>221</ele><time>2019-08-30T14:45:21Z</time><name>PT15116</name></trkpt>
<trkpt lat="53.249709" lon="-1.840904"><ele>222</ele><time>2019-08-30T14:45:22Z</time><name>PT15117</name></trkpt>
<trkpt lat="53.249723" lon="-1.840911"><ele>223</ele><time>2019-08-30T14:45:23Z</time><name>PT15118</name></trkpt>
<trkpt lat="53.249738" lon="-1.840914"><ele>227</ele><time>2019-08-30T14:45:24Z</time><name>PT15119</name></trkpt>
<trkpt lat="53.249751" lon="-1.840907"><ele>227</ele><time>2019-08-30T14:45:25Z</time><name>PT15120</name></trkpt>
<trkpt lat="53.249766" lon="-1.840909"><ele>228</ele><time>2019-08-30T14:45:26Z</time><name>PT15121</name></trkpt>
<trkpt lat="53.249776" lon="-1.840911"><ele>229</ele><time>2019-08-30T14:45:27Z</time><name>PT15122</name></trkpt>
<trkpt lat="53.249791" lon="-1.840912"><ele>229</ele><time>2019-08-30T14:45:28Z</time><name>PT15123</name></trkpt>
<trkpt lat="53.249801" lon="-1.840920"><ele>230</ele><time>2019-08-30T14:45:29Z</time><name>PT15124</name></trkpt>
<trkpt lat="53.249817" lon="-1.840916"><ele>232</ele><time>2019-08-30T14:45:30Z</time><name>PT15125</name></trkpt>
<trkpt lat="53.249824" lon="-1.840914"><ele>232</ele><time>2019-08-30T14:45:31Z</time><name>PT15126</name></trkpt>
<trkpt lat="53.249833" lon="-1.840915"><ele>234</ele><time>2019-08-30T14:45:32Z</time><name>PT15127</name></trkpt>
<trkpt lat="53.249842" lon="-1.840931"><ele>235</ele><time>2019-08-30T14:45:33Z</time><name>PT15128</name></trkpt>
<trkpt lat="53.249846" lon="-1.840941"><ele>235</ele><time>2019-08-30T14:45:34Z</time><name>PT15129</name></trkpt>
<trkpt lat="53.249854" lon="-1.840951"><ele>235</ele><time>2019-08-30T14:45:35Z</time><name>PT15130</name></trkpt>
<trkpt lat="53.249856" lon="-1.840975"><ele>237</ele><time>2019-08-30T14:45:36Z</time><name>PT15131</name></trkpt>
<trkpt lat="53.249866" lon="-1.840993"><ele>238</ele><time>2019-08-30T14:45:37Z</time><name>PT15132</name></trkpt>
<trkpt lat="53.249877" lon="-1.840992"><ele>239</ele><time>2019-08-30T14:45:38Z</time><name>PT15133</name></trkpt>
<trkpt lat="53.249883" lon="-1.840990"><ele>240</ele><time>2019-08-30T14:45:39Z</time><name>PT15134</name></trkpt>
<trkpt lat="53.249880" lon="-1.841004"><ele>241</ele><time>2019-08-30T14:45:40Z</time><name>PT15135</name></trkpt>
<trkpt lat="53.249867" lon="-1.841020"><ele>238</ele><time>2019-08-30T14:45:41Z</time><name>PT15136</name></trkpt>
<trkpt lat="53.249869" lon="-1.841030"><ele>235</ele><time>2019-08-30T14:45:42Z</time><name>PT15137</name></trkpt>
<trkpt lat="53.249877" lon="-1.841037"><ele>234</ele><time>2019-08-30T14:45:43Z</time><name>PT15138</name></trkpt>
<trkpt lat="53.249891" lon="-1.841042"><ele>233</ele><time>2019-08-30T14:45:44Z</time><name>PT15139</name></trkpt>
<trkpt lat="53.249894" lon="-1.841049"><ele>230</ele><time>2019-08-30T14:45:45Z</time><name>PT15140</name></trkpt>
<trkpt lat="53.249908" lon="-1.841052"><ele>228</ele><time>2019-08-30T14:45:46Z</time><name>PT15141</name></trkpt>
<trkpt lat="53.249928" lon="-1.841063"><ele>226</ele><time>2019-08-30T14:45:47Z</time><name>PT15142</name></trkpt>
<trkpt lat="53.249946" lon="-1.841073"><ele>225</ele><time>2019-08-30T14:45:48Z</time><name>PT15143</name></trkpt>
<trkpt lat="53.249965" lon="-1.841092"><ele>225</ele><time>2019-08-30T14:45:49Z</time><name>PT15144</name></trkpt>
<trkpt lat="53.249980" lon="-1.841103"><ele>224</ele><time>2019-08-30T14:45:50Z</time><name>PT15145</name></trkpt>
<trkpt lat="53.250007" lon="-1.841105"><ele>228</ele><time>2019-08-30T14:45:51Z</time><name>PT15146</name></trkpt>
<trkpt lat="53.250022" lon="-1.841126"><ele>227</ele><time>2019-08-30T14:45:52Z</time><name>PT15147</name></trkpt>
<trkpt lat="53.250032" lon="-1.841138"><ele>227</ele><time>2019-08-30T14:45:53Z</time><name>PT15148</name></trkpt>
<trkpt lat="53.250044" lon="-1.841163"><ele>228</ele><time>2019-08-30T14:45:54Z</time><name>PT15149</name></trkpt>
<trkpt lat="53.250059" lon="-1.841185"><ele>229</ele><time>2019-08-30T14:45:55Z</time><name>PT15150</name></trkpt>
<trkpt lat="53.250077" lon="-1.841195"><ele>230</ele><time>2019-08-30T14:45:56Z</time><name>PT15151</name></trkpt>
<trkpt lat="53.250094" lon="-1.841202"><ele>231</ele><time>2019-08-30T14:45:57Z</time><name>PT15152</name></trkpt>
<trkpt lat="53.250107" lon="-1.841213"><ele>232</ele><time>2019-08-30T14:45:58Z</time><name>PT15153</name></trkpt>
<trkpt lat="53.250117" lon="-1.841229"><ele>232</ele><time>2019-08-30T14:45:59Z</time><name>PT15154</name></trkpt>
<trkpt lat="53.250135" lon="-1.841251"><ele>234</ele><time>2019-08-30T14:46:00Z</time><name>PT15155</name></trkpt>
<trkpt lat="53.250152" lon="-1.841267"><ele>236</ele><time>2019-08-30T14:46:01Z</time><name>PT15156</name></trkpt>
<trkpt lat="53.250155" lon="-1.841285"><ele>236</ele><time>2019-08-30T14:46:02Z</time><name>PT15157</name></trkpt>
<trkpt lat="53.250163" lon="-1.841302"><ele>236</ele><time>2019-08-30T14:46:03Z</time><name>PT15158</name></trkpt>
<trkpt lat="53.250172" lon="-1.841314"><ele>236</ele><time>2019-08-30T14:46:04Z</time><name>PT15159</name></trkpt>
<trkpt lat="53.250176" lon="-1.841331"><ele>237</ele><time>2019-08-30T14:46:05Z</time><name>PT15160</name></trkpt>
<trkpt lat="53.250176" lon="-1.841352"><ele>237</ele><time>2019-08-30T14:46:06Z</time><name>PT15161</name></trkpt>
<trkpt lat="53.250176" lon="-1.841371"><ele>237</ele><time>2019-08-30T14:46:07Z</time><name>PT15162</name></trkpt>
<trkpt lat="53.250180" lon="-1.841388"><ele>237</ele><time>2019-08-30T14:46:08Z</time><name>PT15163</name></trkpt>
<trkpt lat="53.250184" lon="-1.841400"><ele>236</ele><time>2019-08-30T14:46:09Z</time><name>PT15164</name></trkpt>
<trkpt lat="53.250187" lon="-1.841407"><ele>236</ele><time>2019-08-30T14:46:10Z</time><name>PT15165</name></trkpt>
<trkpt lat="53.250185" lon="-1.841433"><ele>235</ele><time>2019-08-30T14:46:11Z</time><name>PT15166</name></trkpt>
<trkpt lat="53.250188" lon="-1.841460"><ele>235</ele><time>2019-08-30T14:46:12Z</time><name>PT15167</name></trkpt>
<trkpt lat="53.250194" lon="-1.841469"><ele>236</ele><time>2019-08-30T14:46:13Z</time><name>PT15168</name></trkpt>
<trkpt lat="53.250194" lon="-1.841489"><ele>236</ele><time>2019-08-30T14:46:14Z</time><name>PT15169</name></trkpt>
<trkpt lat="53.250203" lon="-1.841500"><ele>237</ele><time>2019-08-30T14:46:15Z</time><name>PT15170</name></trkpt>
<trkpt lat="53.250228" lon="-1.841501"><ele>239</ele><time>2019-08-30T14:46:16Z</time><name>PT15171</name></trkpt>
<trkpt lat="53.250230" lon="-1.841522"><ele>240</ele><time>2019-08-30T14:46:17Z</time><name>PT15172</name></trkpt>
<trkpt lat="53.250233" lon="-1.841539"><ele>242</ele><time>2019-08-30T14:46:18Z</time><name>PT15173</name></trkpt>
<trkpt lat="53.250238" lon="-1.841544"><ele>244</ele><time>2019-08-30T14:46:19Z</time><name>PT15174</name></trkpt>
<trkpt lat="53.250236" lon="-1.841558"><ele>244</ele><time>2019-08-30T14:46:20Z</time><name>PT15175</name></trkpt>
<trkpt lat="53.250240" lon="-1.841572"><ele>245</ele><time>2019-08-30T14:46:21Z</time><name>PT15176</name></trkpt>
<trkpt lat="53.250253" lon="-1.841583"><ele>246</ele><time>2019-08-30T14:46:22Z</time><name>PT15177</name></trkpt>
<trkpt lat="53.250256" lon="-1.841609"><ele>245</ele><time>2019-08-30T14:46:23Z</time><name>PT15178</name></trkpt>
<trkpt lat="53.250263" lon="-1.841625"><ele>245</ele><time>2019-08-30T14:46:24Z</time><name>PT15179</name></trkpt>
<trkpt lat="53.250272" lon="-1.841631"><ele>244</ele><time>2019-08-30T14:46:25Z</time><name>PT15180</name></trkpt>
<trkpt lat="53.250274" lon="-1.841642"><ele>244</ele><time>2019-08-30T14:46:26Z</time><name>PT15181</name></trkpt>
<trkpt lat="53.250277" lon="-1.841659"><ele>243</ele><time>2019-08-30T14:46:27Z</time><name>PT15182</name></trkpt>
<trkpt lat="53.250282" lon="-1.841672"><ele>243</ele><time>2019-08-30T14:46:28Z</time><name>PT15183</name></trkpt>
<trkpt lat="53.250285" lon="-1.841689"><ele>243</ele><time>2019-08-30T14:46:29Z</time><name>PT15184</name></trkpt>
<trkpt lat="53.250287" lon="-1.841701"><ele>243</ele><time>2019-08-30T14:46:30Z</time><name>PT15185</name></trkpt>
<trkpt lat="53.250290" lon="-1.841711"><ele>242</ele><time>2019-08-30T14:46:31Z</time><name>PT15186</name></trkpt>
<trkpt lat="53.250294" lon="-1.841733"><ele>241</ele><time>2019-08-30T14:46:32Z</time><name>PT15187</name></trkpt>
<trkpt lat="53.250298" lon="-1.841758"><ele>241</ele><time>2019-08-30T14:46:33Z</time><name>PT15188</name></trkpt>
<trkpt lat="53.250305" lon="-1.841777"><ele>242</ele><time>2019-08-30T14:46:34Z</time><name>PT15189</name></trkpt>
<trkpt lat="53.250310" lon="-1.841798"><ele>242</ele><time>2019-08-30T14:46:35Z</time><name>PT15190</name></trkpt>
<trkpt lat="53.250314" lon="-1.841815"><ele>242</ele><time>2019-08-30T14:46:36Z</time><name>PT15191</name></trkpt>
<trkpt lat="53.250318" lon="-1.841840"><ele>243</ele><time>2019-08-30T14:46:37Z</time><name>PT15192</name></trkpt>
<trkpt lat="53.250313" lon="-1.841849"><ele>242</ele><time>2019-08-30T14:46:38Z</time><name>PT15193</name></trkpt>
<trkpt lat="53.250310" lon="-1.841863"><ele>241</ele><time>2019-08-30T14:46:39Z</time><name>PT15194</name></trkpt>
<trkpt lat="53.250316" lon="-1.841882"><ele>241</ele><time>2019-08-30T14:46:40Z</time><name>PT15195</name></trkpt>
<trkpt lat="53.250323" lon="-1.841894"><ele>242</ele><time>2019-08-30T14:46:41Z</time><name>PT15196</name></trkpt>
<trkpt lat="53.250329" lon="-1.841912"><ele>242</ele><time>2019-08-30T14:46:42Z</time><name>PT15197</name></trkpt>
<trkpt lat="53.250336" lon="-1.841939"><ele>242</ele><time>2019-08-30T14:46:43Z</time><name>PT15198</name></trkpt>
<trkpt lat="53.250343" lon="-1.841971"><ele>241</ele><time>2019-08-30T14:46:44Z</time><name>PT15199</name></trkpt>
<trkpt lat="53.250349" lon="-1.841997"><ele>241</ele><time>2019-08-30T14:46:45Z</time><name>PT15200</name></trkpt>
<trkpt lat="53.250352" lon="-1.842017"><ele>241</ele><time>2019-08-30T14:46:46Z</time><name>PT15201</name></trkpt>
<trkpt lat="53.250359" lon="-1.842057"><ele>242</ele><time>2019-08-30T14:46:47Z</time><name>PT15202</name></trkpt>
<trkpt lat="53.250360" lon="-1.842076"><ele>241</ele><time>2019-08-30T14:46:48Z</time><name>PT15203</name></trkpt>
<trkpt lat="53.250362" lon="-1.842100"><ele>242</ele><time>2019-08-30T14:46:49Z</time><name>PT15204</name></trkpt>
<trkpt lat="53.250366" lon="-1.842121"><ele>241</ele><time>2019-08-30T14:46:50Z</time><name>PT15205</name></trkpt>
<trkpt lat="53.250376" lon="-1.842138"><ele>241</ele><time>2019-08-30T14:46:51Z</time><name>PT15206</name></trkpt>
<trkpt lat="53.250384" lon="-1.842165"><ele>242</ele><time>2019-08-30T14:46:52Z</time><name>PT15207</name></trkpt>
<trkpt lat="53.250385" lon="-1.842191"><ele>241</ele><time>2019-08-30T14:46:53Z</time><name>PT15208</name></trkpt>
<trkpt lat="53.250386" lon="-1.842213"><ele>241</ele><time>2019-08-30T14:46:54Z</time><name>PT15209</name></trkpt>
<trkpt lat="53.250395" lon="-1.842232"><ele>242</ele><time>2019-08-30T14:46:55Z</time><name>PT15210</name></trkpt>
<trkpt lat="53.250400" lon="-1.842252"><ele>241</ele><time>2019-08-30T14:46:56Z</time><name>PT15211</name></trkpt>
<trkpt lat="53.250400" lon="-1.842262"><ele>241</ele><time>2019-08-30T14:46:57Z</time><name>PT15212</name></trkpt>
<trkpt lat="53.250400" lon="-1.842279"><ele>241</ele><time>2019-08-30T14:46:58Z</time><name>PT15213</name></trkpt>
<trkpt lat="53.250403" lon="-1.842303"><ele>241</ele><time>2019-08-30T14:46:59Z</time><name>PT15214</name></trkpt>
<trkpt lat="53.250405" lon="-1.842320"><ele>241</ele><time>2019-08-30T14:47:00Z</time><name>PT15215</name></trkpt>
<trkpt lat="53.250413" lon="-1.842344"><ele>241</ele><time>2019-08-30T14:47:01Z</time><name>PT15216</name></trkpt>
<trkpt lat="53.250421" lon="-1.842358"><ele>242</ele><time>2019-08-30T14:47:02Z</time><name>PT15217</name></trkpt>
<trkpt lat="53.250433" lon="-1.842368"><ele>243</ele><time>2019-08-30T14:47:03Z</time><name>PT15218</name></trkpt>
<trkpt lat="53.250432" lon="-1.842388"><ele>242</ele><time>2019-08-30T14:47:04Z</time><name>PT15219</name></trkpt>
<trkpt lat="53.250436" lon="-1.842408"><ele>242</ele><time>2019-08-30T14:47:05Z</time><name>PT15220</name></trkpt>
<trkpt lat="53.250443" lon="-1.842431"><ele>243</ele><time>2019-08-30T14:47:06Z</time><name>PT15221</name></trkpt>
<trkpt lat="53.250450" lon="-1.842455"><ele>243</ele><time>2019-08-30T14:47:07Z</time><name>PT15222</name></trkpt>
<trkpt lat="53.250450" lon="-1.842471"><ele>243</ele><time>2019-08-30T14:47:08Z</time><name>PT15223</name></trkpt>
<trkpt lat="53.250456" lon="-1.842491"><ele>243</ele><time>2019-08-30T14:47:09Z</time><name>PT15224</name></trkpt>
<trkpt lat="53.250467" lon="-1.842513"><ele>244</ele><time>2019-08-30T14:47:10Z</time><name>PT15225</name></trkpt>
<trkpt lat="53.250468" lon="-1.842540"><ele>242</ele><time>2019-08-30T14:47:11Z</time><name>PT15226</name></trkpt>
<trkpt lat="53.250474" lon="-1.842560"><ele>242</ele><time>2019-08-30T14:47:12Z</time><name>PT15227</name></trkpt>
<trkpt lat="53.250485" lon="-1.842574"><ele>243</ele><time>2019-08-30T14:47:13Z</time><name>PT15228</name></trkpt>
<trkpt lat="53.250493" lon="-1.842577"><ele>243</ele><time>2019-08-30T14:47:14Z</time><name>PT15229</name></trkpt>
<trkpt lat="53.250496" lon="-1.842598"><ele>242</ele><time>2019-08-30T14:47:15Z</time><name>PT15230</name></trkpt>
<trkpt lat="53.250501" lon="-1.842632"><ele>243</ele><time>2019-08-30T14:47:16Z</time><name>PT15231</name></trkpt>
<trkpt lat="53.250506" lon="-1.842652"><ele>242</ele><time>2019-08-30T14:47:17Z</time><name>PT15232</name></trkpt>
<trkpt lat="53.250509" lon="-1.842665"><ele>242</ele><time>2019-08-30T14:47:18Z</time><name>PT15233</name></trkpt>
<trkpt lat="53.250513" lon="-1.842682"><ele>242</ele><time>2019-08-30T14:47:19Z</time><name>PT15234</name></trkpt>
<trkpt lat="53.250521" lon="-1.842695"><ele>242</ele><time>2019-08-30T14:47:20Z</time><name>PT15235</name></trkpt>
<trkpt lat="53.250534" lon="-1.842719"><ele>243</ele><time>2019-08-30T14:47:21Z</time><name>PT15236</name></trkpt>
<trkpt lat="53.250549" lon="-1.842742"><ele>247</ele><time>2019-08-30T14:47:22Z</time><name>PT15237</name></trkpt>
<trkpt lat="53.250552" lon="-1.842762"><ele>247</ele><time>2019-08-30T14:47:23Z</time><name>PT15238</name></trkpt>
<trkpt lat="53.250543" lon="-1.842817"><ele>249</ele><time>2019-08-30T14:47:24Z</time><name>PT15239</name></trkpt>
<trkpt lat="53.250544" lon="-1.842831"><ele>248</ele><time>2019-08-30T14:47:25Z</time><name>PT15240</name></trkpt>
<trkpt lat="53.250550" lon="-1.842847"><ele>248</ele><time>2019-08-30T14:47:26Z</time><name>PT15241</name></trkpt>
<trkpt lat="53.250557" lon="-1.842874"><ele>250</ele><time>2019-08-30T14:47:27Z</time><name>PT15242</name></trkpt>
<trkpt lat="53.250558" lon="-1.842898"><ele>250</ele><time>2019-08-30T14:47:28Z</time><name>PT15243</name></trkpt>
<trkpt lat="53.250558" lon="-1.842920"><ele>250</ele><time>2019-08-30T14:47:29Z</time><name>PT15244</name></trkpt>
<trkpt lat="53.250555" lon="-1.842943"><ele>249</ele><time>2019-08-30T14:47:30Z</time><name>PT15245</name></trkpt>
<trkpt lat="53.250550" lon="-1.842961"><ele>249</ele><time>2019-08-30T14:47:31Z</time><name>PT15246</name></trkpt>
<trkpt lat="53.250544" lon="-1.842980"><ele>249</ele><time>2019-08-30T14:47:32Z</time><name>PT15247</name></trkpt>
<trkpt lat="53.250535" lon="-1.843003"><ele>248</ele><time>2019-08-30T14:47:33Z</time><name>PT15248</name></trkpt>
<trkpt lat="53.250529" lon="-1.843022"><ele>248</ele><time>2019-08-30T14:47:34Z</time><name>PT15249</name></trkpt>
<trkpt lat="53.250505" lon="-1.843050"><ele>243</ele><time>2019-08-30T14:47:35Z</time><name>PT15250</name></trkpt>
<trkpt lat="53.250487" lon="-1.843080"><ele>240</ele><time>2019-08-30T14:47:36Z</time><name>PT15251</name></trkpt>
<trkpt lat="53.250476" lon="-1.843092"><ele>239</ele><time>2019-08-30T14:47:37Z</time><name>PT15252</name></trkpt>
<trkpt lat="53.250470" lon="-1.843121"><ele>239</ele><time>2019-08-30T14:47:38Z</time><name>PT15253</name></trkpt>
<trkpt lat="53.250468" lon="-1.843138"><ele>239</ele><time>2019-08-30T14:47:39Z</time><name>PT15254</name></trkpt>
<trkpt lat="53.250460" lon="-1.843154"><ele>238</ele><time>2019-08-30T14:47:40Z</time><name>PT15255</name></trkpt>
<trkpt lat="53.250455" lon="-1.843169"><ele>237</ele><time>2019-08-30T14:47:41Z</time><name>PT15256</name></trkpt>
<trkpt lat="53.250451" lon="-1.843194"><ele>237</ele><time>2019-08-30T14:47:42Z</time><name>PT15257</name></trkpt>
<trkpt lat="53.250446" lon="-1.843214"><ele>236</ele><time>2019-08-30T14:47:43Z</time><name>PT15258</name></trkpt>
<trkpt lat="53.250448" lon="-1.843236"><ele>236</ele><time>2019-08-30T14:47:44Z</time><name>PT15259</name></trkpt>
<trkpt lat="53.250445" lon="-1.843257"><ele>237</ele><time>2019-08-30T14:47:45Z</time><name>PT15260</name></trkpt>
<trkpt lat="53.250443" lon="-1.843280"><ele>239</ele><time>2019-08-30T14:47:46Z</time><name>PT15261</name></trkpt>
<trkpt lat="53.250439" lon="-1.843292"><ele>238</ele><time>2019-08-30T14:47:47Z</time><name>PT15262</name></trkpt>
<trkpt lat="53.250434" lon="-1.843305"><ele>237</ele><time>2019-08-30T14:47:48Z</time><name>PT15263</name></trkpt>
<trkpt lat="53.250431" lon="-1.843330"><ele>237</ele><time>2019-08-30T14:47:49Z</time><name>PT15264</name></trkpt>
<trkpt lat="53.250437" lon="-1.843352"><ele>238</ele><time>2019-08-30T14:47:50Z</time><name>PT15265</name></trkpt>
<trkpt lat="53.250442" lon="-1.843361"><ele>237</ele><time>2019-08-30T14:47:51Z</time><name>PT15266</name></trkpt>
<trkpt lat="53.250438" lon="-1.843378"><ele>236</ele><time>2019-08-30T14:47:52Z</time><name>PT15267</name></trkpt>
<trkpt lat="53.250434" lon="-1.843388"><ele>234</ele><time>2019-08-30T14:47:53Z</time><name>PT15268</name></trkpt>
<trkpt lat="53.250427" lon="-1.843393"><ele>232</ele><time>2019-08-30T14:47:54Z</time><name>PT15269</name></trkpt>
<trkpt lat="53.250423" lon="-1.843413"><ele>231</ele><time>2019-08-30T14:47:55Z</time><name>PT15270</name></trkpt>
<trkpt lat="53.250422" lon="-1.843424"><ele>231</ele><time>2019-08-30T14:47:56Z</time><name>PT15271</name></trkpt>
<trkpt lat="53.250414" lon="-1.843438"><ele>230</ele><time>2019-08-30T14:47:57Z</time><name>PT15272</name></trkpt>
<trkpt lat="53.250416" lon="-1.843447"><ele>228</ele><time>2019-08-30T14:47:58Z</time><name>PT15273</name></trkpt>
<trkpt lat="53.250417" lon="-1.843483"><ele>229</ele><time>2019-08-30T14:47:59Z</time><name>PT15274</name></trkpt>
<trkpt lat="53.250417" lon="-1.843506"><ele>229</ele><time>2019-08-30T14:48:00Z</time><name>PT15275</name></trkpt>
<trkpt lat="53.250413" lon="-1.843522"><ele>230</ele><time>2019-08-30T14:48:01Z</time><name>PT15276</name></trkpt>
<trkpt lat="53.250409" lon="-1.843537"><ele>230</ele><time>2019-08-30T14:48:02Z</time><name>PT15277</name></trkpt>
<trkpt lat="53.250411" lon="-1.843550"><ele>230</ele><time>2019-08-30T14:48:03Z</time><name>PT15278</name></trkpt>
<trkpt lat="53.250406" lon="-1.843575"><ele>230</ele><time>2019-08-30T14:48:04Z</time><name>PT15279</name></trkpt>
<trkpt lat="53.250402" lon="-1.843604"><ele>231</ele><time>2019-08-30T14:48:05Z</time><name>PT15280</name></trkpt>
<trkpt lat="53.250400" lon="-1.843621"><ele>231</ele><time>2019-08-30T14:48:06Z</time><name>PT15281</name></trkpt>
<trkpt lat="53.250399" lon="-1.843643"><ele>231</ele><time>2019-08-30T14:48:07Z</time><name>PT15282</name></trkpt>
<trkpt lat="53.250400" lon="-1.843663"><ele>231</ele><time>2019-08-30T14:48:08Z</time><name>PT15283</name></trkpt>
<trkpt lat="53.250397" lon="-1.843683"><ele>232</ele><time>2019-08-30T14:48:09Z</time><name>PT15284</name></trkpt>
<trkpt lat="53.250397" lon="-1.843705"><ele>232</ele><time>2019-08-30T14:48:10Z</time><name>PT15285</name></trkpt>
<trkpt lat="53.250396" lon="-1.843726"><ele>233</ele><time>2019-08-30T14:48:11Z</time><name>PT15286</name></trkpt>
<trkpt lat="53.250394" lon="-1.843743"><ele>234</ele><time>2019-08-30T14:48:12Z</time><name>PT15287</name></trkpt>
<trkpt lat="53.250394" lon="-1.843765"><ele>236</ele><time>2019-08-30T14:48:13Z</time><name>PT15288</name></trkpt>
<trkpt lat="53.250391" lon="-1.843790"><ele>237</ele><time>2019-08-30T14:48:14Z</time><name>PT15289</name></trkpt>
<trkpt lat="53.250387" lon="-1.843814"><ele>237</ele><time>2019-08-30T14:48:15Z</time><name>PT15290</name></trkpt>
<trkpt lat="53.250386" lon="-1.843831"><ele>238</ele><time>2019-08-30T14:48:16Z</time><name>PT15291</name></trkpt>
<trkpt lat="53.250386" lon="-1.843838"><ele>237</ele><time>2019-08-30T14:48:17Z</time><name>PT15292</name></trkpt>
<trkpt lat="53.250386" lon="-1.843856"><ele>237</ele><time>2019-08-30T14:48:18Z</time><name>PT15293</name></trkpt>
<trkpt lat="53.250383" lon="-1.843878"><ele>237</ele><time>2019-08-30T14:48:19Z</time><name>PT15294</name></trkpt>
<trkpt lat="53.250380" lon="-1.843901"><ele>239</ele><time>2019-08-30T14:48:20Z</time><name>PT15295</name></trkpt>
<trkpt lat="53.250379" lon="-1.843923"><ele>240</ele><time>2019-08-30T14:48:21Z</time><name>PT15296</name></trkpt>
<trkpt lat="53.250377" lon="-1.843941"><ele>239</ele><time>2019-08-30T14:48:22Z</time><name>PT15297</name></trkpt>
<trkpt lat="53.250387" lon="-1.843956"><ele>241</ele><time>2019-08-30T14:48:23Z</time><name>PT15298</name></trkpt>
<trkpt lat="53.250388" lon="-1.843975"><ele>242</ele><time>2019-08-30T14:48:24Z</time><name>PT15299</name></trkpt>
<trkpt lat="53.250394" lon="-1.843998"><ele>243</ele><time>2019-08-30T14:48:25Z</time><name>PT15300</name></trkpt>
<trkpt lat="53.250394" lon="-1.844014"><ele>244</ele><time>2019-08-30T14:48:26Z</time><name>PT15301</name></trkpt>
<trkpt lat="53.250392" lon="-1.844033"><ele>243</ele><time>2019-08-30T14:48:27Z</time><name>PT15302</name></trkpt>
<trkpt lat="53.250395" lon="-1.844055"><ele>245</ele><time>2019-08-30T14:48:28Z</time><name>PT15303</name></trkpt>
<trkpt lat="53.250401" lon="-1.844078"><ele>247</ele><time>2019-08-30T14:48:29Z</time><name>PT15304</name></trkpt>
<trkpt lat="53.250404" lon="-1.844093"><ele>247</ele><time>2019-08-30T14:48:30Z</time><name>PT15305</name></trkpt>
<trkpt lat="53.250396" lon="-1.844116"><ele>248</ele><time>2019-08-30T14:48:31Z</time><name>PT15306</name></trkpt>
<trkpt lat="53.250395" lon="-1.844129"><ele>249</ele><time>2019-08-30T14:48:32Z</time><name>PT15307</name></trkpt>
<trkpt lat="53.250397" lon="-1.844145"><ele>250</ele><time>2019-08-30T14:48:33Z</time><name>PT15308</name></trkpt>
<trkpt lat="53.250393" lon="-1.844168"><ele>250</ele><time>2019-08-30T14:48:34Z</time><name>PT15309</name></trkpt>
<trkpt lat="53.250390" lon="-1.844187"><ele>251</ele><time>2019-08-30T14:48:35Z</time><name>PT15310</name></trkpt>
<trkpt lat="53.250387" lon="-1.844201"><ele>253</ele><time>2019-08-30T14:48:36Z</time><name>PT15311</name></trkpt>
<trkpt lat="53.250382" lon="-1.844216"><ele>254</ele><time>2019-08-30T14:48:37Z</time><name>PT15312</name></trkpt>
<trkpt lat="53.250372" lon="-1.844240"><ele>253</ele><time>2019-08-30T14:48:38Z</time><name>PT15313</name></trkpt>
<trkpt lat="53.250364" lon="-1.844264"><ele>254</ele><time>2019-08-30T14:48:39Z</time><name>PT15314</name></trkpt>
<trkpt lat="53.250358" lon="-1.844277"><ele>254</ele><time>2019-08-30T14:48:40Z</time><name>PT15315</name></trkpt>
<trkpt lat="53.250350" lon="-1.844289"><ele>255</ele><time>2019-08-30T14:48:41Z</time><name>PT15316</name></trkpt>
<trkpt lat="53.250347" lon="-1.844297"><ele>257</ele><time>2019-08-30T14:48:42Z</time><name>PT15317</name></trkpt>
<trkpt lat="53.250331" lon="-1.844322"><ele>257</ele><time>2019-08-30T14:48:43Z</time><name>PT15318</name></trkpt>
<trkpt lat="53.250312" lon="-1.844334"><ele>258</ele><time>2019-08-30T14:48:44Z</time><name>PT15319</name></trkpt>
<trkpt lat="53.250301" lon="-1.844349"><ele>258</ele><time>2019-08-30T14:48:45Z</time><name>PT15320</name></trkpt>
<trkpt lat="53.250296" lon="-1.844361"><ele>258</ele><time>2019-08-30T14:48:46Z</time><name>PT15321</name></trkpt>
<trkpt lat="53.250288" lon="-1.844376"><ele>257</ele><time>2019-08-30T14:48:47Z</time><name>PT15322</name></trkpt>
<trkpt lat="53.250276" lon="-1.844392"><ele>258</ele><time>2019-08-30T14:48:48Z</time><name>PT15323</name></trkpt>
<trkpt lat="53.250267" lon="-1.844409"><ele>258</ele><time>2019-08-30T14:48:49Z</time><name>PT15324</name></trkpt>
<trkpt lat="53.250263" lon="-1.844416"><ele>259</ele><time>2019-08-30T14:48:50Z</time><name>PT15325</name></trkpt>
<trkpt lat="53.250266" lon="-1.844420"><ele>260</ele><time>2019-08-30T14:48:51Z</time><name>PT15326</name></trkpt>
<trkpt lat="53.250268" lon="-1.844424"><ele>261</ele><time>2019-08-30T14:48:52Z</time><name>PT15327</name></trkpt>
<trkpt lat="53.250265" lon="-1.844431"><ele>262</ele><time>2019-08-30T14:48:53Z</time><name>PT15328</name></trkpt>
<trkpt lat="53.250258" lon="-1.844437"><ele>263</ele><time>2019-08-30T14:48:54Z</time><name>PT15329</name></trkpt>
<trkpt lat="53.250241" lon="-1.844441"><ele>263</ele><time>2019-08-30T14:48:55Z</time><name>PT15330</name></trkpt>
<trkpt lat="53.250229" lon="-1.844438"><ele>264</ele><time>2019-08-30T14:48:56Z</time><name>PT15331</name></trkpt>
<trkpt lat="53.250218" lon="-1.844440"><ele>264</ele><time>2019-08-30T14:48:57Z</time><name>PT15332</name></trkpt>
<trkpt lat="53.250206" lon="-1.844447"><ele>261</ele><time>2019-08-30T14:48:58Z</time><name>PT15333</name></trkpt>
<trkpt lat="53.250188" lon="-1.844465"><ele>259</ele><time>2019-08-30T14:48:59Z</time><name>PT15334</name></trkpt>
<trkpt lat="53.250174" lon="-1.844476"><ele>257</ele><time>2019-08-30T14:49:00Z</time><name>PT15335</name></trkpt>
<trkpt lat="53.250161" lon="-1.844492"><ele>257</ele><time>2019-08-30T14:49:01Z</time><name>PT15336</name></trkpt>
<trkpt lat="53.250157" lon="-1.844509"><ele>257</ele><time>2019-08-30T14:49:02Z</time><name>PT15337</name></trkpt>
<trkpt lat="53.250149" lon="-1.844509"><ele>256</ele><time>2019-08-30T14:49:03Z</time><name>PT15338</name></trkpt>
<trkpt lat="53.250144" lon="-1.844504"><ele>255</ele><time>2019-08-30T14:49:04Z</time><name>PT15339</name></trkpt>
<trkpt lat="53.250130" lon="-1.844512"><ele>255</ele><time>2019-08-30T14:49:05Z</time><name>PT15340</name></trkpt>
<trkpt lat="53.250120" lon="-1.844519"><ele>255</ele><time>2019-08-30T14:49:06Z</time><name>PT15341</name></trkpt>
<trkpt lat="53.250101" lon="-1.844540"><ele>256</ele><time>2019-08-30T14:49:07Z</time><name>PT15342</name></trkpt>
<trkpt lat="53.250094" lon="-1.844553"><ele>256</ele><time>2019-08-30T14:49:08Z</time><name>PT15343</name></trkpt>
<trkpt lat="53.250085" lon="-1.844553"><ele>255</ele><time>2019-08-30T14:49:09Z</time><name>PT15344</name></trkpt>
<trkpt lat="53.250073" lon="-1.844555"><ele>255</ele><time>2019-08-30T14:49:10Z</time><name>PT15345</name></trkpt>
<trkpt lat="53.250058" lon="-1.844569"><ele>252</ele><time>2019-08-30T14:49:11Z</time><name>PT15346</name></trkpt>
<trkpt lat="53.250018" lon="-1.844595"><ele>249</ele><time>2019-08-30T14:49:12Z</time><name>PT15347</name></trkpt>
<trkpt lat="53.250004" lon="-1.844614"><ele>248</ele><time>2019-08-30T14:49:13Z</time><name>PT15348</name></trkpt>
<trkpt lat="53.249995" lon="-1.844624"><ele>248</ele><time>2019-08-30T14:49:14Z</time><name>PT15349</name></trkpt>
<trkpt lat="53.249987" lon="-1.844639"><ele>248</ele><time>2019-08-30T14:49:15Z</time><name>PT15350</name></trkpt>
<trkpt lat="53.249976" lon="-1.844644"><ele>247</ele><time>2019-08-30T14:49:16Z</time><name>PT15351</name></trkpt>
<trkpt lat="53.249965" lon="-1.844663"><ele>248</ele><time>2019-08-30T14:49:17Z</time><name>PT15352</name></trkpt>
<trkpt lat="53.249953" lon="-1.844673"><ele>248</ele><time>2019-08-30T14:49:18Z</time><name>PT15353</name></trkpt>
<trkpt lat="53.249938" lon="-1.844700"><ele>246</ele><time>2019-08-30T14:49:19Z</time><name>PT15354</name></trkpt>
<trkpt lat="53.249916" lon="-1.844717"><ele>247</ele><time>2019-08-30T14:49:20Z</time><name>PT15355</name></trkpt>
<trkpt lat="53.249909" lon="-1.844729"><ele>246</ele><time>2019-08-30T14:49:21Z</time><name>PT15356</name></trkpt>
<trkpt lat="53.249893" lon="-1.844741"><ele>246</ele><time>2019-08-30T14:49:22Z</time><name>PT15357</name></trkpt>
<trkpt lat="53.249884" lon="-1.844757"><ele>246</ele><time>2019-08-30T14:49:23Z</time><name>PT15358</name></trkpt>
<trkpt lat="53.249881" lon="-1.844774"><ele>247</ele><time>2019-08-30T14:49:24Z</time><name>PT15359</name></trkpt>
<trkpt lat="53.249875" lon="-1.844787"><ele>248</ele><time>2019-08-30T14:49:25Z</time><name>PT15360</name></trkpt>
<trkpt lat="53.249870" lon="-1.844796"><ele>247</ele><time>2019-08-30T14:49:26Z</time><name>PT15361</name></trkpt>
<trkpt lat="53.249862" lon="-1.844813"><ele>248</ele><time>2019-08-30T14:49:27Z</time><name>PT15362</name></trkpt>
<trkpt lat="53.249853" lon="-1.844825"><ele>249</ele><time>2019-08-30T14:49:28Z</time><name>PT15363</name></trkpt>
<trkpt lat="53.249845" lon="-1.844837"><ele>249</ele><time>2019-08-30T14:49:29Z</time><name>PT15364</name></trkpt>
<trkpt lat="53.249844" lon="-1.844850"><ele>246</ele><time>2019-08-30T14:49:30Z</time><name>PT15365</name></trkpt>
<trkpt lat="53.249840" lon="-1.844862"><ele>246</ele><time>2019-08-30T14:49:31Z</time><name>PT15366</name></trkpt>
<trkpt lat="53.249838" lon="-1.844876"><ele>248</ele><time>2019-08-30T14:49:32Z</time><name>PT15367</name></trkpt>
<trkpt lat="53.249833" lon="-1.844901"><ele>249</ele><time>2019-08-30T14:49:33Z</time><name>PT15368</name></trkpt>
<trkpt lat="53.249831" lon="-1.844921"><ele>250</ele><time>2019-08-30T14:49:34Z</time><name>PT15369</name></trkpt>
<trkpt lat="53.249825" lon="-1.844928"><ele>250</ele><time>2019-08-30T14:49:35Z</time><name>PT15370</name></trkpt>
<trkpt lat="53.249816" lon="-1.844939"><ele>249</ele><time>2019-08-30T14:49:36Z</time><name>PT15371</name></trkpt>
<trkpt lat="53.249814" lon="-1.844956"><ele>250</ele><time>2019-08-30T14:49:37Z</time><name>PT15372</name></trkpt>
<trkpt lat="53.249812" lon="-1.844973"><ele>252</ele><time>2019-08-30T14:49:38Z</time><name>PT15373</name></trkpt>
<trkpt lat="53.249809" lon="-1.844985"><ele>251</ele><time>2019-08-30T14:49:39Z</time><name>PT15374</name></trkpt>
<trkpt lat="53.249807" lon="-1.845000"><ele>251</ele><time>2019-08-30T14:49:40Z</time><name>PT15375</name></trkpt>
<trkpt lat="53.249794" lon="-1.845006"><ele>251</ele><time>2019-08-30T14:49:41Z</time><name>PT15376</name></trkpt>
<trkpt lat="53.249782" lon="-1.845023"><ele>250</ele><time>2019-08-30T14:49:42Z</time><name>PT15377</name></trkpt>
<trkpt lat="53.249766" lon="-1.845042"><ele>249</ele><time>2019-08-30T14:49:43Z</time><name>PT15378</name></trkpt>
<trkpt lat="53.249761" lon="-1.845058"><ele>250</ele><time>2019-08-30T14:49:44Z</time><name>PT15379</name></trkpt>
<trkpt lat="53.249752" lon="-1.845074"><ele>249</ele><time>2019-08-30T14:49:45Z</time><name>PT15380</name></trkpt>
<trkpt lat="53.249745" lon="-1.845087"><ele>248</ele><time>2019-08-30T14:49:46Z</time><name>PT15381</name></trkpt>
<trkpt lat="53.249727" lon="-1.845099"><ele>248</ele><time>2019-08-30T14:49:47Z</time><name>PT15382</name></trkpt>
<trkpt lat="53.249703" lon="-1.845121"><ele>250</ele><time>2019-08-30T14:49:48Z</time><name>PT15383</name></trkpt>
<trkpt lat="53.249687" lon="-1.845147"><ele>250</ele><time>2019-08-30T14:49:49Z</time><name>PT15384</name></trkpt>
<trkpt lat="53.249676" lon="-1.845158"><ele>250</ele><time>2019-08-30T14:49:50Z</time><name>PT15385</name></trkpt>
<trkpt lat="53.249663" lon="-1.845177"><ele>249</ele><time>2019-08-30T14:49:51Z</time><name>PT15386</name></trkpt>
<trkpt lat="53.249649" lon="-1.845198"><ele>247</ele><time>2019-08-30T14:49:52Z</time><name>PT15387</name></trkpt>
<trkpt lat="53.249644" lon="-1.845212"><ele>246</ele><time>2019-08-30T14:49:53Z</time><name>PT15388</name></trkpt>
<trkpt lat="53.249634" lon="-1.845230"><ele>247</ele><time>2019-08-30T14:49:54Z</time><name>PT15389</name></trkpt>
<trkpt lat="53.249629" lon="-1.845254"><ele>247</ele><time>2019-08-30T14:49:55Z</time><name>PT15390</name></trkpt>
<trkpt lat="53.249624" lon="-1.845266"><ele>246</ele><time>2019-08-30T14:49:56Z</time><name>PT15391</name></trkpt>
<trkpt lat="53.249624" lon="-1.845293"><ele>247</ele><time>2019-08-30T14:49:57Z</time><name>PT15392</name></trkpt>
<trkpt lat="53.249612" lon="-1.845310"><ele>246</ele><time>2019-08-30T14:49:58Z</time><name>PT15393</name></trkpt>
<trkpt lat="53.249610" lon="-1.845334"><ele>246</ele><time>2019-08-30T14:49:59Z</time><name>PT15394</name></trkpt>
<trkpt lat="53.249604" lon="-1.845352"><ele>246</ele><time>2019-08-30T14:50:00Z</time><name>PT15395</name></trkpt>
<trkpt lat="53.249597" lon="-1.845367"><ele>246</ele><time>2019-08-30T14:50:01Z</time><name>PT15396</name></trkpt>
<trkpt lat="53.249593" lon="-1.845383"><ele>245</ele><time>2019-08-30T14:50:02Z</time><name>PT15397</name></trkpt>
<trkpt lat="53.249588" lon="-1.845390"><ele>245</ele><time>2019-08-30T14:50:03Z</time><name>PT15398</name></trkpt>
<trkpt lat="53.249584" lon="-1.845399"><ele>246</ele><time>2019-08-30T14:50:04Z</time><name>PT15399</name></trkpt>
<trkpt lat="53.249577" lon="-1.845416"><ele>245</ele><time>2019-08-30T14:50:05Z</time><name>PT15400</name></trkpt>
<trkpt lat="53.249571" lon="-1.845423"><ele>245</ele><time>2019-08-30T14:50:06Z</time><name>PT15401</name></trkpt>
<trkpt lat="53.249565" lon="-1.845440"><ele>243</ele><time>2019-08-30T14:50:07Z</time><name>PT15402</name></trkpt>
<trkpt lat="53.249557" lon="-1.845457"><ele>243</ele><time>2019-08-30T14:50:08Z</time><name>PT15403</name></trkpt>
<trkpt lat="53.249551" lon="-1.845475"><ele>243</ele><time>2019-08-30T14:50:09Z</time><name>PT15404</name></trkpt>
<trkpt lat="53.249545" lon="-1.845493"><ele>243</ele><time>2019-08-30T14:50:10Z</time><name>PT15405</name></trkpt>
<trkpt lat="53.249539" lon="-1.845504"><ele>243</ele><time>2019-08-30T14:50:11Z</time><name>PT15406</name></trkpt>
<trkpt lat="53.249535" lon="-1.845518"><ele>243</ele><time>2019-08-30T14:50:12Z</time><name>PT15407</name></trkpt>
<trkpt lat="53.249531" lon="-1.845529"><ele>242</ele><time>2019-08-30T14:50:13Z</time><name>PT15408</name></trkpt>
<trkpt lat="53.249527" lon="-1.845545"><ele>242</ele><time>2019-08-30T14:50:14Z</time><name>PT15409</name></trkpt>
<trkpt lat="53.249520" lon="-1.845555"><ele>241</ele><time>2019-08-30T14:50:15Z</time><name>PT15410</name></trkpt>
<trkpt lat="53.249516" lon="-1.845570"><ele>241</ele><time>2019-08-30T14:50:16Z</time><name>PT15411</name></trkpt>
<trkpt lat="53.249513" lon="-1.845585"><ele>241</ele><time>2019-08-30T14:50:17Z</time><name>PT15412</name></trkpt>
<trkpt lat="53.249506" lon="-1.845600"><ele>240</ele><time>2019-08-30T14:50:18Z</time><name>PT15413</name></trkpt>
<trkpt lat="53.249500" lon="-1.845618"><ele>240</ele><time>2019-08-30T14:50:19Z</time><name>PT15414</name></trkpt>
<trkpt lat="53.249496" lon="-1.845641"><ele>240</ele><time>2019-08-30T14:50:20Z</time><name>PT15415</name></trkpt>
<trkpt lat="53.249490" lon="-1.845658"><ele>240</ele><time>2019-08-30T14:50:21Z</time><name>PT15416</name></trkpt>
<trkpt lat="53.249484" lon="-1.845666"><ele>240</ele><time>2019-08-30T14:50:22Z</time><name>PT15417</name></trkpt>
<trkpt lat="53.249478" lon="-1.845679"><ele>239</ele><time>2019-08-30T14:50:23Z</time><name>PT15418</name></trkpt>
<trkpt lat="53.249476" lon="-1.845682"><ele>239</ele><time>2019-08-30T14:50:24Z</time><name>PT15419</name></trkpt>
<trkpt lat="53.249468" lon="-1.845689"><ele>240</ele><time>2019-08-30T14:50:25Z</time><name>PT15420</name></trkpt>
<trkpt lat="53.249466" lon="-1.845693"><ele>240</ele><time>2019-08-30T14:50:26Z</time><name>PT15421</name></trkpt>
<trkpt lat="53.249466" lon="-1.845702"><ele>241</ele><time>2019-08-30T14:50:27Z</time><name>PT15422</name></trkpt>
<trkpt lat="53.249462" lon="-1.845715"><ele>241</ele><time>2019-08-30T14:50:28Z</time><name>PT15423</name></trkpt>
<trkpt lat="53.249452" lon="-1.845731"><ele>240</ele><time>2019-08-30T14:50:29Z</time><name>PT15424</name></trkpt>
<trkpt lat="53.249446" lon="-1.845744"><ele>239</ele><time>2019-08-30T14:50:30Z</time><name>PT15425</name></trkpt>
<trkpt lat="53.249443" lon="-1.845751"><ele>239</ele><time>2019-08-30T14:50:31Z</time><name>PT15426</name></trkpt>
<trkpt lat="53.249437" lon="-1.845768"><ele>239</ele><time>2019-08-30T14:50:32Z</time><name>PT15427</name></trkpt>
<trkpt lat="53.249429" lon="-1.845770"><ele>239</ele><time>2019-08-30T14:50:33Z</time><name>PT15428</name></trkpt>
<trkpt lat="53.249421" lon="-1.845794"><ele>239</ele><time>2019-08-30T14:50:34Z</time><name>PT15429</name></trkpt>
<trkpt lat="53.249422" lon="-1.845809"><ele>239</ele><time>2019-08-30T14:50:35Z</time><name>PT15430</name></trkpt>
<trkpt lat="53.249421" lon="-1.845825"><ele>240</ele><time>2019-08-30T14:50:36Z</time><name>PT15431</name></trkpt>
<trkpt lat="53.249418" lon="-1.845841"><ele>239</ele><time>2019-08-30T14:50:37Z</time><name>PT15432</name></trkpt>
<trkpt lat="53.249409" lon="-1.845860"><ele>239</ele><time>2019-08-30T14:50:38Z</time><name>PT15433</name></trkpt>
<trkpt lat="53.249402" lon="-1.845891"><ele>240</ele><time>2019-08-30T14:50:39Z</time><name>PT15434</name></trkpt>
<trkpt lat="53.249396" lon="-1.845921"><ele>241</ele><time>2019-08-30T14:50:40Z</time><name>PT15435</name></trkpt>
<trkpt lat="53.249394" lon="-1.845938"><ele>242</ele><time>2019-08-30T14:50:41Z</time><name>PT15436</name></trkpt>
<trkpt lat="53.249394" lon="-1.845953"><ele>241</ele><time>2019-08-30T14:50:42Z</time><name>PT15437</name></trkpt>
<trkpt lat="53.249394" lon="-1.845963"><ele>241</ele><time>2019-08-30T14:50:43Z</time><name>PT15438</name></trkpt>
<trkpt lat="53.249385" lon="-1.845976"><ele>241</ele><time>2019-08-30T14:50:44Z</time><name>PT15439</name></trkpt>
<trkpt lat="53.249379" lon="-1.845994"><ele>241</ele><time>2019-08-30T14:50:45Z</time><name>PT15440</name></trkpt>
<trkpt lat="53.249380" lon="-1.846010"><ele>241</ele><time>2019-08-30T14:50:46Z</time><name>PT15441</name></trkpt>
<trkpt lat="53.249374" lon="-1.846028"><ele>242</ele><time>2019-08-30T14:50:47Z</time><name>PT15442</name></trkpt>
<trkpt lat="53.249366" lon="-1.846049"><ele>242</ele><time>2019-08-30T14:50:48Z</time><name>PT15443</name></trkpt>
<trkpt lat="53.249357" lon="-1.846074"><ele>242</ele><time>2019-08-30T14:50:49Z</time><name>PT15444</name></trkpt>
<trkpt lat="53.249349" lon="-1.846102"><ele>243</ele><time>2019-08-30T14:50:50Z</time><name>PT15445</name></trkpt>
<trkpt lat="53.249347" lon="-1.846120"><ele>243</ele><time>2019-08-30T14:50:51Z</time><name>PT15446</name></trkpt>
<trkpt lat="53.249341" lon="-1.846130"><ele>243</ele><time>2019-08-30T14:50:52Z</time><name>PT15447</name></trkpt>
<trkpt lat="53.249340" lon="-1.846150"><ele>243</ele><time>2019-08-30T14:50:53Z</time><name>PT15448</name></trkpt>
<trkpt lat="53.249337" lon="-1.846149"><ele>240</ele><time>2019-08-30T14:50:54Z</time><name>PT15449</name></trkpt>
<trkpt lat="53.249335" lon="-1.846175"><ele>240</ele><time>2019-08-30T14:50:55Z</time><name>PT15450</name></trkpt>
<trkpt lat="53.249327" lon="-1.846200"><ele>240</ele><time>2019-08-30T14:50:56Z</time><name>PT15451</name></trkpt>
<trkpt lat="53.249324" lon="-1.846218"><ele>240</ele><time>2019-08-30T14:50:57Z</time><name>PT15452</name></trkpt>
<trkpt lat="53.249322" lon="-1.846236"><ele>240</ele><time>2019-08-30T14:50:58Z</time><name>PT15453</name></trkpt>
<trkpt lat="53.249318" lon="-1.846265"><ele>241</ele><time>2019-08-30T14:50:59Z</time><name>PT15454</name></trkpt>
<trkpt lat="53.249313" lon="-1.846295"><ele>241</ele><time>2019-08-30T14:51:00Z</time><name>PT15455</name></trkpt>
<trkpt lat="53.249306" lon="-1.846328"><ele>241</ele><time>2019-08-30T14:51:01Z</time><name>PT15456</name></trkpt>
<trkpt lat="53.249301" lon="-1.846349"><ele>242</ele><time>2019-08-30T14:51:02Z</time><name>PT15457</name></trkpt>
<trkpt lat="53.249300" lon="-1.846363"><ele>242</ele><time>2019-08-30T14:51:03Z</time><name>PT15458</name></trkpt>
<trkpt lat="53.249292" lon="-1.846385"><ele>241</ele><time>2019-08-30T14:51:04Z</time><name>PT15459</name></trkpt>
<trkpt lat="53.249280" lon="-1.846407"><ele>240</ele><time>2019-08-30T14:51:05Z</time><name>PT15460</name></trkpt>
<trkpt lat="53.249274" lon="-1.846430"><ele>240</ele><time>2019-08-30T14:51:06Z</time><name>PT15461</name></trkpt>
<trkpt lat="53.249271" lon="-1.846448"><ele>241</ele><time>2019-08-30T14:51:07Z</time><name>PT15462</name></trkpt>
<trkpt lat="53.249265" lon="-1.846465"><ele>241</ele><time>2019-08-30T14:51:08Z</time><name>PT15463</name></trkpt>
<trkpt lat="53.249257" lon="-1.846486"><ele>240</ele><time>2019-08-30T14:51:09Z</time><name>PT15464</name></trkpt>
<trkpt lat="53.249250" lon="-1.846513"><ele>240</ele><time>2019-08-30T14:51:10Z</time><name>PT15465</name></trkpt>
<trkpt lat="53.249245" lon="-1.846537"><ele>240</ele><time>2019-08-30T14:51:11Z</time><name>PT15466</name></trkpt>
<trkpt lat="53.249243" lon="-1.846549"><ele>241</ele><time>2019-08-30T14:51:12Z</time><name>PT15467</name></trkpt>
<trkpt lat="53.249238" lon="-1.846566"><ele>240</ele><time>2019-08-30T14:51:13Z</time><name>PT15468</name></trkpt>
<trkpt lat="53.249228" lon="-1.846581"><ele>241</ele><time>2019-08-30T14:51:14Z</time><name>PT15469</name></trkpt>
<trkpt lat="53.249223" lon="-1.846608"><ele>242</ele><time>2019-08-30T14:51:15Z</time><name>PT15470</name></trkpt>
<trkpt lat="53.249220" lon="-1.846619"><ele>242</ele><time>2019-08-30T14:51:16Z</time><name>PT15471</name></trkpt>
<trkpt lat="53.249215" lon="-1.846640"><ele>242</ele><time>2019-08-30T14:51:17Z</time><name>PT15472</name></trkpt>
<trkpt lat="53.249209" lon="-1.846659"><ele>242</ele><time>2019-08-30T14:51:18Z</time><name>PT15473</name></trkpt>
<trkpt lat="53.249204" lon="-1.846683"><ele>242</ele><time>2019-08-30T14:51:19Z</time><name>PT15474</name></trkpt>
<trkpt lat="53.249195" lon="-1.846708"><ele>243</ele><time>2019-08-30T14:51:20Z</time><name>PT15475</name></trkpt>
<trkpt lat="53.249190" lon="-1.846722"><ele>243</ele><time>2019-08-30T14:51:21Z</time><name>PT15476</name></trkpt>
<trkpt lat="53.249185" lon="-1.846739"><ele>242</ele><time>2019-08-30T14:51:22Z</time><name>PT15477</name></trkpt>
<trkpt lat="53.249178" lon="-1.846751"><ele>242</ele><time>2019-08-30T14:51:23Z</time><name>PT15478</name></trkpt>
<trkpt lat="53.249171" lon="-1.846759"><ele>244</ele><time>2019-08-30T14:51:24Z</time><name>PT15479</name></trkpt>
<trkpt lat="53.249166" lon="-1.846771"><ele>243</ele><time>2019-08-30T14:51:25Z</time><name>PT15480</name></trkpt>
<trkpt lat="53.249158" lon="-1.846786"><ele>243</ele><time>2019-08-30T14:51:26Z</time><name>PT15481</name></trkpt>
<trkpt lat="53.249155" lon="-1.846804"><ele>242</ele><time>2019-08-30T14:51:27Z</time><name>PT15482</name></trkpt>
<trkpt lat="53.249150" lon="-1.846821"><ele>242</ele><time>2019-08-30T14:51:28Z</time><name>PT15483</name></trkpt>
<trkpt lat="53.249143" lon="-1.846835"><ele>242</ele><time>2019-08-30T14:51:29Z</time><name>PT15484</name></trkpt>
<trkpt lat="53.249135" lon="-1.846850"><ele>241</ele><time>2019-08-30T14:51:30Z</time><name>PT15485</name></trkpt>
<trkpt lat="53.249130" lon="-1.846868"><ele>242</ele><time>2019-08-30T14:51:31Z</time><name>PT15486</name></trkpt>
<trkpt lat="53.249123" lon="-1.846881"><ele>241</ele><time>2019-08-30T14:51:32Z</time><name>PT15487</name></trkpt>
<trkpt lat="53.249116" lon="-1.846897"><ele>241</ele><time>2019-08-30T14:51:33Z</time><name>PT15488</name></trkpt>
<trkpt lat="53.249108" lon="-1.846909"><ele>241</ele><time>2019-08-30T14:51:34Z</time><name>PT15489</name></trkpt>
<trkpt lat="53.249099" lon="-1.846926"><ele>241</ele><time>2019-08-30T14:51:35Z</time><name>PT15490</name></trkpt>
<trkpt lat="53.249093" lon="-1.846941"><ele>241</ele><time>2019-08-30T14:51:36Z</time><name>PT15491</name></trkpt>
<trkpt lat="53.249087" lon="-1.846955"><ele>241</ele><time>2019-08-30T14:51:37Z</time><name>PT15492</name></trkpt>
<trkpt lat="53.249080" lon="-1.846968"><ele>241</ele><time>2019-08-30T14:51:38Z</time><name>PT15493</name></trkpt>
<trkpt lat="53.249070" lon="-1.846979"><ele>241</ele><time>2019-08-30T14:51:39Z</time><name>PT15494</name></trkpt>
<trkpt lat="53.249062" lon="-1.846994"><ele>240</ele><time>2019-08-30T14:51:40Z</time><name>PT15495</name></trkpt>
<trkpt lat="53.249049" lon="-1.847007"><ele>240</ele><time>2019-08-30T14:51:41Z</time><name>PT15496</name></trkpt>
<trkpt lat="53.249041" lon="-1.847018"><ele>240</ele><time>2019-08-30T14:51:42Z</time><name>PT15497</name></trkpt>
<trkpt lat="53.249030" lon="-1.847030"><ele>240</ele><time>2019-08-30T14:51:43Z</time><name>PT15498</name></trkpt>
<trkpt lat="53.249020" lon="-1.847036"><ele>240</ele><time>2019-08-30T14:51:44Z</time><name>PT15499</name></trkpt>
<trkpt lat="53.249010" lon="-1.847039"><ele>241</ele><time>2019-08-30T14:51:45Z</time><name>PT15500</name></trkpt>
<trkpt lat="53.248998" lon="-1.847038"><ele>241</ele><time>2019-08-30T14:51:46Z</time><name>PT15501</name></trkpt>
<trkpt lat="53.248986" lon="-1.847041"><ele>241</ele><time>2019-08-30T14:51:47Z</time><name>PT15502</name></trkpt>
<trkpt lat="53.248976" lon="-1.847045"><ele>242</ele><time>2019-08-30T14:51:48Z</time><name>PT15503</name></trkpt>
<trkpt lat="53.248967" lon="-1.847044"><ele>242</ele><time>2019-08-30T14:51:49Z</time><name>PT15504</name></trkpt>
<trkpt lat="53.248959" lon="-1.847042"><ele>242</ele><time>2019-08-30T14:51:50Z</time><name>PT15505</name></trkpt>
<trkpt lat="53.248948" lon="-1.847039"><ele>242</ele><time>2019-08-30T14:51:51Z</time><name>PT15506</name></trkpt>
<trkpt lat="53.248939" lon="-1.847037"><ele>242</ele><time>2019-08-30T14:51:52Z</time><name>PT15507</name></trkpt>
<trkpt lat="53.248929" lon="-1.847032"><ele>242</ele><time>2019-08-30T14:51:53Z</time><name>PT15508</name></trkpt>
<trkpt lat="53.248918" lon="-1.847027"><ele>242</ele><time>2019-08-30T14:51:54Z</time><name>PT15509</name></trkpt>
<trkpt lat="53.248905" lon="-1.847023"><ele>243</ele><time>2019-08-30T14:51:55Z</time><name>PT15510</name></trkpt>
<trkpt lat="53.248892" lon="-1.847019"><ele>243</ele><time>2019-08-30T14:51:56Z</time><name>PT15511</name></trkpt>
<trkpt lat="53.248881" lon="-1.847014"><ele>243</ele><time>2019-08-30T14:51:57Z</time><name>PT15512</name></trkpt>
<trkpt lat="53.248868" lon="-1.847011"><ele>243</ele><time>2019-08-30T14:51:58Z</time><name>PT15513</name></trkpt>
<trkpt lat="53.248854" lon="-1.847011"><ele>243</ele><time>2019-08-30T14:51:59Z</time><name>PT15514</name></trkpt>
<trkpt lat="53.248841" lon="-1.847010"><ele>243</ele><time>2019-08-30T14:52:00Z</time><name>PT15515</name></trkpt>
<trkpt lat="53.248827" lon="-1.847009"><ele>243</ele><time>2019-08-30T14:52:01Z</time><name>PT15516</name></trkpt>
<trkpt lat="53.248813" lon="-1.847009"><ele>243</ele><time>2019-08-30T14:52:02Z</time><name>PT15517</name></trkpt>
<trkpt lat="53.248801" lon="-1.847007"><ele>243</ele><time>2019-08-30T14:52:03Z</time><name>PT15518</name></trkpt>
<trkpt lat="53.248790" lon="-1.847005"><ele>243</ele><time>2019-08-30T14:52:04Z</time><name>PT15519</name></trkpt>
<trkpt lat="53.248779" lon="-1.847001"><ele>242</ele><time>2019-08-30T14:52:05Z</time><name>PT15520</name></trkpt>
<trkpt lat="53.248771" lon="-1.846997"><ele>242</ele><time>2019-08-30T14:52:06Z</time><name>PT15521</name></trkpt>
<trkpt lat="53.248769" lon="-1.846994"><ele>242</ele><time>2019-08-30T14:52:07Z</time><name>PT15522</name></trkpt>
<trkpt lat="53.248767" lon="-1.846993"><ele>242</ele><time>2019-08-30T14:52:08Z</time><name>PT15523</name></trkpt></trkseg></trk></gpx>